<?xml version="1.0" encoding="UTF-8"?>
<gpx version="1.1" creator="https://www.youtrack.es" xsi:schemaLocation="http://www.topografix.com/GPX/1/1 http://www.topografix.com/GPX/1/1/gpx.xsd http://www.garmin.com/xmlschemas/GpxExtensions/v3 http://www.garmin.com/xmlschemas/GpxExtensionsv3.xsd http://www.garmin.com/xmlschemas/TrackPointExtension/v1 http://www.garmin.com/xmlschemas/TrackPointExtensionv1.xsd" xmlns:gpxtpx="http://www.garmin.com/xmlschemas/TrackPointExtension/v1" xmlns:gpxx="http://www.garmin.com/xmlschemas/GpxExtensions/v3" xmlns:xsi="http://www.w3.org/2001/XMLSchema-instance">
  <metadata>
    <link href="https://www.youtrack.es">
      <text>YouTrack.es</text>
    </link>
    <time>2026-05-09T04:57:00Z</time>
  </metadata>
  <trk>
    <src>https://www.youtrack.es</src>
    <link href="https://www.youtrack.es/ruta/1767-cicloturismo1">
      <text>YouTrack.es</text>
    </link>
    <trkseg>
      <trkpt lat="-28.46033" lon="-65.77098">
        <ele>511.2</ele>
        <time>2018-08-18T11:10:26Z</time>
      </trkpt>
      <trkpt lat="-28.46033" lon="-65.77098">
        <ele>511.2</ele>
        <time>2018-08-18T11:10:35Z</time>
      </trkpt>
      <trkpt lat="-28.460355" lon="-65.7709">
        <ele>530.1</ele>
        <time>2018-08-18T11:10:56Z</time>
      </trkpt>
      <trkpt lat="-28.460355" lon="-65.7709">
        <ele>543.2</ele>
        <time>2018-08-18T11:11:04Z</time>
      </trkpt>
      <trkpt lat="-28.460265" lon="-65.77093333333333">
        <ele>545.7</ele>
        <time>2018-08-18T11:13:37Z</time>
      </trkpt>
      <trkpt lat="-28.460265" lon="-65.77093333333333">
        <ele>545.8</ele>
        <time>2018-08-18T11:13:44Z</time>
      </trkpt>
      <trkpt lat="-28.460245" lon="-65.77083833333333">
        <ele>545.9</ele>
        <time>2018-08-18T11:14:10Z</time>
      </trkpt>
      <trkpt lat="-28.460245" lon="-65.770745">
        <ele>545.7</ele>
        <time>2018-08-18T11:14:14Z</time>
      </trkpt>
      <trkpt lat="-28.46024" lon="-65.770645">
        <ele>545.4</ele>
        <time>2018-08-18T11:14:17Z</time>
      </trkpt>
      <trkpt lat="-28.460235" lon="-65.77053333333333">
        <ele>545.1</ele>
        <time>2018-08-18T11:14:20Z</time>
      </trkpt>
      <trkpt lat="-28.46023" lon="-65.770435">
        <ele>544.9</ele>
        <time>2018-08-18T11:14:23Z</time>
      </trkpt>
      <trkpt lat="-28.460225" lon="-65.77034833333333">
        <ele>544.6</ele>
        <time>2018-08-18T11:14:26Z</time>
      </trkpt>
      <trkpt lat="-28.46022" lon="-65.770245">
        <ele>544.4</ele>
        <time>2018-08-18T11:14:30Z</time>
      </trkpt>
      <trkpt lat="-28.46022" lon="-65.77015666666667">
        <ele>544.4</ele>
        <time>2018-08-18T11:14:34Z</time>
      </trkpt>
      <trkpt lat="-28.46022" lon="-65.77012166666667">
        <ele>544.2</ele>
        <time>2018-08-18T11:14:41Z</time>
      </trkpt>
      <trkpt lat="-28.46022" lon="-65.77012333333333">
        <ele>544.2</ele>
        <time>2018-08-18T11:14:42Z</time>
      </trkpt>
      <trkpt lat="-28.46023" lon="-65.77014">
        <ele>543.7</ele>
        <time>2018-08-18T11:15:00Z</time>
      </trkpt>
      <trkpt lat="-28.46023" lon="-65.770145">
        <ele>543.7</ele>
        <time>2018-08-18T11:15:01Z</time>
      </trkpt>
      <trkpt lat="-28.460245" lon="-65.770115">
        <ele>543.7</ele>
        <time>2018-08-18T11:15:13Z</time>
      </trkpt>
      <trkpt lat="-28.460245" lon="-65.77011">
        <ele>543.6</ele>
        <time>2018-08-18T11:15:14Z</time>
      </trkpt>
      <trkpt lat="-28.460245" lon="-65.770025">
        <ele>543.3</ele>
        <time>2018-08-18T11:15:18Z</time>
      </trkpt>
      <trkpt lat="-28.46024" lon="-65.769935">
        <ele>543.0</ele>
        <time>2018-08-18T11:15:21Z</time>
      </trkpt>
      <trkpt lat="-28.46023" lon="-65.769845">
        <ele>542.9</ele>
        <time>2018-08-18T11:15:24Z</time>
      </trkpt>
      <trkpt lat="-28.460225" lon="-65.76975">
        <ele>542.8</ele>
        <time>2018-08-18T11:15:27Z</time>
      </trkpt>
      <trkpt lat="-28.46022" lon="-65.76963">
        <ele>542.6</ele>
        <time>2018-08-18T11:15:30Z</time>
      </trkpt>
      <trkpt lat="-28.46022" lon="-65.769515">
        <ele>542.3</ele>
        <time>2018-08-18T11:15:33Z</time>
      </trkpt>
      <trkpt lat="-28.46022" lon="-65.76942">
        <ele>542.3</ele>
        <time>2018-08-18T11:15:35Z</time>
      </trkpt>
      <trkpt lat="-28.46022" lon="-65.769335">
        <ele>541.9</ele>
        <time>2018-08-18T11:15:37Z</time>
      </trkpt>
      <trkpt lat="-28.46022" lon="-65.76924">
        <ele>541.4</ele>
        <time>2018-08-18T11:15:39Z</time>
      </trkpt>
      <trkpt lat="-28.46022" lon="-65.769155">
        <ele>541.3</ele>
        <time>2018-08-18T11:15:41Z</time>
      </trkpt>
      <trkpt lat="-28.46022" lon="-65.769065">
        <ele>541.5</ele>
        <time>2018-08-18T11:15:43Z</time>
      </trkpt>
      <trkpt lat="-28.46022" lon="-65.76896166666667">
        <ele>541.6</ele>
        <time>2018-08-18T11:15:45Z</time>
      </trkpt>
      <trkpt lat="-28.46021" lon="-65.768885">
        <ele>541.7</ele>
        <time>2018-08-18T11:15:47Z</time>
      </trkpt>
      <trkpt lat="-28.46021" lon="-65.7688">
        <ele>541.5</ele>
        <time>2018-08-18T11:15:49Z</time>
      </trkpt>
      <trkpt lat="-28.46022" lon="-65.76871">
        <ele>541.3</ele>
        <time>2018-08-18T11:15:51Z</time>
      </trkpt>
      <trkpt lat="-28.46022" lon="-65.76862">
        <ele>541.1</ele>
        <time>2018-08-18T11:15:53Z</time>
      </trkpt>
      <trkpt lat="-28.46023" lon="-65.76851666666667">
        <ele>541.0</ele>
        <time>2018-08-18T11:15:55Z</time>
      </trkpt>
      <trkpt lat="-28.460235" lon="-65.76841666666667">
        <ele>541.3</ele>
        <time>2018-08-18T11:15:57Z</time>
      </trkpt>
      <trkpt lat="-28.460235" lon="-65.76833166666667">
        <ele>541.0</ele>
        <time>2018-08-18T11:15:59Z</time>
      </trkpt>
      <trkpt lat="-28.46024" lon="-65.76824">
        <ele>541.1</ele>
        <time>2018-08-18T11:16:01Z</time>
      </trkpt>
      <trkpt lat="-28.460245" lon="-65.768145">
        <ele>541.0</ele>
        <time>2018-08-18T11:16:03Z</time>
      </trkpt>
      <trkpt lat="-28.460255" lon="-65.76806">
        <ele>541.3</ele>
        <time>2018-08-18T11:16:05Z</time>
      </trkpt>
      <trkpt lat="-28.460265" lon="-65.767955">
        <ele>541.3</ele>
        <time>2018-08-18T11:16:08Z</time>
      </trkpt>
      <trkpt lat="-28.460275" lon="-65.767835">
        <ele>541.4</ele>
        <time>2018-08-18T11:16:11Z</time>
      </trkpt>
      <trkpt lat="-28.46028" lon="-65.76775166666667">
        <ele>541.7</ele>
        <time>2018-08-18T11:16:13Z</time>
      </trkpt>
      <trkpt lat="-28.460281666666667" lon="-65.76766166666667">
        <ele>541.8</ele>
        <time>2018-08-18T11:16:15Z</time>
      </trkpt>
      <trkpt lat="-28.4603" lon="-65.76757">
        <ele>542.6</ele>
        <time>2018-08-18T11:16:17Z</time>
      </trkpt>
      <trkpt lat="-28.46031" lon="-65.76748">
        <ele>542.8</ele>
        <time>2018-08-18T11:16:19Z</time>
      </trkpt>
      <trkpt lat="-28.46032" lon="-65.767385">
        <ele>542.7</ele>
        <time>2018-08-18T11:16:21Z</time>
      </trkpt>
      <trkpt lat="-28.46032" lon="-65.7673">
        <ele>542.4</ele>
        <time>2018-08-18T11:16:23Z</time>
      </trkpt>
      <trkpt lat="-28.46033" lon="-65.767205">
        <ele>542.5</ele>
        <time>2018-08-18T11:16:25Z</time>
      </trkpt>
      <trkpt lat="-28.46034" lon="-65.767115">
        <ele>542.8</ele>
        <time>2018-08-18T11:16:27Z</time>
      </trkpt>
      <trkpt lat="-28.46035" lon="-65.767025">
        <ele>543.3</ele>
        <time>2018-08-18T11:16:29Z</time>
      </trkpt>
      <trkpt lat="-28.46035" lon="-65.766935">
        <ele>543.5</ele>
        <time>2018-08-18T11:16:31Z</time>
      </trkpt>
      <trkpt lat="-28.460365" lon="-65.76685">
        <ele>542.4</ele>
        <time>2018-08-18T11:16:33Z</time>
      </trkpt>
      <trkpt lat="-28.460365" lon="-65.766755">
        <ele>542.1</ele>
        <time>2018-08-18T11:16:35Z</time>
      </trkpt>
      <trkpt lat="-28.460375" lon="-65.76666666666667">
        <ele>542.4</ele>
        <time>2018-08-18T11:16:37Z</time>
      </trkpt>
      <trkpt lat="-28.460385" lon="-65.76658">
        <ele>542.9</ele>
        <time>2018-08-18T11:16:39Z</time>
      </trkpt>
      <trkpt lat="-28.46039" lon="-65.766495">
        <ele>543.0</ele>
        <time>2018-08-18T11:16:41Z</time>
      </trkpt>
      <trkpt lat="-28.460395" lon="-65.76638">
        <ele>543.3</ele>
        <time>2018-08-18T11:16:44Z</time>
      </trkpt>
      <trkpt lat="-28.4604" lon="-65.766295">
        <ele>543.6</ele>
        <time>2018-08-18T11:16:47Z</time>
      </trkpt>
      <trkpt lat="-28.46041" lon="-65.7662">
        <ele>543.7</ele>
        <time>2018-08-18T11:16:51Z</time>
      </trkpt>
      <trkpt lat="-28.460415" lon="-65.766115">
        <ele>543.5</ele>
        <time>2018-08-18T11:16:53Z</time>
      </trkpt>
      <trkpt lat="-28.46043" lon="-65.766005">
        <ele>543.8</ele>
        <time>2018-08-18T11:16:55Z</time>
      </trkpt>
      <trkpt lat="-28.460445" lon="-65.7659">
        <ele>544.6</ele>
        <time>2018-08-18T11:16:57Z</time>
      </trkpt>
      <trkpt lat="-28.460455" lon="-65.76578333333333">
        <ele>545.3</ele>
        <time>2018-08-18T11:16:59Z</time>
      </trkpt>
      <trkpt lat="-28.460465" lon="-65.765675">
        <ele>545.6</ele>
        <time>2018-08-18T11:17:01Z</time>
      </trkpt>
      <trkpt lat="-28.46047" lon="-65.765585">
        <ele>545.5</ele>
        <time>2018-08-18T11:17:03Z</time>
      </trkpt>
      <trkpt lat="-28.46048" lon="-65.765495">
        <ele>546.4</ele>
        <time>2018-08-18T11:17:05Z</time>
      </trkpt>
      <trkpt lat="-28.460485" lon="-65.765395">
        <ele>546.9</ele>
        <time>2018-08-18T11:17:07Z</time>
      </trkpt>
      <trkpt lat="-28.46049" lon="-65.7653">
        <ele>547.1</ele>
        <time>2018-08-18T11:17:09Z</time>
      </trkpt>
      <trkpt lat="-28.460495" lon="-65.76517">
        <ele>547.3</ele>
        <time>2018-08-18T11:17:12Z</time>
      </trkpt>
      <trkpt lat="-28.460505" lon="-65.76506">
        <ele>546.5</ele>
        <time>2018-08-18T11:17:14Z</time>
      </trkpt>
      <trkpt lat="-28.46051" lon="-65.76496">
        <ele>545.9</ele>
        <time>2018-08-18T11:17:16Z</time>
      </trkpt>
      <trkpt lat="-28.46052" lon="-65.76486">
        <ele>546.4</ele>
        <time>2018-08-18T11:17:18Z</time>
      </trkpt>
      <trkpt lat="-28.460535" lon="-65.76475">
        <ele>547.2</ele>
        <time>2018-08-18T11:17:20Z</time>
      </trkpt>
      <trkpt lat="-28.460545" lon="-65.76466333333333">
        <ele>547.7</ele>
        <time>2018-08-18T11:17:22Z</time>
      </trkpt>
      <trkpt lat="-28.460555" lon="-65.76457666666667">
        <ele>547.3</ele>
        <time>2018-08-18T11:17:24Z</time>
      </trkpt>
      <trkpt lat="-28.46057" lon="-65.76448166666667">
        <ele>546.6</ele>
        <time>2018-08-18T11:17:26Z</time>
      </trkpt>
      <trkpt lat="-28.46058" lon="-65.76439166666667">
        <ele>546.4</ele>
        <time>2018-08-18T11:17:28Z</time>
      </trkpt>
      <trkpt lat="-28.46059" lon="-65.764315">
        <ele>546.0</ele>
        <time>2018-08-18T11:17:30Z</time>
      </trkpt>
      <trkpt lat="-28.46059" lon="-65.76421">
        <ele>546.2</ele>
        <time>2018-08-18T11:17:32Z</time>
      </trkpt>
      <trkpt lat="-28.4606" lon="-65.76414">
        <ele>546.1</ele>
        <time>2018-08-18T11:17:34Z</time>
      </trkpt>
      <trkpt lat="-28.46061" lon="-65.764025">
        <ele>544.7</ele>
        <time>2018-08-18T11:17:37Z</time>
      </trkpt>
      <trkpt lat="-28.460615" lon="-65.763935">
        <ele>544.0</ele>
        <time>2018-08-18T11:17:39Z</time>
      </trkpt>
      <trkpt lat="-28.460625" lon="-65.763835">
        <ele>543.5</ele>
        <time>2018-08-18T11:17:41Z</time>
      </trkpt>
      <trkpt lat="-28.460635" lon="-65.763735">
        <ele>543.3</ele>
        <time>2018-08-18T11:17:43Z</time>
      </trkpt>
      <trkpt lat="-28.46065" lon="-65.763625">
        <ele>542.8</ele>
        <time>2018-08-18T11:17:45Z</time>
      </trkpt>
      <trkpt lat="-28.46066" lon="-65.76353">
        <ele>542.6</ele>
        <time>2018-08-18T11:17:47Z</time>
      </trkpt>
      <trkpt lat="-28.46067" lon="-65.763425">
        <ele>542.5</ele>
        <time>2018-08-18T11:17:49Z</time>
      </trkpt>
      <trkpt lat="-28.460675" lon="-65.76334">
        <ele>542.7</ele>
        <time>2018-08-18T11:17:51Z</time>
      </trkpt>
      <trkpt lat="-28.46068" lon="-65.76325">
        <ele>542.9</ele>
        <time>2018-08-18T11:17:53Z</time>
      </trkpt>
      <trkpt lat="-28.46069" lon="-65.763155">
        <ele>543.1</ele>
        <time>2018-08-18T11:17:55Z</time>
      </trkpt>
      <trkpt lat="-28.460715" lon="-65.76303">
        <ele>543.3</ele>
        <time>2018-08-18T11:17:58Z</time>
      </trkpt>
      <trkpt lat="-28.460735" lon="-65.76295">
        <ele>543.3</ele>
        <time>2018-08-18T11:18:00Z</time>
      </trkpt>
      <trkpt lat="-28.460765" lon="-65.762855">
        <ele>543.3</ele>
        <time>2018-08-18T11:18:02Z</time>
      </trkpt>
      <trkpt lat="-28.46078" lon="-65.76276">
        <ele>543.2</ele>
        <time>2018-08-18T11:18:04Z</time>
      </trkpt>
      <trkpt lat="-28.46078" lon="-65.762665">
        <ele>543.3</ele>
        <time>2018-08-18T11:18:06Z</time>
      </trkpt>
      <trkpt lat="-28.460765" lon="-65.762555">
        <ele>543.9</ele>
        <time>2018-08-18T11:18:08Z</time>
      </trkpt>
      <trkpt lat="-28.460755" lon="-65.76246166666667">
        <ele>544.0</ele>
        <time>2018-08-18T11:18:10Z</time>
      </trkpt>
      <trkpt lat="-28.460725" lon="-65.762345">
        <ele>544.3</ele>
        <time>2018-08-18T11:18:13Z</time>
      </trkpt>
      <trkpt lat="-28.460695" lon="-65.762265">
        <ele>544.5</ele>
        <time>2018-08-18T11:18:15Z</time>
      </trkpt>
      <trkpt lat="-28.46067" lon="-65.762185">
        <ele>544.7</ele>
        <time>2018-08-18T11:18:17Z</time>
      </trkpt>
      <trkpt lat="-28.460645" lon="-65.762095">
        <ele>544.6</ele>
        <time>2018-08-18T11:18:19Z</time>
      </trkpt>
      <trkpt lat="-28.46062" lon="-65.762">
        <ele>544.8</ele>
        <time>2018-08-18T11:18:21Z</time>
      </trkpt>
      <trkpt lat="-28.460605" lon="-65.761905">
        <ele>544.7</ele>
        <time>2018-08-18T11:18:23Z</time>
      </trkpt>
      <trkpt lat="-28.46059" lon="-65.761815">
        <ele>544.2</ele>
        <time>2018-08-18T11:18:25Z</time>
      </trkpt>
      <trkpt lat="-28.46059" lon="-65.761725">
        <ele>543.9</ele>
        <time>2018-08-18T11:18:27Z</time>
      </trkpt>
      <trkpt lat="-28.46058" lon="-65.76164">
        <ele>543.7</ele>
        <time>2018-08-18T11:18:29Z</time>
      </trkpt>
      <trkpt lat="-28.460575" lon="-65.76154">
        <ele>543.1</ele>
        <time>2018-08-18T11:18:31Z</time>
      </trkpt>
      <trkpt lat="-28.460565" lon="-65.761455">
        <ele>543.1</ele>
        <time>2018-08-18T11:18:33Z</time>
      </trkpt>
      <trkpt lat="-28.460555" lon="-65.76137">
        <ele>544.3</ele>
        <time>2018-08-18T11:18:35Z</time>
      </trkpt>
      <trkpt lat="-28.46054" lon="-65.76128">
        <ele>545.3</ele>
        <time>2018-08-18T11:18:37Z</time>
      </trkpt>
      <trkpt lat="-28.46053" lon="-65.761185">
        <ele>545.2</ele>
        <time>2018-08-18T11:18:39Z</time>
      </trkpt>
      <trkpt lat="-28.46052" lon="-65.76108166666667">
        <ele>545.5</ele>
        <time>2018-08-18T11:18:41Z</time>
      </trkpt>
      <trkpt lat="-28.46051" lon="-65.760975">
        <ele>546.1</ele>
        <time>2018-08-18T11:18:44Z</time>
      </trkpt>
      <trkpt lat="-28.46051" lon="-65.760875">
        <ele>545.9</ele>
        <time>2018-08-18T11:18:46Z</time>
      </trkpt>
      <trkpt lat="-28.460505" lon="-65.76079">
        <ele>545.5</ele>
        <time>2018-08-18T11:18:48Z</time>
      </trkpt>
      <trkpt lat="-28.4605" lon="-65.760695">
        <ele>545.4</ele>
        <time>2018-08-18T11:18:50Z</time>
      </trkpt>
      <trkpt lat="-28.46049" lon="-65.76061">
        <ele>545.0</ele>
        <time>2018-08-18T11:18:52Z</time>
      </trkpt>
      <trkpt lat="-28.46048" lon="-65.760525">
        <ele>544.3</ele>
        <time>2018-08-18T11:18:54Z</time>
      </trkpt>
      <trkpt lat="-28.46047" lon="-65.760445">
        <ele>544.2</ele>
        <time>2018-08-18T11:18:56Z</time>
      </trkpt>
      <trkpt lat="-28.46046" lon="-65.76032">
        <ele>544.1</ele>
        <time>2018-08-18T11:18:59Z</time>
      </trkpt>
      <trkpt lat="-28.46046" lon="-65.76022833333333">
        <ele>543.8</ele>
        <time>2018-08-18T11:19:01Z</time>
      </trkpt>
      <trkpt lat="-28.460465" lon="-65.760135">
        <ele>543.5</ele>
        <time>2018-08-18T11:19:03Z</time>
      </trkpt>
      <trkpt lat="-28.46046" lon="-65.76005">
        <ele>542.9</ele>
        <time>2018-08-18T11:19:05Z</time>
      </trkpt>
      <trkpt lat="-28.460455" lon="-65.75995666666667">
        <ele>542.4</ele>
        <time>2018-08-18T11:19:07Z</time>
      </trkpt>
      <trkpt lat="-28.46045" lon="-65.75987">
        <ele>542.5</ele>
        <time>2018-08-18T11:19:09Z</time>
      </trkpt>
      <trkpt lat="-28.460435" lon="-65.759755">
        <ele>543.5</ele>
        <time>2018-08-18T11:19:12Z</time>
      </trkpt>
      <trkpt lat="-28.460425" lon="-65.759665">
        <ele>544.2</ele>
        <time>2018-08-18T11:19:14Z</time>
      </trkpt>
      <trkpt lat="-28.460415" lon="-65.75957">
        <ele>544.8</ele>
        <time>2018-08-18T11:19:16Z</time>
      </trkpt>
      <trkpt lat="-28.46041" lon="-65.759485">
        <ele>545.2</ele>
        <time>2018-08-18T11:19:18Z</time>
      </trkpt>
      <trkpt lat="-28.4604" lon="-65.759375">
        <ele>544.6</ele>
        <time>2018-08-18T11:19:20Z</time>
      </trkpt>
      <trkpt lat="-28.460395" lon="-65.75927">
        <ele>544.8</ele>
        <time>2018-08-18T11:19:23Z</time>
      </trkpt>
      <trkpt lat="-28.46039" lon="-65.759175">
        <ele>545.3</ele>
        <time>2018-08-18T11:19:25Z</time>
      </trkpt>
      <trkpt lat="-28.46038" lon="-65.759065">
        <ele>546.6</ele>
        <time>2018-08-18T11:19:27Z</time>
      </trkpt>
      <trkpt lat="-28.460375" lon="-65.75897166666667">
        <ele>547.4</ele>
        <time>2018-08-18T11:19:29Z</time>
      </trkpt>
      <trkpt lat="-28.460365" lon="-65.758885">
        <ele>547.3</ele>
        <time>2018-08-18T11:19:31Z</time>
      </trkpt>
      <trkpt lat="-28.460355" lon="-65.75881">
        <ele>547.2</ele>
        <time>2018-08-18T11:19:33Z</time>
      </trkpt>
      <trkpt lat="-28.46035" lon="-65.758705">
        <ele>547.4</ele>
        <time>2018-08-18T11:19:35Z</time>
      </trkpt>
      <trkpt lat="-28.460345" lon="-65.758615">
        <ele>547.5</ele>
        <time>2018-08-18T11:19:37Z</time>
      </trkpt>
      <trkpt lat="-28.46034" lon="-65.75852">
        <ele>547.7</ele>
        <time>2018-08-18T11:19:39Z</time>
      </trkpt>
      <trkpt lat="-28.46033" lon="-65.758435">
        <ele>547.3</ele>
        <time>2018-08-18T11:19:41Z</time>
      </trkpt>
      <trkpt lat="-28.46032" lon="-65.75834333333333">
        <ele>546.8</ele>
        <time>2018-08-18T11:19:43Z</time>
      </trkpt>
      <trkpt lat="-28.46032" lon="-65.75825">
        <ele>546.3</ele>
        <time>2018-08-18T11:19:45Z</time>
      </trkpt>
      <trkpt lat="-28.46032" lon="-65.758165">
        <ele>545.1</ele>
        <time>2018-08-18T11:19:47Z</time>
      </trkpt>
      <trkpt lat="-28.46031" lon="-65.758065">
        <ele>544.0</ele>
        <time>2018-08-18T11:19:49Z</time>
      </trkpt>
      <trkpt lat="-28.460295" lon="-65.75794166666667">
        <ele>544.2</ele>
        <time>2018-08-18T11:19:52Z</time>
      </trkpt>
      <trkpt lat="-28.46028" lon="-65.757845">
        <ele>546.0</ele>
        <time>2018-08-18T11:19:54Z</time>
      </trkpt>
      <trkpt lat="-28.46028" lon="-65.75776">
        <ele>545.8</ele>
        <time>2018-08-18T11:19:56Z</time>
      </trkpt>
      <trkpt lat="-28.460265" lon="-65.757645">
        <ele>545.8</ele>
        <time>2018-08-18T11:19:59Z</time>
      </trkpt>
      <trkpt lat="-28.460255" lon="-65.757535">
        <ele>545.9</ele>
        <time>2018-08-18T11:20:02Z</time>
      </trkpt>
      <trkpt lat="-28.460255" lon="-65.75744">
        <ele>545.9</ele>
        <time>2018-08-18T11:20:05Z</time>
      </trkpt>
      <trkpt lat="-28.460245" lon="-65.757345">
        <ele>546.0</ele>
        <time>2018-08-18T11:20:08Z</time>
      </trkpt>
      <trkpt lat="-28.460235" lon="-65.75722">
        <ele>546.1</ele>
        <time>2018-08-18T11:20:11Z</time>
      </trkpt>
      <trkpt lat="-28.46022" lon="-65.75714">
        <ele>546.0</ele>
        <time>2018-08-18T11:20:13Z</time>
      </trkpt>
      <trkpt lat="-28.460205" lon="-65.75703">
        <ele>545.8</ele>
        <time>2018-08-18T11:20:16Z</time>
      </trkpt>
      <trkpt lat="-28.4602" lon="-65.75695">
        <ele>545.7</ele>
        <time>2018-08-18T11:20:18Z</time>
      </trkpt>
      <trkpt lat="-28.46019" lon="-65.75686">
        <ele>545.6</ele>
        <time>2018-08-18T11:20:20Z</time>
      </trkpt>
      <trkpt lat="-28.460175" lon="-65.756775">
        <ele>545.6</ele>
        <time>2018-08-18T11:20:22Z</time>
      </trkpt>
      <trkpt lat="-28.460165" lon="-65.75669">
        <ele>545.4</ele>
        <time>2018-08-18T11:20:24Z</time>
      </trkpt>
      <trkpt lat="-28.460155" lon="-65.75658833333334">
        <ele>545.3</ele>
        <time>2018-08-18T11:20:26Z</time>
      </trkpt>
      <trkpt lat="-28.46013" lon="-65.756505">
        <ele>545.4</ele>
        <time>2018-08-18T11:20:28Z</time>
      </trkpt>
      <trkpt lat="-28.46012" lon="-65.756415">
        <ele>545.4</ele>
        <time>2018-08-18T11:20:30Z</time>
      </trkpt>
      <trkpt lat="-28.46009" lon="-65.75632">
        <ele>545.8</ele>
        <time>2018-08-18T11:20:32Z</time>
      </trkpt>
      <trkpt lat="-28.46007" lon="-65.756235">
        <ele>545.8</ele>
        <time>2018-08-18T11:20:34Z</time>
      </trkpt>
      <trkpt lat="-28.46004" lon="-65.756135">
        <ele>545.1</ele>
        <time>2018-08-18T11:20:36Z</time>
      </trkpt>
      <trkpt lat="-28.460015" lon="-65.75605">
        <ele>544.5</ele>
        <time>2018-08-18T11:20:38Z</time>
      </trkpt>
      <trkpt lat="-28.459985" lon="-65.75596">
        <ele>544.2</ele>
        <time>2018-08-18T11:20:40Z</time>
      </trkpt>
      <trkpt lat="-28.45996" lon="-65.75587">
        <ele>543.7</ele>
        <time>2018-08-18T11:20:42Z</time>
      </trkpt>
      <trkpt lat="-28.45993" lon="-65.75578">
        <ele>543.6</ele>
        <time>2018-08-18T11:20:44Z</time>
      </trkpt>
      <trkpt lat="-28.4599" lon="-65.755685">
        <ele>543.9</ele>
        <time>2018-08-18T11:20:46Z</time>
      </trkpt>
      <trkpt lat="-28.459875" lon="-65.7556">
        <ele>544.6</ele>
        <time>2018-08-18T11:20:48Z</time>
      </trkpt>
      <trkpt lat="-28.45985" lon="-65.755515">
        <ele>545.2</ele>
        <time>2018-08-18T11:20:50Z</time>
      </trkpt>
      <trkpt lat="-28.459825" lon="-65.755435">
        <ele>544.9</ele>
        <time>2018-08-18T11:20:52Z</time>
      </trkpt>
      <trkpt lat="-28.459795" lon="-65.755335">
        <ele>544.3</ele>
        <time>2018-08-18T11:20:54Z</time>
      </trkpt>
      <trkpt lat="-28.459785" lon="-65.755235">
        <ele>543.6</ele>
        <time>2018-08-18T11:20:56Z</time>
      </trkpt>
      <trkpt lat="-28.45977" lon="-65.755145">
        <ele>543.2</ele>
        <time>2018-08-18T11:20:58Z</time>
      </trkpt>
      <trkpt lat="-28.45975" lon="-65.75503166666667">
        <ele>542.2</ele>
        <time>2018-08-18T11:21:00Z</time>
      </trkpt>
      <trkpt lat="-28.459735" lon="-65.754945">
        <ele>541.6</ele>
        <time>2018-08-18T11:21:02Z</time>
      </trkpt>
      <trkpt lat="-28.459725" lon="-65.75484">
        <ele>542.0</ele>
        <time>2018-08-18T11:21:04Z</time>
      </trkpt>
      <trkpt lat="-28.45971" lon="-65.75476">
        <ele>542.9</ele>
        <time>2018-08-18T11:21:06Z</time>
      </trkpt>
      <trkpt lat="-28.459705" lon="-65.754655">
        <ele>543.6</ele>
        <time>2018-08-18T11:21:08Z</time>
      </trkpt>
      <trkpt lat="-28.45969" lon="-65.75456">
        <ele>543.3</ele>
        <time>2018-08-18T11:21:10Z</time>
      </trkpt>
      <trkpt lat="-28.459675" lon="-65.75445">
        <ele>543.6</ele>
        <time>2018-08-18T11:21:13Z</time>
      </trkpt>
      <trkpt lat="-28.45966" lon="-65.754355">
        <ele>544.1</ele>
        <time>2018-08-18T11:21:15Z</time>
      </trkpt>
      <trkpt lat="-28.459655" lon="-65.75427">
        <ele>544.9</ele>
        <time>2018-08-18T11:21:17Z</time>
      </trkpt>
      <trkpt lat="-28.45965" lon="-65.754175">
        <ele>545.0</ele>
        <time>2018-08-18T11:21:19Z</time>
      </trkpt>
      <trkpt lat="-28.45964" lon="-65.754085">
        <ele>545.3</ele>
        <time>2018-08-18T11:21:21Z</time>
      </trkpt>
      <trkpt lat="-28.45964" lon="-65.75399">
        <ele>545.6</ele>
        <time>2018-08-18T11:21:23Z</time>
      </trkpt>
      <trkpt lat="-28.459635" lon="-65.7539">
        <ele>545.8</ele>
        <time>2018-08-18T11:21:25Z</time>
      </trkpt>
      <trkpt lat="-28.459635" lon="-65.7538">
        <ele>545.5</ele>
        <time>2018-08-18T11:21:27Z</time>
      </trkpt>
      <trkpt lat="-28.459635" lon="-65.753705">
        <ele>545.9</ele>
        <time>2018-08-18T11:21:29Z</time>
      </trkpt>
      <trkpt lat="-28.45963" lon="-65.7536">
        <ele>546.8</ele>
        <time>2018-08-18T11:21:31Z</time>
      </trkpt>
      <trkpt lat="-28.45963" lon="-65.75351166666667">
        <ele>547.3</ele>
        <time>2018-08-18T11:21:33Z</time>
      </trkpt>
      <trkpt lat="-28.45963" lon="-65.75342666666667">
        <ele>547.6</ele>
        <time>2018-08-18T11:21:35Z</time>
      </trkpt>
      <trkpt lat="-28.45963" lon="-65.75335">
        <ele>547.9</ele>
        <time>2018-08-18T11:21:37Z</time>
      </trkpt>
      <trkpt lat="-28.459635" lon="-65.753235">
        <ele>547.9</ele>
        <time>2018-08-18T11:21:40Z</time>
      </trkpt>
      <trkpt lat="-28.45964" lon="-65.753135">
        <ele>548.4</ele>
        <time>2018-08-18T11:21:42Z</time>
      </trkpt>
      <trkpt lat="-28.459635" lon="-65.75304">
        <ele>548.3</ele>
        <time>2018-08-18T11:21:44Z</time>
      </trkpt>
      <trkpt lat="-28.45963" lon="-65.75293">
        <ele>548.1</ele>
        <time>2018-08-18T11:21:47Z</time>
      </trkpt>
      <trkpt lat="-28.45962" lon="-65.752835">
        <ele>548.1</ele>
        <time>2018-08-18T11:21:50Z</time>
      </trkpt>
      <trkpt lat="-28.459625" lon="-65.75275">
        <ele>548.1</ele>
        <time>2018-08-18T11:21:54Z</time>
      </trkpt>
      <trkpt lat="-28.45963" lon="-65.75266333333333">
        <ele>548.2</ele>
        <time>2018-08-18T11:21:57Z</time>
      </trkpt>
      <trkpt lat="-28.45962" lon="-65.752555">
        <ele>548.2</ele>
        <time>2018-08-18T11:22:01Z</time>
      </trkpt>
      <trkpt lat="-28.459615" lon="-65.75243">
        <ele>548.9</ele>
        <time>2018-08-18T11:22:04Z</time>
      </trkpt>
      <trkpt lat="-28.459605" lon="-65.752325">
        <ele>549.0</ele>
        <time>2018-08-18T11:22:07Z</time>
      </trkpt>
      <trkpt lat="-28.459605" lon="-65.75221833333333">
        <ele>549.1</ele>
        <time>2018-08-18T11:22:09Z</time>
      </trkpt>
      <trkpt lat="-28.459615" lon="-65.75214">
        <ele>548.8</ele>
        <time>2018-08-18T11:22:11Z</time>
      </trkpt>
      <trkpt lat="-28.45962" lon="-65.75203666666667">
        <ele>548.6</ele>
        <time>2018-08-18T11:22:13Z</time>
      </trkpt>
      <trkpt lat="-28.45962" lon="-65.75196">
        <ele>548.2</ele>
        <time>2018-08-18T11:22:15Z</time>
      </trkpt>
      <trkpt lat="-28.459625" lon="-65.75187">
        <ele>547.3</ele>
        <time>2018-08-18T11:22:17Z</time>
      </trkpt>
      <trkpt lat="-28.459625" lon="-65.751765">
        <ele>547.3</ele>
        <time>2018-08-18T11:22:19Z</time>
      </trkpt>
      <trkpt lat="-28.459625" lon="-65.75166166666666">
        <ele>547.2</ele>
        <time>2018-08-18T11:22:21Z</time>
      </trkpt>
      <trkpt lat="-28.459625" lon="-65.75158">
        <ele>546.9</ele>
        <time>2018-08-18T11:22:23Z</time>
      </trkpt>
      <trkpt lat="-28.459625" lon="-65.751495">
        <ele>547.0</ele>
        <time>2018-08-18T11:22:25Z</time>
      </trkpt>
      <trkpt lat="-28.459625" lon="-65.75141">
        <ele>547.2</ele>
        <time>2018-08-18T11:22:27Z</time>
      </trkpt>
      <trkpt lat="-28.459625" lon="-65.751315">
        <ele>547.0</ele>
        <time>2018-08-18T11:22:29Z</time>
      </trkpt>
      <trkpt lat="-28.459625" lon="-65.75122">
        <ele>547.2</ele>
        <time>2018-08-18T11:22:31Z</time>
      </trkpt>
      <trkpt lat="-28.459625" lon="-65.75113">
        <ele>547.2</ele>
        <time>2018-08-18T11:22:33Z</time>
      </trkpt>
      <trkpt lat="-28.45963" lon="-65.751045">
        <ele>547.1</ele>
        <time>2018-08-18T11:22:35Z</time>
      </trkpt>
      <trkpt lat="-28.459625" lon="-65.75096">
        <ele>547.0</ele>
        <time>2018-08-18T11:22:37Z</time>
      </trkpt>
      <trkpt lat="-28.45962" lon="-65.750865">
        <ele>546.6</ele>
        <time>2018-08-18T11:22:39Z</time>
      </trkpt>
      <trkpt lat="-28.459625" lon="-65.75078">
        <ele>546.3</ele>
        <time>2018-08-18T11:22:41Z</time>
      </trkpt>
      <trkpt lat="-28.459625" lon="-65.75068166666667">
        <ele>545.8</ele>
        <time>2018-08-18T11:22:43Z</time>
      </trkpt>
      <trkpt lat="-28.45962" lon="-65.750595">
        <ele>545.9</ele>
        <time>2018-08-18T11:22:45Z</time>
      </trkpt>
      <trkpt lat="-28.459625" lon="-65.75049">
        <ele>545.9</ele>
        <time>2018-08-18T11:22:47Z</time>
      </trkpt>
      <trkpt lat="-28.459625" lon="-65.750395">
        <ele>545.6</ele>
        <time>2018-08-18T11:22:49Z</time>
      </trkpt>
      <trkpt lat="-28.459595" lon="-65.75028">
        <ele>546.0</ele>
        <time>2018-08-18T11:22:52Z</time>
      </trkpt>
      <trkpt lat="-28.459535" lon="-65.750185">
        <ele>546.4</ele>
        <time>2018-08-18T11:22:55Z</time>
      </trkpt>
      <trkpt lat="-28.459485" lon="-65.750105">
        <ele>546.6</ele>
        <time>2018-08-18T11:22:57Z</time>
      </trkpt>
      <trkpt lat="-28.459415" lon="-65.75002">
        <ele>547.4</ele>
        <time>2018-08-18T11:22:59Z</time>
      </trkpt>
      <trkpt lat="-28.45937" lon="-65.749965">
        <ele>547.2</ele>
        <time>2018-08-18T11:23:01Z</time>
      </trkpt>
      <trkpt lat="-28.459315" lon="-65.74988">
        <ele>546.0</ele>
        <time>2018-08-18T11:23:03Z</time>
      </trkpt>
      <trkpt lat="-28.45926" lon="-65.74980166666667">
        <ele>544.8</ele>
        <time>2018-08-18T11:23:05Z</time>
      </trkpt>
      <trkpt lat="-28.4592" lon="-65.74974">
        <ele>544.1</ele>
        <time>2018-08-18T11:23:07Z</time>
      </trkpt>
      <trkpt lat="-28.45914" lon="-65.74968">
        <ele>544.0</ele>
        <time>2018-08-18T11:23:09Z</time>
      </trkpt>
      <trkpt lat="-28.45909" lon="-65.74961">
        <ele>544.1</ele>
        <time>2018-08-18T11:23:11Z</time>
      </trkpt>
      <trkpt lat="-28.459025" lon="-65.74953333333333">
        <ele>544.5</ele>
        <time>2018-08-18T11:23:13Z</time>
      </trkpt>
      <trkpt lat="-28.458965" lon="-65.749465">
        <ele>544.8</ele>
        <time>2018-08-18T11:23:15Z</time>
      </trkpt>
      <trkpt lat="-28.458905" lon="-65.74938666666667">
        <ele>544.6</ele>
        <time>2018-08-18T11:23:17Z</time>
      </trkpt>
      <trkpt lat="-28.458845" lon="-65.74930833333333">
        <ele>544.1</ele>
        <time>2018-08-18T11:23:19Z</time>
      </trkpt>
      <trkpt lat="-28.458785" lon="-65.74925">
        <ele>543.8</ele>
        <time>2018-08-18T11:23:21Z</time>
      </trkpt>
      <trkpt lat="-28.458725" lon="-65.74916833333333">
        <ele>543.8</ele>
        <time>2018-08-18T11:23:23Z</time>
      </trkpt>
      <trkpt lat="-28.458675" lon="-65.749115">
        <ele>544.1</ele>
        <time>2018-08-18T11:23:25Z</time>
      </trkpt>
      <trkpt lat="-28.45862" lon="-65.74904166666667">
        <ele>543.8</ele>
        <time>2018-08-18T11:23:27Z</time>
      </trkpt>
      <trkpt lat="-28.45856" lon="-65.74898">
        <ele>544.3</ele>
        <time>2018-08-18T11:23:29Z</time>
      </trkpt>
      <trkpt lat="-28.4585" lon="-65.748915">
        <ele>544.7</ele>
        <time>2018-08-18T11:23:31Z</time>
      </trkpt>
      <trkpt lat="-28.45844" lon="-65.74883">
        <ele>545.6</ele>
        <time>2018-08-18T11:23:33Z</time>
      </trkpt>
      <trkpt lat="-28.45838" lon="-65.748765">
        <ele>546.4</ele>
        <time>2018-08-18T11:23:35Z</time>
      </trkpt>
      <trkpt lat="-28.458325" lon="-65.748705">
        <ele>547.3</ele>
        <time>2018-08-18T11:23:37Z</time>
      </trkpt>
      <trkpt lat="-28.458265" lon="-65.748625">
        <ele>548.0</ele>
        <time>2018-08-18T11:23:39Z</time>
      </trkpt>
      <trkpt lat="-28.45819" lon="-65.74854166666667">
        <ele>547.8</ele>
        <time>2018-08-18T11:23:42Z</time>
      </trkpt>
      <trkpt lat="-28.458135" lon="-65.74848">
        <ele>547.3</ele>
        <time>2018-08-18T11:23:44Z</time>
      </trkpt>
      <trkpt lat="-28.45808" lon="-65.748405">
        <ele>547.2</ele>
        <time>2018-08-18T11:23:46Z</time>
      </trkpt>
      <trkpt lat="-28.458025" lon="-65.74835">
        <ele>547.4</ele>
        <time>2018-08-18T11:23:48Z</time>
      </trkpt>
      <trkpt lat="-28.457965" lon="-65.748275">
        <ele>547.7</ele>
        <time>2018-08-18T11:23:50Z</time>
      </trkpt>
      <trkpt lat="-28.457895" lon="-65.74821">
        <ele>548.3</ele>
        <time>2018-08-18T11:23:52Z</time>
      </trkpt>
      <trkpt lat="-28.45785" lon="-65.74814">
        <ele>548.8</ele>
        <time>2018-08-18T11:23:54Z</time>
      </trkpt>
      <trkpt lat="-28.45779" lon="-65.748085">
        <ele>549.0</ele>
        <time>2018-08-18T11:23:56Z</time>
      </trkpt>
      <trkpt lat="-28.457735" lon="-65.74802">
        <ele>548.9</ele>
        <time>2018-08-18T11:23:58Z</time>
      </trkpt>
      <trkpt lat="-28.45768" lon="-65.74795166666667">
        <ele>547.7</ele>
        <time>2018-08-18T11:24:00Z</time>
      </trkpt>
      <trkpt lat="-28.45762" lon="-65.74789">
        <ele>545.9</ele>
        <time>2018-08-18T11:24:02Z</time>
      </trkpt>
      <trkpt lat="-28.457565" lon="-65.74782833333333">
        <ele>545.0</ele>
        <time>2018-08-18T11:24:04Z</time>
      </trkpt>
      <trkpt lat="-28.457505" lon="-65.74777">
        <ele>545.0</ele>
        <time>2018-08-18T11:24:06Z</time>
      </trkpt>
      <trkpt lat="-28.457445" lon="-65.747705">
        <ele>545.6</ele>
        <time>2018-08-18T11:24:08Z</time>
      </trkpt>
      <trkpt lat="-28.45739" lon="-65.74764">
        <ele>545.4</ele>
        <time>2018-08-18T11:24:10Z</time>
      </trkpt>
      <trkpt lat="-28.457328333333333" lon="-65.74755833333333">
        <ele>545.0</ele>
        <time>2018-08-18T11:24:12Z</time>
      </trkpt>
      <trkpt lat="-28.457275" lon="-65.74749">
        <ele>545.2</ele>
        <time>2018-08-18T11:24:14Z</time>
      </trkpt>
      <trkpt lat="-28.45721" lon="-65.747415">
        <ele>546.2</ele>
        <time>2018-08-18T11:24:16Z</time>
      </trkpt>
      <trkpt lat="-28.45715" lon="-65.747355">
        <ele>547.6</ele>
        <time>2018-08-18T11:24:18Z</time>
      </trkpt>
      <trkpt lat="-28.45709" lon="-65.74729">
        <ele>549.1</ele>
        <time>2018-08-18T11:24:20Z</time>
      </trkpt>
      <trkpt lat="-28.45703" lon="-65.747215">
        <ele>549.9</ele>
        <time>2018-08-18T11:24:22Z</time>
      </trkpt>
      <trkpt lat="-28.45697" lon="-65.747145">
        <ele>549.8</ele>
        <time>2018-08-18T11:24:24Z</time>
      </trkpt>
      <trkpt lat="-28.456895" lon="-65.747045">
        <ele>547.8</ele>
        <time>2018-08-18T11:24:27Z</time>
      </trkpt>
      <trkpt lat="-28.45684" lon="-65.74697166666667">
        <ele>546.5</ele>
        <time>2018-08-18T11:24:29Z</time>
      </trkpt>
      <trkpt lat="-28.45678" lon="-65.746905">
        <ele>545.6</ele>
        <time>2018-08-18T11:24:31Z</time>
      </trkpt>
      <trkpt lat="-28.45672" lon="-65.74683">
        <ele>545.7</ele>
        <time>2018-08-18T11:24:33Z</time>
      </trkpt>
      <trkpt lat="-28.456665" lon="-65.746765">
        <ele>547.1</ele>
        <time>2018-08-18T11:24:35Z</time>
      </trkpt>
      <trkpt lat="-28.456605" lon="-65.74669">
        <ele>548.3</ele>
        <time>2018-08-18T11:24:37Z</time>
      </trkpt>
      <trkpt lat="-28.456555" lon="-65.746615">
        <ele>549.3</ele>
        <time>2018-08-18T11:24:39Z</time>
      </trkpt>
      <trkpt lat="-28.456495" lon="-65.746555">
        <ele>549.9</ele>
        <time>2018-08-18T11:24:41Z</time>
      </trkpt>
      <trkpt lat="-28.45645" lon="-65.746485">
        <ele>549.8</ele>
        <time>2018-08-18T11:24:43Z</time>
      </trkpt>
      <trkpt lat="-28.45639" lon="-65.74639">
        <ele>549.6</ele>
        <time>2018-08-18T11:24:46Z</time>
      </trkpt>
      <trkpt lat="-28.45633" lon="-65.746285">
        <ele>549.3</ele>
        <time>2018-08-18T11:24:49Z</time>
      </trkpt>
      <trkpt lat="-28.45629" lon="-65.746205">
        <ele>548.5</ele>
        <time>2018-08-18T11:24:51Z</time>
      </trkpt>
      <trkpt lat="-28.456235" lon="-65.74612">
        <ele>548.3</ele>
        <time>2018-08-18T11:24:54Z</time>
      </trkpt>
      <trkpt lat="-28.45619" lon="-65.74603833333333">
        <ele>548.1</ele>
        <time>2018-08-18T11:24:57Z</time>
      </trkpt>
      <trkpt lat="-28.45615" lon="-65.74594">
        <ele>547.9</ele>
        <time>2018-08-18T11:25:00Z</time>
      </trkpt>
      <trkpt lat="-28.456115" lon="-65.74585666666667">
        <ele>546.5</ele>
        <time>2018-08-18T11:25:02Z</time>
      </trkpt>
      <trkpt lat="-28.45608" lon="-65.74578">
        <ele>545.5</ele>
        <time>2018-08-18T11:25:04Z</time>
      </trkpt>
      <trkpt lat="-28.456045" lon="-65.74568166666667">
        <ele>544.9</ele>
        <time>2018-08-18T11:25:06Z</time>
      </trkpt>
      <trkpt lat="-28.45602" lon="-65.745585">
        <ele>544.4</ele>
        <time>2018-08-18T11:25:08Z</time>
      </trkpt>
      <trkpt lat="-28.455985" lon="-65.74549">
        <ele>543.7</ele>
        <time>2018-08-18T11:25:10Z</time>
      </trkpt>
      <trkpt lat="-28.45595" lon="-65.745385">
        <ele>543.7</ele>
        <time>2018-08-18T11:25:12Z</time>
      </trkpt>
      <trkpt lat="-28.455925" lon="-65.7453">
        <ele>544.1</ele>
        <time>2018-08-18T11:25:14Z</time>
      </trkpt>
      <trkpt lat="-28.45589" lon="-65.74518166666667">
        <ele>544.7</ele>
        <time>2018-08-18T11:25:16Z</time>
      </trkpt>
      <trkpt lat="-28.455865" lon="-65.745095">
        <ele>545.3</ele>
        <time>2018-08-18T11:25:18Z</time>
      </trkpt>
      <trkpt lat="-28.455835" lon="-65.74499">
        <ele>545.7</ele>
        <time>2018-08-18T11:25:20Z</time>
      </trkpt>
      <trkpt lat="-28.45581" lon="-65.74487666666667">
        <ele>546.1</ele>
        <time>2018-08-18T11:25:22Z</time>
      </trkpt>
      <trkpt lat="-28.455773333333333" lon="-65.74478">
        <ele>546.3</ele>
        <time>2018-08-18T11:25:24Z</time>
      </trkpt>
      <trkpt lat="-28.455745" lon="-65.744665">
        <ele>545.9</ele>
        <time>2018-08-18T11:25:26Z</time>
      </trkpt>
      <trkpt lat="-28.455715" lon="-65.74455">
        <ele>545.1</ele>
        <time>2018-08-18T11:25:28Z</time>
      </trkpt>
      <trkpt lat="-28.45568" lon="-65.74444">
        <ele>544.4</ele>
        <time>2018-08-18T11:25:30Z</time>
      </trkpt>
      <trkpt lat="-28.45564" lon="-65.744315">
        <ele>544.3</ele>
        <time>2018-08-18T11:25:32Z</time>
      </trkpt>
      <trkpt lat="-28.45561" lon="-65.744215">
        <ele>544.3</ele>
        <time>2018-08-18T11:25:34Z</time>
      </trkpt>
      <trkpt lat="-28.455575" lon="-65.74411">
        <ele>545.8</ele>
        <time>2018-08-18T11:25:36Z</time>
      </trkpt>
      <trkpt lat="-28.45554" lon="-65.744">
        <ele>548.1</ele>
        <time>2018-08-18T11:25:38Z</time>
      </trkpt>
      <trkpt lat="-28.455505" lon="-65.74388666666667">
        <ele>548.5</ele>
        <time>2018-08-18T11:25:40Z</time>
      </trkpt>
      <trkpt lat="-28.455465" lon="-65.74378">
        <ele>548.9</ele>
        <time>2018-08-18T11:25:42Z</time>
      </trkpt>
      <trkpt lat="-28.45543" lon="-65.74368">
        <ele>549.8</ele>
        <time>2018-08-18T11:25:44Z</time>
      </trkpt>
      <trkpt lat="-28.45539" lon="-65.743565">
        <ele>549.9</ele>
        <time>2018-08-18T11:25:46Z</time>
      </trkpt>
      <trkpt lat="-28.45535" lon="-65.743465">
        <ele>549.2</ele>
        <time>2018-08-18T11:25:48Z</time>
      </trkpt>
      <trkpt lat="-28.455305" lon="-65.74335">
        <ele>548.3</ele>
        <time>2018-08-18T11:25:50Z</time>
      </trkpt>
      <trkpt lat="-28.45525" lon="-65.74325">
        <ele>547.5</ele>
        <time>2018-08-18T11:25:52Z</time>
      </trkpt>
      <trkpt lat="-28.4552" lon="-65.743165">
        <ele>546.6</ele>
        <time>2018-08-18T11:25:54Z</time>
      </trkpt>
      <trkpt lat="-28.45513" lon="-65.743065">
        <ele>546.8</ele>
        <time>2018-08-18T11:25:56Z</time>
      </trkpt>
      <trkpt lat="-28.455075" lon="-65.742985">
        <ele>546.7</ele>
        <time>2018-08-18T11:25:58Z</time>
      </trkpt>
      <trkpt lat="-28.455015" lon="-65.7429">
        <ele>546.2</ele>
        <time>2018-08-18T11:26:00Z</time>
      </trkpt>
      <trkpt lat="-28.45494" lon="-65.74281">
        <ele>546.7</ele>
        <time>2018-08-18T11:26:02Z</time>
      </trkpt>
      <trkpt lat="-28.454885" lon="-65.74274">
        <ele>546.5</ele>
        <time>2018-08-18T11:26:04Z</time>
      </trkpt>
      <trkpt lat="-28.45481" lon="-65.742665">
        <ele>547.2</ele>
        <time>2018-08-18T11:26:06Z</time>
      </trkpt>
      <trkpt lat="-28.45475" lon="-65.74258">
        <ele>547.2</ele>
        <time>2018-08-18T11:26:08Z</time>
      </trkpt>
      <trkpt lat="-28.45468" lon="-65.74249166666667">
        <ele>546.6</ele>
        <time>2018-08-18T11:26:10Z</time>
      </trkpt>
      <trkpt lat="-28.45462" lon="-65.742415">
        <ele>545.3</ele>
        <time>2018-08-18T11:26:12Z</time>
      </trkpt>
      <trkpt lat="-28.454555" lon="-65.74234">
        <ele>544.5</ele>
        <time>2018-08-18T11:26:14Z</time>
      </trkpt>
      <trkpt lat="-28.45449" lon="-65.742255">
        <ele>544.0</ele>
        <time>2018-08-18T11:26:16Z</time>
      </trkpt>
      <trkpt lat="-28.45441" lon="-65.74218">
        <ele>544.0</ele>
        <time>2018-08-18T11:26:18Z</time>
      </trkpt>
      <trkpt lat="-28.454345" lon="-65.742095">
        <ele>544.1</ele>
        <time>2018-08-18T11:26:20Z</time>
      </trkpt>
      <trkpt lat="-28.454265" lon="-65.74200166666667">
        <ele>544.5</ele>
        <time>2018-08-18T11:26:22Z</time>
      </trkpt>
      <trkpt lat="-28.4542" lon="-65.741915">
        <ele>545.2</ele>
        <time>2018-08-18T11:26:24Z</time>
      </trkpt>
      <trkpt lat="-28.45413" lon="-65.74184">
        <ele>545.3</ele>
        <time>2018-08-18T11:26:26Z</time>
      </trkpt>
      <trkpt lat="-28.454065" lon="-65.741755">
        <ele>545.5</ele>
        <time>2018-08-18T11:26:28Z</time>
      </trkpt>
      <trkpt lat="-28.45399" lon="-65.74167">
        <ele>545.5</ele>
        <time>2018-08-18T11:26:30Z</time>
      </trkpt>
      <trkpt lat="-28.45393" lon="-65.741585">
        <ele>545.8</ele>
        <time>2018-08-18T11:26:32Z</time>
      </trkpt>
      <trkpt lat="-28.45386" lon="-65.7415">
        <ele>546.0</ele>
        <time>2018-08-18T11:26:34Z</time>
      </trkpt>
      <trkpt lat="-28.45379" lon="-65.741405">
        <ele>546.6</ele>
        <time>2018-08-18T11:26:36Z</time>
      </trkpt>
      <trkpt lat="-28.453725" lon="-65.74132">
        <ele>547.0</ele>
        <time>2018-08-18T11:26:38Z</time>
      </trkpt>
      <trkpt lat="-28.45366" lon="-65.74124">
        <ele>546.7</ele>
        <time>2018-08-18T11:26:40Z</time>
      </trkpt>
      <trkpt lat="-28.453605" lon="-65.741155">
        <ele>546.8</ele>
        <time>2018-08-18T11:26:42Z</time>
      </trkpt>
      <trkpt lat="-28.45356" lon="-65.7411">
        <ele>547.1</ele>
        <time>2018-08-18T11:26:44Z</time>
      </trkpt>
      <trkpt lat="-28.4535" lon="-65.74102166666667">
        <ele>547.2</ele>
        <time>2018-08-18T11:26:47Z</time>
      </trkpt>
      <trkpt lat="-28.453435" lon="-65.74097166666667">
        <ele>547.2</ele>
        <time>2018-08-18T11:26:49Z</time>
      </trkpt>
      <trkpt lat="-28.45337" lon="-65.74091">
        <ele>547.2</ele>
        <time>2018-08-18T11:26:52Z</time>
      </trkpt>
      <trkpt lat="-28.453315" lon="-65.74091">
        <ele>547.5</ele>
        <time>2018-08-18T11:26:59Z</time>
      </trkpt>
      <trkpt lat="-28.453265000000002" lon="-65.740885">
        <ele>547.1</ele>
        <time>2018-08-18T11:27:06Z</time>
      </trkpt>
      <trkpt lat="-28.453215" lon="-65.740885">
        <ele>546.1</ele>
        <time>2018-08-18T11:27:13Z</time>
      </trkpt>
      <trkpt lat="-28.453195" lon="-65.740885">
        <ele>546.1</ele>
        <time>2018-08-18T11:27:20Z</time>
      </trkpt>
      <trkpt lat="-28.45316" lon="-65.74082">
        <ele>546.2</ele>
        <time>2018-08-18T11:27:28Z</time>
      </trkpt>
      <trkpt lat="-28.45316" lon="-65.74082">
        <ele>546.0</ele>
        <time>2018-08-18T11:27:32Z</time>
      </trkpt>
      <trkpt lat="-28.45315" lon="-65.74082">
        <ele>545.1</ele>
        <time>2018-08-18T11:27:41Z</time>
      </trkpt>
      <trkpt lat="-28.453155" lon="-65.74082">
        <ele>545.1</ele>
        <time>2018-08-18T11:27:42Z</time>
      </trkpt>
      <trkpt lat="-28.45317" lon="-65.740825">
        <ele>545.1</ele>
        <time>2018-08-18T11:27:51Z</time>
      </trkpt>
      <trkpt lat="-28.45317" lon="-65.740825">
        <ele>545.1</ele>
        <time>2018-08-18T11:27:52Z</time>
      </trkpt>
      <trkpt lat="-28.45317" lon="-65.74079166666667">
        <ele>545.1</ele>
        <time>2018-08-18T11:28:06Z</time>
      </trkpt>
      <trkpt lat="-28.45317" lon="-65.74079666666667">
        <ele>545.0</ele>
        <time>2018-08-18T11:28:07Z</time>
      </trkpt>
      <trkpt lat="-28.453185" lon="-65.740825">
        <ele>544.7</ele>
        <time>2018-08-18T11:28:18Z</time>
      </trkpt>
      <trkpt lat="-28.45319" lon="-65.740835">
        <ele>544.7</ele>
        <time>2018-08-18T11:28:19Z</time>
      </trkpt>
      <trkpt lat="-28.45321" lon="-65.740825">
        <ele>544.5</ele>
        <time>2018-08-18T11:28:28Z</time>
      </trkpt>
      <trkpt lat="-28.45321" lon="-65.740825">
        <ele>544.5</ele>
        <time>2018-08-18T11:28:29Z</time>
      </trkpt>
      <trkpt lat="-28.453195" lon="-65.74084666666667">
        <ele>544.6</ele>
        <time>2018-08-18T11:28:42Z</time>
      </trkpt>
      <trkpt lat="-28.453195" lon="-65.74084666666667">
        <ele>544.6</ele>
        <time>2018-08-18T11:28:43Z</time>
      </trkpt>
      <trkpt lat="-28.453185" lon="-65.740835">
        <ele>544.7</ele>
        <time>2018-08-18T11:28:54Z</time>
      </trkpt>
      <trkpt lat="-28.45318" lon="-65.740835">
        <ele>544.8</ele>
        <time>2018-08-18T11:28:55Z</time>
      </trkpt>
      <trkpt lat="-28.45319" lon="-65.740865">
        <ele>544.0</ele>
        <time>2018-08-18T11:29:06Z</time>
      </trkpt>
      <trkpt lat="-28.453215" lon="-65.740885">
        <ele>544.2</ele>
        <time>2018-08-18T11:29:13Z</time>
      </trkpt>
      <trkpt lat="-28.453215" lon="-65.740885">
        <ele>544.2</ele>
        <time>2018-08-18T11:29:14Z</time>
      </trkpt>
      <trkpt lat="-28.45321" lon="-65.74084666666667">
        <ele>543.6</ele>
        <time>2018-08-18T11:29:28Z</time>
      </trkpt>
      <trkpt lat="-28.45321" lon="-65.74084666666667">
        <ele>543.6</ele>
        <time>2018-08-18T11:29:29Z</time>
      </trkpt>
      <trkpt lat="-28.45321" lon="-65.740835">
        <ele>543.0</ele>
        <time>2018-08-18T11:29:45Z</time>
      </trkpt>
      <trkpt lat="-28.453198333333333" lon="-65.740835">
        <ele>543.0</ele>
        <time>2018-08-18T11:29:46Z</time>
      </trkpt>
      <trkpt lat="-28.45321" lon="-65.740815">
        <ele>543.0</ele>
        <time>2018-08-18T11:29:58Z</time>
      </trkpt>
      <trkpt lat="-28.45321" lon="-65.740815">
        <ele>542.7</ele>
        <time>2018-08-18T11:29:59Z</time>
      </trkpt>
      <trkpt lat="-28.453215" lon="-65.740835">
        <ele>541.4</ele>
        <time>2018-08-18T11:30:08Z</time>
      </trkpt>
      <trkpt lat="-28.45322" lon="-65.740835">
        <ele>541.4</ele>
        <time>2018-08-18T11:30:09Z</time>
      </trkpt>
      <trkpt lat="-28.453235" lon="-65.74085166666667">
        <ele>541.6</ele>
        <time>2018-08-18T11:30:21Z</time>
      </trkpt>
      <trkpt lat="-28.453235" lon="-65.740865">
        <ele>541.6</ele>
        <time>2018-08-18T11:30:22Z</time>
      </trkpt>
      <trkpt lat="-28.453215" lon="-65.740875">
        <ele>540.8</ele>
        <time>2018-08-18T11:30:42Z</time>
      </trkpt>
      <trkpt lat="-28.453215" lon="-65.740875">
        <ele>540.8</ele>
        <time>2018-08-18T11:30:43Z</time>
      </trkpt>
      <trkpt lat="-28.453195" lon="-65.740865">
        <ele>540.8</ele>
        <time>2018-08-18T11:30:52Z</time>
      </trkpt>
      <trkpt lat="-28.453195" lon="-65.740865">
        <ele>540.8</ele>
        <time>2018-08-18T11:30:53Z</time>
      </trkpt>
      <trkpt lat="-28.45321" lon="-65.740835">
        <ele>540.8</ele>
        <time>2018-08-18T11:31:03Z</time>
      </trkpt>
      <trkpt lat="-28.45321" lon="-65.74083666666667">
        <ele>540.8</ele>
        <time>2018-08-18T11:31:04Z</time>
      </trkpt>
      <trkpt lat="-28.453195" lon="-65.740875">
        <ele>541.4</ele>
        <time>2018-08-18T11:31:12Z</time>
      </trkpt>
      <trkpt lat="-28.453195" lon="-65.740885">
        <ele>541.5</ele>
        <time>2018-08-18T11:31:13Z</time>
      </trkpt>
      <trkpt lat="-28.453195" lon="-65.7409">
        <ele>542.2</ele>
        <time>2018-08-18T11:31:26Z</time>
      </trkpt>
      <trkpt lat="-28.453195" lon="-65.7409">
        <ele>542.2</ele>
        <time>2018-08-18T11:31:27Z</time>
      </trkpt>
      <trkpt lat="-28.45319" lon="-65.740885">
        <ele>542.2</ele>
        <time>2018-08-18T11:31:35Z</time>
      </trkpt>
      <trkpt lat="-28.453195" lon="-65.740885">
        <ele>542.2</ele>
        <time>2018-08-18T11:31:36Z</time>
      </trkpt>
      <trkpt lat="-28.453196666666667" lon="-65.7409">
        <ele>541.9</ele>
        <time>2018-08-18T11:31:46Z</time>
      </trkpt>
      <trkpt lat="-28.453198333333333" lon="-65.7409">
        <ele>541.9</ele>
        <time>2018-08-18T11:31:47Z</time>
      </trkpt>
      <trkpt lat="-28.45322" lon="-65.74091">
        <ele>542.3</ele>
        <time>2018-08-18T11:31:58Z</time>
      </trkpt>
      <trkpt lat="-28.45322" lon="-65.74091">
        <ele>542.3</ele>
        <time>2018-08-18T11:31:59Z</time>
      </trkpt>
      <trkpt lat="-28.453235" lon="-65.74093">
        <ele>542.5</ele>
        <time>2018-08-18T11:32:08Z</time>
      </trkpt>
      <trkpt lat="-28.453235" lon="-65.74093">
        <ele>542.5</ele>
        <time>2018-08-18T11:32:09Z</time>
      </trkpt>
      <trkpt lat="-28.453255" lon="-65.7409">
        <ele>542.5</ele>
        <time>2018-08-18T11:32:23Z</time>
      </trkpt>
      <trkpt lat="-28.453245" lon="-65.740885">
        <ele>542.5</ele>
        <time>2018-08-18T11:32:24Z</time>
      </trkpt>
      <trkpt lat="-28.453235" lon="-65.740885">
        <ele>542.6</ele>
        <time>2018-08-18T11:32:35Z</time>
      </trkpt>
      <trkpt lat="-28.453235" lon="-65.740875">
        <ele>542.6</ele>
        <time>2018-08-18T11:32:36Z</time>
      </trkpt>
      <trkpt lat="-28.45326" lon="-65.74084666666667">
        <ele>542.3</ele>
        <time>2018-08-18T11:32:54Z</time>
      </trkpt>
      <trkpt lat="-28.45326" lon="-65.74084833333333">
        <ele>542.3</ele>
        <time>2018-08-18T11:32:55Z</time>
      </trkpt>
      <trkpt lat="-28.453255" lon="-65.7409">
        <ele>542.1</ele>
        <time>2018-08-18T11:33:04Z</time>
      </trkpt>
      <trkpt lat="-28.453255" lon="-65.7409">
        <ele>542.1</ele>
        <time>2018-08-18T11:33:05Z</time>
      </trkpt>
      <trkpt lat="-28.453245" lon="-65.74091">
        <ele>542.4</ele>
        <time>2018-08-18T11:33:15Z</time>
      </trkpt>
      <trkpt lat="-28.453245" lon="-65.74091">
        <ele>542.4</ele>
        <time>2018-08-18T11:33:16Z</time>
      </trkpt>
      <trkpt lat="-28.453225" lon="-65.7409">
        <ele>542.8</ele>
        <time>2018-08-18T11:33:33Z</time>
      </trkpt>
      <trkpt lat="-28.45322" lon="-65.7409">
        <ele>542.8</ele>
        <time>2018-08-18T11:33:34Z</time>
      </trkpt>
      <trkpt lat="-28.453195" lon="-65.740865">
        <ele>543.7</ele>
        <time>2018-08-18T11:34:07Z</time>
      </trkpt>
      <trkpt lat="-28.453195" lon="-65.74084833333333">
        <ele>543.5</ele>
        <time>2018-08-18T11:34:08Z</time>
      </trkpt>
      <trkpt lat="-28.453185" lon="-65.74084166666667">
        <ele>543.1</ele>
        <time>2018-08-18T11:34:21Z</time>
      </trkpt>
      <trkpt lat="-28.45318" lon="-65.740845">
        <ele>543.1</ele>
        <time>2018-08-18T11:34:22Z</time>
      </trkpt>
      <trkpt lat="-28.45319" lon="-65.74084666666667">
        <ele>543.0</ele>
        <time>2018-08-18T11:34:35Z</time>
      </trkpt>
      <trkpt lat="-28.45319" lon="-65.74084666666667">
        <ele>543.0</ele>
        <time>2018-08-18T11:34:36Z</time>
      </trkpt>
      <trkpt lat="-28.45318" lon="-65.740875">
        <ele>543.6</ele>
        <time>2018-08-18T11:34:57Z</time>
      </trkpt>
      <trkpt lat="-28.45318" lon="-65.740875">
        <ele>543.5</ele>
        <time>2018-08-18T11:34:58Z</time>
      </trkpt>
      <trkpt lat="-28.453195" lon="-65.74084666666667">
        <ele>543.7</ele>
        <time>2018-08-18T11:35:16Z</time>
      </trkpt>
      <trkpt lat="-28.453195" lon="-65.74084666666667">
        <ele>543.7</ele>
        <time>2018-08-18T11:35:17Z</time>
      </trkpt>
      <trkpt lat="-28.45316" lon="-65.740865">
        <ele>543.9</ele>
        <time>2018-08-18T11:35:30Z</time>
      </trkpt>
      <trkpt lat="-28.45316" lon="-65.740865">
        <ele>543.8</ele>
        <time>2018-08-18T11:35:31Z</time>
      </trkpt>
      <trkpt lat="-28.45318" lon="-65.740885">
        <ele>544.2</ele>
        <time>2018-08-18T11:35:39Z</time>
      </trkpt>
      <trkpt lat="-28.45318" lon="-65.740885">
        <ele>544.2</ele>
        <time>2018-08-18T11:35:40Z</time>
      </trkpt>
      <trkpt lat="-28.453185" lon="-65.740885">
        <ele>543.9</ele>
        <time>2018-08-18T11:35:48Z</time>
      </trkpt>
      <trkpt lat="-28.453185" lon="-65.740885">
        <ele>543.8</ele>
        <time>2018-08-18T11:35:49Z</time>
      </trkpt>
      <trkpt lat="-28.45319" lon="-65.740875">
        <ele>544.1</ele>
        <time>2018-08-18T11:35:59Z</time>
      </trkpt>
      <trkpt lat="-28.45319" lon="-65.740875">
        <ele>544.1</ele>
        <time>2018-08-18T11:36:00Z</time>
      </trkpt>
      <trkpt lat="-28.45316" lon="-65.7409">
        <ele>544.0</ele>
        <time>2018-08-18T11:36:09Z</time>
      </trkpt>
      <trkpt lat="-28.45316" lon="-65.7409">
        <ele>544.0</ele>
        <time>2018-08-18T11:36:10Z</time>
      </trkpt>
      <trkpt lat="-28.45319" lon="-65.740885">
        <ele>544.1</ele>
        <time>2018-08-18T11:36:18Z</time>
      </trkpt>
      <trkpt lat="-28.453195" lon="-65.740875">
        <ele>544.1</ele>
        <time>2018-08-18T11:36:19Z</time>
      </trkpt>
      <trkpt lat="-28.453215" lon="-65.740845">
        <ele>543.5</ele>
        <time>2018-08-18T11:36:27Z</time>
      </trkpt>
      <trkpt lat="-28.453215" lon="-65.740845">
        <ele>543.5</ele>
        <time>2018-08-18T11:36:28Z</time>
      </trkpt>
      <trkpt lat="-28.453196666666667" lon="-65.740865">
        <ele>542.3</ele>
        <time>2018-08-18T11:36:40Z</time>
      </trkpt>
      <trkpt lat="-28.453196666666667" lon="-65.740865">
        <ele>542.3</ele>
        <time>2018-08-18T11:36:41Z</time>
      </trkpt>
      <trkpt lat="-28.45321" lon="-65.74087">
        <ele>542.1</ele>
        <time>2018-08-18T11:36:50Z</time>
      </trkpt>
      <trkpt lat="-28.45321" lon="-65.74087">
        <ele>542.1</ele>
        <time>2018-08-18T11:36:51Z</time>
      </trkpt>
      <trkpt lat="-28.45321" lon="-65.740885">
        <ele>542.4</ele>
        <time>2018-08-18T11:37:03Z</time>
      </trkpt>
      <trkpt lat="-28.45321" lon="-65.740885">
        <ele>542.4</ele>
        <time>2018-08-18T11:37:04Z</time>
      </trkpt>
      <trkpt lat="-28.453196666666667" lon="-65.7409">
        <ele>542.6</ele>
        <time>2018-08-18T11:37:17Z</time>
      </trkpt>
      <trkpt lat="-28.45321" lon="-65.740885">
        <ele>542.7</ele>
        <time>2018-08-18T11:37:18Z</time>
      </trkpt>
      <trkpt lat="-28.45319" lon="-65.740885">
        <ele>542.5</ele>
        <time>2018-08-18T11:37:28Z</time>
      </trkpt>
      <trkpt lat="-28.45319" lon="-65.740885">
        <ele>542.5</ele>
        <time>2018-08-18T11:37:29Z</time>
      </trkpt>
      <trkpt lat="-28.45322" lon="-65.7409">
        <ele>543.1</ele>
        <time>2018-08-18T11:37:45Z</time>
      </trkpt>
      <trkpt lat="-28.45322" lon="-65.7409">
        <ele>543.1</ele>
        <time>2018-08-18T11:37:46Z</time>
      </trkpt>
      <trkpt lat="-28.453215" lon="-65.740875">
        <ele>543.3</ele>
        <time>2018-08-18T11:37:56Z</time>
      </trkpt>
      <trkpt lat="-28.453215" lon="-65.740875">
        <ele>543.2</ele>
        <time>2018-08-18T11:37:57Z</time>
      </trkpt>
      <trkpt lat="-28.45318" lon="-65.740885">
        <ele>543.5</ele>
        <time>2018-08-18T11:38:05Z</time>
      </trkpt>
      <trkpt lat="-28.453175" lon="-65.740885">
        <ele>543.6</ele>
        <time>2018-08-18T11:38:06Z</time>
      </trkpt>
      <trkpt lat="-28.453196666666667" lon="-65.740835">
        <ele>543.4</ele>
        <time>2018-08-18T11:38:16Z</time>
      </trkpt>
      <trkpt lat="-28.45319" lon="-65.740825">
        <ele>543.3</ele>
        <time>2018-08-18T11:38:23Z</time>
      </trkpt>
      <trkpt lat="-28.453185" lon="-65.740825">
        <ele>543.6</ele>
        <time>2018-08-18T11:38:32Z</time>
      </trkpt>
      <trkpt lat="-28.453185" lon="-65.740835">
        <ele>543.8</ele>
        <time>2018-08-18T11:38:33Z</time>
      </trkpt>
      <trkpt lat="-28.45317" lon="-65.74085166666667">
        <ele>543.9</ele>
        <time>2018-08-18T11:38:41Z</time>
      </trkpt>
      <trkpt lat="-28.45316" lon="-65.740865">
        <ele>544.0</ele>
        <time>2018-08-18T11:38:42Z</time>
      </trkpt>
      <trkpt lat="-28.453195" lon="-65.7409">
        <ele>544.1</ele>
        <time>2018-08-18T11:38:51Z</time>
      </trkpt>
      <trkpt lat="-28.453195" lon="-65.7409">
        <ele>544.1</ele>
        <time>2018-08-18T11:38:53Z</time>
      </trkpt>
      <trkpt lat="-28.453196666666667" lon="-65.740875">
        <ele>544.2</ele>
        <time>2018-08-18T11:39:02Z</time>
      </trkpt>
      <trkpt lat="-28.453198333333333" lon="-65.740885">
        <ele>544.2</ele>
        <time>2018-08-18T11:39:03Z</time>
      </trkpt>
      <trkpt lat="-28.45319" lon="-65.740865">
        <ele>543.7</ele>
        <time>2018-08-18T11:39:15Z</time>
      </trkpt>
      <trkpt lat="-28.45319" lon="-65.740865">
        <ele>543.7</ele>
        <time>2018-08-18T11:39:16Z</time>
      </trkpt>
      <trkpt lat="-28.45322" lon="-65.74084833333333">
        <ele>543.6</ele>
        <time>2018-08-18T11:39:33Z</time>
      </trkpt>
      <trkpt lat="-28.453225" lon="-65.74084833333333">
        <ele>543.6</ele>
        <time>2018-08-18T11:39:34Z</time>
      </trkpt>
      <trkpt lat="-28.453245" lon="-65.74083833333333">
        <ele>543.3</ele>
        <time>2018-08-18T11:39:42Z</time>
      </trkpt>
      <trkpt lat="-28.453255" lon="-65.74083833333333">
        <ele>543.3</ele>
        <time>2018-08-18T11:39:43Z</time>
      </trkpt>
      <trkpt lat="-28.45323" lon="-65.74083666666667">
        <ele>543.1</ele>
        <time>2018-08-18T11:39:53Z</time>
      </trkpt>
      <trkpt lat="-28.453225" lon="-65.74084">
        <ele>543.3</ele>
        <time>2018-08-18T11:39:54Z</time>
      </trkpt>
      <trkpt lat="-28.45323" lon="-65.740875">
        <ele>543.5</ele>
        <time>2018-08-18T11:40:04Z</time>
      </trkpt>
      <trkpt lat="-28.45323" lon="-65.740875">
        <ele>543.5</ele>
        <time>2018-08-18T11:40:05Z</time>
      </trkpt>
      <trkpt lat="-28.45321" lon="-65.740875">
        <ele>544.5</ele>
        <time>2018-08-18T11:40:16Z</time>
      </trkpt>
      <trkpt lat="-28.45321" lon="-65.740885">
        <ele>544.5</ele>
        <time>2018-08-18T11:40:17Z</time>
      </trkpt>
      <trkpt lat="-28.45319" lon="-65.74091">
        <ele>545.0</ele>
        <time>2018-08-18T11:40:25Z</time>
      </trkpt>
      <trkpt lat="-28.453185" lon="-65.7409">
        <ele>545.0</ele>
        <time>2018-08-18T11:40:26Z</time>
      </trkpt>
      <trkpt lat="-28.453175" lon="-65.7409">
        <ele>545.6</ele>
        <time>2018-08-18T11:40:35Z</time>
      </trkpt>
      <trkpt lat="-28.453175" lon="-65.7409">
        <ele>545.6</ele>
        <time>2018-08-18T11:40:36Z</time>
      </trkpt>
      <trkpt lat="-28.453175" lon="-65.740875">
        <ele>545.8</ele>
        <time>2018-08-18T11:40:46Z</time>
      </trkpt>
      <trkpt lat="-28.453175" lon="-65.740875">
        <ele>546.2</ele>
        <time>2018-08-18T11:40:47Z</time>
      </trkpt>
      <trkpt lat="-28.453185" lon="-65.74087">
        <ele>546.8</ele>
        <time>2018-08-18T11:40:57Z</time>
      </trkpt>
      <trkpt lat="-28.453185" lon="-65.74087">
        <ele>546.9</ele>
        <time>2018-08-18T11:40:58Z</time>
      </trkpt>
      <trkpt lat="-28.45321" lon="-65.74083666666667">
        <ele>547.4</ele>
        <time>2018-08-18T11:41:06Z</time>
      </trkpt>
      <trkpt lat="-28.45321" lon="-65.740835">
        <ele>547.4</ele>
        <time>2018-08-18T11:41:07Z</time>
      </trkpt>
      <trkpt lat="-28.453235" lon="-65.74082">
        <ele>547.7</ele>
        <time>2018-08-18T11:41:20Z</time>
      </trkpt>
      <trkpt lat="-28.453235" lon="-65.74082">
        <ele>547.7</ele>
        <time>2018-08-18T11:41:21Z</time>
      </trkpt>
      <trkpt lat="-28.453245" lon="-65.740815">
        <ele>547.8</ele>
        <time>2018-08-18T11:41:29Z</time>
      </trkpt>
      <trkpt lat="-28.453235" lon="-65.740815">
        <ele>547.8</ele>
        <time>2018-08-18T11:41:30Z</time>
      </trkpt>
      <trkpt lat="-28.45323" lon="-65.74082">
        <ele>547.9</ele>
        <time>2018-08-18T11:41:40Z</time>
      </trkpt>
      <trkpt lat="-28.45323" lon="-65.740825">
        <ele>547.9</ele>
        <time>2018-08-18T11:41:41Z</time>
      </trkpt>
      <trkpt lat="-28.453235" lon="-65.740835">
        <ele>547.2</ele>
        <time>2018-08-18T11:41:50Z</time>
      </trkpt>
      <trkpt lat="-28.453235" lon="-65.740835">
        <ele>547.2</ele>
        <time>2018-08-18T11:41:51Z</time>
      </trkpt>
      <trkpt lat="-28.453235" lon="-65.74084833333333">
        <ele>547.2</ele>
        <time>2018-08-18T11:42:12Z</time>
      </trkpt>
      <trkpt lat="-28.453245" lon="-65.74084833333333">
        <ele>547.2</ele>
        <time>2018-08-18T11:42:12Z</time>
      </trkpt>
      <trkpt lat="-28.453245" lon="-65.74084833333333">
        <ele>547.7</ele>
        <time>2018-08-18T11:42:25Z</time>
      </trkpt>
      <trkpt lat="-28.453245" lon="-65.74084833333333">
        <ele>547.7</ele>
        <time>2018-08-18T11:42:26Z</time>
      </trkpt>
      <trkpt lat="-28.453235" lon="-65.74084333333333">
        <ele>547.6</ele>
        <time>2018-08-18T11:42:37Z</time>
      </trkpt>
      <trkpt lat="-28.453235" lon="-65.74084333333333">
        <ele>547.6</ele>
        <time>2018-08-18T11:42:38Z</time>
      </trkpt>
      <trkpt lat="-28.453255" lon="-65.74084666666667">
        <ele>548.2</ele>
        <time>2018-08-18T11:42:51Z</time>
      </trkpt>
      <trkpt lat="-28.453255" lon="-65.74084666666667">
        <ele>548.3</ele>
        <time>2018-08-18T11:42:52Z</time>
      </trkpt>
      <trkpt lat="-28.45328" lon="-65.740835">
        <ele>548.2</ele>
        <time>2018-08-18T11:43:05Z</time>
      </trkpt>
      <trkpt lat="-28.45327" lon="-65.74078">
        <ele>548.2</ele>
        <time>2018-08-18T11:43:12Z</time>
      </trkpt>
      <trkpt lat="-28.45327" lon="-65.74077">
        <ele>548.2</ele>
        <time>2018-08-18T11:43:15Z</time>
      </trkpt>
      <trkpt lat="-28.45327" lon="-65.740685">
        <ele>548.3</ele>
        <time>2018-08-18T11:43:25Z</time>
      </trkpt>
      <trkpt lat="-28.453235" lon="-65.740595">
        <ele>548.6</ele>
        <time>2018-08-18T11:43:28Z</time>
      </trkpt>
      <trkpt lat="-28.453195" lon="-65.74048">
        <ele>549.1</ele>
        <time>2018-08-18T11:43:31Z</time>
      </trkpt>
      <trkpt lat="-28.45315" lon="-65.740375">
        <ele>551.5</ele>
        <time>2018-08-18T11:43:34Z</time>
      </trkpt>
      <trkpt lat="-28.45311" lon="-65.740285">
        <ele>552.8</ele>
        <time>2018-08-18T11:43:36Z</time>
      </trkpt>
      <trkpt lat="-28.453075" lon="-65.74019">
        <ele>553.9</ele>
        <time>2018-08-18T11:43:38Z</time>
      </trkpt>
      <trkpt lat="-28.453045" lon="-65.740115">
        <ele>554.4</ele>
        <time>2018-08-18T11:43:40Z</time>
      </trkpt>
      <trkpt lat="-28.45302" lon="-65.740025">
        <ele>553.4</ele>
        <time>2018-08-18T11:43:42Z</time>
      </trkpt>
      <trkpt lat="-28.452984999999998" lon="-65.73989">
        <ele>552.4</ele>
        <time>2018-08-18T11:43:44Z</time>
      </trkpt>
      <trkpt lat="-28.452955" lon="-65.73976833333333">
        <ele>552.1</ele>
        <time>2018-08-18T11:43:46Z</time>
      </trkpt>
      <trkpt lat="-28.45293" lon="-65.73967">
        <ele>552.2</ele>
        <time>2018-08-18T11:43:48Z</time>
      </trkpt>
      <trkpt lat="-28.4529" lon="-65.73956">
        <ele>552.2</ele>
        <time>2018-08-18T11:43:50Z</time>
      </trkpt>
      <trkpt lat="-28.452865" lon="-65.73945">
        <ele>552.8</ele>
        <time>2018-08-18T11:43:52Z</time>
      </trkpt>
      <trkpt lat="-28.45283" lon="-65.739355">
        <ele>552.9</ele>
        <time>2018-08-18T11:43:54Z</time>
      </trkpt>
      <trkpt lat="-28.452805" lon="-65.73925">
        <ele>552.8</ele>
        <time>2018-08-18T11:43:56Z</time>
      </trkpt>
      <trkpt lat="-28.452775" lon="-65.73914333333333">
        <ele>552.2</ele>
        <time>2018-08-18T11:43:58Z</time>
      </trkpt>
      <trkpt lat="-28.452745" lon="-65.73905">
        <ele>551.5</ele>
        <time>2018-08-18T11:44:00Z</time>
      </trkpt>
      <trkpt lat="-28.45272" lon="-65.73896166666667">
        <ele>550.9</ele>
        <time>2018-08-18T11:44:02Z</time>
      </trkpt>
      <trkpt lat="-28.452695" lon="-65.73887333333333">
        <ele>550.6</ele>
        <time>2018-08-18T11:44:04Z</time>
      </trkpt>
      <trkpt lat="-28.452665" lon="-65.7388">
        <ele>550.7</ele>
        <time>2018-08-18T11:44:06Z</time>
      </trkpt>
      <trkpt lat="-28.45264" lon="-65.738715">
        <ele>550.8</ele>
        <time>2018-08-18T11:44:08Z</time>
      </trkpt>
      <trkpt lat="-28.4526" lon="-65.738605">
        <ele>552.3</ele>
        <time>2018-08-18T11:44:11Z</time>
      </trkpt>
      <trkpt lat="-28.45257" lon="-65.73851166666667">
        <ele>554.5</ele>
        <time>2018-08-18T11:44:13Z</time>
      </trkpt>
      <trkpt lat="-28.452545" lon="-65.738445">
        <ele>555.7</ele>
        <time>2018-08-18T11:44:15Z</time>
      </trkpt>
      <trkpt lat="-28.452515" lon="-65.73835">
        <ele>556.4</ele>
        <time>2018-08-18T11:44:17Z</time>
      </trkpt>
      <trkpt lat="-28.452485" lon="-65.738265">
        <ele>557.6</ele>
        <time>2018-08-18T11:44:19Z</time>
      </trkpt>
      <trkpt lat="-28.45246" lon="-65.73815833333333">
        <ele>557.6</ele>
        <time>2018-08-18T11:44:21Z</time>
      </trkpt>
      <trkpt lat="-28.45244" lon="-65.73808">
        <ele>557.2</ele>
        <time>2018-08-18T11:44:23Z</time>
      </trkpt>
      <trkpt lat="-28.452415" lon="-65.73798166666667">
        <ele>558.1</ele>
        <time>2018-08-18T11:44:25Z</time>
      </trkpt>
      <trkpt lat="-28.452385" lon="-65.737885">
        <ele>558.8</ele>
        <time>2018-08-18T11:44:27Z</time>
      </trkpt>
      <trkpt lat="-28.452355" lon="-65.73779">
        <ele>559.1</ele>
        <time>2018-08-18T11:44:29Z</time>
      </trkpt>
      <trkpt lat="-28.452325" lon="-65.737705">
        <ele>558.9</ele>
        <time>2018-08-18T11:44:31Z</time>
      </trkpt>
      <trkpt lat="-28.452295" lon="-65.73759">
        <ele>558.3</ele>
        <time>2018-08-18T11:44:33Z</time>
      </trkpt>
      <trkpt lat="-28.452275" lon="-65.737505">
        <ele>558.0</ele>
        <time>2018-08-18T11:44:35Z</time>
      </trkpt>
      <trkpt lat="-28.452245" lon="-65.737395">
        <ele>557.8</ele>
        <time>2018-08-18T11:44:37Z</time>
      </trkpt>
      <trkpt lat="-28.45221" lon="-65.7373">
        <ele>557.7</ele>
        <time>2018-08-18T11:44:39Z</time>
      </trkpt>
      <trkpt lat="-28.452185" lon="-65.737195">
        <ele>558.7</ele>
        <time>2018-08-18T11:44:41Z</time>
      </trkpt>
      <trkpt lat="-28.452155" lon="-65.73708166666667">
        <ele>559.9</ele>
        <time>2018-08-18T11:44:43Z</time>
      </trkpt>
      <trkpt lat="-28.452125" lon="-65.73699166666667">
        <ele>559.8</ele>
        <time>2018-08-18T11:44:45Z</time>
      </trkpt>
      <trkpt lat="-28.452105" lon="-65.73691166666667">
        <ele>560.3</ele>
        <time>2018-08-18T11:44:47Z</time>
      </trkpt>
      <trkpt lat="-28.45207" lon="-65.73681333333333">
        <ele>560.3</ele>
        <time>2018-08-18T11:44:49Z</time>
      </trkpt>
      <trkpt lat="-28.452045" lon="-65.736725">
        <ele>559.6</ele>
        <time>2018-08-18T11:44:51Z</time>
      </trkpt>
      <trkpt lat="-28.452015" lon="-65.736635">
        <ele>558.5</ele>
        <time>2018-08-18T11:44:53Z</time>
      </trkpt>
      <trkpt lat="-28.451995" lon="-65.736535">
        <ele>558.6</ele>
        <time>2018-08-18T11:44:55Z</time>
      </trkpt>
      <trkpt lat="-28.45197" lon="-65.736445">
        <ele>558.7</ele>
        <time>2018-08-18T11:44:57Z</time>
      </trkpt>
      <trkpt lat="-28.451945" lon="-65.73635166666666">
        <ele>558.9</ele>
        <time>2018-08-18T11:44:59Z</time>
      </trkpt>
      <trkpt lat="-28.451925" lon="-65.73627">
        <ele>558.5</ele>
        <time>2018-08-18T11:45:01Z</time>
      </trkpt>
      <trkpt lat="-28.4519" lon="-65.736185">
        <ele>558.4</ele>
        <time>2018-08-18T11:45:03Z</time>
      </trkpt>
      <trkpt lat="-28.451865" lon="-65.736085">
        <ele>558.4</ele>
        <time>2018-08-18T11:45:06Z</time>
      </trkpt>
      <trkpt lat="-28.451845" lon="-65.735995">
        <ele>558.4</ele>
        <time>2018-08-18T11:45:09Z</time>
      </trkpt>
      <trkpt lat="-28.451815" lon="-65.73589">
        <ele>558.3</ele>
        <time>2018-08-18T11:45:12Z</time>
      </trkpt>
      <trkpt lat="-28.451785" lon="-65.735805">
        <ele>558.2</ele>
        <time>2018-08-18T11:45:15Z</time>
      </trkpt>
      <trkpt lat="-28.45176" lon="-65.73569666666667">
        <ele>558.0</ele>
        <time>2018-08-18T11:45:18Z</time>
      </trkpt>
      <trkpt lat="-28.451725" lon="-65.73559">
        <ele>557.8</ele>
        <time>2018-08-18T11:45:21Z</time>
      </trkpt>
      <trkpt lat="-28.451715" lon="-65.735505">
        <ele>557.5</ele>
        <time>2018-08-18T11:45:23Z</time>
      </trkpt>
      <trkpt lat="-28.45169" lon="-65.735395">
        <ele>555.6</ele>
        <time>2018-08-18T11:45:25Z</time>
      </trkpt>
      <trkpt lat="-28.45167" lon="-65.73531">
        <ele>555.0</ele>
        <time>2018-08-18T11:45:27Z</time>
      </trkpt>
      <trkpt lat="-28.45164" lon="-65.735215">
        <ele>554.9</ele>
        <time>2018-08-18T11:45:30Z</time>
      </trkpt>
      <trkpt lat="-28.451605" lon="-65.735135">
        <ele>554.9</ele>
        <time>2018-08-18T11:45:33Z</time>
      </trkpt>
      <trkpt lat="-28.45159" lon="-65.73505">
        <ele>554.7</ele>
        <time>2018-08-18T11:45:35Z</time>
      </trkpt>
      <trkpt lat="-28.45157" lon="-65.734965">
        <ele>554.0</ele>
        <time>2018-08-18T11:45:37Z</time>
      </trkpt>
      <trkpt lat="-28.45155" lon="-65.73488">
        <ele>553.2</ele>
        <time>2018-08-18T11:45:39Z</time>
      </trkpt>
      <trkpt lat="-28.451529999999998" lon="-65.734785">
        <ele>552.6</ele>
        <time>2018-08-18T11:45:41Z</time>
      </trkpt>
      <trkpt lat="-28.4515" lon="-65.73469">
        <ele>551.5</ele>
        <time>2018-08-18T11:45:43Z</time>
      </trkpt>
      <trkpt lat="-28.451485" lon="-65.73461">
        <ele>550.8</ele>
        <time>2018-08-18T11:45:45Z</time>
      </trkpt>
      <trkpt lat="-28.451465" lon="-65.73452">
        <ele>550.9</ele>
        <time>2018-08-18T11:45:47Z</time>
      </trkpt>
      <trkpt lat="-28.45144" lon="-65.73443">
        <ele>551.4</ele>
        <time>2018-08-18T11:45:49Z</time>
      </trkpt>
      <trkpt lat="-28.451405" lon="-65.734345">
        <ele>551.1</ele>
        <time>2018-08-18T11:45:51Z</time>
      </trkpt>
      <trkpt lat="-28.451345" lon="-65.73423">
        <ele>551.1</ele>
        <time>2018-08-18T11:45:54Z</time>
      </trkpt>
      <trkpt lat="-28.4513" lon="-65.73415">
        <ele>550.9</ele>
        <time>2018-08-18T11:45:56Z</time>
      </trkpt>
      <trkpt lat="-28.451245" lon="-65.73403666666667">
        <ele>550.4</ele>
        <time>2018-08-18T11:45:59Z</time>
      </trkpt>
      <trkpt lat="-28.45119" lon="-65.733975">
        <ele>550.4</ele>
        <time>2018-08-18T11:46:01Z</time>
      </trkpt>
      <trkpt lat="-28.451135" lon="-65.733895">
        <ele>550.4</ele>
        <time>2018-08-18T11:46:04Z</time>
      </trkpt>
      <trkpt lat="-28.451055" lon="-65.73381">
        <ele>550.5</ele>
        <time>2018-08-18T11:46:07Z</time>
      </trkpt>
      <trkpt lat="-28.451" lon="-65.73376">
        <ele>550.6</ele>
        <time>2018-08-18T11:46:09Z</time>
      </trkpt>
      <trkpt lat="-28.450945" lon="-65.733705">
        <ele>550.7</ele>
        <time>2018-08-18T11:46:11Z</time>
      </trkpt>
      <trkpt lat="-28.450885" lon="-65.73365">
        <ele>550.8</ele>
        <time>2018-08-18T11:46:13Z</time>
      </trkpt>
      <trkpt lat="-28.450825" lon="-65.733585">
        <ele>551.0</ele>
        <time>2018-08-18T11:46:15Z</time>
      </trkpt>
      <trkpt lat="-28.450765" lon="-65.73354">
        <ele>551.2</ele>
        <time>2018-08-18T11:46:17Z</time>
      </trkpt>
      <trkpt lat="-28.450685" lon="-65.73347">
        <ele>551.5</ele>
        <time>2018-08-18T11:46:20Z</time>
      </trkpt>
      <trkpt lat="-28.45061" lon="-65.733395">
        <ele>551.6</ele>
        <time>2018-08-18T11:46:23Z</time>
      </trkpt>
      <trkpt lat="-28.45055" lon="-65.73335">
        <ele>551.8</ele>
        <time>2018-08-18T11:46:25Z</time>
      </trkpt>
      <trkpt lat="-28.450485" lon="-65.733295">
        <ele>553.1</ele>
        <time>2018-08-18T11:46:27Z</time>
      </trkpt>
      <trkpt lat="-28.450425" lon="-65.73323">
        <ele>555.3</ele>
        <time>2018-08-18T11:46:29Z</time>
      </trkpt>
      <trkpt lat="-28.450355" lon="-65.73317666666667">
        <ele>556.6</ele>
        <time>2018-08-18T11:46:31Z</time>
      </trkpt>
      <trkpt lat="-28.45028" lon="-65.733125">
        <ele>558.9</ele>
        <time>2018-08-18T11:46:33Z</time>
      </trkpt>
      <trkpt lat="-28.45022" lon="-65.73307">
        <ele>560.6</ele>
        <time>2018-08-18T11:46:35Z</time>
      </trkpt>
      <trkpt lat="-28.45016" lon="-65.73301166666667">
        <ele>562.4</ele>
        <time>2018-08-18T11:46:37Z</time>
      </trkpt>
      <trkpt lat="-28.4501" lon="-65.73295666666667">
        <ele>562.6</ele>
        <time>2018-08-18T11:46:39Z</time>
      </trkpt>
      <trkpt lat="-28.450035" lon="-65.732905">
        <ele>563.3</ele>
        <time>2018-08-18T11:46:41Z</time>
      </trkpt>
      <trkpt lat="-28.44997" lon="-65.732845">
        <ele>563.7</ele>
        <time>2018-08-18T11:46:43Z</time>
      </trkpt>
      <trkpt lat="-28.44991" lon="-65.73278">
        <ele>563.9</ele>
        <time>2018-08-18T11:46:45Z</time>
      </trkpt>
      <trkpt lat="-28.44985" lon="-65.73273">
        <ele>563.6</ele>
        <time>2018-08-18T11:46:47Z</time>
      </trkpt>
      <trkpt lat="-28.44979" lon="-65.732665">
        <ele>563.1</ele>
        <time>2018-08-18T11:46:49Z</time>
      </trkpt>
      <trkpt lat="-28.44972" lon="-65.73260166666667">
        <ele>562.4</ele>
        <time>2018-08-18T11:46:51Z</time>
      </trkpt>
      <trkpt lat="-28.44967" lon="-65.73255">
        <ele>561.7</ele>
        <time>2018-08-18T11:46:53Z</time>
      </trkpt>
      <trkpt lat="-28.4496" lon="-65.732495">
        <ele>560.5</ele>
        <time>2018-08-18T11:46:55Z</time>
      </trkpt>
      <trkpt lat="-28.44953" lon="-65.73244">
        <ele>560.1</ele>
        <time>2018-08-18T11:46:57Z</time>
      </trkpt>
      <trkpt lat="-28.44947" lon="-65.73238166666667">
        <ele>559.8</ele>
        <time>2018-08-18T11:46:59Z</time>
      </trkpt>
      <trkpt lat="-28.449405" lon="-65.73233666666667">
        <ele>559.1</ele>
        <time>2018-08-18T11:47:01Z</time>
      </trkpt>
      <trkpt lat="-28.44933" lon="-65.73229">
        <ele>558.4</ele>
        <time>2018-08-18T11:47:03Z</time>
      </trkpt>
      <trkpt lat="-28.449255" lon="-65.732245">
        <ele>558.0</ele>
        <time>2018-08-18T11:47:05Z</time>
      </trkpt>
      <trkpt lat="-28.449185" lon="-65.732185">
        <ele>557.9</ele>
        <time>2018-08-18T11:47:07Z</time>
      </trkpt>
      <trkpt lat="-28.4491" lon="-65.732145">
        <ele>558.1</ele>
        <time>2018-08-18T11:47:09Z</time>
      </trkpt>
      <trkpt lat="-28.44902" lon="-65.7321">
        <ele>558.2</ele>
        <time>2018-08-18T11:47:11Z</time>
      </trkpt>
      <trkpt lat="-28.44894" lon="-65.732055">
        <ele>557.2</ele>
        <time>2018-08-18T11:47:13Z</time>
      </trkpt>
      <trkpt lat="-28.448855000000002" lon="-65.73201">
        <ele>556.6</ele>
        <time>2018-08-18T11:47:15Z</time>
      </trkpt>
      <trkpt lat="-28.44877" lon="-65.73196">
        <ele>556.4</ele>
        <time>2018-08-18T11:47:17Z</time>
      </trkpt>
      <trkpt lat="-28.448685" lon="-65.73192">
        <ele>556.4</ele>
        <time>2018-08-18T11:47:19Z</time>
      </trkpt>
      <trkpt lat="-28.4486" lon="-65.731875">
        <ele>556.4</ele>
        <time>2018-08-18T11:47:21Z</time>
      </trkpt>
      <trkpt lat="-28.44852" lon="-65.731805">
        <ele>557.2</ele>
        <time>2018-08-18T11:47:23Z</time>
      </trkpt>
      <trkpt lat="-28.44844" lon="-65.731745">
        <ele>558.4</ele>
        <time>2018-08-18T11:47:25Z</time>
      </trkpt>
      <trkpt lat="-28.448375" lon="-65.73166666666667">
        <ele>559.4</ele>
        <time>2018-08-18T11:47:27Z</time>
      </trkpt>
      <trkpt lat="-28.44831" lon="-65.731595">
        <ele>560.1</ele>
        <time>2018-08-18T11:47:29Z</time>
      </trkpt>
      <trkpt lat="-28.448245" lon="-65.73152">
        <ele>560.7</ele>
        <time>2018-08-18T11:47:31Z</time>
      </trkpt>
      <trkpt lat="-28.448185" lon="-65.731425">
        <ele>561.3</ele>
        <time>2018-08-18T11:47:33Z</time>
      </trkpt>
      <trkpt lat="-28.44814" lon="-65.731345">
        <ele>560.9</ele>
        <time>2018-08-18T11:47:35Z</time>
      </trkpt>
      <trkpt lat="-28.448081666666667" lon="-65.73126">
        <ele>560.4</ele>
        <time>2018-08-18T11:47:37Z</time>
      </trkpt>
      <trkpt lat="-28.448045" lon="-65.73116">
        <ele>560.8</ele>
        <time>2018-08-18T11:47:39Z</time>
      </trkpt>
      <trkpt lat="-28.448025" lon="-65.73106">
        <ele>560.4</ele>
        <time>2018-08-18T11:47:41Z</time>
      </trkpt>
      <trkpt lat="-28.448" lon="-65.730965">
        <ele>560.3</ele>
        <time>2018-08-18T11:47:43Z</time>
      </trkpt>
      <trkpt lat="-28.447975" lon="-65.73085666666667">
        <ele>560.0</ele>
        <time>2018-08-18T11:47:45Z</time>
      </trkpt>
      <trkpt lat="-28.44796" lon="-65.73076">
        <ele>560.2</ele>
        <time>2018-08-18T11:47:47Z</time>
      </trkpt>
      <trkpt lat="-28.44794" lon="-65.73066">
        <ele>560.2</ele>
        <time>2018-08-18T11:47:49Z</time>
      </trkpt>
      <trkpt lat="-28.44793" lon="-65.73057">
        <ele>560.0</ele>
        <time>2018-08-18T11:47:51Z</time>
      </trkpt>
      <trkpt lat="-28.44792" lon="-65.73047">
        <ele>559.5</ele>
        <time>2018-08-18T11:47:53Z</time>
      </trkpt>
      <trkpt lat="-28.44791" lon="-65.730385">
        <ele>558.9</ele>
        <time>2018-08-18T11:47:55Z</time>
      </trkpt>
      <trkpt lat="-28.44789" lon="-65.7303">
        <ele>558.6</ele>
        <time>2018-08-18T11:47:57Z</time>
      </trkpt>
      <trkpt lat="-28.44789" lon="-65.730215">
        <ele>558.5</ele>
        <time>2018-08-18T11:47:59Z</time>
      </trkpt>
      <trkpt lat="-28.447885" lon="-65.73013">
        <ele>558.5</ele>
        <time>2018-08-18T11:48:01Z</time>
      </trkpt>
      <trkpt lat="-28.447875" lon="-65.73000166666667">
        <ele>558.6</ele>
        <time>2018-08-18T11:48:04Z</time>
      </trkpt>
      <trkpt lat="-28.447855" lon="-65.72991">
        <ele>558.6</ele>
        <time>2018-08-18T11:48:06Z</time>
      </trkpt>
      <trkpt lat="-28.44785" lon="-65.729815">
        <ele>558.1</ele>
        <time>2018-08-18T11:48:08Z</time>
      </trkpt>
      <trkpt lat="-28.447845" lon="-65.72972">
        <ele>557.4</ele>
        <time>2018-08-18T11:48:10Z</time>
      </trkpt>
      <trkpt lat="-28.447835" lon="-65.72961">
        <ele>557.1</ele>
        <time>2018-08-18T11:48:12Z</time>
      </trkpt>
      <trkpt lat="-28.44782" lon="-65.729515">
        <ele>557.1</ele>
        <time>2018-08-18T11:48:14Z</time>
      </trkpt>
      <trkpt lat="-28.44782" lon="-65.729415">
        <ele>557.2</ele>
        <time>2018-08-18T11:48:16Z</time>
      </trkpt>
      <trkpt lat="-28.447815" lon="-65.729315">
        <ele>557.5</ele>
        <time>2018-08-18T11:48:18Z</time>
      </trkpt>
      <trkpt lat="-28.447805" lon="-65.729215">
        <ele>557.6</ele>
        <time>2018-08-18T11:48:20Z</time>
      </trkpt>
      <trkpt lat="-28.4478" lon="-65.72911">
        <ele>557.8</ele>
        <time>2018-08-18T11:48:22Z</time>
      </trkpt>
      <trkpt lat="-28.447795" lon="-65.729005">
        <ele>557.6</ele>
        <time>2018-08-18T11:48:24Z</time>
      </trkpt>
      <trkpt lat="-28.4478" lon="-65.72888666666667">
        <ele>556.9</ele>
        <time>2018-08-18T11:48:26Z</time>
      </trkpt>
      <trkpt lat="-28.447805" lon="-65.72878">
        <ele>556.4</ele>
        <time>2018-08-18T11:48:28Z</time>
      </trkpt>
      <trkpt lat="-28.44781" lon="-65.72866833333333">
        <ele>556.2</ele>
        <time>2018-08-18T11:48:30Z</time>
      </trkpt>
      <trkpt lat="-28.447815" lon="-65.728575">
        <ele>556.1</ele>
        <time>2018-08-18T11:48:32Z</time>
      </trkpt>
      <trkpt lat="-28.44782" lon="-65.72847">
        <ele>556.3</ele>
        <time>2018-08-18T11:48:34Z</time>
      </trkpt>
      <trkpt lat="-28.447835" lon="-65.72835833333333">
        <ele>556.2</ele>
        <time>2018-08-18T11:48:36Z</time>
      </trkpt>
      <trkpt lat="-28.447845" lon="-65.72825666666667">
        <ele>555.8</ele>
        <time>2018-08-18T11:48:38Z</time>
      </trkpt>
      <trkpt lat="-28.447865" lon="-65.728165">
        <ele>555.1</ele>
        <time>2018-08-18T11:48:40Z</time>
      </trkpt>
      <trkpt lat="-28.447885" lon="-65.728065">
        <ele>553.6</ele>
        <time>2018-08-18T11:48:42Z</time>
      </trkpt>
      <trkpt lat="-28.44791" lon="-65.727975">
        <ele>551.9</ele>
        <time>2018-08-18T11:48:44Z</time>
      </trkpt>
      <trkpt lat="-28.44794" lon="-65.72788">
        <ele>550.1</ele>
        <time>2018-08-18T11:48:46Z</time>
      </trkpt>
      <trkpt lat="-28.447965" lon="-65.72779">
        <ele>548.9</ele>
        <time>2018-08-18T11:48:48Z</time>
      </trkpt>
      <trkpt lat="-28.447995" lon="-65.72768166666667">
        <ele>548.3</ele>
        <time>2018-08-18T11:48:50Z</time>
      </trkpt>
      <trkpt lat="-28.44802" lon="-65.72759333333333">
        <ele>547.9</ele>
        <time>2018-08-18T11:48:52Z</time>
      </trkpt>
      <trkpt lat="-28.448045" lon="-65.72750166666667">
        <ele>547.7</ele>
        <time>2018-08-18T11:48:54Z</time>
      </trkpt>
      <trkpt lat="-28.44807" lon="-65.72741166666667">
        <ele>547.5</ele>
        <time>2018-08-18T11:48:56Z</time>
      </trkpt>
      <trkpt lat="-28.448081666666667" lon="-65.727335">
        <ele>547.5</ele>
        <time>2018-08-18T11:48:58Z</time>
      </trkpt>
      <trkpt lat="-28.44812" lon="-65.72723">
        <ele>547.5</ele>
        <time>2018-08-18T11:49:00Z</time>
      </trkpt>
      <trkpt lat="-28.448145" lon="-65.72714">
        <ele>547.7</ele>
        <time>2018-08-18T11:49:02Z</time>
      </trkpt>
      <trkpt lat="-28.448175" lon="-65.727045">
        <ele>548.0</ele>
        <time>2018-08-18T11:49:04Z</time>
      </trkpt>
      <trkpt lat="-28.4482" lon="-65.726955">
        <ele>548.3</ele>
        <time>2018-08-18T11:49:06Z</time>
      </trkpt>
      <trkpt lat="-28.448225" lon="-65.726855">
        <ele>548.7</ele>
        <time>2018-08-18T11:49:08Z</time>
      </trkpt>
      <trkpt lat="-28.44825" lon="-65.726765">
        <ele>549.2</ele>
        <time>2018-08-18T11:49:10Z</time>
      </trkpt>
      <trkpt lat="-28.44828" lon="-65.72665666666667">
        <ele>549.5</ele>
        <time>2018-08-18T11:49:12Z</time>
      </trkpt>
      <trkpt lat="-28.448305" lon="-65.72656333333333">
        <ele>549.6</ele>
        <time>2018-08-18T11:49:14Z</time>
      </trkpt>
      <trkpt lat="-28.44832" lon="-65.72647166666667">
        <ele>549.4</ele>
        <time>2018-08-18T11:49:16Z</time>
      </trkpt>
      <trkpt lat="-28.448355" lon="-65.72638">
        <ele>549.4</ele>
        <time>2018-08-18T11:49:18Z</time>
      </trkpt>
      <trkpt lat="-28.44838" lon="-65.72628666666667">
        <ele>549.3</ele>
        <time>2018-08-18T11:49:20Z</time>
      </trkpt>
      <trkpt lat="-28.4484" lon="-65.726195">
        <ele>549.2</ele>
        <time>2018-08-18T11:49:22Z</time>
      </trkpt>
      <trkpt lat="-28.448425" lon="-65.72611">
        <ele>549.1</ele>
        <time>2018-08-18T11:49:24Z</time>
      </trkpt>
      <trkpt lat="-28.44845" lon="-65.726025">
        <ele>548.7</ele>
        <time>2018-08-18T11:49:26Z</time>
      </trkpt>
      <trkpt lat="-28.44847" lon="-65.72593">
        <ele>548.5</ele>
        <time>2018-08-18T11:49:28Z</time>
      </trkpt>
      <trkpt lat="-28.448495" lon="-65.725845">
        <ele>548.5</ele>
        <time>2018-08-18T11:49:30Z</time>
      </trkpt>
      <trkpt lat="-28.44852" lon="-65.725745">
        <ele>548.5</ele>
        <time>2018-08-18T11:49:32Z</time>
      </trkpt>
      <trkpt lat="-28.448555" lon="-65.72564">
        <ele>548.5</ele>
        <time>2018-08-18T11:49:35Z</time>
      </trkpt>
      <trkpt lat="-28.44859" lon="-65.72551666666666">
        <ele>547.9</ele>
        <time>2018-08-18T11:49:38Z</time>
      </trkpt>
      <trkpt lat="-28.44861" lon="-65.72544">
        <ele>547.6</ele>
        <time>2018-08-18T11:49:40Z</time>
      </trkpt>
      <trkpt lat="-28.44864" lon="-65.725335">
        <ele>547.6</ele>
        <time>2018-08-18T11:49:43Z</time>
      </trkpt>
      <trkpt lat="-28.448675" lon="-65.72521">
        <ele>547.6</ele>
        <time>2018-08-18T11:49:46Z</time>
      </trkpt>
      <trkpt lat="-28.4487" lon="-65.72508666666667">
        <ele>547.9</ele>
        <time>2018-08-18T11:49:49Z</time>
      </trkpt>
      <trkpt lat="-28.44872" lon="-65.72502">
        <ele>548.2</ele>
        <time>2018-08-18T11:49:51Z</time>
      </trkpt>
      <trkpt lat="-28.448735" lon="-65.724925">
        <ele>548.7</ele>
        <time>2018-08-18T11:49:53Z</time>
      </trkpt>
      <trkpt lat="-28.44876" lon="-65.72484">
        <ele>548.6</ele>
        <time>2018-08-18T11:49:55Z</time>
      </trkpt>
      <trkpt lat="-28.448785" lon="-65.72472">
        <ele>550.0</ele>
        <time>2018-08-18T11:49:58Z</time>
      </trkpt>
      <trkpt lat="-28.448805" lon="-65.724635">
        <ele>550.6</ele>
        <time>2018-08-18T11:50:00Z</time>
      </trkpt>
      <trkpt lat="-28.44883" lon="-65.72454">
        <ele>551.2</ele>
        <time>2018-08-18T11:50:02Z</time>
      </trkpt>
      <trkpt lat="-28.448865" lon="-65.724435">
        <ele>551.2</ele>
        <time>2018-08-18T11:50:05Z</time>
      </trkpt>
      <trkpt lat="-28.448895" lon="-65.724335">
        <ele>551.3</ele>
        <time>2018-08-18T11:50:08Z</time>
      </trkpt>
      <trkpt lat="-28.44891" lon="-65.724225">
        <ele>551.6</ele>
        <time>2018-08-18T11:50:12Z</time>
      </trkpt>
      <trkpt lat="-28.448925" lon="-65.72414">
        <ele>552.0</ele>
        <time>2018-08-18T11:50:16Z</time>
      </trkpt>
      <trkpt lat="-28.44895" lon="-65.724055">
        <ele>552.5</ele>
        <time>2018-08-18T11:50:21Z</time>
      </trkpt>
      <trkpt lat="-28.448985" lon="-65.723955">
        <ele>552.7</ele>
        <time>2018-08-18T11:50:25Z</time>
      </trkpt>
      <trkpt lat="-28.44902" lon="-65.72383333333333">
        <ele>552.8</ele>
        <time>2018-08-18T11:50:28Z</time>
      </trkpt>
      <trkpt lat="-28.44904" lon="-65.723755">
        <ele>552.9</ele>
        <time>2018-08-18T11:50:30Z</time>
      </trkpt>
      <trkpt lat="-28.449065" lon="-65.72367">
        <ele>554.0</ele>
        <time>2018-08-18T11:50:32Z</time>
      </trkpt>
      <trkpt lat="-28.449089999999998" lon="-65.723575">
        <ele>555.9</ele>
        <time>2018-08-18T11:50:34Z</time>
      </trkpt>
      <trkpt lat="-28.449115" lon="-65.72346666666667">
        <ele>557.5</ele>
        <time>2018-08-18T11:50:36Z</time>
      </trkpt>
      <trkpt lat="-28.449135" lon="-65.723395">
        <ele>558.1</ele>
        <time>2018-08-18T11:50:38Z</time>
      </trkpt>
      <trkpt lat="-28.44915" lon="-65.723305">
        <ele>558.0</ele>
        <time>2018-08-18T11:50:40Z</time>
      </trkpt>
      <trkpt lat="-28.449175" lon="-65.7232">
        <ele>558.0</ele>
        <time>2018-08-18T11:50:42Z</time>
      </trkpt>
      <trkpt lat="-28.4492" lon="-65.723105">
        <ele>558.7</ele>
        <time>2018-08-18T11:50:44Z</time>
      </trkpt>
      <trkpt lat="-28.44922" lon="-65.723015">
        <ele>558.7</ele>
        <time>2018-08-18T11:50:46Z</time>
      </trkpt>
      <trkpt lat="-28.449245" lon="-65.722915">
        <ele>558.4</ele>
        <time>2018-08-18T11:50:48Z</time>
      </trkpt>
      <trkpt lat="-28.449275" lon="-65.722815">
        <ele>558.5</ele>
        <time>2018-08-18T11:50:50Z</time>
      </trkpt>
      <trkpt lat="-28.449295" lon="-65.72271">
        <ele>558.0</ele>
        <time>2018-08-18T11:50:52Z</time>
      </trkpt>
      <trkpt lat="-28.449325" lon="-65.72262">
        <ele>557.4</ele>
        <time>2018-08-18T11:50:54Z</time>
      </trkpt>
      <trkpt lat="-28.449355" lon="-65.72252666666667">
        <ele>555.5</ele>
        <time>2018-08-18T11:50:56Z</time>
      </trkpt>
      <trkpt lat="-28.449395" lon="-65.72244">
        <ele>554.2</ele>
        <time>2018-08-18T11:50:58Z</time>
      </trkpt>
      <trkpt lat="-28.449425" lon="-65.722335">
        <ele>554.2</ele>
        <time>2018-08-18T11:51:00Z</time>
      </trkpt>
      <trkpt lat="-28.449455" lon="-65.722255">
        <ele>554.6</ele>
        <time>2018-08-18T11:51:02Z</time>
      </trkpt>
      <trkpt lat="-28.449475" lon="-65.72217">
        <ele>554.1</ele>
        <time>2018-08-18T11:51:04Z</time>
      </trkpt>
      <trkpt lat="-28.449481666666667" lon="-65.722085">
        <ele>554.1</ele>
        <time>2018-08-18T11:51:06Z</time>
      </trkpt>
      <trkpt lat="-28.44952" lon="-65.72195333333333">
        <ele>553.9</ele>
        <time>2018-08-18T11:51:09Z</time>
      </trkpt>
      <trkpt lat="-28.449545" lon="-65.72186333333333">
        <ele>553.0</ele>
        <time>2018-08-18T11:51:11Z</time>
      </trkpt>
      <trkpt lat="-28.449575" lon="-65.721795">
        <ele>552.3</ele>
        <time>2018-08-18T11:51:13Z</time>
      </trkpt>
      <trkpt lat="-28.449615" lon="-65.721715">
        <ele>552.6</ele>
        <time>2018-08-18T11:51:15Z</time>
      </trkpt>
      <trkpt lat="-28.44965" lon="-65.721635">
        <ele>553.0</ele>
        <time>2018-08-18T11:51:17Z</time>
      </trkpt>
      <trkpt lat="-28.44971" lon="-65.721565">
        <ele>554.0</ele>
        <time>2018-08-18T11:51:19Z</time>
      </trkpt>
      <trkpt lat="-28.44978" lon="-65.72149">
        <ele>553.7</ele>
        <time>2018-08-18T11:51:21Z</time>
      </trkpt>
      <trkpt lat="-28.44985" lon="-65.721425">
        <ele>553.3</ele>
        <time>2018-08-18T11:51:23Z</time>
      </trkpt>
      <trkpt lat="-28.44991" lon="-65.72135">
        <ele>552.6</ele>
        <time>2018-08-18T11:51:25Z</time>
      </trkpt>
      <trkpt lat="-28.44996" lon="-65.72128166666667">
        <ele>551.5</ele>
        <time>2018-08-18T11:51:27Z</time>
      </trkpt>
      <trkpt lat="-28.45" lon="-65.72121">
        <ele>550.7</ele>
        <time>2018-08-18T11:51:29Z</time>
      </trkpt>
      <trkpt lat="-28.450045" lon="-65.721115">
        <ele>550.0</ele>
        <time>2018-08-18T11:51:31Z</time>
      </trkpt>
      <trkpt lat="-28.450085" lon="-65.721025">
        <ele>549.0</ele>
        <time>2018-08-18T11:51:33Z</time>
      </trkpt>
      <trkpt lat="-28.450125" lon="-65.72095">
        <ele>548.2</ele>
        <time>2018-08-18T11:51:35Z</time>
      </trkpt>
      <trkpt lat="-28.450195" lon="-65.72086">
        <ele>548.5</ele>
        <time>2018-08-18T11:51:37Z</time>
      </trkpt>
      <trkpt lat="-28.45026" lon="-65.72077">
        <ele>548.7</ele>
        <time>2018-08-18T11:51:39Z</time>
      </trkpt>
      <trkpt lat="-28.450325" lon="-65.720685">
        <ele>549.3</ele>
        <time>2018-08-18T11:51:41Z</time>
      </trkpt>
      <trkpt lat="-28.450375" lon="-65.720605">
        <ele>550.5</ele>
        <time>2018-08-18T11:51:43Z</time>
      </trkpt>
      <trkpt lat="-28.45043" lon="-65.720535">
        <ele>551.6</ele>
        <time>2018-08-18T11:51:45Z</time>
      </trkpt>
      <trkpt lat="-28.450495" lon="-65.72045">
        <ele>552.4</ele>
        <time>2018-08-18T11:51:47Z</time>
      </trkpt>
      <trkpt lat="-28.45055" lon="-65.72036">
        <ele>552.7</ele>
        <time>2018-08-18T11:51:49Z</time>
      </trkpt>
      <trkpt lat="-28.450605" lon="-65.72028">
        <ele>553.2</ele>
        <time>2018-08-18T11:51:51Z</time>
      </trkpt>
      <trkpt lat="-28.45065" lon="-65.7202">
        <ele>553.7</ele>
        <time>2018-08-18T11:51:53Z</time>
      </trkpt>
      <trkpt lat="-28.450695" lon="-65.72013">
        <ele>553.2</ele>
        <time>2018-08-18T11:51:55Z</time>
      </trkpt>
      <trkpt lat="-28.45075" lon="-65.720045">
        <ele>552.7</ele>
        <time>2018-08-18T11:51:57Z</time>
      </trkpt>
      <trkpt lat="-28.45081" lon="-65.719955">
        <ele>552.5</ele>
        <time>2018-08-18T11:51:59Z</time>
      </trkpt>
      <trkpt lat="-28.450848333333333" lon="-65.719875">
        <ele>552.7</ele>
        <time>2018-08-18T11:52:01Z</time>
      </trkpt>
      <trkpt lat="-28.450895" lon="-65.719795">
        <ele>552.9</ele>
        <time>2018-08-18T11:52:03Z</time>
      </trkpt>
      <trkpt lat="-28.45095" lon="-65.71971">
        <ele>553.1</ele>
        <time>2018-08-18T11:52:05Z</time>
      </trkpt>
      <trkpt lat="-28.451" lon="-65.71962">
        <ele>554.3</ele>
        <time>2018-08-18T11:52:07Z</time>
      </trkpt>
      <trkpt lat="-28.451055" lon="-65.71955">
        <ele>556.0</ele>
        <time>2018-08-18T11:52:09Z</time>
      </trkpt>
      <trkpt lat="-28.4511" lon="-65.719455">
        <ele>557.4</ele>
        <time>2018-08-18T11:52:11Z</time>
      </trkpt>
      <trkpt lat="-28.451145" lon="-65.719355">
        <ele>558.2</ele>
        <time>2018-08-18T11:52:13Z</time>
      </trkpt>
      <trkpt lat="-28.45119" lon="-65.71926666666667">
        <ele>558.0</ele>
        <time>2018-08-18T11:52:15Z</time>
      </trkpt>
      <trkpt lat="-28.451226666666667" lon="-65.7192">
        <ele>558.1</ele>
        <time>2018-08-18T11:52:17Z</time>
      </trkpt>
      <trkpt lat="-28.45129" lon="-65.71911">
        <ele>558.4</ele>
        <time>2018-08-18T11:52:19Z</time>
      </trkpt>
      <trkpt lat="-28.451345" lon="-65.71903">
        <ele>558.8</ele>
        <time>2018-08-18T11:52:21Z</time>
      </trkpt>
      <trkpt lat="-28.451395" lon="-65.71895">
        <ele>558.7</ele>
        <time>2018-08-18T11:52:23Z</time>
      </trkpt>
      <trkpt lat="-28.45145" lon="-65.71885">
        <ele>558.9</ele>
        <time>2018-08-18T11:52:25Z</time>
      </trkpt>
      <trkpt lat="-28.4515" lon="-65.718765">
        <ele>558.8</ele>
        <time>2018-08-18T11:52:27Z</time>
      </trkpt>
      <trkpt lat="-28.451555" lon="-65.71868">
        <ele>557.0</ele>
        <time>2018-08-18T11:52:29Z</time>
      </trkpt>
      <trkpt lat="-28.451605" lon="-65.718585">
        <ele>555.2</ele>
        <time>2018-08-18T11:52:31Z</time>
      </trkpt>
      <trkpt lat="-28.45166" lon="-65.7185">
        <ele>554.1</ele>
        <time>2018-08-18T11:52:33Z</time>
      </trkpt>
      <trkpt lat="-28.45171" lon="-65.71841333333333">
        <ele>553.2</ele>
        <time>2018-08-18T11:52:35Z</time>
      </trkpt>
      <trkpt lat="-28.451755" lon="-65.71835">
        <ele>552.2</ele>
        <time>2018-08-18T11:52:37Z</time>
      </trkpt>
      <trkpt lat="-28.451795" lon="-65.718275">
        <ele>552.0</ele>
        <time>2018-08-18T11:52:39Z</time>
      </trkpt>
      <trkpt lat="-28.451855" lon="-65.71819">
        <ele>551.8</ele>
        <time>2018-08-18T11:52:42Z</time>
      </trkpt>
      <trkpt lat="-28.451905" lon="-65.71809166666667">
        <ele>551.5</ele>
        <time>2018-08-18T11:52:45Z</time>
      </trkpt>
      <trkpt lat="-28.45195" lon="-65.71801166666667">
        <ele>551.2</ele>
        <time>2018-08-18T11:52:48Z</time>
      </trkpt>
      <trkpt lat="-28.451995" lon="-65.717945">
        <ele>551.2</ele>
        <time>2018-08-18T11:52:50Z</time>
      </trkpt>
      <trkpt lat="-28.45204" lon="-65.717865">
        <ele>550.9</ele>
        <time>2018-08-18T11:52:52Z</time>
      </trkpt>
      <trkpt lat="-28.45208" lon="-65.71778">
        <ele>550.4</ele>
        <time>2018-08-18T11:52:54Z</time>
      </trkpt>
      <trkpt lat="-28.452115" lon="-65.717695">
        <ele>550.3</ele>
        <time>2018-08-18T11:52:56Z</time>
      </trkpt>
      <trkpt lat="-28.452155" lon="-65.71763">
        <ele>550.3</ele>
        <time>2018-08-18T11:52:58Z</time>
      </trkpt>
      <trkpt lat="-28.4522" lon="-65.71755">
        <ele>550.7</ele>
        <time>2018-08-18T11:53:00Z</time>
      </trkpt>
      <trkpt lat="-28.45224" lon="-65.71746">
        <ele>551.5</ele>
        <time>2018-08-18T11:53:02Z</time>
      </trkpt>
      <trkpt lat="-28.452285" lon="-65.71737666666667">
        <ele>551.4</ele>
        <time>2018-08-18T11:53:04Z</time>
      </trkpt>
      <trkpt lat="-28.452325" lon="-65.71732">
        <ele>551.2</ele>
        <time>2018-08-18T11:53:06Z</time>
      </trkpt>
      <trkpt lat="-28.452385" lon="-65.71720666666667">
        <ele>550.8</ele>
        <time>2018-08-18T11:53:09Z</time>
      </trkpt>
      <trkpt lat="-28.45242" lon="-65.71714">
        <ele>550.7</ele>
        <time>2018-08-18T11:53:11Z</time>
      </trkpt>
      <trkpt lat="-28.45246" lon="-65.717065">
        <ele>549.3</ele>
        <time>2018-08-18T11:53:13Z</time>
      </trkpt>
      <trkpt lat="-28.4525" lon="-65.71698333333333">
        <ele>548.8</ele>
        <time>2018-08-18T11:53:15Z</time>
      </trkpt>
      <trkpt lat="-28.452565" lon="-65.71688">
        <ele>548.8</ele>
        <time>2018-08-18T11:53:18Z</time>
      </trkpt>
      <trkpt lat="-28.45262" lon="-65.71679">
        <ele>547.8</ele>
        <time>2018-08-18T11:53:20Z</time>
      </trkpt>
      <trkpt lat="-28.452675" lon="-65.7167">
        <ele>546.7</ele>
        <time>2018-08-18T11:53:22Z</time>
      </trkpt>
      <trkpt lat="-28.45271" lon="-65.716615">
        <ele>546.7</ele>
        <time>2018-08-18T11:53:24Z</time>
      </trkpt>
      <trkpt lat="-28.45276" lon="-65.71653333333333">
        <ele>547.5</ele>
        <time>2018-08-18T11:53:26Z</time>
      </trkpt>
      <trkpt lat="-28.452805" lon="-65.716455">
        <ele>548.0</ele>
        <time>2018-08-18T11:53:28Z</time>
      </trkpt>
      <trkpt lat="-28.452855" lon="-65.71635166666667">
        <ele>548.0</ele>
        <time>2018-08-18T11:53:30Z</time>
      </trkpt>
      <trkpt lat="-28.452915" lon="-65.71626">
        <ele>547.8</ele>
        <time>2018-08-18T11:53:32Z</time>
      </trkpt>
      <trkpt lat="-28.45297" lon="-65.716175">
        <ele>546.6</ele>
        <time>2018-08-18T11:53:34Z</time>
      </trkpt>
      <trkpt lat="-28.45303" lon="-65.71608">
        <ele>546.3</ele>
        <time>2018-08-18T11:53:36Z</time>
      </trkpt>
      <trkpt lat="-28.45308" lon="-65.715995">
        <ele>546.5</ele>
        <time>2018-08-18T11:53:38Z</time>
      </trkpt>
      <trkpt lat="-28.453125" lon="-65.71592">
        <ele>545.7</ele>
        <time>2018-08-18T11:53:40Z</time>
      </trkpt>
      <trkpt lat="-28.45317" lon="-65.715835">
        <ele>545.7</ele>
        <time>2018-08-18T11:53:42Z</time>
      </trkpt>
      <trkpt lat="-28.45322" lon="-65.71575">
        <ele>545.8</ele>
        <time>2018-08-18T11:53:44Z</time>
      </trkpt>
      <trkpt lat="-28.45327" lon="-65.71566">
        <ele>545.8</ele>
        <time>2018-08-18T11:53:46Z</time>
      </trkpt>
      <trkpt lat="-28.453315" lon="-65.71558">
        <ele>544.6</ele>
        <time>2018-08-18T11:53:48Z</time>
      </trkpt>
      <trkpt lat="-28.453365" lon="-65.71550333333333">
        <ele>544.7</ele>
        <time>2018-08-18T11:53:50Z</time>
      </trkpt>
      <trkpt lat="-28.453415" lon="-65.715435">
        <ele>545.4</ele>
        <time>2018-08-18T11:53:52Z</time>
      </trkpt>
      <trkpt lat="-28.45347" lon="-65.715345">
        <ele>545.8</ele>
        <time>2018-08-18T11:53:54Z</time>
      </trkpt>
      <trkpt lat="-28.45353" lon="-65.715255">
        <ele>546.4</ele>
        <time>2018-08-18T11:53:56Z</time>
      </trkpt>
      <trkpt lat="-28.453575" lon="-65.71516">
        <ele>547.2</ele>
        <time>2018-08-18T11:53:58Z</time>
      </trkpt>
      <trkpt lat="-28.45363" lon="-65.715075">
        <ele>547.6</ele>
        <time>2018-08-18T11:54:00Z</time>
      </trkpt>
      <trkpt lat="-28.453685" lon="-65.71499">
        <ele>547.1</ele>
        <time>2018-08-18T11:54:02Z</time>
      </trkpt>
      <trkpt lat="-28.45373" lon="-65.71491">
        <ele>546.4</ele>
        <time>2018-08-18T11:54:04Z</time>
      </trkpt>
      <trkpt lat="-28.453765" lon="-65.71483">
        <ele>546.5</ele>
        <time>2018-08-18T11:54:06Z</time>
      </trkpt>
      <trkpt lat="-28.453825" lon="-65.71474">
        <ele>547.3</ele>
        <time>2018-08-18T11:54:08Z</time>
      </trkpt>
      <trkpt lat="-28.453875" lon="-65.714645">
        <ele>548.0</ele>
        <time>2018-08-18T11:54:10Z</time>
      </trkpt>
      <trkpt lat="-28.45393" lon="-65.71456666666667">
        <ele>548.5</ele>
        <time>2018-08-18T11:54:12Z</time>
      </trkpt>
      <trkpt lat="-28.453975" lon="-65.7145">
        <ele>548.7</ele>
        <time>2018-08-18T11:54:14Z</time>
      </trkpt>
      <trkpt lat="-28.454025" lon="-65.71442">
        <ele>548.8</ele>
        <time>2018-08-18T11:54:16Z</time>
      </trkpt>
      <trkpt lat="-28.454075" lon="-65.71433">
        <ele>548.4</ele>
        <time>2018-08-18T11:54:18Z</time>
      </trkpt>
      <trkpt lat="-28.45411" lon="-65.71425">
        <ele>548.0</ele>
        <time>2018-08-18T11:54:20Z</time>
      </trkpt>
      <trkpt lat="-28.454145" lon="-65.71416333333333">
        <ele>548.2</ele>
        <time>2018-08-18T11:54:22Z</time>
      </trkpt>
      <trkpt lat="-28.454205" lon="-65.71407166666667">
        <ele>548.2</ele>
        <time>2018-08-18T11:54:25Z</time>
      </trkpt>
      <trkpt lat="-28.45425" lon="-65.714">
        <ele>548.2</ele>
        <time>2018-08-18T11:54:27Z</time>
      </trkpt>
      <trkpt lat="-28.454295" lon="-65.71392">
        <ele>548.1</ele>
        <time>2018-08-18T11:54:29Z</time>
      </trkpt>
      <trkpt lat="-28.454335" lon="-65.713845">
        <ele>548.9</ele>
        <time>2018-08-18T11:54:31Z</time>
      </trkpt>
      <trkpt lat="-28.45438" lon="-65.71378">
        <ele>549.9</ele>
        <time>2018-08-18T11:54:33Z</time>
      </trkpt>
      <trkpt lat="-28.45442" lon="-65.713695">
        <ele>550.5</ele>
        <time>2018-08-18T11:54:35Z</time>
      </trkpt>
      <trkpt lat="-28.454465" lon="-65.71362">
        <ele>550.9</ele>
        <time>2018-08-18T11:54:37Z</time>
      </trkpt>
      <trkpt lat="-28.45451" lon="-65.713545">
        <ele>551.4</ele>
        <time>2018-08-18T11:54:39Z</time>
      </trkpt>
      <trkpt lat="-28.45457" lon="-65.71346">
        <ele>551.0</ele>
        <time>2018-08-18T11:54:41Z</time>
      </trkpt>
      <trkpt lat="-28.454635" lon="-65.71335166666667">
        <ele>551.4</ele>
        <time>2018-08-18T11:54:43Z</time>
      </trkpt>
      <trkpt lat="-28.45468" lon="-65.713285">
        <ele>551.6</ele>
        <time>2018-08-18T11:54:45Z</time>
      </trkpt>
      <trkpt lat="-28.454725" lon="-65.713205">
        <ele>551.2</ele>
        <time>2018-08-18T11:54:47Z</time>
      </trkpt>
      <trkpt lat="-28.45478" lon="-65.713115">
        <ele>550.8</ele>
        <time>2018-08-18T11:54:49Z</time>
      </trkpt>
      <trkpt lat="-28.454835" lon="-65.71303">
        <ele>550.6</ele>
        <time>2018-08-18T11:54:51Z</time>
      </trkpt>
      <trkpt lat="-28.454885" lon="-65.712925">
        <ele>550.6</ele>
        <time>2018-08-18T11:54:53Z</time>
      </trkpt>
      <trkpt lat="-28.454935" lon="-65.71284">
        <ele>550.2</ele>
        <time>2018-08-18T11:54:55Z</time>
      </trkpt>
      <trkpt lat="-28.454995" lon="-65.71274">
        <ele>550.6</ele>
        <time>2018-08-18T11:54:57Z</time>
      </trkpt>
      <trkpt lat="-28.45505" lon="-65.71263">
        <ele>550.0</ele>
        <time>2018-08-18T11:54:59Z</time>
      </trkpt>
      <trkpt lat="-28.455115" lon="-65.712535">
        <ele>548.9</ele>
        <time>2018-08-18T11:55:01Z</time>
      </trkpt>
      <trkpt lat="-28.455165" lon="-65.712445">
        <ele>547.6</ele>
        <time>2018-08-18T11:55:03Z</time>
      </trkpt>
      <trkpt lat="-28.455205" lon="-65.712365">
        <ele>546.5</ele>
        <time>2018-08-18T11:55:05Z</time>
      </trkpt>
      <trkpt lat="-28.45525" lon="-65.71228166666667">
        <ele>545.6</ele>
        <time>2018-08-18T11:55:07Z</time>
      </trkpt>
      <trkpt lat="-28.4553" lon="-65.712205">
        <ele>544.9</ele>
        <time>2018-08-18T11:55:09Z</time>
      </trkpt>
      <trkpt lat="-28.45535" lon="-65.71212">
        <ele>544.7</ele>
        <time>2018-08-18T11:55:11Z</time>
      </trkpt>
      <trkpt lat="-28.455405" lon="-65.71201333333333">
        <ele>544.4</ele>
        <time>2018-08-18T11:55:13Z</time>
      </trkpt>
      <trkpt lat="-28.455465" lon="-65.71192166666667">
        <ele>543.8</ele>
        <time>2018-08-18T11:55:15Z</time>
      </trkpt>
      <trkpt lat="-28.45551" lon="-65.711855">
        <ele>542.9</ele>
        <time>2018-08-18T11:55:17Z</time>
      </trkpt>
      <trkpt lat="-28.45557" lon="-65.71177">
        <ele>542.5</ele>
        <time>2018-08-18T11:55:19Z</time>
      </trkpt>
      <trkpt lat="-28.45562" lon="-65.71167">
        <ele>543.2</ele>
        <time>2018-08-18T11:55:21Z</time>
      </trkpt>
      <trkpt lat="-28.45568" lon="-65.711575">
        <ele>543.6</ele>
        <time>2018-08-18T11:55:23Z</time>
      </trkpt>
      <trkpt lat="-28.455735" lon="-65.711475">
        <ele>544.2</ele>
        <time>2018-08-18T11:55:25Z</time>
      </trkpt>
      <trkpt lat="-28.45579" lon="-65.71138166666667">
        <ele>544.6</ele>
        <time>2018-08-18T11:55:27Z</time>
      </trkpt>
      <trkpt lat="-28.45585" lon="-65.711285">
        <ele>544.7</ele>
        <time>2018-08-18T11:55:29Z</time>
      </trkpt>
      <trkpt lat="-28.455905" lon="-65.711195">
        <ele>544.8</ele>
        <time>2018-08-18T11:55:31Z</time>
      </trkpt>
      <trkpt lat="-28.45596" lon="-65.7111">
        <ele>544.8</ele>
        <time>2018-08-18T11:55:33Z</time>
      </trkpt>
      <trkpt lat="-28.45602" lon="-65.711005">
        <ele>545.1</ele>
        <time>2018-08-18T11:55:35Z</time>
      </trkpt>
      <trkpt lat="-28.456075" lon="-65.71091">
        <ele>545.7</ele>
        <time>2018-08-18T11:55:37Z</time>
      </trkpt>
      <trkpt lat="-28.456125" lon="-65.710825">
        <ele>546.3</ele>
        <time>2018-08-18T11:55:39Z</time>
      </trkpt>
      <trkpt lat="-28.45618" lon="-65.71074">
        <ele>547.2</ele>
        <time>2018-08-18T11:55:41Z</time>
      </trkpt>
      <trkpt lat="-28.456225" lon="-65.710655">
        <ele>547.9</ele>
        <time>2018-08-18T11:55:43Z</time>
      </trkpt>
      <trkpt lat="-28.45628" lon="-65.710565">
        <ele>548.9</ele>
        <time>2018-08-18T11:55:45Z</time>
      </trkpt>
      <trkpt lat="-28.45634" lon="-65.71047">
        <ele>549.3</ele>
        <time>2018-08-18T11:55:47Z</time>
      </trkpt>
      <trkpt lat="-28.45639" lon="-65.710375">
        <ele>548.4</ele>
        <time>2018-08-18T11:55:49Z</time>
      </trkpt>
      <trkpt lat="-28.45645" lon="-65.71029">
        <ele>546.5</ele>
        <time>2018-08-18T11:55:51Z</time>
      </trkpt>
      <trkpt lat="-28.456495" lon="-65.710195">
        <ele>545.0</ele>
        <time>2018-08-18T11:55:53Z</time>
      </trkpt>
      <trkpt lat="-28.456545" lon="-65.710115">
        <ele>544.3</ele>
        <time>2018-08-18T11:55:55Z</time>
      </trkpt>
      <trkpt lat="-28.45659" lon="-65.71003">
        <ele>544.3</ele>
        <time>2018-08-18T11:55:57Z</time>
      </trkpt>
      <trkpt lat="-28.45666" lon="-65.7099">
        <ele>544.0</ele>
        <time>2018-08-18T11:56:00Z</time>
      </trkpt>
      <trkpt lat="-28.45671" lon="-65.709805">
        <ele>543.5</ele>
        <time>2018-08-18T11:56:02Z</time>
      </trkpt>
      <trkpt lat="-28.45675" lon="-65.70972">
        <ele>543.3</ele>
        <time>2018-08-18T11:56:04Z</time>
      </trkpt>
      <trkpt lat="-28.456795" lon="-65.709635">
        <ele>543.1</ele>
        <time>2018-08-18T11:56:06Z</time>
      </trkpt>
      <trkpt lat="-28.45686" lon="-65.70954333333333">
        <ele>543.3</ele>
        <time>2018-08-18T11:56:08Z</time>
      </trkpt>
      <trkpt lat="-28.45691" lon="-65.709475">
        <ele>543.2</ele>
        <time>2018-08-18T11:56:10Z</time>
      </trkpt>
      <trkpt lat="-28.45698" lon="-65.709375">
        <ele>543.4</ele>
        <time>2018-08-18T11:56:12Z</time>
      </trkpt>
      <trkpt lat="-28.45704" lon="-65.709325">
        <ele>542.7</ele>
        <time>2018-08-18T11:56:14Z</time>
      </trkpt>
      <trkpt lat="-28.45701" lon="-65.70941">
        <ele>542.3</ele>
        <time>2018-08-18T11:56:17Z</time>
      </trkpt>
      <trkpt lat="-28.45696" lon="-65.709305">
        <ele>541.8</ele>
        <time>2018-08-18T11:56:19Z</time>
      </trkpt>
      <trkpt lat="-28.457015" lon="-65.70914">
        <ele>543.1</ele>
        <time>2018-08-18T11:56:20Z</time>
      </trkpt>
      <trkpt lat="-28.45709" lon="-65.709055">
        <ele>543.8</ele>
        <time>2018-08-18T11:56:21Z</time>
      </trkpt>
      <trkpt lat="-28.457138333333333" lon="-65.70899">
        <ele>543.8</ele>
        <time>2018-08-18T11:56:22Z</time>
      </trkpt>
      <trkpt lat="-28.45723" lon="-65.708865">
        <ele>542.9</ele>
        <time>2018-08-18T11:56:24Z</time>
      </trkpt>
      <trkpt lat="-28.45731" lon="-65.70873666666667">
        <ele>543.1</ele>
        <time>2018-08-18T11:56:26Z</time>
      </trkpt>
      <trkpt lat="-28.457365" lon="-65.70864">
        <ele>544.6</ele>
        <time>2018-08-18T11:56:28Z</time>
      </trkpt>
      <trkpt lat="-28.457435" lon="-65.70854">
        <ele>545.8</ele>
        <time>2018-08-18T11:56:30Z</time>
      </trkpt>
      <trkpt lat="-28.45748" lon="-65.708455">
        <ele>544.8</ele>
        <time>2018-08-18T11:56:32Z</time>
      </trkpt>
      <trkpt lat="-28.457535" lon="-65.708365">
        <ele>543.9</ele>
        <time>2018-08-18T11:56:34Z</time>
      </trkpt>
      <trkpt lat="-28.4576" lon="-65.708285">
        <ele>544.3</ele>
        <time>2018-08-18T11:56:36Z</time>
      </trkpt>
      <trkpt lat="-28.45767" lon="-65.70818">
        <ele>545.5</ele>
        <time>2018-08-18T11:56:38Z</time>
      </trkpt>
      <trkpt lat="-28.45773" lon="-65.708085">
        <ele>546.5</ele>
        <time>2018-08-18T11:56:40Z</time>
      </trkpt>
      <trkpt lat="-28.45778" lon="-65.70797666666667">
        <ele>547.3</ele>
        <time>2018-08-18T11:56:42Z</time>
      </trkpt>
      <trkpt lat="-28.45785" lon="-65.70788">
        <ele>547.1</ele>
        <time>2018-08-18T11:56:44Z</time>
      </trkpt>
      <trkpt lat="-28.45791" lon="-65.707785">
        <ele>547.1</ele>
        <time>2018-08-18T11:56:46Z</time>
      </trkpt>
      <trkpt lat="-28.45797" lon="-65.707685">
        <ele>547.2</ele>
        <time>2018-08-18T11:56:48Z</time>
      </trkpt>
      <trkpt lat="-28.458025" lon="-65.70758166666667">
        <ele>547.0</ele>
        <time>2018-08-18T11:56:50Z</time>
      </trkpt>
      <trkpt lat="-28.45808" lon="-65.70749166666667">
        <ele>546.9</ele>
        <time>2018-08-18T11:56:52Z</time>
      </trkpt>
      <trkpt lat="-28.458135" lon="-65.707405">
        <ele>546.5</ele>
        <time>2018-08-18T11:56:54Z</time>
      </trkpt>
      <trkpt lat="-28.45819" lon="-65.70733">
        <ele>546.1</ele>
        <time>2018-08-18T11:56:56Z</time>
      </trkpt>
      <trkpt lat="-28.45824" lon="-65.707245">
        <ele>545.8</ele>
        <time>2018-08-18T11:56:58Z</time>
      </trkpt>
      <trkpt lat="-28.458295" lon="-65.70715">
        <ele>545.5</ele>
        <time>2018-08-18T11:57:00Z</time>
      </trkpt>
      <trkpt lat="-28.458345" lon="-65.707065">
        <ele>545.3</ele>
        <time>2018-08-18T11:57:02Z</time>
      </trkpt>
      <trkpt lat="-28.458395" lon="-65.70698">
        <ele>545.0</ele>
        <time>2018-08-18T11:57:04Z</time>
      </trkpt>
      <trkpt lat="-28.458445" lon="-65.706905">
        <ele>544.5</ele>
        <time>2018-08-18T11:57:06Z</time>
      </trkpt>
      <trkpt lat="-28.4585" lon="-65.70680666666667">
        <ele>543.9</ele>
        <time>2018-08-18T11:57:08Z</time>
      </trkpt>
      <trkpt lat="-28.45855" lon="-65.70672">
        <ele>543.5</ele>
        <time>2018-08-18T11:57:10Z</time>
      </trkpt>
      <trkpt lat="-28.4586" lon="-65.706635">
        <ele>543.3</ele>
        <time>2018-08-18T11:57:12Z</time>
      </trkpt>
      <trkpt lat="-28.45865" lon="-65.70654166666667">
        <ele>543.6</ele>
        <time>2018-08-18T11:57:14Z</time>
      </trkpt>
      <trkpt lat="-28.4587" lon="-65.706455">
        <ele>543.8</ele>
        <time>2018-08-18T11:57:16Z</time>
      </trkpt>
      <trkpt lat="-28.458745" lon="-65.70637">
        <ele>544.7</ele>
        <time>2018-08-18T11:57:18Z</time>
      </trkpt>
      <trkpt lat="-28.4588" lon="-65.70628">
        <ele>545.2</ele>
        <time>2018-08-18T11:57:20Z</time>
      </trkpt>
      <trkpt lat="-28.458845" lon="-65.70619166666667">
        <ele>545.6</ele>
        <time>2018-08-18T11:57:22Z</time>
      </trkpt>
      <trkpt lat="-28.4589" lon="-65.7061">
        <ele>545.5</ele>
        <time>2018-08-18T11:57:24Z</time>
      </trkpt>
      <trkpt lat="-28.458955" lon="-65.706005">
        <ele>544.8</ele>
        <time>2018-08-18T11:57:26Z</time>
      </trkpt>
      <trkpt lat="-28.459" lon="-65.70592">
        <ele>544.8</ele>
        <time>2018-08-18T11:57:28Z</time>
      </trkpt>
      <trkpt lat="-28.459055" lon="-65.705845">
        <ele>545.5</ele>
        <time>2018-08-18T11:57:30Z</time>
      </trkpt>
      <trkpt lat="-28.4591" lon="-65.705775">
        <ele>546.3</ele>
        <time>2018-08-18T11:57:32Z</time>
      </trkpt>
      <trkpt lat="-28.459145" lon="-65.705685">
        <ele>546.4</ele>
        <time>2018-08-18T11:57:34Z</time>
      </trkpt>
      <trkpt lat="-28.4592" lon="-65.7056">
        <ele>545.5</ele>
        <time>2018-08-18T11:57:36Z</time>
      </trkpt>
      <trkpt lat="-28.45924" lon="-65.70551">
        <ele>545.1</ele>
        <time>2018-08-18T11:57:38Z</time>
      </trkpt>
      <trkpt lat="-28.45929" lon="-65.705425">
        <ele>544.6</ele>
        <time>2018-08-18T11:57:40Z</time>
      </trkpt>
      <trkpt lat="-28.459335" lon="-65.70534">
        <ele>544.2</ele>
        <time>2018-08-18T11:57:42Z</time>
      </trkpt>
      <trkpt lat="-28.45937" lon="-65.70524666666667">
        <ele>543.4</ele>
        <time>2018-08-18T11:57:44Z</time>
      </trkpt>
      <trkpt lat="-28.45943" lon="-65.70516166666667">
        <ele>543.3</ele>
        <time>2018-08-18T11:57:47Z</time>
      </trkpt>
      <trkpt lat="-28.459485" lon="-65.705085">
        <ele>543.9</ele>
        <time>2018-08-18T11:57:48Z</time>
      </trkpt>
      <trkpt lat="-28.459545" lon="-65.70501">
        <ele>544.4</ele>
        <time>2018-08-18T11:57:50Z</time>
      </trkpt>
      <trkpt lat="-28.459595" lon="-65.704925">
        <ele>544.7</ele>
        <time>2018-08-18T11:57:52Z</time>
      </trkpt>
      <trkpt lat="-28.45965" lon="-65.70483333333334">
        <ele>544.9</ele>
        <time>2018-08-18T11:57:54Z</time>
      </trkpt>
      <trkpt lat="-28.459655" lon="-65.704485">
        <ele>542.5</ele>
        <time>2018-08-18T11:58:01Z</time>
      </trkpt>
      <trkpt lat="-28.45979" lon="-65.70448666666667">
        <ele>543.4</ele>
        <time>2018-08-18T11:58:03Z</time>
      </trkpt>
      <trkpt lat="-28.459855" lon="-65.70444833333333">
        <ele>543.7</ele>
        <time>2018-08-18T11:58:05Z</time>
      </trkpt>
      <trkpt lat="-28.459865" lon="-65.704375">
        <ele>543.6</ele>
        <time>2018-08-18T11:58:08Z</time>
      </trkpt>
      <trkpt lat="-28.45994" lon="-65.70434">
        <ele>543.1</ele>
        <time>2018-08-18T11:58:11Z</time>
      </trkpt>
      <trkpt lat="-28.459985" lon="-65.704195">
        <ele>538.5</ele>
        <time>2018-08-18T11:58:13Z</time>
      </trkpt>
      <trkpt lat="-28.46008" lon="-65.70408">
        <ele>534.9</ele>
        <time>2018-08-18T11:58:15Z</time>
      </trkpt>
      <trkpt lat="-28.46014" lon="-65.704035">
        <ele>534.7</ele>
        <time>2018-08-18T11:58:16Z</time>
      </trkpt>
      <trkpt lat="-28.460205" lon="-65.70399">
        <ele>535.5</ele>
        <time>2018-08-18T11:58:17Z</time>
      </trkpt>
      <trkpt lat="-28.460315" lon="-65.703905">
        <ele>537.1</ele>
        <time>2018-08-18T11:58:19Z</time>
      </trkpt>
      <trkpt lat="-28.4604" lon="-65.703835">
        <ele>538.6</ele>
        <time>2018-08-18T11:58:21Z</time>
      </trkpt>
      <trkpt lat="-28.460465" lon="-65.70376">
        <ele>540.6</ele>
        <time>2018-08-18T11:58:23Z</time>
      </trkpt>
      <trkpt lat="-28.46053" lon="-65.70368666666667">
        <ele>542.1</ele>
        <time>2018-08-18T11:58:25Z</time>
      </trkpt>
      <trkpt lat="-28.460605" lon="-65.70361">
        <ele>543.6</ele>
        <time>2018-08-18T11:58:27Z</time>
      </trkpt>
      <trkpt lat="-28.46068" lon="-65.703525">
        <ele>544.6</ele>
        <time>2018-08-18T11:58:29Z</time>
      </trkpt>
      <trkpt lat="-28.460745" lon="-65.70345">
        <ele>545.1</ele>
        <time>2018-08-18T11:58:31Z</time>
      </trkpt>
      <trkpt lat="-28.460815" lon="-65.703385">
        <ele>546.1</ele>
        <time>2018-08-18T11:58:33Z</time>
      </trkpt>
      <trkpt lat="-28.46088" lon="-65.703315">
        <ele>547.5</ele>
        <time>2018-08-18T11:58:35Z</time>
      </trkpt>
      <trkpt lat="-28.460945" lon="-65.70324">
        <ele>548.9</ele>
        <time>2018-08-18T11:58:37Z</time>
      </trkpt>
      <trkpt lat="-28.461015" lon="-65.70317">
        <ele>549.2</ele>
        <time>2018-08-18T11:58:39Z</time>
      </trkpt>
      <trkpt lat="-28.461075" lon="-65.703115">
        <ele>549.2</ele>
        <time>2018-08-18T11:58:41Z</time>
      </trkpt>
      <trkpt lat="-28.461135" lon="-65.70305">
        <ele>549.0</ele>
        <time>2018-08-18T11:58:43Z</time>
      </trkpt>
      <trkpt lat="-28.461195" lon="-65.70297333333333">
        <ele>548.3</ele>
        <time>2018-08-18T11:58:45Z</time>
      </trkpt>
      <trkpt lat="-28.46126" lon="-65.702905">
        <ele>548.1</ele>
        <time>2018-08-18T11:58:47Z</time>
      </trkpt>
      <trkpt lat="-28.461315" lon="-65.702825">
        <ele>547.2</ele>
        <time>2018-08-18T11:58:49Z</time>
      </trkpt>
      <trkpt lat="-28.46138" lon="-65.702765">
        <ele>545.9</ele>
        <time>2018-08-18T11:58:51Z</time>
      </trkpt>
      <trkpt lat="-28.461445" lon="-65.702695">
        <ele>544.9</ele>
        <time>2018-08-18T11:58:53Z</time>
      </trkpt>
      <trkpt lat="-28.461505" lon="-65.70263">
        <ele>544.1</ele>
        <time>2018-08-18T11:58:55Z</time>
      </trkpt>
      <trkpt lat="-28.46157" lon="-65.702555">
        <ele>543.6</ele>
        <time>2018-08-18T11:58:57Z</time>
      </trkpt>
      <trkpt lat="-28.461635" lon="-65.70248">
        <ele>543.3</ele>
        <time>2018-08-18T11:58:59Z</time>
      </trkpt>
      <trkpt lat="-28.461705" lon="-65.70241">
        <ele>543.2</ele>
        <time>2018-08-18T11:59:01Z</time>
      </trkpt>
      <trkpt lat="-28.461765" lon="-65.70233166666667">
        <ele>543.2</ele>
        <time>2018-08-18T11:59:03Z</time>
      </trkpt>
      <trkpt lat="-28.461835" lon="-65.70225666666667">
        <ele>543.2</ele>
        <time>2018-08-18T11:59:05Z</time>
      </trkpt>
      <trkpt lat="-28.4619" lon="-65.702185">
        <ele>543.2</ele>
        <time>2018-08-18T11:59:07Z</time>
      </trkpt>
      <trkpt lat="-28.461965" lon="-65.70211166666667">
        <ele>543.4</ele>
        <time>2018-08-18T11:59:09Z</time>
      </trkpt>
      <trkpt lat="-28.462025" lon="-65.70203333333333">
        <ele>543.9</ele>
        <time>2018-08-18T11:59:11Z</time>
      </trkpt>
      <trkpt lat="-28.46209" lon="-65.70196">
        <ele>544.3</ele>
        <time>2018-08-18T11:59:13Z</time>
      </trkpt>
      <trkpt lat="-28.46216" lon="-65.70188166666667">
        <ele>544.5</ele>
        <time>2018-08-18T11:59:15Z</time>
      </trkpt>
      <trkpt lat="-28.462225" lon="-65.70180666666667">
        <ele>544.5</ele>
        <time>2018-08-18T11:59:17Z</time>
      </trkpt>
      <trkpt lat="-28.46229" lon="-65.701735">
        <ele>544.4</ele>
        <time>2018-08-18T11:59:19Z</time>
      </trkpt>
      <trkpt lat="-28.462365" lon="-65.70166">
        <ele>544.3</ele>
        <time>2018-08-18T11:59:21Z</time>
      </trkpt>
      <trkpt lat="-28.46243" lon="-65.70157666666667">
        <ele>544.1</ele>
        <time>2018-08-18T11:59:23Z</time>
      </trkpt>
      <trkpt lat="-28.4625" lon="-65.70151">
        <ele>544.0</ele>
        <time>2018-08-18T11:59:25Z</time>
      </trkpt>
      <trkpt lat="-28.46256" lon="-65.701435">
        <ele>544.0</ele>
        <time>2018-08-18T11:59:27Z</time>
      </trkpt>
      <trkpt lat="-28.46263" lon="-65.70134666666667">
        <ele>544.0</ele>
        <time>2018-08-18T11:59:29Z</time>
      </trkpt>
      <trkpt lat="-28.462705" lon="-65.70127">
        <ele>544.3</ele>
        <time>2018-08-18T11:59:31Z</time>
      </trkpt>
      <trkpt lat="-28.46277" lon="-65.7012">
        <ele>545.0</ele>
        <time>2018-08-18T11:59:33Z</time>
      </trkpt>
      <trkpt lat="-28.46282" lon="-65.70113333333333">
        <ele>545.5</ele>
        <time>2018-08-18T11:59:35Z</time>
      </trkpt>
      <trkpt lat="-28.462895" lon="-65.701075">
        <ele>545.6</ele>
        <time>2018-08-18T11:59:37Z</time>
      </trkpt>
      <trkpt lat="-28.462955" lon="-65.70099666666667">
        <ele>545.6</ele>
        <time>2018-08-18T11:59:39Z</time>
      </trkpt>
      <trkpt lat="-28.46302" lon="-65.70093">
        <ele>545.3</ele>
        <time>2018-08-18T11:59:41Z</time>
      </trkpt>
      <trkpt lat="-28.463085" lon="-65.700855">
        <ele>545.2</ele>
        <time>2018-08-18T11:59:43Z</time>
      </trkpt>
      <trkpt lat="-28.46316" lon="-65.70077166666667">
        <ele>545.2</ele>
        <time>2018-08-18T11:59:45Z</time>
      </trkpt>
      <trkpt lat="-28.46323" lon="-65.700705">
        <ele>545.2</ele>
        <time>2018-08-18T11:59:47Z</time>
      </trkpt>
      <trkpt lat="-28.463295" lon="-65.70063">
        <ele>545.3</ele>
        <time>2018-08-18T11:59:49Z</time>
      </trkpt>
      <trkpt lat="-28.463365" lon="-65.70054666666667">
        <ele>545.4</ele>
        <time>2018-08-18T11:59:51Z</time>
      </trkpt>
      <trkpt lat="-28.463425" lon="-65.700485">
        <ele>545.5</ele>
        <time>2018-08-18T11:59:53Z</time>
      </trkpt>
      <trkpt lat="-28.4635" lon="-65.700405">
        <ele>545.6</ele>
        <time>2018-08-18T11:59:55Z</time>
      </trkpt>
      <trkpt lat="-28.463565" lon="-65.70032">
        <ele>545.6</ele>
        <time>2018-08-18T11:59:57Z</time>
      </trkpt>
      <trkpt lat="-28.463625" lon="-65.70023666666667">
        <ele>545.2</ele>
        <time>2018-08-18T11:59:59Z</time>
      </trkpt>
      <trkpt lat="-28.46369" lon="-65.70017">
        <ele>545.1</ele>
        <time>2018-08-18T12:00:01Z</time>
      </trkpt>
      <trkpt lat="-28.46375" lon="-65.700095">
        <ele>545.2</ele>
        <time>2018-08-18T12:00:03Z</time>
      </trkpt>
      <trkpt lat="-28.4638" lon="-65.70004">
        <ele>544.7</ele>
        <time>2018-08-18T12:00:05Z</time>
      </trkpt>
      <trkpt lat="-28.463855" lon="-65.69996833333333">
        <ele>544.1</ele>
        <time>2018-08-18T12:00:07Z</time>
      </trkpt>
      <trkpt lat="-28.46391" lon="-65.69990666666666">
        <ele>544.0</ele>
        <time>2018-08-18T12:00:09Z</time>
      </trkpt>
      <trkpt lat="-28.46396" lon="-65.69986">
        <ele>544.1</ele>
        <time>2018-08-18T12:00:11Z</time>
      </trkpt>
      <trkpt lat="-28.46402" lon="-65.69978833333333">
        <ele>544.1</ele>
        <time>2018-08-18T12:00:13Z</time>
      </trkpt>
      <trkpt lat="-28.46409" lon="-65.699725">
        <ele>543.7</ele>
        <time>2018-08-18T12:00:15Z</time>
      </trkpt>
      <trkpt lat="-28.464145" lon="-65.699655">
        <ele>543.6</ele>
        <time>2018-08-18T12:00:17Z</time>
      </trkpt>
      <trkpt lat="-28.4642" lon="-65.6996">
        <ele>543.9</ele>
        <time>2018-08-18T12:00:19Z</time>
      </trkpt>
      <trkpt lat="-28.464255" lon="-65.69954">
        <ele>544.2</ele>
        <time>2018-08-18T12:00:21Z</time>
      </trkpt>
      <trkpt lat="-28.464315" lon="-65.699475">
        <ele>544.7</ele>
        <time>2018-08-18T12:00:23Z</time>
      </trkpt>
      <trkpt lat="-28.464375" lon="-65.69941">
        <ele>544.9</ele>
        <time>2018-08-18T12:00:25Z</time>
      </trkpt>
      <trkpt lat="-28.464435" lon="-65.699335">
        <ele>545.4</ele>
        <time>2018-08-18T12:00:27Z</time>
      </trkpt>
      <trkpt lat="-28.464495" lon="-65.69928">
        <ele>545.9</ele>
        <time>2018-08-18T12:00:29Z</time>
      </trkpt>
      <trkpt lat="-28.464555" lon="-65.699205">
        <ele>546.3</ele>
        <time>2018-08-18T12:00:31Z</time>
      </trkpt>
      <trkpt lat="-28.464625" lon="-65.699145">
        <ele>546.3</ele>
        <time>2018-08-18T12:00:33Z</time>
      </trkpt>
      <trkpt lat="-28.464685" lon="-65.699065">
        <ele>546.2</ele>
        <time>2018-08-18T12:00:35Z</time>
      </trkpt>
      <trkpt lat="-28.464755" lon="-65.698995">
        <ele>546.3</ele>
        <time>2018-08-18T12:00:37Z</time>
      </trkpt>
      <trkpt lat="-28.46482" lon="-65.69892">
        <ele>546.4</ele>
        <time>2018-08-18T12:00:39Z</time>
      </trkpt>
      <trkpt lat="-28.46489" lon="-65.698845">
        <ele>546.4</ele>
        <time>2018-08-18T12:00:41Z</time>
      </trkpt>
      <trkpt lat="-28.464955" lon="-65.69878">
        <ele>546.5</ele>
        <time>2018-08-18T12:00:43Z</time>
      </trkpt>
      <trkpt lat="-28.46501" lon="-65.698705">
        <ele>546.3</ele>
        <time>2018-08-18T12:00:45Z</time>
      </trkpt>
      <trkpt lat="-28.465065" lon="-65.69862833333333">
        <ele>546.0</ele>
        <time>2018-08-18T12:00:47Z</time>
      </trkpt>
      <trkpt lat="-28.46513" lon="-65.698565">
        <ele>545.7</ele>
        <time>2018-08-18T12:00:49Z</time>
      </trkpt>
      <trkpt lat="-28.465185" lon="-65.69849166666667">
        <ele>545.7</ele>
        <time>2018-08-18T12:00:51Z</time>
      </trkpt>
      <trkpt lat="-28.465245" lon="-65.698425">
        <ele>545.5</ele>
        <time>2018-08-18T12:00:53Z</time>
      </trkpt>
      <trkpt lat="-28.46532" lon="-65.69835">
        <ele>545.3</ele>
        <time>2018-08-18T12:00:55Z</time>
      </trkpt>
      <trkpt lat="-28.46538" lon="-65.698285">
        <ele>545.4</ele>
        <time>2018-08-18T12:00:57Z</time>
      </trkpt>
      <trkpt lat="-28.465435" lon="-65.69822">
        <ele>546.1</ele>
        <time>2018-08-18T12:00:59Z</time>
      </trkpt>
      <trkpt lat="-28.46549" lon="-65.698155">
        <ele>546.9</ele>
        <time>2018-08-18T12:01:01Z</time>
      </trkpt>
      <trkpt lat="-28.46555" lon="-65.69808">
        <ele>547.3</ele>
        <time>2018-08-18T12:01:03Z</time>
      </trkpt>
      <trkpt lat="-28.46562" lon="-65.69801">
        <ele>546.7</ele>
        <time>2018-08-18T12:01:05Z</time>
      </trkpt>
      <trkpt lat="-28.46568" lon="-65.697935">
        <ele>546.6</ele>
        <time>2018-08-18T12:01:07Z</time>
      </trkpt>
      <trkpt lat="-28.465735" lon="-65.69786666666667">
        <ele>546.4</ele>
        <time>2018-08-18T12:01:09Z</time>
      </trkpt>
      <trkpt lat="-28.465795" lon="-65.697805">
        <ele>546.6</ele>
        <time>2018-08-18T12:01:11Z</time>
      </trkpt>
      <trkpt lat="-28.46585" lon="-65.69773166666667">
        <ele>547.2</ele>
        <time>2018-08-18T12:01:13Z</time>
      </trkpt>
      <trkpt lat="-28.465915" lon="-65.697675">
        <ele>546.9</ele>
        <time>2018-08-18T12:01:15Z</time>
      </trkpt>
      <trkpt lat="-28.465975" lon="-65.697615">
        <ele>546.3</ele>
        <time>2018-08-18T12:01:17Z</time>
      </trkpt>
      <trkpt lat="-28.46604" lon="-65.697535">
        <ele>546.8</ele>
        <time>2018-08-18T12:01:19Z</time>
      </trkpt>
      <trkpt lat="-28.4661" lon="-65.69746">
        <ele>547.5</ele>
        <time>2018-08-18T12:01:21Z</time>
      </trkpt>
      <trkpt lat="-28.466155" lon="-65.6974">
        <ele>548.4</ele>
        <time>2018-08-18T12:01:23Z</time>
      </trkpt>
      <trkpt lat="-28.466215" lon="-65.69733166666667">
        <ele>548.8</ele>
        <time>2018-08-18T12:01:25Z</time>
      </trkpt>
      <trkpt lat="-28.466275" lon="-65.69728">
        <ele>549.0</ele>
        <time>2018-08-18T12:01:27Z</time>
      </trkpt>
      <trkpt lat="-28.466325" lon="-65.697225">
        <ele>548.5</ele>
        <time>2018-08-18T12:01:29Z</time>
      </trkpt>
      <trkpt lat="-28.46638" lon="-65.69716">
        <ele>547.6</ele>
        <time>2018-08-18T12:01:31Z</time>
      </trkpt>
      <trkpt lat="-28.466445" lon="-65.697095">
        <ele>546.9</ele>
        <time>2018-08-18T12:01:33Z</time>
      </trkpt>
      <trkpt lat="-28.46651" lon="-65.697035">
        <ele>546.6</ele>
        <time>2018-08-18T12:01:35Z</time>
      </trkpt>
      <trkpt lat="-28.466585" lon="-65.69698">
        <ele>546.7</ele>
        <time>2018-08-18T12:01:37Z</time>
      </trkpt>
      <trkpt lat="-28.466655" lon="-65.696935">
        <ele>546.8</ele>
        <time>2018-08-18T12:01:39Z</time>
      </trkpt>
      <trkpt lat="-28.466735" lon="-65.696895">
        <ele>547.1</ele>
        <time>2018-08-18T12:01:41Z</time>
      </trkpt>
      <trkpt lat="-28.466825" lon="-65.696865">
        <ele>547.3</ele>
        <time>2018-08-18T12:01:43Z</time>
      </trkpt>
      <trkpt lat="-28.4669" lon="-65.69683">
        <ele>547.3</ele>
        <time>2018-08-18T12:01:45Z</time>
      </trkpt>
      <trkpt lat="-28.466975" lon="-65.696795">
        <ele>547.0</ele>
        <time>2018-08-18T12:01:47Z</time>
      </trkpt>
      <trkpt lat="-28.467055" lon="-65.696765">
        <ele>546.8</ele>
        <time>2018-08-18T12:01:49Z</time>
      </trkpt>
      <trkpt lat="-28.467135" lon="-65.69672">
        <ele>546.6</ele>
        <time>2018-08-18T12:01:51Z</time>
      </trkpt>
      <trkpt lat="-28.46721" lon="-65.69667">
        <ele>546.3</ele>
        <time>2018-08-18T12:01:53Z</time>
      </trkpt>
      <trkpt lat="-28.46729" lon="-65.696605">
        <ele>546.3</ele>
        <time>2018-08-18T12:01:55Z</time>
      </trkpt>
      <trkpt lat="-28.46736" lon="-65.69654">
        <ele>546.4</ele>
        <time>2018-08-18T12:01:57Z</time>
      </trkpt>
      <trkpt lat="-28.467415" lon="-65.696465">
        <ele>546.8</ele>
        <time>2018-08-18T12:01:59Z</time>
      </trkpt>
      <trkpt lat="-28.467475" lon="-65.696375">
        <ele>547.2</ele>
        <time>2018-08-18T12:02:01Z</time>
      </trkpt>
      <trkpt lat="-28.46752" lon="-65.696285">
        <ele>547.6</ele>
        <time>2018-08-18T12:02:03Z</time>
      </trkpt>
      <trkpt lat="-28.467575" lon="-65.69618">
        <ele>547.9</ele>
        <time>2018-08-18T12:02:05Z</time>
      </trkpt>
      <trkpt lat="-28.467625" lon="-65.69609">
        <ele>548.3</ele>
        <time>2018-08-18T12:02:07Z</time>
      </trkpt>
      <trkpt lat="-28.46767" lon="-65.695995">
        <ele>548.5</ele>
        <time>2018-08-18T12:02:09Z</time>
      </trkpt>
      <trkpt lat="-28.467705" lon="-65.69589833333333">
        <ele>548.7</ele>
        <time>2018-08-18T12:02:11Z</time>
      </trkpt>
      <trkpt lat="-28.467745" lon="-65.69581">
        <ele>548.5</ele>
        <time>2018-08-18T12:02:13Z</time>
      </trkpt>
      <trkpt lat="-28.46778" lon="-65.69573">
        <ele>548.2</ele>
        <time>2018-08-18T12:02:15Z</time>
      </trkpt>
      <trkpt lat="-28.46783" lon="-65.69564">
        <ele>548.0</ele>
        <time>2018-08-18T12:02:17Z</time>
      </trkpt>
      <trkpt lat="-28.46789" lon="-65.69556">
        <ele>548.0</ele>
        <time>2018-08-18T12:02:19Z</time>
      </trkpt>
      <trkpt lat="-28.467945" lon="-65.69548">
        <ele>548.3</ele>
        <time>2018-08-18T12:02:21Z</time>
      </trkpt>
      <trkpt lat="-28.468" lon="-65.695395">
        <ele>548.6</ele>
        <time>2018-08-18T12:02:23Z</time>
      </trkpt>
      <trkpt lat="-28.468055" lon="-65.69531666666667">
        <ele>548.7</ele>
        <time>2018-08-18T12:02:25Z</time>
      </trkpt>
      <trkpt lat="-28.468115" lon="-65.69525">
        <ele>548.9</ele>
        <time>2018-08-18T12:02:27Z</time>
      </trkpt>
      <trkpt lat="-28.468175" lon="-65.69517">
        <ele>549.2</ele>
        <time>2018-08-18T12:02:29Z</time>
      </trkpt>
      <trkpt lat="-28.468235" lon="-65.695085">
        <ele>549.6</ele>
        <time>2018-08-18T12:02:31Z</time>
      </trkpt>
      <trkpt lat="-28.46831" lon="-65.69501">
        <ele>549.8</ele>
        <time>2018-08-18T12:02:33Z</time>
      </trkpt>
      <trkpt lat="-28.46838" lon="-65.694925">
        <ele>550.2</ele>
        <time>2018-08-18T12:02:35Z</time>
      </trkpt>
      <trkpt lat="-28.468435" lon="-65.69486">
        <ele>550.0</ele>
        <time>2018-08-18T12:02:37Z</time>
      </trkpt>
      <trkpt lat="-28.4685" lon="-65.6948">
        <ele>550.2</ele>
        <time>2018-08-18T12:02:39Z</time>
      </trkpt>
      <trkpt lat="-28.468565" lon="-65.69472">
        <ele>549.4</ele>
        <time>2018-08-18T12:02:41Z</time>
      </trkpt>
      <trkpt lat="-28.46864" lon="-65.694655">
        <ele>548.6</ele>
        <time>2018-08-18T12:02:43Z</time>
      </trkpt>
      <trkpt lat="-28.468695" lon="-65.694585">
        <ele>548.1</ele>
        <time>2018-08-18T12:02:45Z</time>
      </trkpt>
      <trkpt lat="-28.46876" lon="-65.694525">
        <ele>548.3</ele>
        <time>2018-08-18T12:02:47Z</time>
      </trkpt>
      <trkpt lat="-28.468815" lon="-65.69445166666667">
        <ele>549.2</ele>
        <time>2018-08-18T12:02:49Z</time>
      </trkpt>
      <trkpt lat="-28.468875" lon="-65.69439">
        <ele>549.8</ele>
        <time>2018-08-18T12:02:51Z</time>
      </trkpt>
      <trkpt lat="-28.468935" lon="-65.694325">
        <ele>549.8</ele>
        <time>2018-08-18T12:02:53Z</time>
      </trkpt>
      <trkpt lat="-28.468995" lon="-65.69426">
        <ele>549.5</ele>
        <time>2018-08-18T12:02:55Z</time>
      </trkpt>
      <trkpt lat="-28.469055" lon="-65.694185">
        <ele>549.2</ele>
        <time>2018-08-18T12:02:57Z</time>
      </trkpt>
      <trkpt lat="-28.46911" lon="-65.69412">
        <ele>548.9</ele>
        <time>2018-08-18T12:02:59Z</time>
      </trkpt>
      <trkpt lat="-28.469175" lon="-65.694045">
        <ele>548.7</ele>
        <time>2018-08-18T12:03:01Z</time>
      </trkpt>
      <trkpt lat="-28.46924" lon="-65.69397">
        <ele>548.2</ele>
        <time>2018-08-18T12:03:03Z</time>
      </trkpt>
      <trkpt lat="-28.4693" lon="-65.693915">
        <ele>547.7</ele>
        <time>2018-08-18T12:03:05Z</time>
      </trkpt>
      <trkpt lat="-28.46936" lon="-65.69384">
        <ele>547.5</ele>
        <time>2018-08-18T12:03:07Z</time>
      </trkpt>
      <trkpt lat="-28.46942" lon="-65.69377">
        <ele>547.5</ele>
        <time>2018-08-18T12:03:09Z</time>
      </trkpt>
      <trkpt lat="-28.46948" lon="-65.6937">
        <ele>547.9</ele>
        <time>2018-08-18T12:03:11Z</time>
      </trkpt>
      <trkpt lat="-28.46954" lon="-65.693645">
        <ele>548.1</ele>
        <time>2018-08-18T12:03:13Z</time>
      </trkpt>
      <trkpt lat="-28.4696" lon="-65.69356666666667">
        <ele>548.4</ele>
        <time>2018-08-18T12:03:15Z</time>
      </trkpt>
      <trkpt lat="-28.469665" lon="-65.69351">
        <ele>548.6</ele>
        <time>2018-08-18T12:03:17Z</time>
      </trkpt>
      <trkpt lat="-28.469715" lon="-65.69343166666667">
        <ele>549.1</ele>
        <time>2018-08-18T12:03:19Z</time>
      </trkpt>
      <trkpt lat="-28.469785" lon="-65.69337">
        <ele>549.3</ele>
        <time>2018-08-18T12:03:21Z</time>
      </trkpt>
      <trkpt lat="-28.469845" lon="-65.693295">
        <ele>549.0</ele>
        <time>2018-08-18T12:03:23Z</time>
      </trkpt>
      <trkpt lat="-28.469905" lon="-65.693225">
        <ele>548.9</ele>
        <time>2018-08-18T12:03:25Z</time>
      </trkpt>
      <trkpt lat="-28.46997" lon="-65.69315">
        <ele>549.0</ele>
        <time>2018-08-18T12:03:27Z</time>
      </trkpt>
      <trkpt lat="-28.470035" lon="-65.69307">
        <ele>549.2</ele>
        <time>2018-08-18T12:03:29Z</time>
      </trkpt>
      <trkpt lat="-28.470095" lon="-65.69301">
        <ele>549.8</ele>
        <time>2018-08-18T12:03:31Z</time>
      </trkpt>
      <trkpt lat="-28.47016" lon="-65.69293">
        <ele>550.1</ele>
        <time>2018-08-18T12:03:33Z</time>
      </trkpt>
      <trkpt lat="-28.470225" lon="-65.69287">
        <ele>550.3</ele>
        <time>2018-08-18T12:03:35Z</time>
      </trkpt>
      <trkpt lat="-28.470285" lon="-65.692805">
        <ele>550.5</ele>
        <time>2018-08-18T12:03:37Z</time>
      </trkpt>
      <trkpt lat="-28.470345000000002" lon="-65.69273">
        <ele>550.6</ele>
        <time>2018-08-18T12:03:39Z</time>
      </trkpt>
      <trkpt lat="-28.470405" lon="-65.692665">
        <ele>550.4</ele>
        <time>2018-08-18T12:03:41Z</time>
      </trkpt>
      <trkpt lat="-28.470465" lon="-65.69258666666667">
        <ele>550.3</ele>
        <time>2018-08-18T12:03:43Z</time>
      </trkpt>
      <trkpt lat="-28.470525" lon="-65.692525">
        <ele>550.3</ele>
        <time>2018-08-18T12:03:45Z</time>
      </trkpt>
      <trkpt lat="-28.470579999999998" lon="-65.69246">
        <ele>550.4</ele>
        <time>2018-08-18T12:03:47Z</time>
      </trkpt>
      <trkpt lat="-28.47063" lon="-65.692395">
        <ele>550.5</ele>
        <time>2018-08-18T12:03:49Z</time>
      </trkpt>
      <trkpt lat="-28.470695" lon="-65.692325">
        <ele>550.7</ele>
        <time>2018-08-18T12:03:51Z</time>
      </trkpt>
      <trkpt lat="-28.47075" lon="-65.69225">
        <ele>551.0</ele>
        <time>2018-08-18T12:03:53Z</time>
      </trkpt>
      <trkpt lat="-28.470795" lon="-65.69218333333333">
        <ele>551.0</ele>
        <time>2018-08-18T12:03:55Z</time>
      </trkpt>
      <trkpt lat="-28.470865" lon="-65.6921">
        <ele>551.1</ele>
        <time>2018-08-18T12:03:58Z</time>
      </trkpt>
      <trkpt lat="-28.47092" lon="-65.69202833333334">
        <ele>551.3</ele>
        <time>2018-08-18T12:04:00Z</time>
      </trkpt>
      <trkpt lat="-28.470975" lon="-65.69197">
        <ele>551.5</ele>
        <time>2018-08-18T12:04:02Z</time>
      </trkpt>
      <trkpt lat="-28.471035" lon="-65.691905">
        <ele>551.7</ele>
        <time>2018-08-18T12:04:04Z</time>
      </trkpt>
      <trkpt lat="-28.471095" lon="-65.691845">
        <ele>551.8</ele>
        <time>2018-08-18T12:04:06Z</time>
      </trkpt>
      <trkpt lat="-28.471155" lon="-65.691775">
        <ele>551.9</ele>
        <time>2018-08-18T12:04:08Z</time>
      </trkpt>
      <trkpt lat="-28.47121" lon="-65.691715">
        <ele>551.9</ele>
        <time>2018-08-18T12:04:10Z</time>
      </trkpt>
      <trkpt lat="-28.47127" lon="-65.69164333333333">
        <ele>552.0</ele>
        <time>2018-08-18T12:04:12Z</time>
      </trkpt>
      <trkpt lat="-28.471330000000002" lon="-65.691585">
        <ele>552.1</ele>
        <time>2018-08-18T12:04:14Z</time>
      </trkpt>
      <trkpt lat="-28.47139" lon="-65.69150666666667">
        <ele>552.1</ele>
        <time>2018-08-18T12:04:16Z</time>
      </trkpt>
      <trkpt lat="-28.47145" lon="-65.69145">
        <ele>552.1</ele>
        <time>2018-08-18T12:04:18Z</time>
      </trkpt>
      <trkpt lat="-28.471515" lon="-65.69137">
        <ele>552.1</ele>
        <time>2018-08-18T12:04:20Z</time>
      </trkpt>
      <trkpt lat="-28.47157" lon="-65.69131">
        <ele>552.1</ele>
        <time>2018-08-18T12:04:22Z</time>
      </trkpt>
      <trkpt lat="-28.471635" lon="-65.69123166666667">
        <ele>552.5</ele>
        <time>2018-08-18T12:04:24Z</time>
      </trkpt>
      <trkpt lat="-28.471695" lon="-65.69117">
        <ele>552.7</ele>
        <time>2018-08-18T12:04:26Z</time>
      </trkpt>
      <trkpt lat="-28.471755" lon="-65.6911">
        <ele>552.9</ele>
        <time>2018-08-18T12:04:28Z</time>
      </trkpt>
      <trkpt lat="-28.471815" lon="-65.69103">
        <ele>553.1</ele>
        <time>2018-08-18T12:04:30Z</time>
      </trkpt>
      <trkpt lat="-28.471875" lon="-65.69096">
        <ele>553.4</ele>
        <time>2018-08-18T12:04:32Z</time>
      </trkpt>
      <trkpt lat="-28.47194" lon="-65.69088333333333">
        <ele>553.6</ele>
        <time>2018-08-18T12:04:34Z</time>
      </trkpt>
      <trkpt lat="-28.472005" lon="-65.690815">
        <ele>553.6</ele>
        <time>2018-08-18T12:04:36Z</time>
      </trkpt>
      <trkpt lat="-28.472065" lon="-65.69074166666667">
        <ele>553.6</ele>
        <time>2018-08-18T12:04:38Z</time>
      </trkpt>
      <trkpt lat="-28.472135" lon="-65.690675">
        <ele>553.4</ele>
        <time>2018-08-18T12:04:40Z</time>
      </trkpt>
      <trkpt lat="-28.4722" lon="-65.6906">
        <ele>553.3</ele>
        <time>2018-08-18T12:04:42Z</time>
      </trkpt>
      <trkpt lat="-28.472265" lon="-65.69051833333333">
        <ele>553.1</ele>
        <time>2018-08-18T12:04:44Z</time>
      </trkpt>
      <trkpt lat="-28.47233" lon="-65.69045">
        <ele>553.1</ele>
        <time>2018-08-18T12:04:46Z</time>
      </trkpt>
      <trkpt lat="-28.472395" lon="-65.690375">
        <ele>553.1</ele>
        <time>2018-08-18T12:04:48Z</time>
      </trkpt>
      <trkpt lat="-28.472465" lon="-65.690295">
        <ele>553.0</ele>
        <time>2018-08-18T12:04:50Z</time>
      </trkpt>
      <trkpt lat="-28.47253" lon="-65.690225">
        <ele>553.0</ele>
        <time>2018-08-18T12:04:52Z</time>
      </trkpt>
      <trkpt lat="-28.4726" lon="-65.69015">
        <ele>553.0</ele>
        <time>2018-08-18T12:04:54Z</time>
      </trkpt>
      <trkpt lat="-28.472665" lon="-65.69006833333333">
        <ele>553.0</ele>
        <time>2018-08-18T12:04:56Z</time>
      </trkpt>
      <trkpt lat="-28.47273" lon="-65.69">
        <ele>553.0</ele>
        <time>2018-08-18T12:04:58Z</time>
      </trkpt>
      <trkpt lat="-28.4728" lon="-65.689925">
        <ele>553.0</ele>
        <time>2018-08-18T12:05:00Z</time>
      </trkpt>
      <trkpt lat="-28.47286" lon="-65.68985">
        <ele>553.0</ele>
        <time>2018-08-18T12:05:02Z</time>
      </trkpt>
      <trkpt lat="-28.472935" lon="-65.689775">
        <ele>553.0</ele>
        <time>2018-08-18T12:05:04Z</time>
      </trkpt>
      <trkpt lat="-28.473" lon="-65.6897">
        <ele>553.2</ele>
        <time>2018-08-18T12:05:06Z</time>
      </trkpt>
      <trkpt lat="-28.47307" lon="-65.689615">
        <ele>553.3</ele>
        <time>2018-08-18T12:05:08Z</time>
      </trkpt>
      <trkpt lat="-28.473135" lon="-65.68953666666667">
        <ele>553.3</ele>
        <time>2018-08-18T12:05:10Z</time>
      </trkpt>
      <trkpt lat="-28.473205" lon="-65.689465">
        <ele>553.5</ele>
        <time>2018-08-18T12:05:12Z</time>
      </trkpt>
      <trkpt lat="-28.47327" lon="-65.68939">
        <ele>553.8</ele>
        <time>2018-08-18T12:05:14Z</time>
      </trkpt>
      <trkpt lat="-28.47334" lon="-65.68931">
        <ele>554.0</ele>
        <time>2018-08-18T12:05:16Z</time>
      </trkpt>
      <trkpt lat="-28.47341" lon="-65.68924">
        <ele>554.3</ele>
        <time>2018-08-18T12:05:18Z</time>
      </trkpt>
      <trkpt lat="-28.47348" lon="-65.689165">
        <ele>554.5</ele>
        <time>2018-08-18T12:05:20Z</time>
      </trkpt>
      <trkpt lat="-28.47355" lon="-65.68907666666667">
        <ele>554.7</ele>
        <time>2018-08-18T12:05:22Z</time>
      </trkpt>
      <trkpt lat="-28.473615" lon="-65.68899833333333">
        <ele>554.8</ele>
        <time>2018-08-18T12:05:24Z</time>
      </trkpt>
      <trkpt lat="-28.473685" lon="-65.68893">
        <ele>555.0</ele>
        <time>2018-08-18T12:05:26Z</time>
      </trkpt>
      <trkpt lat="-28.47375" lon="-65.688855">
        <ele>555.0</ele>
        <time>2018-08-18T12:05:28Z</time>
      </trkpt>
      <trkpt lat="-28.47381" lon="-65.68877333333333">
        <ele>555.1</ele>
        <time>2018-08-18T12:05:30Z</time>
      </trkpt>
      <trkpt lat="-28.47388" lon="-65.688705">
        <ele>555.4</ele>
        <time>2018-08-18T12:05:32Z</time>
      </trkpt>
      <trkpt lat="-28.473945" lon="-65.68863">
        <ele>555.6</ele>
        <time>2018-08-18T12:05:34Z</time>
      </trkpt>
      <trkpt lat="-28.47401" lon="-65.68855">
        <ele>555.8</ele>
        <time>2018-08-18T12:05:36Z</time>
      </trkpt>
      <trkpt lat="-28.474071666666667" lon="-65.68848">
        <ele>555.8</ele>
        <time>2018-08-18T12:05:38Z</time>
      </trkpt>
      <trkpt lat="-28.474145" lon="-65.688405">
        <ele>555.8</ele>
        <time>2018-08-18T12:05:40Z</time>
      </trkpt>
      <trkpt lat="-28.474215" lon="-65.68832833333333">
        <ele>555.8</ele>
        <time>2018-08-18T12:05:42Z</time>
      </trkpt>
      <trkpt lat="-28.47428" lon="-65.688265">
        <ele>555.9</ele>
        <time>2018-08-18T12:05:44Z</time>
      </trkpt>
      <trkpt lat="-28.474345" lon="-65.68819">
        <ele>555.9</ele>
        <time>2018-08-18T12:05:46Z</time>
      </trkpt>
      <trkpt lat="-28.474405" lon="-65.68810833333333">
        <ele>556.0</ele>
        <time>2018-08-18T12:05:48Z</time>
      </trkpt>
      <trkpt lat="-28.474474999999998" lon="-65.688045">
        <ele>556.1</ele>
        <time>2018-08-18T12:05:50Z</time>
      </trkpt>
      <trkpt lat="-28.474535" lon="-65.687965">
        <ele>556.1</ele>
        <time>2018-08-18T12:05:52Z</time>
      </trkpt>
      <trkpt lat="-28.474605" lon="-65.6879">
        <ele>556.2</ele>
        <time>2018-08-18T12:05:54Z</time>
      </trkpt>
      <trkpt lat="-28.47467" lon="-65.687825">
        <ele>556.4</ele>
        <time>2018-08-18T12:05:56Z</time>
      </trkpt>
      <trkpt lat="-28.474735" lon="-65.68774166666667">
        <ele>556.6</ele>
        <time>2018-08-18T12:05:58Z</time>
      </trkpt>
      <trkpt lat="-28.474795" lon="-65.687675">
        <ele>556.8</ele>
        <time>2018-08-18T12:06:00Z</time>
      </trkpt>
      <trkpt lat="-28.474865" lon="-65.6876">
        <ele>556.9</ele>
        <time>2018-08-18T12:06:02Z</time>
      </trkpt>
      <trkpt lat="-28.47493" lon="-65.68751666666667">
        <ele>557.0</ele>
        <time>2018-08-18T12:06:04Z</time>
      </trkpt>
      <trkpt lat="-28.474995" lon="-65.687455">
        <ele>557.5</ele>
        <time>2018-08-18T12:06:06Z</time>
      </trkpt>
      <trkpt lat="-28.475055" lon="-65.687375">
        <ele>557.7</ele>
        <time>2018-08-18T12:06:08Z</time>
      </trkpt>
      <trkpt lat="-28.475125" lon="-65.68729166666667">
        <ele>557.5</ele>
        <time>2018-08-18T12:06:10Z</time>
      </trkpt>
      <trkpt lat="-28.475195" lon="-65.687225">
        <ele>557.7</ele>
        <time>2018-08-18T12:06:12Z</time>
      </trkpt>
      <trkpt lat="-28.47526" lon="-65.68715">
        <ele>558.3</ele>
        <time>2018-08-18T12:06:14Z</time>
      </trkpt>
      <trkpt lat="-28.47533" lon="-65.687065">
        <ele>558.6</ele>
        <time>2018-08-18T12:06:16Z</time>
      </trkpt>
      <trkpt lat="-28.4754" lon="-65.687">
        <ele>558.5</ele>
        <time>2018-08-18T12:06:18Z</time>
      </trkpt>
      <trkpt lat="-28.475475" lon="-65.68692">
        <ele>557.9</ele>
        <time>2018-08-18T12:06:20Z</time>
      </trkpt>
      <trkpt lat="-28.475545" lon="-65.68684">
        <ele>557.4</ele>
        <time>2018-08-18T12:06:22Z</time>
      </trkpt>
      <trkpt lat="-28.475615" lon="-65.68675666666667">
        <ele>557.1</ele>
        <time>2018-08-18T12:06:24Z</time>
      </trkpt>
      <trkpt lat="-28.475675" lon="-65.686695">
        <ele>557.0</ele>
        <time>2018-08-18T12:06:26Z</time>
      </trkpt>
      <trkpt lat="-28.47574" lon="-65.686625">
        <ele>557.2</ele>
        <time>2018-08-18T12:06:28Z</time>
      </trkpt>
      <trkpt lat="-28.4758" lon="-65.68655">
        <ele>557.6</ele>
        <time>2018-08-18T12:06:30Z</time>
      </trkpt>
      <trkpt lat="-28.47585" lon="-65.686485">
        <ele>558.0</ele>
        <time>2018-08-18T12:06:32Z</time>
      </trkpt>
      <trkpt lat="-28.47592" lon="-65.686415">
        <ele>558.2</ele>
        <time>2018-08-18T12:06:34Z</time>
      </trkpt>
      <trkpt lat="-28.47598" lon="-65.68634">
        <ele>558.1</ele>
        <time>2018-08-18T12:06:36Z</time>
      </trkpt>
      <trkpt lat="-28.47604" lon="-65.68626833333333">
        <ele>558.8</ele>
        <time>2018-08-18T12:06:38Z</time>
      </trkpt>
      <trkpt lat="-28.4761" lon="-65.6862">
        <ele>559.6</ele>
        <time>2018-08-18T12:06:40Z</time>
      </trkpt>
      <trkpt lat="-28.47616" lon="-65.68613">
        <ele>559.7</ele>
        <time>2018-08-18T12:06:42Z</time>
      </trkpt>
      <trkpt lat="-28.47623" lon="-65.68606">
        <ele>559.5</ele>
        <time>2018-08-18T12:06:44Z</time>
      </trkpt>
      <trkpt lat="-28.47629" lon="-65.685995">
        <ele>559.4</ele>
        <time>2018-08-18T12:06:46Z</time>
      </trkpt>
      <trkpt lat="-28.47635" lon="-65.68591333333333">
        <ele>559.4</ele>
        <time>2018-08-18T12:06:48Z</time>
      </trkpt>
      <trkpt lat="-28.476415" lon="-65.685855">
        <ele>559.1</ele>
        <time>2018-08-18T12:06:50Z</time>
      </trkpt>
      <trkpt lat="-28.476485" lon="-65.68577166666667">
        <ele>558.8</ele>
        <time>2018-08-18T12:06:52Z</time>
      </trkpt>
      <trkpt lat="-28.47655" lon="-65.685705">
        <ele>558.4</ele>
        <time>2018-08-18T12:06:54Z</time>
      </trkpt>
      <trkpt lat="-28.47661" lon="-65.68563">
        <ele>558.5</ele>
        <time>2018-08-18T12:06:56Z</time>
      </trkpt>
      <trkpt lat="-28.47668" lon="-65.68555">
        <ele>558.7</ele>
        <time>2018-08-18T12:06:58Z</time>
      </trkpt>
      <trkpt lat="-28.47675" lon="-65.685485">
        <ele>558.9</ele>
        <time>2018-08-18T12:07:00Z</time>
      </trkpt>
      <trkpt lat="-28.476815" lon="-65.685405">
        <ele>559.2</ele>
        <time>2018-08-18T12:07:02Z</time>
      </trkpt>
      <trkpt lat="-28.476885" lon="-65.68532">
        <ele>559.3</ele>
        <time>2018-08-18T12:07:04Z</time>
      </trkpt>
      <trkpt lat="-28.47695" lon="-65.68526">
        <ele>559.5</ele>
        <time>2018-08-18T12:07:06Z</time>
      </trkpt>
      <trkpt lat="-28.47702" lon="-65.68518">
        <ele>560.1</ele>
        <time>2018-08-18T12:07:08Z</time>
      </trkpt>
      <trkpt lat="-28.477085" lon="-65.68509666666667">
        <ele>560.6</ele>
        <time>2018-08-18T12:07:10Z</time>
      </trkpt>
      <trkpt lat="-28.477145" lon="-65.68503">
        <ele>561.1</ele>
        <time>2018-08-18T12:07:12Z</time>
      </trkpt>
      <trkpt lat="-28.477215" lon="-65.684955">
        <ele>561.4</ele>
        <time>2018-08-18T12:07:14Z</time>
      </trkpt>
      <trkpt lat="-28.47728" lon="-65.68488">
        <ele>561.3</ele>
        <time>2018-08-18T12:07:16Z</time>
      </trkpt>
      <trkpt lat="-28.477335" lon="-65.68481">
        <ele>561.3</ele>
        <time>2018-08-18T12:07:18Z</time>
      </trkpt>
      <trkpt lat="-28.477405" lon="-65.68474">
        <ele>561.3</ele>
        <time>2018-08-18T12:07:20Z</time>
      </trkpt>
      <trkpt lat="-28.47747" lon="-65.68467">
        <ele>561.1</ele>
        <time>2018-08-18T12:07:22Z</time>
      </trkpt>
      <trkpt lat="-28.477535" lon="-65.684595">
        <ele>560.9</ele>
        <time>2018-08-18T12:07:24Z</time>
      </trkpt>
      <trkpt lat="-28.477595" lon="-65.68452333333333">
        <ele>560.9</ele>
        <time>2018-08-18T12:07:26Z</time>
      </trkpt>
      <trkpt lat="-28.47766" lon="-65.684465">
        <ele>561.0</ele>
        <time>2018-08-18T12:07:28Z</time>
      </trkpt>
      <trkpt lat="-28.477715" lon="-65.684385">
        <ele>561.1</ele>
        <time>2018-08-18T12:07:30Z</time>
      </trkpt>
      <trkpt lat="-28.477785" lon="-65.684325">
        <ele>561.1</ele>
        <time>2018-08-18T12:07:32Z</time>
      </trkpt>
      <trkpt lat="-28.47785" lon="-65.68425">
        <ele>561.0</ele>
        <time>2018-08-18T12:07:34Z</time>
      </trkpt>
      <trkpt lat="-28.477905" lon="-65.68417166666667">
        <ele>561.0</ele>
        <time>2018-08-18T12:07:36Z</time>
      </trkpt>
      <trkpt lat="-28.477975" lon="-65.68411">
        <ele>560.9</ele>
        <time>2018-08-18T12:07:38Z</time>
      </trkpt>
      <trkpt lat="-28.47804" lon="-65.68402666666667">
        <ele>561.1</ele>
        <time>2018-08-18T12:07:40Z</time>
      </trkpt>
      <trkpt lat="-28.478095" lon="-65.68397">
        <ele>561.3</ele>
        <time>2018-08-18T12:07:42Z</time>
      </trkpt>
      <trkpt lat="-28.47816" lon="-65.683895">
        <ele>561.5</ele>
        <time>2018-08-18T12:07:44Z</time>
      </trkpt>
      <trkpt lat="-28.47822" lon="-65.68383">
        <ele>561.5</ele>
        <time>2018-08-18T12:07:46Z</time>
      </trkpt>
      <trkpt lat="-28.478275" lon="-65.68375666666667">
        <ele>561.7</ele>
        <time>2018-08-18T12:07:48Z</time>
      </trkpt>
      <trkpt lat="-28.478335" lon="-65.683695">
        <ele>561.7</ele>
        <time>2018-08-18T12:07:50Z</time>
      </trkpt>
      <trkpt lat="-28.47839" lon="-65.683625">
        <ele>561.8</ele>
        <time>2018-08-18T12:07:52Z</time>
      </trkpt>
      <trkpt lat="-28.47845" lon="-65.68357">
        <ele>561.8</ele>
        <time>2018-08-18T12:07:54Z</time>
      </trkpt>
      <trkpt lat="-28.478505" lon="-65.68351">
        <ele>561.9</ele>
        <time>2018-08-18T12:07:56Z</time>
      </trkpt>
      <trkpt lat="-28.47856" lon="-65.683445">
        <ele>561.9</ele>
        <time>2018-08-18T12:07:58Z</time>
      </trkpt>
      <trkpt lat="-28.478615" lon="-65.683385">
        <ele>562.0</ele>
        <time>2018-08-18T12:08:00Z</time>
      </trkpt>
      <trkpt lat="-28.478665" lon="-65.68333">
        <ele>562.1</ele>
        <time>2018-08-18T12:08:02Z</time>
      </trkpt>
      <trkpt lat="-28.478715" lon="-65.683265">
        <ele>562.1</ele>
        <time>2018-08-18T12:08:04Z</time>
      </trkpt>
      <trkpt lat="-28.47877" lon="-65.683215">
        <ele>562.1</ele>
        <time>2018-08-18T12:08:06Z</time>
      </trkpt>
      <trkpt lat="-28.47883" lon="-65.68315">
        <ele>562.3</ele>
        <time>2018-08-18T12:08:09Z</time>
      </trkpt>
      <trkpt lat="-28.47889" lon="-65.68308">
        <ele>562.4</ele>
        <time>2018-08-18T12:08:11Z</time>
      </trkpt>
      <trkpt lat="-28.478955" lon="-65.68302">
        <ele>562.4</ele>
        <time>2018-08-18T12:08:13Z</time>
      </trkpt>
      <trkpt lat="-28.478996666666667" lon="-65.682955">
        <ele>562.4</ele>
        <time>2018-08-18T12:08:15Z</time>
      </trkpt>
      <trkpt lat="-28.479055" lon="-65.682895">
        <ele>562.6</ele>
        <time>2018-08-18T12:08:17Z</time>
      </trkpt>
      <trkpt lat="-28.479115" lon="-65.68281666666667">
        <ele>562.5</ele>
        <time>2018-08-18T12:08:19Z</time>
      </trkpt>
      <trkpt lat="-28.47918" lon="-65.682755">
        <ele>562.4</ele>
        <time>2018-08-18T12:08:21Z</time>
      </trkpt>
      <trkpt lat="-28.479245" lon="-65.682685">
        <ele>562.4</ele>
        <time>2018-08-18T12:08:23Z</time>
      </trkpt>
      <trkpt lat="-28.479305" lon="-65.682615">
        <ele>562.5</ele>
        <time>2018-08-18T12:08:25Z</time>
      </trkpt>
      <trkpt lat="-28.479375" lon="-65.68254">
        <ele>562.7</ele>
        <time>2018-08-18T12:08:27Z</time>
      </trkpt>
      <trkpt lat="-28.47944" lon="-65.68246">
        <ele>563.1</ele>
        <time>2018-08-18T12:08:29Z</time>
      </trkpt>
      <trkpt lat="-28.479505" lon="-65.68239">
        <ele>563.3</ele>
        <time>2018-08-18T12:08:31Z</time>
      </trkpt>
      <trkpt lat="-28.479565" lon="-65.68232">
        <ele>563.5</ele>
        <time>2018-08-18T12:08:33Z</time>
      </trkpt>
      <trkpt lat="-28.47963" lon="-65.68223833333333">
        <ele>563.8</ele>
        <time>2018-08-18T12:08:35Z</time>
      </trkpt>
      <trkpt lat="-28.479695" lon="-65.682175">
        <ele>564.1</ele>
        <time>2018-08-18T12:08:37Z</time>
      </trkpt>
      <trkpt lat="-28.479755" lon="-65.682095">
        <ele>564.2</ele>
        <time>2018-08-18T12:08:39Z</time>
      </trkpt>
      <trkpt lat="-28.47982" lon="-65.68202166666667">
        <ele>564.4</ele>
        <time>2018-08-18T12:08:41Z</time>
      </trkpt>
      <trkpt lat="-28.479875" lon="-65.68196">
        <ele>564.4</ele>
        <time>2018-08-18T12:08:43Z</time>
      </trkpt>
      <trkpt lat="-28.479945" lon="-65.68188166666667">
        <ele>564.4</ele>
        <time>2018-08-18T12:08:45Z</time>
      </trkpt>
      <trkpt lat="-28.48001" lon="-65.68182">
        <ele>564.3</ele>
        <time>2018-08-18T12:08:47Z</time>
      </trkpt>
      <trkpt lat="-28.480075" lon="-65.681745">
        <ele>564.2</ele>
        <time>2018-08-18T12:08:49Z</time>
      </trkpt>
      <trkpt lat="-28.480135" lon="-65.68168">
        <ele>564.2</ele>
        <time>2018-08-18T12:08:51Z</time>
      </trkpt>
      <trkpt lat="-28.480195" lon="-65.681605">
        <ele>564.2</ele>
        <time>2018-08-18T12:08:53Z</time>
      </trkpt>
      <trkpt lat="-28.480255" lon="-65.68154">
        <ele>564.2</ele>
        <time>2018-08-18T12:08:55Z</time>
      </trkpt>
      <trkpt lat="-28.480315" lon="-65.681465">
        <ele>564.3</ele>
        <time>2018-08-18T12:08:57Z</time>
      </trkpt>
      <trkpt lat="-28.480375" lon="-65.6814">
        <ele>564.4</ele>
        <time>2018-08-18T12:08:59Z</time>
      </trkpt>
      <trkpt lat="-28.480435" lon="-65.681335">
        <ele>564.3</ele>
        <time>2018-08-18T12:09:01Z</time>
      </trkpt>
      <trkpt lat="-28.4805" lon="-65.68125833333333">
        <ele>564.5</ele>
        <time>2018-08-18T12:09:03Z</time>
      </trkpt>
      <trkpt lat="-28.480565" lon="-65.68119">
        <ele>564.5</ele>
        <time>2018-08-18T12:09:05Z</time>
      </trkpt>
      <trkpt lat="-28.480625" lon="-65.68111666666667">
        <ele>564.5</ele>
        <time>2018-08-18T12:09:07Z</time>
      </trkpt>
      <trkpt lat="-28.48068" lon="-65.68106">
        <ele>564.4</ele>
        <time>2018-08-18T12:09:09Z</time>
      </trkpt>
      <trkpt lat="-28.480735" lon="-65.68098833333333">
        <ele>564.5</ele>
        <time>2018-08-18T12:09:11Z</time>
      </trkpt>
      <trkpt lat="-28.48079" lon="-65.68094">
        <ele>564.6</ele>
        <time>2018-08-18T12:09:13Z</time>
      </trkpt>
      <trkpt lat="-28.48084" lon="-65.68088">
        <ele>564.7</ele>
        <time>2018-08-18T12:09:15Z</time>
      </trkpt>
      <trkpt lat="-28.480895" lon="-65.68080833333333">
        <ele>564.8</ele>
        <time>2018-08-18T12:09:17Z</time>
      </trkpt>
      <trkpt lat="-28.48095" lon="-65.68075">
        <ele>564.9</ele>
        <time>2018-08-18T12:09:19Z</time>
      </trkpt>
      <trkpt lat="-28.481005" lon="-65.680685">
        <ele>565.0</ele>
        <time>2018-08-18T12:09:21Z</time>
      </trkpt>
      <trkpt lat="-28.481065" lon="-65.68062">
        <ele>565.1</ele>
        <time>2018-08-18T12:09:23Z</time>
      </trkpt>
      <trkpt lat="-28.48112" lon="-65.680565">
        <ele>565.2</ele>
        <time>2018-08-18T12:09:25Z</time>
      </trkpt>
      <trkpt lat="-28.48118" lon="-65.68049">
        <ele>565.4</ele>
        <time>2018-08-18T12:09:27Z</time>
      </trkpt>
      <trkpt lat="-28.481235" lon="-65.68043">
        <ele>565.5</ele>
        <time>2018-08-18T12:09:29Z</time>
      </trkpt>
      <trkpt lat="-28.48129" lon="-65.680375">
        <ele>565.6</ele>
        <time>2018-08-18T12:09:31Z</time>
      </trkpt>
      <trkpt lat="-28.481345" lon="-65.68031">
        <ele>565.7</ele>
        <time>2018-08-18T12:09:33Z</time>
      </trkpt>
      <trkpt lat="-28.481405" lon="-65.680245">
        <ele>565.8</ele>
        <time>2018-08-18T12:09:35Z</time>
      </trkpt>
      <trkpt lat="-28.48146" lon="-65.68018000000001">
        <ele>566.0</ele>
        <time>2018-08-18T12:09:37Z</time>
      </trkpt>
      <trkpt lat="-28.48152" lon="-65.680115">
        <ele>566.1</ele>
        <time>2018-08-18T12:09:39Z</time>
      </trkpt>
      <trkpt lat="-28.481575" lon="-65.680045">
        <ele>566.2</ele>
        <time>2018-08-18T12:09:41Z</time>
      </trkpt>
      <trkpt lat="-28.481635" lon="-65.67999">
        <ele>566.3</ele>
        <time>2018-08-18T12:09:43Z</time>
      </trkpt>
      <trkpt lat="-28.48169" lon="-65.679925">
        <ele>566.5</ele>
        <time>2018-08-18T12:09:45Z</time>
      </trkpt>
      <trkpt lat="-28.481745" lon="-65.67986">
        <ele>566.6</ele>
        <time>2018-08-18T12:09:47Z</time>
      </trkpt>
      <trkpt lat="-28.4818" lon="-65.679795">
        <ele>566.7</ele>
        <time>2018-08-18T12:09:49Z</time>
      </trkpt>
      <trkpt lat="-28.481865" lon="-65.67973">
        <ele>566.8</ele>
        <time>2018-08-18T12:09:51Z</time>
      </trkpt>
      <trkpt lat="-28.481915" lon="-65.67966">
        <ele>566.9</ele>
        <time>2018-08-18T12:09:53Z</time>
      </trkpt>
      <trkpt lat="-28.48198" lon="-65.67959">
        <ele>567.0</ele>
        <time>2018-08-18T12:09:55Z</time>
      </trkpt>
      <trkpt lat="-28.482035" lon="-65.67953">
        <ele>567.2</ele>
        <time>2018-08-18T12:09:57Z</time>
      </trkpt>
      <trkpt lat="-28.4821" lon="-65.67945166666667">
        <ele>567.3</ele>
        <time>2018-08-18T12:09:59Z</time>
      </trkpt>
      <trkpt lat="-28.48216" lon="-65.67939">
        <ele>567.4</ele>
        <time>2018-08-18T12:10:01Z</time>
      </trkpt>
      <trkpt lat="-28.48222" lon="-65.679325">
        <ele>567.4</ele>
        <time>2018-08-18T12:10:03Z</time>
      </trkpt>
      <trkpt lat="-28.482275" lon="-65.679265">
        <ele>567.5</ele>
        <time>2018-08-18T12:10:05Z</time>
      </trkpt>
      <trkpt lat="-28.48233" lon="-65.67919">
        <ele>567.6</ele>
        <time>2018-08-18T12:10:07Z</time>
      </trkpt>
      <trkpt lat="-28.48238" lon="-65.67914">
        <ele>567.7</ele>
        <time>2018-08-18T12:10:09Z</time>
      </trkpt>
      <trkpt lat="-28.48244" lon="-65.67906666666667">
        <ele>567.8</ele>
        <time>2018-08-18T12:10:11Z</time>
      </trkpt>
      <trkpt lat="-28.4825" lon="-65.679015">
        <ele>567.9</ele>
        <time>2018-08-18T12:10:13Z</time>
      </trkpt>
      <trkpt lat="-28.482555" lon="-65.67895">
        <ele>568.1</ele>
        <time>2018-08-18T12:10:15Z</time>
      </trkpt>
      <trkpt lat="-28.482605" lon="-65.67887666666667">
        <ele>568.2</ele>
        <time>2018-08-18T12:10:17Z</time>
      </trkpt>
      <trkpt lat="-28.482665" lon="-65.678825">
        <ele>568.3</ele>
        <time>2018-08-18T12:10:19Z</time>
      </trkpt>
      <trkpt lat="-28.48272" lon="-65.67876">
        <ele>568.5</ele>
        <time>2018-08-18T12:10:21Z</time>
      </trkpt>
      <trkpt lat="-28.482779999999998" lon="-65.678685">
        <ele>568.6</ele>
        <time>2018-08-18T12:10:23Z</time>
      </trkpt>
      <trkpt lat="-28.48283" lon="-65.67863">
        <ele>568.7</ele>
        <time>2018-08-18T12:10:25Z</time>
      </trkpt>
      <trkpt lat="-28.482895" lon="-65.678565">
        <ele>568.8</ele>
        <time>2018-08-18T12:10:27Z</time>
      </trkpt>
      <trkpt lat="-28.482938333333333" lon="-65.67851">
        <ele>568.9</ele>
        <time>2018-08-18T12:10:29Z</time>
      </trkpt>
      <trkpt lat="-28.483005" lon="-65.678445">
        <ele>568.9</ele>
        <time>2018-08-18T12:10:31Z</time>
      </trkpt>
      <trkpt lat="-28.483055" lon="-65.67838">
        <ele>569.0</ele>
        <time>2018-08-18T12:10:33Z</time>
      </trkpt>
      <trkpt lat="-28.483115" lon="-65.67832">
        <ele>569.1</ele>
        <time>2018-08-18T12:10:35Z</time>
      </trkpt>
      <trkpt lat="-28.483165" lon="-65.67825500000001">
        <ele>569.3</ele>
        <time>2018-08-18T12:10:37Z</time>
      </trkpt>
      <trkpt lat="-28.483225" lon="-65.67819">
        <ele>569.4</ele>
        <time>2018-08-18T12:10:39Z</time>
      </trkpt>
      <trkpt lat="-28.48328" lon="-65.67811666666667">
        <ele>569.4</ele>
        <time>2018-08-18T12:10:41Z</time>
      </trkpt>
      <trkpt lat="-28.48334" lon="-65.678065">
        <ele>569.4</ele>
        <time>2018-08-18T12:10:43Z</time>
      </trkpt>
      <trkpt lat="-28.48339" lon="-65.678">
        <ele>569.4</ele>
        <time>2018-08-18T12:10:45Z</time>
      </trkpt>
      <trkpt lat="-28.483455" lon="-65.67793">
        <ele>569.5</ele>
        <time>2018-08-18T12:10:47Z</time>
      </trkpt>
      <trkpt lat="-28.483505" lon="-65.67787">
        <ele>569.6</ele>
        <time>2018-08-18T12:10:49Z</time>
      </trkpt>
      <trkpt lat="-28.483565" lon="-65.677805">
        <ele>569.6</ele>
        <time>2018-08-18T12:10:51Z</time>
      </trkpt>
      <trkpt lat="-28.48362" lon="-65.67774">
        <ele>569.7</ele>
        <time>2018-08-18T12:10:53Z</time>
      </trkpt>
      <trkpt lat="-28.483675" lon="-65.67766666666667">
        <ele>569.8</ele>
        <time>2018-08-18T12:10:55Z</time>
      </trkpt>
      <trkpt lat="-28.483735" lon="-65.677615">
        <ele>569.8</ele>
        <time>2018-08-18T12:10:57Z</time>
      </trkpt>
      <trkpt lat="-28.483795" lon="-65.67755">
        <ele>569.9</ele>
        <time>2018-08-18T12:10:59Z</time>
      </trkpt>
      <trkpt lat="-28.48385" lon="-65.677475">
        <ele>570.0</ele>
        <time>2018-08-18T12:11:01Z</time>
      </trkpt>
      <trkpt lat="-28.48391" lon="-65.67740833333333">
        <ele>570.3</ele>
        <time>2018-08-18T12:11:03Z</time>
      </trkpt>
      <trkpt lat="-28.48397" lon="-65.67735">
        <ele>570.6</ele>
        <time>2018-08-18T12:11:05Z</time>
      </trkpt>
      <trkpt lat="-28.48403" lon="-65.67727166666667">
        <ele>570.4</ele>
        <time>2018-08-18T12:11:07Z</time>
      </trkpt>
      <trkpt lat="-28.48409" lon="-65.677215">
        <ele>570.5</ele>
        <time>2018-08-18T12:11:09Z</time>
      </trkpt>
      <trkpt lat="-28.48415" lon="-65.67715">
        <ele>570.4</ele>
        <time>2018-08-18T12:11:11Z</time>
      </trkpt>
      <trkpt lat="-28.48421" lon="-65.67708">
        <ele>570.5</ele>
        <time>2018-08-18T12:11:13Z</time>
      </trkpt>
      <trkpt lat="-28.484265" lon="-65.677015">
        <ele>570.6</ele>
        <time>2018-08-18T12:11:15Z</time>
      </trkpt>
      <trkpt lat="-28.484325" lon="-65.676945">
        <ele>570.7</ele>
        <time>2018-08-18T12:11:17Z</time>
      </trkpt>
      <trkpt lat="-28.484375" lon="-65.676885">
        <ele>570.9</ele>
        <time>2018-08-18T12:11:19Z</time>
      </trkpt>
      <trkpt lat="-28.484435" lon="-65.67681">
        <ele>571.0</ele>
        <time>2018-08-18T12:11:21Z</time>
      </trkpt>
      <trkpt lat="-28.484485" lon="-65.676745">
        <ele>571.2</ele>
        <time>2018-08-18T12:11:23Z</time>
      </trkpt>
      <trkpt lat="-28.48454" lon="-65.67668">
        <ele>571.3</ele>
        <time>2018-08-18T12:11:25Z</time>
      </trkpt>
      <trkpt lat="-28.4846" lon="-65.67659833333333">
        <ele>571.4</ele>
        <time>2018-08-18T12:11:27Z</time>
      </trkpt>
      <trkpt lat="-28.484655" lon="-65.676535">
        <ele>571.5</ele>
        <time>2018-08-18T12:11:29Z</time>
      </trkpt>
      <trkpt lat="-28.484705" lon="-65.676455">
        <ele>571.6</ele>
        <time>2018-08-18T12:11:31Z</time>
      </trkpt>
      <trkpt lat="-28.484755" lon="-65.67639">
        <ele>571.6</ele>
        <time>2018-08-18T12:11:33Z</time>
      </trkpt>
      <trkpt lat="-28.48481" lon="-65.676315">
        <ele>571.8</ele>
        <time>2018-08-18T12:11:35Z</time>
      </trkpt>
      <trkpt lat="-28.48486" lon="-65.67624">
        <ele>571.8</ele>
        <time>2018-08-18T12:11:37Z</time>
      </trkpt>
      <trkpt lat="-28.48491" lon="-65.67615333333333">
        <ele>571.9</ele>
        <time>2018-08-18T12:11:39Z</time>
      </trkpt>
      <trkpt lat="-28.484975" lon="-65.67606166666667">
        <ele>571.9</ele>
        <time>2018-08-18T12:11:41Z</time>
      </trkpt>
      <trkpt lat="-28.485025" lon="-65.675985">
        <ele>571.7</ele>
        <time>2018-08-18T12:11:43Z</time>
      </trkpt>
      <trkpt lat="-28.48507" lon="-65.675915">
        <ele>571.9</ele>
        <time>2018-08-18T12:11:45Z</time>
      </trkpt>
      <trkpt lat="-28.48512" lon="-65.675835">
        <ele>572.0</ele>
        <time>2018-08-18T12:11:47Z</time>
      </trkpt>
      <trkpt lat="-28.48517" lon="-65.67576">
        <ele>572.3</ele>
        <time>2018-08-18T12:11:49Z</time>
      </trkpt>
      <trkpt lat="-28.485215" lon="-65.675685">
        <ele>572.5</ele>
        <time>2018-08-18T12:11:51Z</time>
      </trkpt>
      <trkpt lat="-28.48527" lon="-65.6756">
        <ele>572.6</ele>
        <time>2018-08-18T12:11:53Z</time>
      </trkpt>
      <trkpt lat="-28.48532" lon="-65.67552166666667">
        <ele>572.8</ele>
        <time>2018-08-18T12:11:55Z</time>
      </trkpt>
      <trkpt lat="-28.48537" lon="-65.67545">
        <ele>572.8</ele>
        <time>2018-08-18T12:11:57Z</time>
      </trkpt>
      <trkpt lat="-28.485415" lon="-65.67538">
        <ele>573.1</ele>
        <time>2018-08-18T12:11:59Z</time>
      </trkpt>
      <trkpt lat="-28.48546" lon="-65.6753">
        <ele>573.3</ele>
        <time>2018-08-18T12:12:01Z</time>
      </trkpt>
      <trkpt lat="-28.48551" lon="-65.675235">
        <ele>573.6</ele>
        <time>2018-08-18T12:12:03Z</time>
      </trkpt>
      <trkpt lat="-28.48555" lon="-65.67516">
        <ele>573.8</ele>
        <time>2018-08-18T12:12:05Z</time>
      </trkpt>
      <trkpt lat="-28.485605" lon="-65.675075">
        <ele>574.0</ele>
        <time>2018-08-18T12:12:07Z</time>
      </trkpt>
      <trkpt lat="-28.485655" lon="-65.675">
        <ele>574.2</ele>
        <time>2018-08-18T12:12:09Z</time>
      </trkpt>
      <trkpt lat="-28.4857" lon="-65.674925">
        <ele>574.4</ele>
        <time>2018-08-18T12:12:11Z</time>
      </trkpt>
      <trkpt lat="-28.48575" lon="-65.67485">
        <ele>574.5</ele>
        <time>2018-08-18T12:12:13Z</time>
      </trkpt>
      <trkpt lat="-28.4858" lon="-65.67476333333333">
        <ele>574.6</ele>
        <time>2018-08-18T12:12:15Z</time>
      </trkpt>
      <trkpt lat="-28.485845" lon="-65.67469">
        <ele>574.7</ele>
        <time>2018-08-18T12:12:17Z</time>
      </trkpt>
      <trkpt lat="-28.485895" lon="-65.674615">
        <ele>574.7</ele>
        <time>2018-08-18T12:12:19Z</time>
      </trkpt>
      <trkpt lat="-28.48594" lon="-65.67453">
        <ele>574.9</ele>
        <time>2018-08-18T12:12:21Z</time>
      </trkpt>
      <trkpt lat="-28.486" lon="-65.67444833333333">
        <ele>575.1</ele>
        <time>2018-08-18T12:12:23Z</time>
      </trkpt>
      <trkpt lat="-28.486045" lon="-65.67436833333333">
        <ele>575.3</ele>
        <time>2018-08-18T12:12:25Z</time>
      </trkpt>
      <trkpt lat="-28.4861" lon="-65.674295">
        <ele>575.5</ele>
        <time>2018-08-18T12:12:27Z</time>
      </trkpt>
      <trkpt lat="-28.48615" lon="-65.674215">
        <ele>575.5</ele>
        <time>2018-08-18T12:12:29Z</time>
      </trkpt>
      <trkpt lat="-28.4862" lon="-65.67414">
        <ele>575.3</ele>
        <time>2018-08-18T12:12:31Z</time>
      </trkpt>
      <trkpt lat="-28.486245" lon="-65.67407">
        <ele>575.2</ele>
        <time>2018-08-18T12:12:33Z</time>
      </trkpt>
      <trkpt lat="-28.486295" lon="-65.67399">
        <ele>575.3</ele>
        <time>2018-08-18T12:12:35Z</time>
      </trkpt>
      <trkpt lat="-28.486345" lon="-65.67391666666667">
        <ele>575.4</ele>
        <time>2018-08-18T12:12:37Z</time>
      </trkpt>
      <trkpt lat="-28.48639" lon="-65.673845">
        <ele>575.7</ele>
        <time>2018-08-18T12:12:39Z</time>
      </trkpt>
      <trkpt lat="-28.48646" lon="-65.673755">
        <ele>575.8</ele>
        <time>2018-08-18T12:12:42Z</time>
      </trkpt>
      <trkpt lat="-28.4865" lon="-65.67368">
        <ele>575.8</ele>
        <time>2018-08-18T12:12:44Z</time>
      </trkpt>
      <trkpt lat="-28.486555" lon="-65.673585">
        <ele>575.9</ele>
        <time>2018-08-18T12:12:47Z</time>
      </trkpt>
      <trkpt lat="-28.48659" lon="-65.67352">
        <ele>576.0</ele>
        <time>2018-08-18T12:12:49Z</time>
      </trkpt>
      <trkpt lat="-28.48664" lon="-65.673415">
        <ele>576.0</ele>
        <time>2018-08-18T12:12:52Z</time>
      </trkpt>
      <trkpt lat="-28.48669" lon="-65.673325">
        <ele>576.1</ele>
        <time>2018-08-18T12:12:55Z</time>
      </trkpt>
      <trkpt lat="-28.486735" lon="-65.67323166666667">
        <ele>576.2</ele>
        <time>2018-08-18T12:12:58Z</time>
      </trkpt>
      <trkpt lat="-28.48677" lon="-65.673145">
        <ele>576.3</ele>
        <time>2018-08-18T12:13:01Z</time>
      </trkpt>
      <trkpt lat="-28.486805" lon="-65.673045">
        <ele>576.4</ele>
        <time>2018-08-18T12:13:04Z</time>
      </trkpt>
      <trkpt lat="-28.48685" lon="-65.672945">
        <ele>576.5</ele>
        <time>2018-08-18T12:13:07Z</time>
      </trkpt>
      <trkpt lat="-28.48688" lon="-65.672835">
        <ele>576.7</ele>
        <time>2018-08-18T12:13:10Z</time>
      </trkpt>
      <trkpt lat="-28.486905" lon="-65.67274">
        <ele>576.8</ele>
        <time>2018-08-18T12:13:13Z</time>
      </trkpt>
      <trkpt lat="-28.486925" lon="-65.672635">
        <ele>577.0</ele>
        <time>2018-08-18T12:13:16Z</time>
      </trkpt>
      <trkpt lat="-28.486945" lon="-65.672535">
        <ele>577.2</ele>
        <time>2018-08-18T12:13:19Z</time>
      </trkpt>
      <trkpt lat="-28.48696" lon="-65.67243166666667">
        <ele>577.4</ele>
        <time>2018-08-18T12:13:22Z</time>
      </trkpt>
      <trkpt lat="-28.48698" lon="-65.672345">
        <ele>577.6</ele>
        <time>2018-08-18T12:13:25Z</time>
      </trkpt>
      <trkpt lat="-28.487005" lon="-65.672245">
        <ele>577.8</ele>
        <time>2018-08-18T12:13:28Z</time>
      </trkpt>
      <trkpt lat="-28.487015" lon="-65.67216">
        <ele>578.0</ele>
        <time>2018-08-18T12:13:31Z</time>
      </trkpt>
      <trkpt lat="-28.487015" lon="-65.672065">
        <ele>578.3</ele>
        <time>2018-08-18T12:13:34Z</time>
      </trkpt>
      <trkpt lat="-28.48701" lon="-65.67197">
        <ele>578.5</ele>
        <time>2018-08-18T12:13:37Z</time>
      </trkpt>
      <trkpt lat="-28.486995" lon="-65.671865">
        <ele>578.7</ele>
        <time>2018-08-18T12:13:40Z</time>
      </trkpt>
      <trkpt lat="-28.48699" lon="-65.67176166666667">
        <ele>578.8</ele>
        <time>2018-08-18T12:13:43Z</time>
      </trkpt>
      <trkpt lat="-28.48698" lon="-65.67167">
        <ele>579.0</ele>
        <time>2018-08-18T12:13:46Z</time>
      </trkpt>
      <trkpt lat="-28.48697" lon="-65.671565">
        <ele>579.1</ele>
        <time>2018-08-18T12:13:49Z</time>
      </trkpt>
      <trkpt lat="-28.48695" lon="-65.671475">
        <ele>579.2</ele>
        <time>2018-08-18T12:13:52Z</time>
      </trkpt>
      <trkpt lat="-28.486925" lon="-65.67138">
        <ele>579.4</ele>
        <time>2018-08-18T12:13:55Z</time>
      </trkpt>
      <trkpt lat="-28.48691" lon="-65.6713">
        <ele>579.5</ele>
        <time>2018-08-18T12:13:58Z</time>
      </trkpt>
      <trkpt lat="-28.48688" lon="-65.671215">
        <ele>579.6</ele>
        <time>2018-08-18T12:14:01Z</time>
      </trkpt>
      <trkpt lat="-28.486855" lon="-65.671125">
        <ele>579.8</ele>
        <time>2018-08-18T12:14:04Z</time>
      </trkpt>
      <trkpt lat="-28.486825" lon="-65.67103666666667">
        <ele>579.9</ele>
        <time>2018-08-18T12:14:07Z</time>
      </trkpt>
      <trkpt lat="-28.48679" lon="-65.670955">
        <ele>580.2</ele>
        <time>2018-08-18T12:14:10Z</time>
      </trkpt>
      <trkpt lat="-28.486755" lon="-65.67088">
        <ele>580.4</ele>
        <time>2018-08-18T12:14:13Z</time>
      </trkpt>
      <trkpt lat="-28.48672" lon="-65.670805">
        <ele>580.7</ele>
        <time>2018-08-18T12:14:16Z</time>
      </trkpt>
      <trkpt lat="-28.48668" lon="-65.670725">
        <ele>580.9</ele>
        <time>2018-08-18T12:14:19Z</time>
      </trkpt>
      <trkpt lat="-28.486645" lon="-65.67064">
        <ele>581.1</ele>
        <time>2018-08-18T12:14:22Z</time>
      </trkpt>
      <trkpt lat="-28.4866" lon="-65.670575">
        <ele>581.3</ele>
        <time>2018-08-18T12:14:25Z</time>
      </trkpt>
      <trkpt lat="-28.486545" lon="-65.6705">
        <ele>581.5</ele>
        <time>2018-08-18T12:14:28Z</time>
      </trkpt>
      <trkpt lat="-28.486495" lon="-65.67042166666667">
        <ele>581.7</ele>
        <time>2018-08-18T12:14:31Z</time>
      </trkpt>
      <trkpt lat="-28.486445" lon="-65.670355">
        <ele>581.9</ele>
        <time>2018-08-18T12:14:34Z</time>
      </trkpt>
      <trkpt lat="-28.4864" lon="-65.67027666666667">
        <ele>582.1</ele>
        <time>2018-08-18T12:14:37Z</time>
      </trkpt>
      <trkpt lat="-28.48634" lon="-65.6702">
        <ele>582.3</ele>
        <time>2018-08-18T12:14:40Z</time>
      </trkpt>
      <trkpt lat="-28.48627" lon="-65.67013">
        <ele>582.5</ele>
        <time>2018-08-18T12:14:43Z</time>
      </trkpt>
      <trkpt lat="-28.48621" lon="-65.67005">
        <ele>582.7</ele>
        <time>2018-08-18T12:14:46Z</time>
      </trkpt>
      <trkpt lat="-28.48615" lon="-65.66997">
        <ele>583.0</ele>
        <time>2018-08-18T12:14:49Z</time>
      </trkpt>
      <trkpt lat="-28.486081666666667" lon="-65.669895">
        <ele>583.3</ele>
        <time>2018-08-18T12:14:52Z</time>
      </trkpt>
      <trkpt lat="-28.486035" lon="-65.66981">
        <ele>583.6</ele>
        <time>2018-08-18T12:14:55Z</time>
      </trkpt>
      <trkpt lat="-28.485985" lon="-65.669735">
        <ele>584.1</ele>
        <time>2018-08-18T12:14:58Z</time>
      </trkpt>
      <trkpt lat="-28.485925" lon="-65.669655">
        <ele>584.4</ele>
        <time>2018-08-18T12:15:01Z</time>
      </trkpt>
      <trkpt lat="-28.48587" lon="-65.66956166666667">
        <ele>584.8</ele>
        <time>2018-08-18T12:15:04Z</time>
      </trkpt>
      <trkpt lat="-28.485815" lon="-65.669495">
        <ele>585.1</ele>
        <time>2018-08-18T12:15:07Z</time>
      </trkpt>
      <trkpt lat="-28.485765" lon="-65.66943">
        <ele>585.4</ele>
        <time>2018-08-18T12:15:10Z</time>
      </trkpt>
      <trkpt lat="-28.485715" lon="-65.66936">
        <ele>585.6</ele>
        <time>2018-08-18T12:15:13Z</time>
      </trkpt>
      <trkpt lat="-28.485665" lon="-65.66929">
        <ele>585.9</ele>
        <time>2018-08-18T12:15:16Z</time>
      </trkpt>
      <trkpt lat="-28.48562" lon="-65.669205">
        <ele>586.1</ele>
        <time>2018-08-18T12:15:19Z</time>
      </trkpt>
      <trkpt lat="-28.48556" lon="-65.66914">
        <ele>586.3</ele>
        <time>2018-08-18T12:15:22Z</time>
      </trkpt>
      <trkpt lat="-28.485515" lon="-65.669065">
        <ele>586.5</ele>
        <time>2018-08-18T12:15:25Z</time>
      </trkpt>
      <trkpt lat="-28.48546" lon="-65.66898">
        <ele>586.7</ele>
        <time>2018-08-18T12:15:28Z</time>
      </trkpt>
      <trkpt lat="-28.485405" lon="-65.66891">
        <ele>586.9</ele>
        <time>2018-08-18T12:15:31Z</time>
      </trkpt>
      <trkpt lat="-28.48536" lon="-65.66883666666666">
        <ele>587.1</ele>
        <time>2018-08-18T12:15:34Z</time>
      </trkpt>
      <trkpt lat="-28.485305" lon="-65.66876833333333">
        <ele>587.3</ele>
        <time>2018-08-18T12:15:37Z</time>
      </trkpt>
      <trkpt lat="-28.48525" lon="-65.668705">
        <ele>587.4</ele>
        <time>2018-08-18T12:15:40Z</time>
      </trkpt>
      <trkpt lat="-28.4852" lon="-65.668625">
        <ele>587.6</ele>
        <time>2018-08-18T12:15:43Z</time>
      </trkpt>
      <trkpt lat="-28.485145" lon="-65.668555">
        <ele>587.8</ele>
        <time>2018-08-18T12:15:46Z</time>
      </trkpt>
      <trkpt lat="-28.485095" lon="-65.668485">
        <ele>588.1</ele>
        <time>2018-08-18T12:15:49Z</time>
      </trkpt>
      <trkpt lat="-28.485045" lon="-65.668405">
        <ele>588.3</ele>
        <time>2018-08-18T12:15:52Z</time>
      </trkpt>
      <trkpt lat="-28.48499" lon="-65.66834">
        <ele>588.5</ele>
        <time>2018-08-18T12:15:55Z</time>
      </trkpt>
      <trkpt lat="-28.48494" lon="-65.668265">
        <ele>588.7</ele>
        <time>2018-08-18T12:15:58Z</time>
      </trkpt>
      <trkpt lat="-28.484885" lon="-65.668205">
        <ele>588.9</ele>
        <time>2018-08-18T12:16:01Z</time>
      </trkpt>
      <trkpt lat="-28.484825" lon="-65.668135">
        <ele>589.1</ele>
        <time>2018-08-18T12:16:04Z</time>
      </trkpt>
      <trkpt lat="-28.484765" lon="-65.66807">
        <ele>589.3</ele>
        <time>2018-08-18T12:16:07Z</time>
      </trkpt>
      <trkpt lat="-28.484705" lon="-65.667995">
        <ele>589.5</ele>
        <time>2018-08-18T12:16:10Z</time>
      </trkpt>
      <trkpt lat="-28.48464" lon="-65.667935">
        <ele>589.7</ele>
        <time>2018-08-18T12:16:13Z</time>
      </trkpt>
      <trkpt lat="-28.484565" lon="-65.66786166666667">
        <ele>590.0</ele>
        <time>2018-08-18T12:16:16Z</time>
      </trkpt>
      <trkpt lat="-28.48449" lon="-65.667805">
        <ele>590.3</ele>
        <time>2018-08-18T12:16:19Z</time>
      </trkpt>
      <trkpt lat="-28.48442" lon="-65.66775">
        <ele>590.5</ele>
        <time>2018-08-18T12:16:22Z</time>
      </trkpt>
      <trkpt lat="-28.48435" lon="-65.667685">
        <ele>590.8</ele>
        <time>2018-08-18T12:16:25Z</time>
      </trkpt>
      <trkpt lat="-28.48428" lon="-65.667625">
        <ele>591.1</ele>
        <time>2018-08-18T12:16:28Z</time>
      </trkpt>
      <trkpt lat="-28.484205" lon="-65.66758">
        <ele>591.3</ele>
        <time>2018-08-18T12:16:31Z</time>
      </trkpt>
      <trkpt lat="-28.484125" lon="-65.66753">
        <ele>591.6</ele>
        <time>2018-08-18T12:16:34Z</time>
      </trkpt>
      <trkpt lat="-28.48404" lon="-65.66747">
        <ele>591.8</ele>
        <time>2018-08-18T12:16:37Z</time>
      </trkpt>
      <trkpt lat="-28.483955" lon="-65.66742">
        <ele>592.0</ele>
        <time>2018-08-18T12:16:40Z</time>
      </trkpt>
      <trkpt lat="-28.483865" lon="-65.667375">
        <ele>592.3</ele>
        <time>2018-08-18T12:16:43Z</time>
      </trkpt>
      <trkpt lat="-28.48378" lon="-65.66732666666667">
        <ele>592.7</ele>
        <time>2018-08-18T12:16:46Z</time>
      </trkpt>
      <trkpt lat="-28.48369" lon="-65.667285">
        <ele>593.4</ele>
        <time>2018-08-18T12:16:49Z</time>
      </trkpt>
      <trkpt lat="-28.4836" lon="-65.667245">
        <ele>594.1</ele>
        <time>2018-08-18T12:16:52Z</time>
      </trkpt>
      <trkpt lat="-28.483505" lon="-65.66720166666667">
        <ele>594.8</ele>
        <time>2018-08-18T12:16:55Z</time>
      </trkpt>
      <trkpt lat="-28.48343" lon="-65.66717">
        <ele>595.5</ele>
        <time>2018-08-18T12:16:58Z</time>
      </trkpt>
      <trkpt lat="-28.48334" lon="-65.66713">
        <ele>596.2</ele>
        <time>2018-08-18T12:17:01Z</time>
      </trkpt>
      <trkpt lat="-28.483255" lon="-65.667085">
        <ele>596.8</ele>
        <time>2018-08-18T12:17:04Z</time>
      </trkpt>
      <trkpt lat="-28.483165" lon="-65.667045">
        <ele>597.4</ele>
        <time>2018-08-18T12:17:07Z</time>
      </trkpt>
      <trkpt lat="-28.483065" lon="-65.667">
        <ele>597.9</ele>
        <time>2018-08-18T12:17:10Z</time>
      </trkpt>
      <trkpt lat="-28.482965" lon="-65.66695">
        <ele>598.3</ele>
        <time>2018-08-18T12:17:13Z</time>
      </trkpt>
      <trkpt lat="-28.482865" lon="-65.66691">
        <ele>598.8</ele>
        <time>2018-08-18T12:17:16Z</time>
      </trkpt>
      <trkpt lat="-28.482779999999998" lon="-65.666865">
        <ele>599.3</ele>
        <time>2018-08-18T12:17:19Z</time>
      </trkpt>
      <trkpt lat="-28.482685" lon="-65.66681">
        <ele>599.7</ele>
        <time>2018-08-18T12:17:22Z</time>
      </trkpt>
      <trkpt lat="-28.482585" lon="-65.66675166666667">
        <ele>600.1</ele>
        <time>2018-08-18T12:17:25Z</time>
      </trkpt>
      <trkpt lat="-28.482485" lon="-65.6667">
        <ele>600.5</ele>
        <time>2018-08-18T12:17:28Z</time>
      </trkpt>
      <trkpt lat="-28.482425" lon="-65.66665666666667">
        <ele>602.0</ele>
        <time>2018-08-18T12:17:30Z</time>
      </trkpt>
      <trkpt lat="-28.48236" lon="-65.66661166666667">
        <ele>602.2</ele>
        <time>2018-08-18T12:17:32Z</time>
      </trkpt>
      <trkpt lat="-28.482295" lon="-65.66656666666667">
        <ele>603.3</ele>
        <time>2018-08-18T12:17:34Z</time>
      </trkpt>
      <trkpt lat="-28.482235" lon="-65.66652166666667">
        <ele>605.1</ele>
        <time>2018-08-18T12:17:36Z</time>
      </trkpt>
      <trkpt lat="-28.482175" lon="-65.666475">
        <ele>606.4</ele>
        <time>2018-08-18T12:17:38Z</time>
      </trkpt>
      <trkpt lat="-28.482115" lon="-65.666425">
        <ele>607.5</ele>
        <time>2018-08-18T12:17:40Z</time>
      </trkpt>
      <trkpt lat="-28.482055" lon="-65.666375">
        <ele>608.2</ele>
        <time>2018-08-18T12:17:42Z</time>
      </trkpt>
      <trkpt lat="-28.48199" lon="-65.66632">
        <ele>608.6</ele>
        <time>2018-08-18T12:17:44Z</time>
      </trkpt>
      <trkpt lat="-28.481935" lon="-65.66625833333333">
        <ele>608.9</ele>
        <time>2018-08-18T12:17:46Z</time>
      </trkpt>
      <trkpt lat="-28.48188" lon="-65.66621">
        <ele>609.0</ele>
        <time>2018-08-18T12:17:48Z</time>
      </trkpt>
      <trkpt lat="-28.48183" lon="-65.666155">
        <ele>609.0</ele>
        <time>2018-08-18T12:17:50Z</time>
      </trkpt>
      <trkpt lat="-28.481765" lon="-65.666095">
        <ele>609.1</ele>
        <time>2018-08-18T12:17:52Z</time>
      </trkpt>
      <trkpt lat="-28.481715" lon="-65.666025">
        <ele>609.2</ele>
        <time>2018-08-18T12:17:54Z</time>
      </trkpt>
      <trkpt lat="-28.481665" lon="-65.665965">
        <ele>609.2</ele>
        <time>2018-08-18T12:17:56Z</time>
      </trkpt>
      <trkpt lat="-28.48162" lon="-65.66591">
        <ele>609.1</ele>
        <time>2018-08-18T12:17:58Z</time>
      </trkpt>
      <trkpt lat="-28.48157" lon="-65.665845">
        <ele>609.0</ele>
        <time>2018-08-18T12:18:00Z</time>
      </trkpt>
      <trkpt lat="-28.48152" lon="-65.66578">
        <ele>608.9</ele>
        <time>2018-08-18T12:18:02Z</time>
      </trkpt>
      <trkpt lat="-28.481475" lon="-65.665715">
        <ele>609.0</ele>
        <time>2018-08-18T12:18:04Z</time>
      </trkpt>
      <trkpt lat="-28.481415" lon="-65.665615">
        <ele>608.5</ele>
        <time>2018-08-18T12:18:07Z</time>
      </trkpt>
      <trkpt lat="-28.48137" lon="-65.665535">
        <ele>608.4</ele>
        <time>2018-08-18T12:18:09Z</time>
      </trkpt>
      <trkpt lat="-28.48132" lon="-65.665475">
        <ele>608.3</ele>
        <time>2018-08-18T12:18:11Z</time>
      </trkpt>
      <trkpt lat="-28.48126" lon="-65.665375">
        <ele>608.1</ele>
        <time>2018-08-18T12:18:14Z</time>
      </trkpt>
      <trkpt lat="-28.481195" lon="-65.66526666666667">
        <ele>607.9</ele>
        <time>2018-08-18T12:18:17Z</time>
      </trkpt>
      <trkpt lat="-28.481155" lon="-65.665205">
        <ele>607.8</ele>
        <time>2018-08-18T12:18:19Z</time>
      </trkpt>
      <trkpt lat="-28.48112" lon="-65.665125">
        <ele>607.6</ele>
        <time>2018-08-18T12:18:21Z</time>
      </trkpt>
      <trkpt lat="-28.48107" lon="-65.66503">
        <ele>607.4</ele>
        <time>2018-08-18T12:18:24Z</time>
      </trkpt>
      <trkpt lat="-28.481005" lon="-65.664925">
        <ele>607.1</ele>
        <time>2018-08-18T12:18:27Z</time>
      </trkpt>
      <trkpt lat="-28.48095" lon="-65.66482">
        <ele>607.0</ele>
        <time>2018-08-18T12:18:30Z</time>
      </trkpt>
      <trkpt lat="-28.480895" lon="-65.66473">
        <ele>606.8</ele>
        <time>2018-08-18T12:18:33Z</time>
      </trkpt>
      <trkpt lat="-28.480845" lon="-65.664635">
        <ele>606.7</ele>
        <time>2018-08-18T12:18:36Z</time>
      </trkpt>
      <trkpt lat="-28.48079" lon="-65.664545">
        <ele>606.7</ele>
        <time>2018-08-18T12:18:39Z</time>
      </trkpt>
      <trkpt lat="-28.48074" lon="-65.664445">
        <ele>606.6</ele>
        <time>2018-08-18T12:18:42Z</time>
      </trkpt>
      <trkpt lat="-28.4807" lon="-65.66435">
        <ele>606.5</ele>
        <time>2018-08-18T12:18:45Z</time>
      </trkpt>
      <trkpt lat="-28.480645" lon="-65.66424666666667">
        <ele>606.4</ele>
        <time>2018-08-18T12:18:48Z</time>
      </trkpt>
      <trkpt lat="-28.4806" lon="-65.664165">
        <ele>606.5</ele>
        <time>2018-08-18T12:18:51Z</time>
      </trkpt>
      <trkpt lat="-28.480545" lon="-65.66406333333333">
        <ele>606.5</ele>
        <time>2018-08-18T12:18:54Z</time>
      </trkpt>
      <trkpt lat="-28.48049" lon="-65.66397333333333">
        <ele>606.6</ele>
        <time>2018-08-18T12:18:57Z</time>
      </trkpt>
      <trkpt lat="-28.480435" lon="-65.663895">
        <ele>606.7</ele>
        <time>2018-08-18T12:19:00Z</time>
      </trkpt>
      <trkpt lat="-28.48038" lon="-65.66379">
        <ele>606.8</ele>
        <time>2018-08-18T12:19:03Z</time>
      </trkpt>
      <trkpt lat="-28.480339999999998" lon="-65.66373">
        <ele>606.8</ele>
        <time>2018-08-18T12:19:05Z</time>
      </trkpt>
      <trkpt lat="-28.4803" lon="-65.66365166666667">
        <ele>606.9</ele>
        <time>2018-08-18T12:19:07Z</time>
      </trkpt>
      <trkpt lat="-28.480265" lon="-65.66359">
        <ele>606.9</ele>
        <time>2018-08-18T12:19:09Z</time>
      </trkpt>
      <trkpt lat="-28.48023" lon="-65.663515">
        <ele>607.0</ele>
        <time>2018-08-18T12:19:11Z</time>
      </trkpt>
      <trkpt lat="-28.48017" lon="-65.663405">
        <ele>607.0</ele>
        <time>2018-08-18T12:19:14Z</time>
      </trkpt>
      <trkpt lat="-28.480135" lon="-65.66334">
        <ele>606.9</ele>
        <time>2018-08-18T12:19:16Z</time>
      </trkpt>
      <trkpt lat="-28.4801" lon="-65.663255">
        <ele>606.9</ele>
        <time>2018-08-18T12:19:18Z</time>
      </trkpt>
      <trkpt lat="-28.48006" lon="-65.66319">
        <ele>606.9</ele>
        <time>2018-08-18T12:19:20Z</time>
      </trkpt>
      <trkpt lat="-28.480005" lon="-65.663075">
        <ele>607.4</ele>
        <time>2018-08-18T12:19:23Z</time>
      </trkpt>
      <trkpt lat="-28.47997" lon="-65.66301">
        <ele>608.1</ele>
        <time>2018-08-18T12:19:25Z</time>
      </trkpt>
      <trkpt lat="-28.47994" lon="-65.662925">
        <ele>609.1</ele>
        <time>2018-08-18T12:19:27Z</time>
      </trkpt>
      <trkpt lat="-28.479905" lon="-65.662845">
        <ele>609.4</ele>
        <time>2018-08-18T12:19:29Z</time>
      </trkpt>
      <trkpt lat="-28.479875" lon="-65.662775">
        <ele>609.4</ele>
        <time>2018-08-18T12:19:31Z</time>
      </trkpt>
      <trkpt lat="-28.47983" lon="-65.662665">
        <ele>609.5</ele>
        <time>2018-08-18T12:19:34Z</time>
      </trkpt>
      <trkpt lat="-28.479805" lon="-65.66256">
        <ele>609.5</ele>
        <time>2018-08-18T12:19:37Z</time>
      </trkpt>
      <trkpt lat="-28.47978" lon="-65.66245">
        <ele>609.5</ele>
        <time>2018-08-18T12:19:40Z</time>
      </trkpt>
      <trkpt lat="-28.479755" lon="-65.66235">
        <ele>609.4</ele>
        <time>2018-08-18T12:19:43Z</time>
      </trkpt>
      <trkpt lat="-28.47973" lon="-65.66224">
        <ele>609.1</ele>
        <time>2018-08-18T12:19:46Z</time>
      </trkpt>
      <trkpt lat="-28.47972" lon="-65.66213">
        <ele>608.9</ele>
        <time>2018-08-18T12:19:49Z</time>
      </trkpt>
      <trkpt lat="-28.479715" lon="-65.662025">
        <ele>608.7</ele>
        <time>2018-08-18T12:19:52Z</time>
      </trkpt>
      <trkpt lat="-28.47971" lon="-65.66191333333333">
        <ele>608.6</ele>
        <time>2018-08-18T12:19:55Z</time>
      </trkpt>
      <trkpt lat="-28.47971" lon="-65.66182">
        <ele>608.4</ele>
        <time>2018-08-18T12:19:58Z</time>
      </trkpt>
      <trkpt lat="-28.479705" lon="-65.661715">
        <ele>608.2</ele>
        <time>2018-08-18T12:20:01Z</time>
      </trkpt>
      <trkpt lat="-28.479705" lon="-65.661635">
        <ele>607.9</ele>
        <time>2018-08-18T12:20:04Z</time>
      </trkpt>
      <trkpt lat="-28.479705" lon="-65.66155">
        <ele>607.6</ele>
        <time>2018-08-18T12:20:07Z</time>
      </trkpt>
      <trkpt lat="-28.479705" lon="-65.66145">
        <ele>607.4</ele>
        <time>2018-08-18T12:20:10Z</time>
      </trkpt>
      <trkpt lat="-28.479705" lon="-65.66136">
        <ele>607.3</ele>
        <time>2018-08-18T12:20:13Z</time>
      </trkpt>
      <trkpt lat="-28.47971" lon="-65.661265">
        <ele>607.2</ele>
        <time>2018-08-18T12:20:16Z</time>
      </trkpt>
      <trkpt lat="-28.47971" lon="-65.66118">
        <ele>607.0</ele>
        <time>2018-08-18T12:20:19Z</time>
      </trkpt>
      <trkpt lat="-28.47971" lon="-65.66109">
        <ele>606.8</ele>
        <time>2018-08-18T12:20:22Z</time>
      </trkpt>
      <trkpt lat="-28.47971" lon="-65.660995">
        <ele>606.7</ele>
        <time>2018-08-18T12:20:25Z</time>
      </trkpt>
      <trkpt lat="-28.479715" lon="-65.66091">
        <ele>606.5</ele>
        <time>2018-08-18T12:20:28Z</time>
      </trkpt>
      <trkpt lat="-28.479715" lon="-65.660815">
        <ele>606.5</ele>
        <time>2018-08-18T12:20:31Z</time>
      </trkpt>
      <trkpt lat="-28.479715" lon="-65.660725">
        <ele>606.4</ele>
        <time>2018-08-18T12:20:34Z</time>
      </trkpt>
      <trkpt lat="-28.479715" lon="-65.66063">
        <ele>606.4</ele>
        <time>2018-08-18T12:20:37Z</time>
      </trkpt>
      <trkpt lat="-28.47972" lon="-65.66052833333333">
        <ele>606.4</ele>
        <time>2018-08-18T12:20:40Z</time>
      </trkpt>
      <trkpt lat="-28.47972" lon="-65.66043166666667">
        <ele>606.4</ele>
        <time>2018-08-18T12:20:44Z</time>
      </trkpt>
      <trkpt lat="-28.47972" lon="-65.66034">
        <ele>606.4</ele>
        <time>2018-08-18T12:20:48Z</time>
      </trkpt>
      <trkpt lat="-28.47972" lon="-65.66024">
        <ele>606.5</ele>
        <time>2018-08-18T12:20:52Z</time>
      </trkpt>
      <trkpt lat="-28.47972" lon="-65.66015">
        <ele>606.7</ele>
        <time>2018-08-18T12:20:56Z</time>
      </trkpt>
      <trkpt lat="-28.479745" lon="-65.660045">
        <ele>606.8</ele>
        <time>2018-08-18T12:21:00Z</time>
      </trkpt>
      <trkpt lat="-28.479745" lon="-65.659955">
        <ele>606.9</ele>
        <time>2018-08-18T12:21:04Z</time>
      </trkpt>
      <trkpt lat="-28.479745" lon="-65.65985333333333">
        <ele>607.0</ele>
        <time>2018-08-18T12:21:08Z</time>
      </trkpt>
      <trkpt lat="-28.47975" lon="-65.65976166666667">
        <ele>607.1</ele>
        <time>2018-08-18T12:21:12Z</time>
      </trkpt>
      <trkpt lat="-28.47975" lon="-65.659665">
        <ele>607.2</ele>
        <time>2018-08-18T12:21:16Z</time>
      </trkpt>
      <trkpt lat="-28.479755" lon="-65.65958">
        <ele>607.4</ele>
        <time>2018-08-18T12:21:20Z</time>
      </trkpt>
      <trkpt lat="-28.47977" lon="-65.659485">
        <ele>607.6</ele>
        <time>2018-08-18T12:21:24Z</time>
      </trkpt>
      <trkpt lat="-28.479795" lon="-65.659395">
        <ele>607.9</ele>
        <time>2018-08-18T12:21:29Z</time>
      </trkpt>
      <trkpt lat="-28.479825" lon="-65.659305">
        <ele>608.2</ele>
        <time>2018-08-18T12:21:33Z</time>
      </trkpt>
      <trkpt lat="-28.47985" lon="-65.659225">
        <ele>608.4</ele>
        <time>2018-08-18T12:21:37Z</time>
      </trkpt>
      <trkpt lat="-28.479875" lon="-65.659155">
        <ele>608.7</ele>
        <time>2018-08-18T12:21:41Z</time>
      </trkpt>
      <trkpt lat="-28.479905" lon="-65.65907">
        <ele>608.9</ele>
        <time>2018-08-18T12:21:45Z</time>
      </trkpt>
      <trkpt lat="-28.47994" lon="-65.65899166666667">
        <ele>609.2</ele>
        <time>2018-08-18T12:21:49Z</time>
      </trkpt>
      <trkpt lat="-28.47997" lon="-65.65891333333333">
        <ele>609.5</ele>
        <time>2018-08-18T12:21:53Z</time>
      </trkpt>
      <trkpt lat="-28.48" lon="-65.658845">
        <ele>609.9</ele>
        <time>2018-08-18T12:21:57Z</time>
      </trkpt>
      <trkpt lat="-28.48003" lon="-65.65877">
        <ele>610.2</ele>
        <time>2018-08-18T12:22:01Z</time>
      </trkpt>
      <trkpt lat="-28.480065" lon="-65.65869">
        <ele>610.6</ele>
        <time>2018-08-18T12:22:05Z</time>
      </trkpt>
      <trkpt lat="-28.4801" lon="-65.65862">
        <ele>610.9</ele>
        <time>2018-08-18T12:22:09Z</time>
      </trkpt>
      <trkpt lat="-28.480135" lon="-65.658545">
        <ele>611.3</ele>
        <time>2018-08-18T12:22:13Z</time>
      </trkpt>
      <trkpt lat="-28.480165" lon="-65.65846333333333">
        <ele>611.7</ele>
        <time>2018-08-18T12:22:17Z</time>
      </trkpt>
      <trkpt lat="-28.480195" lon="-65.658395">
        <ele>612.1</ele>
        <time>2018-08-18T12:22:21Z</time>
      </trkpt>
      <trkpt lat="-28.48023" lon="-65.65831">
        <ele>612.5</ele>
        <time>2018-08-18T12:22:25Z</time>
      </trkpt>
      <trkpt lat="-28.480255" lon="-65.658225">
        <ele>612.9</ele>
        <time>2018-08-18T12:22:29Z</time>
      </trkpt>
      <trkpt lat="-28.48029" lon="-65.65815">
        <ele>613.4</ele>
        <time>2018-08-18T12:22:33Z</time>
      </trkpt>
      <trkpt lat="-28.480325" lon="-65.658085">
        <ele>613.8</ele>
        <time>2018-08-18T12:22:37Z</time>
      </trkpt>
      <trkpt lat="-28.480355" lon="-65.658">
        <ele>614.3</ele>
        <time>2018-08-18T12:22:41Z</time>
      </trkpt>
      <trkpt lat="-28.48039" lon="-65.657915">
        <ele>615.0</ele>
        <time>2018-08-18T12:22:46Z</time>
      </trkpt>
      <trkpt lat="-28.48043" lon="-65.65782">
        <ele>615.8</ele>
        <time>2018-08-18T12:22:51Z</time>
      </trkpt>
      <trkpt lat="-28.480455" lon="-65.65772">
        <ele>616.6</ele>
        <time>2018-08-18T12:22:56Z</time>
      </trkpt>
      <trkpt lat="-28.480475" lon="-65.657645">
        <ele>617.2</ele>
        <time>2018-08-18T12:23:00Z</time>
      </trkpt>
      <trkpt lat="-28.480495" lon="-65.65756">
        <ele>617.8</ele>
        <time>2018-08-18T12:23:04Z</time>
      </trkpt>
      <trkpt lat="-28.480515" lon="-65.657475">
        <ele>618.4</ele>
        <time>2018-08-18T12:23:08Z</time>
      </trkpt>
      <trkpt lat="-28.480515" lon="-65.65739166666667">
        <ele>619.0</ele>
        <time>2018-08-18T12:23:12Z</time>
      </trkpt>
      <trkpt lat="-28.480515" lon="-65.65730333333333">
        <ele>619.6</ele>
        <time>2018-08-18T12:23:16Z</time>
      </trkpt>
      <trkpt lat="-28.48051" lon="-65.65723">
        <ele>620.0</ele>
        <time>2018-08-18T12:23:20Z</time>
      </trkpt>
      <trkpt lat="-28.480495" lon="-65.65714">
        <ele>620.6</ele>
        <time>2018-08-18T12:23:24Z</time>
      </trkpt>
      <trkpt lat="-28.48048" lon="-65.657055">
        <ele>621.1</ele>
        <time>2018-08-18T12:23:28Z</time>
      </trkpt>
      <trkpt lat="-28.48047" lon="-65.65696">
        <ele>621.6</ele>
        <time>2018-08-18T12:23:32Z</time>
      </trkpt>
      <trkpt lat="-28.48047" lon="-65.656885">
        <ele>622.1</ele>
        <time>2018-08-18T12:23:36Z</time>
      </trkpt>
      <trkpt lat="-28.48047" lon="-65.65679">
        <ele>622.7</ele>
        <time>2018-08-18T12:23:41Z</time>
      </trkpt>
      <trkpt lat="-28.48048" lon="-65.65671">
        <ele>623.3</ele>
        <time>2018-08-18T12:23:46Z</time>
      </trkpt>
      <trkpt lat="-28.480505" lon="-65.656625">
        <ele>623.9</ele>
        <time>2018-08-18T12:23:51Z</time>
      </trkpt>
      <trkpt lat="-28.480525" lon="-65.65653">
        <ele>624.5</ele>
        <time>2018-08-18T12:23:56Z</time>
      </trkpt>
      <trkpt lat="-28.48055" lon="-65.656445">
        <ele>625.3</ele>
        <time>2018-08-18T12:24:01Z</time>
      </trkpt>
      <trkpt lat="-28.480565" lon="-65.65636">
        <ele>626.4</ele>
        <time>2018-08-18T12:24:06Z</time>
      </trkpt>
      <trkpt lat="-28.48059" lon="-65.65626666666667">
        <ele>627.8</ele>
        <time>2018-08-18T12:24:11Z</time>
      </trkpt>
      <trkpt lat="-28.480625" lon="-65.656175">
        <ele>629.5</ele>
        <time>2018-08-18T12:24:16Z</time>
      </trkpt>
      <trkpt lat="-28.480665" lon="-65.65609">
        <ele>631.2</ele>
        <time>2018-08-18T12:24:21Z</time>
      </trkpt>
      <trkpt lat="-28.480695" lon="-65.656015">
        <ele>632.3</ele>
        <time>2018-08-18T12:24:25Z</time>
      </trkpt>
      <trkpt lat="-28.480725" lon="-65.655935">
        <ele>633.4</ele>
        <time>2018-08-18T12:24:29Z</time>
      </trkpt>
      <trkpt lat="-28.480765" lon="-65.655855">
        <ele>634.2</ele>
        <time>2018-08-18T12:24:33Z</time>
      </trkpt>
      <trkpt lat="-28.4808" lon="-65.65576">
        <ele>635.1</ele>
        <time>2018-08-18T12:24:38Z</time>
      </trkpt>
      <trkpt lat="-28.480815" lon="-65.655665">
        <ele>635.8</ele>
        <time>2018-08-18T12:24:42Z</time>
      </trkpt>
      <trkpt lat="-28.480825" lon="-65.65558">
        <ele>636.5</ele>
        <time>2018-08-18T12:24:46Z</time>
      </trkpt>
      <trkpt lat="-28.480825" lon="-65.65548">
        <ele>637.3</ele>
        <time>2018-08-18T12:24:51Z</time>
      </trkpt>
      <trkpt lat="-28.480835" lon="-65.65542166666667">
        <ele>638.2</ele>
        <time>2018-08-18T12:24:58Z</time>
      </trkpt>
      <trkpt lat="-28.48084" lon="-65.655415">
        <ele>638.3</ele>
        <time>2018-08-18T12:25:01Z</time>
      </trkpt>
      <trkpt lat="-28.48084" lon="-65.6554">
        <ele>639.1</ele>
        <time>2018-08-18T12:25:11Z</time>
      </trkpt>
      <trkpt lat="-28.480845" lon="-65.655395">
        <ele>639.2</ele>
        <time>2018-08-18T12:25:12Z</time>
      </trkpt>
      <trkpt lat="-28.48086" lon="-65.6553">
        <ele>639.5</ele>
        <time>2018-08-18T12:25:25Z</time>
      </trkpt>
      <trkpt lat="-28.48088" lon="-65.65519">
        <ele>639.4</ele>
        <time>2018-08-18T12:25:29Z</time>
      </trkpt>
      <trkpt lat="-28.48089" lon="-65.655105">
        <ele>639.4</ele>
        <time>2018-08-18T12:25:32Z</time>
      </trkpt>
      <trkpt lat="-28.480905" lon="-65.65501">
        <ele>639.3</ele>
        <time>2018-08-18T12:25:35Z</time>
      </trkpt>
      <trkpt lat="-28.48092" lon="-65.654905">
        <ele>639.2</ele>
        <time>2018-08-18T12:25:38Z</time>
      </trkpt>
      <trkpt lat="-28.48094" lon="-65.65479500000001">
        <ele>639.2</ele>
        <time>2018-08-18T12:25:41Z</time>
      </trkpt>
      <trkpt lat="-28.480955" lon="-65.65470166666667">
        <ele>639.0</ele>
        <time>2018-08-18T12:25:44Z</time>
      </trkpt>
      <trkpt lat="-28.480965" lon="-65.65461833333333">
        <ele>638.9</ele>
        <time>2018-08-18T12:25:47Z</time>
      </trkpt>
      <trkpt lat="-28.480995" lon="-65.654525">
        <ele>638.8</ele>
        <time>2018-08-18T12:25:50Z</time>
      </trkpt>
      <trkpt lat="-28.481015" lon="-65.65443">
        <ele>638.7</ele>
        <time>2018-08-18T12:25:53Z</time>
      </trkpt>
      <trkpt lat="-28.48105" lon="-65.654335">
        <ele>638.6</ele>
        <time>2018-08-18T12:25:56Z</time>
      </trkpt>
      <trkpt lat="-28.481075" lon="-65.65423">
        <ele>638.5</ele>
        <time>2018-08-18T12:25:59Z</time>
      </trkpt>
      <trkpt lat="-28.48111" lon="-65.654135">
        <ele>638.5</ele>
        <time>2018-08-18T12:26:02Z</time>
      </trkpt>
      <trkpt lat="-28.48114" lon="-65.65402666666667">
        <ele>638.4</ele>
        <time>2018-08-18T12:26:05Z</time>
      </trkpt>
      <trkpt lat="-28.481158333333333" lon="-65.65394">
        <ele>638.3</ele>
        <time>2018-08-18T12:26:08Z</time>
      </trkpt>
      <trkpt lat="-28.48119" lon="-65.653845">
        <ele>638.3</ele>
        <time>2018-08-18T12:26:11Z</time>
      </trkpt>
      <trkpt lat="-28.48123" lon="-65.653755">
        <ele>638.2</ele>
        <time>2018-08-18T12:26:14Z</time>
      </trkpt>
      <trkpt lat="-28.481275" lon="-65.65365">
        <ele>637.7</ele>
        <time>2018-08-18T12:26:17Z</time>
      </trkpt>
      <trkpt lat="-28.481305" lon="-65.65357">
        <ele>637.6</ele>
        <time>2018-08-18T12:26:19Z</time>
      </trkpt>
      <trkpt lat="-28.481345" lon="-65.65347">
        <ele>637.6</ele>
        <time>2018-08-18T12:26:22Z</time>
      </trkpt>
      <trkpt lat="-28.481395" lon="-65.65336">
        <ele>637.6</ele>
        <time>2018-08-18T12:26:25Z</time>
      </trkpt>
      <trkpt lat="-28.48143" lon="-65.653245">
        <ele>637.4</ele>
        <time>2018-08-18T12:26:28Z</time>
      </trkpt>
      <trkpt lat="-28.481465" lon="-65.65316">
        <ele>637.3</ele>
        <time>2018-08-18T12:26:30Z</time>
      </trkpt>
      <trkpt lat="-28.4815" lon="-65.653075">
        <ele>637.1</ele>
        <time>2018-08-18T12:26:32Z</time>
      </trkpt>
      <trkpt lat="-28.481535" lon="-65.65298">
        <ele>637.0</ele>
        <time>2018-08-18T12:26:34Z</time>
      </trkpt>
      <trkpt lat="-28.48157" lon="-65.652865">
        <ele>636.9</ele>
        <time>2018-08-18T12:26:36Z</time>
      </trkpt>
      <trkpt lat="-28.48161" lon="-65.652755">
        <ele>636.7</ele>
        <time>2018-08-18T12:26:38Z</time>
      </trkpt>
      <trkpt lat="-28.481645" lon="-65.652645">
        <ele>636.4</ele>
        <time>2018-08-18T12:26:40Z</time>
      </trkpt>
      <trkpt lat="-28.48168" lon="-65.652555">
        <ele>636.4</ele>
        <time>2018-08-18T12:26:42Z</time>
      </trkpt>
      <trkpt lat="-28.48171" lon="-65.65246">
        <ele>636.3</ele>
        <time>2018-08-18T12:26:44Z</time>
      </trkpt>
      <trkpt lat="-28.48174" lon="-65.652365">
        <ele>636.2</ele>
        <time>2018-08-18T12:26:46Z</time>
      </trkpt>
      <trkpt lat="-28.481765" lon="-65.65227">
        <ele>636.1</ele>
        <time>2018-08-18T12:26:48Z</time>
      </trkpt>
      <trkpt lat="-28.4818" lon="-65.652165">
        <ele>636.2</ele>
        <time>2018-08-18T12:26:50Z</time>
      </trkpt>
      <trkpt lat="-28.481835" lon="-65.652055">
        <ele>636.3</ele>
        <time>2018-08-18T12:26:52Z</time>
      </trkpt>
      <trkpt lat="-28.48187" lon="-65.65195">
        <ele>636.4</ele>
        <time>2018-08-18T12:26:54Z</time>
      </trkpt>
      <trkpt lat="-28.481895" lon="-65.65183666666667">
        <ele>636.6</ele>
        <time>2018-08-18T12:26:56Z</time>
      </trkpt>
      <trkpt lat="-28.481925" lon="-65.651745">
        <ele>636.7</ele>
        <time>2018-08-18T12:26:58Z</time>
      </trkpt>
      <trkpt lat="-28.48195" lon="-65.65164">
        <ele>636.9</ele>
        <time>2018-08-18T12:27:00Z</time>
      </trkpt>
      <trkpt lat="-28.481975" lon="-65.651545">
        <ele>636.9</ele>
        <time>2018-08-18T12:27:02Z</time>
      </trkpt>
      <trkpt lat="-28.482" lon="-65.651435">
        <ele>636.8</ele>
        <time>2018-08-18T12:27:04Z</time>
      </trkpt>
      <trkpt lat="-28.482025" lon="-65.65133">
        <ele>636.9</ele>
        <time>2018-08-18T12:27:06Z</time>
      </trkpt>
      <trkpt lat="-28.48205" lon="-65.65121166666667">
        <ele>637.1</ele>
        <time>2018-08-18T12:27:08Z</time>
      </trkpt>
      <trkpt lat="-28.48208" lon="-65.65110666666666">
        <ele>637.3</ele>
        <time>2018-08-18T12:27:10Z</time>
      </trkpt>
      <trkpt lat="-28.482105" lon="-65.65101">
        <ele>637.4</ele>
        <time>2018-08-18T12:27:12Z</time>
      </trkpt>
      <trkpt lat="-28.48213" lon="-65.65090000000001">
        <ele>637.4</ele>
        <time>2018-08-18T12:27:14Z</time>
      </trkpt>
      <trkpt lat="-28.482155" lon="-65.6508">
        <ele>637.4</ele>
        <time>2018-08-18T12:27:16Z</time>
      </trkpt>
      <trkpt lat="-28.482175" lon="-65.650705">
        <ele>637.6</ele>
        <time>2018-08-18T12:27:18Z</time>
      </trkpt>
      <trkpt lat="-28.4822" lon="-65.65061">
        <ele>638.0</ele>
        <time>2018-08-18T12:27:20Z</time>
      </trkpt>
      <trkpt lat="-28.482215" lon="-65.650515">
        <ele>638.4</ele>
        <time>2018-08-18T12:27:22Z</time>
      </trkpt>
      <trkpt lat="-28.482225" lon="-65.65043">
        <ele>638.2</ele>
        <time>2018-08-18T12:27:24Z</time>
      </trkpt>
      <trkpt lat="-28.48224" lon="-65.65034">
        <ele>638.1</ele>
        <time>2018-08-18T12:27:26Z</time>
      </trkpt>
      <trkpt lat="-28.48225" lon="-65.650255">
        <ele>637.5</ele>
        <time>2018-08-18T12:27:28Z</time>
      </trkpt>
      <trkpt lat="-28.482255" lon="-65.650165">
        <ele>637.3</ele>
        <time>2018-08-18T12:27:30Z</time>
      </trkpt>
      <trkpt lat="-28.48226" lon="-65.650065">
        <ele>637.0</ele>
        <time>2018-08-18T12:27:32Z</time>
      </trkpt>
      <trkpt lat="-28.48226" lon="-65.64996833333333">
        <ele>636.9</ele>
        <time>2018-08-18T12:27:34Z</time>
      </trkpt>
      <trkpt lat="-28.48226" lon="-65.64986999999999">
        <ele>636.9</ele>
        <time>2018-08-18T12:27:36Z</time>
      </trkpt>
      <trkpt lat="-28.48227" lon="-65.649775">
        <ele>636.9</ele>
        <time>2018-08-18T12:27:38Z</time>
      </trkpt>
      <trkpt lat="-28.48227" lon="-65.64969">
        <ele>636.7</ele>
        <time>2018-08-18T12:27:40Z</time>
      </trkpt>
      <trkpt lat="-28.48227" lon="-65.64957">
        <ele>636.7</ele>
        <time>2018-08-18T12:27:43Z</time>
      </trkpt>
      <trkpt lat="-28.48225" lon="-65.649455">
        <ele>636.7</ele>
        <time>2018-08-18T12:27:46Z</time>
      </trkpt>
      <trkpt lat="-28.482215" lon="-65.64939">
        <ele>636.9</ele>
        <time>2018-08-18T12:27:48Z</time>
      </trkpt>
      <trkpt lat="-28.48216" lon="-65.649315">
        <ele>637.5</ele>
        <time>2018-08-18T12:27:50Z</time>
      </trkpt>
      <trkpt lat="-28.482105" lon="-65.64923">
        <ele>638.1</ele>
        <time>2018-08-18T12:27:52Z</time>
      </trkpt>
      <trkpt lat="-28.482025" lon="-65.649185">
        <ele>638.5</ele>
        <time>2018-08-18T12:27:54Z</time>
      </trkpt>
      <trkpt lat="-28.481925" lon="-65.649165">
        <ele>639.1</ele>
        <time>2018-08-18T12:27:56Z</time>
      </trkpt>
      <trkpt lat="-28.48183" lon="-65.649145">
        <ele>640.6</ele>
        <time>2018-08-18T12:27:58Z</time>
      </trkpt>
      <trkpt lat="-28.481745" lon="-65.649135">
        <ele>641.4</ele>
        <time>2018-08-18T12:28:00Z</time>
      </trkpt>
      <trkpt lat="-28.481645" lon="-65.6491">
        <ele>641.6</ele>
        <time>2018-08-18T12:28:03Z</time>
      </trkpt>
      <trkpt lat="-28.481575" lon="-65.64906333333333">
        <ele>641.8</ele>
        <time>2018-08-18T12:28:05Z</time>
      </trkpt>
      <trkpt lat="-28.48151" lon="-65.64904">
        <ele>642.0</ele>
        <time>2018-08-18T12:28:07Z</time>
      </trkpt>
      <trkpt lat="-28.481445" lon="-65.648995">
        <ele>642.2</ele>
        <time>2018-08-18T12:28:09Z</time>
      </trkpt>
      <trkpt lat="-28.48138" lon="-65.648965">
        <ele>643.4</ele>
        <time>2018-08-18T12:28:11Z</time>
      </trkpt>
      <trkpt lat="-28.48131" lon="-65.64892">
        <ele>644.8</ele>
        <time>2018-08-18T12:28:13Z</time>
      </trkpt>
      <trkpt lat="-28.48124" lon="-65.648885">
        <ele>645.6</ele>
        <time>2018-08-18T12:28:15Z</time>
      </trkpt>
      <trkpt lat="-28.48117" lon="-65.64883166666667">
        <ele>646.2</ele>
        <time>2018-08-18T12:28:17Z</time>
      </trkpt>
      <trkpt lat="-28.481105" lon="-65.64879">
        <ele>646.6</ele>
        <time>2018-08-18T12:28:19Z</time>
      </trkpt>
      <trkpt lat="-28.481035" lon="-65.64875166666667">
        <ele>646.9</ele>
        <time>2018-08-18T12:28:21Z</time>
      </trkpt>
      <trkpt lat="-28.48094" lon="-65.648705">
        <ele>646.9</ele>
        <time>2018-08-18T12:28:24Z</time>
      </trkpt>
      <trkpt lat="-28.48086" lon="-65.64866">
        <ele>646.9</ele>
        <time>2018-08-18T12:28:27Z</time>
      </trkpt>
      <trkpt lat="-28.48079" lon="-65.64861166666667">
        <ele>647.0</ele>
        <time>2018-08-18T12:28:30Z</time>
      </trkpt>
      <trkpt lat="-28.48073" lon="-65.648565">
        <ele>646.8</ele>
        <time>2018-08-18T12:28:33Z</time>
      </trkpt>
      <trkpt lat="-28.480655" lon="-65.64851">
        <ele>646.5</ele>
        <time>2018-08-18T12:28:37Z</time>
      </trkpt>
      <trkpt lat="-28.48059" lon="-65.64846">
        <ele>645.9</ele>
        <time>2018-08-18T12:28:40Z</time>
      </trkpt>
      <trkpt lat="-28.48051" lon="-65.648425">
        <ele>645.9</ele>
        <time>2018-08-18T12:28:44Z</time>
      </trkpt>
      <trkpt lat="-28.480435" lon="-65.648375">
        <ele>645.8</ele>
        <time>2018-08-18T12:28:47Z</time>
      </trkpt>
      <trkpt lat="-28.480165" lon="-65.648165">
        <ele>643.2</ele>
        <time>2018-08-18T12:28:54Z</time>
      </trkpt>
      <trkpt lat="-28.48005" lon="-65.64815">
        <ele>640.4</ele>
        <time>2018-08-18T12:28:56Z</time>
      </trkpt>
      <trkpt lat="-28.479975" lon="-65.648115">
        <ele>639.9</ele>
        <time>2018-08-18T12:28:58Z</time>
      </trkpt>
      <trkpt lat="-28.47994" lon="-65.64799166666667">
        <ele>619.5</ele>
        <time>2018-08-18T12:29:00Z</time>
      </trkpt>
      <trkpt lat="-28.480005" lon="-65.648055">
        <ele>607.2</ele>
        <time>2018-08-18T12:29:04Z</time>
      </trkpt>
      <trkpt lat="-28.47992" lon="-65.648025">
        <ele>607.7</ele>
        <time>2018-08-18T12:29:08Z</time>
      </trkpt>
      <trkpt lat="-28.47985" lon="-65.647985">
        <ele>608.4</ele>
        <time>2018-08-18T12:29:10Z</time>
      </trkpt>
      <trkpt lat="-28.479755" lon="-65.64794">
        <ele>609.7</ele>
        <time>2018-08-18T12:29:13Z</time>
      </trkpt>
      <trkpt lat="-28.479665" lon="-65.6479">
        <ele>611.0</ele>
        <time>2018-08-18T12:29:16Z</time>
      </trkpt>
      <trkpt lat="-28.47958" lon="-65.64785">
        <ele>612.3</ele>
        <time>2018-08-18T12:29:19Z</time>
      </trkpt>
      <trkpt lat="-28.479485" lon="-65.647805">
        <ele>613.6</ele>
        <time>2018-08-18T12:29:22Z</time>
      </trkpt>
      <trkpt lat="-28.479405" lon="-65.64776">
        <ele>614.9</ele>
        <time>2018-08-18T12:29:25Z</time>
      </trkpt>
      <trkpt lat="-28.47932" lon="-65.64771">
        <ele>616.3</ele>
        <time>2018-08-18T12:29:28Z</time>
      </trkpt>
      <trkpt lat="-28.479235" lon="-65.64766">
        <ele>617.6</ele>
        <time>2018-08-18T12:29:31Z</time>
      </trkpt>
      <trkpt lat="-28.479145" lon="-65.647615">
        <ele>618.8</ele>
        <time>2018-08-18T12:29:34Z</time>
      </trkpt>
      <trkpt lat="-28.479055" lon="-65.64756">
        <ele>620.0</ele>
        <time>2018-08-18T12:29:37Z</time>
      </trkpt>
      <trkpt lat="-28.478985" lon="-65.647525">
        <ele>620.8</ele>
        <time>2018-08-18T12:29:39Z</time>
      </trkpt>
      <trkpt lat="-28.47892" lon="-65.647485">
        <ele>621.6</ele>
        <time>2018-08-18T12:29:41Z</time>
      </trkpt>
      <trkpt lat="-28.47883" lon="-65.64744">
        <ele>622.7</ele>
        <time>2018-08-18T12:29:44Z</time>
      </trkpt>
      <trkpt lat="-28.478735" lon="-65.64739">
        <ele>623.9</ele>
        <time>2018-08-18T12:29:47Z</time>
      </trkpt>
      <trkpt lat="-28.478655" lon="-65.64735">
        <ele>624.9</ele>
        <time>2018-08-18T12:29:50Z</time>
      </trkpt>
      <trkpt lat="-28.478575" lon="-65.647305">
        <ele>625.9</ele>
        <time>2018-08-18T12:29:53Z</time>
      </trkpt>
      <trkpt lat="-28.478475" lon="-65.64725">
        <ele>626.8</ele>
        <time>2018-08-18T12:29:56Z</time>
      </trkpt>
      <trkpt lat="-28.47839" lon="-65.647195">
        <ele>627.7</ele>
        <time>2018-08-18T12:29:59Z</time>
      </trkpt>
      <trkpt lat="-28.47831" lon="-65.647155">
        <ele>628.5</ele>
        <time>2018-08-18T12:30:02Z</time>
      </trkpt>
      <trkpt lat="-28.47823" lon="-65.64709">
        <ele>629.4</ele>
        <time>2018-08-18T12:30:05Z</time>
      </trkpt>
      <trkpt lat="-28.47815" lon="-65.647045">
        <ele>630.1</ele>
        <time>2018-08-18T12:30:08Z</time>
      </trkpt>
      <trkpt lat="-28.47806" lon="-65.646995">
        <ele>630.7</ele>
        <time>2018-08-18T12:30:11Z</time>
      </trkpt>
      <trkpt lat="-28.477965" lon="-65.64695">
        <ele>631.2</ele>
        <time>2018-08-18T12:30:14Z</time>
      </trkpt>
      <trkpt lat="-28.47788" lon="-65.646885">
        <ele>631.8</ele>
        <time>2018-08-18T12:30:17Z</time>
      </trkpt>
      <trkpt lat="-28.477795" lon="-65.64682666666667">
        <ele>632.2</ele>
        <time>2018-08-18T12:30:20Z</time>
      </trkpt>
      <trkpt lat="-28.477705" lon="-65.646775">
        <ele>632.6</ele>
        <time>2018-08-18T12:30:23Z</time>
      </trkpt>
      <trkpt lat="-28.47761" lon="-65.646725">
        <ele>632.9</ele>
        <time>2018-08-18T12:30:26Z</time>
      </trkpt>
      <trkpt lat="-28.47754" lon="-65.64669">
        <ele>633.2</ele>
        <time>2018-08-18T12:30:28Z</time>
      </trkpt>
      <trkpt lat="-28.477445" lon="-65.646635">
        <ele>633.6</ele>
        <time>2018-08-18T12:30:31Z</time>
      </trkpt>
      <trkpt lat="-28.47738" lon="-65.646595">
        <ele>633.8</ele>
        <time>2018-08-18T12:30:33Z</time>
      </trkpt>
      <trkpt lat="-28.477315" lon="-65.64655666666667">
        <ele>634.0</ele>
        <time>2018-08-18T12:30:35Z</time>
      </trkpt>
      <trkpt lat="-28.477215" lon="-65.64651">
        <ele>634.4</ele>
        <time>2018-08-18T12:30:38Z</time>
      </trkpt>
      <trkpt lat="-28.477125" lon="-65.646455">
        <ele>634.7</ele>
        <time>2018-08-18T12:30:41Z</time>
      </trkpt>
      <trkpt lat="-28.477028333333333" lon="-65.646405">
        <ele>635.0</ele>
        <time>2018-08-18T12:30:44Z</time>
      </trkpt>
      <trkpt lat="-28.47695" lon="-65.64635">
        <ele>635.3</ele>
        <time>2018-08-18T12:30:47Z</time>
      </trkpt>
      <trkpt lat="-28.47686" lon="-65.646285">
        <ele>635.6</ele>
        <time>2018-08-18T12:30:50Z</time>
      </trkpt>
      <trkpt lat="-28.47676" lon="-65.64623">
        <ele>635.9</ele>
        <time>2018-08-18T12:30:53Z</time>
      </trkpt>
      <trkpt lat="-28.476675" lon="-65.64618">
        <ele>636.1</ele>
        <time>2018-08-18T12:30:56Z</time>
      </trkpt>
      <trkpt lat="-28.476585" lon="-65.64614">
        <ele>636.4</ele>
        <time>2018-08-18T12:30:59Z</time>
      </trkpt>
      <trkpt lat="-28.47649" lon="-65.64609">
        <ele>636.6</ele>
        <time>2018-08-18T12:31:02Z</time>
      </trkpt>
      <trkpt lat="-28.476395" lon="-65.64602666666667">
        <ele>636.9</ele>
        <time>2018-08-18T12:31:05Z</time>
      </trkpt>
      <trkpt lat="-28.476295" lon="-65.64597166666667">
        <ele>637.1</ele>
        <time>2018-08-18T12:31:08Z</time>
      </trkpt>
      <trkpt lat="-28.476205" lon="-65.64592">
        <ele>637.3</ele>
        <time>2018-08-18T12:31:11Z</time>
      </trkpt>
      <trkpt lat="-28.476125" lon="-65.645875">
        <ele>637.4</ele>
        <time>2018-08-18T12:31:14Z</time>
      </trkpt>
      <trkpt lat="-28.47604" lon="-65.645815">
        <ele>637.6</ele>
        <time>2018-08-18T12:31:17Z</time>
      </trkpt>
      <trkpt lat="-28.47597" lon="-65.645785">
        <ele>637.7</ele>
        <time>2018-08-18T12:31:19Z</time>
      </trkpt>
      <trkpt lat="-28.475885" lon="-65.64573">
        <ele>637.8</ele>
        <time>2018-08-18T12:31:22Z</time>
      </trkpt>
      <trkpt lat="-28.475795" lon="-65.645675">
        <ele>637.9</ele>
        <time>2018-08-18T12:31:25Z</time>
      </trkpt>
      <trkpt lat="-28.4757" lon="-65.64563">
        <ele>638.0</ele>
        <time>2018-08-18T12:31:28Z</time>
      </trkpt>
      <trkpt lat="-28.47562" lon="-65.64559">
        <ele>638.1</ele>
        <time>2018-08-18T12:31:31Z</time>
      </trkpt>
      <trkpt lat="-28.475535" lon="-65.64555">
        <ele>638.2</ele>
        <time>2018-08-18T12:31:34Z</time>
      </trkpt>
      <trkpt lat="-28.475455" lon="-65.645515">
        <ele>638.2</ele>
        <time>2018-08-18T12:31:37Z</time>
      </trkpt>
      <trkpt lat="-28.475385" lon="-65.645495">
        <ele>638.2</ele>
        <time>2018-08-18T12:31:39Z</time>
      </trkpt>
      <trkpt lat="-28.475285" lon="-65.64547">
        <ele>638.1</ele>
        <time>2018-08-18T12:31:42Z</time>
      </trkpt>
      <trkpt lat="-28.475195" lon="-65.645435">
        <ele>638.0</ele>
        <time>2018-08-18T12:31:45Z</time>
      </trkpt>
      <trkpt lat="-28.47512" lon="-65.64542">
        <ele>638.0</ele>
        <time>2018-08-18T12:31:47Z</time>
      </trkpt>
      <trkpt lat="-28.47502" lon="-65.64541">
        <ele>638.0</ele>
        <time>2018-08-18T12:31:50Z</time>
      </trkpt>
      <trkpt lat="-28.474915" lon="-65.645385">
        <ele>638.1</ele>
        <time>2018-08-18T12:31:53Z</time>
      </trkpt>
      <trkpt lat="-28.474825" lon="-65.645365">
        <ele>638.3</ele>
        <time>2018-08-18T12:31:56Z</time>
      </trkpt>
      <trkpt lat="-28.474735" lon="-65.64534">
        <ele>638.4</ele>
        <time>2018-08-18T12:31:59Z</time>
      </trkpt>
      <trkpt lat="-28.474635" lon="-65.64532">
        <ele>638.5</ele>
        <time>2018-08-18T12:32:02Z</time>
      </trkpt>
      <trkpt lat="-28.474525" lon="-65.6453">
        <ele>638.6</ele>
        <time>2018-08-18T12:32:05Z</time>
      </trkpt>
      <trkpt lat="-28.47445" lon="-65.64529">
        <ele>638.7</ele>
        <time>2018-08-18T12:32:07Z</time>
      </trkpt>
      <trkpt lat="-28.474345" lon="-65.645255">
        <ele>638.8</ele>
        <time>2018-08-18T12:32:10Z</time>
      </trkpt>
      <trkpt lat="-28.47426" lon="-65.645255">
        <ele>639.2</ele>
        <time>2018-08-18T12:32:12Z</time>
      </trkpt>
      <trkpt lat="-28.47419" lon="-65.645245">
        <ele>639.4</ele>
        <time>2018-08-18T12:32:14Z</time>
      </trkpt>
      <trkpt lat="-28.474071666666667" lon="-65.645225">
        <ele>639.6</ele>
        <time>2018-08-18T12:32:17Z</time>
      </trkpt>
      <trkpt lat="-28.47399" lon="-65.64520666666667">
        <ele>639.8</ele>
        <time>2018-08-18T12:32:20Z</time>
      </trkpt>
      <trkpt lat="-28.47388" lon="-65.64520666666667">
        <ele>640.0</ele>
        <time>2018-08-18T12:32:23Z</time>
      </trkpt>
      <trkpt lat="-28.47379" lon="-65.645225">
        <ele>640.1</ele>
        <time>2018-08-18T12:32:26Z</time>
      </trkpt>
      <trkpt lat="-28.47369" lon="-65.645255">
        <ele>640.3</ele>
        <time>2018-08-18T12:32:29Z</time>
      </trkpt>
      <trkpt lat="-28.473605" lon="-65.6453">
        <ele>640.5</ele>
        <time>2018-08-18T12:32:32Z</time>
      </trkpt>
      <trkpt lat="-28.473515" lon="-65.64534">
        <ele>640.7</ele>
        <time>2018-08-18T12:32:35Z</time>
      </trkpt>
      <trkpt lat="-28.47343" lon="-65.645385">
        <ele>640.9</ele>
        <time>2018-08-18T12:32:38Z</time>
      </trkpt>
      <trkpt lat="-28.47336" lon="-65.64545">
        <ele>641.1</ele>
        <time>2018-08-18T12:32:41Z</time>
      </trkpt>
      <trkpt lat="-28.473295" lon="-65.645515">
        <ele>641.2</ele>
        <time>2018-08-18T12:32:44Z</time>
      </trkpt>
      <trkpt lat="-28.47325" lon="-65.64557666666667">
        <ele>641.3</ele>
        <time>2018-08-18T12:32:47Z</time>
      </trkpt>
      <trkpt lat="-28.473215" lon="-65.64566">
        <ele>641.4</ele>
        <time>2018-08-18T12:32:50Z</time>
      </trkpt>
      <trkpt lat="-28.47317" lon="-65.64575">
        <ele>641.3</ele>
        <time>2018-08-18T12:32:53Z</time>
      </trkpt>
      <trkpt lat="-28.473135" lon="-65.645835">
        <ele>641.4</ele>
        <time>2018-08-18T12:32:56Z</time>
      </trkpt>
      <trkpt lat="-28.473115" lon="-65.64591">
        <ele>641.3</ele>
        <time>2018-08-18T12:32:59Z</time>
      </trkpt>
      <trkpt lat="-28.473085" lon="-65.64598166666667">
        <ele>641.3</ele>
        <time>2018-08-18T12:33:02Z</time>
      </trkpt>
      <trkpt lat="-28.47305" lon="-65.64606">
        <ele>641.2</ele>
        <time>2018-08-18T12:33:05Z</time>
      </trkpt>
      <trkpt lat="-28.473015" lon="-65.646145">
        <ele>641.3</ele>
        <time>2018-08-18T12:33:08Z</time>
      </trkpt>
      <trkpt lat="-28.472975" lon="-65.646225">
        <ele>641.4</ele>
        <time>2018-08-18T12:33:11Z</time>
      </trkpt>
      <trkpt lat="-28.472935" lon="-65.64628666666667">
        <ele>641.4</ele>
        <time>2018-08-18T12:33:14Z</time>
      </trkpt>
      <trkpt lat="-28.472915" lon="-65.64639">
        <ele>641.6</ele>
        <time>2018-08-18T12:33:18Z</time>
      </trkpt>
      <trkpt lat="-28.47288" lon="-65.646465">
        <ele>641.8</ele>
        <time>2018-08-18T12:33:22Z</time>
      </trkpt>
      <trkpt lat="-28.472845" lon="-65.646575">
        <ele>641.9</ele>
        <time>2018-08-18T12:33:26Z</time>
      </trkpt>
      <trkpt lat="-28.47281" lon="-65.646675">
        <ele>641.8</ele>
        <time>2018-08-18T12:33:30Z</time>
      </trkpt>
      <trkpt lat="-28.472755" lon="-65.646765">
        <ele>641.8</ele>
        <time>2018-08-18T12:33:34Z</time>
      </trkpt>
      <trkpt lat="-28.4727" lon="-65.64685">
        <ele>641.8</ele>
        <time>2018-08-18T12:33:37Z</time>
      </trkpt>
      <trkpt lat="-28.472645" lon="-65.646935">
        <ele>641.7</ele>
        <time>2018-08-18T12:33:40Z</time>
      </trkpt>
      <trkpt lat="-28.472585" lon="-65.647025">
        <ele>641.7</ele>
        <time>2018-08-18T12:33:43Z</time>
      </trkpt>
      <trkpt lat="-28.472515" lon="-65.64709333333333">
        <ele>641.4</ele>
        <time>2018-08-18T12:33:45Z</time>
      </trkpt>
      <trkpt lat="-28.472455" lon="-65.647155">
        <ele>640.8</ele>
        <time>2018-08-18T12:33:47Z</time>
      </trkpt>
      <trkpt lat="-28.472375" lon="-65.647225">
        <ele>641.1</ele>
        <time>2018-08-18T12:33:49Z</time>
      </trkpt>
      <trkpt lat="-28.47229" lon="-65.64727666666667">
        <ele>642.8</ele>
        <time>2018-08-18T12:33:51Z</time>
      </trkpt>
      <trkpt lat="-28.472205" lon="-65.64727">
        <ele>643.3</ele>
        <time>2018-08-18T12:33:54Z</time>
      </trkpt>
      <trkpt lat="-28.472175" lon="-65.64718166666667">
        <ele>643.4</ele>
        <time>2018-08-18T12:33:56Z</time>
      </trkpt>
      <trkpt lat="-28.471975" lon="-65.647385">
        <ele>639.4</ele>
        <time>2018-08-18T12:33:59Z</time>
      </trkpt>
      <trkpt lat="-28.471875" lon="-65.64754166666667">
        <ele>637.0</ele>
        <time>2018-08-18T12:34:01Z</time>
      </trkpt>
      <trkpt lat="-28.47176" lon="-65.64752">
        <ele>637.1</ele>
        <time>2018-08-18T12:34:03Z</time>
      </trkpt>
      <trkpt lat="-28.47167" lon="-65.647525">
        <ele>636.7</ele>
        <time>2018-08-18T12:34:05Z</time>
      </trkpt>
      <trkpt lat="-28.471545" lon="-65.64742">
        <ele>637.1</ele>
        <time>2018-08-18T12:34:07Z</time>
      </trkpt>
      <trkpt lat="-28.47146" lon="-65.647375">
        <ele>639.6</ele>
        <time>2018-08-18T12:34:10Z</time>
      </trkpt>
      <trkpt lat="-28.47139" lon="-65.64745">
        <ele>638.0</ele>
        <time>2018-08-18T12:34:11Z</time>
      </trkpt>
      <trkpt lat="-28.47129" lon="-65.647485">
        <ele>636.5</ele>
        <time>2018-08-18T12:34:13Z</time>
      </trkpt>
      <trkpt lat="-28.471185" lon="-65.647475">
        <ele>634.9</ele>
        <time>2018-08-18T12:34:15Z</time>
      </trkpt>
      <trkpt lat="-28.471105" lon="-65.64745">
        <ele>635.2</ele>
        <time>2018-08-18T12:34:17Z</time>
      </trkpt>
      <trkpt lat="-28.471" lon="-65.64740833333333">
        <ele>635.8</ele>
        <time>2018-08-18T12:34:20Z</time>
      </trkpt>
      <trkpt lat="-28.470925" lon="-65.647385">
        <ele>636.9</ele>
        <time>2018-08-18T12:34:22Z</time>
      </trkpt>
      <trkpt lat="-28.470855" lon="-65.647345">
        <ele>638.1</ele>
        <time>2018-08-18T12:34:24Z</time>
      </trkpt>
      <trkpt lat="-28.470785" lon="-65.64731">
        <ele>639.4</ele>
        <time>2018-08-18T12:34:26Z</time>
      </trkpt>
      <trkpt lat="-28.470715" lon="-65.64727">
        <ele>641.6</ele>
        <time>2018-08-18T12:34:28Z</time>
      </trkpt>
      <trkpt lat="-28.470645" lon="-65.647225">
        <ele>642.5</ele>
        <time>2018-08-18T12:34:30Z</time>
      </trkpt>
      <trkpt lat="-28.47057" lon="-65.647195">
        <ele>642.6</ele>
        <time>2018-08-18T12:34:32Z</time>
      </trkpt>
      <trkpt lat="-28.470475" lon="-65.64713">
        <ele>642.8</ele>
        <time>2018-08-18T12:34:35Z</time>
      </trkpt>
      <trkpt lat="-28.470405" lon="-65.647085">
        <ele>642.9</ele>
        <time>2018-08-18T12:34:37Z</time>
      </trkpt>
      <trkpt lat="-28.47031" lon="-65.64704">
        <ele>643.2</ele>
        <time>2018-08-18T12:34:40Z</time>
      </trkpt>
      <trkpt lat="-28.470235" lon="-65.646995">
        <ele>643.3</ele>
        <time>2018-08-18T12:34:43Z</time>
      </trkpt>
      <trkpt lat="-28.470155" lon="-65.64695">
        <ele>643.6</ele>
        <time>2018-08-18T12:34:46Z</time>
      </trkpt>
      <trkpt lat="-28.47007" lon="-65.646915">
        <ele>643.9</ele>
        <time>2018-08-18T12:34:49Z</time>
      </trkpt>
      <trkpt lat="-28.469975" lon="-65.646895">
        <ele>644.1</ele>
        <time>2018-08-18T12:34:52Z</time>
      </trkpt>
      <trkpt lat="-28.46989" lon="-65.646885">
        <ele>644.3</ele>
        <time>2018-08-18T12:34:55Z</time>
      </trkpt>
      <trkpt lat="-28.46978" lon="-65.646885">
        <ele>644.5</ele>
        <time>2018-08-18T12:34:58Z</time>
      </trkpt>
      <trkpt lat="-28.469675" lon="-65.646895">
        <ele>644.9</ele>
        <time>2018-08-18T12:35:01Z</time>
      </trkpt>
      <trkpt lat="-28.469575" lon="-65.6469">
        <ele>645.4</ele>
        <time>2018-08-18T12:35:04Z</time>
      </trkpt>
      <trkpt lat="-28.46949" lon="-65.6469">
        <ele>646.0</ele>
        <time>2018-08-18T12:35:07Z</time>
      </trkpt>
      <trkpt lat="-28.46941" lon="-65.646905">
        <ele>646.3</ele>
        <time>2018-08-18T12:35:10Z</time>
      </trkpt>
      <trkpt lat="-28.46931" lon="-65.646905">
        <ele>646.6</ele>
        <time>2018-08-18T12:35:13Z</time>
      </trkpt>
      <trkpt lat="-28.469205" lon="-65.646905">
        <ele>647.0</ele>
        <time>2018-08-18T12:35:16Z</time>
      </trkpt>
      <trkpt lat="-28.46911" lon="-65.646905">
        <ele>647.5</ele>
        <time>2018-08-18T12:35:19Z</time>
      </trkpt>
      <trkpt lat="-28.469025" lon="-65.646915">
        <ele>648.0</ele>
        <time>2018-08-18T12:35:22Z</time>
      </trkpt>
      <trkpt lat="-28.46892" lon="-65.646915">
        <ele>648.5</ele>
        <time>2018-08-18T12:35:25Z</time>
      </trkpt>
      <trkpt lat="-28.468835" lon="-65.646915">
        <ele>648.8</ele>
        <time>2018-08-18T12:35:28Z</time>
      </trkpt>
      <trkpt lat="-28.468745" lon="-65.646915">
        <ele>649.1</ele>
        <time>2018-08-18T12:35:31Z</time>
      </trkpt>
      <trkpt lat="-28.46866" lon="-65.646905">
        <ele>649.3</ele>
        <time>2018-08-18T12:35:34Z</time>
      </trkpt>
      <trkpt lat="-28.468575" lon="-65.646895">
        <ele>649.6</ele>
        <time>2018-08-18T12:35:37Z</time>
      </trkpt>
      <trkpt lat="-28.468485" lon="-65.64686">
        <ele>649.8</ele>
        <time>2018-08-18T12:35:40Z</time>
      </trkpt>
      <trkpt lat="-28.46839" lon="-65.64682">
        <ele>650.0</ele>
        <time>2018-08-18T12:35:43Z</time>
      </trkpt>
      <trkpt lat="-28.468305" lon="-65.64677">
        <ele>650.0</ele>
        <time>2018-08-18T12:35:46Z</time>
      </trkpt>
      <trkpt lat="-28.468235" lon="-65.646725">
        <ele>649.9</ele>
        <time>2018-08-18T12:35:48Z</time>
      </trkpt>
      <trkpt lat="-28.46816" lon="-65.64669">
        <ele>649.9</ele>
        <time>2018-08-18T12:35:51Z</time>
      </trkpt>
      <trkpt lat="-28.46808" lon="-65.646645">
        <ele>649.7</ele>
        <time>2018-08-18T12:35:54Z</time>
      </trkpt>
      <trkpt lat="-28.468005" lon="-65.64662">
        <ele>649.4</ele>
        <time>2018-08-18T12:35:57Z</time>
      </trkpt>
      <trkpt lat="-28.467915" lon="-65.646575">
        <ele>649.1</ele>
        <time>2018-08-18T12:36:00Z</time>
      </trkpt>
      <trkpt lat="-28.46782" lon="-65.646535">
        <ele>648.9</ele>
        <time>2018-08-18T12:36:03Z</time>
      </trkpt>
      <trkpt lat="-28.467745" lon="-65.6465">
        <ele>648.7</ele>
        <time>2018-08-18T12:36:05Z</time>
      </trkpt>
      <trkpt lat="-28.467665" lon="-65.646455">
        <ele>648.5</ele>
        <time>2018-08-18T12:36:08Z</time>
      </trkpt>
      <trkpt lat="-28.467575" lon="-65.646405">
        <ele>648.3</ele>
        <time>2018-08-18T12:36:11Z</time>
      </trkpt>
      <trkpt lat="-28.467485" lon="-65.64637">
        <ele>648.1</ele>
        <time>2018-08-18T12:36:14Z</time>
      </trkpt>
      <trkpt lat="-28.467405" lon="-65.646325">
        <ele>647.9</ele>
        <time>2018-08-18T12:36:17Z</time>
      </trkpt>
      <trkpt lat="-28.467315" lon="-65.646275">
        <ele>647.8</ele>
        <time>2018-08-18T12:36:20Z</time>
      </trkpt>
      <trkpt lat="-28.46724" lon="-65.64622">
        <ele>647.8</ele>
        <time>2018-08-18T12:36:23Z</time>
      </trkpt>
      <trkpt lat="-28.467154999999998" lon="-65.646145">
        <ele>647.7</ele>
        <time>2018-08-18T12:36:26Z</time>
      </trkpt>
      <trkpt lat="-28.46708" lon="-65.64608">
        <ele>647.7</ele>
        <time>2018-08-18T12:36:29Z</time>
      </trkpt>
      <trkpt lat="-28.467015" lon="-65.64597666666667">
        <ele>647.8</ele>
        <time>2018-08-18T12:36:32Z</time>
      </trkpt>
      <trkpt lat="-28.46696" lon="-65.64588166666667">
        <ele>647.9</ele>
        <time>2018-08-18T12:36:35Z</time>
      </trkpt>
      <trkpt lat="-28.46691" lon="-65.645785">
        <ele>648.1</ele>
        <time>2018-08-18T12:36:38Z</time>
      </trkpt>
      <trkpt lat="-28.46686" lon="-65.645675">
        <ele>648.1</ele>
        <time>2018-08-18T12:36:41Z</time>
      </trkpt>
      <trkpt lat="-28.466815" lon="-65.645605">
        <ele>648.3</ele>
        <time>2018-08-18T12:36:43Z</time>
      </trkpt>
      <trkpt lat="-28.46677" lon="-65.645525">
        <ele>648.4</ele>
        <time>2018-08-18T12:36:45Z</time>
      </trkpt>
      <trkpt lat="-28.466725" lon="-65.64546">
        <ele>648.6</ele>
        <time>2018-08-18T12:36:47Z</time>
      </trkpt>
      <trkpt lat="-28.46668" lon="-65.64534833333333">
        <ele>648.7</ele>
        <time>2018-08-18T12:36:50Z</time>
      </trkpt>
      <trkpt lat="-28.46663" lon="-65.645255">
        <ele>648.7</ele>
        <time>2018-08-18T12:36:53Z</time>
      </trkpt>
      <trkpt lat="-28.46657" lon="-65.64516">
        <ele>648.7</ele>
        <time>2018-08-18T12:36:56Z</time>
      </trkpt>
      <trkpt lat="-28.4665" lon="-65.645055">
        <ele>648.8</ele>
        <time>2018-08-18T12:36:59Z</time>
      </trkpt>
      <trkpt lat="-28.46644" lon="-65.64497">
        <ele>648.8</ele>
        <time>2018-08-18T12:37:02Z</time>
      </trkpt>
      <trkpt lat="-28.46638" lon="-65.64489">
        <ele>648.9</ele>
        <time>2018-08-18T12:37:05Z</time>
      </trkpt>
      <trkpt lat="-28.466325" lon="-65.64483">
        <ele>648.9</ele>
        <time>2018-08-18T12:37:09Z</time>
      </trkpt>
      <trkpt lat="-28.46626" lon="-65.64476833333333">
        <ele>649.0</ele>
        <time>2018-08-18T12:37:13Z</time>
      </trkpt>
      <trkpt lat="-28.46618" lon="-65.644755">
        <ele>649.1</ele>
        <time>2018-08-18T12:37:16Z</time>
      </trkpt>
      <trkpt lat="-28.46606" lon="-65.644755">
        <ele>649.8</ele>
        <time>2018-08-18T12:37:19Z</time>
      </trkpt>
      <trkpt lat="-28.46594" lon="-65.64476666666667">
        <ele>650.3</ele>
        <time>2018-08-18T12:37:21Z</time>
      </trkpt>
      <trkpt lat="-28.465813333333333" lon="-65.644795">
        <ele>649.9</ele>
        <time>2018-08-18T12:37:23Z</time>
      </trkpt>
      <trkpt lat="-28.46572" lon="-65.644805">
        <ele>649.0</ele>
        <time>2018-08-18T12:37:25Z</time>
      </trkpt>
      <trkpt lat="-28.465635" lon="-65.64483">
        <ele>648.9</ele>
        <time>2018-08-18T12:37:27Z</time>
      </trkpt>
      <trkpt lat="-28.46555" lon="-65.64485">
        <ele>648.9</ele>
        <time>2018-08-18T12:37:30Z</time>
      </trkpt>
      <trkpt lat="-28.465465000000002" lon="-65.64488">
        <ele>649.1</ele>
        <time>2018-08-18T12:37:34Z</time>
      </trkpt>
      <trkpt lat="-28.465385" lon="-65.64489">
        <ele>649.2</ele>
        <time>2018-08-18T12:37:39Z</time>
      </trkpt>
      <trkpt lat="-28.46529" lon="-65.644915">
        <ele>649.0</ele>
        <time>2018-08-18T12:37:43Z</time>
      </trkpt>
      <trkpt lat="-28.465205" lon="-65.644945">
        <ele>648.5</ele>
        <time>2018-08-18T12:37:48Z</time>
      </trkpt>
      <trkpt lat="-28.465135" lon="-65.644965">
        <ele>648.2</ele>
        <time>2018-08-18T12:37:51Z</time>
      </trkpt>
      <trkpt lat="-28.465055" lon="-65.64499">
        <ele>648.0</ele>
        <time>2018-08-18T12:37:54Z</time>
      </trkpt>
      <trkpt lat="-28.464975" lon="-65.645015">
        <ele>648.0</ele>
        <time>2018-08-18T12:37:57Z</time>
      </trkpt>
      <trkpt lat="-28.464885" lon="-65.64503">
        <ele>647.9</ele>
        <time>2018-08-18T12:38:01Z</time>
      </trkpt>
      <trkpt lat="-28.464805" lon="-65.645055">
        <ele>647.8</ele>
        <time>2018-08-18T12:38:04Z</time>
      </trkpt>
      <trkpt lat="-28.46472" lon="-65.645075">
        <ele>647.8</ele>
        <time>2018-08-18T12:38:07Z</time>
      </trkpt>
      <trkpt lat="-28.46464" lon="-65.645105">
        <ele>647.9</ele>
        <time>2018-08-18T12:38:10Z</time>
      </trkpt>
      <trkpt lat="-28.464565" lon="-65.64512333333333">
        <ele>647.9</ele>
        <time>2018-08-18T12:38:13Z</time>
      </trkpt>
      <trkpt lat="-28.464480000000002" lon="-65.64515">
        <ele>648.0</ele>
        <time>2018-08-18T12:38:16Z</time>
      </trkpt>
      <trkpt lat="-28.4644" lon="-65.645165">
        <ele>648.2</ele>
        <time>2018-08-18T12:38:19Z</time>
      </trkpt>
      <trkpt lat="-28.464315" lon="-65.645195">
        <ele>648.5</ele>
        <time>2018-08-18T12:38:22Z</time>
      </trkpt>
      <trkpt lat="-28.46422" lon="-65.645225">
        <ele>648.8</ele>
        <time>2018-08-18T12:38:25Z</time>
      </trkpt>
      <trkpt lat="-28.464145" lon="-65.645245">
        <ele>649.1</ele>
        <time>2018-08-18T12:38:28Z</time>
      </trkpt>
      <trkpt lat="-28.464065" lon="-65.64527">
        <ele>649.4</ele>
        <time>2018-08-18T12:38:31Z</time>
      </trkpt>
      <trkpt lat="-28.46399" lon="-65.64529">
        <ele>649.8</ele>
        <time>2018-08-18T12:38:34Z</time>
      </trkpt>
      <trkpt lat="-28.46392" lon="-65.64530666666667">
        <ele>650.1</ele>
        <time>2018-08-18T12:38:37Z</time>
      </trkpt>
      <trkpt lat="-28.46384" lon="-65.64534">
        <ele>650.5</ele>
        <time>2018-08-18T12:38:40Z</time>
      </trkpt>
      <trkpt lat="-28.463755" lon="-65.64535166666667">
        <ele>650.9</ele>
        <time>2018-08-18T12:38:44Z</time>
      </trkpt>
      <trkpt lat="-28.463675" lon="-65.64538">
        <ele>651.0</ele>
        <time>2018-08-18T12:38:47Z</time>
      </trkpt>
      <trkpt lat="-28.46359" lon="-65.645405">
        <ele>651.1</ele>
        <time>2018-08-18T12:38:50Z</time>
      </trkpt>
      <trkpt lat="-28.46351" lon="-65.64542">
        <ele>651.3</ele>
        <time>2018-08-18T12:38:53Z</time>
      </trkpt>
      <trkpt lat="-28.463445" lon="-65.64542333333333">
        <ele>651.6</ele>
        <time>2018-08-18T12:38:56Z</time>
      </trkpt>
      <trkpt lat="-28.46337" lon="-65.64545">
        <ele>651.9</ele>
        <time>2018-08-18T12:38:59Z</time>
      </trkpt>
      <trkpt lat="-28.463275" lon="-65.64548">
        <ele>652.1</ele>
        <time>2018-08-18T12:39:03Z</time>
      </trkpt>
      <trkpt lat="-28.46319" lon="-65.645505">
        <ele>651.9</ele>
        <time>2018-08-18T12:39:08Z</time>
      </trkpt>
      <trkpt lat="-28.463095" lon="-65.64552833333333">
        <ele>651.7</ele>
        <time>2018-08-18T12:39:12Z</time>
      </trkpt>
      <trkpt lat="-28.463025000000002" lon="-65.64556">
        <ele>651.6</ele>
        <time>2018-08-18T12:39:15Z</time>
      </trkpt>
      <trkpt lat="-28.46293" lon="-65.645575">
        <ele>651.4</ele>
        <time>2018-08-18T12:39:19Z</time>
      </trkpt>
      <trkpt lat="-28.46285" lon="-65.645605">
        <ele>651.3</ele>
        <time>2018-08-18T12:39:22Z</time>
      </trkpt>
      <trkpt lat="-28.46277" lon="-65.64563">
        <ele>651.5</ele>
        <time>2018-08-18T12:39:25Z</time>
      </trkpt>
      <trkpt lat="-28.46269" lon="-65.64565166666667">
        <ele>651.9</ele>
        <time>2018-08-18T12:39:28Z</time>
      </trkpt>
      <trkpt lat="-28.462615" lon="-65.64569">
        <ele>652.4</ele>
        <time>2018-08-18T12:39:31Z</time>
      </trkpt>
      <trkpt lat="-28.46254" lon="-65.64572">
        <ele>652.8</ele>
        <time>2018-08-18T12:39:34Z</time>
      </trkpt>
      <trkpt lat="-28.46247" lon="-65.64574">
        <ele>653.3</ele>
        <time>2018-08-18T12:39:37Z</time>
      </trkpt>
      <trkpt lat="-28.462385" lon="-65.64575333333333">
        <ele>653.6</ele>
        <time>2018-08-18T12:39:41Z</time>
      </trkpt>
      <trkpt lat="-28.4623" lon="-65.64579666666667">
        <ele>653.7</ele>
        <time>2018-08-18T12:39:45Z</time>
      </trkpt>
      <trkpt lat="-28.462215" lon="-65.64584">
        <ele>653.7</ele>
        <time>2018-08-18T12:39:49Z</time>
      </trkpt>
      <trkpt lat="-28.462135" lon="-65.645875">
        <ele>653.8</ele>
        <time>2018-08-18T12:39:52Z</time>
      </trkpt>
      <trkpt lat="-28.462061666666667" lon="-65.64591">
        <ele>654.0</ele>
        <time>2018-08-18T12:39:55Z</time>
      </trkpt>
      <trkpt lat="-28.462" lon="-65.645945">
        <ele>654.1</ele>
        <time>2018-08-18T12:39:58Z</time>
      </trkpt>
      <trkpt lat="-28.461935" lon="-65.64597166666667">
        <ele>654.2</ele>
        <time>2018-08-18T12:40:01Z</time>
      </trkpt>
      <trkpt lat="-28.461865" lon="-65.64601">
        <ele>654.3</ele>
        <time>2018-08-18T12:40:04Z</time>
      </trkpt>
      <trkpt lat="-28.46178" lon="-65.64606">
        <ele>654.6</ele>
        <time>2018-08-18T12:40:08Z</time>
      </trkpt>
      <trkpt lat="-28.461715" lon="-65.646095">
        <ele>654.8</ele>
        <time>2018-08-18T12:40:11Z</time>
      </trkpt>
      <trkpt lat="-28.461645" lon="-65.646125">
        <ele>655.1</ele>
        <time>2018-08-18T12:40:14Z</time>
      </trkpt>
      <trkpt lat="-28.46157" lon="-65.646165">
        <ele>655.4</ele>
        <time>2018-08-18T12:40:17Z</time>
      </trkpt>
      <trkpt lat="-28.461495" lon="-65.64619166666667">
        <ele>655.8</ele>
        <time>2018-08-18T12:40:20Z</time>
      </trkpt>
      <trkpt lat="-28.46142" lon="-65.64623">
        <ele>656.2</ele>
        <time>2018-08-18T12:40:23Z</time>
      </trkpt>
      <trkpt lat="-28.46135" lon="-65.646255">
        <ele>656.6</ele>
        <time>2018-08-18T12:40:26Z</time>
      </trkpt>
      <trkpt lat="-28.461265" lon="-65.64628833333333">
        <ele>657.0</ele>
        <time>2018-08-18T12:40:29Z</time>
      </trkpt>
      <trkpt lat="-28.461195" lon="-65.646325">
        <ele>657.5</ele>
        <time>2018-08-18T12:40:32Z</time>
      </trkpt>
      <trkpt lat="-28.461125" lon="-65.64637">
        <ele>658.0</ele>
        <time>2018-08-18T12:40:35Z</time>
      </trkpt>
      <trkpt lat="-28.46106" lon="-65.6464">
        <ele>658.5</ele>
        <time>2018-08-18T12:40:38Z</time>
      </trkpt>
      <trkpt lat="-28.46099" lon="-65.646435">
        <ele>658.9</ele>
        <time>2018-08-18T12:40:41Z</time>
      </trkpt>
      <trkpt lat="-28.46092" lon="-65.646455">
        <ele>659.3</ele>
        <time>2018-08-18T12:40:44Z</time>
      </trkpt>
      <trkpt lat="-28.46085" lon="-65.64649">
        <ele>659.6</ele>
        <time>2018-08-18T12:40:47Z</time>
      </trkpt>
      <trkpt lat="-28.46078" lon="-65.646535">
        <ele>660.0</ele>
        <time>2018-08-18T12:40:50Z</time>
      </trkpt>
      <trkpt lat="-28.46072" lon="-65.646575">
        <ele>660.3</ele>
        <time>2018-08-18T12:40:53Z</time>
      </trkpt>
      <trkpt lat="-28.460655" lon="-65.646615">
        <ele>660.7</ele>
        <time>2018-08-18T12:40:56Z</time>
      </trkpt>
      <trkpt lat="-28.460585000000002" lon="-65.64664">
        <ele>661.0</ele>
        <time>2018-08-18T12:40:59Z</time>
      </trkpt>
      <trkpt lat="-28.46052" lon="-65.64669">
        <ele>661.3</ele>
        <time>2018-08-18T12:41:02Z</time>
      </trkpt>
      <trkpt lat="-28.46045" lon="-65.646725">
        <ele>661.5</ele>
        <time>2018-08-18T12:41:05Z</time>
      </trkpt>
      <trkpt lat="-28.460385" lon="-65.64677">
        <ele>661.7</ele>
        <time>2018-08-18T12:41:08Z</time>
      </trkpt>
      <trkpt lat="-28.46031" lon="-65.64682166666667">
        <ele>661.9</ele>
        <time>2018-08-18T12:41:12Z</time>
      </trkpt>
      <trkpt lat="-28.460245" lon="-65.64687166666667">
        <ele>662.0</ele>
        <time>2018-08-18T12:41:15Z</time>
      </trkpt>
      <trkpt lat="-28.460165" lon="-65.646935">
        <ele>662.2</ele>
        <time>2018-08-18T12:41:19Z</time>
      </trkpt>
      <trkpt lat="-28.46009" lon="-65.64698">
        <ele>662.3</ele>
        <time>2018-08-18T12:41:23Z</time>
      </trkpt>
      <trkpt lat="-28.460015" lon="-65.647025">
        <ele>662.5</ele>
        <time>2018-08-18T12:41:27Z</time>
      </trkpt>
      <trkpt lat="-28.459935" lon="-65.647065">
        <ele>662.7</ele>
        <time>2018-08-18T12:41:31Z</time>
      </trkpt>
      <trkpt lat="-28.45985" lon="-65.647085">
        <ele>662.9</ele>
        <time>2018-08-18T12:41:35Z</time>
      </trkpt>
      <trkpt lat="-28.45976" lon="-65.64709333333333">
        <ele>662.8</ele>
        <time>2018-08-18T12:41:39Z</time>
      </trkpt>
      <trkpt lat="-28.459675" lon="-65.64709">
        <ele>662.6</ele>
        <time>2018-08-18T12:41:42Z</time>
      </trkpt>
      <trkpt lat="-28.459600000000002" lon="-65.647085">
        <ele>662.4</ele>
        <time>2018-08-18T12:41:45Z</time>
      </trkpt>
      <trkpt lat="-28.459525" lon="-65.647085">
        <ele>662.2</ele>
        <time>2018-08-18T12:41:48Z</time>
      </trkpt>
      <trkpt lat="-28.459445" lon="-65.647085">
        <ele>661.9</ele>
        <time>2018-08-18T12:41:51Z</time>
      </trkpt>
      <trkpt lat="-28.45937" lon="-65.647075">
        <ele>661.7</ele>
        <time>2018-08-18T12:41:54Z</time>
      </trkpt>
      <trkpt lat="-28.459295" lon="-65.647065">
        <ele>661.5</ele>
        <time>2018-08-18T12:41:57Z</time>
      </trkpt>
      <trkpt lat="-28.45922" lon="-65.64704666666667">
        <ele>661.3</ele>
        <time>2018-08-18T12:42:00Z</time>
      </trkpt>
      <trkpt lat="-28.45914" lon="-65.647045">
        <ele>661.2</ele>
        <time>2018-08-18T12:42:03Z</time>
      </trkpt>
      <trkpt lat="-28.45906" lon="-65.64704">
        <ele>661.0</ele>
        <time>2018-08-18T12:42:06Z</time>
      </trkpt>
      <trkpt lat="-28.45898" lon="-65.647025">
        <ele>660.9</ele>
        <time>2018-08-18T12:42:09Z</time>
      </trkpt>
      <trkpt lat="-28.458895" lon="-65.64701166666667">
        <ele>660.7</ele>
        <time>2018-08-18T12:42:12Z</time>
      </trkpt>
      <trkpt lat="-28.458805" lon="-65.647">
        <ele>660.6</ele>
        <time>2018-08-18T12:42:15Z</time>
      </trkpt>
      <trkpt lat="-28.458715" lon="-65.647">
        <ele>660.5</ele>
        <time>2018-08-18T12:42:18Z</time>
      </trkpt>
      <trkpt lat="-28.458635" lon="-65.647">
        <ele>660.4</ele>
        <time>2018-08-18T12:42:21Z</time>
      </trkpt>
      <trkpt lat="-28.45855" lon="-65.646995">
        <ele>660.4</ele>
        <time>2018-08-18T12:42:24Z</time>
      </trkpt>
      <trkpt lat="-28.458465" lon="-65.646985">
        <ele>660.6</ele>
        <time>2018-08-18T12:42:27Z</time>
      </trkpt>
      <trkpt lat="-28.45838" lon="-65.64698">
        <ele>660.8</ele>
        <time>2018-08-18T12:42:30Z</time>
      </trkpt>
      <trkpt lat="-28.458295" lon="-65.64696166666667">
        <ele>661.1</ele>
        <time>2018-08-18T12:42:33Z</time>
      </trkpt>
      <trkpt lat="-28.45822" lon="-65.64696">
        <ele>661.5</ele>
        <time>2018-08-18T12:42:36Z</time>
      </trkpt>
      <trkpt lat="-28.45814" lon="-65.64696">
        <ele>661.9</ele>
        <time>2018-08-18T12:42:39Z</time>
      </trkpt>
      <trkpt lat="-28.458045" lon="-65.64696">
        <ele>662.3</ele>
        <time>2018-08-18T12:42:43Z</time>
      </trkpt>
      <trkpt lat="-28.457965" lon="-65.64695">
        <ele>662.5</ele>
        <time>2018-08-18T12:42:46Z</time>
      </trkpt>
      <trkpt lat="-28.45788" lon="-65.64694">
        <ele>662.7</ele>
        <time>2018-08-18T12:42:50Z</time>
      </trkpt>
      <trkpt lat="-28.457805" lon="-65.64693">
        <ele>662.8</ele>
        <time>2018-08-18T12:42:53Z</time>
      </trkpt>
      <trkpt lat="-28.45773" lon="-65.646915">
        <ele>662.8</ele>
        <time>2018-08-18T12:42:56Z</time>
      </trkpt>
      <trkpt lat="-28.45765" lon="-65.646915">
        <ele>662.8</ele>
        <time>2018-08-18T12:42:59Z</time>
      </trkpt>
      <trkpt lat="-28.45757" lon="-65.646905">
        <ele>662.9</ele>
        <time>2018-08-18T12:43:02Z</time>
      </trkpt>
      <trkpt lat="-28.457495" lon="-65.646895">
        <ele>662.9</ele>
        <time>2018-08-18T12:43:05Z</time>
      </trkpt>
      <trkpt lat="-28.457425" lon="-65.646895">
        <ele>662.9</ele>
        <time>2018-08-18T12:43:08Z</time>
      </trkpt>
      <trkpt lat="-28.45734" lon="-65.64687166666667">
        <ele>662.9</ele>
        <time>2018-08-18T12:43:12Z</time>
      </trkpt>
      <trkpt lat="-28.45725" lon="-65.646865">
        <ele>662.8</ele>
        <time>2018-08-18T12:43:16Z</time>
      </trkpt>
      <trkpt lat="-28.457175" lon="-65.64686">
        <ele>662.8</ele>
        <time>2018-08-18T12:43:19Z</time>
      </trkpt>
      <trkpt lat="-28.4571" lon="-65.64686">
        <ele>662.8</ele>
        <time>2018-08-18T12:43:22Z</time>
      </trkpt>
      <trkpt lat="-28.45703" lon="-65.646855">
        <ele>662.8</ele>
        <time>2018-08-18T12:43:25Z</time>
      </trkpt>
      <trkpt lat="-28.45693" lon="-65.646845">
        <ele>662.9</ele>
        <time>2018-08-18T12:43:29Z</time>
      </trkpt>
      <trkpt lat="-28.456855" lon="-65.646825">
        <ele>662.8</ele>
        <time>2018-08-18T12:43:32Z</time>
      </trkpt>
      <trkpt lat="-28.456758333333333" lon="-65.64682">
        <ele>662.9</ele>
        <time>2018-08-18T12:43:35Z</time>
      </trkpt>
      <trkpt lat="-28.456685" lon="-65.646815">
        <ele>663.1</ele>
        <time>2018-08-18T12:43:38Z</time>
      </trkpt>
      <trkpt lat="-28.4566" lon="-65.6468">
        <ele>663.3</ele>
        <time>2018-08-18T12:43:41Z</time>
      </trkpt>
      <trkpt lat="-28.456515" lon="-65.64678666666667">
        <ele>663.7</ele>
        <time>2018-08-18T12:43:44Z</time>
      </trkpt>
      <trkpt lat="-28.456425" lon="-65.646775">
        <ele>664.0</ele>
        <time>2018-08-18T12:43:47Z</time>
      </trkpt>
      <trkpt lat="-28.45635" lon="-65.64676">
        <ele>664.4</ele>
        <time>2018-08-18T12:43:50Z</time>
      </trkpt>
      <trkpt lat="-28.456255" lon="-65.646735">
        <ele>664.9</ele>
        <time>2018-08-18T12:43:53Z</time>
      </trkpt>
      <trkpt lat="-28.45617" lon="-65.646715">
        <ele>665.4</ele>
        <time>2018-08-18T12:43:56Z</time>
      </trkpt>
      <trkpt lat="-28.45608" lon="-65.64668">
        <ele>665.9</ele>
        <time>2018-08-18T12:43:59Z</time>
      </trkpt>
      <trkpt lat="-28.45601" lon="-65.646635">
        <ele>666.3</ele>
        <time>2018-08-18T12:44:02Z</time>
      </trkpt>
      <trkpt lat="-28.455935" lon="-65.64659666666667">
        <ele>666.7</ele>
        <time>2018-08-18T12:44:05Z</time>
      </trkpt>
      <trkpt lat="-28.455855" lon="-65.646575">
        <ele>667.2</ele>
        <time>2018-08-18T12:44:08Z</time>
      </trkpt>
      <trkpt lat="-28.455795" lon="-65.64655">
        <ele>667.5</ele>
        <time>2018-08-18T12:44:11Z</time>
      </trkpt>
      <trkpt lat="-28.45572" lon="-65.64651166666667">
        <ele>667.9</ele>
        <time>2018-08-18T12:44:14Z</time>
      </trkpt>
      <trkpt lat="-28.45563" lon="-65.64648">
        <ele>668.4</ele>
        <time>2018-08-18T12:44:18Z</time>
      </trkpt>
      <trkpt lat="-28.455565" lon="-65.64645">
        <ele>668.8</ele>
        <time>2018-08-18T12:44:21Z</time>
      </trkpt>
      <trkpt lat="-28.45549" lon="-65.646405">
        <ele>669.1</ele>
        <time>2018-08-18T12:44:24Z</time>
      </trkpt>
      <trkpt lat="-28.45542" lon="-65.64637">
        <ele>669.5</ele>
        <time>2018-08-18T12:44:27Z</time>
      </trkpt>
      <trkpt lat="-28.455355" lon="-65.646325">
        <ele>669.8</ele>
        <time>2018-08-18T12:44:30Z</time>
      </trkpt>
      <trkpt lat="-28.455285" lon="-65.646255">
        <ele>670.1</ele>
        <time>2018-08-18T12:44:34Z</time>
      </trkpt>
      <trkpt lat="-28.455225" lon="-65.64618">
        <ele>670.3</ele>
        <time>2018-08-18T12:44:39Z</time>
      </trkpt>
      <trkpt lat="-28.45518" lon="-65.646105">
        <ele>670.5</ele>
        <time>2018-08-18T12:44:41Z</time>
      </trkpt>
      <trkpt lat="-28.45513" lon="-65.646055">
        <ele>670.6</ele>
        <time>2018-08-18T12:44:44Z</time>
      </trkpt>
      <trkpt lat="-28.45507" lon="-65.64596833333333">
        <ele>671.1</ele>
        <time>2018-08-18T12:44:48Z</time>
      </trkpt>
      <trkpt lat="-28.455015" lon="-65.64591">
        <ele>671.7</ele>
        <time>2018-08-18T12:44:51Z</time>
      </trkpt>
      <trkpt lat="-28.45496" lon="-65.64584166666667">
        <ele>672.1</ele>
        <time>2018-08-18T12:44:54Z</time>
      </trkpt>
      <trkpt lat="-28.45489" lon="-65.645775">
        <ele>672.4</ele>
        <time>2018-08-18T12:44:58Z</time>
      </trkpt>
      <trkpt lat="-28.454825" lon="-65.645695">
        <ele>672.7</ele>
        <time>2018-08-18T12:45:02Z</time>
      </trkpt>
      <trkpt lat="-28.454765" lon="-65.645635">
        <ele>672.9</ele>
        <time>2018-08-18T12:45:06Z</time>
      </trkpt>
      <trkpt lat="-28.454705" lon="-65.64556">
        <ele>673.0</ele>
        <time>2018-08-18T12:45:10Z</time>
      </trkpt>
      <trkpt lat="-28.454635" lon="-65.64548">
        <ele>673.1</ele>
        <time>2018-08-18T12:45:14Z</time>
      </trkpt>
      <trkpt lat="-28.454555" lon="-65.64542666666667">
        <ele>673.3</ele>
        <time>2018-08-18T12:45:18Z</time>
      </trkpt>
      <trkpt lat="-28.454465" lon="-65.645385">
        <ele>673.4</ele>
        <time>2018-08-18T12:45:22Z</time>
      </trkpt>
      <trkpt lat="-28.45438" lon="-65.645375">
        <ele>673.5</ele>
        <time>2018-08-18T12:45:26Z</time>
      </trkpt>
      <trkpt lat="-28.45428" lon="-65.64534833333333">
        <ele>673.6</ele>
        <time>2018-08-18T12:45:30Z</time>
      </trkpt>
      <trkpt lat="-28.454205" lon="-65.64534">
        <ele>673.5</ele>
        <time>2018-08-18T12:45:34Z</time>
      </trkpt>
      <trkpt lat="-28.45411" lon="-65.64534666666667">
        <ele>673.5</ele>
        <time>2018-08-18T12:45:38Z</time>
      </trkpt>
      <trkpt lat="-28.45404" lon="-65.645365">
        <ele>673.6</ele>
        <time>2018-08-18T12:45:42Z</time>
      </trkpt>
      <trkpt lat="-28.453955" lon="-65.645375">
        <ele>673.7</ele>
        <time>2018-08-18T12:45:47Z</time>
      </trkpt>
      <trkpt lat="-28.453875" lon="-65.64538">
        <ele>673.7</ele>
        <time>2018-08-18T12:45:52Z</time>
      </trkpt>
      <trkpt lat="-28.453795" lon="-65.645385">
        <ele>673.7</ele>
        <time>2018-08-18T12:45:56Z</time>
      </trkpt>
      <trkpt lat="-28.45371" lon="-65.645385">
        <ele>673.9</ele>
        <time>2018-08-18T12:46:01Z</time>
      </trkpt>
      <trkpt lat="-28.45364" lon="-65.645385">
        <ele>674.1</ele>
        <time>2018-08-18T12:46:06Z</time>
      </trkpt>
      <trkpt lat="-28.453565" lon="-65.645365">
        <ele>674.4</ele>
        <time>2018-08-18T12:46:10Z</time>
      </trkpt>
      <trkpt lat="-28.45349" lon="-65.64534">
        <ele>674.8</ele>
        <time>2018-08-18T12:46:15Z</time>
      </trkpt>
      <trkpt lat="-28.453405" lon="-65.64533">
        <ele>675.2</ele>
        <time>2018-08-18T12:46:20Z</time>
      </trkpt>
      <trkpt lat="-28.453335" lon="-65.6453">
        <ele>675.6</ele>
        <time>2018-08-18T12:46:24Z</time>
      </trkpt>
      <trkpt lat="-28.45326" lon="-65.64528">
        <ele>676.1</ele>
        <time>2018-08-18T12:46:28Z</time>
      </trkpt>
      <trkpt lat="-28.45318" lon="-65.64525833333333">
        <ele>676.7</ele>
        <time>2018-08-18T12:46:33Z</time>
      </trkpt>
      <trkpt lat="-28.453105" lon="-65.645255">
        <ele>677.3</ele>
        <time>2018-08-18T12:46:38Z</time>
      </trkpt>
      <trkpt lat="-28.45302" lon="-65.645255">
        <ele>677.9</ele>
        <time>2018-08-18T12:46:44Z</time>
      </trkpt>
      <trkpt lat="-28.452945" lon="-65.645255">
        <ele>678.4</ele>
        <time>2018-08-18T12:46:49Z</time>
      </trkpt>
      <trkpt lat="-28.452855" lon="-65.645245">
        <ele>679.2</ele>
        <time>2018-08-18T12:46:55Z</time>
      </trkpt>
      <trkpt lat="-28.45278" lon="-65.645245">
        <ele>680.0</ele>
        <time>2018-08-18T12:47:02Z</time>
      </trkpt>
      <trkpt lat="-28.4527" lon="-65.645245">
        <ele>680.8</ele>
        <time>2018-08-18T12:47:09Z</time>
      </trkpt>
      <trkpt lat="-28.452625" lon="-65.645235">
        <ele>681.4</ele>
        <time>2018-08-18T12:47:15Z</time>
      </trkpt>
      <trkpt lat="-28.452555" lon="-65.645225">
        <ele>682.1</ele>
        <time>2018-08-18T12:47:21Z</time>
      </trkpt>
      <trkpt lat="-28.452475" lon="-65.645235">
        <ele>682.8</ele>
        <time>2018-08-18T12:47:27Z</time>
      </trkpt>
      <trkpt lat="-28.4524" lon="-65.645225">
        <ele>683.3</ele>
        <time>2018-08-18T12:47:33Z</time>
      </trkpt>
      <trkpt lat="-28.45232" lon="-65.645245">
        <ele>683.9</ele>
        <time>2018-08-18T12:47:38Z</time>
      </trkpt>
      <trkpt lat="-28.452245" lon="-65.645245">
        <ele>684.7</ele>
        <time>2018-08-18T12:47:44Z</time>
      </trkpt>
      <trkpt lat="-28.452175" lon="-65.645225">
        <ele>685.8</ele>
        <time>2018-08-18T12:47:49Z</time>
      </trkpt>
      <trkpt lat="-28.452135" lon="-65.645155">
        <ele>686.7</ele>
        <time>2018-08-18T12:47:54Z</time>
      </trkpt>
      <trkpt lat="-28.45213" lon="-65.645065">
        <ele>687.4</ele>
        <time>2018-08-18T12:47:58Z</time>
      </trkpt>
      <trkpt lat="-28.452135" lon="-65.64497">
        <ele>688.0</ele>
        <time>2018-08-18T12:48:02Z</time>
      </trkpt>
      <trkpt lat="-28.45214" lon="-65.64489">
        <ele>688.6</ele>
        <time>2018-08-18T12:48:06Z</time>
      </trkpt>
      <trkpt lat="-28.45215" lon="-65.644805">
        <ele>689.3</ele>
        <time>2018-08-18T12:48:11Z</time>
      </trkpt>
      <trkpt lat="-28.45215" lon="-65.64472">
        <ele>690.0</ele>
        <time>2018-08-18T12:48:16Z</time>
      </trkpt>
      <trkpt lat="-28.45215" lon="-65.64469">
        <ele>690.4</ele>
        <time>2018-08-18T12:48:23Z</time>
      </trkpt>
      <trkpt lat="-28.45215" lon="-65.64469">
        <ele>690.4</ele>
        <time>2018-08-18T12:48:24Z</time>
      </trkpt>
      <trkpt lat="-28.452125" lon="-65.64467">
        <ele>690.9</ele>
        <time>2018-08-18T12:48:36Z</time>
      </trkpt>
      <trkpt lat="-28.452105" lon="-65.644665">
        <ele>691.2</ele>
        <time>2018-08-18T12:48:43Z</time>
      </trkpt>
      <trkpt lat="-28.452125" lon="-65.644665">
        <ele>691.5</ele>
        <time>2018-08-18T12:48:53Z</time>
      </trkpt>
      <trkpt lat="-28.452125" lon="-65.644665">
        <ele>691.5</ele>
        <time>2018-08-18T12:48:54Z</time>
      </trkpt>
      <trkpt lat="-28.45216" lon="-65.64467333333333">
        <ele>692.1</ele>
        <time>2018-08-18T12:49:06Z</time>
      </trkpt>
      <trkpt lat="-28.452165" lon="-65.64466666666667">
        <ele>692.1</ele>
        <time>2018-08-18T12:49:07Z</time>
      </trkpt>
      <trkpt lat="-28.452175" lon="-65.644645">
        <ele>692.1</ele>
        <time>2018-08-18T12:49:14Z</time>
      </trkpt>
      <trkpt lat="-28.452175" lon="-65.64463333333333">
        <ele>692.1</ele>
        <time>2018-08-18T12:49:15Z</time>
      </trkpt>
      <trkpt lat="-28.45214" lon="-65.644655">
        <ele>692.3</ele>
        <time>2018-08-18T12:49:24Z</time>
      </trkpt>
      <trkpt lat="-28.45214" lon="-65.644655">
        <ele>692.3</ele>
        <time>2018-08-18T12:49:25Z</time>
      </trkpt>
      <trkpt lat="-28.452155" lon="-65.64466">
        <ele>692.5</ele>
        <time>2018-08-18T12:49:34Z</time>
      </trkpt>
      <trkpt lat="-28.45216" lon="-65.644655">
        <ele>692.4</ele>
        <time>2018-08-18T12:49:35Z</time>
      </trkpt>
      <trkpt lat="-28.45216" lon="-65.64467333333333">
        <ele>692.5</ele>
        <time>2018-08-18T12:49:47Z</time>
      </trkpt>
      <trkpt lat="-28.452165" lon="-65.64467166666667">
        <ele>692.5</ele>
        <time>2018-08-18T12:49:48Z</time>
      </trkpt>
      <trkpt lat="-28.45219" lon="-65.64466">
        <ele>691.3</ele>
        <time>2018-08-18T12:49:57Z</time>
      </trkpt>
      <trkpt lat="-28.452195" lon="-65.644655">
        <ele>691.3</ele>
        <time>2018-08-18T12:49:58Z</time>
      </trkpt>
      <trkpt lat="-28.45217" lon="-65.644665">
        <ele>691.3</ele>
        <time>2018-08-18T12:50:05Z</time>
      </trkpt>
      <trkpt lat="-28.45217" lon="-65.644665">
        <ele>691.4</ele>
        <time>2018-08-18T12:50:07Z</time>
      </trkpt>
      <trkpt lat="-28.452175" lon="-65.64465">
        <ele>691.7</ele>
        <time>2018-08-18T12:50:17Z</time>
      </trkpt>
      <trkpt lat="-28.452175" lon="-65.64465">
        <ele>691.7</ele>
        <time>2018-08-18T12:50:18Z</time>
      </trkpt>
      <trkpt lat="-28.452175" lon="-65.644655">
        <ele>691.7</ele>
        <time>2018-08-18T12:50:30Z</time>
      </trkpt>
      <trkpt lat="-28.452175" lon="-65.644655">
        <ele>691.8</ele>
        <time>2018-08-18T12:50:31Z</time>
      </trkpt>
      <trkpt lat="-28.45221" lon="-65.64462666666667">
        <ele>691.2</ele>
        <time>2018-08-18T12:50:39Z</time>
      </trkpt>
      <trkpt lat="-28.45221" lon="-65.64463166666667">
        <ele>691.1</ele>
        <time>2018-08-18T12:50:40Z</time>
      </trkpt>
      <trkpt lat="-28.45221" lon="-65.64465">
        <ele>690.9</ele>
        <time>2018-08-18T12:50:49Z</time>
      </trkpt>
      <trkpt lat="-28.45221" lon="-65.644645">
        <ele>691.0</ele>
        <time>2018-08-18T12:50:50Z</time>
      </trkpt>
      <trkpt lat="-28.45219" lon="-65.644625">
        <ele>690.9</ele>
        <time>2018-08-18T12:50:58Z</time>
      </trkpt>
      <trkpt lat="-28.45219" lon="-65.644625">
        <ele>690.9</ele>
        <time>2018-08-18T12:50:59Z</time>
      </trkpt>
      <trkpt lat="-28.452165" lon="-65.64463166666667">
        <ele>691.0</ele>
        <time>2018-08-18T12:51:11Z</time>
      </trkpt>
      <trkpt lat="-28.452165" lon="-65.64463166666667">
        <ele>691.0</ele>
        <time>2018-08-18T12:51:12Z</time>
      </trkpt>
      <trkpt lat="-28.45217" lon="-65.644655">
        <ele>691.2</ele>
        <time>2018-08-18T12:51:24Z</time>
      </trkpt>
      <trkpt lat="-28.45217" lon="-65.64465">
        <ele>691.2</ele>
        <time>2018-08-18T12:51:25Z</time>
      </trkpt>
      <trkpt lat="-28.452165" lon="-65.64462666666667">
        <ele>691.5</ele>
        <time>2018-08-18T12:51:39Z</time>
      </trkpt>
      <trkpt lat="-28.452165" lon="-65.64462666666667">
        <ele>691.5</ele>
        <time>2018-08-18T12:51:40Z</time>
      </trkpt>
      <trkpt lat="-28.452175" lon="-65.644625">
        <ele>691.3</ele>
        <time>2018-08-18T12:51:52Z</time>
      </trkpt>
      <trkpt lat="-28.452185" lon="-65.644625">
        <ele>691.3</ele>
        <time>2018-08-18T12:51:53Z</time>
      </trkpt>
      <trkpt lat="-28.4522" lon="-65.644625">
        <ele>691.1</ele>
        <time>2018-08-18T12:52:13Z</time>
      </trkpt>
      <trkpt lat="-28.452195" lon="-65.644625">
        <ele>691.1</ele>
        <time>2018-08-18T12:52:14Z</time>
      </trkpt>
      <trkpt lat="-28.45217" lon="-65.644625">
        <ele>691.0</ele>
        <time>2018-08-18T12:52:22Z</time>
      </trkpt>
      <trkpt lat="-28.452175" lon="-65.644625">
        <ele>691.0</ele>
        <time>2018-08-18T12:52:23Z</time>
      </trkpt>
      <trkpt lat="-28.45217" lon="-65.644625">
        <ele>690.9</ele>
        <time>2018-08-18T12:52:34Z</time>
      </trkpt>
      <trkpt lat="-28.45217" lon="-65.644625">
        <ele>691.0</ele>
        <time>2018-08-18T12:52:35Z</time>
      </trkpt>
      <trkpt lat="-28.452155" lon="-65.644665">
        <ele>691.1</ele>
        <time>2018-08-18T12:52:43Z</time>
      </trkpt>
      <trkpt lat="-28.452155" lon="-65.644665">
        <ele>691.1</ele>
        <time>2018-08-18T12:52:46Z</time>
      </trkpt>
      <trkpt lat="-28.45215" lon="-65.64463333333333">
        <ele>691.4</ele>
        <time>2018-08-18T12:52:57Z</time>
      </trkpt>
      <trkpt lat="-28.452155" lon="-65.644645">
        <ele>691.4</ele>
        <time>2018-08-18T12:52:58Z</time>
      </trkpt>
      <trkpt lat="-28.452175" lon="-65.644625">
        <ele>691.6</ele>
        <time>2018-08-18T12:53:08Z</time>
      </trkpt>
      <trkpt lat="-28.452185" lon="-65.64462">
        <ele>691.6</ele>
        <time>2018-08-18T12:53:09Z</time>
      </trkpt>
      <trkpt lat="-28.452175" lon="-65.644625">
        <ele>691.7</ele>
        <time>2018-08-18T12:53:18Z</time>
      </trkpt>
      <trkpt lat="-28.452175" lon="-65.644625">
        <ele>691.7</ele>
        <time>2018-08-18T12:53:19Z</time>
      </trkpt>
      <trkpt lat="-28.452185" lon="-65.64462">
        <ele>691.7</ele>
        <time>2018-08-18T12:53:29Z</time>
      </trkpt>
      <trkpt lat="-28.45219" lon="-65.644625">
        <ele>691.7</ele>
        <time>2018-08-18T12:53:30Z</time>
      </trkpt>
      <trkpt lat="-28.452195" lon="-65.64466">
        <ele>691.6</ele>
        <time>2018-08-18T12:53:42Z</time>
      </trkpt>
      <trkpt lat="-28.4522" lon="-65.64466">
        <ele>691.6</ele>
        <time>2018-08-18T12:53:43Z</time>
      </trkpt>
      <trkpt lat="-28.452195" lon="-65.64466666666667">
        <ele>691.7</ele>
        <time>2018-08-18T12:53:51Z</time>
      </trkpt>
      <trkpt lat="-28.45219" lon="-65.644665">
        <ele>691.6</ele>
        <time>2018-08-18T12:53:52Z</time>
      </trkpt>
      <trkpt lat="-28.452185" lon="-65.64462">
        <ele>692.0</ele>
        <time>2018-08-18T12:54:00Z</time>
      </trkpt>
      <trkpt lat="-28.452185" lon="-65.64462">
        <ele>692.2</ele>
        <time>2018-08-18T12:54:01Z</time>
      </trkpt>
      <trkpt lat="-28.45221" lon="-65.644605">
        <ele>691.7</ele>
        <time>2018-08-18T12:54:12Z</time>
      </trkpt>
      <trkpt lat="-28.45221" lon="-65.644605">
        <ele>691.7</ele>
        <time>2018-08-18T12:54:13Z</time>
      </trkpt>
      <trkpt lat="-28.45221" lon="-65.644655">
        <ele>690.5</ele>
        <time>2018-08-18T12:54:23Z</time>
      </trkpt>
      <trkpt lat="-28.45221" lon="-65.64466">
        <ele>690.0</ele>
        <time>2018-08-18T12:54:30Z</time>
      </trkpt>
      <trkpt lat="-28.452195" lon="-65.64465">
        <ele>690.2</ele>
        <time>2018-08-18T12:54:45Z</time>
      </trkpt>
      <trkpt lat="-28.452195" lon="-65.64465">
        <ele>690.2</ele>
        <time>2018-08-18T12:54:46Z</time>
      </trkpt>
      <trkpt lat="-28.45221" lon="-65.644645">
        <ele>690.9</ele>
        <time>2018-08-18T12:54:58Z</time>
      </trkpt>
      <trkpt lat="-28.452205" lon="-65.64463333333333">
        <ele>690.9</ele>
        <time>2018-08-18T12:54:59Z</time>
      </trkpt>
      <trkpt lat="-28.452175" lon="-65.644645">
        <ele>690.6</ele>
        <time>2018-08-18T12:55:07Z</time>
      </trkpt>
      <trkpt lat="-28.452185" lon="-65.64465">
        <ele>690.6</ele>
        <time>2018-08-18T12:55:08Z</time>
      </trkpt>
      <trkpt lat="-28.452175" lon="-65.64463333333333">
        <ele>691.0</ele>
        <time>2018-08-18T12:55:22Z</time>
      </trkpt>
      <trkpt lat="-28.452185" lon="-65.64462666666667">
        <ele>691.0</ele>
        <time>2018-08-18T12:55:23Z</time>
      </trkpt>
      <trkpt lat="-28.452185" lon="-65.644665">
        <ele>691.1</ele>
        <time>2018-08-18T12:55:38Z</time>
      </trkpt>
      <trkpt lat="-28.45219" lon="-65.644665">
        <ele>691.1</ele>
        <time>2018-08-18T12:55:39Z</time>
      </trkpt>
      <trkpt lat="-28.45221" lon="-65.64466">
        <ele>691.0</ele>
        <time>2018-08-18T12:55:47Z</time>
      </trkpt>
      <trkpt lat="-28.45221" lon="-65.64466">
        <ele>691.0</ele>
        <time>2018-08-18T12:55:48Z</time>
      </trkpt>
      <trkpt lat="-28.452195" lon="-65.644625">
        <ele>691.0</ele>
        <time>2018-08-18T12:55:58Z</time>
      </trkpt>
      <trkpt lat="-28.452195" lon="-65.644615">
        <ele>690.9</ele>
        <time>2018-08-18T12:55:59Z</time>
      </trkpt>
      <trkpt lat="-28.452175" lon="-65.644605">
        <ele>690.9</ele>
        <time>2018-08-18T12:56:10Z</time>
      </trkpt>
      <trkpt lat="-28.452175" lon="-65.644605">
        <ele>690.9</ele>
        <time>2018-08-18T12:56:11Z</time>
      </trkpt>
      <trkpt lat="-28.452175" lon="-65.644625">
        <ele>690.9</ele>
        <time>2018-08-18T12:56:26Z</time>
      </trkpt>
      <trkpt lat="-28.452175" lon="-65.644625">
        <ele>691.0</ele>
        <time>2018-08-18T12:56:27Z</time>
      </trkpt>
      <trkpt lat="-28.452175" lon="-65.64463166666667">
        <ele>691.0</ele>
        <time>2018-08-18T12:56:42Z</time>
      </trkpt>
      <trkpt lat="-28.452175" lon="-65.64463333333333">
        <ele>691.1</ele>
        <time>2018-08-18T12:56:43Z</time>
      </trkpt>
      <trkpt lat="-28.45213" lon="-65.64456">
        <ele>691.4</ele>
        <time>2018-08-18T12:56:56Z</time>
      </trkpt>
      <trkpt lat="-28.452085" lon="-65.64448">
        <ele>691.9</ele>
        <time>2018-08-18T12:56:58Z</time>
      </trkpt>
      <trkpt lat="-28.452023333333333" lon="-65.64438">
        <ele>692.9</ele>
        <time>2018-08-18T12:57:00Z</time>
      </trkpt>
      <trkpt lat="-28.451985" lon="-65.644295">
        <ele>693.9</ele>
        <time>2018-08-18T12:57:02Z</time>
      </trkpt>
      <trkpt lat="-28.45195" lon="-65.64421">
        <ele>694.4</ele>
        <time>2018-08-18T12:57:04Z</time>
      </trkpt>
      <trkpt lat="-28.45193" lon="-65.644125">
        <ele>694.7</ele>
        <time>2018-08-18T12:57:06Z</time>
      </trkpt>
      <trkpt lat="-28.451905" lon="-65.644025">
        <ele>694.7</ele>
        <time>2018-08-18T12:57:08Z</time>
      </trkpt>
      <trkpt lat="-28.45188" lon="-65.643895">
        <ele>694.2</ele>
        <time>2018-08-18T12:57:10Z</time>
      </trkpt>
      <trkpt lat="-28.451855" lon="-65.64378">
        <ele>692.9</ele>
        <time>2018-08-18T12:57:12Z</time>
      </trkpt>
      <trkpt lat="-28.45183" lon="-65.64368">
        <ele>690.7</ele>
        <time>2018-08-18T12:57:14Z</time>
      </trkpt>
      <trkpt lat="-28.45181" lon="-65.643575">
        <ele>688.5</ele>
        <time>2018-08-18T12:57:16Z</time>
      </trkpt>
      <trkpt lat="-28.45179" lon="-65.643465">
        <ele>686.5</ele>
        <time>2018-08-18T12:57:18Z</time>
      </trkpt>
      <trkpt lat="-28.451755" lon="-65.64337">
        <ele>684.9</ele>
        <time>2018-08-18T12:57:20Z</time>
      </trkpt>
      <trkpt lat="-28.451715" lon="-65.643275">
        <ele>683.7</ele>
        <time>2018-08-18T12:57:22Z</time>
      </trkpt>
      <trkpt lat="-28.451665" lon="-65.643185">
        <ele>682.7</ele>
        <time>2018-08-18T12:57:24Z</time>
      </trkpt>
      <trkpt lat="-28.451595" lon="-65.643085">
        <ele>682.2</ele>
        <time>2018-08-18T12:57:26Z</time>
      </trkpt>
      <trkpt lat="-28.451515" lon="-65.643">
        <ele>682.1</ele>
        <time>2018-08-18T12:57:28Z</time>
      </trkpt>
      <trkpt lat="-28.451425" lon="-65.64293166666667">
        <ele>682.1</ele>
        <time>2018-08-18T12:57:30Z</time>
      </trkpt>
      <trkpt lat="-28.451325" lon="-65.64288166666667">
        <ele>682.2</ele>
        <time>2018-08-18T12:57:32Z</time>
      </trkpt>
      <trkpt lat="-28.45122" lon="-65.64284166666667">
        <ele>682.0</ele>
        <time>2018-08-18T12:57:34Z</time>
      </trkpt>
      <trkpt lat="-28.451105" lon="-65.64279666666667">
        <ele>681.4</ele>
        <time>2018-08-18T12:57:36Z</time>
      </trkpt>
      <trkpt lat="-28.450995" lon="-65.642765">
        <ele>680.6</ele>
        <time>2018-08-18T12:57:38Z</time>
      </trkpt>
      <trkpt lat="-28.450885" lon="-65.64273">
        <ele>679.8</ele>
        <time>2018-08-18T12:57:40Z</time>
      </trkpt>
      <trkpt lat="-28.450785" lon="-65.642695">
        <ele>679.0</ele>
        <time>2018-08-18T12:57:42Z</time>
      </trkpt>
      <trkpt lat="-28.450685" lon="-65.64265666666667">
        <ele>678.2</ele>
        <time>2018-08-18T12:57:44Z</time>
      </trkpt>
      <trkpt lat="-28.450585" lon="-65.642635">
        <ele>677.9</ele>
        <time>2018-08-18T12:57:46Z</time>
      </trkpt>
      <trkpt lat="-28.45049" lon="-65.6426">
        <ele>677.6</ele>
        <time>2018-08-18T12:57:48Z</time>
      </trkpt>
      <trkpt lat="-28.45039" lon="-65.64257">
        <ele>677.5</ele>
        <time>2018-08-18T12:57:50Z</time>
      </trkpt>
      <trkpt lat="-28.45029" lon="-65.642525">
        <ele>677.4</ele>
        <time>2018-08-18T12:57:52Z</time>
      </trkpt>
      <trkpt lat="-28.450205" lon="-65.642505">
        <ele>677.2</ele>
        <time>2018-08-18T12:57:54Z</time>
      </trkpt>
      <trkpt lat="-28.450125" lon="-65.64247166666667">
        <ele>676.6</ele>
        <time>2018-08-18T12:57:56Z</time>
      </trkpt>
      <trkpt lat="-28.45005" lon="-65.642455">
        <ele>676.2</ele>
        <time>2018-08-18T12:57:58Z</time>
      </trkpt>
      <trkpt lat="-28.44998" lon="-65.64243">
        <ele>676.0</ele>
        <time>2018-08-18T12:58:00Z</time>
      </trkpt>
      <trkpt lat="-28.4499" lon="-65.64239666666667">
        <ele>676.1</ele>
        <time>2018-08-18T12:58:02Z</time>
      </trkpt>
      <trkpt lat="-28.44981" lon="-65.642375">
        <ele>675.8</ele>
        <time>2018-08-18T12:58:04Z</time>
      </trkpt>
      <trkpt lat="-28.44972" lon="-65.642345">
        <ele>675.4</ele>
        <time>2018-08-18T12:58:06Z</time>
      </trkpt>
      <trkpt lat="-28.449635" lon="-65.642315">
        <ele>675.3</ele>
        <time>2018-08-18T12:58:08Z</time>
      </trkpt>
      <trkpt lat="-28.449565" lon="-65.64229">
        <ele>675.1</ele>
        <time>2018-08-18T12:58:10Z</time>
      </trkpt>
      <trkpt lat="-28.44948" lon="-65.64225333333333">
        <ele>675.0</ele>
        <time>2018-08-18T12:58:12Z</time>
      </trkpt>
      <trkpt lat="-28.449405" lon="-65.642235">
        <ele>675.1</ele>
        <time>2018-08-18T12:58:14Z</time>
      </trkpt>
      <trkpt lat="-28.449325" lon="-65.642205">
        <ele>675.6</ele>
        <time>2018-08-18T12:58:16Z</time>
      </trkpt>
      <trkpt lat="-28.44924" lon="-65.64217333333333">
        <ele>675.8</ele>
        <time>2018-08-18T12:58:18Z</time>
      </trkpt>
      <trkpt lat="-28.44916" lon="-65.642155">
        <ele>675.8</ele>
        <time>2018-08-18T12:58:20Z</time>
      </trkpt>
      <trkpt lat="-28.449066666666667" lon="-65.64212">
        <ele>675.4</ele>
        <time>2018-08-18T12:58:22Z</time>
      </trkpt>
      <trkpt lat="-28.44897" lon="-65.64207833333333">
        <ele>675.0</ele>
        <time>2018-08-18T12:58:25Z</time>
      </trkpt>
      <trkpt lat="-28.44889" lon="-65.642065">
        <ele>674.9</ele>
        <time>2018-08-18T12:58:27Z</time>
      </trkpt>
      <trkpt lat="-28.448805" lon="-65.642035">
        <ele>674.9</ele>
        <time>2018-08-18T12:58:29Z</time>
      </trkpt>
      <trkpt lat="-28.448725" lon="-65.64201">
        <ele>674.9</ele>
        <time>2018-08-18T12:58:31Z</time>
      </trkpt>
      <trkpt lat="-28.44865" lon="-65.64198">
        <ele>674.1</ele>
        <time>2018-08-18T12:58:33Z</time>
      </trkpt>
      <trkpt lat="-28.44858" lon="-65.641945">
        <ele>673.6</ele>
        <time>2018-08-18T12:58:35Z</time>
      </trkpt>
      <trkpt lat="-28.448485" lon="-65.64190333333333">
        <ele>672.9</ele>
        <time>2018-08-18T12:58:38Z</time>
      </trkpt>
      <trkpt lat="-28.448415" lon="-65.641875">
        <ele>671.9</ele>
        <time>2018-08-18T12:58:40Z</time>
      </trkpt>
      <trkpt lat="-28.44834" lon="-65.64185">
        <ele>671.3</ele>
        <time>2018-08-18T12:58:42Z</time>
      </trkpt>
      <trkpt lat="-28.448235" lon="-65.64181333333333">
        <ele>671.3</ele>
        <time>2018-08-18T12:58:45Z</time>
      </trkpt>
      <trkpt lat="-28.448155" lon="-65.6418">
        <ele>671.3</ele>
        <time>2018-08-18T12:58:47Z</time>
      </trkpt>
      <trkpt lat="-28.448045" lon="-65.641765">
        <ele>671.3</ele>
        <time>2018-08-18T12:58:50Z</time>
      </trkpt>
      <trkpt lat="-28.447965" lon="-65.641745">
        <ele>671.2</ele>
        <time>2018-08-18T12:58:52Z</time>
      </trkpt>
      <trkpt lat="-28.44789" lon="-65.64172">
        <ele>671.5</ele>
        <time>2018-08-18T12:58:54Z</time>
      </trkpt>
      <trkpt lat="-28.44782" lon="-65.641705">
        <ele>671.6</ele>
        <time>2018-08-18T12:58:56Z</time>
      </trkpt>
      <trkpt lat="-28.44772" lon="-65.64167">
        <ele>671.7</ele>
        <time>2018-08-18T12:58:59Z</time>
      </trkpt>
      <trkpt lat="-28.447645" lon="-65.64165">
        <ele>671.7</ele>
        <time>2018-08-18T12:59:01Z</time>
      </trkpt>
      <trkpt lat="-28.44756" lon="-65.64162">
        <ele>671.7</ele>
        <time>2018-08-18T12:59:04Z</time>
      </trkpt>
      <trkpt lat="-28.447475" lon="-65.641585">
        <ele>671.8</ele>
        <time>2018-08-18T12:59:07Z</time>
      </trkpt>
      <trkpt lat="-28.44739" lon="-65.641555">
        <ele>671.9</ele>
        <time>2018-08-18T12:59:10Z</time>
      </trkpt>
      <trkpt lat="-28.447305" lon="-65.64153">
        <ele>672.0</ele>
        <time>2018-08-18T12:59:13Z</time>
      </trkpt>
      <trkpt lat="-28.44721" lon="-65.64149666666667">
        <ele>672.2</ele>
        <time>2018-08-18T12:59:16Z</time>
      </trkpt>
      <trkpt lat="-28.44712" lon="-65.641475">
        <ele>672.3</ele>
        <time>2018-08-18T12:59:19Z</time>
      </trkpt>
      <trkpt lat="-28.447025" lon="-65.64144">
        <ele>672.4</ele>
        <time>2018-08-18T12:59:22Z</time>
      </trkpt>
      <trkpt lat="-28.44693" lon="-65.64140666666667">
        <ele>672.6</ele>
        <time>2018-08-18T12:59:25Z</time>
      </trkpt>
      <trkpt lat="-28.446835" lon="-65.641385">
        <ele>672.9</ele>
        <time>2018-08-18T12:59:28Z</time>
      </trkpt>
      <trkpt lat="-28.446745" lon="-65.64136">
        <ele>673.1</ele>
        <time>2018-08-18T12:59:31Z</time>
      </trkpt>
      <trkpt lat="-28.44666" lon="-65.64133">
        <ele>673.3</ele>
        <time>2018-08-18T12:59:34Z</time>
      </trkpt>
      <trkpt lat="-28.446585" lon="-65.6413">
        <ele>673.5</ele>
        <time>2018-08-18T12:59:37Z</time>
      </trkpt>
      <trkpt lat="-28.4465" lon="-65.64126833333333">
        <ele>673.6</ele>
        <time>2018-08-18T12:59:40Z</time>
      </trkpt>
      <trkpt lat="-28.44641" lon="-65.641245">
        <ele>673.8</ele>
        <time>2018-08-18T12:59:43Z</time>
      </trkpt>
      <trkpt lat="-28.446325" lon="-65.64121">
        <ele>673.9</ele>
        <time>2018-08-18T12:59:46Z</time>
      </trkpt>
      <trkpt lat="-28.44623" lon="-65.641175">
        <ele>674.1</ele>
        <time>2018-08-18T12:59:49Z</time>
      </trkpt>
      <trkpt lat="-28.44616" lon="-65.64116">
        <ele>674.3</ele>
        <time>2018-08-18T12:59:52Z</time>
      </trkpt>
      <trkpt lat="-28.446075" lon="-65.64113">
        <ele>674.4</ele>
        <time>2018-08-18T12:59:55Z</time>
      </trkpt>
      <trkpt lat="-28.445985" lon="-65.64109">
        <ele>674.5</ele>
        <time>2018-08-18T12:59:58Z</time>
      </trkpt>
      <trkpt lat="-28.44591" lon="-65.641075">
        <ele>674.7</ele>
        <time>2018-08-18T13:00:01Z</time>
      </trkpt>
      <trkpt lat="-28.445845" lon="-65.64105">
        <ele>675.0</ele>
        <time>2018-08-18T13:00:04Z</time>
      </trkpt>
      <trkpt lat="-28.445765" lon="-65.64102">
        <ele>675.2</ele>
        <time>2018-08-18T13:00:07Z</time>
      </trkpt>
      <trkpt lat="-28.44569" lon="-65.64099">
        <ele>675.4</ele>
        <time>2018-08-18T13:00:10Z</time>
      </trkpt>
      <trkpt lat="-28.4456" lon="-65.64095833333333">
        <ele>675.5</ele>
        <time>2018-08-18T13:00:13Z</time>
      </trkpt>
      <trkpt lat="-28.44552" lon="-65.64094">
        <ele>675.6</ele>
        <time>2018-08-18T13:00:16Z</time>
      </trkpt>
      <trkpt lat="-28.445435" lon="-65.64091">
        <ele>675.7</ele>
        <time>2018-08-18T13:00:19Z</time>
      </trkpt>
      <trkpt lat="-28.44537" lon="-65.64089">
        <ele>675.9</ele>
        <time>2018-08-18T13:00:22Z</time>
      </trkpt>
      <trkpt lat="-28.445295" lon="-65.640865">
        <ele>676.1</ele>
        <time>2018-08-18T13:00:25Z</time>
      </trkpt>
      <trkpt lat="-28.44521" lon="-65.640845">
        <ele>676.2</ele>
        <time>2018-08-18T13:00:28Z</time>
      </trkpt>
      <trkpt lat="-28.44514" lon="-65.640815">
        <ele>676.4</ele>
        <time>2018-08-18T13:00:31Z</time>
      </trkpt>
      <trkpt lat="-28.445065" lon="-65.6408">
        <ele>676.5</ele>
        <time>2018-08-18T13:00:34Z</time>
      </trkpt>
      <trkpt lat="-28.444985" lon="-65.64078">
        <ele>676.8</ele>
        <time>2018-08-18T13:00:37Z</time>
      </trkpt>
      <trkpt lat="-28.44491" lon="-65.64075">
        <ele>677.0</ele>
        <time>2018-08-18T13:00:40Z</time>
      </trkpt>
      <trkpt lat="-28.44483" lon="-65.640725">
        <ele>677.1</ele>
        <time>2018-08-18T13:00:43Z</time>
      </trkpt>
      <trkpt lat="-28.444765" lon="-65.640705">
        <ele>677.2</ele>
        <time>2018-08-18T13:00:46Z</time>
      </trkpt>
      <trkpt lat="-28.444685" lon="-65.640675">
        <ele>677.3</ele>
        <time>2018-08-18T13:00:49Z</time>
      </trkpt>
      <trkpt lat="-28.444605" lon="-65.64064">
        <ele>677.5</ele>
        <time>2018-08-18T13:00:52Z</time>
      </trkpt>
      <trkpt lat="-28.44453" lon="-65.640625">
        <ele>677.7</ele>
        <time>2018-08-18T13:00:55Z</time>
      </trkpt>
      <trkpt lat="-28.44445" lon="-65.64059">
        <ele>677.8</ele>
        <time>2018-08-18T13:00:58Z</time>
      </trkpt>
      <trkpt lat="-28.44437" lon="-65.64057">
        <ele>678.0</ele>
        <time>2018-08-18T13:01:01Z</time>
      </trkpt>
      <trkpt lat="-28.444295" lon="-65.640545">
        <ele>678.1</ele>
        <time>2018-08-18T13:01:04Z</time>
      </trkpt>
      <trkpt lat="-28.444215" lon="-65.64051166666667">
        <ele>678.4</ele>
        <time>2018-08-18T13:01:07Z</time>
      </trkpt>
      <trkpt lat="-28.44414" lon="-65.640495">
        <ele>678.5</ele>
        <time>2018-08-18T13:01:10Z</time>
      </trkpt>
      <trkpt lat="-28.44407" lon="-65.64046166666667">
        <ele>678.6</ele>
        <time>2018-08-18T13:01:13Z</time>
      </trkpt>
      <trkpt lat="-28.444" lon="-65.64044">
        <ele>678.6</ele>
        <time>2018-08-18T13:01:16Z</time>
      </trkpt>
      <trkpt lat="-28.443925" lon="-65.640415">
        <ele>678.6</ele>
        <time>2018-08-18T13:01:19Z</time>
      </trkpt>
      <trkpt lat="-28.443845" lon="-65.6404">
        <ele>678.7</ele>
        <time>2018-08-18T13:01:22Z</time>
      </trkpt>
      <trkpt lat="-28.44376" lon="-65.640375">
        <ele>678.7</ele>
        <time>2018-08-18T13:01:25Z</time>
      </trkpt>
      <trkpt lat="-28.44369" lon="-65.640345">
        <ele>678.8</ele>
        <time>2018-08-18T13:01:28Z</time>
      </trkpt>
      <trkpt lat="-28.443605" lon="-65.640315">
        <ele>678.9</ele>
        <time>2018-08-18T13:01:31Z</time>
      </trkpt>
      <trkpt lat="-28.443525" lon="-65.64028666666667">
        <ele>679.0</ele>
        <time>2018-08-18T13:01:34Z</time>
      </trkpt>
      <trkpt lat="-28.443445" lon="-65.64027">
        <ele>679.1</ele>
        <time>2018-08-18T13:01:37Z</time>
      </trkpt>
      <trkpt lat="-28.443365" lon="-65.640235">
        <ele>679.3</ele>
        <time>2018-08-18T13:01:40Z</time>
      </trkpt>
      <trkpt lat="-28.443285" lon="-65.640215">
        <ele>679.5</ele>
        <time>2018-08-18T13:01:43Z</time>
      </trkpt>
      <trkpt lat="-28.443195" lon="-65.64019">
        <ele>679.7</ele>
        <time>2018-08-18T13:01:46Z</time>
      </trkpt>
      <trkpt lat="-28.44312" lon="-65.64015666666667">
        <ele>679.9</ele>
        <time>2018-08-18T13:01:49Z</time>
      </trkpt>
      <trkpt lat="-28.44304" lon="-65.64014">
        <ele>680.0</ele>
        <time>2018-08-18T13:01:52Z</time>
      </trkpt>
      <trkpt lat="-28.44296" lon="-65.640105">
        <ele>680.1</ele>
        <time>2018-08-18T13:01:55Z</time>
      </trkpt>
      <trkpt lat="-28.442885" lon="-65.64009">
        <ele>680.3</ele>
        <time>2018-08-18T13:01:58Z</time>
      </trkpt>
      <trkpt lat="-28.442815" lon="-65.640055">
        <ele>680.6</ele>
        <time>2018-08-18T13:02:01Z</time>
      </trkpt>
      <trkpt lat="-28.44274" lon="-65.640045">
        <ele>680.8</ele>
        <time>2018-08-18T13:02:04Z</time>
      </trkpt>
      <trkpt lat="-28.442665" lon="-65.64001">
        <ele>681.0</ele>
        <time>2018-08-18T13:02:07Z</time>
      </trkpt>
      <trkpt lat="-28.442585" lon="-65.63999">
        <ele>681.1</ele>
        <time>2018-08-18T13:02:10Z</time>
      </trkpt>
      <trkpt lat="-28.442505" lon="-65.639965">
        <ele>681.3</ele>
        <time>2018-08-18T13:02:13Z</time>
      </trkpt>
      <trkpt lat="-28.44243" lon="-65.63993333333333">
        <ele>681.5</ele>
        <time>2018-08-18T13:02:16Z</time>
      </trkpt>
      <trkpt lat="-28.44235" lon="-65.639915">
        <ele>681.6</ele>
        <time>2018-08-18T13:02:19Z</time>
      </trkpt>
      <trkpt lat="-28.44227" lon="-65.63988">
        <ele>681.8</ele>
        <time>2018-08-18T13:02:22Z</time>
      </trkpt>
      <trkpt lat="-28.44219" lon="-65.63986">
        <ele>682.0</ele>
        <time>2018-08-18T13:02:25Z</time>
      </trkpt>
      <trkpt lat="-28.442115" lon="-65.63983">
        <ele>682.1</ele>
        <time>2018-08-18T13:02:28Z</time>
      </trkpt>
      <trkpt lat="-28.44204" lon="-65.63981">
        <ele>682.2</ele>
        <time>2018-08-18T13:02:31Z</time>
      </trkpt>
      <trkpt lat="-28.441965" lon="-65.639785">
        <ele>682.4</ele>
        <time>2018-08-18T13:02:34Z</time>
      </trkpt>
      <trkpt lat="-28.441885" lon="-65.63975">
        <ele>682.7</ele>
        <time>2018-08-18T13:02:37Z</time>
      </trkpt>
      <trkpt lat="-28.441805" lon="-65.639735">
        <ele>683.0</ele>
        <time>2018-08-18T13:02:40Z</time>
      </trkpt>
      <trkpt lat="-28.44173" lon="-65.63970166666667">
        <ele>683.2</ele>
        <time>2018-08-18T13:02:43Z</time>
      </trkpt>
      <trkpt lat="-28.44165" lon="-65.63969">
        <ele>683.4</ele>
        <time>2018-08-18T13:02:46Z</time>
      </trkpt>
      <trkpt lat="-28.441585" lon="-65.63966">
        <ele>683.5</ele>
        <time>2018-08-18T13:02:49Z</time>
      </trkpt>
      <trkpt lat="-28.441495" lon="-65.639635">
        <ele>683.8</ele>
        <time>2018-08-18T13:02:53Z</time>
      </trkpt>
      <trkpt lat="-28.44141" lon="-65.63957">
        <ele>684.2</ele>
        <time>2018-08-18T13:02:57Z</time>
      </trkpt>
      <trkpt lat="-28.44134" lon="-65.63952333333333">
        <ele>684.4</ele>
        <time>2018-08-18T13:03:00Z</time>
      </trkpt>
      <trkpt lat="-28.441285" lon="-65.639475">
        <ele>684.6</ele>
        <time>2018-08-18T13:03:03Z</time>
      </trkpt>
      <trkpt lat="-28.441225" lon="-65.63941">
        <ele>684.7</ele>
        <time>2018-08-18T13:03:06Z</time>
      </trkpt>
      <trkpt lat="-28.44118" lon="-65.639335">
        <ele>684.8</ele>
        <time>2018-08-18T13:03:09Z</time>
      </trkpt>
      <trkpt lat="-28.441135" lon="-65.63925">
        <ele>684.8</ele>
        <time>2018-08-18T13:03:12Z</time>
      </trkpt>
      <trkpt lat="-28.441095" lon="-65.63916666666667">
        <ele>684.9</ele>
        <time>2018-08-18T13:03:15Z</time>
      </trkpt>
      <trkpt lat="-28.441065" lon="-65.63908">
        <ele>685.0</ele>
        <time>2018-08-18T13:03:18Z</time>
      </trkpt>
      <trkpt lat="-28.441035" lon="-65.63899">
        <ele>685.1</ele>
        <time>2018-08-18T13:03:21Z</time>
      </trkpt>
      <trkpt lat="-28.44102" lon="-65.63889">
        <ele>685.5</ele>
        <time>2018-08-18T13:03:25Z</time>
      </trkpt>
      <trkpt lat="-28.44101" lon="-65.63878">
        <ele>685.9</ele>
        <time>2018-08-18T13:03:29Z</time>
      </trkpt>
      <trkpt lat="-28.440995" lon="-65.63867">
        <ele>686.5</ele>
        <time>2018-08-18T13:03:33Z</time>
      </trkpt>
      <trkpt lat="-28.440995" lon="-65.638585">
        <ele>686.8</ele>
        <time>2018-08-18T13:03:36Z</time>
      </trkpt>
      <trkpt lat="-28.440995" lon="-65.63849166666667">
        <ele>687.1</ele>
        <time>2018-08-18T13:03:39Z</time>
      </trkpt>
      <trkpt lat="-28.44099" lon="-65.638395">
        <ele>687.5</ele>
        <time>2018-08-18T13:03:42Z</time>
      </trkpt>
      <trkpt lat="-28.440955" lon="-65.63826666666667">
        <ele>687.7</ele>
        <time>2018-08-18T13:03:45Z</time>
      </trkpt>
      <trkpt lat="-28.440915" lon="-65.63818166666667">
        <ele>687.9</ele>
        <time>2018-08-18T13:03:47Z</time>
      </trkpt>
      <trkpt lat="-28.440875" lon="-65.638115">
        <ele>687.9</ele>
        <time>2018-08-18T13:03:49Z</time>
      </trkpt>
      <trkpt lat="-28.44083" lon="-65.638035">
        <ele>687.8</ele>
        <time>2018-08-18T13:03:51Z</time>
      </trkpt>
      <trkpt lat="-28.440784999999998" lon="-65.63795">
        <ele>687.8</ele>
        <time>2018-08-18T13:03:53Z</time>
      </trkpt>
      <trkpt lat="-28.44073" lon="-65.63786">
        <ele>687.1</ele>
        <time>2018-08-18T13:03:55Z</time>
      </trkpt>
      <trkpt lat="-28.440675" lon="-65.63777166666667">
        <ele>686.1</ele>
        <time>2018-08-18T13:03:57Z</time>
      </trkpt>
      <trkpt lat="-28.440616666666667" lon="-65.63769833333333">
        <ele>684.9</ele>
        <time>2018-08-18T13:03:59Z</time>
      </trkpt>
      <trkpt lat="-28.440565" lon="-65.637635">
        <ele>683.9</ele>
        <time>2018-08-18T13:04:01Z</time>
      </trkpt>
      <trkpt lat="-28.440505" lon="-65.63754">
        <ele>683.5</ele>
        <time>2018-08-18T13:04:03Z</time>
      </trkpt>
      <trkpt lat="-28.440445" lon="-65.637465">
        <ele>682.9</ele>
        <time>2018-08-18T13:04:05Z</time>
      </trkpt>
      <trkpt lat="-28.440385" lon="-65.6374">
        <ele>682.7</ele>
        <time>2018-08-18T13:04:07Z</time>
      </trkpt>
      <trkpt lat="-28.44032" lon="-65.637345">
        <ele>682.2</ele>
        <time>2018-08-18T13:04:09Z</time>
      </trkpt>
      <trkpt lat="-28.44026" lon="-65.637285">
        <ele>681.7</ele>
        <time>2018-08-18T13:04:11Z</time>
      </trkpt>
      <trkpt lat="-28.440165" lon="-65.637225">
        <ele>681.6</ele>
        <time>2018-08-18T13:04:14Z</time>
      </trkpt>
      <trkpt lat="-28.44011" lon="-65.637185">
        <ele>681.5</ele>
        <time>2018-08-18T13:04:16Z</time>
      </trkpt>
      <trkpt lat="-28.44001" lon="-65.637135">
        <ele>681.4</ele>
        <time>2018-08-18T13:04:19Z</time>
      </trkpt>
      <trkpt lat="-28.43993" lon="-65.63709">
        <ele>681.4</ele>
        <time>2018-08-18T13:04:22Z</time>
      </trkpt>
      <trkpt lat="-28.43985" lon="-65.637055">
        <ele>681.5</ele>
        <time>2018-08-18T13:04:25Z</time>
      </trkpt>
      <trkpt lat="-28.43977" lon="-65.63702166666667">
        <ele>681.5</ele>
        <time>2018-08-18T13:04:28Z</time>
      </trkpt>
      <trkpt lat="-28.439695" lon="-65.636995">
        <ele>681.6</ele>
        <time>2018-08-18T13:04:31Z</time>
      </trkpt>
      <trkpt lat="-28.43961" lon="-65.63693166666667">
        <ele>681.7</ele>
        <time>2018-08-18T13:04:34Z</time>
      </trkpt>
      <trkpt lat="-28.439525" lon="-65.636865">
        <ele>681.7</ele>
        <time>2018-08-18T13:04:37Z</time>
      </trkpt>
      <trkpt lat="-28.439475" lon="-65.63679666666667">
        <ele>681.9</ele>
        <time>2018-08-18T13:04:39Z</time>
      </trkpt>
      <trkpt lat="-28.439425" lon="-65.636725">
        <ele>681.9</ele>
        <time>2018-08-18T13:04:41Z</time>
      </trkpt>
      <trkpt lat="-28.43937" lon="-65.63664">
        <ele>682.2</ele>
        <time>2018-08-18T13:04:43Z</time>
      </trkpt>
      <trkpt lat="-28.439325" lon="-65.63655">
        <ele>683.4</ele>
        <time>2018-08-18T13:04:45Z</time>
      </trkpt>
      <trkpt lat="-28.439275" lon="-65.636455">
        <ele>684.7</ele>
        <time>2018-08-18T13:04:47Z</time>
      </trkpt>
      <trkpt lat="-28.439225" lon="-65.63635333333333">
        <ele>685.5</ele>
        <time>2018-08-18T13:04:49Z</time>
      </trkpt>
      <trkpt lat="-28.43918" lon="-65.636275">
        <ele>686.0</ele>
        <time>2018-08-18T13:04:51Z</time>
      </trkpt>
      <trkpt lat="-28.43913" lon="-65.6362">
        <ele>686.2</ele>
        <time>2018-08-18T13:04:53Z</time>
      </trkpt>
      <trkpt lat="-28.439085" lon="-65.636115">
        <ele>685.9</ele>
        <time>2018-08-18T13:04:55Z</time>
      </trkpt>
      <trkpt lat="-28.439045" lon="-65.63603">
        <ele>685.5</ele>
        <time>2018-08-18T13:04:57Z</time>
      </trkpt>
      <trkpt lat="-28.439" lon="-65.63594166666667">
        <ele>685.2</ele>
        <time>2018-08-18T13:04:59Z</time>
      </trkpt>
      <trkpt lat="-28.438955" lon="-65.63587">
        <ele>684.5</ele>
        <time>2018-08-18T13:05:01Z</time>
      </trkpt>
      <trkpt lat="-28.43892" lon="-65.635785">
        <ele>684.4</ele>
        <time>2018-08-18T13:05:03Z</time>
      </trkpt>
      <trkpt lat="-28.438885" lon="-65.63571">
        <ele>684.0</ele>
        <time>2018-08-18T13:05:05Z</time>
      </trkpt>
      <trkpt lat="-28.43885" lon="-65.63562">
        <ele>683.6</ele>
        <time>2018-08-18T13:05:07Z</time>
      </trkpt>
      <trkpt lat="-28.43882" lon="-65.63554">
        <ele>683.5</ele>
        <time>2018-08-18T13:05:09Z</time>
      </trkpt>
      <trkpt lat="-28.43878" lon="-65.63544">
        <ele>683.5</ele>
        <time>2018-08-18T13:05:12Z</time>
      </trkpt>
      <trkpt lat="-28.43875" lon="-65.635355">
        <ele>683.4</ele>
        <time>2018-08-18T13:05:14Z</time>
      </trkpt>
      <trkpt lat="-28.43872" lon="-65.63527">
        <ele>683.4</ele>
        <time>2018-08-18T13:05:16Z</time>
      </trkpt>
      <trkpt lat="-28.438695" lon="-65.63519">
        <ele>683.4</ele>
        <time>2018-08-18T13:05:18Z</time>
      </trkpt>
      <trkpt lat="-28.438665" lon="-65.635095">
        <ele>683.4</ele>
        <time>2018-08-18T13:05:21Z</time>
      </trkpt>
      <trkpt lat="-28.43863" lon="-65.63498">
        <ele>683.4</ele>
        <time>2018-08-18T13:05:24Z</time>
      </trkpt>
      <trkpt lat="-28.438595" lon="-65.63487">
        <ele>683.3</ele>
        <time>2018-08-18T13:05:27Z</time>
      </trkpt>
      <trkpt lat="-28.438575" lon="-65.634795">
        <ele>683.3</ele>
        <time>2018-08-18T13:05:29Z</time>
      </trkpt>
      <trkpt lat="-28.43853" lon="-65.63468">
        <ele>683.2</ele>
        <time>2018-08-18T13:05:32Z</time>
      </trkpt>
      <trkpt lat="-28.438495" lon="-65.63455">
        <ele>683.2</ele>
        <time>2018-08-18T13:05:35Z</time>
      </trkpt>
      <trkpt lat="-28.438455" lon="-65.634445">
        <ele>683.1</ele>
        <time>2018-08-18T13:05:38Z</time>
      </trkpt>
      <trkpt lat="-28.43842" lon="-65.63432666666667">
        <ele>683.1</ele>
        <time>2018-08-18T13:05:41Z</time>
      </trkpt>
      <trkpt lat="-28.438385" lon="-65.63423">
        <ele>683.1</ele>
        <time>2018-08-18T13:05:44Z</time>
      </trkpt>
      <trkpt lat="-28.43835" lon="-65.63411">
        <ele>683.1</ele>
        <time>2018-08-18T13:05:47Z</time>
      </trkpt>
      <trkpt lat="-28.438315" lon="-65.634015">
        <ele>683.0</ele>
        <time>2018-08-18T13:05:50Z</time>
      </trkpt>
      <trkpt lat="-28.43827" lon="-65.63395">
        <ele>683.0</ele>
        <time>2018-08-18T13:05:53Z</time>
      </trkpt>
      <trkpt lat="-28.438195" lon="-65.633885">
        <ele>683.0</ele>
        <time>2018-08-18T13:05:56Z</time>
      </trkpt>
      <trkpt lat="-28.438115" lon="-65.633865">
        <ele>683.1</ele>
        <time>2018-08-18T13:05:59Z</time>
      </trkpt>
      <trkpt lat="-28.43802" lon="-65.633865">
        <ele>683.2</ele>
        <time>2018-08-18T13:06:02Z</time>
      </trkpt>
      <trkpt lat="-28.437935" lon="-65.633875">
        <ele>683.2</ele>
        <time>2018-08-18T13:06:05Z</time>
      </trkpt>
      <trkpt lat="-28.437835" lon="-65.633905">
        <ele>682.5</ele>
        <time>2018-08-18T13:06:08Z</time>
      </trkpt>
      <trkpt lat="-28.437735" lon="-65.63392">
        <ele>681.9</ele>
        <time>2018-08-18T13:06:10Z</time>
      </trkpt>
      <trkpt lat="-28.437635" lon="-65.63393">
        <ele>681.8</ele>
        <time>2018-08-18T13:06:12Z</time>
      </trkpt>
      <trkpt lat="-28.43752" lon="-65.63393">
        <ele>681.9</ele>
        <time>2018-08-18T13:06:14Z</time>
      </trkpt>
      <trkpt lat="-28.43742" lon="-65.63392">
        <ele>681.2</ele>
        <time>2018-08-18T13:06:16Z</time>
      </trkpt>
      <trkpt lat="-28.43732" lon="-65.63388833333333">
        <ele>680.8</ele>
        <time>2018-08-18T13:06:18Z</time>
      </trkpt>
      <trkpt lat="-28.437245" lon="-65.63387">
        <ele>680.3</ele>
        <time>2018-08-18T13:06:20Z</time>
      </trkpt>
      <trkpt lat="-28.437165" lon="-65.633835">
        <ele>680.4</ele>
        <time>2018-08-18T13:06:22Z</time>
      </trkpt>
      <trkpt lat="-28.437065" lon="-65.633795">
        <ele>680.4</ele>
        <time>2018-08-18T13:06:25Z</time>
      </trkpt>
      <trkpt lat="-28.436985" lon="-65.63379">
        <ele>680.4</ele>
        <time>2018-08-18T13:06:27Z</time>
      </trkpt>
      <trkpt lat="-28.436905" lon="-65.63377">
        <ele>680.8</ele>
        <time>2018-08-18T13:06:29Z</time>
      </trkpt>
      <trkpt lat="-28.43683" lon="-65.633745">
        <ele>681.3</ele>
        <time>2018-08-18T13:06:31Z</time>
      </trkpt>
      <trkpt lat="-28.43676" lon="-65.63371166666667">
        <ele>681.5</ele>
        <time>2018-08-18T13:06:33Z</time>
      </trkpt>
      <trkpt lat="-28.436675" lon="-65.633695">
        <ele>681.4</ele>
        <time>2018-08-18T13:06:35Z</time>
      </trkpt>
      <trkpt lat="-28.436595" lon="-65.63366">
        <ele>681.5</ele>
        <time>2018-08-18T13:06:37Z</time>
      </trkpt>
      <trkpt lat="-28.436525" lon="-65.633645">
        <ele>681.0</ele>
        <time>2018-08-18T13:06:39Z</time>
      </trkpt>
      <trkpt lat="-28.436445" lon="-65.633615">
        <ele>680.5</ele>
        <time>2018-08-18T13:06:41Z</time>
      </trkpt>
      <trkpt lat="-28.436365" lon="-65.6336">
        <ele>679.7</ele>
        <time>2018-08-18T13:06:43Z</time>
      </trkpt>
      <trkpt lat="-28.436285" lon="-65.63359">
        <ele>679.0</ele>
        <time>2018-08-18T13:06:45Z</time>
      </trkpt>
      <trkpt lat="-28.43621" lon="-65.633585">
        <ele>679.0</ele>
        <time>2018-08-18T13:06:47Z</time>
      </trkpt>
      <trkpt lat="-28.43614" lon="-65.63356666666667">
        <ele>679.0</ele>
        <time>2018-08-18T13:06:49Z</time>
      </trkpt>
      <trkpt lat="-28.436025" lon="-65.633565">
        <ele>679.0</ele>
        <time>2018-08-18T13:06:52Z</time>
      </trkpt>
      <trkpt lat="-28.43595" lon="-65.63356666666667">
        <ele>679.0</ele>
        <time>2018-08-18T13:06:54Z</time>
      </trkpt>
      <trkpt lat="-28.435875" lon="-65.63357166666667">
        <ele>679.1</ele>
        <time>2018-08-18T13:06:56Z</time>
      </trkpt>
      <trkpt lat="-28.435765" lon="-65.633585">
        <ele>679.2</ele>
        <time>2018-08-18T13:06:59Z</time>
      </trkpt>
      <trkpt lat="-28.43568" lon="-65.633585">
        <ele>679.2</ele>
        <time>2018-08-18T13:07:02Z</time>
      </trkpt>
      <trkpt lat="-28.4356" lon="-65.633585">
        <ele>679.2</ele>
        <time>2018-08-18T13:07:05Z</time>
      </trkpt>
      <trkpt lat="-28.43552" lon="-65.63359">
        <ele>679.1</ele>
        <time>2018-08-18T13:07:08Z</time>
      </trkpt>
      <trkpt lat="-28.43543" lon="-65.6336">
        <ele>679.0</ele>
        <time>2018-08-18T13:07:12Z</time>
      </trkpt>
      <trkpt lat="-28.435335" lon="-65.63364">
        <ele>678.8</ele>
        <time>2018-08-18T13:07:14Z</time>
      </trkpt>
      <trkpt lat="-28.43524" lon="-65.633685">
        <ele>678.7</ele>
        <time>2018-08-18T13:07:18Z</time>
      </trkpt>
      <trkpt lat="-28.43515" lon="-65.63373">
        <ele>678.5</ele>
        <time>2018-08-18T13:07:21Z</time>
      </trkpt>
      <trkpt lat="-28.435075" lon="-65.633745">
        <ele>678.4</ele>
        <time>2018-08-18T13:07:24Z</time>
      </trkpt>
      <trkpt lat="-28.43497" lon="-65.63375666666667">
        <ele>678.5</ele>
        <time>2018-08-18T13:07:27Z</time>
      </trkpt>
      <trkpt lat="-28.43488" lon="-65.63377">
        <ele>678.8</ele>
        <time>2018-08-18T13:07:30Z</time>
      </trkpt>
      <trkpt lat="-28.434805" lon="-65.633785">
        <ele>678.9</ele>
        <time>2018-08-18T13:07:33Z</time>
      </trkpt>
      <trkpt lat="-28.4347" lon="-65.63379">
        <ele>679.1</ele>
        <time>2018-08-18T13:07:36Z</time>
      </trkpt>
      <trkpt lat="-28.434615" lon="-65.63379">
        <ele>679.2</ele>
        <time>2018-08-18T13:07:39Z</time>
      </trkpt>
      <trkpt lat="-28.434515" lon="-65.63379">
        <ele>679.2</ele>
        <time>2018-08-18T13:07:42Z</time>
      </trkpt>
      <trkpt lat="-28.434425" lon="-65.633795">
        <ele>679.2</ele>
        <time>2018-08-18T13:07:45Z</time>
      </trkpt>
      <trkpt lat="-28.434345" lon="-65.633825">
        <ele>679.2</ele>
        <time>2018-08-18T13:07:48Z</time>
      </trkpt>
      <trkpt lat="-28.43425" lon="-65.633875">
        <ele>679.3</ele>
        <time>2018-08-18T13:07:51Z</time>
      </trkpt>
      <trkpt lat="-28.434185" lon="-65.63393">
        <ele>679.4</ele>
        <time>2018-08-18T13:07:54Z</time>
      </trkpt>
      <trkpt lat="-28.43414" lon="-65.633995">
        <ele>679.3</ele>
        <time>2018-08-18T13:07:57Z</time>
      </trkpt>
      <trkpt lat="-28.434075" lon="-65.634065">
        <ele>679.3</ele>
        <time>2018-08-18T13:08:00Z</time>
      </trkpt>
      <trkpt lat="-28.43401" lon="-65.634135">
        <ele>679.3</ele>
        <time>2018-08-18T13:08:03Z</time>
      </trkpt>
      <trkpt lat="-28.43394" lon="-65.634195">
        <ele>679.4</ele>
        <time>2018-08-18T13:08:06Z</time>
      </trkpt>
      <trkpt lat="-28.43387" lon="-65.63424166666667">
        <ele>679.6</ele>
        <time>2018-08-18T13:08:09Z</time>
      </trkpt>
      <trkpt lat="-28.433805" lon="-65.634285">
        <ele>679.7</ele>
        <time>2018-08-18T13:08:12Z</time>
      </trkpt>
      <trkpt lat="-28.433735" lon="-65.63432666666667">
        <ele>679.6</ele>
        <time>2018-08-18T13:08:15Z</time>
      </trkpt>
      <trkpt lat="-28.433665" lon="-65.63437">
        <ele>679.7</ele>
        <time>2018-08-18T13:08:18Z</time>
      </trkpt>
      <trkpt lat="-28.43359" lon="-65.63442">
        <ele>679.7</ele>
        <time>2018-08-18T13:08:21Z</time>
      </trkpt>
      <trkpt lat="-28.433515" lon="-65.634465">
        <ele>679.7</ele>
        <time>2018-08-18T13:08:24Z</time>
      </trkpt>
      <trkpt lat="-28.433425" lon="-65.634505">
        <ele>679.6</ele>
        <time>2018-08-18T13:08:27Z</time>
      </trkpt>
      <trkpt lat="-28.43334" lon="-65.63455166666667">
        <ele>679.6</ele>
        <time>2018-08-18T13:08:30Z</time>
      </trkpt>
      <trkpt lat="-28.43327" lon="-65.634595">
        <ele>679.6</ele>
        <time>2018-08-18T13:08:33Z</time>
      </trkpt>
      <trkpt lat="-28.43319" lon="-65.634635">
        <ele>679.7</ele>
        <time>2018-08-18T13:08:37Z</time>
      </trkpt>
      <trkpt lat="-28.433115" lon="-65.63467">
        <ele>679.8</ele>
        <time>2018-08-18T13:08:41Z</time>
      </trkpt>
      <trkpt lat="-28.433045" lon="-65.634715">
        <ele>679.8</ele>
        <time>2018-08-18T13:08:44Z</time>
      </trkpt>
      <trkpt lat="-28.432955" lon="-65.634755">
        <ele>679.8</ele>
        <time>2018-08-18T13:08:48Z</time>
      </trkpt>
      <trkpt lat="-28.432885" lon="-65.63478333333333">
        <ele>679.8</ele>
        <time>2018-08-18T13:08:51Z</time>
      </trkpt>
      <trkpt lat="-28.4328" lon="-65.63482333333333">
        <ele>679.7</ele>
        <time>2018-08-18T13:08:55Z</time>
      </trkpt>
      <trkpt lat="-28.43272" lon="-65.63486">
        <ele>679.6</ele>
        <time>2018-08-18T13:08:58Z</time>
      </trkpt>
      <trkpt lat="-28.43263" lon="-65.634885">
        <ele>679.8</ele>
        <time>2018-08-18T13:09:01Z</time>
      </trkpt>
      <trkpt lat="-28.432545" lon="-65.634895">
        <ele>680.0</ele>
        <time>2018-08-18T13:09:04Z</time>
      </trkpt>
      <trkpt lat="-28.432455" lon="-65.634895">
        <ele>680.2</ele>
        <time>2018-08-18T13:09:07Z</time>
      </trkpt>
      <trkpt lat="-28.432385" lon="-65.634895">
        <ele>680.4</ele>
        <time>2018-08-18T13:09:09Z</time>
      </trkpt>
      <trkpt lat="-28.432285" lon="-65.63489">
        <ele>680.6</ele>
        <time>2018-08-18T13:09:12Z</time>
      </trkpt>
      <trkpt lat="-28.4322" lon="-65.63486">
        <ele>680.7</ele>
        <time>2018-08-18T13:09:15Z</time>
      </trkpt>
      <trkpt lat="-28.432095" lon="-65.63482">
        <ele>680.7</ele>
        <time>2018-08-18T13:09:18Z</time>
      </trkpt>
      <trkpt lat="-28.432005" lon="-65.634775">
        <ele>680.9</ele>
        <time>2018-08-18T13:09:21Z</time>
      </trkpt>
      <trkpt lat="-28.431905" lon="-65.63473">
        <ele>680.9</ele>
        <time>2018-08-18T13:09:24Z</time>
      </trkpt>
      <trkpt lat="-28.43182" lon="-65.63468">
        <ele>680.9</ele>
        <time>2018-08-18T13:09:27Z</time>
      </trkpt>
      <trkpt lat="-28.431715" lon="-65.634635">
        <ele>681.0</ele>
        <time>2018-08-18T13:09:30Z</time>
      </trkpt>
      <trkpt lat="-28.431635" lon="-65.634585">
        <ele>681.1</ele>
        <time>2018-08-18T13:09:34Z</time>
      </trkpt>
      <trkpt lat="-28.43156" lon="-65.634545">
        <ele>681.1</ele>
        <time>2018-08-18T13:09:36Z</time>
      </trkpt>
      <trkpt lat="-28.43147" lon="-65.634505">
        <ele>681.0</ele>
        <time>2018-08-18T13:09:39Z</time>
      </trkpt>
      <trkpt lat="-28.431395" lon="-65.634465">
        <ele>681.0</ele>
        <time>2018-08-18T13:09:41Z</time>
      </trkpt>
      <trkpt lat="-28.43131" lon="-65.63442">
        <ele>681.1</ele>
        <time>2018-08-18T13:09:44Z</time>
      </trkpt>
      <trkpt lat="-28.431215" lon="-65.634375">
        <ele>681.3</ele>
        <time>2018-08-18T13:09:47Z</time>
      </trkpt>
      <trkpt lat="-28.431145" lon="-65.634355">
        <ele>681.5</ele>
        <time>2018-08-18T13:09:49Z</time>
      </trkpt>
      <trkpt lat="-28.431055" lon="-65.634305">
        <ele>681.7</ele>
        <time>2018-08-18T13:09:52Z</time>
      </trkpt>
      <trkpt lat="-28.430955" lon="-65.63426">
        <ele>681.9</ele>
        <time>2018-08-18T13:09:55Z</time>
      </trkpt>
      <trkpt lat="-28.430885" lon="-65.63423">
        <ele>682.1</ele>
        <time>2018-08-18T13:09:57Z</time>
      </trkpt>
      <trkpt lat="-28.430805" lon="-65.634195">
        <ele>683.1</ele>
        <time>2018-08-18T13:09:59Z</time>
      </trkpt>
      <trkpt lat="-28.43073" lon="-65.63415833333333">
        <ele>684.3</ele>
        <time>2018-08-18T13:10:01Z</time>
      </trkpt>
      <trkpt lat="-28.43066" lon="-65.634135">
        <ele>684.8</ele>
        <time>2018-08-18T13:10:03Z</time>
      </trkpt>
      <trkpt lat="-28.430576666666667" lon="-65.63411">
        <ele>685.0</ele>
        <time>2018-08-18T13:10:05Z</time>
      </trkpt>
      <trkpt lat="-28.430515" lon="-65.63408">
        <ele>685.0</ele>
        <time>2018-08-18T13:10:07Z</time>
      </trkpt>
      <trkpt lat="-28.430445" lon="-65.63405">
        <ele>684.6</ele>
        <time>2018-08-18T13:10:09Z</time>
      </trkpt>
      <trkpt lat="-28.430365" lon="-65.634015">
        <ele>684.6</ele>
        <time>2018-08-18T13:10:11Z</time>
      </trkpt>
      <trkpt lat="-28.430265" lon="-65.63397">
        <ele>684.1</ele>
        <time>2018-08-18T13:10:14Z</time>
      </trkpt>
      <trkpt lat="-28.430195" lon="-65.63393">
        <ele>683.4</ele>
        <time>2018-08-18T13:10:16Z</time>
      </trkpt>
      <trkpt lat="-28.4301" lon="-65.633875">
        <ele>682.6</ele>
        <time>2018-08-18T13:10:19Z</time>
      </trkpt>
      <trkpt lat="-28.430035" lon="-65.63383833333333">
        <ele>682.6</ele>
        <time>2018-08-18T13:10:21Z</time>
      </trkpt>
      <trkpt lat="-28.42997" lon="-65.63381">
        <ele>682.6</ele>
        <time>2018-08-18T13:10:23Z</time>
      </trkpt>
      <trkpt lat="-28.429885" lon="-65.63375666666667">
        <ele>682.6</ele>
        <time>2018-08-18T13:10:26Z</time>
      </trkpt>
      <trkpt lat="-28.429795" lon="-65.63374">
        <ele>682.7</ele>
        <time>2018-08-18T13:10:29Z</time>
      </trkpt>
      <trkpt lat="-28.4297" lon="-65.633725">
        <ele>682.9</ele>
        <time>2018-08-18T13:10:32Z</time>
      </trkpt>
      <trkpt lat="-28.42961" lon="-65.63371333333333">
        <ele>683.1</ele>
        <time>2018-08-18T13:10:35Z</time>
      </trkpt>
      <trkpt lat="-28.42952" lon="-65.63371166666667">
        <ele>683.3</ele>
        <time>2018-08-18T13:10:38Z</time>
      </trkpt>
      <trkpt lat="-28.42943" lon="-65.63371166666667">
        <ele>683.3</ele>
        <time>2018-08-18T13:10:42Z</time>
      </trkpt>
      <trkpt lat="-28.42934" lon="-65.633745">
        <ele>683.5</ele>
        <time>2018-08-18T13:10:46Z</time>
      </trkpt>
      <trkpt lat="-28.429275" lon="-65.63379166666667">
        <ele>683.6</ele>
        <time>2018-08-18T13:10:49Z</time>
      </trkpt>
      <trkpt lat="-28.42921" lon="-65.633905">
        <ele>683.5</ele>
        <time>2018-08-18T13:10:52Z</time>
      </trkpt>
      <trkpt lat="-28.429165" lon="-65.63397">
        <ele>683.1</ele>
        <time>2018-08-18T13:10:54Z</time>
      </trkpt>
      <trkpt lat="-28.429095" lon="-65.634055">
        <ele>682.8</ele>
        <time>2018-08-18T13:10:56Z</time>
      </trkpt>
      <trkpt lat="-28.429025" lon="-65.63411">
        <ele>682.5</ele>
        <time>2018-08-18T13:10:58Z</time>
      </trkpt>
      <trkpt lat="-28.42896" lon="-65.634155">
        <ele>682.4</ele>
        <time>2018-08-18T13:11:00Z</time>
      </trkpt>
      <trkpt lat="-28.428865" lon="-65.634205">
        <ele>682.5</ele>
        <time>2018-08-18T13:11:03Z</time>
      </trkpt>
      <trkpt lat="-28.428795" lon="-65.63424333333333">
        <ele>682.5</ele>
        <time>2018-08-18T13:11:05Z</time>
      </trkpt>
      <trkpt lat="-28.42872" lon="-65.63428166666667">
        <ele>682.6</ele>
        <time>2018-08-18T13:11:07Z</time>
      </trkpt>
      <trkpt lat="-28.428625" lon="-65.63432666666667">
        <ele>682.8</ele>
        <time>2018-08-18T13:11:10Z</time>
      </trkpt>
      <trkpt lat="-28.428525" lon="-65.634375">
        <ele>682.9</ele>
        <time>2018-08-18T13:11:13Z</time>
      </trkpt>
      <trkpt lat="-28.428455" lon="-65.63441">
        <ele>683.7</ele>
        <time>2018-08-18T13:11:15Z</time>
      </trkpt>
      <trkpt lat="-28.42838" lon="-65.634445">
        <ele>684.7</ele>
        <time>2018-08-18T13:11:17Z</time>
      </trkpt>
      <trkpt lat="-28.42832" lon="-65.634485">
        <ele>684.8</ele>
        <time>2018-08-18T13:11:19Z</time>
      </trkpt>
      <trkpt lat="-28.42825" lon="-65.63451">
        <ele>684.9</ele>
        <time>2018-08-18T13:11:21Z</time>
      </trkpt>
      <trkpt lat="-28.428165" lon="-65.63455166666667">
        <ele>685.1</ele>
        <time>2018-08-18T13:11:24Z</time>
      </trkpt>
      <trkpt lat="-28.428075" lon="-65.63459166666667">
        <ele>685.4</ele>
        <time>2018-08-18T13:11:27Z</time>
      </trkpt>
      <trkpt lat="-28.428" lon="-65.634635">
        <ele>685.6</ele>
        <time>2018-08-18T13:11:30Z</time>
      </trkpt>
      <trkpt lat="-28.427915" lon="-65.63466">
        <ele>685.9</ele>
        <time>2018-08-18T13:11:33Z</time>
      </trkpt>
      <trkpt lat="-28.427845" lon="-65.63469">
        <ele>686.1</ele>
        <time>2018-08-18T13:11:36Z</time>
      </trkpt>
      <trkpt lat="-28.427755" lon="-65.63473">
        <ele>686.3</ele>
        <time>2018-08-18T13:11:40Z</time>
      </trkpt>
      <trkpt lat="-28.42766" lon="-65.634755">
        <ele>686.4</ele>
        <time>2018-08-18T13:11:44Z</time>
      </trkpt>
      <trkpt lat="-28.427585" lon="-65.634775">
        <ele>686.5</ele>
        <time>2018-08-18T13:11:47Z</time>
      </trkpt>
      <trkpt lat="-28.427505" lon="-65.63478166666667">
        <ele>686.7</ele>
        <time>2018-08-18T13:11:50Z</time>
      </trkpt>
      <trkpt lat="-28.427415" lon="-65.634805">
        <ele>687.0</ele>
        <time>2018-08-18T13:11:54Z</time>
      </trkpt>
      <trkpt lat="-28.42732" lon="-65.63481">
        <ele>687.3</ele>
        <time>2018-08-18T13:11:58Z</time>
      </trkpt>
      <trkpt lat="-28.427235" lon="-65.63481">
        <ele>687.5</ele>
        <time>2018-08-18T13:12:01Z</time>
      </trkpt>
      <trkpt lat="-28.427165" lon="-65.63481666666667">
        <ele>687.7</ele>
        <time>2018-08-18T13:12:04Z</time>
      </trkpt>
      <trkpt lat="-28.427075" lon="-65.634825">
        <ele>688.0</ele>
        <time>2018-08-18T13:12:07Z</time>
      </trkpt>
      <trkpt lat="-28.426995" lon="-65.634825">
        <ele>688.4</ele>
        <time>2018-08-18T13:12:10Z</time>
      </trkpt>
      <trkpt lat="-28.42692" lon="-65.63482833333333">
        <ele>688.7</ele>
        <time>2018-08-18T13:12:13Z</time>
      </trkpt>
      <trkpt lat="-28.426825" lon="-65.63481666666667">
        <ele>689.0</ele>
        <time>2018-08-18T13:12:16Z</time>
      </trkpt>
      <trkpt lat="-28.426745" lon="-65.63481">
        <ele>689.1</ele>
        <time>2018-08-18T13:12:19Z</time>
      </trkpt>
      <trkpt lat="-28.426665" lon="-65.634775">
        <ele>689.1</ele>
        <time>2018-08-18T13:12:22Z</time>
      </trkpt>
      <trkpt lat="-28.426585" lon="-65.63473833333333">
        <ele>689.1</ele>
        <time>2018-08-18T13:12:25Z</time>
      </trkpt>
      <trkpt lat="-28.426515" lon="-65.634725">
        <ele>689.1</ele>
        <time>2018-08-18T13:12:28Z</time>
      </trkpt>
      <trkpt lat="-28.426445" lon="-65.63469">
        <ele>689.1</ele>
        <time>2018-08-18T13:12:31Z</time>
      </trkpt>
      <trkpt lat="-28.42635" lon="-65.63466">
        <ele>688.9</ele>
        <time>2018-08-18T13:12:34Z</time>
      </trkpt>
      <trkpt lat="-28.42627" lon="-65.63463">
        <ele>688.7</ele>
        <time>2018-08-18T13:12:37Z</time>
      </trkpt>
      <trkpt lat="-28.42618" lon="-65.63459166666667">
        <ele>688.5</ele>
        <time>2018-08-18T13:12:40Z</time>
      </trkpt>
      <trkpt lat="-28.42608" lon="-65.634575">
        <ele>688.3</ele>
        <time>2018-08-18T13:12:43Z</time>
      </trkpt>
      <trkpt lat="-28.426005" lon="-65.63455">
        <ele>688.1</ele>
        <time>2018-08-18T13:12:46Z</time>
      </trkpt>
      <trkpt lat="-28.425910000000002" lon="-65.63450666666667">
        <ele>687.8</ele>
        <time>2018-08-18T13:12:50Z</time>
      </trkpt>
      <trkpt lat="-28.42582" lon="-65.63449">
        <ele>687.7</ele>
        <time>2018-08-18T13:12:53Z</time>
      </trkpt>
      <trkpt lat="-28.425745" lon="-65.634455">
        <ele>687.5</ele>
        <time>2018-08-18T13:12:56Z</time>
      </trkpt>
      <trkpt lat="-28.425665" lon="-65.63442">
        <ele>687.4</ele>
        <time>2018-08-18T13:12:59Z</time>
      </trkpt>
      <trkpt lat="-28.42558" lon="-65.634405">
        <ele>687.3</ele>
        <time>2018-08-18T13:13:02Z</time>
      </trkpt>
      <trkpt lat="-28.42551" lon="-65.63437">
        <ele>687.3</ele>
        <time>2018-08-18T13:13:05Z</time>
      </trkpt>
      <trkpt lat="-28.425435" lon="-65.634355">
        <ele>687.4</ele>
        <time>2018-08-18T13:13:08Z</time>
      </trkpt>
      <trkpt lat="-28.425365" lon="-65.634325">
        <ele>687.5</ele>
        <time>2018-08-18T13:13:11Z</time>
      </trkpt>
      <trkpt lat="-28.425295" lon="-65.634305">
        <ele>687.6</ele>
        <time>2018-08-18T13:13:14Z</time>
      </trkpt>
      <trkpt lat="-28.4252" lon="-65.63427">
        <ele>687.8</ele>
        <time>2018-08-18T13:13:18Z</time>
      </trkpt>
      <trkpt lat="-28.42513" lon="-65.63424">
        <ele>687.9</ele>
        <time>2018-08-18T13:13:21Z</time>
      </trkpt>
      <trkpt lat="-28.42504" lon="-65.63422">
        <ele>687.7</ele>
        <time>2018-08-18T13:13:25Z</time>
      </trkpt>
      <trkpt lat="-28.42496" lon="-65.63419">
        <ele>687.5</ele>
        <time>2018-08-18T13:13:28Z</time>
      </trkpt>
      <trkpt lat="-28.42488" lon="-65.634155">
        <ele>687.2</ele>
        <time>2018-08-18T13:13:31Z</time>
      </trkpt>
      <trkpt lat="-28.424795" lon="-65.63413">
        <ele>686.9</ele>
        <time>2018-08-18T13:13:34Z</time>
      </trkpt>
      <trkpt lat="-28.4247" lon="-65.6341">
        <ele>686.8</ele>
        <time>2018-08-18T13:13:37Z</time>
      </trkpt>
      <trkpt lat="-28.424605" lon="-65.63405666666667">
        <ele>686.7</ele>
        <time>2018-08-18T13:13:40Z</time>
      </trkpt>
      <trkpt lat="-28.4245" lon="-65.63402166666667">
        <ele>686.7</ele>
        <time>2018-08-18T13:13:43Z</time>
      </trkpt>
      <trkpt lat="-28.424395" lon="-65.634005">
        <ele>687.8</ele>
        <time>2018-08-18T13:13:46Z</time>
      </trkpt>
      <trkpt lat="-28.42432" lon="-65.63397666666667">
        <ele>687.9</ele>
        <time>2018-08-18T13:13:48Z</time>
      </trkpt>
      <trkpt lat="-28.424215" lon="-65.63395">
        <ele>688.1</ele>
        <time>2018-08-18T13:13:51Z</time>
      </trkpt>
      <trkpt lat="-28.424145" lon="-65.63393">
        <ele>688.2</ele>
        <time>2018-08-18T13:13:53Z</time>
      </trkpt>
      <trkpt lat="-28.42406" lon="-65.63388833333333">
        <ele>688.3</ele>
        <time>2018-08-18T13:13:56Z</time>
      </trkpt>
      <trkpt lat="-28.42398" lon="-65.63383666666667">
        <ele>688.3</ele>
        <time>2018-08-18T13:13:59Z</time>
      </trkpt>
      <trkpt lat="-28.42391" lon="-65.63377">
        <ele>688.3</ele>
        <time>2018-08-18T13:14:02Z</time>
      </trkpt>
      <trkpt lat="-28.423835" lon="-65.633695">
        <ele>688.3</ele>
        <time>2018-08-18T13:14:05Z</time>
      </trkpt>
      <trkpt lat="-28.423775" lon="-65.63360333333333">
        <ele>688.4</ele>
        <time>2018-08-18T13:14:08Z</time>
      </trkpt>
      <trkpt lat="-28.423715" lon="-65.63352">
        <ele>688.6</ele>
        <time>2018-08-18T13:14:11Z</time>
      </trkpt>
      <trkpt lat="-28.423675" lon="-65.633435">
        <ele>688.8</ele>
        <time>2018-08-18T13:14:13Z</time>
      </trkpt>
      <trkpt lat="-28.423635" lon="-65.633375">
        <ele>689.1</ele>
        <time>2018-08-18T13:14:15Z</time>
      </trkpt>
      <trkpt lat="-28.423575" lon="-65.633275">
        <ele>689.4</ele>
        <time>2018-08-18T13:14:18Z</time>
      </trkpt>
      <trkpt lat="-28.423515" lon="-65.63317166666667">
        <ele>689.7</ele>
        <time>2018-08-18T13:14:21Z</time>
      </trkpt>
      <trkpt lat="-28.423455" lon="-65.63308166666667">
        <ele>690.1</ele>
        <time>2018-08-18T13:14:24Z</time>
      </trkpt>
      <trkpt lat="-28.423415" lon="-65.63301">
        <ele>690.4</ele>
        <time>2018-08-18T13:14:26Z</time>
      </trkpt>
      <trkpt lat="-28.423375" lon="-65.632945">
        <ele>693.1</ele>
        <time>2018-08-18T13:14:28Z</time>
      </trkpt>
      <trkpt lat="-28.423315" lon="-65.63284">
        <ele>694.5</ele>
        <time>2018-08-18T13:14:31Z</time>
      </trkpt>
      <trkpt lat="-28.423265" lon="-65.63275">
        <ele>694.5</ele>
        <time>2018-08-18T13:14:33Z</time>
      </trkpt>
      <trkpt lat="-28.42322" lon="-65.63266">
        <ele>694.6</ele>
        <time>2018-08-18T13:14:35Z</time>
      </trkpt>
      <trkpt lat="-28.423175" lon="-65.63258">
        <ele>694.4</ele>
        <time>2018-08-18T13:14:37Z</time>
      </trkpt>
      <trkpt lat="-28.423135" lon="-65.632495">
        <ele>694.4</ele>
        <time>2018-08-18T13:14:39Z</time>
      </trkpt>
      <trkpt lat="-28.42309" lon="-65.63241">
        <ele>694.3</ele>
        <time>2018-08-18T13:14:42Z</time>
      </trkpt>
      <trkpt lat="-28.42305" lon="-65.632335">
        <ele>694.1</ele>
        <time>2018-08-18T13:14:47Z</time>
      </trkpt>
      <trkpt lat="-28.423005" lon="-65.632265">
        <ele>693.8</ele>
        <time>2018-08-18T13:14:51Z</time>
      </trkpt>
      <trkpt lat="-28.42297" lon="-65.632185">
        <ele>693.4</ele>
        <time>2018-08-18T13:14:56Z</time>
      </trkpt>
      <trkpt lat="-28.42297" lon="-65.63218833333333">
        <ele>693.0</ele>
        <time>2018-08-18T13:15:02Z</time>
      </trkpt>
      <trkpt lat="-28.42297" lon="-65.632215">
        <ele>692.1</ele>
        <time>2018-08-18T13:15:40Z</time>
      </trkpt>
      <trkpt lat="-28.42297" lon="-65.63222">
        <ele>692.1</ele>
        <time>2018-08-18T13:15:41Z</time>
      </trkpt>
      <trkpt lat="-28.42299" lon="-65.63219166666667">
        <ele>691.0</ele>
        <time>2018-08-18T13:15:52Z</time>
      </trkpt>
      <trkpt lat="-28.422985" lon="-65.632205">
        <ele>691.0</ele>
        <time>2018-08-18T13:15:53Z</time>
      </trkpt>
      <trkpt lat="-28.42297" lon="-65.632205">
        <ele>691.0</ele>
        <time>2018-08-18T13:16:03Z</time>
      </trkpt>
      <trkpt lat="-28.42297" lon="-65.63219166666667">
        <ele>691.2</ele>
        <time>2018-08-18T13:16:04Z</time>
      </trkpt>
      <trkpt lat="-28.42296" lon="-65.632175">
        <ele>691.5</ele>
        <time>2018-08-18T13:16:26Z</time>
      </trkpt>
      <trkpt lat="-28.42296" lon="-65.632175">
        <ele>691.5</ele>
        <time>2018-08-18T13:16:27Z</time>
      </trkpt>
      <trkpt lat="-28.42297" lon="-65.632185">
        <ele>691.4</ele>
        <time>2018-08-18T13:16:37Z</time>
      </trkpt>
      <trkpt lat="-28.42297" lon="-65.632185">
        <ele>691.2</ele>
        <time>2018-08-18T13:16:38Z</time>
      </trkpt>
      <trkpt lat="-28.422985" lon="-65.632175">
        <ele>691.0</ele>
        <time>2018-08-18T13:16:50Z</time>
      </trkpt>
      <trkpt lat="-28.422985" lon="-65.632175">
        <ele>691.0</ele>
        <time>2018-08-18T13:16:52Z</time>
      </trkpt>
      <trkpt lat="-28.422935" lon="-65.632155">
        <ele>690.8</ele>
        <time>2018-08-18T13:17:06Z</time>
      </trkpt>
      <trkpt lat="-28.4229" lon="-65.63208">
        <ele>690.7</ele>
        <time>2018-08-18T13:17:10Z</time>
      </trkpt>
      <trkpt lat="-28.422865" lon="-65.632">
        <ele>690.6</ele>
        <time>2018-08-18T13:17:15Z</time>
      </trkpt>
      <trkpt lat="-28.422825" lon="-65.63196">
        <ele>690.2</ele>
        <time>2018-08-18T13:17:22Z</time>
      </trkpt>
      <trkpt lat="-28.42277" lon="-65.631895">
        <ele>689.5</ele>
        <time>2018-08-18T13:17:28Z</time>
      </trkpt>
      <trkpt lat="-28.422719999999998" lon="-65.63182">
        <ele>688.9</ele>
        <time>2018-08-18T13:17:32Z</time>
      </trkpt>
      <trkpt lat="-28.422675" lon="-65.631765">
        <ele>688.5</ele>
        <time>2018-08-18T13:17:35Z</time>
      </trkpt>
      <trkpt lat="-28.422625" lon="-65.63169">
        <ele>688.1</ele>
        <time>2018-08-18T13:17:38Z</time>
      </trkpt>
      <trkpt lat="-28.42257" lon="-65.63162">
        <ele>687.7</ele>
        <time>2018-08-18T13:17:41Z</time>
      </trkpt>
      <trkpt lat="-28.422505" lon="-65.63155">
        <ele>687.3</ele>
        <time>2018-08-18T13:17:44Z</time>
      </trkpt>
      <trkpt lat="-28.422455" lon="-65.631475">
        <ele>686.9</ele>
        <time>2018-08-18T13:17:47Z</time>
      </trkpt>
      <trkpt lat="-28.42239" lon="-65.631405">
        <ele>686.5</ele>
        <time>2018-08-18T13:17:50Z</time>
      </trkpt>
      <trkpt lat="-28.422345" lon="-65.631335">
        <ele>686.3</ele>
        <time>2018-08-18T13:17:53Z</time>
      </trkpt>
      <trkpt lat="-28.42229" lon="-65.631275">
        <ele>686.1</ele>
        <time>2018-08-18T13:17:56Z</time>
      </trkpt>
      <trkpt lat="-28.422245" lon="-65.63120333333333">
        <ele>686.1</ele>
        <time>2018-08-18T13:17:59Z</time>
      </trkpt>
      <trkpt lat="-28.42219" lon="-65.631145">
        <ele>686.1</ele>
        <time>2018-08-18T13:18:02Z</time>
      </trkpt>
      <trkpt lat="-28.42214" lon="-65.631085">
        <ele>686.2</ele>
        <time>2018-08-18T13:18:05Z</time>
      </trkpt>
      <trkpt lat="-28.42209" lon="-65.63102">
        <ele>686.3</ele>
        <time>2018-08-18T13:18:08Z</time>
      </trkpt>
      <trkpt lat="-28.42204" lon="-65.630955">
        <ele>686.5</ele>
        <time>2018-08-18T13:18:11Z</time>
      </trkpt>
      <trkpt lat="-28.421975" lon="-65.630885">
        <ele>686.8</ele>
        <time>2018-08-18T13:18:14Z</time>
      </trkpt>
      <trkpt lat="-28.421925" lon="-65.630825">
        <ele>687.1</ele>
        <time>2018-08-18T13:18:17Z</time>
      </trkpt>
      <trkpt lat="-28.421865" lon="-65.63075">
        <ele>687.3</ele>
        <time>2018-08-18T13:18:20Z</time>
      </trkpt>
      <trkpt lat="-28.42181" lon="-65.630675">
        <ele>687.6</ele>
        <time>2018-08-18T13:18:23Z</time>
      </trkpt>
      <trkpt lat="-28.42175" lon="-65.630605">
        <ele>687.8</ele>
        <time>2018-08-18T13:18:26Z</time>
      </trkpt>
      <trkpt lat="-28.421685" lon="-65.630525">
        <ele>688.1</ele>
        <time>2018-08-18T13:18:29Z</time>
      </trkpt>
      <trkpt lat="-28.42163" lon="-65.63044666666667">
        <ele>688.4</ele>
        <time>2018-08-18T13:18:32Z</time>
      </trkpt>
      <trkpt lat="-28.42157" lon="-65.63038">
        <ele>688.7</ele>
        <time>2018-08-18T13:18:35Z</time>
      </trkpt>
      <trkpt lat="-28.42152" lon="-65.63032">
        <ele>688.9</ele>
        <time>2018-08-18T13:18:38Z</time>
      </trkpt>
      <trkpt lat="-28.42147" lon="-65.63025">
        <ele>689.0</ele>
        <time>2018-08-18T13:18:41Z</time>
      </trkpt>
      <trkpt lat="-28.421395" lon="-65.63017">
        <ele>689.0</ele>
        <time>2018-08-18T13:18:45Z</time>
      </trkpt>
      <trkpt lat="-28.42133" lon="-65.6301">
        <ele>688.9</ele>
        <time>2018-08-18T13:18:48Z</time>
      </trkpt>
      <trkpt lat="-28.421275" lon="-65.63003">
        <ele>688.8</ele>
        <time>2018-08-18T13:18:51Z</time>
      </trkpt>
      <trkpt lat="-28.42122" lon="-65.62994833333333">
        <ele>688.7</ele>
        <time>2018-08-18T13:18:54Z</time>
      </trkpt>
      <trkpt lat="-28.42116" lon="-65.629885">
        <ele>688.6</ele>
        <time>2018-08-18T13:18:57Z</time>
      </trkpt>
      <trkpt lat="-28.421105" lon="-65.62981">
        <ele>688.4</ele>
        <time>2018-08-18T13:19:00Z</time>
      </trkpt>
      <trkpt lat="-28.42105" lon="-65.629745">
        <ele>688.2</ele>
        <time>2018-08-18T13:19:03Z</time>
      </trkpt>
      <trkpt lat="-28.421" lon="-65.62967333333333">
        <ele>688.1</ele>
        <time>2018-08-18T13:19:06Z</time>
      </trkpt>
      <trkpt lat="-28.420945" lon="-65.62958">
        <ele>688.1</ele>
        <time>2018-08-18T13:19:10Z</time>
      </trkpt>
      <trkpt lat="-28.420895" lon="-65.629495">
        <ele>688.1</ele>
        <time>2018-08-18T13:19:13Z</time>
      </trkpt>
      <trkpt lat="-28.420835" lon="-65.62941000000001">
        <ele>688.2</ele>
        <time>2018-08-18T13:19:16Z</time>
      </trkpt>
      <trkpt lat="-28.420775" lon="-65.62932333333333">
        <ele>688.2</ele>
        <time>2018-08-18T13:19:19Z</time>
      </trkpt>
      <trkpt lat="-28.420715" lon="-65.62923">
        <ele>688.2</ele>
        <time>2018-08-18T13:19:22Z</time>
      </trkpt>
      <trkpt lat="-28.420655" lon="-65.629155">
        <ele>688.2</ele>
        <time>2018-08-18T13:19:25Z</time>
      </trkpt>
      <trkpt lat="-28.4206" lon="-65.62905666666667">
        <ele>688.3</ele>
        <time>2018-08-18T13:19:28Z</time>
      </trkpt>
      <trkpt lat="-28.420536666666667" lon="-65.628995">
        <ele>688.3</ele>
        <time>2018-08-18T13:19:31Z</time>
      </trkpt>
      <trkpt lat="-28.42049" lon="-65.62891333333333">
        <ele>688.2</ele>
        <time>2018-08-18T13:19:34Z</time>
      </trkpt>
      <trkpt lat="-28.42043" lon="-65.62882">
        <ele>688.3</ele>
        <time>2018-08-18T13:19:37Z</time>
      </trkpt>
      <trkpt lat="-28.42036" lon="-65.628735">
        <ele>688.5</ele>
        <time>2018-08-18T13:19:40Z</time>
      </trkpt>
      <trkpt lat="-28.420295" lon="-65.62866">
        <ele>688.7</ele>
        <time>2018-08-18T13:19:43Z</time>
      </trkpt>
      <trkpt lat="-28.42023" lon="-65.628585">
        <ele>688.7</ele>
        <time>2018-08-18T13:19:46Z</time>
      </trkpt>
      <trkpt lat="-28.420156666666667" lon="-65.628495">
        <ele>688.8</ele>
        <time>2018-08-18T13:19:49Z</time>
      </trkpt>
      <trkpt lat="-28.42011" lon="-65.628405">
        <ele>689.0</ele>
        <time>2018-08-18T13:19:52Z</time>
      </trkpt>
      <trkpt lat="-28.42005" lon="-65.62831">
        <ele>689.3</ele>
        <time>2018-08-18T13:19:55Z</time>
      </trkpt>
      <trkpt lat="-28.419995" lon="-65.628225">
        <ele>689.5</ele>
        <time>2018-08-18T13:19:58Z</time>
      </trkpt>
      <trkpt lat="-28.41994" lon="-65.628135">
        <ele>689.8</ele>
        <time>2018-08-18T13:20:01Z</time>
      </trkpt>
      <trkpt lat="-28.41989" lon="-65.62805">
        <ele>690.0</ele>
        <time>2018-08-18T13:20:04Z</time>
      </trkpt>
      <trkpt lat="-28.419835" lon="-65.62796">
        <ele>690.2</ele>
        <time>2018-08-18T13:20:07Z</time>
      </trkpt>
      <trkpt lat="-28.41978" lon="-65.62787">
        <ele>690.4</ele>
        <time>2018-08-18T13:20:10Z</time>
      </trkpt>
      <trkpt lat="-28.419725" lon="-65.627775">
        <ele>690.6</ele>
        <time>2018-08-18T13:20:13Z</time>
      </trkpt>
      <trkpt lat="-28.41967" lon="-65.62769">
        <ele>690.9</ele>
        <time>2018-08-18T13:20:16Z</time>
      </trkpt>
      <trkpt lat="-28.41962" lon="-65.6276">
        <ele>691.2</ele>
        <time>2018-08-18T13:20:19Z</time>
      </trkpt>
      <trkpt lat="-28.419575" lon="-65.62752">
        <ele>691.4</ele>
        <time>2018-08-18T13:20:22Z</time>
      </trkpt>
      <trkpt lat="-28.419515" lon="-65.62743">
        <ele>691.6</ele>
        <time>2018-08-18T13:20:25Z</time>
      </trkpt>
      <trkpt lat="-28.41947" lon="-65.62734">
        <ele>691.8</ele>
        <time>2018-08-18T13:20:28Z</time>
      </trkpt>
      <trkpt lat="-28.41941" lon="-65.62726">
        <ele>692.0</ele>
        <time>2018-08-18T13:20:31Z</time>
      </trkpt>
      <trkpt lat="-28.41936" lon="-65.62716833333333">
        <ele>692.1</ele>
        <time>2018-08-18T13:20:34Z</time>
      </trkpt>
      <trkpt lat="-28.4193" lon="-65.62708833333333">
        <ele>692.1</ele>
        <time>2018-08-18T13:20:37Z</time>
      </trkpt>
      <trkpt lat="-28.419255" lon="-65.627025">
        <ele>692.3</ele>
        <time>2018-08-18T13:20:40Z</time>
      </trkpt>
      <trkpt lat="-28.419205" lon="-65.626945">
        <ele>692.4</ele>
        <time>2018-08-18T13:20:43Z</time>
      </trkpt>
      <trkpt lat="-28.419155" lon="-65.62685833333333">
        <ele>692.5</ele>
        <time>2018-08-18T13:20:46Z</time>
      </trkpt>
      <trkpt lat="-28.419115" lon="-65.626755">
        <ele>692.7</ele>
        <time>2018-08-18T13:20:49Z</time>
      </trkpt>
      <trkpt lat="-28.419085" lon="-65.62667166666667">
        <ele>692.9</ele>
        <time>2018-08-18T13:20:51Z</time>
      </trkpt>
      <trkpt lat="-28.419065" lon="-65.626575">
        <ele>693.1</ele>
        <time>2018-08-18T13:20:54Z</time>
      </trkpt>
      <trkpt lat="-28.41906" lon="-65.62645">
        <ele>693.3</ele>
        <time>2018-08-18T13:20:57Z</time>
      </trkpt>
      <trkpt lat="-28.41906" lon="-65.62634">
        <ele>693.4</ele>
        <time>2018-08-18T13:21:00Z</time>
      </trkpt>
      <trkpt lat="-28.41906" lon="-65.626245">
        <ele>693.4</ele>
        <time>2018-08-18T13:21:03Z</time>
      </trkpt>
      <trkpt lat="-28.419065" lon="-65.626155">
        <ele>693.4</ele>
        <time>2018-08-18T13:21:05Z</time>
      </trkpt>
      <trkpt lat="-28.419065" lon="-65.62607">
        <ele>693.4</ele>
        <time>2018-08-18T13:21:07Z</time>
      </trkpt>
      <trkpt lat="-28.419065" lon="-65.62596">
        <ele>693.4</ele>
        <time>2018-08-18T13:21:10Z</time>
      </trkpt>
      <trkpt lat="-28.419075" lon="-65.62583166666667">
        <ele>693.2</ele>
        <time>2018-08-18T13:21:13Z</time>
      </trkpt>
      <trkpt lat="-28.419075" lon="-65.62572">
        <ele>693.1</ele>
        <time>2018-08-18T13:21:16Z</time>
      </trkpt>
      <trkpt lat="-28.419075" lon="-65.625635">
        <ele>693.2</ele>
        <time>2018-08-18T13:21:18Z</time>
      </trkpt>
      <trkpt lat="-28.41906" lon="-65.62551500000001">
        <ele>693.3</ele>
        <time>2018-08-18T13:21:21Z</time>
      </trkpt>
      <trkpt lat="-28.41903" lon="-65.625415">
        <ele>693.4</ele>
        <time>2018-08-18T13:21:24Z</time>
      </trkpt>
      <trkpt lat="-28.418985" lon="-65.625325">
        <ele>693.5</ele>
        <time>2018-08-18T13:21:27Z</time>
      </trkpt>
      <trkpt lat="-28.418925" lon="-65.625235">
        <ele>693.7</ele>
        <time>2018-08-18T13:21:30Z</time>
      </trkpt>
      <trkpt lat="-28.418855" lon="-65.62518">
        <ele>693.9</ele>
        <time>2018-08-18T13:21:33Z</time>
      </trkpt>
      <trkpt lat="-28.418775" lon="-65.62511333333333">
        <ele>694.1</ele>
        <time>2018-08-18T13:21:36Z</time>
      </trkpt>
      <trkpt lat="-28.418685" lon="-65.625055">
        <ele>694.3</ele>
        <time>2018-08-18T13:21:39Z</time>
      </trkpt>
      <trkpt lat="-28.418605" lon="-65.625">
        <ele>694.5</ele>
        <time>2018-08-18T13:21:42Z</time>
      </trkpt>
      <trkpt lat="-28.41852" lon="-65.62495">
        <ele>694.6</ele>
        <time>2018-08-18T13:21:45Z</time>
      </trkpt>
      <trkpt lat="-28.41844" lon="-65.62488">
        <ele>694.7</ele>
        <time>2018-08-18T13:21:48Z</time>
      </trkpt>
      <trkpt lat="-28.41834" lon="-65.62484">
        <ele>694.7</ele>
        <time>2018-08-18T13:21:51Z</time>
      </trkpt>
      <trkpt lat="-28.41825" lon="-65.62482">
        <ele>694.7</ele>
        <time>2018-08-18T13:21:54Z</time>
      </trkpt>
      <trkpt lat="-28.418185" lon="-65.624785">
        <ele>694.7</ele>
        <time>2018-08-18T13:21:56Z</time>
      </trkpt>
      <trkpt lat="-28.41809" lon="-65.62475">
        <ele>694.7</ele>
        <time>2018-08-18T13:21:59Z</time>
      </trkpt>
      <trkpt lat="-28.417995" lon="-65.624725">
        <ele>694.8</ele>
        <time>2018-08-18T13:22:02Z</time>
      </trkpt>
      <trkpt lat="-28.417925" lon="-65.624695">
        <ele>694.8</ele>
        <time>2018-08-18T13:22:04Z</time>
      </trkpt>
      <trkpt lat="-28.417839999999998" lon="-65.624655">
        <ele>694.9</ele>
        <time>2018-08-18T13:22:07Z</time>
      </trkpt>
      <trkpt lat="-28.41777" lon="-65.624615">
        <ele>694.9</ele>
        <time>2018-08-18T13:22:09Z</time>
      </trkpt>
      <trkpt lat="-28.417675" lon="-65.62457333333333">
        <ele>694.9</ele>
        <time>2018-08-18T13:22:12Z</time>
      </trkpt>
      <trkpt lat="-28.41758" lon="-65.62453333333333">
        <ele>695.0</ele>
        <time>2018-08-18T13:22:15Z</time>
      </trkpt>
      <trkpt lat="-28.417495" lon="-65.62452">
        <ele>695.1</ele>
        <time>2018-08-18T13:22:18Z</time>
      </trkpt>
      <trkpt lat="-28.417405" lon="-65.62447666666667">
        <ele>695.3</ele>
        <time>2018-08-18T13:22:21Z</time>
      </trkpt>
      <trkpt lat="-28.417315" lon="-65.624455">
        <ele>695.5</ele>
        <time>2018-08-18T13:22:24Z</time>
      </trkpt>
      <trkpt lat="-28.41722" lon="-65.624425">
        <ele>695.6</ele>
        <time>2018-08-18T13:22:27Z</time>
      </trkpt>
      <trkpt lat="-28.41713" lon="-65.62439">
        <ele>695.8</ele>
        <time>2018-08-18T13:22:30Z</time>
      </trkpt>
      <trkpt lat="-28.41704" lon="-65.62435">
        <ele>696.0</ele>
        <time>2018-08-18T13:22:33Z</time>
      </trkpt>
      <trkpt lat="-28.41695" lon="-65.62433">
        <ele>696.1</ele>
        <time>2018-08-18T13:22:36Z</time>
      </trkpt>
      <trkpt lat="-28.41685" lon="-65.624295">
        <ele>696.0</ele>
        <time>2018-08-18T13:22:39Z</time>
      </trkpt>
      <trkpt lat="-28.41676" lon="-65.62426">
        <ele>696.1</ele>
        <time>2018-08-18T13:22:42Z</time>
      </trkpt>
      <trkpt lat="-28.41667" lon="-65.62423">
        <ele>696.1</ele>
        <time>2018-08-18T13:22:45Z</time>
      </trkpt>
      <trkpt lat="-28.416585" lon="-65.6242">
        <ele>696.1</ele>
        <time>2018-08-18T13:22:48Z</time>
      </trkpt>
      <trkpt lat="-28.41649" lon="-65.624165">
        <ele>696.2</ele>
        <time>2018-08-18T13:22:51Z</time>
      </trkpt>
      <trkpt lat="-28.416395" lon="-65.62412666666667">
        <ele>696.3</ele>
        <time>2018-08-18T13:22:54Z</time>
      </trkpt>
      <trkpt lat="-28.4163" lon="-65.6241">
        <ele>696.4</ele>
        <time>2018-08-18T13:22:57Z</time>
      </trkpt>
      <trkpt lat="-28.416215" lon="-65.62407">
        <ele>696.6</ele>
        <time>2018-08-18T13:23:00Z</time>
      </trkpt>
      <trkpt lat="-28.41613" lon="-65.624035">
        <ele>696.8</ele>
        <time>2018-08-18T13:23:03Z</time>
      </trkpt>
      <trkpt lat="-28.416045" lon="-65.62402">
        <ele>696.9</ele>
        <time>2018-08-18T13:23:06Z</time>
      </trkpt>
      <trkpt lat="-28.41595" lon="-65.623975">
        <ele>697.0</ele>
        <time>2018-08-18T13:23:09Z</time>
      </trkpt>
      <trkpt lat="-28.41586" lon="-65.62396">
        <ele>697.0</ele>
        <time>2018-08-18T13:23:12Z</time>
      </trkpt>
      <trkpt lat="-28.415765" lon="-65.62394">
        <ele>696.9</ele>
        <time>2018-08-18T13:23:15Z</time>
      </trkpt>
      <trkpt lat="-28.415675" lon="-65.62390333333333">
        <ele>696.8</ele>
        <time>2018-08-18T13:23:18Z</time>
      </trkpt>
      <trkpt lat="-28.415585" lon="-65.62388">
        <ele>696.7</ele>
        <time>2018-08-18T13:23:21Z</time>
      </trkpt>
      <trkpt lat="-28.41549" lon="-65.623845">
        <ele>696.6</ele>
        <time>2018-08-18T13:23:24Z</time>
      </trkpt>
      <trkpt lat="-28.41542" lon="-65.62381">
        <ele>696.5</ele>
        <time>2018-08-18T13:23:27Z</time>
      </trkpt>
      <trkpt lat="-28.415335" lon="-65.623795">
        <ele>696.5</ele>
        <time>2018-08-18T13:23:30Z</time>
      </trkpt>
      <trkpt lat="-28.415255" lon="-65.62375166666666">
        <ele>696.5</ele>
        <time>2018-08-18T13:23:33Z</time>
      </trkpt>
      <trkpt lat="-28.415175" lon="-65.62371666666667">
        <ele>696.7</ele>
        <time>2018-08-18T13:23:36Z</time>
      </trkpt>
      <trkpt lat="-28.41508" lon="-65.623695">
        <ele>697.0</ele>
        <time>2018-08-18T13:23:39Z</time>
      </trkpt>
      <trkpt lat="-28.41499" lon="-65.62367">
        <ele>697.3</ele>
        <time>2018-08-18T13:23:42Z</time>
      </trkpt>
      <trkpt lat="-28.41489" lon="-65.62363">
        <ele>697.5</ele>
        <time>2018-08-18T13:23:45Z</time>
      </trkpt>
      <trkpt lat="-28.414805" lon="-65.623595">
        <ele>697.8</ele>
        <time>2018-08-18T13:23:48Z</time>
      </trkpt>
      <trkpt lat="-28.41473" lon="-65.623585">
        <ele>698.0</ele>
        <time>2018-08-18T13:23:51Z</time>
      </trkpt>
      <trkpt lat="-28.41465" lon="-65.62358">
        <ele>698.3</ele>
        <time>2018-08-18T13:23:55Z</time>
      </trkpt>
      <trkpt lat="-28.414575" lon="-65.62354833333333">
        <ele>698.5</ele>
        <time>2018-08-18T13:23:58Z</time>
      </trkpt>
      <trkpt lat="-28.414465" lon="-65.62354500000001">
        <ele>699.3</ele>
        <time>2018-08-18T13:24:01Z</time>
      </trkpt>
      <trkpt lat="-28.414385" lon="-65.623535">
        <ele>699.3</ele>
        <time>2018-08-18T13:24:03Z</time>
      </trkpt>
      <trkpt lat="-28.414305" lon="-65.62352">
        <ele>699.2</ele>
        <time>2018-08-18T13:24:05Z</time>
      </trkpt>
      <trkpt lat="-28.41421" lon="-65.6235">
        <ele>699.1</ele>
        <time>2018-08-18T13:24:08Z</time>
      </trkpt>
      <trkpt lat="-28.41412" lon="-65.62349">
        <ele>699.0</ele>
        <time>2018-08-18T13:24:11Z</time>
      </trkpt>
      <trkpt lat="-28.41404" lon="-65.62347">
        <ele>698.8</ele>
        <time>2018-08-18T13:24:14Z</time>
      </trkpt>
      <trkpt lat="-28.413965" lon="-65.62345666666667">
        <ele>698.7</ele>
        <time>2018-08-18T13:24:17Z</time>
      </trkpt>
      <trkpt lat="-28.413895" lon="-65.62344666666667">
        <ele>698.7</ele>
        <time>2018-08-18T13:24:20Z</time>
      </trkpt>
      <trkpt lat="-28.41381" lon="-65.623445">
        <ele>698.8</ele>
        <time>2018-08-18T13:24:22Z</time>
      </trkpt>
      <trkpt lat="-28.413725" lon="-65.62343">
        <ele>698.9</ele>
        <time>2018-08-18T13:24:24Z</time>
      </trkpt>
      <trkpt lat="-28.41364" lon="-65.623405">
        <ele>699.1</ele>
        <time>2018-08-18T13:24:27Z</time>
      </trkpt>
      <trkpt lat="-28.413545" lon="-65.62337333333333">
        <ele>699.3</ele>
        <time>2018-08-18T13:24:30Z</time>
      </trkpt>
      <trkpt lat="-28.41345" lon="-65.62336">
        <ele>699.5</ele>
        <time>2018-08-18T13:24:33Z</time>
      </trkpt>
      <trkpt lat="-28.413375" lon="-65.62332333333333">
        <ele>699.5</ele>
        <time>2018-08-18T13:24:36Z</time>
      </trkpt>
      <trkpt lat="-28.413261666666667" lon="-65.62331">
        <ele>699.5</ele>
        <time>2018-08-18T13:24:39Z</time>
      </trkpt>
      <trkpt lat="-28.41319" lon="-65.6233">
        <ele>699.5</ele>
        <time>2018-08-18T13:24:41Z</time>
      </trkpt>
      <trkpt lat="-28.413105" lon="-65.62329">
        <ele>699.5</ele>
        <time>2018-08-18T13:24:44Z</time>
      </trkpt>
      <trkpt lat="-28.41301" lon="-65.623265">
        <ele>699.5</ele>
        <time>2018-08-18T13:24:47Z</time>
      </trkpt>
      <trkpt lat="-28.41292" lon="-65.623245">
        <ele>699.5</ele>
        <time>2018-08-18T13:24:50Z</time>
      </trkpt>
      <trkpt lat="-28.412835" lon="-65.62322">
        <ele>699.6</ele>
        <time>2018-08-18T13:24:53Z</time>
      </trkpt>
      <trkpt lat="-28.41275" lon="-65.62318166666667">
        <ele>699.7</ele>
        <time>2018-08-18T13:24:56Z</time>
      </trkpt>
      <trkpt lat="-28.41267" lon="-65.62314666666667">
        <ele>699.9</ele>
        <time>2018-08-18T13:24:59Z</time>
      </trkpt>
      <trkpt lat="-28.412585" lon="-65.62312">
        <ele>700.1</ele>
        <time>2018-08-18T13:25:02Z</time>
      </trkpt>
      <trkpt lat="-28.412515" lon="-65.623085">
        <ele>700.3</ele>
        <time>2018-08-18T13:25:05Z</time>
      </trkpt>
      <trkpt lat="-28.412425" lon="-65.62305">
        <ele>700.5</ele>
        <time>2018-08-18T13:25:08Z</time>
      </trkpt>
      <trkpt lat="-28.412325" lon="-65.62300333333333">
        <ele>700.6</ele>
        <time>2018-08-18T13:25:11Z</time>
      </trkpt>
      <trkpt lat="-28.412235" lon="-65.62296333333333">
        <ele>700.8</ele>
        <time>2018-08-18T13:25:14Z</time>
      </trkpt>
      <trkpt lat="-28.41215" lon="-65.62292333333333">
        <ele>701.0</ele>
        <time>2018-08-18T13:25:17Z</time>
      </trkpt>
      <trkpt lat="-28.412045" lon="-65.62287666666667">
        <ele>701.1</ele>
        <time>2018-08-18T13:25:20Z</time>
      </trkpt>
      <trkpt lat="-28.411955" lon="-65.62284">
        <ele>701.2</ele>
        <time>2018-08-18T13:25:23Z</time>
      </trkpt>
      <trkpt lat="-28.411875" lon="-65.62281">
        <ele>701.4</ele>
        <time>2018-08-18T13:25:26Z</time>
      </trkpt>
      <trkpt lat="-28.41179" lon="-65.62276833333334">
        <ele>701.6</ele>
        <time>2018-08-18T13:25:29Z</time>
      </trkpt>
      <trkpt lat="-28.4117" lon="-65.62273166666667">
        <ele>701.5</ele>
        <time>2018-08-18T13:25:32Z</time>
      </trkpt>
      <trkpt lat="-28.41162" lon="-65.62271">
        <ele>701.4</ele>
        <time>2018-08-18T13:25:35Z</time>
      </trkpt>
      <trkpt lat="-28.41155" lon="-65.62267">
        <ele>701.3</ele>
        <time>2018-08-18T13:25:38Z</time>
      </trkpt>
      <trkpt lat="-28.41146" lon="-65.622635">
        <ele>701.2</ele>
        <time>2018-08-18T13:25:41Z</time>
      </trkpt>
      <trkpt lat="-28.411395" lon="-65.622595">
        <ele>701.3</ele>
        <time>2018-08-18T13:25:43Z</time>
      </trkpt>
      <trkpt lat="-28.41129" lon="-65.62255666666667">
        <ele>701.2</ele>
        <time>2018-08-18T13:25:46Z</time>
      </trkpt>
      <trkpt lat="-28.411205" lon="-65.622515">
        <ele>701.1</ele>
        <time>2018-08-18T13:25:49Z</time>
      </trkpt>
      <trkpt lat="-28.411115" lon="-65.62247166666667">
        <ele>701.1</ele>
        <time>2018-08-18T13:25:52Z</time>
      </trkpt>
      <trkpt lat="-28.41104" lon="-65.622455">
        <ele>701.1</ele>
        <time>2018-08-18T13:25:54Z</time>
      </trkpt>
      <trkpt lat="-28.41095" lon="-65.62242">
        <ele>701.0</ele>
        <time>2018-08-18T13:25:57Z</time>
      </trkpt>
      <trkpt lat="-28.41086" lon="-65.622375">
        <ele>701.1</ele>
        <time>2018-08-18T13:26:00Z</time>
      </trkpt>
      <trkpt lat="-28.410785" lon="-65.62233833333333">
        <ele>701.3</ele>
        <time>2018-08-18T13:26:02Z</time>
      </trkpt>
      <trkpt lat="-28.410695" lon="-65.622315">
        <ele>701.5</ele>
        <time>2018-08-18T13:26:05Z</time>
      </trkpt>
      <trkpt lat="-28.410595" lon="-65.62228">
        <ele>701.8</ele>
        <time>2018-08-18T13:26:08Z</time>
      </trkpt>
      <trkpt lat="-28.410495" lon="-65.62226">
        <ele>702.0</ele>
        <time>2018-08-18T13:26:11Z</time>
      </trkpt>
      <trkpt lat="-28.41039" lon="-65.622235">
        <ele>702.3</ele>
        <time>2018-08-18T13:26:14Z</time>
      </trkpt>
      <trkpt lat="-28.4103" lon="-65.622225">
        <ele>702.5</ele>
        <time>2018-08-18T13:26:17Z</time>
      </trkpt>
      <trkpt lat="-28.410195" lon="-65.62219666666667">
        <ele>702.7</ele>
        <time>2018-08-18T13:26:20Z</time>
      </trkpt>
      <trkpt lat="-28.4101" lon="-65.622195">
        <ele>702.9</ele>
        <time>2018-08-18T13:26:23Z</time>
      </trkpt>
      <trkpt lat="-28.41" lon="-65.622175">
        <ele>703.0</ele>
        <time>2018-08-18T13:26:26Z</time>
      </trkpt>
      <trkpt lat="-28.409925" lon="-65.62215833333333">
        <ele>703.2</ele>
        <time>2018-08-18T13:26:28Z</time>
      </trkpt>
      <trkpt lat="-28.40982" lon="-65.622145">
        <ele>703.4</ele>
        <time>2018-08-18T13:26:31Z</time>
      </trkpt>
      <trkpt lat="-28.40973" lon="-65.62213">
        <ele>703.5</ele>
        <time>2018-08-18T13:26:34Z</time>
      </trkpt>
      <trkpt lat="-28.40963" lon="-65.62211833333333">
        <ele>703.7</ele>
        <time>2018-08-18T13:26:37Z</time>
      </trkpt>
      <trkpt lat="-28.409534999999998" lon="-65.62211">
        <ele>703.9</ele>
        <time>2018-08-18T13:26:40Z</time>
      </trkpt>
      <trkpt lat="-28.409435" lon="-65.6221">
        <ele>704.1</ele>
        <time>2018-08-18T13:26:43Z</time>
      </trkpt>
      <trkpt lat="-28.409335" lon="-65.62208">
        <ele>704.4</ele>
        <time>2018-08-18T13:26:46Z</time>
      </trkpt>
      <trkpt lat="-28.40924" lon="-65.62208">
        <ele>704.7</ele>
        <time>2018-08-18T13:26:49Z</time>
      </trkpt>
      <trkpt lat="-28.40913" lon="-65.622055">
        <ele>704.9</ele>
        <time>2018-08-18T13:26:52Z</time>
      </trkpt>
      <trkpt lat="-28.40904" lon="-65.62205">
        <ele>705.0</ele>
        <time>2018-08-18T13:26:55Z</time>
      </trkpt>
      <trkpt lat="-28.40894" lon="-65.62202166666667">
        <ele>705.1</ele>
        <time>2018-08-18T13:26:58Z</time>
      </trkpt>
      <trkpt lat="-28.408835" lon="-65.622005">
        <ele>705.2</ele>
        <time>2018-08-18T13:27:01Z</time>
      </trkpt>
      <trkpt lat="-28.40874" lon="-65.622005">
        <ele>705.3</ele>
        <time>2018-08-18T13:27:04Z</time>
      </trkpt>
      <trkpt lat="-28.408635" lon="-65.622005">
        <ele>705.2</ele>
        <time>2018-08-18T13:27:07Z</time>
      </trkpt>
      <trkpt lat="-28.408525" lon="-65.622005">
        <ele>705.1</ele>
        <time>2018-08-18T13:27:10Z</time>
      </trkpt>
      <trkpt lat="-28.40843" lon="-65.621995">
        <ele>704.9</ele>
        <time>2018-08-18T13:27:13Z</time>
      </trkpt>
      <trkpt lat="-28.408335" lon="-65.62197">
        <ele>704.7</ele>
        <time>2018-08-18T13:27:16Z</time>
      </trkpt>
      <trkpt lat="-28.40823" lon="-65.621965">
        <ele>704.4</ele>
        <time>2018-08-18T13:27:19Z</time>
      </trkpt>
      <trkpt lat="-28.408145" lon="-65.62195">
        <ele>704.2</ele>
        <time>2018-08-18T13:27:22Z</time>
      </trkpt>
      <trkpt lat="-28.40806" lon="-65.62193">
        <ele>704.1</ele>
        <time>2018-08-18T13:27:25Z</time>
      </trkpt>
      <trkpt lat="-28.40799" lon="-65.621925">
        <ele>704.1</ele>
        <time>2018-08-18T13:27:27Z</time>
      </trkpt>
      <trkpt lat="-28.407895" lon="-65.62191">
        <ele>704.0</ele>
        <time>2018-08-18T13:27:30Z</time>
      </trkpt>
      <trkpt lat="-28.407815" lon="-65.621885">
        <ele>704.1</ele>
        <time>2018-08-18T13:27:33Z</time>
      </trkpt>
      <trkpt lat="-28.407725" lon="-65.621885">
        <ele>704.3</ele>
        <time>2018-08-18T13:27:36Z</time>
      </trkpt>
      <trkpt lat="-28.407635" lon="-65.621865">
        <ele>704.4</ele>
        <time>2018-08-18T13:27:39Z</time>
      </trkpt>
      <trkpt lat="-28.40754" lon="-65.621855">
        <ele>704.5</ele>
        <time>2018-08-18T13:27:42Z</time>
      </trkpt>
      <trkpt lat="-28.40745" lon="-65.62184">
        <ele>704.5</ele>
        <time>2018-08-18T13:27:45Z</time>
      </trkpt>
      <trkpt lat="-28.407375" lon="-65.621825">
        <ele>704.5</ele>
        <time>2018-08-18T13:27:47Z</time>
      </trkpt>
      <trkpt lat="-28.40728" lon="-65.621795">
        <ele>704.5</ele>
        <time>2018-08-18T13:27:50Z</time>
      </trkpt>
      <trkpt lat="-28.407195" lon="-65.62178">
        <ele>704.7</ele>
        <time>2018-08-18T13:27:53Z</time>
      </trkpt>
      <trkpt lat="-28.4071" lon="-65.621765">
        <ele>704.9</ele>
        <time>2018-08-18T13:27:56Z</time>
      </trkpt>
      <trkpt lat="-28.407005" lon="-65.621745">
        <ele>705.3</ele>
        <time>2018-08-18T13:27:59Z</time>
      </trkpt>
      <trkpt lat="-28.406915" lon="-65.621745">
        <ele>705.6</ele>
        <time>2018-08-18T13:28:02Z</time>
      </trkpt>
      <trkpt lat="-28.40681" lon="-65.621745">
        <ele>706.1</ele>
        <time>2018-08-18T13:28:05Z</time>
      </trkpt>
      <trkpt lat="-28.40671" lon="-65.621745">
        <ele>706.6</ele>
        <time>2018-08-18T13:28:08Z</time>
      </trkpt>
      <trkpt lat="-28.40662" lon="-65.62177">
        <ele>706.8</ele>
        <time>2018-08-18T13:28:11Z</time>
      </trkpt>
      <trkpt lat="-28.40652" lon="-65.62178">
        <ele>706.9</ele>
        <time>2018-08-18T13:28:14Z</time>
      </trkpt>
      <trkpt lat="-28.40643" lon="-65.62179166666667">
        <ele>707.1</ele>
        <time>2018-08-18T13:28:17Z</time>
      </trkpt>
      <trkpt lat="-28.40634" lon="-65.621795">
        <ele>707.3</ele>
        <time>2018-08-18T13:28:20Z</time>
      </trkpt>
      <trkpt lat="-28.40625" lon="-65.62181">
        <ele>707.4</ele>
        <time>2018-08-18T13:28:23Z</time>
      </trkpt>
      <trkpt lat="-28.406175" lon="-65.62182">
        <ele>707.5</ele>
        <time>2018-08-18T13:28:26Z</time>
      </trkpt>
      <trkpt lat="-28.40608" lon="-65.62183">
        <ele>707.5</ele>
        <time>2018-08-18T13:28:29Z</time>
      </trkpt>
      <trkpt lat="-28.405986666666667" lon="-65.62183">
        <ele>707.5</ele>
        <time>2018-08-18T13:28:32Z</time>
      </trkpt>
      <trkpt lat="-28.405895" lon="-65.62184">
        <ele>707.5</ele>
        <time>2018-08-18T13:28:35Z</time>
      </trkpt>
      <trkpt lat="-28.4058" lon="-65.62184">
        <ele>707.5</ele>
        <time>2018-08-18T13:28:38Z</time>
      </trkpt>
      <trkpt lat="-28.40571" lon="-65.62184">
        <ele>707.6</ele>
        <time>2018-08-18T13:28:41Z</time>
      </trkpt>
      <trkpt lat="-28.40561" lon="-65.621855">
        <ele>707.7</ele>
        <time>2018-08-18T13:28:44Z</time>
      </trkpt>
      <trkpt lat="-28.40552" lon="-65.621855">
        <ele>707.8</ele>
        <time>2018-08-18T13:28:47Z</time>
      </trkpt>
      <trkpt lat="-28.40542" lon="-65.62184">
        <ele>707.9</ele>
        <time>2018-08-18T13:28:50Z</time>
      </trkpt>
      <trkpt lat="-28.40533" lon="-65.62184">
        <ele>708.1</ele>
        <time>2018-08-18T13:28:53Z</time>
      </trkpt>
      <trkpt lat="-28.40524" lon="-65.62184333333333">
        <ele>708.3</ele>
        <time>2018-08-18T13:28:56Z</time>
      </trkpt>
      <trkpt lat="-28.405135" lon="-65.621855">
        <ele>708.4</ele>
        <time>2018-08-18T13:28:59Z</time>
      </trkpt>
      <trkpt lat="-28.40504" lon="-65.621855">
        <ele>708.6</ele>
        <time>2018-08-18T13:29:02Z</time>
      </trkpt>
      <trkpt lat="-28.40494" lon="-65.621865">
        <ele>708.8</ele>
        <time>2018-08-18T13:29:05Z</time>
      </trkpt>
      <trkpt lat="-28.404835" lon="-65.621875">
        <ele>708.9</ele>
        <time>2018-08-18T13:29:08Z</time>
      </trkpt>
      <trkpt lat="-28.404735" lon="-65.621875">
        <ele>708.8</ele>
        <time>2018-08-18T13:29:11Z</time>
      </trkpt>
      <trkpt lat="-28.404635" lon="-65.621885">
        <ele>708.8</ele>
        <time>2018-08-18T13:29:14Z</time>
      </trkpt>
      <trkpt lat="-28.404535" lon="-65.62188833333333">
        <ele>708.8</ele>
        <time>2018-08-18T13:29:17Z</time>
      </trkpt>
      <trkpt lat="-28.40443" lon="-65.62191">
        <ele>708.6</ele>
        <time>2018-08-18T13:29:20Z</time>
      </trkpt>
      <trkpt lat="-28.404325" lon="-65.621925">
        <ele>708.4</ele>
        <time>2018-08-18T13:29:23Z</time>
      </trkpt>
      <trkpt lat="-28.40423" lon="-65.621925">
        <ele>708.2</ele>
        <time>2018-08-18T13:29:26Z</time>
      </trkpt>
      <trkpt lat="-28.404145" lon="-65.62193333333333">
        <ele>708.2</ele>
        <time>2018-08-18T13:29:29Z</time>
      </trkpt>
      <trkpt lat="-28.40405" lon="-65.62195">
        <ele>708.3</ele>
        <time>2018-08-18T13:29:32Z</time>
      </trkpt>
      <trkpt lat="-28.40397" lon="-65.621965">
        <ele>708.3</ele>
        <time>2018-08-18T13:29:34Z</time>
      </trkpt>
      <trkpt lat="-28.403865" lon="-65.62197166666667">
        <ele>708.3</ele>
        <time>2018-08-18T13:29:37Z</time>
      </trkpt>
      <trkpt lat="-28.40377" lon="-65.621995">
        <ele>708.3</ele>
        <time>2018-08-18T13:29:40Z</time>
      </trkpt>
      <trkpt lat="-28.403665" lon="-65.622005">
        <ele>708.4</ele>
        <time>2018-08-18T13:29:43Z</time>
      </trkpt>
      <trkpt lat="-28.403565" lon="-65.62201833333333">
        <ele>708.5</ele>
        <time>2018-08-18T13:29:46Z</time>
      </trkpt>
      <trkpt lat="-28.40346" lon="-65.622045">
        <ele>708.5</ele>
        <time>2018-08-18T13:29:49Z</time>
      </trkpt>
      <trkpt lat="-28.403385" lon="-65.622065">
        <ele>708.5</ele>
        <time>2018-08-18T13:29:51Z</time>
      </trkpt>
      <trkpt lat="-28.403305" lon="-65.62208">
        <ele>708.4</ele>
        <time>2018-08-18T13:29:53Z</time>
      </trkpt>
      <trkpt lat="-28.40321" lon="-65.6221">
        <ele>708.3</ele>
        <time>2018-08-18T13:29:56Z</time>
      </trkpt>
      <trkpt lat="-28.40311" lon="-65.62211">
        <ele>708.2</ele>
        <time>2018-08-18T13:29:59Z</time>
      </trkpt>
      <trkpt lat="-28.403015" lon="-65.622135">
        <ele>707.9</ele>
        <time>2018-08-18T13:30:02Z</time>
      </trkpt>
      <trkpt lat="-28.40294" lon="-65.622145">
        <ele>707.9</ele>
        <time>2018-08-18T13:30:05Z</time>
      </trkpt>
      <trkpt lat="-28.40284" lon="-65.62215833333333">
        <ele>707.8</ele>
        <time>2018-08-18T13:30:08Z</time>
      </trkpt>
      <trkpt lat="-28.402745" lon="-65.622185">
        <ele>707.6</ele>
        <time>2018-08-18T13:30:11Z</time>
      </trkpt>
      <trkpt lat="-28.402645" lon="-65.62220166666667">
        <ele>707.4</ele>
        <time>2018-08-18T13:30:14Z</time>
      </trkpt>
      <trkpt lat="-28.402545" lon="-65.62223">
        <ele>707.2</ele>
        <time>2018-08-18T13:30:17Z</time>
      </trkpt>
      <trkpt lat="-28.402465" lon="-65.62223666666667">
        <ele>707.1</ele>
        <time>2018-08-18T13:30:19Z</time>
      </trkpt>
      <trkpt lat="-28.4024" lon="-65.62226">
        <ele>707.0</ele>
        <time>2018-08-18T13:30:21Z</time>
      </trkpt>
      <trkpt lat="-28.402295" lon="-65.62229">
        <ele>706.8</ele>
        <time>2018-08-18T13:30:24Z</time>
      </trkpt>
      <trkpt lat="-28.4022" lon="-65.622315">
        <ele>706.7</ele>
        <time>2018-08-18T13:30:27Z</time>
      </trkpt>
      <trkpt lat="-28.402095" lon="-65.622335">
        <ele>706.7</ele>
        <time>2018-08-18T13:30:30Z</time>
      </trkpt>
      <trkpt lat="-28.402025" lon="-65.62234166666667">
        <ele>706.8</ele>
        <time>2018-08-18T13:30:32Z</time>
      </trkpt>
      <trkpt lat="-28.40195" lon="-65.62237">
        <ele>706.9</ele>
        <time>2018-08-18T13:30:34Z</time>
      </trkpt>
      <trkpt lat="-28.401845" lon="-65.62238333333333">
        <ele>707.0</ele>
        <time>2018-08-18T13:30:37Z</time>
      </trkpt>
      <trkpt lat="-28.401745" lon="-65.6224">
        <ele>707.2</ele>
        <time>2018-08-18T13:30:40Z</time>
      </trkpt>
      <trkpt lat="-28.401665" lon="-65.62242">
        <ele>707.1</ele>
        <time>2018-08-18T13:30:43Z</time>
      </trkpt>
      <trkpt lat="-28.40159" lon="-65.622425">
        <ele>707.2</ele>
        <time>2018-08-18T13:30:45Z</time>
      </trkpt>
      <trkpt lat="-28.40149" lon="-65.62246">
        <ele>707.2</ele>
        <time>2018-08-18T13:30:48Z</time>
      </trkpt>
      <trkpt lat="-28.4014" lon="-65.622485">
        <ele>707.1</ele>
        <time>2018-08-18T13:30:51Z</time>
      </trkpt>
      <trkpt lat="-28.40131" lon="-65.622505">
        <ele>707.0</ele>
        <time>2018-08-18T13:30:54Z</time>
      </trkpt>
      <trkpt lat="-28.401215" lon="-65.62254">
        <ele>707.0</ele>
        <time>2018-08-18T13:30:57Z</time>
      </trkpt>
      <trkpt lat="-28.40113" lon="-65.62256166666667">
        <ele>707.1</ele>
        <time>2018-08-18T13:31:00Z</time>
      </trkpt>
      <trkpt lat="-28.401035" lon="-65.6226">
        <ele>707.1</ele>
        <time>2018-08-18T13:31:03Z</time>
      </trkpt>
      <trkpt lat="-28.40095" lon="-65.62264">
        <ele>707.2</ele>
        <time>2018-08-18T13:31:06Z</time>
      </trkpt>
      <trkpt lat="-28.400845" lon="-65.62268">
        <ele>707.2</ele>
        <time>2018-08-18T13:31:09Z</time>
      </trkpt>
      <trkpt lat="-28.400755" lon="-65.62271">
        <ele>707.4</ele>
        <time>2018-08-18T13:31:12Z</time>
      </trkpt>
      <trkpt lat="-28.40066" lon="-65.62276">
        <ele>707.5</ele>
        <time>2018-08-18T13:31:15Z</time>
      </trkpt>
      <trkpt lat="-28.40057" lon="-65.622805">
        <ele>707.6</ele>
        <time>2018-08-18T13:31:18Z</time>
      </trkpt>
      <trkpt lat="-28.40048" lon="-65.62285">
        <ele>707.4</ele>
        <time>2018-08-18T13:31:21Z</time>
      </trkpt>
      <trkpt lat="-28.400395" lon="-65.622895">
        <ele>707.4</ele>
        <time>2018-08-18T13:31:24Z</time>
      </trkpt>
      <trkpt lat="-28.400305" lon="-65.622945">
        <ele>707.4</ele>
        <time>2018-08-18T13:31:27Z</time>
      </trkpt>
      <trkpt lat="-28.40023" lon="-65.62299">
        <ele>707.3</ele>
        <time>2018-08-18T13:31:30Z</time>
      </trkpt>
      <trkpt lat="-28.40016" lon="-65.62303">
        <ele>707.2</ele>
        <time>2018-08-18T13:31:33Z</time>
      </trkpt>
      <trkpt lat="-28.4001" lon="-65.623075">
        <ele>707.2</ele>
        <time>2018-08-18T13:31:36Z</time>
      </trkpt>
      <trkpt lat="-28.400025" lon="-65.623135">
        <ele>707.3</ele>
        <time>2018-08-18T13:31:39Z</time>
      </trkpt>
      <trkpt lat="-28.399955" lon="-65.62318">
        <ele>707.5</ele>
        <time>2018-08-18T13:31:42Z</time>
      </trkpt>
      <trkpt lat="-28.399885" lon="-65.623245">
        <ele>707.6</ele>
        <time>2018-08-18T13:31:45Z</time>
      </trkpt>
      <trkpt lat="-28.399825" lon="-65.62329">
        <ele>707.9</ele>
        <time>2018-08-18T13:31:48Z</time>
      </trkpt>
      <trkpt lat="-28.399745" lon="-65.62334">
        <ele>708.2</ele>
        <time>2018-08-18T13:31:51Z</time>
      </trkpt>
      <trkpt lat="-28.399685" lon="-65.623385">
        <ele>708.3</ele>
        <time>2018-08-18T13:31:54Z</time>
      </trkpt>
      <trkpt lat="-28.399605" lon="-65.623445">
        <ele>708.4</ele>
        <time>2018-08-18T13:31:57Z</time>
      </trkpt>
      <trkpt lat="-28.39952" lon="-65.6235">
        <ele>708.5</ele>
        <time>2018-08-18T13:32:00Z</time>
      </trkpt>
      <trkpt lat="-28.39945" lon="-65.62354500000001">
        <ele>708.7</ele>
        <time>2018-08-18T13:32:03Z</time>
      </trkpt>
      <trkpt lat="-28.399355" lon="-65.623585">
        <ele>709.0</ele>
        <time>2018-08-18T13:32:06Z</time>
      </trkpt>
      <trkpt lat="-28.39926" lon="-65.62363">
        <ele>709.4</ele>
        <time>2018-08-18T13:32:09Z</time>
      </trkpt>
      <trkpt lat="-28.399165" lon="-65.62365">
        <ele>709.8</ele>
        <time>2018-08-18T13:32:13Z</time>
      </trkpt>
      <trkpt lat="-28.39907" lon="-65.62366">
        <ele>710.1</ele>
        <time>2018-08-18T13:32:16Z</time>
      </trkpt>
      <trkpt lat="-28.39896" lon="-65.62366">
        <ele>710.3</ele>
        <time>2018-08-18T13:32:19Z</time>
      </trkpt>
      <trkpt lat="-28.398855" lon="-65.62367">
        <ele>710.6</ele>
        <time>2018-08-18T13:32:22Z</time>
      </trkpt>
      <trkpt lat="-28.39877" lon="-65.62367">
        <ele>710.8</ele>
        <time>2018-08-18T13:32:25Z</time>
      </trkpt>
      <trkpt lat="-28.398685" lon="-65.623665">
        <ele>711.1</ele>
        <time>2018-08-18T13:32:28Z</time>
      </trkpt>
      <trkpt lat="-28.398595" lon="-65.623655">
        <ele>711.4</ele>
        <time>2018-08-18T13:32:31Z</time>
      </trkpt>
      <trkpt lat="-28.398485" lon="-65.62363">
        <ele>711.6</ele>
        <time>2018-08-18T13:32:34Z</time>
      </trkpt>
      <trkpt lat="-28.39838" lon="-65.623625">
        <ele>711.9</ele>
        <time>2018-08-18T13:32:37Z</time>
      </trkpt>
      <trkpt lat="-28.398295" lon="-65.62361">
        <ele>713.2</ele>
        <time>2018-08-18T13:32:39Z</time>
      </trkpt>
      <trkpt lat="-28.39821" lon="-65.62359166666667">
        <ele>714.3</ele>
        <time>2018-08-18T13:32:41Z</time>
      </trkpt>
      <trkpt lat="-28.398105" lon="-65.623585">
        <ele>714.5</ele>
        <time>2018-08-18T13:32:43Z</time>
      </trkpt>
      <trkpt lat="-28.398035" lon="-65.62358">
        <ele>715.0</ele>
        <time>2018-08-18T13:32:45Z</time>
      </trkpt>
      <trkpt lat="-28.397955" lon="-65.62358">
        <ele>715.6</ele>
        <time>2018-08-18T13:32:47Z</time>
      </trkpt>
      <trkpt lat="-28.39787" lon="-65.623575">
        <ele>716.1</ele>
        <time>2018-08-18T13:32:49Z</time>
      </trkpt>
      <trkpt lat="-28.39779" lon="-65.62357">
        <ele>716.2</ele>
        <time>2018-08-18T13:32:51Z</time>
      </trkpt>
      <trkpt lat="-28.39771" lon="-65.62355166666667">
        <ele>716.1</ele>
        <time>2018-08-18T13:32:53Z</time>
      </trkpt>
      <trkpt lat="-28.39762" lon="-65.62354500000001">
        <ele>717.6</ele>
        <time>2018-08-18T13:32:55Z</time>
      </trkpt>
      <trkpt lat="-28.397535" lon="-65.623525">
        <ele>718.5</ele>
        <time>2018-08-18T13:32:57Z</time>
      </trkpt>
      <trkpt lat="-28.397455" lon="-65.623515">
        <ele>719.0</ele>
        <time>2018-08-18T13:32:59Z</time>
      </trkpt>
      <trkpt lat="-28.39736" lon="-65.6235">
        <ele>719.5</ele>
        <time>2018-08-18T13:33:01Z</time>
      </trkpt>
      <trkpt lat="-28.397275" lon="-65.62349">
        <ele>719.2</ele>
        <time>2018-08-18T13:33:03Z</time>
      </trkpt>
      <trkpt lat="-28.39719" lon="-65.62348">
        <ele>718.7</ele>
        <time>2018-08-18T13:33:05Z</time>
      </trkpt>
      <trkpt lat="-28.397095" lon="-65.623455">
        <ele>718.9</ele>
        <time>2018-08-18T13:33:07Z</time>
      </trkpt>
      <trkpt lat="-28.397005" lon="-65.623445">
        <ele>719.6</ele>
        <time>2018-08-18T13:33:09Z</time>
      </trkpt>
      <trkpt lat="-28.39691" lon="-65.62344">
        <ele>720.9</ele>
        <time>2018-08-18T13:33:11Z</time>
      </trkpt>
      <trkpt lat="-28.39682" lon="-65.623435">
        <ele>721.5</ele>
        <time>2018-08-18T13:33:13Z</time>
      </trkpt>
      <trkpt lat="-28.396725" lon="-65.62343">
        <ele>721.2</ele>
        <time>2018-08-18T13:33:15Z</time>
      </trkpt>
      <trkpt lat="-28.39663" lon="-65.623425">
        <ele>721.2</ele>
        <time>2018-08-18T13:33:17Z</time>
      </trkpt>
      <trkpt lat="-28.396555" lon="-65.62340666666667">
        <ele>721.2</ele>
        <time>2018-08-18T13:33:19Z</time>
      </trkpt>
      <trkpt lat="-28.39647" lon="-65.623405">
        <ele>721.0</ele>
        <time>2018-08-18T13:33:21Z</time>
      </trkpt>
      <trkpt lat="-28.39639" lon="-65.623395">
        <ele>721.1</ele>
        <time>2018-08-18T13:33:23Z</time>
      </trkpt>
      <trkpt lat="-28.396305" lon="-65.623385">
        <ele>721.7</ele>
        <time>2018-08-18T13:33:25Z</time>
      </trkpt>
      <trkpt lat="-28.39622" lon="-65.623385">
        <ele>722.8</ele>
        <time>2018-08-18T13:33:27Z</time>
      </trkpt>
      <trkpt lat="-28.396135" lon="-65.62337">
        <ele>722.9</ele>
        <time>2018-08-18T13:33:29Z</time>
      </trkpt>
      <trkpt lat="-28.39605" lon="-65.62336">
        <ele>723.6</ele>
        <time>2018-08-18T13:33:31Z</time>
      </trkpt>
      <trkpt lat="-28.395965" lon="-65.62335">
        <ele>723.7</ele>
        <time>2018-08-18T13:33:33Z</time>
      </trkpt>
      <trkpt lat="-28.395875" lon="-65.62332166666667">
        <ele>723.7</ele>
        <time>2018-08-18T13:33:35Z</time>
      </trkpt>
      <trkpt lat="-28.395785" lon="-65.62332">
        <ele>723.6</ele>
        <time>2018-08-18T13:33:37Z</time>
      </trkpt>
      <trkpt lat="-28.39571" lon="-65.62331">
        <ele>723.2</ele>
        <time>2018-08-18T13:33:39Z</time>
      </trkpt>
      <trkpt lat="-28.395615" lon="-65.6233">
        <ele>722.4</ele>
        <time>2018-08-18T13:33:41Z</time>
      </trkpt>
      <trkpt lat="-28.39554" lon="-65.623295">
        <ele>721.3</ele>
        <time>2018-08-18T13:33:43Z</time>
      </trkpt>
      <trkpt lat="-28.39546" lon="-65.623275">
        <ele>719.5</ele>
        <time>2018-08-18T13:33:45Z</time>
      </trkpt>
      <trkpt lat="-28.39538" lon="-65.623275">
        <ele>717.7</ele>
        <time>2018-08-18T13:33:47Z</time>
      </trkpt>
      <trkpt lat="-28.395305" lon="-65.623245">
        <ele>716.3</ele>
        <time>2018-08-18T13:33:49Z</time>
      </trkpt>
      <trkpt lat="-28.395235" lon="-65.62322">
        <ele>716.2</ele>
        <time>2018-08-18T13:33:51Z</time>
      </trkpt>
      <trkpt lat="-28.395165" lon="-65.62318">
        <ele>716.4</ele>
        <time>2018-08-18T13:33:53Z</time>
      </trkpt>
      <trkpt lat="-28.39506" lon="-65.623135">
        <ele>716.8</ele>
        <time>2018-08-18T13:33:56Z</time>
      </trkpt>
      <trkpt lat="-28.39499" lon="-65.62309666666667">
        <ele>716.8</ele>
        <time>2018-08-18T13:33:58Z</time>
      </trkpt>
      <trkpt lat="-28.39492" lon="-65.623065">
        <ele>716.8</ele>
        <time>2018-08-18T13:34:00Z</time>
      </trkpt>
      <trkpt lat="-28.39483" lon="-65.62302">
        <ele>716.8</ele>
        <time>2018-08-18T13:34:03Z</time>
      </trkpt>
      <trkpt lat="-28.394735" lon="-65.622955">
        <ele>716.9</ele>
        <time>2018-08-18T13:34:06Z</time>
      </trkpt>
      <trkpt lat="-28.394675" lon="-65.62291">
        <ele>717.0</ele>
        <time>2018-08-18T13:34:08Z</time>
      </trkpt>
      <trkpt lat="-28.39461" lon="-65.62286">
        <ele>717.1</ele>
        <time>2018-08-18T13:34:11Z</time>
      </trkpt>
      <trkpt lat="-28.39453" lon="-65.62281">
        <ele>717.1</ele>
        <time>2018-08-18T13:34:14Z</time>
      </trkpt>
      <trkpt lat="-28.394455" lon="-65.622755">
        <ele>717.2</ele>
        <time>2018-08-18T13:34:17Z</time>
      </trkpt>
      <trkpt lat="-28.394355" lon="-65.62271">
        <ele>717.9</ele>
        <time>2018-08-18T13:34:20Z</time>
      </trkpt>
      <trkpt lat="-28.394285" lon="-65.622685">
        <ele>718.5</ele>
        <time>2018-08-18T13:34:22Z</time>
      </trkpt>
      <trkpt lat="-28.394215" lon="-65.622675">
        <ele>718.6</ele>
        <time>2018-08-18T13:34:24Z</time>
      </trkpt>
      <trkpt lat="-28.394145" lon="-65.62267">
        <ele>718.7</ele>
        <time>2018-08-18T13:34:26Z</time>
      </trkpt>
      <trkpt lat="-28.39406" lon="-65.62264666666667">
        <ele>719.8</ele>
        <time>2018-08-18T13:34:28Z</time>
      </trkpt>
      <trkpt lat="-28.393975" lon="-65.622635">
        <ele>720.5</ele>
        <time>2018-08-18T13:34:30Z</time>
      </trkpt>
      <trkpt lat="-28.39385" lon="-65.62259">
        <ele>720.8</ele>
        <time>2018-08-18T13:34:32Z</time>
      </trkpt>
      <trkpt lat="-28.39373" lon="-65.62254">
        <ele>720.6</ele>
        <time>2018-08-18T13:34:34Z</time>
      </trkpt>
      <trkpt lat="-28.3936" lon="-65.622485">
        <ele>720.4</ele>
        <time>2018-08-18T13:34:36Z</time>
      </trkpt>
      <trkpt lat="-28.393485" lon="-65.62245">
        <ele>720.0</ele>
        <time>2018-08-18T13:34:38Z</time>
      </trkpt>
      <trkpt lat="-28.393371666666667" lon="-65.62241">
        <ele>719.6</ele>
        <time>2018-08-18T13:34:40Z</time>
      </trkpt>
      <trkpt lat="-28.3933" lon="-65.622375">
        <ele>719.9</ele>
        <time>2018-08-18T13:34:42Z</time>
      </trkpt>
      <trkpt lat="-28.39321" lon="-65.622335">
        <ele>720.0</ele>
        <time>2018-08-18T13:34:44Z</time>
      </trkpt>
      <trkpt lat="-28.39314" lon="-65.62229">
        <ele>720.0</ele>
        <time>2018-08-18T13:34:46Z</time>
      </trkpt>
      <trkpt lat="-28.39304" lon="-65.622245">
        <ele>720.1</ele>
        <time>2018-08-18T13:34:49Z</time>
      </trkpt>
      <trkpt lat="-28.392955" lon="-65.62219666666667">
        <ele>720.1</ele>
        <time>2018-08-18T13:34:52Z</time>
      </trkpt>
      <trkpt lat="-28.39286" lon="-65.622145">
        <ele>720.2</ele>
        <time>2018-08-18T13:34:55Z</time>
      </trkpt>
      <trkpt lat="-28.39278" lon="-65.62209">
        <ele>720.2</ele>
        <time>2018-08-18T13:34:58Z</time>
      </trkpt>
      <trkpt lat="-28.392705" lon="-65.62205">
        <ele>720.3</ele>
        <time>2018-08-18T13:35:00Z</time>
      </trkpt>
      <trkpt lat="-28.392635" lon="-65.622">
        <ele>720.3</ele>
        <time>2018-08-18T13:35:02Z</time>
      </trkpt>
      <trkpt lat="-28.392535" lon="-65.62193333333333">
        <ele>721.0</ele>
        <time>2018-08-18T13:35:05Z</time>
      </trkpt>
      <trkpt lat="-28.392435" lon="-65.621885">
        <ele>721.1</ele>
        <time>2018-08-18T13:35:08Z</time>
      </trkpt>
      <trkpt lat="-28.392345" lon="-65.62183">
        <ele>721.4</ele>
        <time>2018-08-18T13:35:11Z</time>
      </trkpt>
      <trkpt lat="-28.39227" lon="-65.62178">
        <ele>721.2</ele>
        <time>2018-08-18T13:35:13Z</time>
      </trkpt>
      <trkpt lat="-28.392196666666667" lon="-65.621745">
        <ele>721.2</ele>
        <time>2018-08-18T13:35:15Z</time>
      </trkpt>
      <trkpt lat="-28.392125" lon="-65.621695">
        <ele>721.3</ele>
        <time>2018-08-18T13:35:18Z</time>
      </trkpt>
      <trkpt lat="-28.392055" lon="-65.62165">
        <ele>721.5</ele>
        <time>2018-08-18T13:35:20Z</time>
      </trkpt>
      <trkpt lat="-28.39197" lon="-65.621575">
        <ele>721.7</ele>
        <time>2018-08-18T13:35:23Z</time>
      </trkpt>
      <trkpt lat="-28.39191" lon="-65.62153">
        <ele>721.7</ele>
        <time>2018-08-18T13:35:25Z</time>
      </trkpt>
      <trkpt lat="-28.39185" lon="-65.62148333333333">
        <ele>721.9</ele>
        <time>2018-08-18T13:35:27Z</time>
      </trkpt>
      <trkpt lat="-28.39176" lon="-65.621435">
        <ele>722.1</ele>
        <time>2018-08-18T13:35:30Z</time>
      </trkpt>
      <trkpt lat="-28.391665" lon="-65.62139">
        <ele>722.1</ele>
        <time>2018-08-18T13:35:34Z</time>
      </trkpt>
      <trkpt lat="-28.39159" lon="-65.62135166666667">
        <ele>722.0</ele>
        <time>2018-08-18T13:35:36Z</time>
      </trkpt>
      <trkpt lat="-28.39152" lon="-65.621325">
        <ele>722.0</ele>
        <time>2018-08-18T13:35:38Z</time>
      </trkpt>
      <trkpt lat="-28.39144" lon="-65.62129">
        <ele>722.0</ele>
        <time>2018-08-18T13:35:41Z</time>
      </trkpt>
      <trkpt lat="-28.39134" lon="-65.62126">
        <ele>722.0</ele>
        <time>2018-08-18T13:35:44Z</time>
      </trkpt>
      <trkpt lat="-28.39125" lon="-65.62125833333333">
        <ele>722.0</ele>
        <time>2018-08-18T13:35:47Z</time>
      </trkpt>
      <trkpt lat="-28.391175" lon="-65.62126333333333">
        <ele>722.0</ele>
        <time>2018-08-18T13:35:50Z</time>
      </trkpt>
      <trkpt lat="-28.391085" lon="-65.62126333333333">
        <ele>722.1</ele>
        <time>2018-08-18T13:35:53Z</time>
      </trkpt>
      <trkpt lat="-28.39098" lon="-65.62125166666667">
        <ele>722.3</ele>
        <time>2018-08-18T13:35:56Z</time>
      </trkpt>
      <trkpt lat="-28.39087" lon="-65.62125">
        <ele>722.4</ele>
        <time>2018-08-18T13:35:59Z</time>
      </trkpt>
      <trkpt lat="-28.390775" lon="-65.621245">
        <ele>722.4</ele>
        <time>2018-08-18T13:36:02Z</time>
      </trkpt>
      <trkpt lat="-28.39069" lon="-65.621235">
        <ele>722.3</ele>
        <time>2018-08-18T13:36:05Z</time>
      </trkpt>
      <trkpt lat="-28.390605" lon="-65.62121166666667">
        <ele>722.3</ele>
        <time>2018-08-18T13:36:08Z</time>
      </trkpt>
      <trkpt lat="-28.39051" lon="-65.62119">
        <ele>722.3</ele>
        <time>2018-08-18T13:36:11Z</time>
      </trkpt>
      <trkpt lat="-28.39043" lon="-65.621165">
        <ele>722.4</ele>
        <time>2018-08-18T13:36:13Z</time>
      </trkpt>
      <trkpt lat="-28.39036" lon="-65.621145">
        <ele>722.4</ele>
        <time>2018-08-18T13:36:15Z</time>
      </trkpt>
      <trkpt lat="-28.390265" lon="-65.621105">
        <ele>722.5</ele>
        <time>2018-08-18T13:36:18Z</time>
      </trkpt>
      <trkpt lat="-28.39017" lon="-65.62107">
        <ele>722.5</ele>
        <time>2018-08-18T13:36:21Z</time>
      </trkpt>
      <trkpt lat="-28.390095" lon="-65.62105">
        <ele>722.6</ele>
        <time>2018-08-18T13:36:23Z</time>
      </trkpt>
      <trkpt lat="-28.389995" lon="-65.621015">
        <ele>722.7</ele>
        <time>2018-08-18T13:36:26Z</time>
      </trkpt>
      <trkpt lat="-28.389895" lon="-65.620975">
        <ele>722.7</ele>
        <time>2018-08-18T13:36:29Z</time>
      </trkpt>
      <trkpt lat="-28.389805" lon="-65.62094">
        <ele>722.7</ele>
        <time>2018-08-18T13:36:32Z</time>
      </trkpt>
      <trkpt lat="-28.389735" lon="-65.62090833333333">
        <ele>722.7</ele>
        <time>2018-08-18T13:36:34Z</time>
      </trkpt>
      <trkpt lat="-28.389655" lon="-65.62089">
        <ele>722.7</ele>
        <time>2018-08-18T13:36:36Z</time>
      </trkpt>
      <trkpt lat="-28.389565" lon="-65.620845">
        <ele>722.8</ele>
        <time>2018-08-18T13:36:39Z</time>
      </trkpt>
      <trkpt lat="-28.389465" lon="-65.62080166666667">
        <ele>722.9</ele>
        <time>2018-08-18T13:36:42Z</time>
      </trkpt>
      <trkpt lat="-28.389395" lon="-65.62078">
        <ele>723.0</ele>
        <time>2018-08-18T13:36:44Z</time>
      </trkpt>
      <trkpt lat="-28.3893" lon="-65.620755">
        <ele>723.1</ele>
        <time>2018-08-18T13:36:47Z</time>
      </trkpt>
      <trkpt lat="-28.3892" lon="-65.62071">
        <ele>723.2</ele>
        <time>2018-08-18T13:36:50Z</time>
      </trkpt>
      <trkpt lat="-28.3891" lon="-65.62067">
        <ele>723.4</ele>
        <time>2018-08-18T13:36:53Z</time>
      </trkpt>
      <trkpt lat="-28.389005" lon="-65.62063">
        <ele>723.7</ele>
        <time>2018-08-18T13:36:56Z</time>
      </trkpt>
      <trkpt lat="-28.3889" lon="-65.62058333333333">
        <ele>724.0</ele>
        <time>2018-08-18T13:36:59Z</time>
      </trkpt>
      <trkpt lat="-28.388835" lon="-65.620565">
        <ele>724.1</ele>
        <time>2018-08-18T13:37:01Z</time>
      </trkpt>
      <trkpt lat="-28.388765" lon="-65.620545">
        <ele>724.3</ele>
        <time>2018-08-18T13:37:03Z</time>
      </trkpt>
      <trkpt lat="-28.38869" lon="-65.620525">
        <ele>725.5</ele>
        <time>2018-08-18T13:37:05Z</time>
      </trkpt>
      <trkpt lat="-28.388615" lon="-65.6205">
        <ele>726.4</ele>
        <time>2018-08-18T13:37:07Z</time>
      </trkpt>
      <trkpt lat="-28.38854" lon="-65.62049">
        <ele>726.6</ele>
        <time>2018-08-18T13:37:09Z</time>
      </trkpt>
      <trkpt lat="-28.38846" lon="-65.62048">
        <ele>726.6</ele>
        <time>2018-08-18T13:37:11Z</time>
      </trkpt>
      <trkpt lat="-28.388385" lon="-65.62047">
        <ele>726.9</ele>
        <time>2018-08-18T13:37:13Z</time>
      </trkpt>
      <trkpt lat="-28.388305" lon="-65.62045166666667">
        <ele>727.2</ele>
        <time>2018-08-18T13:37:15Z</time>
      </trkpt>
      <trkpt lat="-28.38821" lon="-65.62045666666667">
        <ele>727.3</ele>
        <time>2018-08-18T13:37:18Z</time>
      </trkpt>
      <trkpt lat="-28.388105" lon="-65.62048">
        <ele>727.3</ele>
        <time>2018-08-18T13:37:21Z</time>
      </trkpt>
      <trkpt lat="-28.38803" lon="-65.62048">
        <ele>727.4</ele>
        <time>2018-08-18T13:37:23Z</time>
      </trkpt>
      <trkpt lat="-28.38796" lon="-65.62049">
        <ele>727.5</ele>
        <time>2018-08-18T13:37:25Z</time>
      </trkpt>
      <trkpt lat="-28.387875" lon="-65.62049166666667">
        <ele>727.0</ele>
        <time>2018-08-18T13:37:27Z</time>
      </trkpt>
      <trkpt lat="-28.387805" lon="-65.6205">
        <ele>726.9</ele>
        <time>2018-08-18T13:37:29Z</time>
      </trkpt>
      <trkpt lat="-28.387725" lon="-65.62050166666667">
        <ele>726.1</ele>
        <time>2018-08-18T13:37:31Z</time>
      </trkpt>
      <trkpt lat="-28.387615" lon="-65.6205">
        <ele>725.9</ele>
        <time>2018-08-18T13:37:34Z</time>
      </trkpt>
      <trkpt lat="-28.387535" lon="-65.6205">
        <ele>725.9</ele>
        <time>2018-08-18T13:37:36Z</time>
      </trkpt>
      <trkpt lat="-28.387455" lon="-65.62050166666667">
        <ele>724.8</ele>
        <time>2018-08-18T13:37:38Z</time>
      </trkpt>
      <trkpt lat="-28.38738" lon="-65.6205">
        <ele>723.7</ele>
        <time>2018-08-18T13:37:40Z</time>
      </trkpt>
      <trkpt lat="-28.38727" lon="-65.620485">
        <ele>722.8</ele>
        <time>2018-08-18T13:37:43Z</time>
      </trkpt>
      <trkpt lat="-28.387195" lon="-65.62047">
        <ele>722.9</ele>
        <time>2018-08-18T13:37:45Z</time>
      </trkpt>
      <trkpt lat="-28.38708" lon="-65.62045">
        <ele>722.9</ele>
        <time>2018-08-18T13:37:48Z</time>
      </trkpt>
      <trkpt lat="-28.38699" lon="-65.62041333333333">
        <ele>722.6</ele>
        <time>2018-08-18T13:37:51Z</time>
      </trkpt>
      <trkpt lat="-28.38689" lon="-65.6204">
        <ele>722.6</ele>
        <time>2018-08-18T13:37:54Z</time>
      </trkpt>
      <trkpt lat="-28.38682" lon="-65.62036666666667">
        <ele>722.5</ele>
        <time>2018-08-18T13:37:56Z</time>
      </trkpt>
      <trkpt lat="-28.386735" lon="-65.620345">
        <ele>722.4</ele>
        <time>2018-08-18T13:37:59Z</time>
      </trkpt>
      <trkpt lat="-28.38663" lon="-65.62032">
        <ele>722.6</ele>
        <time>2018-08-18T13:38:02Z</time>
      </trkpt>
      <trkpt lat="-28.386535" lon="-65.6203">
        <ele>722.7</ele>
        <time>2018-08-18T13:38:05Z</time>
      </trkpt>
      <trkpt lat="-28.386435" lon="-65.62026666666667">
        <ele>723.0</ele>
        <time>2018-08-18T13:38:08Z</time>
      </trkpt>
      <trkpt lat="-28.386345" lon="-65.62025">
        <ele>723.2</ele>
        <time>2018-08-18T13:38:11Z</time>
      </trkpt>
      <trkpt lat="-28.38625" lon="-65.620225">
        <ele>723.3</ele>
        <time>2018-08-18T13:38:14Z</time>
      </trkpt>
      <trkpt lat="-28.386155" lon="-65.620225">
        <ele>723.3</ele>
        <time>2018-08-18T13:38:17Z</time>
      </trkpt>
      <trkpt lat="-28.386055" lon="-65.62022666666667">
        <ele>723.4</ele>
        <time>2018-08-18T13:38:20Z</time>
      </trkpt>
      <trkpt lat="-28.38597" lon="-65.62023333333333">
        <ele>723.6</ele>
        <time>2018-08-18T13:38:23Z</time>
      </trkpt>
      <trkpt lat="-28.38588" lon="-65.62022666666667">
        <ele>723.9</ele>
        <time>2018-08-18T13:38:26Z</time>
      </trkpt>
      <trkpt lat="-28.385775" lon="-65.620245">
        <ele>724.2</ele>
        <time>2018-08-18T13:38:29Z</time>
      </trkpt>
      <trkpt lat="-28.38567" lon="-65.62026">
        <ele>725.1</ele>
        <time>2018-08-18T13:38:32Z</time>
      </trkpt>
      <trkpt lat="-28.385575" lon="-65.620265">
        <ele>726.4</ele>
        <time>2018-08-18T13:38:34Z</time>
      </trkpt>
      <trkpt lat="-28.38549" lon="-65.62029">
        <ele>726.6</ele>
        <time>2018-08-18T13:38:36Z</time>
      </trkpt>
      <trkpt lat="-28.3854" lon="-65.62031">
        <ele>726.4</ele>
        <time>2018-08-18T13:38:38Z</time>
      </trkpt>
      <trkpt lat="-28.3853" lon="-65.62032">
        <ele>726.0</ele>
        <time>2018-08-18T13:38:40Z</time>
      </trkpt>
      <trkpt lat="-28.385195" lon="-65.620355">
        <ele>724.1</ele>
        <time>2018-08-18T13:38:42Z</time>
      </trkpt>
      <trkpt lat="-28.38511" lon="-65.62036666666667">
        <ele>722.5</ele>
        <time>2018-08-18T13:38:44Z</time>
      </trkpt>
      <trkpt lat="-28.38502" lon="-65.6204">
        <ele>721.6</ele>
        <time>2018-08-18T13:38:46Z</time>
      </trkpt>
      <trkpt lat="-28.38494" lon="-65.620405">
        <ele>721.1</ele>
        <time>2018-08-18T13:38:48Z</time>
      </trkpt>
      <trkpt lat="-28.384845" lon="-65.62043">
        <ele>721.1</ele>
        <time>2018-08-18T13:38:51Z</time>
      </trkpt>
      <trkpt lat="-28.384745" lon="-65.62043">
        <ele>721.3</ele>
        <time>2018-08-18T13:38:54Z</time>
      </trkpt>
      <trkpt lat="-28.38466" lon="-65.62045">
        <ele>721.4</ele>
        <time>2018-08-18T13:38:57Z</time>
      </trkpt>
      <trkpt lat="-28.38457" lon="-65.62045166666667">
        <ele>721.5</ele>
        <time>2018-08-18T13:39:00Z</time>
      </trkpt>
      <trkpt lat="-28.3845" lon="-65.620475">
        <ele>721.5</ele>
        <time>2018-08-18T13:39:02Z</time>
      </trkpt>
      <trkpt lat="-28.38439" lon="-65.620485">
        <ele>721.6</ele>
        <time>2018-08-18T13:39:05Z</time>
      </trkpt>
      <trkpt lat="-28.384325" lon="-65.62049">
        <ele>721.6</ele>
        <time>2018-08-18T13:39:08Z</time>
      </trkpt>
      <trkpt lat="-28.38421" lon="-65.6205">
        <ele>721.8</ele>
        <time>2018-08-18T13:39:11Z</time>
      </trkpt>
      <trkpt lat="-28.38414" lon="-65.62050166666667">
        <ele>721.9</ele>
        <time>2018-08-18T13:39:14Z</time>
      </trkpt>
      <trkpt lat="-28.384065" lon="-65.62049666666667">
        <ele>722.2</ele>
        <time>2018-08-18T13:39:17Z</time>
      </trkpt>
      <trkpt lat="-28.383985" lon="-65.62045">
        <ele>722.5</ele>
        <time>2018-08-18T13:39:20Z</time>
      </trkpt>
      <trkpt lat="-28.38397" lon="-65.62050166666667">
        <ele>722.9</ele>
        <time>2018-08-18T13:39:27Z</time>
      </trkpt>
      <trkpt lat="-28.38405" lon="-65.62050166666667">
        <ele>723.3</ele>
        <time>2018-08-18T13:39:31Z</time>
      </trkpt>
      <trkpt lat="-28.384125" lon="-65.62049">
        <ele>723.8</ele>
        <time>2018-08-18T13:39:36Z</time>
      </trkpt>
      <trkpt lat="-28.384195" lon="-65.620525">
        <ele>724.2</ele>
        <time>2018-08-18T13:39:40Z</time>
      </trkpt>
      <trkpt lat="-28.38421" lon="-65.620485">
        <ele>724.3</ele>
        <time>2018-08-18T13:39:47Z</time>
      </trkpt>
      <trkpt lat="-28.384225" lon="-65.62045666666667">
        <ele>724.3</ele>
        <time>2018-08-18T13:39:52Z</time>
      </trkpt>
      <trkpt lat="-28.38421" lon="-65.62047">
        <ele>724.2</ele>
        <time>2018-08-18T13:40:05Z</time>
      </trkpt>
      <trkpt lat="-28.38421" lon="-65.62047">
        <ele>724.2</ele>
        <time>2018-08-18T13:40:06Z</time>
      </trkpt>
      <trkpt lat="-28.384195" lon="-65.62045166666667">
        <ele>724.1</ele>
        <time>2018-08-18T13:40:15Z</time>
      </trkpt>
      <trkpt lat="-28.384195" lon="-65.62045166666667">
        <ele>724.1</ele>
        <time>2018-08-18T13:40:16Z</time>
      </trkpt>
      <trkpt lat="-28.38421" lon="-65.62048">
        <ele>723.6</ele>
        <time>2018-08-18T13:40:28Z</time>
      </trkpt>
      <trkpt lat="-28.38421" lon="-65.620475">
        <ele>723.5</ele>
        <time>2018-08-18T13:40:29Z</time>
      </trkpt>
      <trkpt lat="-28.38421" lon="-65.62045">
        <ele>722.6</ele>
        <time>2018-08-18T13:40:38Z</time>
      </trkpt>
      <trkpt lat="-28.38422" lon="-65.620445">
        <ele>722.6</ele>
        <time>2018-08-18T13:40:39Z</time>
      </trkpt>
      <trkpt lat="-28.38419" lon="-65.62045666666667">
        <ele>722.4</ele>
        <time>2018-08-18T13:40:52Z</time>
      </trkpt>
      <trkpt lat="-28.384185" lon="-65.62045833333333">
        <ele>722.4</ele>
        <time>2018-08-18T13:40:53Z</time>
      </trkpt>
      <trkpt lat="-28.384175" lon="-65.62047">
        <ele>721.9</ele>
        <time>2018-08-18T13:41:07Z</time>
      </trkpt>
      <trkpt lat="-28.384175" lon="-65.62047">
        <ele>721.9</ele>
        <time>2018-08-18T13:41:08Z</time>
      </trkpt>
      <trkpt lat="-28.38419" lon="-65.620475">
        <ele>721.2</ele>
        <time>2018-08-18T13:41:32Z</time>
      </trkpt>
      <trkpt lat="-28.38419" lon="-65.620475">
        <ele>721.2</ele>
        <time>2018-08-18T13:41:33Z</time>
      </trkpt>
      <trkpt lat="-28.384195" lon="-65.62045">
        <ele>721.0</ele>
        <time>2018-08-18T13:41:43Z</time>
      </trkpt>
      <trkpt lat="-28.384195" lon="-65.62045">
        <ele>721.0</ele>
        <time>2018-08-18T13:41:44Z</time>
      </trkpt>
      <trkpt lat="-28.3842" lon="-65.62048">
        <ele>721.4</ele>
        <time>2018-08-18T13:41:56Z</time>
      </trkpt>
      <trkpt lat="-28.38421" lon="-65.620485">
        <ele>721.4</ele>
        <time>2018-08-18T13:41:57Z</time>
      </trkpt>
      <trkpt lat="-28.3842" lon="-65.620475">
        <ele>721.8</ele>
        <time>2018-08-18T13:42:10Z</time>
      </trkpt>
      <trkpt lat="-28.3842" lon="-65.620475">
        <ele>721.8</ele>
        <time>2018-08-18T13:42:11Z</time>
      </trkpt>
      <trkpt lat="-28.384185" lon="-65.62045">
        <ele>722.6</ele>
        <time>2018-08-18T13:42:26Z</time>
      </trkpt>
      <trkpt lat="-28.384185" lon="-65.62045">
        <ele>722.6</ele>
        <time>2018-08-18T13:42:27Z</time>
      </trkpt>
      <trkpt lat="-28.384185" lon="-65.620445">
        <ele>722.7</ele>
        <time>2018-08-18T13:42:38Z</time>
      </trkpt>
      <trkpt lat="-28.384175" lon="-65.620445">
        <ele>722.7</ele>
        <time>2018-08-18T13:42:39Z</time>
      </trkpt>
      <trkpt lat="-28.384175" lon="-65.62043">
        <ele>723.2</ele>
        <time>2018-08-18T13:42:52Z</time>
      </trkpt>
      <trkpt lat="-28.384175" lon="-65.62043">
        <ele>723.3</ele>
        <time>2018-08-18T13:42:53Z</time>
      </trkpt>
      <trkpt lat="-28.38409" lon="-65.62045666666667">
        <ele>724.3</ele>
        <time>2018-08-18T13:43:01Z</time>
      </trkpt>
      <trkpt lat="-28.384" lon="-65.620475">
        <ele>724.3</ele>
        <time>2018-08-18T13:43:05Z</time>
      </trkpt>
      <trkpt lat="-28.383895" lon="-65.620485">
        <ele>724.1</ele>
        <time>2018-08-18T13:43:09Z</time>
      </trkpt>
      <trkpt lat="-28.383815" lon="-65.62049">
        <ele>723.9</ele>
        <time>2018-08-18T13:43:12Z</time>
      </trkpt>
      <trkpt lat="-28.38372" lon="-65.62049">
        <ele>723.7</ele>
        <time>2018-08-18T13:43:15Z</time>
      </trkpt>
      <trkpt lat="-28.383625" lon="-65.62049">
        <ele>723.5</ele>
        <time>2018-08-18T13:43:18Z</time>
      </trkpt>
      <trkpt lat="-28.38352" lon="-65.62049">
        <ele>723.4</ele>
        <time>2018-08-18T13:43:21Z</time>
      </trkpt>
      <trkpt lat="-28.383435" lon="-65.62049">
        <ele>723.3</ele>
        <time>2018-08-18T13:43:24Z</time>
      </trkpt>
      <trkpt lat="-28.38335" lon="-65.62049166666667">
        <ele>723.2</ele>
        <time>2018-08-18T13:43:27Z</time>
      </trkpt>
      <trkpt lat="-28.38326" lon="-65.62049">
        <ele>723.2</ele>
        <time>2018-08-18T13:43:30Z</time>
      </trkpt>
      <trkpt lat="-28.38316" lon="-65.620485">
        <ele>723.1</ele>
        <time>2018-08-18T13:43:33Z</time>
      </trkpt>
      <trkpt lat="-28.38307" lon="-65.62048">
        <ele>723.1</ele>
        <time>2018-08-18T13:43:36Z</time>
      </trkpt>
      <trkpt lat="-28.38299" lon="-65.62048">
        <ele>723.3</ele>
        <time>2018-08-18T13:43:39Z</time>
      </trkpt>
      <trkpt lat="-28.38291" lon="-65.620485">
        <ele>723.4</ele>
        <time>2018-08-18T13:43:42Z</time>
      </trkpt>
      <trkpt lat="-28.38281" lon="-65.620485">
        <ele>723.4</ele>
        <time>2018-08-18T13:43:45Z</time>
      </trkpt>
      <trkpt lat="-28.382735" lon="-65.62048">
        <ele>723.4</ele>
        <time>2018-08-18T13:43:47Z</time>
      </trkpt>
      <trkpt lat="-28.382655" lon="-65.620475">
        <ele>723.3</ele>
        <time>2018-08-18T13:43:49Z</time>
      </trkpt>
      <trkpt lat="-28.38256" lon="-65.62045166666667">
        <ele>723.3</ele>
        <time>2018-08-18T13:43:52Z</time>
      </trkpt>
      <trkpt lat="-28.38249" lon="-65.62045">
        <ele>723.3</ele>
        <time>2018-08-18T13:43:54Z</time>
      </trkpt>
      <trkpt lat="-28.382395" lon="-65.62045">
        <ele>723.5</ele>
        <time>2018-08-18T13:43:57Z</time>
      </trkpt>
      <trkpt lat="-28.38231" lon="-65.62045">
        <ele>723.5</ele>
        <time>2018-08-18T13:44:00Z</time>
      </trkpt>
      <trkpt lat="-28.382205" lon="-65.62045166666667">
        <ele>723.5</ele>
        <time>2018-08-18T13:44:03Z</time>
      </trkpt>
      <trkpt lat="-28.3821" lon="-65.62045166666667">
        <ele>723.5</ele>
        <time>2018-08-18T13:44:06Z</time>
      </trkpt>
      <trkpt lat="-28.382" lon="-65.62045166666667">
        <ele>723.5</ele>
        <time>2018-08-18T13:44:09Z</time>
      </trkpt>
      <trkpt lat="-28.381895" lon="-65.62045">
        <ele>723.5</ele>
        <time>2018-08-18T13:44:12Z</time>
      </trkpt>
      <trkpt lat="-28.381815" lon="-65.62045">
        <ele>723.7</ele>
        <time>2018-08-18T13:44:15Z</time>
      </trkpt>
      <trkpt lat="-28.38173" lon="-65.62045">
        <ele>723.8</ele>
        <time>2018-08-18T13:44:18Z</time>
      </trkpt>
      <trkpt lat="-28.381635" lon="-65.62045">
        <ele>723.9</ele>
        <time>2018-08-18T13:44:21Z</time>
      </trkpt>
      <trkpt lat="-28.38155" lon="-65.62045166666667">
        <ele>724.1</ele>
        <time>2018-08-18T13:44:24Z</time>
      </trkpt>
      <trkpt lat="-28.381475000000002" lon="-65.62047">
        <ele>724.2</ele>
        <time>2018-08-18T13:44:27Z</time>
      </trkpt>
      <trkpt lat="-28.381385" lon="-65.620475">
        <ele>724.5</ele>
        <time>2018-08-18T13:44:30Z</time>
      </trkpt>
      <trkpt lat="-28.381305" lon="-65.620485">
        <ele>724.7</ele>
        <time>2018-08-18T13:44:33Z</time>
      </trkpt>
      <trkpt lat="-28.38123" lon="-65.62049166666667">
        <ele>724.8</ele>
        <time>2018-08-18T13:44:36Z</time>
      </trkpt>
      <trkpt lat="-28.381125" lon="-65.62049666666667">
        <ele>724.9</ele>
        <time>2018-08-18T13:44:39Z</time>
      </trkpt>
      <trkpt lat="-28.38104" lon="-65.62049666666667">
        <ele>724.9</ele>
        <time>2018-08-18T13:44:42Z</time>
      </trkpt>
      <trkpt lat="-28.380945" lon="-65.6205">
        <ele>724.8</ele>
        <time>2018-08-18T13:44:45Z</time>
      </trkpt>
      <trkpt lat="-28.380865" lon="-65.6205">
        <ele>725.0</ele>
        <time>2018-08-18T13:44:48Z</time>
      </trkpt>
      <trkpt lat="-28.38079" lon="-65.620515">
        <ele>725.2</ele>
        <time>2018-08-18T13:44:51Z</time>
      </trkpt>
      <trkpt lat="-28.380715" lon="-65.62053">
        <ele>725.5</ele>
        <time>2018-08-18T13:44:55Z</time>
      </trkpt>
      <trkpt lat="-28.38062" lon="-65.620535">
        <ele>725.6</ele>
        <time>2018-08-18T13:44:59Z</time>
      </trkpt>
      <trkpt lat="-28.38053" lon="-65.620535">
        <ele>726.0</ele>
        <time>2018-08-18T13:45:03Z</time>
      </trkpt>
      <trkpt lat="-28.38045" lon="-65.620545">
        <ele>726.2</ele>
        <time>2018-08-18T13:45:06Z</time>
      </trkpt>
      <trkpt lat="-28.38036" lon="-65.62057">
        <ele>727.2</ele>
        <time>2018-08-18T13:45:09Z</time>
      </trkpt>
      <trkpt lat="-28.38027" lon="-65.62058">
        <ele>728.3</ele>
        <time>2018-08-18T13:45:11Z</time>
      </trkpt>
      <trkpt lat="-28.380165" lon="-65.62057">
        <ele>728.8</ele>
        <time>2018-08-18T13:45:13Z</time>
      </trkpt>
      <trkpt lat="-28.380045" lon="-65.620565">
        <ele>728.8</ele>
        <time>2018-08-18T13:45:15Z</time>
      </trkpt>
      <trkpt lat="-28.379935" lon="-65.62056">
        <ele>728.8</ele>
        <time>2018-08-18T13:45:17Z</time>
      </trkpt>
      <trkpt lat="-28.379806666666667" lon="-65.62056">
        <ele>728.5</ele>
        <time>2018-08-18T13:45:19Z</time>
      </trkpt>
      <trkpt lat="-28.3797" lon="-65.620545">
        <ele>727.6</ele>
        <time>2018-08-18T13:45:21Z</time>
      </trkpt>
      <trkpt lat="-28.379595" lon="-65.620535">
        <ele>727.2</ele>
        <time>2018-08-18T13:45:23Z</time>
      </trkpt>
      <trkpt lat="-28.379495" lon="-65.620515">
        <ele>727.0</ele>
        <time>2018-08-18T13:45:25Z</time>
      </trkpt>
      <trkpt lat="-28.37939" lon="-65.62049833333333">
        <ele>726.6</ele>
        <time>2018-08-18T13:45:27Z</time>
      </trkpt>
      <trkpt lat="-28.3793" lon="-65.620485">
        <ele>726.3</ele>
        <time>2018-08-18T13:45:29Z</time>
      </trkpt>
      <trkpt lat="-28.37921" lon="-65.62048">
        <ele>726.4</ele>
        <time>2018-08-18T13:45:31Z</time>
      </trkpt>
      <trkpt lat="-28.379115" lon="-65.62045166666667">
        <ele>726.8</ele>
        <time>2018-08-18T13:45:33Z</time>
      </trkpt>
      <trkpt lat="-28.379013333333333" lon="-65.620445">
        <ele>727.1</ele>
        <time>2018-08-18T13:45:35Z</time>
      </trkpt>
      <trkpt lat="-28.378925" lon="-65.62043">
        <ele>726.8</ele>
        <time>2018-08-18T13:45:37Z</time>
      </trkpt>
      <trkpt lat="-28.378835" lon="-65.620415">
        <ele>727.1</ele>
        <time>2018-08-18T13:45:39Z</time>
      </trkpt>
      <trkpt lat="-28.378745" lon="-65.62040666666667">
        <ele>727.3</ele>
        <time>2018-08-18T13:45:41Z</time>
      </trkpt>
      <trkpt lat="-28.37865" lon="-65.620405">
        <ele>726.9</ele>
        <time>2018-08-18T13:45:43Z</time>
      </trkpt>
      <trkpt lat="-28.378555" lon="-65.62039">
        <ele>726.8</ele>
        <time>2018-08-18T13:45:45Z</time>
      </trkpt>
      <trkpt lat="-28.378465" lon="-65.620365">
        <ele>727.6</ele>
        <time>2018-08-18T13:45:47Z</time>
      </trkpt>
      <trkpt lat="-28.378365" lon="-65.620365">
        <ele>728.0</ele>
        <time>2018-08-18T13:45:49Z</time>
      </trkpt>
      <trkpt lat="-28.378275" lon="-65.620355">
        <ele>727.4</ele>
        <time>2018-08-18T13:45:51Z</time>
      </trkpt>
      <trkpt lat="-28.37818" lon="-65.620345">
        <ele>726.4</ele>
        <time>2018-08-18T13:45:53Z</time>
      </trkpt>
      <trkpt lat="-28.378095" lon="-65.62034">
        <ele>726.0</ele>
        <time>2018-08-18T13:45:55Z</time>
      </trkpt>
      <trkpt lat="-28.37801" lon="-65.620335">
        <ele>725.5</ele>
        <time>2018-08-18T13:45:57Z</time>
      </trkpt>
      <trkpt lat="-28.37792" lon="-65.620335">
        <ele>725.7</ele>
        <time>2018-08-18T13:45:59Z</time>
      </trkpt>
      <trkpt lat="-28.377835" lon="-65.62032">
        <ele>726.2</ele>
        <time>2018-08-18T13:46:01Z</time>
      </trkpt>
      <trkpt lat="-28.37776" lon="-65.62031">
        <ele>726.2</ele>
        <time>2018-08-18T13:46:03Z</time>
      </trkpt>
      <trkpt lat="-28.377685" lon="-65.62031">
        <ele>726.3</ele>
        <time>2018-08-18T13:46:05Z</time>
      </trkpt>
      <trkpt lat="-28.377605" lon="-65.62031">
        <ele>726.3</ele>
        <time>2018-08-18T13:46:07Z</time>
      </trkpt>
      <trkpt lat="-28.37753" lon="-65.62031">
        <ele>726.3</ele>
        <time>2018-08-18T13:46:09Z</time>
      </trkpt>
      <trkpt lat="-28.377435" lon="-65.62032">
        <ele>726.2</ele>
        <time>2018-08-18T13:46:12Z</time>
      </trkpt>
      <trkpt lat="-28.37734" lon="-65.620335">
        <ele>726.2</ele>
        <time>2018-08-18T13:46:15Z</time>
      </trkpt>
      <trkpt lat="-28.377245" lon="-65.620345">
        <ele>726.1</ele>
        <time>2018-08-18T13:46:18Z</time>
      </trkpt>
      <trkpt lat="-28.37716" lon="-65.620345">
        <ele>726.0</ele>
        <time>2018-08-18T13:46:21Z</time>
      </trkpt>
      <trkpt lat="-28.377075" lon="-65.620335">
        <ele>725.9</ele>
        <time>2018-08-18T13:46:24Z</time>
      </trkpt>
      <trkpt lat="-28.37698" lon="-65.620335">
        <ele>725.8</ele>
        <time>2018-08-18T13:46:27Z</time>
      </trkpt>
      <trkpt lat="-28.37691" lon="-65.62034">
        <ele>725.8</ele>
        <time>2018-08-18T13:46:30Z</time>
      </trkpt>
      <trkpt lat="-28.376815" lon="-65.620345">
        <ele>726.0</ele>
        <time>2018-08-18T13:46:33Z</time>
      </trkpt>
      <trkpt lat="-28.376735" lon="-65.620365">
        <ele>726.2</ele>
        <time>2018-08-18T13:46:36Z</time>
      </trkpt>
      <trkpt lat="-28.37665" lon="-65.620395">
        <ele>726.2</ele>
        <time>2018-08-18T13:46:39Z</time>
      </trkpt>
      <trkpt lat="-28.37658" lon="-65.620405">
        <ele>726.4</ele>
        <time>2018-08-18T13:46:42Z</time>
      </trkpt>
      <trkpt lat="-28.3765" lon="-65.62041166666667">
        <ele>726.6</ele>
        <time>2018-08-18T13:46:45Z</time>
      </trkpt>
      <trkpt lat="-28.3764" lon="-65.62043">
        <ele>726.8</ele>
        <time>2018-08-18T13:46:49Z</time>
      </trkpt>
      <trkpt lat="-28.376295" lon="-65.62045">
        <ele>727.0</ele>
        <time>2018-08-18T13:46:53Z</time>
      </trkpt>
      <trkpt lat="-28.37622" lon="-65.620515">
        <ele>727.1</ele>
        <time>2018-08-18T13:46:56Z</time>
      </trkpt>
      <trkpt lat="-28.376155" lon="-65.620545">
        <ele>727.1</ele>
        <time>2018-08-18T13:46:58Z</time>
      </trkpt>
      <trkpt lat="-28.376055" lon="-65.62058166666667">
        <ele>727.0</ele>
        <time>2018-08-18T13:47:01Z</time>
      </trkpt>
      <trkpt lat="-28.37595" lon="-65.62059166666667">
        <ele>727.1</ele>
        <time>2018-08-18T13:47:04Z</time>
      </trkpt>
      <trkpt lat="-28.37588" lon="-65.62059166666667">
        <ele>727.1</ele>
        <time>2018-08-18T13:47:06Z</time>
      </trkpt>
      <trkpt lat="-28.375775" lon="-65.62058">
        <ele>727.3</ele>
        <time>2018-08-18T13:47:09Z</time>
      </trkpt>
      <trkpt lat="-28.3757" lon="-65.620565">
        <ele>727.5</ele>
        <time>2018-08-18T13:47:11Z</time>
      </trkpt>
      <trkpt lat="-28.375625" lon="-65.620535">
        <ele>727.8</ele>
        <time>2018-08-18T13:47:13Z</time>
      </trkpt>
      <trkpt lat="-28.37555" lon="-65.62049">
        <ele>728.1</ele>
        <time>2018-08-18T13:47:15Z</time>
      </trkpt>
      <trkpt lat="-28.375485" lon="-65.62045">
        <ele>728.4</ele>
        <time>2018-08-18T13:47:17Z</time>
      </trkpt>
      <trkpt lat="-28.37538" lon="-65.620405">
        <ele>728.9</ele>
        <time>2018-08-18T13:47:20Z</time>
      </trkpt>
      <trkpt lat="-28.37529" lon="-65.620365">
        <ele>730.4</ele>
        <time>2018-08-18T13:47:23Z</time>
      </trkpt>
      <trkpt lat="-28.37519" lon="-65.62032">
        <ele>730.5</ele>
        <time>2018-08-18T13:47:26Z</time>
      </trkpt>
      <trkpt lat="-28.375105" lon="-65.620265">
        <ele>730.7</ele>
        <time>2018-08-18T13:47:29Z</time>
      </trkpt>
      <trkpt lat="-28.375045" lon="-65.62018">
        <ele>731.3</ele>
        <time>2018-08-18T13:47:32Z</time>
      </trkpt>
      <trkpt lat="-28.374975" lon="-65.620085">
        <ele>732.0</ele>
        <time>2018-08-18T13:47:35Z</time>
      </trkpt>
      <trkpt lat="-28.37491" lon="-65.62005166666667">
        <ele>731.7</ele>
        <time>2018-08-18T13:47:37Z</time>
      </trkpt>
      <trkpt lat="-28.37481" lon="-65.62005333333333">
        <ele>731.6</ele>
        <time>2018-08-18T13:47:40Z</time>
      </trkpt>
      <trkpt lat="-28.37473" lon="-65.620085">
        <ele>731.5</ele>
        <time>2018-08-18T13:47:42Z</time>
      </trkpt>
      <trkpt lat="-28.37467" lon="-65.62012">
        <ele>731.3</ele>
        <time>2018-08-18T13:47:44Z</time>
      </trkpt>
      <trkpt lat="-28.3746" lon="-65.620175">
        <ele>729.3</ele>
        <time>2018-08-18T13:47:46Z</time>
      </trkpt>
      <trkpt lat="-28.37453" lon="-65.62025">
        <ele>727.9</ele>
        <time>2018-08-18T13:47:48Z</time>
      </trkpt>
      <trkpt lat="-28.374475" lon="-65.62031">
        <ele>727.6</ele>
        <time>2018-08-18T13:47:50Z</time>
      </trkpt>
      <trkpt lat="-28.374415" lon="-65.62036833333333">
        <ele>727.1</ele>
        <time>2018-08-18T13:47:52Z</time>
      </trkpt>
      <trkpt lat="-28.37434" lon="-65.620445">
        <ele>726.7</ele>
        <time>2018-08-18T13:47:54Z</time>
      </trkpt>
      <trkpt lat="-28.37426" lon="-65.62049666666667">
        <ele>726.6</ele>
        <time>2018-08-18T13:47:56Z</time>
      </trkpt>
      <trkpt lat="-28.37417" lon="-65.620545">
        <ele>726.2</ele>
        <time>2018-08-18T13:47:58Z</time>
      </trkpt>
      <trkpt lat="-28.374085" lon="-65.62058">
        <ele>725.6</ele>
        <time>2018-08-18T13:48:00Z</time>
      </trkpt>
      <trkpt lat="-28.373995" lon="-65.62061">
        <ele>724.7</ele>
        <time>2018-08-18T13:48:02Z</time>
      </trkpt>
      <trkpt lat="-28.37391" lon="-65.620625">
        <ele>724.1</ele>
        <time>2018-08-18T13:48:04Z</time>
      </trkpt>
      <trkpt lat="-28.373815" lon="-65.62064">
        <ele>724.1</ele>
        <time>2018-08-18T13:48:06Z</time>
      </trkpt>
      <trkpt lat="-28.37373" lon="-65.62067">
        <ele>724.1</ele>
        <time>2018-08-18T13:48:08Z</time>
      </trkpt>
      <trkpt lat="-28.37366" lon="-65.620705">
        <ele>725.1</ele>
        <time>2018-08-18T13:48:10Z</time>
      </trkpt>
      <trkpt lat="-28.373585" lon="-65.62075">
        <ele>725.2</ele>
        <time>2018-08-18T13:48:12Z</time>
      </trkpt>
      <trkpt lat="-28.3735" lon="-65.62079666666666">
        <ele>725.2</ele>
        <time>2018-08-18T13:48:15Z</time>
      </trkpt>
      <trkpt lat="-28.373435" lon="-65.62087">
        <ele>725.1</ele>
        <time>2018-08-18T13:48:18Z</time>
      </trkpt>
      <trkpt lat="-28.37336" lon="-65.620935">
        <ele>725.1</ele>
        <time>2018-08-18T13:48:21Z</time>
      </trkpt>
      <trkpt lat="-28.37329" lon="-65.62099">
        <ele>725.3</ele>
        <time>2018-08-18T13:48:24Z</time>
      </trkpt>
      <trkpt lat="-28.373215" lon="-65.621065">
        <ele>725.5</ele>
        <time>2018-08-18T13:48:27Z</time>
      </trkpt>
      <trkpt lat="-28.37312" lon="-65.621115">
        <ele>725.8</ele>
        <time>2018-08-18T13:48:30Z</time>
      </trkpt>
      <trkpt lat="-28.37305" lon="-65.62112666666667">
        <ele>725.9</ele>
        <time>2018-08-18T13:48:32Z</time>
      </trkpt>
      <trkpt lat="-28.37295" lon="-65.621115">
        <ele>726.2</ele>
        <time>2018-08-18T13:48:35Z</time>
      </trkpt>
      <trkpt lat="-28.37287" lon="-65.621065">
        <ele>726.5</ele>
        <time>2018-08-18T13:48:38Z</time>
      </trkpt>
      <trkpt lat="-28.372795" lon="-65.62101">
        <ele>727.5</ele>
        <time>2018-08-18T13:48:40Z</time>
      </trkpt>
      <trkpt lat="-28.37272" lon="-65.620945">
        <ele>727.6</ele>
        <time>2018-08-18T13:48:42Z</time>
      </trkpt>
      <trkpt lat="-28.37265" lon="-65.62088">
        <ele>728.0</ele>
        <time>2018-08-18T13:48:45Z</time>
      </trkpt>
      <trkpt lat="-28.372565" lon="-65.62080666666667">
        <ele>728.4</ele>
        <time>2018-08-18T13:48:48Z</time>
      </trkpt>
      <trkpt lat="-28.372495" lon="-65.62076">
        <ele>728.6</ele>
        <time>2018-08-18T13:48:50Z</time>
      </trkpt>
      <trkpt lat="-28.37244" lon="-65.620715">
        <ele>730.1</ele>
        <time>2018-08-18T13:48:52Z</time>
      </trkpt>
      <trkpt lat="-28.372365" lon="-65.62068166666667">
        <ele>730.9</ele>
        <time>2018-08-18T13:48:54Z</time>
      </trkpt>
      <trkpt lat="-28.37226" lon="-65.62064">
        <ele>731.6</ele>
        <time>2018-08-18T13:48:57Z</time>
      </trkpt>
      <trkpt lat="-28.372185" lon="-65.620625">
        <ele>732.0</ele>
        <time>2018-08-18T13:48:59Z</time>
      </trkpt>
      <trkpt lat="-28.3721" lon="-65.62058999999999">
        <ele>732.1</ele>
        <time>2018-08-18T13:49:01Z</time>
      </trkpt>
      <trkpt lat="-28.37202" lon="-65.62057">
        <ele>731.9</ele>
        <time>2018-08-18T13:49:03Z</time>
      </trkpt>
      <trkpt lat="-28.371925" lon="-65.620535">
        <ele>732.8</ele>
        <time>2018-08-18T13:49:05Z</time>
      </trkpt>
      <trkpt lat="-28.37185" lon="-65.62049166666667">
        <ele>733.7</ele>
        <time>2018-08-18T13:49:07Z</time>
      </trkpt>
      <trkpt lat="-28.371785" lon="-65.62045666666667">
        <ele>734.4</ele>
        <time>2018-08-18T13:49:09Z</time>
      </trkpt>
      <trkpt lat="-28.371685" lon="-65.6204">
        <ele>734.2</ele>
        <time>2018-08-18T13:49:12Z</time>
      </trkpt>
      <trkpt lat="-28.371625" lon="-65.620345">
        <ele>733.8</ele>
        <time>2018-08-18T13:49:14Z</time>
      </trkpt>
      <trkpt lat="-28.37156" lon="-65.62027">
        <ele>733.4</ele>
        <time>2018-08-18T13:49:16Z</time>
      </trkpt>
      <trkpt lat="-28.371495" lon="-65.62019166666667">
        <ele>733.2</ele>
        <time>2018-08-18T13:49:18Z</time>
      </trkpt>
      <trkpt lat="-28.37144" lon="-65.62012">
        <ele>732.8</ele>
        <time>2018-08-18T13:49:20Z</time>
      </trkpt>
      <trkpt lat="-28.37138" lon="-65.62004166666667">
        <ele>732.6</ele>
        <time>2018-08-18T13:49:22Z</time>
      </trkpt>
      <trkpt lat="-28.371315" lon="-65.61996666666667">
        <ele>733.4</ele>
        <time>2018-08-18T13:49:24Z</time>
      </trkpt>
      <trkpt lat="-28.37125" lon="-65.619915">
        <ele>734.3</ele>
        <time>2018-08-18T13:49:26Z</time>
      </trkpt>
      <trkpt lat="-28.37118" lon="-65.61986">
        <ele>734.3</ele>
        <time>2018-08-18T13:49:28Z</time>
      </trkpt>
      <trkpt lat="-28.37112" lon="-65.61981">
        <ele>734.0</ele>
        <time>2018-08-18T13:49:30Z</time>
      </trkpt>
      <trkpt lat="-28.37105" lon="-65.61977">
        <ele>733.1</ele>
        <time>2018-08-18T13:49:32Z</time>
      </trkpt>
      <trkpt lat="-28.37098" lon="-65.619715">
        <ele>732.6</ele>
        <time>2018-08-18T13:49:34Z</time>
      </trkpt>
      <trkpt lat="-28.3709" lon="-65.619645">
        <ele>732.7</ele>
        <time>2018-08-18T13:49:36Z</time>
      </trkpt>
      <trkpt lat="-28.370825" lon="-65.619585">
        <ele>733.1</ele>
        <time>2018-08-18T13:49:38Z</time>
      </trkpt>
      <trkpt lat="-28.37075" lon="-65.619545">
        <ele>733.7</ele>
        <time>2018-08-18T13:49:40Z</time>
      </trkpt>
      <trkpt lat="-28.37067" lon="-65.61951666666667">
        <ele>733.7</ele>
        <time>2018-08-18T13:49:42Z</time>
      </trkpt>
      <trkpt lat="-28.37056" lon="-65.61953">
        <ele>733.7</ele>
        <time>2018-08-18T13:49:45Z</time>
      </trkpt>
      <trkpt lat="-28.37049" lon="-65.619575">
        <ele>733.2</ele>
        <time>2018-08-18T13:49:47Z</time>
      </trkpt>
      <trkpt lat="-28.37043" lon="-65.619625">
        <ele>732.6</ele>
        <time>2018-08-18T13:49:49Z</time>
      </trkpt>
      <trkpt lat="-28.37037" lon="-65.619685">
        <ele>732.4</ele>
        <time>2018-08-18T13:49:51Z</time>
      </trkpt>
      <trkpt lat="-28.3703" lon="-65.61973666666667">
        <ele>732.1</ele>
        <time>2018-08-18T13:49:53Z</time>
      </trkpt>
      <trkpt lat="-28.370245" lon="-65.619805">
        <ele>732.3</ele>
        <time>2018-08-18T13:49:55Z</time>
      </trkpt>
      <trkpt lat="-28.370185" lon="-65.61986">
        <ele>732.3</ele>
        <time>2018-08-18T13:49:57Z</time>
      </trkpt>
      <trkpt lat="-28.370125" lon="-65.619915">
        <ele>732.4</ele>
        <time>2018-08-18T13:49:59Z</time>
      </trkpt>
      <trkpt lat="-28.370065" lon="-65.61996333333333">
        <ele>732.4</ele>
        <time>2018-08-18T13:50:01Z</time>
      </trkpt>
      <trkpt lat="-28.370005" lon="-65.620025">
        <ele>732.3</ele>
        <time>2018-08-18T13:50:03Z</time>
      </trkpt>
      <trkpt lat="-28.36993" lon="-65.62008">
        <ele>731.9</ele>
        <time>2018-08-18T13:50:05Z</time>
      </trkpt>
      <trkpt lat="-28.36985" lon="-65.62012">
        <ele>731.0</ele>
        <time>2018-08-18T13:50:07Z</time>
      </trkpt>
      <trkpt lat="-28.369745" lon="-65.62016">
        <ele>731.1</ele>
        <time>2018-08-18T13:50:10Z</time>
      </trkpt>
      <trkpt lat="-28.36967" lon="-65.62018">
        <ele>731.7</ele>
        <time>2018-08-18T13:50:12Z</time>
      </trkpt>
      <trkpt lat="-28.369576666666667" lon="-65.62019">
        <ele>732.2</ele>
        <time>2018-08-18T13:50:14Z</time>
      </trkpt>
      <trkpt lat="-28.369505" lon="-65.620205">
        <ele>732.5</ele>
        <time>2018-08-18T13:50:16Z</time>
      </trkpt>
      <trkpt lat="-28.369435" lon="-65.620205">
        <ele>732.7</ele>
        <time>2018-08-18T13:50:18Z</time>
      </trkpt>
      <trkpt lat="-28.36936" lon="-65.620215">
        <ele>732.8</ele>
        <time>2018-08-18T13:50:20Z</time>
      </trkpt>
      <trkpt lat="-28.369275000000002" lon="-65.620225">
        <ele>732.6</ele>
        <time>2018-08-18T13:50:22Z</time>
      </trkpt>
      <trkpt lat="-28.369195" lon="-65.620225">
        <ele>732.4</ele>
        <time>2018-08-18T13:50:24Z</time>
      </trkpt>
      <trkpt lat="-28.36911" lon="-65.62022666666667">
        <ele>732.5</ele>
        <time>2018-08-18T13:50:26Z</time>
      </trkpt>
      <trkpt lat="-28.36903" lon="-65.620245">
        <ele>732.7</ele>
        <time>2018-08-18T13:50:28Z</time>
      </trkpt>
      <trkpt lat="-28.36895" lon="-65.620255">
        <ele>733.1</ele>
        <time>2018-08-18T13:50:30Z</time>
      </trkpt>
      <trkpt lat="-28.368845" lon="-65.62027333333333">
        <ele>733.7</ele>
        <time>2018-08-18T13:50:33Z</time>
      </trkpt>
      <trkpt lat="-28.368765" lon="-65.62031">
        <ele>733.1</ele>
        <time>2018-08-18T13:50:35Z</time>
      </trkpt>
      <trkpt lat="-28.368675" lon="-65.62034">
        <ele>732.2</ele>
        <time>2018-08-18T13:50:37Z</time>
      </trkpt>
      <trkpt lat="-28.36857" lon="-65.620385">
        <ele>731.7</ele>
        <time>2018-08-18T13:50:40Z</time>
      </trkpt>
      <trkpt lat="-28.368485" lon="-65.620405">
        <ele>731.4</ele>
        <time>2018-08-18T13:50:42Z</time>
      </trkpt>
      <trkpt lat="-28.368415" lon="-65.62043">
        <ele>731.6</ele>
        <time>2018-08-18T13:50:44Z</time>
      </trkpt>
      <trkpt lat="-28.36834" lon="-65.62045166666667">
        <ele>731.5</ele>
        <time>2018-08-18T13:50:46Z</time>
      </trkpt>
      <trkpt lat="-28.36826" lon="-65.62049">
        <ele>731.3</ele>
        <time>2018-08-18T13:50:48Z</time>
      </trkpt>
      <trkpt lat="-28.36819" lon="-65.62050333333333">
        <ele>731.3</ele>
        <time>2018-08-18T13:50:50Z</time>
      </trkpt>
      <trkpt lat="-28.36809" lon="-65.620535">
        <ele>731.5</ele>
        <time>2018-08-18T13:50:53Z</time>
      </trkpt>
      <trkpt lat="-28.367985" lon="-65.62057">
        <ele>731.6</ele>
        <time>2018-08-18T13:50:56Z</time>
      </trkpt>
      <trkpt lat="-28.3679" lon="-65.62059166666667">
        <ele>731.8</ele>
        <time>2018-08-18T13:50:59Z</time>
      </trkpt>
      <trkpt lat="-28.367815" lon="-65.62063">
        <ele>732.1</ele>
        <time>2018-08-18T13:51:02Z</time>
      </trkpt>
      <trkpt lat="-28.36774" lon="-65.62064">
        <ele>732.3</ele>
        <time>2018-08-18T13:51:06Z</time>
      </trkpt>
      <trkpt lat="-28.367665" lon="-65.620665">
        <ele>732.4</ele>
        <time>2018-08-18T13:51:10Z</time>
      </trkpt>
      <trkpt lat="-28.36758" lon="-65.620695">
        <ele>732.4</ele>
        <time>2018-08-18T13:51:14Z</time>
      </trkpt>
      <trkpt lat="-28.36751" lon="-65.620715">
        <ele>732.5</ele>
        <time>2018-08-18T13:51:17Z</time>
      </trkpt>
      <trkpt lat="-28.367415" lon="-65.62074">
        <ele>732.5</ele>
        <time>2018-08-18T13:51:21Z</time>
      </trkpt>
      <trkpt lat="-28.367335" lon="-65.620765">
        <ele>732.6</ele>
        <time>2018-08-18T13:51:25Z</time>
      </trkpt>
      <trkpt lat="-28.36726" lon="-65.620795">
        <ele>732.9</ele>
        <time>2018-08-18T13:51:28Z</time>
      </trkpt>
      <trkpt lat="-28.36719" lon="-65.620825">
        <ele>733.2</ele>
        <time>2018-08-18T13:51:31Z</time>
      </trkpt>
      <trkpt lat="-28.36712" lon="-65.620845">
        <ele>733.7</ele>
        <time>2018-08-18T13:51:34Z</time>
      </trkpt>
      <trkpt lat="-28.36705" lon="-65.62087">
        <ele>734.2</ele>
        <time>2018-08-18T13:51:37Z</time>
      </trkpt>
      <trkpt lat="-28.36698" lon="-65.6209">
        <ele>734.5</ele>
        <time>2018-08-18T13:51:40Z</time>
      </trkpt>
      <trkpt lat="-28.366885" lon="-65.62094">
        <ele>734.8</ele>
        <time>2018-08-18T13:51:44Z</time>
      </trkpt>
      <trkpt lat="-28.36679" lon="-65.620965">
        <ele>735.0</ele>
        <time>2018-08-18T13:51:48Z</time>
      </trkpt>
      <trkpt lat="-28.366695" lon="-65.621005">
        <ele>735.3</ele>
        <time>2018-08-18T13:51:51Z</time>
      </trkpt>
      <trkpt lat="-28.3666" lon="-65.62102166666666">
        <ele>735.5</ele>
        <time>2018-08-18T13:51:54Z</time>
      </trkpt>
      <trkpt lat="-28.366515" lon="-65.62105">
        <ele>735.7</ele>
        <time>2018-08-18T13:51:57Z</time>
      </trkpt>
      <trkpt lat="-28.36648" lon="-65.62108">
        <ele>736.5</ele>
        <time>2018-08-18T13:52:04Z</time>
      </trkpt>
      <trkpt lat="-28.36647" lon="-65.62108">
        <ele>736.9</ele>
        <time>2018-08-18T13:52:07Z</time>
      </trkpt>
      <trkpt lat="-28.366455" lon="-65.62108">
        <ele>737.4</ele>
        <time>2018-08-18T13:52:19Z</time>
      </trkpt>
      <trkpt lat="-28.36645" lon="-65.62108">
        <ele>737.4</ele>
        <time>2018-08-18T13:52:20Z</time>
      </trkpt>
      <trkpt lat="-28.366445" lon="-65.62108">
        <ele>737.2</ele>
        <time>2018-08-18T13:52:29Z</time>
      </trkpt>
      <trkpt lat="-28.36645" lon="-65.62108">
        <ele>737.3</ele>
        <time>2018-08-18T13:52:30Z</time>
      </trkpt>
      <trkpt lat="-28.36648" lon="-65.621095">
        <ele>738.2</ele>
        <time>2018-08-18T13:52:38Z</time>
      </trkpt>
      <trkpt lat="-28.36649" lon="-65.621095">
        <ele>738.3</ele>
        <time>2018-08-18T13:52:39Z</time>
      </trkpt>
      <trkpt lat="-28.366515" lon="-65.62108">
        <ele>739.3</ele>
        <time>2018-08-18T13:52:49Z</time>
      </trkpt>
      <trkpt lat="-28.366515" lon="-65.62108">
        <ele>739.3</ele>
        <time>2018-08-18T13:52:50Z</time>
      </trkpt>
      <trkpt lat="-28.36649" lon="-65.62108">
        <ele>740.4</ele>
        <time>2018-08-18T13:53:00Z</time>
      </trkpt>
      <trkpt lat="-28.36648" lon="-65.62108">
        <ele>740.6</ele>
        <time>2018-08-18T13:53:01Z</time>
      </trkpt>
      <trkpt lat="-28.36648" lon="-65.62108">
        <ele>741.1</ele>
        <time>2018-08-18T13:53:09Z</time>
      </trkpt>
      <trkpt lat="-28.36648" lon="-65.62107">
        <ele>741.1</ele>
        <time>2018-08-18T13:53:10Z</time>
      </trkpt>
      <trkpt lat="-28.366515" lon="-65.62108">
        <ele>740.9</ele>
        <time>2018-08-18T13:53:18Z</time>
      </trkpt>
      <trkpt lat="-28.366515" lon="-65.62108">
        <ele>740.9</ele>
        <time>2018-08-18T13:53:19Z</time>
      </trkpt>
      <trkpt lat="-28.366515" lon="-65.621105">
        <ele>740.9</ele>
        <time>2018-08-18T13:53:29Z</time>
      </trkpt>
      <trkpt lat="-28.36651" lon="-65.621105">
        <ele>740.9</ele>
        <time>2018-08-18T13:53:30Z</time>
      </trkpt>
      <trkpt lat="-28.36651" lon="-65.621125">
        <ele>741.1</ele>
        <time>2018-08-18T13:53:49Z</time>
      </trkpt>
      <trkpt lat="-28.36651" lon="-65.621125">
        <ele>741.1</ele>
        <time>2018-08-18T13:53:50Z</time>
      </trkpt>
      <trkpt lat="-28.36649" lon="-65.621095">
        <ele>741.3</ele>
        <time>2018-08-18T13:54:03Z</time>
      </trkpt>
      <trkpt lat="-28.36649" lon="-65.621095">
        <ele>741.4</ele>
        <time>2018-08-18T13:54:04Z</time>
      </trkpt>
      <trkpt lat="-28.3665" lon="-65.621105">
        <ele>741.5</ele>
        <time>2018-08-18T13:54:20Z</time>
      </trkpt>
      <trkpt lat="-28.3665" lon="-65.621105">
        <ele>741.5</ele>
        <time>2018-08-18T13:54:21Z</time>
      </trkpt>
      <trkpt lat="-28.36648" lon="-65.62108">
        <ele>741.8</ele>
        <time>2018-08-18T13:54:39Z</time>
      </trkpt>
      <trkpt lat="-28.36647" lon="-65.62108">
        <ele>741.9</ele>
        <time>2018-08-18T13:54:40Z</time>
      </trkpt>
      <trkpt lat="-28.366495" lon="-65.621095">
        <ele>742.3</ele>
        <time>2018-08-18T13:55:07Z</time>
      </trkpt>
      <trkpt lat="-28.3665" lon="-65.621105">
        <ele>742.3</ele>
        <time>2018-08-18T13:55:08Z</time>
      </trkpt>
      <trkpt lat="-28.36642" lon="-65.621115">
        <ele>743.2</ele>
        <time>2018-08-18T13:56:01Z</time>
      </trkpt>
      <trkpt lat="-28.36634" lon="-65.621125">
        <ele>742.9</ele>
        <time>2018-08-18T13:56:06Z</time>
      </trkpt>
      <trkpt lat="-28.366265" lon="-65.621125">
        <ele>742.7</ele>
        <time>2018-08-18T13:56:10Z</time>
      </trkpt>
      <trkpt lat="-28.36617" lon="-65.621155">
        <ele>742.5</ele>
        <time>2018-08-18T13:56:14Z</time>
      </trkpt>
      <trkpt lat="-28.3661" lon="-65.621175">
        <ele>742.3</ele>
        <time>2018-08-18T13:56:18Z</time>
      </trkpt>
      <trkpt lat="-28.366015" lon="-65.62121">
        <ele>742.0</ele>
        <time>2018-08-18T13:56:21Z</time>
      </trkpt>
      <trkpt lat="-28.365935" lon="-65.62124">
        <ele>741.7</ele>
        <time>2018-08-18T13:56:24Z</time>
      </trkpt>
      <trkpt lat="-28.365826666666667" lon="-65.621275">
        <ele>741.5</ele>
        <time>2018-08-18T13:56:27Z</time>
      </trkpt>
      <trkpt lat="-28.36574" lon="-65.621295">
        <ele>741.2</ele>
        <time>2018-08-18T13:56:30Z</time>
      </trkpt>
      <trkpt lat="-28.365655" lon="-65.621325">
        <ele>741.0</ele>
        <time>2018-08-18T13:56:33Z</time>
      </trkpt>
      <trkpt lat="-28.36555" lon="-65.62134">
        <ele>740.9</ele>
        <time>2018-08-18T13:56:36Z</time>
      </trkpt>
      <trkpt lat="-28.36547" lon="-65.62135166666667">
        <ele>740.9</ele>
        <time>2018-08-18T13:56:39Z</time>
      </trkpt>
      <trkpt lat="-28.365395" lon="-65.621375">
        <ele>740.9</ele>
        <time>2018-08-18T13:56:42Z</time>
      </trkpt>
      <trkpt lat="-28.365315" lon="-65.62139">
        <ele>741.0</ele>
        <time>2018-08-18T13:56:45Z</time>
      </trkpt>
      <trkpt lat="-28.36523" lon="-65.62143">
        <ele>741.0</ele>
        <time>2018-08-18T13:56:50Z</time>
      </trkpt>
      <trkpt lat="-28.36516" lon="-65.62147">
        <ele>740.8</ele>
        <time>2018-08-18T13:56:54Z</time>
      </trkpt>
      <trkpt lat="-28.36507" lon="-65.62148666666667">
        <ele>740.7</ele>
        <time>2018-08-18T13:56:58Z</time>
      </trkpt>
      <trkpt lat="-28.364985" lon="-65.621515">
        <ele>740.6</ele>
        <time>2018-08-18T13:57:01Z</time>
      </trkpt>
      <trkpt lat="-28.36489" lon="-65.62153">
        <ele>740.4</ele>
        <time>2018-08-18T13:57:05Z</time>
      </trkpt>
      <trkpt lat="-28.364805" lon="-65.621555">
        <ele>740.2</ele>
        <time>2018-08-18T13:57:09Z</time>
      </trkpt>
      <trkpt lat="-28.364735" lon="-65.621575">
        <ele>740.1</ele>
        <time>2018-08-18T13:57:12Z</time>
      </trkpt>
      <trkpt lat="-28.36467" lon="-65.62161">
        <ele>740.0</ele>
        <time>2018-08-18T13:57:15Z</time>
      </trkpt>
      <trkpt lat="-28.36459" lon="-65.62162166666667">
        <ele>739.9</ele>
        <time>2018-08-18T13:57:18Z</time>
      </trkpt>
      <trkpt lat="-28.36451" lon="-65.621655">
        <ele>739.9</ele>
        <time>2018-08-18T13:57:21Z</time>
      </trkpt>
      <trkpt lat="-28.364425" lon="-65.62166166666667">
        <ele>740.1</ele>
        <time>2018-08-18T13:57:24Z</time>
      </trkpt>
      <trkpt lat="-28.36435" lon="-65.62168">
        <ele>740.3</ele>
        <time>2018-08-18T13:57:27Z</time>
      </trkpt>
      <trkpt lat="-28.364265" lon="-65.6217">
        <ele>740.3</ele>
        <time>2018-08-18T13:57:30Z</time>
      </trkpt>
      <trkpt lat="-28.364185" lon="-65.621725">
        <ele>740.2</ele>
        <time>2018-08-18T13:57:33Z</time>
      </trkpt>
      <trkpt lat="-28.364085" lon="-65.621745">
        <ele>740.4</ele>
        <time>2018-08-18T13:57:37Z</time>
      </trkpt>
      <trkpt lat="-28.36401" lon="-65.62177">
        <ele>740.7</ele>
        <time>2018-08-18T13:57:40Z</time>
      </trkpt>
      <trkpt lat="-28.36393" lon="-65.62179166666667">
        <ele>740.9</ele>
        <time>2018-08-18T13:57:43Z</time>
      </trkpt>
      <trkpt lat="-28.363855" lon="-65.62183">
        <ele>741.0</ele>
        <time>2018-08-18T13:57:46Z</time>
      </trkpt>
      <trkpt lat="-28.36377" lon="-65.621855">
        <ele>741.1</ele>
        <time>2018-08-18T13:57:49Z</time>
      </trkpt>
      <trkpt lat="-28.36369" lon="-65.621875">
        <ele>741.2</ele>
        <time>2018-08-18T13:57:52Z</time>
      </trkpt>
      <trkpt lat="-28.363615" lon="-65.62188666666667">
        <ele>741.3</ele>
        <time>2018-08-18T13:57:54Z</time>
      </trkpt>
      <trkpt lat="-28.363545" lon="-65.621915">
        <ele>741.3</ele>
        <time>2018-08-18T13:57:56Z</time>
      </trkpt>
      <trkpt lat="-28.363465" lon="-65.62193166666667">
        <ele>741.3</ele>
        <time>2018-08-18T13:57:58Z</time>
      </trkpt>
      <trkpt lat="-28.36337" lon="-65.62197">
        <ele>741.4</ele>
        <time>2018-08-18T13:58:01Z</time>
      </trkpt>
      <trkpt lat="-28.363286666666667" lon="-65.621995">
        <ele>741.4</ele>
        <time>2018-08-18T13:58:04Z</time>
      </trkpt>
      <trkpt lat="-28.363225" lon="-65.62201833333333">
        <ele>741.4</ele>
        <time>2018-08-18T13:58:06Z</time>
      </trkpt>
      <trkpt lat="-28.363145" lon="-65.62205">
        <ele>741.4</ele>
        <time>2018-08-18T13:58:08Z</time>
      </trkpt>
      <trkpt lat="-28.363075" lon="-65.622065">
        <ele>741.3</ele>
        <time>2018-08-18T13:58:10Z</time>
      </trkpt>
      <trkpt lat="-28.363" lon="-65.62209">
        <ele>741.3</ele>
        <time>2018-08-18T13:58:12Z</time>
      </trkpt>
      <trkpt lat="-28.36292" lon="-65.62211166666667">
        <ele>741.3</ele>
        <time>2018-08-18T13:58:14Z</time>
      </trkpt>
      <trkpt lat="-28.362855" lon="-65.62214">
        <ele>741.6</ele>
        <time>2018-08-18T13:58:16Z</time>
      </trkpt>
      <trkpt lat="-28.362775" lon="-65.62216166666667">
        <ele>742.3</ele>
        <time>2018-08-18T13:58:18Z</time>
      </trkpt>
      <trkpt lat="-28.362695" lon="-65.62220333333333">
        <ele>742.0</ele>
        <time>2018-08-18T13:58:20Z</time>
      </trkpt>
      <trkpt lat="-28.362625" lon="-65.62223666666667">
        <ele>741.3</ele>
        <time>2018-08-18T13:58:22Z</time>
      </trkpt>
      <trkpt lat="-28.362555" lon="-65.62228">
        <ele>740.7</ele>
        <time>2018-08-18T13:58:24Z</time>
      </trkpt>
      <trkpt lat="-28.362465" lon="-65.622325">
        <ele>740.4</ele>
        <time>2018-08-18T13:58:27Z</time>
      </trkpt>
      <trkpt lat="-28.362375" lon="-65.622375">
        <ele>740.2</ele>
        <time>2018-08-18T13:58:30Z</time>
      </trkpt>
      <trkpt lat="-28.3623" lon="-65.62242">
        <ele>740.3</ele>
        <time>2018-08-18T13:58:32Z</time>
      </trkpt>
      <trkpt lat="-28.362215" lon="-65.622455">
        <ele>740.4</ele>
        <time>2018-08-18T13:58:35Z</time>
      </trkpt>
      <trkpt lat="-28.362125" lon="-65.622485">
        <ele>740.4</ele>
        <time>2018-08-18T13:58:38Z</time>
      </trkpt>
      <trkpt lat="-28.36203" lon="-65.62253">
        <ele>740.5</ele>
        <time>2018-08-18T13:58:41Z</time>
      </trkpt>
      <trkpt lat="-28.361945" lon="-65.62258">
        <ele>740.6</ele>
        <time>2018-08-18T13:58:46Z</time>
      </trkpt>
      <trkpt lat="-28.36187" lon="-65.62261">
        <ele>740.7</ele>
        <time>2018-08-18T13:58:49Z</time>
      </trkpt>
      <trkpt lat="-28.36178" lon="-65.62264666666667">
        <ele>740.9</ele>
        <time>2018-08-18T13:58:52Z</time>
      </trkpt>
      <trkpt lat="-28.361695" lon="-65.622685">
        <ele>741.0</ele>
        <time>2018-08-18T13:58:55Z</time>
      </trkpt>
      <trkpt lat="-28.361605" lon="-65.622725">
        <ele>741.0</ele>
        <time>2018-08-18T13:58:58Z</time>
      </trkpt>
      <trkpt lat="-28.361505" lon="-65.622765">
        <ele>741.1</ele>
        <time>2018-08-18T13:59:01Z</time>
      </trkpt>
      <trkpt lat="-28.361415" lon="-65.622795">
        <ele>741.6</ele>
        <time>2018-08-18T13:59:04Z</time>
      </trkpt>
      <trkpt lat="-28.36134" lon="-65.622815">
        <ele>741.6</ele>
        <time>2018-08-18T13:59:06Z</time>
      </trkpt>
      <trkpt lat="-28.36126" lon="-65.62284">
        <ele>741.6</ele>
        <time>2018-08-18T13:59:08Z</time>
      </trkpt>
      <trkpt lat="-28.36115" lon="-65.62286">
        <ele>741.7</ele>
        <time>2018-08-18T13:59:11Z</time>
      </trkpt>
      <trkpt lat="-28.361045" lon="-65.6229">
        <ele>741.5</ele>
        <time>2018-08-18T13:59:14Z</time>
      </trkpt>
      <trkpt lat="-28.360965" lon="-65.62291">
        <ele>740.9</ele>
        <time>2018-08-18T13:59:16Z</time>
      </trkpt>
      <trkpt lat="-28.360855" lon="-65.622945">
        <ele>740.8</ele>
        <time>2018-08-18T13:59:19Z</time>
      </trkpt>
      <trkpt lat="-28.36076" lon="-65.62296333333333">
        <ele>740.8</ele>
        <time>2018-08-18T13:59:22Z</time>
      </trkpt>
      <trkpt lat="-28.360665" lon="-65.62299">
        <ele>741.0</ele>
        <time>2018-08-18T13:59:25Z</time>
      </trkpt>
      <trkpt lat="-28.36059" lon="-65.62303">
        <ele>741.1</ele>
        <time>2018-08-18T13:59:28Z</time>
      </trkpt>
      <trkpt lat="-28.360495" lon="-65.623065">
        <ele>741.2</ele>
        <time>2018-08-18T13:59:31Z</time>
      </trkpt>
      <trkpt lat="-28.360415" lon="-65.623095">
        <ele>741.3</ele>
        <time>2018-08-18T13:59:34Z</time>
      </trkpt>
      <trkpt lat="-28.36035" lon="-65.623135">
        <ele>741.4</ele>
        <time>2018-08-18T13:59:37Z</time>
      </trkpt>
      <trkpt lat="-28.36028" lon="-65.62316">
        <ele>741.5</ele>
        <time>2018-08-18T13:59:40Z</time>
      </trkpt>
      <trkpt lat="-28.36021" lon="-65.6232">
        <ele>741.6</ele>
        <time>2018-08-18T13:59:43Z</time>
      </trkpt>
      <trkpt lat="-28.36014" lon="-65.623245">
        <ele>741.7</ele>
        <time>2018-08-18T13:59:46Z</time>
      </trkpt>
      <trkpt lat="-28.36007" lon="-65.623275">
        <ele>741.8</ele>
        <time>2018-08-18T13:59:50Z</time>
      </trkpt>
      <trkpt lat="-28.35999" lon="-65.62332">
        <ele>741.9</ele>
        <time>2018-08-18T13:59:53Z</time>
      </trkpt>
      <trkpt lat="-28.359915" lon="-65.62336">
        <ele>742.0</ele>
        <time>2018-08-18T13:59:57Z</time>
      </trkpt>
      <trkpt lat="-28.35984" lon="-65.623385">
        <ele>741.9</ele>
        <time>2018-08-18T14:00:00Z</time>
      </trkpt>
      <trkpt lat="-28.35976" lon="-65.623425">
        <ele>741.9</ele>
        <time>2018-08-18T14:00:04Z</time>
      </trkpt>
      <trkpt lat="-28.35968" lon="-65.62345833333333">
        <ele>741.7</ele>
        <time>2018-08-18T14:00:09Z</time>
      </trkpt>
      <trkpt lat="-28.359605" lon="-65.6235">
        <ele>741.7</ele>
        <time>2018-08-18T14:00:16Z</time>
      </trkpt>
      <trkpt lat="-28.359595" lon="-65.623515">
        <ele>741.6</ele>
        <time>2018-08-18T14:00:22Z</time>
      </trkpt>
      <trkpt lat="-28.35963" lon="-65.623525">
        <ele>741.4</ele>
        <time>2018-08-18T14:00:40Z</time>
      </trkpt>
      <trkpt lat="-28.35962" lon="-65.623525">
        <ele>741.6</ele>
        <time>2018-08-18T14:00:43Z</time>
      </trkpt>
      <trkpt lat="-28.35962" lon="-65.623535">
        <ele>741.8</ele>
        <time>2018-08-18T14:00:52Z</time>
      </trkpt>
      <trkpt lat="-28.35962" lon="-65.623535">
        <ele>741.9</ele>
        <time>2018-08-18T14:00:53Z</time>
      </trkpt>
      <trkpt lat="-28.35956" lon="-65.623515">
        <ele>741.9</ele>
        <time>2018-08-18T14:01:02Z</time>
      </trkpt>
      <trkpt lat="-28.35957" lon="-65.6235">
        <ele>742.1</ele>
        <time>2018-08-18T14:01:09Z</time>
      </trkpt>
      <trkpt lat="-28.359595" lon="-65.6235">
        <ele>742.1</ele>
        <time>2018-08-18T14:01:18Z</time>
      </trkpt>
      <trkpt lat="-28.359595" lon="-65.6235">
        <ele>742.1</ele>
        <time>2018-08-18T14:01:19Z</time>
      </trkpt>
      <trkpt lat="-28.359595" lon="-65.623525">
        <ele>741.9</ele>
        <time>2018-08-18T14:01:29Z</time>
      </trkpt>
      <trkpt lat="-28.359595" lon="-65.623525">
        <ele>741.8</ele>
        <time>2018-08-18T14:01:30Z</time>
      </trkpt>
      <trkpt lat="-28.359525" lon="-65.623565">
        <ele>741.7</ele>
        <time>2018-08-18T14:01:36Z</time>
      </trkpt>
      <trkpt lat="-28.35944" lon="-65.62359166666667">
        <ele>741.6</ele>
        <time>2018-08-18T14:01:39Z</time>
      </trkpt>
      <trkpt lat="-28.359346666666667" lon="-65.623625">
        <ele>741.5</ele>
        <time>2018-08-18T14:01:42Z</time>
      </trkpt>
      <trkpt lat="-28.35927" lon="-65.62366">
        <ele>741.4</ele>
        <time>2018-08-18T14:01:45Z</time>
      </trkpt>
      <trkpt lat="-28.35918" lon="-65.623695">
        <ele>741.4</ele>
        <time>2018-08-18T14:01:48Z</time>
      </trkpt>
      <trkpt lat="-28.359085" lon="-65.623735">
        <ele>741.4</ele>
        <time>2018-08-18T14:01:51Z</time>
      </trkpt>
      <trkpt lat="-28.359005" lon="-65.62378">
        <ele>741.4</ele>
        <time>2018-08-18T14:01:54Z</time>
      </trkpt>
      <trkpt lat="-28.358915" lon="-65.62381">
        <ele>741.3</ele>
        <time>2018-08-18T14:01:57Z</time>
      </trkpt>
      <trkpt lat="-28.358825" lon="-65.623855">
        <ele>741.4</ele>
        <time>2018-08-18T14:02:00Z</time>
      </trkpt>
      <trkpt lat="-28.358735" lon="-65.62389">
        <ele>741.4</ele>
        <time>2018-08-18T14:02:03Z</time>
      </trkpt>
      <trkpt lat="-28.35866" lon="-65.62392">
        <ele>741.6</ele>
        <time>2018-08-18T14:02:06Z</time>
      </trkpt>
      <trkpt lat="-28.358575" lon="-65.62394">
        <ele>741.9</ele>
        <time>2018-08-18T14:02:09Z</time>
      </trkpt>
      <trkpt lat="-28.358495" lon="-65.623975">
        <ele>741.9</ele>
        <time>2018-08-18T14:02:12Z</time>
      </trkpt>
      <trkpt lat="-28.35841" lon="-65.624015">
        <ele>742.0</ele>
        <time>2018-08-18T14:02:15Z</time>
      </trkpt>
      <trkpt lat="-28.35834" lon="-65.62405">
        <ele>742.1</ele>
        <time>2018-08-18T14:02:18Z</time>
      </trkpt>
      <trkpt lat="-28.358265" lon="-65.6241">
        <ele>742.4</ele>
        <time>2018-08-18T14:02:22Z</time>
      </trkpt>
      <trkpt lat="-28.3582" lon="-65.624145">
        <ele>742.7</ele>
        <time>2018-08-18T14:02:26Z</time>
      </trkpt>
      <trkpt lat="-28.35812" lon="-65.624205">
        <ele>743.1</ele>
        <time>2018-08-18T14:02:30Z</time>
      </trkpt>
      <trkpt lat="-28.358065" lon="-65.62426">
        <ele>743.4</ele>
        <time>2018-08-18T14:02:33Z</time>
      </trkpt>
      <trkpt lat="-28.357985" lon="-65.624325">
        <ele>743.7</ele>
        <time>2018-08-18T14:02:36Z</time>
      </trkpt>
      <trkpt lat="-28.35792" lon="-65.624385">
        <ele>743.9</ele>
        <time>2018-08-18T14:02:39Z</time>
      </trkpt>
      <trkpt lat="-28.35784" lon="-65.62443666666667">
        <ele>744.1</ele>
        <time>2018-08-18T14:02:42Z</time>
      </trkpt>
      <trkpt lat="-28.357775" lon="-65.62448499999999">
        <ele>744.3</ele>
        <time>2018-08-18T14:02:45Z</time>
      </trkpt>
      <trkpt lat="-28.357695" lon="-65.62453333333333">
        <ele>744.3</ele>
        <time>2018-08-18T14:02:48Z</time>
      </trkpt>
      <trkpt lat="-28.357615" lon="-65.62457833333333">
        <ele>744.4</ele>
        <time>2018-08-18T14:02:51Z</time>
      </trkpt>
      <trkpt lat="-28.35754" lon="-65.624615">
        <ele>744.6</ele>
        <time>2018-08-18T14:02:54Z</time>
      </trkpt>
      <trkpt lat="-28.357455" lon="-65.624645">
        <ele>744.8</ele>
        <time>2018-08-18T14:02:57Z</time>
      </trkpt>
      <trkpt lat="-28.357355" lon="-65.62468">
        <ele>745.0</ele>
        <time>2018-08-18T14:03:00Z</time>
      </trkpt>
      <trkpt lat="-28.35727" lon="-65.6247">
        <ele>745.1</ele>
        <time>2018-08-18T14:03:03Z</time>
      </trkpt>
      <trkpt lat="-28.357185" lon="-65.624735">
        <ele>745.2</ele>
        <time>2018-08-18T14:03:06Z</time>
      </trkpt>
      <trkpt lat="-28.357115" lon="-65.624765">
        <ele>745.3</ele>
        <time>2018-08-18T14:03:09Z</time>
      </trkpt>
      <trkpt lat="-28.35703" lon="-65.624795">
        <ele>745.3</ele>
        <time>2018-08-18T14:03:12Z</time>
      </trkpt>
      <trkpt lat="-28.356955" lon="-65.62481">
        <ele>745.4</ele>
        <time>2018-08-18T14:03:15Z</time>
      </trkpt>
      <trkpt lat="-28.356865" lon="-65.62484">
        <ele>745.5</ele>
        <time>2018-08-18T14:03:18Z</time>
      </trkpt>
      <trkpt lat="-28.356794999999998" lon="-65.62484166666667">
        <ele>745.6</ele>
        <time>2018-08-18T14:03:21Z</time>
      </trkpt>
      <trkpt lat="-28.3567" lon="-65.62484166666667">
        <ele>745.8</ele>
        <time>2018-08-18T14:03:25Z</time>
      </trkpt>
      <trkpt lat="-28.3566" lon="-65.624865">
        <ele>746.0</ele>
        <time>2018-08-18T14:03:28Z</time>
      </trkpt>
      <trkpt lat="-28.356485" lon="-65.624875">
        <ele>746.7</ele>
        <time>2018-08-18T14:03:31Z</time>
      </trkpt>
      <trkpt lat="-28.356405" lon="-65.62488">
        <ele>747.5</ele>
        <time>2018-08-18T14:03:33Z</time>
      </trkpt>
      <trkpt lat="-28.356315" lon="-65.62488">
        <ele>747.7</ele>
        <time>2018-08-18T14:03:35Z</time>
      </trkpt>
      <trkpt lat="-28.356215" lon="-65.624875">
        <ele>747.9</ele>
        <time>2018-08-18T14:03:38Z</time>
      </trkpt>
      <trkpt lat="-28.35613" lon="-65.624865">
        <ele>747.9</ele>
        <time>2018-08-18T14:03:40Z</time>
      </trkpt>
      <trkpt lat="-28.35606" lon="-65.62484166666667">
        <ele>748.0</ele>
        <time>2018-08-18T14:03:42Z</time>
      </trkpt>
      <trkpt lat="-28.35599" lon="-65.62484">
        <ele>748.2</ele>
        <time>2018-08-18T14:03:44Z</time>
      </trkpt>
      <trkpt lat="-28.35592" lon="-65.62482">
        <ele>748.6</ele>
        <time>2018-08-18T14:03:46Z</time>
      </trkpt>
      <trkpt lat="-28.355835" lon="-65.624795">
        <ele>748.6</ele>
        <time>2018-08-18T14:03:48Z</time>
      </trkpt>
      <trkpt lat="-28.355765" lon="-65.624765">
        <ele>748.6</ele>
        <time>2018-08-18T14:03:50Z</time>
      </trkpt>
      <trkpt lat="-28.3557" lon="-65.62473">
        <ele>748.7</ele>
        <time>2018-08-18T14:03:52Z</time>
      </trkpt>
      <trkpt lat="-28.355595" lon="-65.62469">
        <ele>748.8</ele>
        <time>2018-08-18T14:03:55Z</time>
      </trkpt>
      <trkpt lat="-28.355525" lon="-65.624655">
        <ele>748.9</ele>
        <time>2018-08-18T14:03:57Z</time>
      </trkpt>
      <trkpt lat="-28.355465" lon="-65.624615">
        <ele>748.9</ele>
        <time>2018-08-18T14:03:59Z</time>
      </trkpt>
      <trkpt lat="-28.35537" lon="-65.624565">
        <ele>749.0</ele>
        <time>2018-08-18T14:04:02Z</time>
      </trkpt>
      <trkpt lat="-28.355285" lon="-65.62452">
        <ele>749.1</ele>
        <time>2018-08-18T14:04:05Z</time>
      </trkpt>
      <trkpt lat="-28.355195" lon="-65.62447">
        <ele>749.3</ele>
        <time>2018-08-18T14:04:09Z</time>
      </trkpt>
      <trkpt lat="-28.3551" lon="-65.62442">
        <ele>749.3</ele>
        <time>2018-08-18T14:04:11Z</time>
      </trkpt>
      <trkpt lat="-28.35501" lon="-65.62437">
        <ele>749.4</ele>
        <time>2018-08-18T14:04:14Z</time>
      </trkpt>
      <trkpt lat="-28.35492" lon="-65.624325">
        <ele>749.4</ele>
        <time>2018-08-18T14:04:17Z</time>
      </trkpt>
      <trkpt lat="-28.354835" lon="-65.624285">
        <ele>749.6</ele>
        <time>2018-08-18T14:04:20Z</time>
      </trkpt>
      <trkpt lat="-28.354755" lon="-65.62425">
        <ele>749.7</ele>
        <time>2018-08-18T14:04:23Z</time>
      </trkpt>
      <trkpt lat="-28.35467" lon="-65.624205">
        <ele>749.8</ele>
        <time>2018-08-18T14:04:26Z</time>
      </trkpt>
      <trkpt lat="-28.354585" lon="-65.62416666666667">
        <ele>749.8</ele>
        <time>2018-08-18T14:04:29Z</time>
      </trkpt>
      <trkpt lat="-28.354515" lon="-65.624145">
        <ele>749.8</ele>
        <time>2018-08-18T14:04:32Z</time>
      </trkpt>
      <trkpt lat="-28.35442" lon="-65.6241">
        <ele>749.9</ele>
        <time>2018-08-18T14:04:35Z</time>
      </trkpt>
      <trkpt lat="-28.35434" lon="-65.62405">
        <ele>750.0</ele>
        <time>2018-08-18T14:04:38Z</time>
      </trkpt>
      <trkpt lat="-28.35425" lon="-65.62399166666667">
        <ele>750.2</ele>
        <time>2018-08-18T14:04:42Z</time>
      </trkpt>
      <trkpt lat="-28.354155" lon="-65.62394833333333">
        <ele>750.3</ele>
        <time>2018-08-18T14:04:45Z</time>
      </trkpt>
      <trkpt lat="-28.354075" lon="-65.62390666666667">
        <ele>750.3</ele>
        <time>2018-08-18T14:04:48Z</time>
      </trkpt>
      <trkpt lat="-28.353995" lon="-65.62386166666667">
        <ele>750.5</ele>
        <time>2018-08-18T14:04:51Z</time>
      </trkpt>
      <trkpt lat="-28.35392" lon="-65.623825">
        <ele>750.6</ele>
        <time>2018-08-18T14:04:54Z</time>
      </trkpt>
      <trkpt lat="-28.353845" lon="-65.62378">
        <ele>750.7</ele>
        <time>2018-08-18T14:04:57Z</time>
      </trkpt>
      <trkpt lat="-28.35378" lon="-65.62375">
        <ele>750.8</ele>
        <time>2018-08-18T14:05:00Z</time>
      </trkpt>
      <trkpt lat="-28.35369" lon="-65.623715">
        <ele>750.9</ele>
        <time>2018-08-18T14:05:04Z</time>
      </trkpt>
      <trkpt lat="-28.353615" lon="-65.62367666666667">
        <ele>751.0</ele>
        <time>2018-08-18T14:05:07Z</time>
      </trkpt>
      <trkpt lat="-28.353545" lon="-65.62365">
        <ele>751.0</ele>
        <time>2018-08-18T14:05:10Z</time>
      </trkpt>
      <trkpt lat="-28.353465" lon="-65.62361">
        <ele>751.1</ele>
        <time>2018-08-18T14:05:13Z</time>
      </trkpt>
      <trkpt lat="-28.353375" lon="-65.623585">
        <ele>751.3</ele>
        <time>2018-08-18T14:05:16Z</time>
      </trkpt>
      <trkpt lat="-28.353295" lon="-65.62358">
        <ele>751.3</ele>
        <time>2018-08-18T14:05:18Z</time>
      </trkpt>
      <trkpt lat="-28.3532" lon="-65.623565">
        <ele>751.4</ele>
        <time>2018-08-18T14:05:21Z</time>
      </trkpt>
      <trkpt lat="-28.35309" lon="-65.623565">
        <ele>751.5</ele>
        <time>2018-08-18T14:05:24Z</time>
      </trkpt>
      <trkpt lat="-28.353015" lon="-65.623565">
        <ele>751.6</ele>
        <time>2018-08-18T14:05:26Z</time>
      </trkpt>
      <trkpt lat="-28.352945" lon="-65.623565">
        <ele>751.6</ele>
        <time>2018-08-18T14:05:29Z</time>
      </trkpt>
      <trkpt lat="-28.352845" lon="-65.623565">
        <ele>751.6</ele>
        <time>2018-08-18T14:05:31Z</time>
      </trkpt>
      <trkpt lat="-28.35276" lon="-65.623565">
        <ele>751.6</ele>
        <time>2018-08-18T14:05:33Z</time>
      </trkpt>
      <trkpt lat="-28.35269" lon="-65.623565">
        <ele>751.6</ele>
        <time>2018-08-18T14:05:35Z</time>
      </trkpt>
      <trkpt lat="-28.35262" lon="-65.623565">
        <ele>751.6</ele>
        <time>2018-08-18T14:05:37Z</time>
      </trkpt>
      <trkpt lat="-28.352545" lon="-65.623565">
        <ele>751.7</ele>
        <time>2018-08-18T14:05:40Z</time>
      </trkpt>
      <trkpt lat="-28.35247" lon="-65.623565">
        <ele>751.7</ele>
        <time>2018-08-18T14:05:41Z</time>
      </trkpt>
      <trkpt lat="-28.352365" lon="-65.623565">
        <ele>751.7</ele>
        <time>2018-08-18T14:05:44Z</time>
      </trkpt>
      <trkpt lat="-28.35229" lon="-65.623565">
        <ele>751.8</ele>
        <time>2018-08-18T14:05:46Z</time>
      </trkpt>
      <trkpt lat="-28.352215" lon="-65.62355166666667">
        <ele>751.8</ele>
        <time>2018-08-18T14:05:48Z</time>
      </trkpt>
      <trkpt lat="-28.35214" lon="-65.62354666666667">
        <ele>751.8</ele>
        <time>2018-08-18T14:05:50Z</time>
      </trkpt>
      <trkpt lat="-28.35203" lon="-65.62354500000001">
        <ele>751.9</ele>
        <time>2018-08-18T14:05:53Z</time>
      </trkpt>
      <trkpt lat="-28.351955" lon="-65.62354500000001">
        <ele>752.2</ele>
        <time>2018-08-18T14:05:55Z</time>
      </trkpt>
      <trkpt lat="-28.351885" lon="-65.62354500000001">
        <ele>753.1</ele>
        <time>2018-08-18T14:05:57Z</time>
      </trkpt>
      <trkpt lat="-28.35181" lon="-65.62354500000001">
        <ele>753.0</ele>
        <time>2018-08-18T14:05:59Z</time>
      </trkpt>
      <trkpt lat="-28.35173" lon="-65.62354500000001">
        <ele>752.6</ele>
        <time>2018-08-18T14:06:01Z</time>
      </trkpt>
      <trkpt lat="-28.351655" lon="-65.62354500000001">
        <ele>752.5</ele>
        <time>2018-08-18T14:06:03Z</time>
      </trkpt>
      <trkpt lat="-28.35158" lon="-65.62354500000001">
        <ele>752.5</ele>
        <time>2018-08-18T14:06:05Z</time>
      </trkpt>
      <trkpt lat="-28.351505" lon="-65.62354500000001">
        <ele>752.5</ele>
        <time>2018-08-18T14:06:07Z</time>
      </trkpt>
      <trkpt lat="-28.351425" lon="-65.62354500000001">
        <ele>752.8</ele>
        <time>2018-08-18T14:06:09Z</time>
      </trkpt>
      <trkpt lat="-28.351355" lon="-65.623535">
        <ele>753.2</ele>
        <time>2018-08-18T14:06:11Z</time>
      </trkpt>
      <trkpt lat="-28.35127" lon="-65.623525">
        <ele>753.1</ele>
        <time>2018-08-18T14:06:13Z</time>
      </trkpt>
      <trkpt lat="-28.351195" lon="-65.623525">
        <ele>753.1</ele>
        <time>2018-08-18T14:06:15Z</time>
      </trkpt>
      <trkpt lat="-28.351085" lon="-65.623525">
        <ele>753.2</ele>
        <time>2018-08-18T14:06:18Z</time>
      </trkpt>
      <trkpt lat="-28.351015" lon="-65.623525">
        <ele>753.3</ele>
        <time>2018-08-18T14:06:20Z</time>
      </trkpt>
      <trkpt lat="-28.35091" lon="-65.62352">
        <ele>753.5</ele>
        <time>2018-08-18T14:06:23Z</time>
      </trkpt>
      <trkpt lat="-28.3508" lon="-65.623515">
        <ele>753.7</ele>
        <time>2018-08-18T14:06:26Z</time>
      </trkpt>
      <trkpt lat="-28.35072" lon="-65.623525">
        <ele>753.8</ele>
        <time>2018-08-18T14:06:29Z</time>
      </trkpt>
      <trkpt lat="-28.350635" lon="-65.623535">
        <ele>753.9</ele>
        <time>2018-08-18T14:06:32Z</time>
      </trkpt>
      <trkpt lat="-28.35053" lon="-65.623535">
        <ele>753.9</ele>
        <time>2018-08-18T14:06:35Z</time>
      </trkpt>
      <trkpt lat="-28.350445" lon="-65.623535">
        <ele>754.0</ele>
        <time>2018-08-18T14:06:38Z</time>
      </trkpt>
      <trkpt lat="-28.350365" lon="-65.62354500000001">
        <ele>754.0</ele>
        <time>2018-08-18T14:06:41Z</time>
      </trkpt>
      <trkpt lat="-28.35029" lon="-65.62354500000001">
        <ele>754.1</ele>
        <time>2018-08-18T14:06:43Z</time>
      </trkpt>
      <trkpt lat="-28.35021" lon="-65.62354666666667">
        <ele>754.3</ele>
        <time>2018-08-18T14:06:45Z</time>
      </trkpt>
      <trkpt lat="-28.35013" lon="-65.62354833333333">
        <ele>754.0</ele>
        <time>2018-08-18T14:06:47Z</time>
      </trkpt>
      <trkpt lat="-28.350045" lon="-65.623565">
        <ele>753.6</ele>
        <time>2018-08-18T14:06:49Z</time>
      </trkpt>
      <trkpt lat="-28.34995" lon="-65.62354833333333">
        <ele>752.6</ele>
        <time>2018-08-18T14:06:51Z</time>
      </trkpt>
      <trkpt lat="-28.349855" lon="-65.62354833333333">
        <ele>752.1</ele>
        <time>2018-08-18T14:06:53Z</time>
      </trkpt>
      <trkpt lat="-28.34976" lon="-65.62354833333333">
        <ele>752.1</ele>
        <time>2018-08-18T14:06:55Z</time>
      </trkpt>
      <trkpt lat="-28.34967" lon="-65.62354833333333">
        <ele>751.8</ele>
        <time>2018-08-18T14:06:57Z</time>
      </trkpt>
      <trkpt lat="-28.34958" lon="-65.62354666666667">
        <ele>751.5</ele>
        <time>2018-08-18T14:06:59Z</time>
      </trkpt>
      <trkpt lat="-28.349495" lon="-65.62354500000001">
        <ele>751.2</ele>
        <time>2018-08-18T14:07:01Z</time>
      </trkpt>
      <trkpt lat="-28.34938" lon="-65.62355166666667">
        <ele>751.5</ele>
        <time>2018-08-18T14:07:04Z</time>
      </trkpt>
      <trkpt lat="-28.34929" lon="-65.62357">
        <ele>751.7</ele>
        <time>2018-08-18T14:07:06Z</time>
      </trkpt>
      <trkpt lat="-28.34921" lon="-65.62358">
        <ele>752.3</ele>
        <time>2018-08-18T14:07:08Z</time>
      </trkpt>
      <trkpt lat="-28.349116666666667" lon="-65.62358">
        <ele>752.5</ele>
        <time>2018-08-18T14:07:10Z</time>
      </trkpt>
      <trkpt lat="-28.349045" lon="-65.623585">
        <ele>752.0</ele>
        <time>2018-08-18T14:07:12Z</time>
      </trkpt>
      <trkpt lat="-28.348965" lon="-65.623585">
        <ele>752.1</ele>
        <time>2018-08-18T14:07:14Z</time>
      </trkpt>
      <trkpt lat="-28.34888" lon="-65.623585">
        <ele>752.5</ele>
        <time>2018-08-18T14:07:16Z</time>
      </trkpt>
      <trkpt lat="-28.3488" lon="-65.623585">
        <ele>752.9</ele>
        <time>2018-08-18T14:07:18Z</time>
      </trkpt>
      <trkpt lat="-28.3487" lon="-65.623585">
        <ele>752.7</ele>
        <time>2018-08-18T14:07:20Z</time>
      </trkpt>
      <trkpt lat="-28.348595" lon="-65.623585">
        <ele>752.1</ele>
        <time>2018-08-18T14:07:23Z</time>
      </trkpt>
      <trkpt lat="-28.34851" lon="-65.623585">
        <ele>752.2</ele>
        <time>2018-08-18T14:07:25Z</time>
      </trkpt>
      <trkpt lat="-28.348425" lon="-65.623585">
        <ele>752.7</ele>
        <time>2018-08-18T14:07:27Z</time>
      </trkpt>
      <trkpt lat="-28.34834" lon="-65.623585">
        <ele>753.2</ele>
        <time>2018-08-18T14:07:29Z</time>
      </trkpt>
      <trkpt lat="-28.34824" lon="-65.623585">
        <ele>753.4</ele>
        <time>2018-08-18T14:07:32Z</time>
      </trkpt>
      <trkpt lat="-28.348165" lon="-65.623585">
        <ele>754.4</ele>
        <time>2018-08-18T14:07:34Z</time>
      </trkpt>
      <trkpt lat="-28.348085" lon="-65.623595">
        <ele>754.7</ele>
        <time>2018-08-18T14:07:36Z</time>
      </trkpt>
      <trkpt lat="-28.34801" lon="-65.62361">
        <ele>754.7</ele>
        <time>2018-08-18T14:07:38Z</time>
      </trkpt>
      <trkpt lat="-28.34793" lon="-65.62359833333333">
        <ele>754.8</ele>
        <time>2018-08-18T14:07:40Z</time>
      </trkpt>
      <trkpt lat="-28.34785" lon="-65.62361">
        <ele>754.7</ele>
        <time>2018-08-18T14:07:42Z</time>
      </trkpt>
      <trkpt lat="-28.347775" lon="-65.62361">
        <ele>754.6</ele>
        <time>2018-08-18T14:07:44Z</time>
      </trkpt>
      <trkpt lat="-28.347675" lon="-65.62363">
        <ele>754.6</ele>
        <time>2018-08-18T14:07:47Z</time>
      </trkpt>
      <trkpt lat="-28.347595" lon="-65.62363">
        <ele>754.5</ele>
        <time>2018-08-18T14:07:49Z</time>
      </trkpt>
      <trkpt lat="-28.34752" lon="-65.62363">
        <ele>754.4</ele>
        <time>2018-08-18T14:07:51Z</time>
      </trkpt>
      <trkpt lat="-28.34744" lon="-65.623625">
        <ele>754.4</ele>
        <time>2018-08-18T14:07:53Z</time>
      </trkpt>
      <trkpt lat="-28.347355" lon="-65.62361">
        <ele>754.3</ele>
        <time>2018-08-18T14:07:55Z</time>
      </trkpt>
      <trkpt lat="-28.34725" lon="-65.623585">
        <ele>754.5</ele>
        <time>2018-08-18T14:07:58Z</time>
      </trkpt>
      <trkpt lat="-28.347175" lon="-65.62358">
        <ele>754.5</ele>
        <time>2018-08-18T14:08:00Z</time>
      </trkpt>
      <trkpt lat="-28.3471" lon="-65.62354666666667">
        <ele>754.4</ele>
        <time>2018-08-18T14:08:02Z</time>
      </trkpt>
      <trkpt lat="-28.347025" lon="-65.623525">
        <ele>754.4</ele>
        <time>2018-08-18T14:08:04Z</time>
      </trkpt>
      <trkpt lat="-28.346945" lon="-65.6235">
        <ele>754.5</ele>
        <time>2018-08-18T14:08:07Z</time>
      </trkpt>
      <trkpt lat="-28.34686" lon="-65.62345166666667">
        <ele>754.5</ele>
        <time>2018-08-18T14:08:11Z</time>
      </trkpt>
      <trkpt lat="-28.34678" lon="-65.623405">
        <ele>754.6</ele>
        <time>2018-08-18T14:08:13Z</time>
      </trkpt>
      <trkpt lat="-28.346695" lon="-65.62336666666667">
        <ele>754.6</ele>
        <time>2018-08-18T14:08:15Z</time>
      </trkpt>
      <trkpt lat="-28.346625" lon="-65.62334">
        <ele>754.6</ele>
        <time>2018-08-18T14:08:18Z</time>
      </trkpt>
      <trkpt lat="-28.34654" lon="-65.6233">
        <ele>754.5</ele>
        <time>2018-08-18T14:08:21Z</time>
      </trkpt>
      <trkpt lat="-28.34645" lon="-65.62326">
        <ele>754.5</ele>
        <time>2018-08-18T14:08:24Z</time>
      </trkpt>
      <trkpt lat="-28.34635" lon="-65.623215">
        <ele>754.4</ele>
        <time>2018-08-18T14:08:28Z</time>
      </trkpt>
      <trkpt lat="-28.34626" lon="-65.623175">
        <ele>754.4</ele>
        <time>2018-08-18T14:08:30Z</time>
      </trkpt>
      <trkpt lat="-28.34616" lon="-65.623125">
        <ele>754.2</ele>
        <time>2018-08-18T14:08:33Z</time>
      </trkpt>
      <trkpt lat="-28.34607" lon="-65.623075">
        <ele>754.3</ele>
        <time>2018-08-18T14:08:36Z</time>
      </trkpt>
      <trkpt lat="-28.346" lon="-65.62305">
        <ele>754.4</ele>
        <time>2018-08-18T14:08:38Z</time>
      </trkpt>
      <trkpt lat="-28.3459" lon="-65.62299333333333">
        <ele>754.5</ele>
        <time>2018-08-18T14:08:41Z</time>
      </trkpt>
      <trkpt lat="-28.34582" lon="-65.62296166666667">
        <ele>754.4</ele>
        <time>2018-08-18T14:08:44Z</time>
      </trkpt>
      <trkpt lat="-28.345725" lon="-65.62292166666667">
        <ele>754.4</ele>
        <time>2018-08-18T14:08:47Z</time>
      </trkpt>
      <trkpt lat="-28.34564" lon="-65.6229">
        <ele>754.3</ele>
        <time>2018-08-18T14:08:49Z</time>
      </trkpt>
      <trkpt lat="-28.34554" lon="-65.62284">
        <ele>754.3</ele>
        <time>2018-08-18T14:08:52Z</time>
      </trkpt>
      <trkpt lat="-28.345465" lon="-65.622805">
        <ele>754.3</ele>
        <time>2018-08-18T14:08:54Z</time>
      </trkpt>
      <trkpt lat="-28.34538" lon="-65.622765">
        <ele>754.3</ele>
        <time>2018-08-18T14:08:57Z</time>
      </trkpt>
      <trkpt lat="-28.345285" lon="-65.62272">
        <ele>754.3</ele>
        <time>2018-08-18T14:09:00Z</time>
      </trkpt>
      <trkpt lat="-28.3452" lon="-65.62267">
        <ele>754.4</ele>
        <time>2018-08-18T14:09:03Z</time>
      </trkpt>
      <trkpt lat="-28.345105" lon="-65.62261">
        <ele>754.4</ele>
        <time>2018-08-18T14:09:06Z</time>
      </trkpt>
      <trkpt lat="-28.345045" lon="-65.62256333333333">
        <ele>754.6</ele>
        <time>2018-08-18T14:09:08Z</time>
      </trkpt>
      <trkpt lat="-28.34496" lon="-65.622515">
        <ele>754.8</ele>
        <time>2018-08-18T14:09:11Z</time>
      </trkpt>
      <trkpt lat="-28.34488" lon="-65.62245">
        <ele>755.0</ele>
        <time>2018-08-18T14:09:14Z</time>
      </trkpt>
      <trkpt lat="-28.344825" lon="-65.62238166666667">
        <ele>755.1</ele>
        <time>2018-08-18T14:09:16Z</time>
      </trkpt>
      <trkpt lat="-28.34477" lon="-65.622325">
        <ele>755.3</ele>
        <time>2018-08-18T14:09:18Z</time>
      </trkpt>
      <trkpt lat="-28.34472" lon="-65.62224166666667">
        <ele>755.6</ele>
        <time>2018-08-18T14:09:21Z</time>
      </trkpt>
      <trkpt lat="-28.34468" lon="-65.622175">
        <ele>756.0</ele>
        <time>2018-08-18T14:09:24Z</time>
      </trkpt>
      <trkpt lat="-28.344635" lon="-65.62206833333333">
        <ele>756.2</ele>
        <time>2018-08-18T14:09:27Z</time>
      </trkpt>
      <trkpt lat="-28.3446" lon="-65.621995">
        <ele>756.5</ele>
        <time>2018-08-18T14:09:30Z</time>
      </trkpt>
      <trkpt lat="-28.344565" lon="-65.62192">
        <ele>756.8</ele>
        <time>2018-08-18T14:09:33Z</time>
      </trkpt>
      <trkpt lat="-28.3445" lon="-65.62183">
        <ele>757.0</ele>
        <time>2018-08-18T14:09:36Z</time>
      </trkpt>
      <trkpt lat="-28.34445" lon="-65.621745">
        <ele>756.8</ele>
        <time>2018-08-18T14:09:39Z</time>
      </trkpt>
      <trkpt lat="-28.344365" lon="-65.621685">
        <ele>756.8</ele>
        <time>2018-08-18T14:09:43Z</time>
      </trkpt>
      <trkpt lat="-28.3443" lon="-65.62164">
        <ele>756.7</ele>
        <time>2018-08-18T14:09:45Z</time>
      </trkpt>
      <trkpt lat="-28.344205" lon="-65.62157833333333">
        <ele>755.0</ele>
        <time>2018-08-18T14:09:49Z</time>
      </trkpt>
      <trkpt lat="-28.344105" lon="-65.62155">
        <ele>754.2</ele>
        <time>2018-08-18T14:09:50Z</time>
      </trkpt>
      <trkpt lat="-28.343995" lon="-65.62152">
        <ele>753.5</ele>
        <time>2018-08-18T14:09:52Z</time>
      </trkpt>
      <trkpt lat="-28.343895" lon="-65.6215">
        <ele>752.9</ele>
        <time>2018-08-18T14:09:54Z</time>
      </trkpt>
      <trkpt lat="-28.343795" lon="-65.62147">
        <ele>752.9</ele>
        <time>2018-08-18T14:09:56Z</time>
      </trkpt>
      <trkpt lat="-28.343695" lon="-65.62143666666667">
        <ele>753.5</ele>
        <time>2018-08-18T14:09:58Z</time>
      </trkpt>
      <trkpt lat="-28.3436" lon="-65.621415">
        <ele>754.0</ele>
        <time>2018-08-18T14:10:00Z</time>
      </trkpt>
      <trkpt lat="-28.343515" lon="-65.62139">
        <ele>753.8</ele>
        <time>2018-08-18T14:10:02Z</time>
      </trkpt>
      <trkpt lat="-28.343435" lon="-65.62135333333333">
        <ele>753.6</ele>
        <time>2018-08-18T14:10:05Z</time>
      </trkpt>
      <trkpt lat="-28.34336" lon="-65.62133">
        <ele>753.3</ele>
        <time>2018-08-18T14:10:06Z</time>
      </trkpt>
      <trkpt lat="-28.34329" lon="-65.621295">
        <ele>753.7</ele>
        <time>2018-08-18T14:10:08Z</time>
      </trkpt>
      <trkpt lat="-28.34319" lon="-65.621245">
        <ele>754.3</ele>
        <time>2018-08-18T14:10:11Z</time>
      </trkpt>
      <trkpt lat="-28.34311" lon="-65.6212">
        <ele>754.6</ele>
        <time>2018-08-18T14:10:13Z</time>
      </trkpt>
      <trkpt lat="-28.34304" lon="-65.621165">
        <ele>754.7</ele>
        <time>2018-08-18T14:10:15Z</time>
      </trkpt>
      <trkpt lat="-28.342945" lon="-65.621125">
        <ele>754.6</ele>
        <time>2018-08-18T14:10:18Z</time>
      </trkpt>
      <trkpt lat="-28.342875" lon="-65.62108">
        <ele>754.6</ele>
        <time>2018-08-18T14:10:21Z</time>
      </trkpt>
      <trkpt lat="-28.342815" lon="-65.62105">
        <ele>754.6</ele>
        <time>2018-08-18T14:10:22Z</time>
      </trkpt>
      <trkpt lat="-28.34272" lon="-65.62098666666667">
        <ele>754.4</ele>
        <time>2018-08-18T14:10:25Z</time>
      </trkpt>
      <trkpt lat="-28.342635" lon="-65.62094">
        <ele>754.0</ele>
        <time>2018-08-18T14:10:28Z</time>
      </trkpt>
      <trkpt lat="-28.342565" lon="-65.62089">
        <ele>754.0</ele>
        <time>2018-08-18T14:10:30Z</time>
      </trkpt>
      <trkpt lat="-28.342495" lon="-65.620845">
        <ele>753.9</ele>
        <time>2018-08-18T14:10:32Z</time>
      </trkpt>
      <trkpt lat="-28.34241" lon="-65.620795">
        <ele>753.9</ele>
        <time>2018-08-18T14:10:34Z</time>
      </trkpt>
      <trkpt lat="-28.34233" lon="-65.62075">
        <ele>753.9</ele>
        <time>2018-08-18T14:10:37Z</time>
      </trkpt>
      <trkpt lat="-28.342245" lon="-65.620705">
        <ele>753.7</ele>
        <time>2018-08-18T14:10:40Z</time>
      </trkpt>
      <trkpt lat="-28.342145" lon="-65.620655">
        <ele>753.7</ele>
        <time>2018-08-18T14:10:43Z</time>
      </trkpt>
      <trkpt lat="-28.34207" lon="-65.620615">
        <ele>753.7</ele>
        <time>2018-08-18T14:10:45Z</time>
      </trkpt>
      <trkpt lat="-28.341995" lon="-65.62058">
        <ele>753.6</ele>
        <time>2018-08-18T14:10:47Z</time>
      </trkpt>
      <trkpt lat="-28.341935" lon="-65.620545">
        <ele>753.2</ele>
        <time>2018-08-18T14:10:49Z</time>
      </trkpt>
      <trkpt lat="-28.34184" lon="-65.62049833333333">
        <ele>752.8</ele>
        <time>2018-08-18T14:10:52Z</time>
      </trkpt>
      <trkpt lat="-28.34177" lon="-65.620475">
        <ele>752.7</ele>
        <time>2018-08-18T14:10:54Z</time>
      </trkpt>
      <trkpt lat="-28.34168" lon="-65.62043">
        <ele>752.9</ele>
        <time>2018-08-18T14:10:57Z</time>
      </trkpt>
      <trkpt lat="-28.341605" lon="-65.62039">
        <ele>753.1</ele>
        <time>2018-08-18T14:10:59Z</time>
      </trkpt>
      <trkpt lat="-28.34153" lon="-65.620355">
        <ele>754.5</ele>
        <time>2018-08-18T14:11:01Z</time>
      </trkpt>
      <trkpt lat="-28.34142" lon="-65.62031">
        <ele>754.8</ele>
        <time>2018-08-18T14:11:04Z</time>
      </trkpt>
      <trkpt lat="-28.34135" lon="-65.62027666666667">
        <ele>754.8</ele>
        <time>2018-08-18T14:11:06Z</time>
      </trkpt>
      <trkpt lat="-28.341275" lon="-65.62025">
        <ele>754.8</ele>
        <time>2018-08-18T14:11:08Z</time>
      </trkpt>
      <trkpt lat="-28.34119" lon="-65.62022">
        <ele>754.8</ele>
        <time>2018-08-18T14:11:11Z</time>
      </trkpt>
      <trkpt lat="-28.341105" lon="-65.62018">
        <ele>754.7</ele>
        <time>2018-08-18T14:11:13Z</time>
      </trkpt>
      <trkpt lat="-28.34102" lon="-65.62016">
        <ele>754.5</ele>
        <time>2018-08-18T14:11:15Z</time>
      </trkpt>
      <trkpt lat="-28.340915" lon="-65.62013">
        <ele>754.5</ele>
        <time>2018-08-18T14:11:18Z</time>
      </trkpt>
      <trkpt lat="-28.34084" lon="-65.62012">
        <ele>754.6</ele>
        <time>2018-08-18T14:11:20Z</time>
      </trkpt>
      <trkpt lat="-28.340745" lon="-65.620095">
        <ele>754.8</ele>
        <time>2018-08-18T14:11:23Z</time>
      </trkpt>
      <trkpt lat="-28.34063" lon="-65.620075">
        <ele>755.0</ele>
        <time>2018-08-18T14:11:26Z</time>
      </trkpt>
      <trkpt lat="-28.34056" lon="-65.62004833333333">
        <ele>755.0</ele>
        <time>2018-08-18T14:11:28Z</time>
      </trkpt>
      <trkpt lat="-28.340465000000002" lon="-65.620035">
        <ele>755.1</ele>
        <time>2018-08-18T14:11:31Z</time>
      </trkpt>
      <trkpt lat="-28.34037" lon="-65.62002">
        <ele>755.1</ele>
        <time>2018-08-18T14:11:34Z</time>
      </trkpt>
      <trkpt lat="-28.34029" lon="-65.62">
        <ele>755.3</ele>
        <time>2018-08-18T14:11:36Z</time>
      </trkpt>
      <trkpt lat="-28.340215" lon="-65.61998">
        <ele>755.5</ele>
        <time>2018-08-18T14:11:38Z</time>
      </trkpt>
      <trkpt lat="-28.340145" lon="-65.619955">
        <ele>756.9</ele>
        <time>2018-08-18T14:11:41Z</time>
      </trkpt>
      <trkpt lat="-28.34005" lon="-65.619945">
        <ele>757.0</ele>
        <time>2018-08-18T14:11:43Z</time>
      </trkpt>
      <trkpt lat="-28.33997" lon="-65.61991666666667">
        <ele>757.1</ele>
        <time>2018-08-18T14:11:46Z</time>
      </trkpt>
      <trkpt lat="-28.339865" lon="-65.619895">
        <ele>757.1</ele>
        <time>2018-08-18T14:11:49Z</time>
      </trkpt>
      <trkpt lat="-28.339795" lon="-65.61987">
        <ele>757.7</ele>
        <time>2018-08-18T14:11:51Z</time>
      </trkpt>
      <trkpt lat="-28.33972" lon="-65.61982833333333">
        <ele>757.7</ele>
        <time>2018-08-18T14:11:53Z</time>
      </trkpt>
      <trkpt lat="-28.33964" lon="-65.6198">
        <ele>757.7</ele>
        <time>2018-08-18T14:11:55Z</time>
      </trkpt>
      <trkpt lat="-28.33957" lon="-65.619755">
        <ele>757.8</ele>
        <time>2018-08-18T14:11:57Z</time>
      </trkpt>
      <trkpt lat="-28.339505" lon="-65.619715">
        <ele>757.8</ele>
        <time>2018-08-18T14:11:59Z</time>
      </trkpt>
      <trkpt lat="-28.339415" lon="-65.61967">
        <ele>757.8</ele>
        <time>2018-08-18T14:12:02Z</time>
      </trkpt>
      <trkpt lat="-28.33933" lon="-65.619625">
        <ele>757.7</ele>
        <time>2018-08-18T14:12:05Z</time>
      </trkpt>
      <trkpt lat="-28.33923" lon="-65.61958">
        <ele>757.6</ele>
        <time>2018-08-18T14:12:09Z</time>
      </trkpt>
      <trkpt lat="-28.33915" lon="-65.61955">
        <ele>757.4</ele>
        <time>2018-08-18T14:12:11Z</time>
      </trkpt>
      <trkpt lat="-28.339075" lon="-65.61953">
        <ele>757.1</ele>
        <time>2018-08-18T14:12:13Z</time>
      </trkpt>
      <trkpt lat="-28.33897" lon="-65.6195">
        <ele>756.8</ele>
        <time>2018-08-18T14:12:16Z</time>
      </trkpt>
      <trkpt lat="-28.338875" lon="-65.619465">
        <ele>756.6</ele>
        <time>2018-08-18T14:12:19Z</time>
      </trkpt>
      <trkpt lat="-28.33878" lon="-65.619445">
        <ele>756.4</ele>
        <time>2018-08-18T14:12:22Z</time>
      </trkpt>
      <trkpt lat="-28.33868" lon="-65.619415">
        <ele>756.3</ele>
        <time>2018-08-18T14:12:25Z</time>
      </trkpt>
      <trkpt lat="-28.33861" lon="-65.61938">
        <ele>756.3</ele>
        <time>2018-08-18T14:12:27Z</time>
      </trkpt>
      <trkpt lat="-28.33852" lon="-65.61936">
        <ele>756.2</ele>
        <time>2018-08-18T14:12:31Z</time>
      </trkpt>
      <trkpt lat="-28.338435" lon="-65.619335">
        <ele>756.2</ele>
        <time>2018-08-18T14:12:33Z</time>
      </trkpt>
      <trkpt lat="-28.338355" lon="-65.619325">
        <ele>756.1</ele>
        <time>2018-08-18T14:12:36Z</time>
      </trkpt>
      <trkpt lat="-28.338275" lon="-65.61929166666667">
        <ele>756.2</ele>
        <time>2018-08-18T14:12:39Z</time>
      </trkpt>
      <trkpt lat="-28.338175" lon="-65.619275">
        <ele>756.3</ele>
        <time>2018-08-18T14:12:42Z</time>
      </trkpt>
      <trkpt lat="-28.33809" lon="-65.61924166666667">
        <ele>756.5</ele>
        <time>2018-08-18T14:12:45Z</time>
      </trkpt>
      <trkpt lat="-28.33802" lon="-65.619235">
        <ele>756.6</ele>
        <time>2018-08-18T14:12:48Z</time>
      </trkpt>
      <trkpt lat="-28.33793" lon="-65.61922">
        <ele>756.6</ele>
        <time>2018-08-18T14:12:51Z</time>
      </trkpt>
      <trkpt lat="-28.337845" lon="-65.619195">
        <ele>756.7</ele>
        <time>2018-08-18T14:12:54Z</time>
      </trkpt>
      <trkpt lat="-28.33776" lon="-65.619185">
        <ele>756.7</ele>
        <time>2018-08-18T14:12:57Z</time>
      </trkpt>
      <trkpt lat="-28.337675" lon="-65.61915666666667">
        <ele>756.9</ele>
        <time>2018-08-18T14:13:00Z</time>
      </trkpt>
      <trkpt lat="-28.337585" lon="-65.619145">
        <ele>756.9</ele>
        <time>2018-08-18T14:13:03Z</time>
      </trkpt>
      <trkpt lat="-28.33751" lon="-65.619135">
        <ele>757.1</ele>
        <time>2018-08-18T14:13:06Z</time>
      </trkpt>
      <trkpt lat="-28.337435" lon="-65.619125">
        <ele>757.2</ele>
        <time>2018-08-18T14:13:09Z</time>
      </trkpt>
      <trkpt lat="-28.337345" lon="-65.61911">
        <ele>757.2</ele>
        <time>2018-08-18T14:13:12Z</time>
      </trkpt>
      <trkpt lat="-28.337255" lon="-65.619095">
        <ele>757.4</ele>
        <time>2018-08-18T14:13:15Z</time>
      </trkpt>
      <trkpt lat="-28.337175" lon="-65.61906833333333">
        <ele>757.6</ele>
        <time>2018-08-18T14:13:18Z</time>
      </trkpt>
      <trkpt lat="-28.337085" lon="-65.61905166666666">
        <ele>757.7</ele>
        <time>2018-08-18T14:13:21Z</time>
      </trkpt>
      <trkpt lat="-28.336985" lon="-65.61904">
        <ele>757.9</ele>
        <time>2018-08-18T14:13:24Z</time>
      </trkpt>
      <trkpt lat="-28.3369" lon="-65.619015">
        <ele>758.1</ele>
        <time>2018-08-18T14:13:27Z</time>
      </trkpt>
      <trkpt lat="-28.33682" lon="-65.61901">
        <ele>758.2</ele>
        <time>2018-08-18T14:13:30Z</time>
      </trkpt>
      <trkpt lat="-28.33674" lon="-65.61897833333333">
        <ele>758.3</ele>
        <time>2018-08-18T14:13:33Z</time>
      </trkpt>
      <trkpt lat="-28.336655" lon="-65.61897">
        <ele>758.4</ele>
        <time>2018-08-18T14:13:36Z</time>
      </trkpt>
      <trkpt lat="-28.336575" lon="-65.61893166666667">
        <ele>758.5</ele>
        <time>2018-08-18T14:13:39Z</time>
      </trkpt>
      <trkpt lat="-28.33649" lon="-65.61893">
        <ele>758.6</ele>
        <time>2018-08-18T14:13:43Z</time>
      </trkpt>
      <trkpt lat="-28.336405" lon="-65.61893">
        <ele>758.7</ele>
        <time>2018-08-18T14:13:47Z</time>
      </trkpt>
      <trkpt lat="-28.33633" lon="-65.618955">
        <ele>758.7</ele>
        <time>2018-08-18T14:13:50Z</time>
      </trkpt>
      <trkpt lat="-28.336235" lon="-65.61897">
        <ele>758.6</ele>
        <time>2018-08-18T14:13:54Z</time>
      </trkpt>
      <trkpt lat="-28.33615" lon="-65.618995">
        <ele>758.6</ele>
        <time>2018-08-18T14:13:57Z</time>
      </trkpt>
      <trkpt lat="-28.33605" lon="-65.61901666666667">
        <ele>758.6</ele>
        <time>2018-08-18T14:14:00Z</time>
      </trkpt>
      <trkpt lat="-28.33598" lon="-65.619045">
        <ele>758.7</ele>
        <time>2018-08-18T14:14:03Z</time>
      </trkpt>
      <trkpt lat="-28.335895" lon="-65.61905">
        <ele>759.0</ele>
        <time>2018-08-18T14:14:06Z</time>
      </trkpt>
      <trkpt lat="-28.335815" lon="-65.619065">
        <ele>759.5</ele>
        <time>2018-08-18T14:14:10Z</time>
      </trkpt>
      <trkpt lat="-28.335735" lon="-65.61905333333333">
        <ele>759.7</ele>
        <time>2018-08-18T14:14:14Z</time>
      </trkpt>
      <trkpt lat="-28.33565" lon="-65.619015">
        <ele>759.8</ele>
        <time>2018-08-18T14:14:16Z</time>
      </trkpt>
      <trkpt lat="-28.335575" lon="-65.618955">
        <ele>760.0</ele>
        <time>2018-08-18T14:14:19Z</time>
      </trkpt>
      <trkpt lat="-28.335495" lon="-65.618875">
        <ele>760.3</ele>
        <time>2018-08-18T14:14:22Z</time>
      </trkpt>
      <trkpt lat="-28.335435" lon="-65.61881">
        <ele>760.6</ele>
        <time>2018-08-18T14:14:25Z</time>
      </trkpt>
      <trkpt lat="-28.335375" lon="-65.618745">
        <ele>760.9</ele>
        <time>2018-08-18T14:14:28Z</time>
      </trkpt>
      <trkpt lat="-28.335325" lon="-65.618695">
        <ele>761.2</ele>
        <time>2018-08-18T14:14:32Z</time>
      </trkpt>
      <trkpt lat="-28.33527" lon="-65.61862666666667">
        <ele>761.6</ele>
        <time>2018-08-18T14:14:35Z</time>
      </trkpt>
      <trkpt lat="-28.3352" lon="-65.618575">
        <ele>762.0</ele>
        <time>2018-08-18T14:14:39Z</time>
      </trkpt>
      <trkpt lat="-28.335115" lon="-65.61856">
        <ele>762.4</ele>
        <time>2018-08-18T14:14:43Z</time>
      </trkpt>
      <trkpt lat="-28.33504" lon="-65.61856">
        <ele>762.5</ele>
        <time>2018-08-18T14:14:46Z</time>
      </trkpt>
      <trkpt lat="-28.33496" lon="-65.618565">
        <ele>762.7</ele>
        <time>2018-08-18T14:14:49Z</time>
      </trkpt>
      <trkpt lat="-28.334875" lon="-65.61861">
        <ele>763.0</ele>
        <time>2018-08-18T14:14:53Z</time>
      </trkpt>
      <trkpt lat="-28.33478" lon="-65.61866333333333">
        <ele>763.4</ele>
        <time>2018-08-18T14:14:56Z</time>
      </trkpt>
      <trkpt lat="-28.334705" lon="-65.618745">
        <ele>763.8</ele>
        <time>2018-08-18T14:14:58Z</time>
      </trkpt>
      <trkpt lat="-28.334625" lon="-65.61882">
        <ele>764.2</ele>
        <time>2018-08-18T14:15:01Z</time>
      </trkpt>
      <trkpt lat="-28.334545" lon="-65.618885">
        <ele>764.5</ele>
        <time>2018-08-18T14:15:02Z</time>
      </trkpt>
      <trkpt lat="-28.334445" lon="-65.61893">
        <ele>764.4</ele>
        <time>2018-08-18T14:15:04Z</time>
      </trkpt>
      <trkpt lat="-28.334355" lon="-65.61897">
        <ele>764.0</ele>
        <time>2018-08-18T14:15:06Z</time>
      </trkpt>
      <trkpt lat="-28.33427" lon="-65.619015">
        <ele>763.1</ele>
        <time>2018-08-18T14:15:08Z</time>
      </trkpt>
      <trkpt lat="-28.334175" lon="-65.61905">
        <ele>762.0</ele>
        <time>2018-08-18T14:15:10Z</time>
      </trkpt>
      <trkpt lat="-28.33408" lon="-65.61908">
        <ele>761.0</ele>
        <time>2018-08-18T14:15:12Z</time>
      </trkpt>
      <trkpt lat="-28.33399" lon="-65.619095">
        <ele>761.0</ele>
        <time>2018-08-18T14:15:15Z</time>
      </trkpt>
      <trkpt lat="-28.33391" lon="-65.61911">
        <ele>761.3</ele>
        <time>2018-08-18T14:15:16Z</time>
      </trkpt>
      <trkpt lat="-28.333835" lon="-65.619125">
        <ele>761.4</ele>
        <time>2018-08-18T14:15:19Z</time>
      </trkpt>
      <trkpt lat="-28.33375" lon="-65.619155">
        <ele>761.5</ele>
        <time>2018-08-18T14:15:21Z</time>
      </trkpt>
      <trkpt lat="-28.333665" lon="-65.61919">
        <ele>761.5</ele>
        <time>2018-08-18T14:15:25Z</time>
      </trkpt>
      <trkpt lat="-28.333575" lon="-65.61920333333333">
        <ele>761.5</ele>
        <time>2018-08-18T14:15:27Z</time>
      </trkpt>
      <trkpt lat="-28.333485" lon="-65.61924">
        <ele>761.6</ele>
        <time>2018-08-18T14:15:30Z</time>
      </trkpt>
      <trkpt lat="-28.33339" lon="-65.61927">
        <ele>761.6</ele>
        <time>2018-08-18T14:15:33Z</time>
      </trkpt>
      <trkpt lat="-28.333285" lon="-65.61928666666667">
        <ele>761.8</ele>
        <time>2018-08-18T14:15:37Z</time>
      </trkpt>
      <trkpt lat="-28.333205" lon="-65.61932">
        <ele>762.2</ele>
        <time>2018-08-18T14:15:38Z</time>
      </trkpt>
      <trkpt lat="-28.333125" lon="-65.61935">
        <ele>762.4</ele>
        <time>2018-08-18T14:15:40Z</time>
      </trkpt>
      <trkpt lat="-28.333055" lon="-65.61938">
        <ele>761.6</ele>
        <time>2018-08-18T14:15:42Z</time>
      </trkpt>
      <trkpt lat="-28.332935" lon="-65.61941">
        <ele>760.8</ele>
        <time>2018-08-18T14:15:45Z</time>
      </trkpt>
      <trkpt lat="-28.332825" lon="-65.619445">
        <ele>760.1</ele>
        <time>2018-08-18T14:15:46Z</time>
      </trkpt>
      <trkpt lat="-28.332695" lon="-65.619465">
        <ele>759.1</ele>
        <time>2018-08-18T14:15:48Z</time>
      </trkpt>
      <trkpt lat="-28.33261" lon="-65.619485">
        <ele>758.7</ele>
        <time>2018-08-18T14:15:49Z</time>
      </trkpt>
      <trkpt lat="-28.332545" lon="-65.619505">
        <ele>758.3</ele>
        <time>2018-08-18T14:15:50Z</time>
      </trkpt>
      <trkpt lat="-28.33242" lon="-65.61953">
        <ele>758.6</ele>
        <time>2018-08-18T14:15:52Z</time>
      </trkpt>
      <trkpt lat="-28.332315" lon="-65.61956">
        <ele>759.6</ele>
        <time>2018-08-18T14:15:55Z</time>
      </trkpt>
      <trkpt lat="-28.33222" lon="-65.619585">
        <ele>760.2</ele>
        <time>2018-08-18T14:15:56Z</time>
      </trkpt>
      <trkpt lat="-28.33214" lon="-65.619605">
        <ele>760.9</ele>
        <time>2018-08-18T14:15:59Z</time>
      </trkpt>
      <trkpt lat="-28.332055" lon="-65.619625">
        <ele>761.3</ele>
        <time>2018-08-18T14:16:01Z</time>
      </trkpt>
      <trkpt lat="-28.331975" lon="-65.619635">
        <ele>761.4</ele>
        <time>2018-08-18T14:16:02Z</time>
      </trkpt>
      <trkpt lat="-28.331885" lon="-65.619645">
        <ele>761.5</ele>
        <time>2018-08-18T14:16:05Z</time>
      </trkpt>
      <trkpt lat="-28.33178" lon="-65.61967">
        <ele>761.6</ele>
        <time>2018-08-18T14:16:09Z</time>
      </trkpt>
      <trkpt lat="-28.331695" lon="-65.619685">
        <ele>761.7</ele>
        <time>2018-08-18T14:16:10Z</time>
      </trkpt>
      <trkpt lat="-28.33161" lon="-65.61971">
        <ele>761.7</ele>
        <time>2018-08-18T14:16:14Z</time>
      </trkpt>
      <trkpt lat="-28.331505" lon="-65.61973">
        <ele>761.7</ele>
        <time>2018-08-18T14:16:16Z</time>
      </trkpt>
      <trkpt lat="-28.331409999999998" lon="-65.61977">
        <ele>761.7</ele>
        <time>2018-08-18T14:16:19Z</time>
      </trkpt>
      <trkpt lat="-28.331315" lon="-65.619805">
        <ele>761.8</ele>
        <time>2018-08-18T14:16:23Z</time>
      </trkpt>
      <trkpt lat="-28.331235" lon="-65.619855">
        <ele>761.8</ele>
        <time>2018-08-18T14:16:25Z</time>
      </trkpt>
      <trkpt lat="-28.33115" lon="-65.619905">
        <ele>761.8</ele>
        <time>2018-08-18T14:16:29Z</time>
      </trkpt>
      <trkpt lat="-28.331065" lon="-65.619955">
        <ele>761.7</ele>
        <time>2018-08-18T14:16:31Z</time>
      </trkpt>
      <trkpt lat="-28.33099" lon="-65.62">
        <ele>761.8</ele>
        <time>2018-08-18T14:16:34Z</time>
      </trkpt>
      <trkpt lat="-28.330895" lon="-65.62005">
        <ele>761.8</ele>
        <time>2018-08-18T14:16:37Z</time>
      </trkpt>
      <trkpt lat="-28.330815" lon="-65.62011">
        <ele>762.0</ele>
        <time>2018-08-18T14:16:40Z</time>
      </trkpt>
      <trkpt lat="-28.33074" lon="-65.62014">
        <ele>762.2</ele>
        <time>2018-08-18T14:16:43Z</time>
      </trkpt>
      <trkpt lat="-28.33065" lon="-65.62018">
        <ele>762.4</ele>
        <time>2018-08-18T14:16:46Z</time>
      </trkpt>
      <trkpt lat="-28.330555" lon="-65.62023166666667">
        <ele>762.6</ele>
        <time>2018-08-18T14:16:50Z</time>
      </trkpt>
      <trkpt lat="-28.330485" lon="-65.620275">
        <ele>762.8</ele>
        <time>2018-08-18T14:16:53Z</time>
      </trkpt>
      <trkpt lat="-28.33042" lon="-65.62032">
        <ele>763.1</ele>
        <time>2018-08-18T14:16:56Z</time>
      </trkpt>
      <trkpt lat="-28.330345" lon="-65.620365">
        <ele>763.6</ele>
        <time>2018-08-18T14:16:59Z</time>
      </trkpt>
      <trkpt lat="-28.33028" lon="-65.620405">
        <ele>764.0</ele>
        <time>2018-08-18T14:17:01Z</time>
      </trkpt>
      <trkpt lat="-28.33021" lon="-65.62045">
        <ele>764.4</ele>
        <time>2018-08-18T14:17:04Z</time>
      </trkpt>
      <trkpt lat="-28.330135" lon="-65.620485">
        <ele>764.7</ele>
        <time>2018-08-18T14:17:08Z</time>
      </trkpt>
      <trkpt lat="-28.33005" lon="-65.62049166666667">
        <ele>765.0</ele>
        <time>2018-08-18T14:17:12Z</time>
      </trkpt>
      <trkpt lat="-28.32996" lon="-65.620495">
        <ele>765.4</ele>
        <time>2018-08-18T14:17:16Z</time>
      </trkpt>
      <trkpt lat="-28.32988" lon="-65.620485">
        <ele>765.5</ele>
        <time>2018-08-18T14:17:19Z</time>
      </trkpt>
      <trkpt lat="-28.329795" lon="-65.62045">
        <ele>765.7</ele>
        <time>2018-08-18T14:17:22Z</time>
      </trkpt>
      <trkpt lat="-28.329735" lon="-65.620405">
        <ele>765.8</ele>
        <time>2018-08-18T14:17:24Z</time>
      </trkpt>
      <trkpt lat="-28.329665" lon="-65.620355">
        <ele>765.9</ele>
        <time>2018-08-18T14:17:26Z</time>
      </trkpt>
      <trkpt lat="-28.3296" lon="-65.620305">
        <ele>767.0</ele>
        <time>2018-08-18T14:17:27Z</time>
      </trkpt>
      <trkpt lat="-28.329535" lon="-65.620255">
        <ele>767.2</ele>
        <time>2018-08-18T14:17:30Z</time>
      </trkpt>
      <trkpt lat="-28.329465" lon="-65.620205">
        <ele>768.0</ele>
        <time>2018-08-18T14:17:32Z</time>
      </trkpt>
      <trkpt lat="-28.3294" lon="-65.62014833333333">
        <ele>769.1</ele>
        <time>2018-08-18T14:17:34Z</time>
      </trkpt>
      <trkpt lat="-28.32934" lon="-65.62011">
        <ele>769.3</ele>
        <time>2018-08-18T14:17:36Z</time>
      </trkpt>
      <trkpt lat="-28.329265" lon="-65.620065">
        <ele>769.2</ele>
        <time>2018-08-18T14:17:38Z</time>
      </trkpt>
      <trkpt lat="-28.329205" lon="-65.62002">
        <ele>768.6</ele>
        <time>2018-08-18T14:17:40Z</time>
      </trkpt>
      <trkpt lat="-28.32914" lon="-65.61996333333333">
        <ele>768.0</ele>
        <time>2018-08-18T14:17:42Z</time>
      </trkpt>
      <trkpt lat="-28.32907" lon="-65.619915">
        <ele>767.6</ele>
        <time>2018-08-18T14:17:44Z</time>
      </trkpt>
      <trkpt lat="-28.329" lon="-65.61986">
        <ele>767.4</ele>
        <time>2018-08-18T14:17:46Z</time>
      </trkpt>
      <trkpt lat="-28.328925" lon="-65.61981">
        <ele>767.3</ele>
        <time>2018-08-18T14:17:48Z</time>
      </trkpt>
      <trkpt lat="-28.328846666666667" lon="-65.619755">
        <ele>767.6</ele>
        <time>2018-08-18T14:17:50Z</time>
      </trkpt>
      <trkpt lat="-28.328765" lon="-65.619685">
        <ele>767.6</ele>
        <time>2018-08-18T14:17:53Z</time>
      </trkpt>
      <trkpt lat="-28.328695" lon="-65.61963">
        <ele>768.1</ele>
        <time>2018-08-18T14:17:55Z</time>
      </trkpt>
      <trkpt lat="-28.32861" lon="-65.61956">
        <ele>768.6</ele>
        <time>2018-08-18T14:17:58Z</time>
      </trkpt>
      <trkpt lat="-28.32854" lon="-65.61951666666667">
        <ele>769.0</ele>
        <time>2018-08-18T14:18:00Z</time>
      </trkpt>
      <trkpt lat="-28.32847" lon="-65.61949">
        <ele>769.0</ele>
        <time>2018-08-18T14:18:02Z</time>
      </trkpt>
      <trkpt lat="-28.32836" lon="-65.619465">
        <ele>768.3</ele>
        <time>2018-08-18T14:18:05Z</time>
      </trkpt>
      <trkpt lat="-28.32828" lon="-65.61946666666667">
        <ele>767.5</ele>
        <time>2018-08-18T14:18:07Z</time>
      </trkpt>
      <trkpt lat="-28.32819" lon="-65.619495">
        <ele>767.4</ele>
        <time>2018-08-18T14:18:09Z</time>
      </trkpt>
      <trkpt lat="-28.32809" lon="-65.61951333333333">
        <ele>767.0</ele>
        <time>2018-08-18T14:18:11Z</time>
      </trkpt>
      <trkpt lat="-28.327975" lon="-65.61955">
        <ele>766.7</ele>
        <time>2018-08-18T14:18:13Z</time>
      </trkpt>
      <trkpt lat="-28.327845" lon="-65.619585">
        <ele>766.4</ele>
        <time>2018-08-18T14:18:15Z</time>
      </trkpt>
      <trkpt lat="-28.32773" lon="-65.619605">
        <ele>765.8</ele>
        <time>2018-08-18T14:18:17Z</time>
      </trkpt>
      <trkpt lat="-28.32762" lon="-65.619625">
        <ele>765.3</ele>
        <time>2018-08-18T14:18:19Z</time>
      </trkpt>
      <trkpt lat="-28.327505" lon="-65.61964">
        <ele>765.0</ele>
        <time>2018-08-18T14:18:21Z</time>
      </trkpt>
      <trkpt lat="-28.327385" lon="-65.61965166666667">
        <ele>764.8</ele>
        <time>2018-08-18T14:18:23Z</time>
      </trkpt>
      <trkpt lat="-28.32729" lon="-65.61967">
        <ele>764.8</ele>
        <time>2018-08-18T14:18:25Z</time>
      </trkpt>
      <trkpt lat="-28.3272" lon="-65.61967">
        <ele>764.9</ele>
        <time>2018-08-18T14:18:27Z</time>
      </trkpt>
      <trkpt lat="-28.327105" lon="-65.61965333333333">
        <ele>765.1</ele>
        <time>2018-08-18T14:18:29Z</time>
      </trkpt>
      <trkpt lat="-28.327005" lon="-65.619645">
        <ele>765.5</ele>
        <time>2018-08-18T14:18:31Z</time>
      </trkpt>
      <trkpt lat="-28.326915" lon="-65.61960666666667">
        <ele>765.6</ele>
        <time>2018-08-18T14:18:33Z</time>
      </trkpt>
      <trkpt lat="-28.326815" lon="-65.61958">
        <ele>765.2</ele>
        <time>2018-08-18T14:18:36Z</time>
      </trkpt>
      <trkpt lat="-28.326735" lon="-65.61955">
        <ele>765.0</ele>
        <time>2018-08-18T14:18:38Z</time>
      </trkpt>
      <trkpt lat="-28.326665" lon="-65.61953">
        <ele>764.8</ele>
        <time>2018-08-18T14:18:40Z</time>
      </trkpt>
      <trkpt lat="-28.32657" lon="-65.6195">
        <ele>764.3</ele>
        <time>2018-08-18T14:18:42Z</time>
      </trkpt>
      <trkpt lat="-28.326495" lon="-65.619465">
        <ele>763.7</ele>
        <time>2018-08-18T14:18:44Z</time>
      </trkpt>
      <trkpt lat="-28.326405" lon="-65.61943">
        <ele>763.0</ele>
        <time>2018-08-18T14:18:46Z</time>
      </trkpt>
      <trkpt lat="-28.32631" lon="-65.61938333333333">
        <ele>763.0</ele>
        <time>2018-08-18T14:18:48Z</time>
      </trkpt>
      <trkpt lat="-28.326235" lon="-65.619355">
        <ele>763.4</ele>
        <time>2018-08-18T14:18:50Z</time>
      </trkpt>
      <trkpt lat="-28.32615" lon="-65.619315">
        <ele>764.1</ele>
        <time>2018-08-18T14:18:52Z</time>
      </trkpt>
      <trkpt lat="-28.326065" lon="-65.61928">
        <ele>764.4</ele>
        <time>2018-08-18T14:18:54Z</time>
      </trkpt>
      <trkpt lat="-28.325975" lon="-65.619265">
        <ele>764.9</ele>
        <time>2018-08-18T14:18:56Z</time>
      </trkpt>
      <trkpt lat="-28.32589" lon="-65.61927">
        <ele>764.8</ele>
        <time>2018-08-18T14:18:58Z</time>
      </trkpt>
      <trkpt lat="-28.32581" lon="-65.61928833333333">
        <ele>764.4</ele>
        <time>2018-08-18T14:19:00Z</time>
      </trkpt>
      <trkpt lat="-28.32573" lon="-65.61932">
        <ele>763.3</ele>
        <time>2018-08-18T14:19:02Z</time>
      </trkpt>
      <trkpt lat="-28.325645" lon="-65.619335">
        <ele>763.4</ele>
        <time>2018-08-18T14:19:04Z</time>
      </trkpt>
      <trkpt lat="-28.32555" lon="-65.61935">
        <ele>764.5</ele>
        <time>2018-08-18T14:19:06Z</time>
      </trkpt>
      <trkpt lat="-28.325475" lon="-65.61936">
        <ele>765.6</ele>
        <time>2018-08-18T14:19:08Z</time>
      </trkpt>
      <trkpt lat="-28.32539" lon="-65.61938">
        <ele>765.9</ele>
        <time>2018-08-18T14:19:10Z</time>
      </trkpt>
      <trkpt lat="-28.32528" lon="-65.6194">
        <ele>767.0</ele>
        <time>2018-08-18T14:19:13Z</time>
      </trkpt>
      <trkpt lat="-28.32517" lon="-65.61941">
        <ele>767.1</ele>
        <time>2018-08-18T14:19:16Z</time>
      </trkpt>
      <trkpt lat="-28.325075" lon="-65.61942">
        <ele>767.2</ele>
        <time>2018-08-18T14:19:19Z</time>
      </trkpt>
      <trkpt lat="-28.324975" lon="-65.61943">
        <ele>767.2</ele>
        <time>2018-08-18T14:19:22Z</time>
      </trkpt>
      <trkpt lat="-28.32489" lon="-65.61943333333333">
        <ele>767.3</ele>
        <time>2018-08-18T14:19:24Z</time>
      </trkpt>
      <trkpt lat="-28.32481" lon="-65.619445">
        <ele>767.9</ele>
        <time>2018-08-18T14:19:26Z</time>
      </trkpt>
      <trkpt lat="-28.324705" lon="-65.619465">
        <ele>767.5</ele>
        <time>2018-08-18T14:19:29Z</time>
      </trkpt>
      <trkpt lat="-28.324605" lon="-65.61949">
        <ele>767.2</ele>
        <time>2018-08-18T14:19:32Z</time>
      </trkpt>
      <trkpt lat="-28.324505" lon="-65.6195">
        <ele>766.6</ele>
        <time>2018-08-18T14:19:34Z</time>
      </trkpt>
      <trkpt lat="-28.32442" lon="-65.619505">
        <ele>766.6</ele>
        <time>2018-08-18T14:19:36Z</time>
      </trkpt>
      <trkpt lat="-28.32435" lon="-65.619515">
        <ele>766.6</ele>
        <time>2018-08-18T14:19:38Z</time>
      </trkpt>
      <trkpt lat="-28.324245" lon="-65.61953">
        <ele>767.0</ele>
        <time>2018-08-18T14:19:41Z</time>
      </trkpt>
      <trkpt lat="-28.32417" lon="-65.619545">
        <ele>767.0</ele>
        <time>2018-08-18T14:19:43Z</time>
      </trkpt>
      <trkpt lat="-28.324095" lon="-65.61955">
        <ele>767.0</ele>
        <time>2018-08-18T14:19:45Z</time>
      </trkpt>
      <trkpt lat="-28.324005" lon="-65.619575">
        <ele>766.9</ele>
        <time>2018-08-18T14:19:48Z</time>
      </trkpt>
      <trkpt lat="-28.323905" lon="-65.619595">
        <ele>766.8</ele>
        <time>2018-08-18T14:19:51Z</time>
      </trkpt>
      <trkpt lat="-28.323815" lon="-65.61960833333333">
        <ele>766.6</ele>
        <time>2018-08-18T14:19:54Z</time>
      </trkpt>
      <trkpt lat="-28.32372" lon="-65.619635">
        <ele>766.4</ele>
        <time>2018-08-18T14:19:57Z</time>
      </trkpt>
      <trkpt lat="-28.323625" lon="-65.619645">
        <ele>766.3</ele>
        <time>2018-08-18T14:20:00Z</time>
      </trkpt>
      <trkpt lat="-28.32353" lon="-65.61963">
        <ele>766.4</ele>
        <time>2018-08-18T14:20:03Z</time>
      </trkpt>
      <trkpt lat="-28.323455" lon="-65.61963">
        <ele>766.5</ele>
        <time>2018-08-18T14:20:06Z</time>
      </trkpt>
      <trkpt lat="-28.323365" lon="-65.61960833333333">
        <ele>766.8</ele>
        <time>2018-08-18T14:20:09Z</time>
      </trkpt>
      <trkpt lat="-28.32329" lon="-65.619605">
        <ele>766.9</ele>
        <time>2018-08-18T14:20:11Z</time>
      </trkpt>
      <trkpt lat="-28.323195" lon="-65.619595">
        <ele>767.1</ele>
        <time>2018-08-18T14:20:14Z</time>
      </trkpt>
      <trkpt lat="-28.32311" lon="-65.619585">
        <ele>767.2</ele>
        <time>2018-08-18T14:20:17Z</time>
      </trkpt>
      <trkpt lat="-28.32301" lon="-65.61956">
        <ele>767.4</ele>
        <time>2018-08-18T14:20:20Z</time>
      </trkpt>
      <trkpt lat="-28.32292" lon="-65.619545">
        <ele>767.6</ele>
        <time>2018-08-18T14:20:23Z</time>
      </trkpt>
      <trkpt lat="-28.32282" lon="-65.619515">
        <ele>767.7</ele>
        <time>2018-08-18T14:20:26Z</time>
      </trkpt>
      <trkpt lat="-28.32273" lon="-65.619495">
        <ele>767.9</ele>
        <time>2018-08-18T14:20:29Z</time>
      </trkpt>
      <trkpt lat="-28.32264" lon="-65.619465">
        <ele>767.9</ele>
        <time>2018-08-18T14:20:31Z</time>
      </trkpt>
      <trkpt lat="-28.322555" lon="-65.619445">
        <ele>768.1</ele>
        <time>2018-08-18T14:20:33Z</time>
      </trkpt>
      <trkpt lat="-28.322485" lon="-65.61942">
        <ele>768.2</ele>
        <time>2018-08-18T14:20:35Z</time>
      </trkpt>
      <trkpt lat="-28.32238" lon="-65.61938">
        <ele>768.5</ele>
        <time>2018-08-18T14:20:38Z</time>
      </trkpt>
      <trkpt lat="-28.322295" lon="-65.61936">
        <ele>768.7</ele>
        <time>2018-08-18T14:20:41Z</time>
      </trkpt>
      <trkpt lat="-28.32221" lon="-65.619335">
        <ele>768.8</ele>
        <time>2018-08-18T14:20:43Z</time>
      </trkpt>
      <trkpt lat="-28.32212" lon="-65.619325">
        <ele>769.2</ele>
        <time>2018-08-18T14:20:45Z</time>
      </trkpt>
      <trkpt lat="-28.322035" lon="-65.619315">
        <ele>769.5</ele>
        <time>2018-08-18T14:20:47Z</time>
      </trkpt>
      <trkpt lat="-28.32195" lon="-65.619305">
        <ele>769.6</ele>
        <time>2018-08-18T14:20:49Z</time>
      </trkpt>
      <trkpt lat="-28.32188" lon="-65.61929">
        <ele>769.7</ele>
        <time>2018-08-18T14:20:51Z</time>
      </trkpt>
      <trkpt lat="-28.321775" lon="-65.61928833333333">
        <ele>770.5</ele>
        <time>2018-08-18T14:20:54Z</time>
      </trkpt>
      <trkpt lat="-28.3217" lon="-65.61928666666667">
        <ele>771.0</ele>
        <time>2018-08-18T14:20:56Z</time>
      </trkpt>
      <trkpt lat="-28.321595" lon="-65.61928">
        <ele>771.6</ele>
        <time>2018-08-18T14:20:59Z</time>
      </trkpt>
      <trkpt lat="-28.32151" lon="-65.619265">
        <ele>772.3</ele>
        <time>2018-08-18T14:21:01Z</time>
      </trkpt>
      <trkpt lat="-28.32142" lon="-65.61924166666667">
        <ele>772.5</ele>
        <time>2018-08-18T14:21:03Z</time>
      </trkpt>
      <trkpt lat="-28.321345" lon="-65.61924">
        <ele>772.5</ele>
        <time>2018-08-18T14:21:05Z</time>
      </trkpt>
      <trkpt lat="-28.32124" lon="-65.619235">
        <ele>772.5</ele>
        <time>2018-08-18T14:21:08Z</time>
      </trkpt>
      <trkpt lat="-28.321156666666667" lon="-65.61923">
        <ele>771.6</ele>
        <time>2018-08-18T14:21:10Z</time>
      </trkpt>
      <trkpt lat="-28.321065" lon="-65.619235">
        <ele>770.7</ele>
        <time>2018-08-18T14:21:13Z</time>
      </trkpt>
      <trkpt lat="-28.32099" lon="-65.619235">
        <ele>770.7</ele>
        <time>2018-08-18T14:21:15Z</time>
      </trkpt>
      <trkpt lat="-28.32091" lon="-65.61923">
        <ele>770.3</ele>
        <time>2018-08-18T14:21:17Z</time>
      </trkpt>
      <trkpt lat="-28.320825" lon="-65.61922">
        <ele>769.8</ele>
        <time>2018-08-18T14:21:19Z</time>
      </trkpt>
      <trkpt lat="-28.320755" lon="-65.61922">
        <ele>769.8</ele>
        <time>2018-08-18T14:21:21Z</time>
      </trkpt>
      <trkpt lat="-28.32068" lon="-65.61922">
        <ele>769.8</ele>
        <time>2018-08-18T14:21:23Z</time>
      </trkpt>
      <trkpt lat="-28.320575" lon="-65.61923">
        <ele>769.8</ele>
        <time>2018-08-18T14:21:26Z</time>
      </trkpt>
      <trkpt lat="-28.320505" lon="-65.61922">
        <ele>769.9</ele>
        <time>2018-08-18T14:21:28Z</time>
      </trkpt>
      <trkpt lat="-28.320395" lon="-65.61922">
        <ele>770.2</ele>
        <time>2018-08-18T14:21:31Z</time>
      </trkpt>
      <trkpt lat="-28.32032" lon="-65.61922">
        <ele>771.4</ele>
        <time>2018-08-18T14:21:33Z</time>
      </trkpt>
      <trkpt lat="-28.32023" lon="-65.61922">
        <ele>773.1</ele>
        <time>2018-08-18T14:21:35Z</time>
      </trkpt>
      <trkpt lat="-28.32015" lon="-65.61923">
        <ele>773.9</ele>
        <time>2018-08-18T14:21:37Z</time>
      </trkpt>
      <trkpt lat="-28.320055" lon="-65.61924">
        <ele>774.4</ele>
        <time>2018-08-18T14:21:40Z</time>
      </trkpt>
      <trkpt lat="-28.319960000000002" lon="-65.61924166666667">
        <ele>774.3</ele>
        <time>2018-08-18T14:21:43Z</time>
      </trkpt>
      <trkpt lat="-28.319875" lon="-65.61926">
        <ele>774.4</ele>
        <time>2018-08-18T14:21:45Z</time>
      </trkpt>
      <trkpt lat="-28.31979" lon="-65.619275">
        <ele>774.4</ele>
        <time>2018-08-18T14:21:47Z</time>
      </trkpt>
      <trkpt lat="-28.319715" lon="-65.619275">
        <ele>774.4</ele>
        <time>2018-08-18T14:21:49Z</time>
      </trkpt>
      <trkpt lat="-28.3196" lon="-65.61928">
        <ele>774.3</ele>
        <time>2018-08-18T14:21:52Z</time>
      </trkpt>
      <trkpt lat="-28.319495" lon="-65.61928">
        <ele>774.1</ele>
        <time>2018-08-18T14:21:55Z</time>
      </trkpt>
      <trkpt lat="-28.319425" lon="-65.61928">
        <ele>773.7</ele>
        <time>2018-08-18T14:21:57Z</time>
      </trkpt>
      <trkpt lat="-28.319315" lon="-65.61929">
        <ele>772.6</ele>
        <time>2018-08-18T14:22:00Z</time>
      </trkpt>
      <trkpt lat="-28.319215" lon="-65.61929333333333">
        <ele>772.0</ele>
        <time>2018-08-18T14:22:03Z</time>
      </trkpt>
      <trkpt lat="-28.31911" lon="-65.61929">
        <ele>771.8</ele>
        <time>2018-08-18T14:22:06Z</time>
      </trkpt>
      <trkpt lat="-28.319035" lon="-65.61928">
        <ele>771.7</ele>
        <time>2018-08-18T14:22:08Z</time>
      </trkpt>
      <trkpt lat="-28.318935" lon="-65.61924833333333">
        <ele>771.0</ele>
        <time>2018-08-18T14:22:11Z</time>
      </trkpt>
      <trkpt lat="-28.31884" lon="-65.61922">
        <ele>771.0</ele>
        <time>2018-08-18T14:22:14Z</time>
      </trkpt>
      <trkpt lat="-28.318745" lon="-65.61919">
        <ele>771.0</ele>
        <time>2018-08-18T14:22:17Z</time>
      </trkpt>
      <trkpt lat="-28.318655" lon="-65.61915666666667">
        <ele>771.0</ele>
        <time>2018-08-18T14:22:20Z</time>
      </trkpt>
      <trkpt lat="-28.31857" lon="-65.61916166666667">
        <ele>771.1</ele>
        <time>2018-08-18T14:22:24Z</time>
      </trkpt>
      <trkpt lat="-28.318485" lon="-65.619185">
        <ele>771.3</ele>
        <time>2018-08-18T14:22:28Z</time>
      </trkpt>
      <trkpt lat="-28.31839" lon="-65.61920833333333">
        <ele>771.4</ele>
        <time>2018-08-18T14:22:32Z</time>
      </trkpt>
      <trkpt lat="-28.3183" lon="-65.61924">
        <ele>771.5</ele>
        <time>2018-08-18T14:22:35Z</time>
      </trkpt>
      <trkpt lat="-28.318224999999998" lon="-65.619275">
        <ele>771.6</ele>
        <time>2018-08-18T14:22:38Z</time>
      </trkpt>
      <trkpt lat="-28.318145" lon="-65.619315">
        <ele>771.6</ele>
        <time>2018-08-18T14:22:41Z</time>
      </trkpt>
      <trkpt lat="-28.31805" lon="-65.61935">
        <ele>771.7</ele>
        <time>2018-08-18T14:22:44Z</time>
      </trkpt>
      <trkpt lat="-28.31797" lon="-65.61938">
        <ele>771.9</ele>
        <time>2018-08-18T14:22:47Z</time>
      </trkpt>
      <trkpt lat="-28.317885" lon="-65.61942">
        <ele>772.1</ele>
        <time>2018-08-18T14:22:50Z</time>
      </trkpt>
      <trkpt lat="-28.317785" lon="-65.61946">
        <ele>772.2</ele>
        <time>2018-08-18T14:22:53Z</time>
      </trkpt>
      <trkpt lat="-28.317695" lon="-65.61949">
        <ele>772.3</ele>
        <time>2018-08-18T14:22:56Z</time>
      </trkpt>
      <trkpt lat="-28.317605" lon="-65.619505">
        <ele>772.5</ele>
        <time>2018-08-18T14:22:59Z</time>
      </trkpt>
      <trkpt lat="-28.317525" lon="-65.61951666666667">
        <ele>772.7</ele>
        <time>2018-08-18T14:23:03Z</time>
      </trkpt>
      <trkpt lat="-28.317445" lon="-65.61953">
        <ele>772.8</ele>
        <time>2018-08-18T14:23:07Z</time>
      </trkpt>
      <trkpt lat="-28.31744" lon="-65.61953">
        <ele>773.1</ele>
        <time>2018-08-18T14:23:14Z</time>
      </trkpt>
      <trkpt lat="-28.3174" lon="-65.619505">
        <ele>774.2</ele>
        <time>2018-08-18T14:23:30Z</time>
      </trkpt>
      <trkpt lat="-28.317395" lon="-65.619505">
        <ele>774.2</ele>
        <time>2018-08-18T14:23:30Z</time>
      </trkpt>
      <trkpt lat="-28.31737" lon="-65.6195">
        <ele>774.8</ele>
        <time>2018-08-18T14:23:40Z</time>
      </trkpt>
      <trkpt lat="-28.31738" lon="-65.6195">
        <ele>774.8</ele>
        <time>2018-08-18T14:23:41Z</time>
      </trkpt>
      <trkpt lat="-28.31739" lon="-65.619505">
        <ele>774.8</ele>
        <time>2018-08-18T14:23:55Z</time>
      </trkpt>
      <trkpt lat="-28.317395" lon="-65.61951333333333">
        <ele>775.0</ele>
        <time>2018-08-18T14:23:56Z</time>
      </trkpt>
      <trkpt lat="-28.317395" lon="-65.619545">
        <ele>775.5</ele>
        <time>2018-08-18T14:24:05Z</time>
      </trkpt>
      <trkpt lat="-28.3174" lon="-65.619545">
        <ele>775.5</ele>
        <time>2018-08-18T14:24:06Z</time>
      </trkpt>
      <trkpt lat="-28.317415" lon="-65.619545">
        <ele>775.3</ele>
        <time>2018-08-18T14:24:17Z</time>
      </trkpt>
      <trkpt lat="-28.317415" lon="-65.619545">
        <ele>775.0</ele>
        <time>2018-08-18T14:24:17Z</time>
      </trkpt>
      <trkpt lat="-28.317425" lon="-65.619515">
        <ele>774.4</ele>
        <time>2018-08-18T14:24:31Z</time>
      </trkpt>
      <trkpt lat="-28.31742" lon="-65.61951333333333">
        <ele>774.4</ele>
        <time>2018-08-18T14:24:31Z</time>
      </trkpt>
      <trkpt lat="-28.317405" lon="-65.6195">
        <ele>775.0</ele>
        <time>2018-08-18T14:24:39Z</time>
      </trkpt>
      <trkpt lat="-28.3174" lon="-65.6195">
        <ele>775.2</ele>
        <time>2018-08-18T14:24:41Z</time>
      </trkpt>
      <trkpt lat="-28.31737" lon="-65.619505">
        <ele>775.9</ele>
        <time>2018-08-18T14:24:50Z</time>
      </trkpt>
      <trkpt lat="-28.31737" lon="-65.619505">
        <ele>775.9</ele>
        <time>2018-08-18T14:24:51Z</time>
      </trkpt>
      <trkpt lat="-28.317395" lon="-65.61951666666667">
        <ele>776.2</ele>
        <time>2018-08-18T14:25:00Z</time>
      </trkpt>
      <trkpt lat="-28.3174" lon="-65.61951666666667">
        <ele>776.2</ele>
        <time>2018-08-18T14:25:00Z</time>
      </trkpt>
      <trkpt lat="-28.317425" lon="-65.619515">
        <ele>776.8</ele>
        <time>2018-08-18T14:25:12Z</time>
      </trkpt>
      <trkpt lat="-28.317425" lon="-65.619515">
        <ele>776.9</ele>
        <time>2018-08-18T14:25:13Z</time>
      </trkpt>
      <trkpt lat="-28.31744" lon="-65.619495">
        <ele>777.6</ele>
        <time>2018-08-18T14:25:29Z</time>
      </trkpt>
      <trkpt lat="-28.31744" lon="-65.619495">
        <ele>777.7</ele>
        <time>2018-08-18T14:25:30Z</time>
      </trkpt>
      <trkpt lat="-28.317425" lon="-65.61949">
        <ele>777.2</ele>
        <time>2018-08-18T14:25:46Z</time>
      </trkpt>
      <trkpt lat="-28.317425" lon="-65.61949">
        <ele>777.3</ele>
        <time>2018-08-18T14:25:47Z</time>
      </trkpt>
      <trkpt lat="-28.31742" lon="-65.619505">
        <ele>778.1</ele>
        <time>2018-08-18T14:25:58Z</time>
      </trkpt>
      <trkpt lat="-28.317415" lon="-65.619505">
        <ele>778.1</ele>
        <time>2018-08-18T14:25:59Z</time>
      </trkpt>
      <trkpt lat="-28.317405" lon="-65.619495">
        <ele>777.8</ele>
        <time>2018-08-18T14:26:10Z</time>
      </trkpt>
      <trkpt lat="-28.3174" lon="-65.619495">
        <ele>777.9</ele>
        <time>2018-08-18T14:26:12Z</time>
      </trkpt>
      <trkpt lat="-28.31739" lon="-65.6195">
        <ele>777.9</ele>
        <time>2018-08-18T14:26:19Z</time>
      </trkpt>
      <trkpt lat="-28.317395" lon="-65.6195">
        <ele>777.9</ele>
        <time>2018-08-18T14:26:21Z</time>
      </trkpt>
      <trkpt lat="-28.31737" lon="-65.61951">
        <ele>778.1</ele>
        <time>2018-08-18T14:26:33Z</time>
      </trkpt>
      <trkpt lat="-28.31739" lon="-65.61956">
        <ele>778.0</ele>
        <time>2018-08-18T14:26:40Z</time>
      </trkpt>
      <trkpt lat="-28.31738" lon="-65.61956">
        <ele>778.0</ele>
        <time>2018-08-18T14:26:43Z</time>
      </trkpt>
      <trkpt lat="-28.31735" lon="-65.619545">
        <ele>778.0</ele>
        <time>2018-08-18T14:26:51Z</time>
      </trkpt>
      <trkpt lat="-28.31735" lon="-65.61953">
        <ele>778.1</ele>
        <time>2018-08-18T14:26:52Z</time>
      </trkpt>
      <trkpt lat="-28.31733" lon="-65.619505">
        <ele>778.1</ele>
        <time>2018-08-18T14:27:01Z</time>
      </trkpt>
      <trkpt lat="-28.31733" lon="-65.619505">
        <ele>778.1</ele>
        <time>2018-08-18T14:27:02Z</time>
      </trkpt>
      <trkpt lat="-28.317355" lon="-65.619505">
        <ele>778.2</ele>
        <time>2018-08-18T14:27:12Z</time>
      </trkpt>
      <trkpt lat="-28.317355" lon="-65.619505">
        <ele>778.2</ele>
        <time>2018-08-18T14:27:13Z</time>
      </trkpt>
      <trkpt lat="-28.31737" lon="-65.619515">
        <ele>778.2</ele>
        <time>2018-08-18T14:27:24Z</time>
      </trkpt>
      <trkpt lat="-28.31737" lon="-65.61951333333333">
        <ele>778.2</ele>
        <time>2018-08-18T14:27:25Z</time>
      </trkpt>
      <trkpt lat="-28.31739" lon="-65.61951166666667">
        <ele>778.0</ele>
        <time>2018-08-18T14:27:35Z</time>
      </trkpt>
      <trkpt lat="-28.31739" lon="-65.61951166666667">
        <ele>777.9</ele>
        <time>2018-08-18T14:27:36Z</time>
      </trkpt>
      <trkpt lat="-28.317405" lon="-65.619515">
        <ele>777.8</ele>
        <time>2018-08-18T14:27:46Z</time>
      </trkpt>
      <trkpt lat="-28.317405" lon="-65.61951333333333">
        <ele>777.8</ele>
        <time>2018-08-18T14:27:47Z</time>
      </trkpt>
      <trkpt lat="-28.317435" lon="-65.619505">
        <ele>777.9</ele>
        <time>2018-08-18T14:28:03Z</time>
      </trkpt>
      <trkpt lat="-28.317435" lon="-65.619505">
        <ele>777.9</ele>
        <time>2018-08-18T14:28:04Z</time>
      </trkpt>
      <trkpt lat="-28.317425" lon="-65.61951666666667">
        <ele>778.0</ele>
        <time>2018-08-18T14:28:23Z</time>
      </trkpt>
      <trkpt lat="-28.317425" lon="-65.61953">
        <ele>778.0</ele>
        <time>2018-08-18T14:28:24Z</time>
      </trkpt>
      <trkpt lat="-28.317415" lon="-65.61954">
        <ele>777.8</ele>
        <time>2018-08-18T14:28:37Z</time>
      </trkpt>
      <trkpt lat="-28.317415" lon="-65.61954">
        <ele>777.8</ele>
        <time>2018-08-18T14:28:38Z</time>
      </trkpt>
      <trkpt lat="-28.31744" lon="-65.61955">
        <ele>777.7</ele>
        <time>2018-08-18T14:28:56Z</time>
      </trkpt>
      <trkpt lat="-28.317445" lon="-65.61955">
        <ele>777.7</ele>
        <time>2018-08-18T14:28:57Z</time>
      </trkpt>
      <trkpt lat="-28.317455" lon="-65.61956">
        <ele>777.4</ele>
        <time>2018-08-18T14:29:12Z</time>
      </trkpt>
      <trkpt lat="-28.317455" lon="-65.61956">
        <ele>777.4</ele>
        <time>2018-08-18T14:29:13Z</time>
      </trkpt>
      <trkpt lat="-28.317455" lon="-65.619545">
        <ele>777.4</ele>
        <time>2018-08-18T14:29:22Z</time>
      </trkpt>
      <trkpt lat="-28.317455" lon="-65.619545">
        <ele>777.4</ele>
        <time>2018-08-18T14:29:23Z</time>
      </trkpt>
      <trkpt lat="-28.317445" lon="-65.61954">
        <ele>777.4</ele>
        <time>2018-08-18T14:29:39Z</time>
      </trkpt>
      <trkpt lat="-28.317445" lon="-65.61953">
        <ele>777.4</ele>
        <time>2018-08-18T14:29:40Z</time>
      </trkpt>
      <trkpt lat="-28.317405" lon="-65.619505">
        <ele>777.5</ele>
        <time>2018-08-18T14:29:49Z</time>
      </trkpt>
      <trkpt lat="-28.3174" lon="-65.619505">
        <ele>777.6</ele>
        <time>2018-08-18T14:29:50Z</time>
      </trkpt>
      <trkpt lat="-28.317365" lon="-65.6195">
        <ele>777.7</ele>
        <time>2018-08-18T14:29:58Z</time>
      </trkpt>
      <trkpt lat="-28.31736" lon="-65.6195">
        <ele>777.7</ele>
        <time>2018-08-18T14:29:59Z</time>
      </trkpt>
      <trkpt lat="-28.317385" lon="-65.61951666666667">
        <ele>777.6</ele>
        <time>2018-08-18T14:30:09Z</time>
      </trkpt>
      <trkpt lat="-28.31739" lon="-65.61951833333333">
        <ele>777.6</ele>
        <time>2018-08-18T14:30:10Z</time>
      </trkpt>
      <trkpt lat="-28.31733" lon="-65.619465">
        <ele>777.1</ele>
        <time>2018-08-18T14:31:37Z</time>
      </trkpt>
      <trkpt lat="-28.317255" lon="-65.619465">
        <ele>777.3</ele>
        <time>2018-08-18T14:31:42Z</time>
      </trkpt>
      <trkpt lat="-28.31718" lon="-65.61946">
        <ele>777.3</ele>
        <time>2018-08-18T14:31:48Z</time>
      </trkpt>
      <trkpt lat="-28.317095" lon="-65.619445">
        <ele>777.2</ele>
        <time>2018-08-18T14:31:53Z</time>
      </trkpt>
      <trkpt lat="-28.31701" lon="-65.61943333333333">
        <ele>777.1</ele>
        <time>2018-08-18T14:31:58Z</time>
      </trkpt>
      <trkpt lat="-28.31693" lon="-65.61943333333333">
        <ele>777.1</ele>
        <time>2018-08-18T14:32:02Z</time>
      </trkpt>
      <trkpt lat="-28.316835" lon="-65.61942833333333">
        <ele>776.9</ele>
        <time>2018-08-18T14:32:06Z</time>
      </trkpt>
      <trkpt lat="-28.31676" lon="-65.61942">
        <ele>776.7</ele>
        <time>2018-08-18T14:32:09Z</time>
      </trkpt>
      <trkpt lat="-28.316685" lon="-65.61942166666667">
        <ele>776.6</ele>
        <time>2018-08-18T14:32:12Z</time>
      </trkpt>
      <trkpt lat="-28.31661" lon="-65.61943166666667">
        <ele>776.5</ele>
        <time>2018-08-18T14:32:15Z</time>
      </trkpt>
      <trkpt lat="-28.316535000000002" lon="-65.61946">
        <ele>776.4</ele>
        <time>2018-08-18T14:32:18Z</time>
      </trkpt>
      <trkpt lat="-28.31646" lon="-65.61949">
        <ele>776.4</ele>
        <time>2018-08-18T14:32:21Z</time>
      </trkpt>
      <trkpt lat="-28.316375" lon="-65.619505">
        <ele>776.6</ele>
        <time>2018-08-18T14:32:25Z</time>
      </trkpt>
      <trkpt lat="-28.31629" lon="-65.619545">
        <ele>776.9</ele>
        <time>2018-08-18T14:32:29Z</time>
      </trkpt>
      <trkpt lat="-28.316205" lon="-65.61954">
        <ele>777.1</ele>
        <time>2018-08-18T14:32:33Z</time>
      </trkpt>
      <trkpt lat="-28.3161" lon="-65.619515">
        <ele>775.9</ele>
        <time>2018-08-18T14:32:36Z</time>
      </trkpt>
      <trkpt lat="-28.316015" lon="-65.619495">
        <ele>775.0</ele>
        <time>2018-08-18T14:32:38Z</time>
      </trkpt>
      <trkpt lat="-28.3159" lon="-65.619445">
        <ele>774.3</ele>
        <time>2018-08-18T14:32:40Z</time>
      </trkpt>
      <trkpt lat="-28.31579" lon="-65.619415">
        <ele>774.1</ele>
        <time>2018-08-18T14:32:42Z</time>
      </trkpt>
      <trkpt lat="-28.3157" lon="-65.61938">
        <ele>774.4</ele>
        <time>2018-08-18T14:32:44Z</time>
      </trkpt>
      <trkpt lat="-28.31559" lon="-65.61937">
        <ele>774.3</ele>
        <time>2018-08-18T14:32:46Z</time>
      </trkpt>
      <trkpt lat="-28.315485" lon="-65.61938">
        <ele>774.1</ele>
        <time>2018-08-18T14:32:48Z</time>
      </trkpt>
      <trkpt lat="-28.315375" lon="-65.61941">
        <ele>773.2</ele>
        <time>2018-08-18T14:32:50Z</time>
      </trkpt>
      <trkpt lat="-28.31527" lon="-65.619445">
        <ele>771.9</ele>
        <time>2018-08-18T14:32:52Z</time>
      </trkpt>
      <trkpt lat="-28.315165" lon="-65.619485">
        <ele>770.7</ele>
        <time>2018-08-18T14:32:54Z</time>
      </trkpt>
      <trkpt lat="-28.315055" lon="-65.61954">
        <ele>770.4</ele>
        <time>2018-08-18T14:32:56Z</time>
      </trkpt>
      <trkpt lat="-28.31496" lon="-65.619595">
        <ele>769.9</ele>
        <time>2018-08-18T14:32:58Z</time>
      </trkpt>
      <trkpt lat="-28.31484" lon="-65.61967">
        <ele>769.7</ele>
        <time>2018-08-18T14:33:00Z</time>
      </trkpt>
      <trkpt lat="-28.314715" lon="-65.61973">
        <ele>770.0</ele>
        <time>2018-08-18T14:33:02Z</time>
      </trkpt>
      <trkpt lat="-28.314605" lon="-65.619775">
        <ele>771.0</ele>
        <time>2018-08-18T14:33:04Z</time>
      </trkpt>
      <trkpt lat="-28.31451" lon="-65.61981">
        <ele>772.3</ele>
        <time>2018-08-18T14:33:06Z</time>
      </trkpt>
      <trkpt lat="-28.314415" lon="-65.619825">
        <ele>773.1</ele>
        <time>2018-08-18T14:33:08Z</time>
      </trkpt>
      <trkpt lat="-28.31431" lon="-65.61985">
        <ele>774.7</ele>
        <time>2018-08-18T14:33:11Z</time>
      </trkpt>
      <trkpt lat="-28.314235" lon="-65.619855">
        <ele>775.5</ele>
        <time>2018-08-18T14:33:13Z</time>
      </trkpt>
      <trkpt lat="-28.314145" lon="-65.61986">
        <ele>776.0</ele>
        <time>2018-08-18T14:33:15Z</time>
      </trkpt>
      <trkpt lat="-28.314065" lon="-65.61986">
        <ele>776.3</ele>
        <time>2018-08-18T14:33:17Z</time>
      </trkpt>
      <trkpt lat="-28.313985" lon="-65.61986">
        <ele>776.4</ele>
        <time>2018-08-18T14:33:19Z</time>
      </trkpt>
      <trkpt lat="-28.3139" lon="-65.61986">
        <ele>776.6</ele>
        <time>2018-08-18T14:33:21Z</time>
      </trkpt>
      <trkpt lat="-28.31382" lon="-65.61986">
        <ele>776.3</ele>
        <time>2018-08-18T14:33:23Z</time>
      </trkpt>
      <trkpt lat="-28.31374" lon="-65.61986">
        <ele>775.5</ele>
        <time>2018-08-18T14:33:25Z</time>
      </trkpt>
      <trkpt lat="-28.31362" lon="-65.61987">
        <ele>775.3</ele>
        <time>2018-08-18T14:33:28Z</time>
      </trkpt>
      <trkpt lat="-28.313535" lon="-65.619885">
        <ele>776.2</ele>
        <time>2018-08-18T14:33:30Z</time>
      </trkpt>
      <trkpt lat="-28.31345" lon="-65.619895">
        <ele>776.7</ele>
        <time>2018-08-18T14:33:32Z</time>
      </trkpt>
      <trkpt lat="-28.313375" lon="-65.619905">
        <ele>777.1</ele>
        <time>2018-08-18T14:33:34Z</time>
      </trkpt>
      <trkpt lat="-28.3133" lon="-65.619915">
        <ele>776.9</ele>
        <time>2018-08-18T14:33:36Z</time>
      </trkpt>
      <trkpt lat="-28.313205" lon="-65.619945">
        <ele>776.5</ele>
        <time>2018-08-18T14:33:39Z</time>
      </trkpt>
      <trkpt lat="-28.313115" lon="-65.61996166666667">
        <ele>775.6</ele>
        <time>2018-08-18T14:33:41Z</time>
      </trkpt>
      <trkpt lat="-28.31304" lon="-65.61999">
        <ele>775.6</ele>
        <time>2018-08-18T14:33:43Z</time>
      </trkpt>
      <trkpt lat="-28.312945" lon="-65.620005">
        <ele>775.5</ele>
        <time>2018-08-18T14:33:45Z</time>
      </trkpt>
      <trkpt lat="-28.31287" lon="-65.620035">
        <ele>775.5</ele>
        <time>2018-08-18T14:33:47Z</time>
      </trkpt>
      <trkpt lat="-28.31277" lon="-65.620085">
        <ele>775.5</ele>
        <time>2018-08-18T14:33:50Z</time>
      </trkpt>
      <trkpt lat="-28.3127" lon="-65.62012">
        <ele>775.7</ele>
        <time>2018-08-18T14:33:52Z</time>
      </trkpt>
      <trkpt lat="-28.31263" lon="-65.620175">
        <ele>776.0</ele>
        <time>2018-08-18T14:33:55Z</time>
      </trkpt>
      <trkpt lat="-28.312565" lon="-65.62025">
        <ele>776.4</ele>
        <time>2018-08-18T14:33:58Z</time>
      </trkpt>
      <trkpt lat="-28.31251" lon="-65.620345">
        <ele>777.0</ele>
        <time>2018-08-18T14:34:01Z</time>
      </trkpt>
      <trkpt lat="-28.312455" lon="-65.62043">
        <ele>777.4</ele>
        <time>2018-08-18T14:34:04Z</time>
      </trkpt>
      <trkpt lat="-28.312405" lon="-65.620515">
        <ele>777.6</ele>
        <time>2018-08-18T14:34:07Z</time>
      </trkpt>
      <trkpt lat="-28.312365" lon="-65.62058833333333">
        <ele>778.0</ele>
        <time>2018-08-18T14:34:10Z</time>
      </trkpt>
      <trkpt lat="-28.31233" lon="-65.62067666666667">
        <ele>778.6</ele>
        <time>2018-08-18T14:34:14Z</time>
      </trkpt>
      <trkpt lat="-28.31228" lon="-65.62076">
        <ele>779.3</ele>
        <time>2018-08-18T14:34:18Z</time>
      </trkpt>
      <trkpt lat="-28.31223" lon="-65.62084">
        <ele>779.6</ele>
        <time>2018-08-18T14:34:21Z</time>
      </trkpt>
      <trkpt lat="-28.312175" lon="-65.62092">
        <ele>779.9</ele>
        <time>2018-08-18T14:34:24Z</time>
      </trkpt>
      <trkpt lat="-28.31212" lon="-65.62101">
        <ele>780.3</ele>
        <time>2018-08-18T14:34:27Z</time>
      </trkpt>
      <trkpt lat="-28.312065" lon="-65.62108">
        <ele>780.6</ele>
        <time>2018-08-18T14:34:30Z</time>
      </trkpt>
      <trkpt lat="-28.312015" lon="-65.62116666666667">
        <ele>780.9</ele>
        <time>2018-08-18T14:34:33Z</time>
      </trkpt>
      <trkpt lat="-28.31195" lon="-65.62126">
        <ele>781.2</ele>
        <time>2018-08-18T14:34:36Z</time>
      </trkpt>
      <trkpt lat="-28.31189" lon="-65.62135166666667">
        <ele>781.6</ele>
        <time>2018-08-18T14:34:39Z</time>
      </trkpt>
      <trkpt lat="-28.31183" lon="-65.621435">
        <ele>782.0</ele>
        <time>2018-08-18T14:34:42Z</time>
      </trkpt>
      <trkpt lat="-28.31177" lon="-65.6215">
        <ele>782.3</ele>
        <time>2018-08-18T14:34:45Z</time>
      </trkpt>
      <trkpt lat="-28.311705" lon="-65.621575">
        <ele>782.6</ele>
        <time>2018-08-18T14:34:48Z</time>
      </trkpt>
      <trkpt lat="-28.31163" lon="-65.621655">
        <ele>784.3</ele>
        <time>2018-08-18T14:34:51Z</time>
      </trkpt>
      <trkpt lat="-28.311565" lon="-65.6217">
        <ele>785.6</ele>
        <time>2018-08-18T14:34:53Z</time>
      </trkpt>
      <trkpt lat="-28.31148" lon="-65.62178">
        <ele>785.9</ele>
        <time>2018-08-18T14:34:56Z</time>
      </trkpt>
      <trkpt lat="-28.3114" lon="-65.621855">
        <ele>785.8</ele>
        <time>2018-08-18T14:34:59Z</time>
      </trkpt>
      <trkpt lat="-28.31133" lon="-65.62193">
        <ele>785.6</ele>
        <time>2018-08-18T14:35:02Z</time>
      </trkpt>
      <trkpt lat="-28.311265" lon="-65.622005">
        <ele>785.5</ele>
        <time>2018-08-18T14:35:05Z</time>
      </trkpt>
      <trkpt lat="-28.31119" lon="-65.62209">
        <ele>785.4</ele>
        <time>2018-08-18T14:35:08Z</time>
      </trkpt>
      <trkpt lat="-28.311145" lon="-65.622175">
        <ele>785.5</ele>
        <time>2018-08-18T14:35:11Z</time>
      </trkpt>
      <trkpt lat="-28.311095" lon="-65.622235">
        <ele>785.5</ele>
        <time>2018-08-18T14:35:13Z</time>
      </trkpt>
      <trkpt lat="-28.31104" lon="-65.62231">
        <ele>785.5</ele>
        <time>2018-08-18T14:35:17Z</time>
      </trkpt>
      <trkpt lat="-28.310975" lon="-65.62238166666667">
        <ele>785.6</ele>
        <time>2018-08-18T14:35:20Z</time>
      </trkpt>
      <trkpt lat="-28.310925" lon="-65.622455">
        <ele>785.6</ele>
        <time>2018-08-18T14:35:22Z</time>
      </trkpt>
      <trkpt lat="-28.310855" lon="-65.622535">
        <ele>785.6</ele>
        <time>2018-08-18T14:35:25Z</time>
      </trkpt>
      <trkpt lat="-28.310805" lon="-65.6226">
        <ele>785.6</ele>
        <time>2018-08-18T14:35:27Z</time>
      </trkpt>
      <trkpt lat="-28.310735" lon="-65.622685">
        <ele>785.6</ele>
        <time>2018-08-18T14:35:30Z</time>
      </trkpt>
      <trkpt lat="-28.310665" lon="-65.622765">
        <ele>785.7</ele>
        <time>2018-08-18T14:35:33Z</time>
      </trkpt>
      <trkpt lat="-28.31061" lon="-65.62286">
        <ele>785.8</ele>
        <time>2018-08-18T14:35:36Z</time>
      </trkpt>
      <trkpt lat="-28.310545" lon="-65.622935">
        <ele>785.7</ele>
        <time>2018-08-18T14:35:39Z</time>
      </trkpt>
      <trkpt lat="-28.310475" lon="-65.62302">
        <ele>785.8</ele>
        <time>2018-08-18T14:35:42Z</time>
      </trkpt>
      <trkpt lat="-28.310405" lon="-65.623095">
        <ele>785.9</ele>
        <time>2018-08-18T14:35:45Z</time>
      </trkpt>
      <trkpt lat="-28.31032" lon="-65.62318166666667">
        <ele>786.0</ele>
        <time>2018-08-18T14:35:48Z</time>
      </trkpt>
      <trkpt lat="-28.31025" lon="-65.623245">
        <ele>786.2</ele>
        <time>2018-08-18T14:35:51Z</time>
      </trkpt>
      <trkpt lat="-28.31019" lon="-65.623295">
        <ele>786.2</ele>
        <time>2018-08-18T14:35:53Z</time>
      </trkpt>
      <trkpt lat="-28.31013" lon="-65.623345">
        <ele>786.1</ele>
        <time>2018-08-18T14:35:55Z</time>
      </trkpt>
      <trkpt lat="-28.310045" lon="-65.623405">
        <ele>786.0</ele>
        <time>2018-08-18T14:35:58Z</time>
      </trkpt>
      <trkpt lat="-28.30998" lon="-65.623445">
        <ele>785.9</ele>
        <time>2018-08-18T14:36:00Z</time>
      </trkpt>
      <trkpt lat="-28.309895" lon="-65.6235">
        <ele>785.7</ele>
        <time>2018-08-18T14:36:03Z</time>
      </trkpt>
      <trkpt lat="-28.3098" lon="-65.62354833333333">
        <ele>785.5</ele>
        <time>2018-08-18T14:36:06Z</time>
      </trkpt>
      <trkpt lat="-28.30973" lon="-65.62358833333333">
        <ele>784.2</ele>
        <time>2018-08-18T14:36:08Z</time>
      </trkpt>
      <trkpt lat="-28.309645" lon="-65.62363">
        <ele>782.7</ele>
        <time>2018-08-18T14:36:10Z</time>
      </trkpt>
      <trkpt lat="-28.30956" lon="-65.62367">
        <ele>781.2</ele>
        <time>2018-08-18T14:36:12Z</time>
      </trkpt>
      <trkpt lat="-28.309465" lon="-65.623715">
        <ele>781.2</ele>
        <time>2018-08-18T14:36:15Z</time>
      </trkpt>
      <trkpt lat="-28.3094" lon="-65.62375">
        <ele>781.2</ele>
        <time>2018-08-18T14:36:17Z</time>
      </trkpt>
      <trkpt lat="-28.309325" lon="-65.623795">
        <ele>781.5</ele>
        <time>2018-08-18T14:36:20Z</time>
      </trkpt>
      <trkpt lat="-28.309255" lon="-65.623825">
        <ele>781.6</ele>
        <time>2018-08-18T14:36:22Z</time>
      </trkpt>
      <trkpt lat="-28.309175" lon="-65.623845">
        <ele>781.7</ele>
        <time>2018-08-18T14:36:24Z</time>
      </trkpt>
      <trkpt lat="-28.30911" lon="-65.623875">
        <ele>781.8</ele>
        <time>2018-08-18T14:36:26Z</time>
      </trkpt>
      <trkpt lat="-28.30902" lon="-65.62392">
        <ele>782.0</ele>
        <time>2018-08-18T14:36:29Z</time>
      </trkpt>
      <trkpt lat="-28.308935" lon="-65.62396">
        <ele>782.3</ele>
        <time>2018-08-18T14:36:32Z</time>
      </trkpt>
      <trkpt lat="-28.30884" lon="-65.624005">
        <ele>782.7</ele>
        <time>2018-08-18T14:36:35Z</time>
      </trkpt>
      <trkpt lat="-28.30875" lon="-65.624035">
        <ele>783.0</ele>
        <time>2018-08-18T14:36:38Z</time>
      </trkpt>
      <trkpt lat="-28.308645" lon="-65.62408166666667">
        <ele>783.3</ele>
        <time>2018-08-18T14:36:41Z</time>
      </trkpt>
      <trkpt lat="-28.30855" lon="-65.62413">
        <ele>783.5</ele>
        <time>2018-08-18T14:36:44Z</time>
      </trkpt>
      <trkpt lat="-28.30846" lon="-65.62417">
        <ele>783.7</ele>
        <time>2018-08-18T14:36:47Z</time>
      </trkpt>
      <trkpt lat="-28.308375" lon="-65.624215">
        <ele>783.8</ele>
        <time>2018-08-18T14:36:50Z</time>
      </trkpt>
      <trkpt lat="-28.30828" lon="-65.62426">
        <ele>783.9</ele>
        <time>2018-08-18T14:36:53Z</time>
      </trkpt>
      <trkpt lat="-28.30821" lon="-65.624295">
        <ele>784.0</ele>
        <time>2018-08-18T14:36:55Z</time>
      </trkpt>
      <trkpt lat="-28.308125" lon="-65.62431166666667">
        <ele>784.1</ele>
        <time>2018-08-18T14:36:58Z</time>
      </trkpt>
      <trkpt lat="-28.30814" lon="-65.62437">
        <ele>784.8</ele>
        <time>2018-08-18T14:37:05Z</time>
      </trkpt>
      <trkpt lat="-28.30822" lon="-65.624335">
        <ele>785.2</ele>
        <time>2018-08-18T14:37:09Z</time>
      </trkpt>
      <trkpt lat="-28.308315" lon="-65.624285">
        <ele>786.4</ele>
        <time>2018-08-18T14:37:12Z</time>
      </trkpt>
      <trkpt lat="-28.308385" lon="-65.62425">
        <ele>786.9</ele>
        <time>2018-08-18T14:37:14Z</time>
      </trkpt>
      <trkpt lat="-28.308455" lon="-65.624205">
        <ele>786.9</ele>
        <time>2018-08-18T14:37:16Z</time>
      </trkpt>
      <trkpt lat="-28.308525" lon="-65.624165">
        <ele>786.9</ele>
        <time>2018-08-18T14:37:18Z</time>
      </trkpt>
      <trkpt lat="-28.308615" lon="-65.62413">
        <ele>787.0</ele>
        <time>2018-08-18T14:37:21Z</time>
      </trkpt>
      <trkpt lat="-28.308705" lon="-65.6241">
        <ele>787.0</ele>
        <time>2018-08-18T14:37:24Z</time>
      </trkpt>
      <trkpt lat="-28.30879" lon="-65.62407">
        <ele>786.9</ele>
        <time>2018-08-18T14:37:27Z</time>
      </trkpt>
      <trkpt lat="-28.30878" lon="-65.623975">
        <ele>786.9</ele>
        <time>2018-08-18T14:37:34Z</time>
      </trkpt>
      <trkpt lat="-28.308715" lon="-65.624015">
        <ele>786.8</ele>
        <time>2018-08-18T14:37:40Z</time>
      </trkpt>
      <trkpt lat="-28.308625" lon="-65.62407">
        <ele>786.6</ele>
        <time>2018-08-18T14:37:46Z</time>
      </trkpt>
      <trkpt lat="-28.30856" lon="-65.62412">
        <ele>786.6</ele>
        <time>2018-08-18T14:37:49Z</time>
      </trkpt>
      <trkpt lat="-28.30848" lon="-65.62416">
        <ele>786.6</ele>
        <time>2018-08-18T14:37:52Z</time>
      </trkpt>
      <trkpt lat="-28.30841" lon="-65.624195">
        <ele>787.2</ele>
        <time>2018-08-18T14:37:54Z</time>
      </trkpt>
      <trkpt lat="-28.3083" lon="-65.62425">
        <ele>789.0</ele>
        <time>2018-08-18T14:37:57Z</time>
      </trkpt>
      <trkpt lat="-28.30821" lon="-65.624285">
        <ele>788.9</ele>
        <time>2018-08-18T14:37:59Z</time>
      </trkpt>
      <trkpt lat="-28.308125" lon="-65.624325">
        <ele>788.8</ele>
        <time>2018-08-18T14:38:01Z</time>
      </trkpt>
      <trkpt lat="-28.308055" lon="-65.62435166666667">
        <ele>788.7</ele>
        <time>2018-08-18T14:38:03Z</time>
      </trkpt>
      <trkpt lat="-28.30797" lon="-65.624385">
        <ele>789.2</ele>
        <time>2018-08-18T14:38:05Z</time>
      </trkpt>
      <trkpt lat="-28.3079" lon="-65.624415">
        <ele>789.9</ele>
        <time>2018-08-18T14:38:07Z</time>
      </trkpt>
      <trkpt lat="-28.30782" lon="-65.62443666666667">
        <ele>790.1</ele>
        <time>2018-08-18T14:38:09Z</time>
      </trkpt>
      <trkpt lat="-28.307745" lon="-65.624475">
        <ele>789.8</ele>
        <time>2018-08-18T14:38:11Z</time>
      </trkpt>
      <trkpt lat="-28.307675" lon="-65.6245">
        <ele>789.2</ele>
        <time>2018-08-18T14:38:13Z</time>
      </trkpt>
      <trkpt lat="-28.307605" lon="-65.62452">
        <ele>788.4</ele>
        <time>2018-08-18T14:38:15Z</time>
      </trkpt>
      <trkpt lat="-28.30753" lon="-65.62452166666667">
        <ele>788.1</ele>
        <time>2018-08-18T14:38:17Z</time>
      </trkpt>
      <trkpt lat="-28.30745" lon="-65.62452666666667">
        <ele>787.5</ele>
        <time>2018-08-18T14:38:19Z</time>
      </trkpt>
      <trkpt lat="-28.307365" lon="-65.62452333333333">
        <ele>787.4</ele>
        <time>2018-08-18T14:38:21Z</time>
      </trkpt>
      <trkpt lat="-28.307295" lon="-65.62452">
        <ele>786.9</ele>
        <time>2018-08-18T14:38:23Z</time>
      </trkpt>
      <trkpt lat="-28.30719" lon="-65.62451">
        <ele>786.6</ele>
        <time>2018-08-18T14:38:26Z</time>
      </trkpt>
      <trkpt lat="-28.307105" lon="-65.62448333333333">
        <ele>786.6</ele>
        <time>2018-08-18T14:38:28Z</time>
      </trkpt>
      <trkpt lat="-28.307025" lon="-65.62447">
        <ele>786.8</ele>
        <time>2018-08-18T14:38:30Z</time>
      </trkpt>
      <trkpt lat="-28.306945" lon="-65.62444">
        <ele>787.0</ele>
        <time>2018-08-18T14:38:33Z</time>
      </trkpt>
      <trkpt lat="-28.30687" lon="-65.62443">
        <ele>787.1</ele>
        <time>2018-08-18T14:38:36Z</time>
      </trkpt>
      <trkpt lat="-28.306785" lon="-65.62442">
        <ele>787.3</ele>
        <time>2018-08-18T14:38:40Z</time>
      </trkpt>
      <trkpt lat="-28.306685" lon="-65.624395">
        <ele>787.5</ele>
        <time>2018-08-18T14:38:44Z</time>
      </trkpt>
      <trkpt lat="-28.3066" lon="-65.62439">
        <ele>787.8</ele>
        <time>2018-08-18T14:38:48Z</time>
      </trkpt>
      <trkpt lat="-28.3065" lon="-65.62437">
        <ele>787.9</ele>
        <time>2018-08-18T14:38:51Z</time>
      </trkpt>
      <trkpt lat="-28.306415" lon="-65.62434666666667">
        <ele>787.8</ele>
        <time>2018-08-18T14:38:53Z</time>
      </trkpt>
      <trkpt lat="-28.306345" lon="-65.62434">
        <ele>787.6</ele>
        <time>2018-08-18T14:38:55Z</time>
      </trkpt>
      <trkpt lat="-28.30624" lon="-65.624325">
        <ele>787.3</ele>
        <time>2018-08-18T14:38:58Z</time>
      </trkpt>
      <trkpt lat="-28.306155" lon="-65.624305">
        <ele>787.2</ele>
        <time>2018-08-18T14:39:01Z</time>
      </trkpt>
      <trkpt lat="-28.30606" lon="-65.624285">
        <ele>787.2</ele>
        <time>2018-08-18T14:39:04Z</time>
      </trkpt>
      <trkpt lat="-28.30596" lon="-65.62426">
        <ele>787.1</ele>
        <time>2018-08-18T14:39:07Z</time>
      </trkpt>
      <trkpt lat="-28.305885" lon="-65.624245">
        <ele>787.1</ele>
        <time>2018-08-18T14:39:09Z</time>
      </trkpt>
      <trkpt lat="-28.305805" lon="-65.62423">
        <ele>787.2</ele>
        <time>2018-08-18T14:39:11Z</time>
      </trkpt>
      <trkpt lat="-28.3057" lon="-65.62421833333333">
        <ele>787.2</ele>
        <time>2018-08-18T14:39:14Z</time>
      </trkpt>
      <trkpt lat="-28.3056" lon="-65.624205">
        <ele>787.2</ele>
        <time>2018-08-18T14:39:17Z</time>
      </trkpt>
      <trkpt lat="-28.30551" lon="-65.62419">
        <ele>787.5</ele>
        <time>2018-08-18T14:39:20Z</time>
      </trkpt>
      <trkpt lat="-28.30543" lon="-65.624165">
        <ele>787.8</ele>
        <time>2018-08-18T14:39:23Z</time>
      </trkpt>
      <trkpt lat="-28.305345" lon="-65.624145">
        <ele>788.0</ele>
        <time>2018-08-18T14:39:26Z</time>
      </trkpt>
      <trkpt lat="-28.30527" lon="-65.62412166666667">
        <ele>788.1</ele>
        <time>2018-08-18T14:39:28Z</time>
      </trkpt>
      <trkpt lat="-28.30518" lon="-65.62411">
        <ele>788.3</ele>
        <time>2018-08-18T14:39:31Z</time>
      </trkpt>
      <trkpt lat="-28.305075" lon="-65.62408666666667">
        <ele>790.2</ele>
        <time>2018-08-18T14:39:34Z</time>
      </trkpt>
      <trkpt lat="-28.304995" lon="-65.62408">
        <ele>790.7</ele>
        <time>2018-08-18T14:39:36Z</time>
      </trkpt>
      <trkpt lat="-28.30492" lon="-65.62407">
        <ele>791.5</ele>
        <time>2018-08-18T14:39:38Z</time>
      </trkpt>
      <trkpt lat="-28.30484" lon="-65.62405">
        <ele>791.9</ele>
        <time>2018-08-18T14:39:40Z</time>
      </trkpt>
      <trkpt lat="-28.30473" lon="-65.624035">
        <ele>792.3</ele>
        <time>2018-08-18T14:39:43Z</time>
      </trkpt>
      <trkpt lat="-28.30462" lon="-65.62402">
        <ele>792.2</ele>
        <time>2018-08-18T14:39:46Z</time>
      </trkpt>
      <trkpt lat="-28.304545" lon="-65.62402">
        <ele>791.8</ele>
        <time>2018-08-18T14:39:49Z</time>
      </trkpt>
      <trkpt lat="-28.304445" lon="-65.624005">
        <ele>791.5</ele>
        <time>2018-08-18T14:39:52Z</time>
      </trkpt>
      <trkpt lat="-28.304365" lon="-65.62397833333333">
        <ele>791.5</ele>
        <time>2018-08-18T14:39:55Z</time>
      </trkpt>
      <trkpt lat="-28.30428" lon="-65.623965">
        <ele>791.7</ele>
        <time>2018-08-18T14:39:58Z</time>
      </trkpt>
      <trkpt lat="-28.304205" lon="-65.62394">
        <ele>791.9</ele>
        <time>2018-08-18T14:40:01Z</time>
      </trkpt>
      <trkpt lat="-28.304125" lon="-65.62394">
        <ele>792.1</ele>
        <time>2018-08-18T14:40:04Z</time>
      </trkpt>
      <trkpt lat="-28.304031666666667" lon="-65.623935">
        <ele>792.3</ele>
        <time>2018-08-18T14:40:08Z</time>
      </trkpt>
      <trkpt lat="-28.30395" lon="-65.62392">
        <ele>792.4</ele>
        <time>2018-08-18T14:40:13Z</time>
      </trkpt>
      <trkpt lat="-28.30387" lon="-65.62390666666667">
        <ele>792.5</ele>
        <time>2018-08-18T14:40:17Z</time>
      </trkpt>
      <trkpt lat="-28.303785" lon="-65.62390166666667">
        <ele>792.5</ele>
        <time>2018-08-18T14:40:22Z</time>
      </trkpt>
      <trkpt lat="-28.3037" lon="-65.623895">
        <ele>792.4</ele>
        <time>2018-08-18T14:40:26Z</time>
      </trkpt>
      <trkpt lat="-28.303625" lon="-65.62388">
        <ele>792.5</ele>
        <time>2018-08-18T14:40:30Z</time>
      </trkpt>
      <trkpt lat="-28.30354" lon="-65.623855">
        <ele>792.7</ele>
        <time>2018-08-18T14:40:36Z</time>
      </trkpt>
      <trkpt lat="-28.30346" lon="-65.623855">
        <ele>792.9</ele>
        <time>2018-08-18T14:40:41Z</time>
      </trkpt>
      <trkpt lat="-28.303385" lon="-65.623835">
        <ele>793.3</ele>
        <time>2018-08-18T14:40:47Z</time>
      </trkpt>
      <trkpt lat="-28.3033" lon="-65.62381">
        <ele>793.4</ele>
        <time>2018-08-18T14:40:52Z</time>
      </trkpt>
      <trkpt lat="-28.30322" lon="-65.623795">
        <ele>793.4</ele>
        <time>2018-08-18T14:40:56Z</time>
      </trkpt>
      <trkpt lat="-28.303145" lon="-65.62378">
        <ele>793.5</ele>
        <time>2018-08-18T14:41:00Z</time>
      </trkpt>
      <trkpt lat="-28.303065" lon="-65.62376166666667">
        <ele>793.4</ele>
        <time>2018-08-18T14:41:03Z</time>
      </trkpt>
      <trkpt lat="-28.30296" lon="-65.62375">
        <ele>793.4</ele>
        <time>2018-08-18T14:41:06Z</time>
      </trkpt>
      <trkpt lat="-28.302875" lon="-65.62372">
        <ele>793.2</ele>
        <time>2018-08-18T14:41:08Z</time>
      </trkpt>
      <trkpt lat="-28.302785" lon="-65.62371">
        <ele>793.4</ele>
        <time>2018-08-18T14:41:10Z</time>
      </trkpt>
      <trkpt lat="-28.302685" lon="-65.623695">
        <ele>793.7</ele>
        <time>2018-08-18T14:41:12Z</time>
      </trkpt>
      <trkpt lat="-28.30257" lon="-65.62367">
        <ele>793.4</ele>
        <time>2018-08-18T14:41:14Z</time>
      </trkpt>
      <trkpt lat="-28.30244" lon="-65.62363666666667">
        <ele>793.3</ele>
        <time>2018-08-18T14:41:16Z</time>
      </trkpt>
      <trkpt lat="-28.302325" lon="-65.62362">
        <ele>792.8</ele>
        <time>2018-08-18T14:41:18Z</time>
      </trkpt>
      <trkpt lat="-28.302195" lon="-65.623595">
        <ele>791.7</ele>
        <time>2018-08-18T14:41:20Z</time>
      </trkpt>
      <trkpt lat="-28.30206" lon="-65.623575">
        <ele>791.0</ele>
        <time>2018-08-18T14:41:22Z</time>
      </trkpt>
      <trkpt lat="-28.30192" lon="-65.62354500000001">
        <ele>791.0</ele>
        <time>2018-08-18T14:41:24Z</time>
      </trkpt>
      <trkpt lat="-28.301795" lon="-65.623525">
        <ele>790.7</ele>
        <time>2018-08-18T14:41:26Z</time>
      </trkpt>
      <trkpt lat="-28.301665" lon="-65.6235">
        <ele>790.7</ele>
        <time>2018-08-18T14:41:28Z</time>
      </trkpt>
      <trkpt lat="-28.30159" lon="-65.62349">
        <ele>790.8</ele>
        <time>2018-08-18T14:41:29Z</time>
      </trkpt>
      <trkpt lat="-28.301455" lon="-65.62345666666667">
        <ele>790.7</ele>
        <time>2018-08-18T14:41:31Z</time>
      </trkpt>
      <trkpt lat="-28.30132" lon="-65.623445">
        <ele>790.4</ele>
        <time>2018-08-18T14:41:33Z</time>
      </trkpt>
      <trkpt lat="-28.30124" lon="-65.62343">
        <ele>790.0</ele>
        <time>2018-08-18T14:41:34Z</time>
      </trkpt>
      <trkpt lat="-28.301105" lon="-65.6234">
        <ele>789.6</ele>
        <time>2018-08-18T14:41:36Z</time>
      </trkpt>
      <trkpt lat="-28.30097" lon="-65.62336666666667">
        <ele>789.4</ele>
        <time>2018-08-18T14:41:38Z</time>
      </trkpt>
      <trkpt lat="-28.30085" lon="-65.623345">
        <ele>789.1</ele>
        <time>2018-08-18T14:41:40Z</time>
      </trkpt>
      <trkpt lat="-28.300725" lon="-65.62331">
        <ele>788.8</ele>
        <time>2018-08-18T14:41:42Z</time>
      </trkpt>
      <trkpt lat="-28.30059" lon="-65.62327833333333">
        <ele>788.3</ele>
        <time>2018-08-18T14:41:44Z</time>
      </trkpt>
      <trkpt lat="-28.300465" lon="-65.62326">
        <ele>787.7</ele>
        <time>2018-08-18T14:41:46Z</time>
      </trkpt>
      <trkpt lat="-28.300355" lon="-65.62323">
        <ele>787.9</ele>
        <time>2018-08-18T14:41:48Z</time>
      </trkpt>
      <trkpt lat="-28.300235" lon="-65.623215">
        <ele>787.7</ele>
        <time>2018-08-18T14:41:50Z</time>
      </trkpt>
      <trkpt lat="-28.30012" lon="-65.62318833333333">
        <ele>787.3</ele>
        <time>2018-08-18T14:41:52Z</time>
      </trkpt>
      <trkpt lat="-28.30001" lon="-65.623175">
        <ele>786.9</ele>
        <time>2018-08-18T14:41:54Z</time>
      </trkpt>
      <trkpt lat="-28.2999" lon="-65.623145">
        <ele>786.4</ele>
        <time>2018-08-18T14:41:56Z</time>
      </trkpt>
      <trkpt lat="-28.299805" lon="-65.62313">
        <ele>786.1</ele>
        <time>2018-08-18T14:41:58Z</time>
      </trkpt>
      <trkpt lat="-28.299705" lon="-65.62309833333333">
        <ele>786.5</ele>
        <time>2018-08-18T14:42:00Z</time>
      </trkpt>
      <trkpt lat="-28.299615" lon="-65.623085">
        <ele>787.2</ele>
        <time>2018-08-18T14:42:02Z</time>
      </trkpt>
      <trkpt lat="-28.29954" lon="-65.623065">
        <ele>787.7</ele>
        <time>2018-08-18T14:42:04Z</time>
      </trkpt>
      <trkpt lat="-28.299465" lon="-65.62305">
        <ele>788.2</ele>
        <time>2018-08-18T14:42:06Z</time>
      </trkpt>
      <trkpt lat="-28.29939" lon="-65.62303">
        <ele>788.6</ele>
        <time>2018-08-18T14:42:08Z</time>
      </trkpt>
      <trkpt lat="-28.299315" lon="-65.62300666666667">
        <ele>788.6</ele>
        <time>2018-08-18T14:42:10Z</time>
      </trkpt>
      <trkpt lat="-28.299225" lon="-65.62299">
        <ele>788.6</ele>
        <time>2018-08-18T14:42:12Z</time>
      </trkpt>
      <trkpt lat="-28.29914" lon="-65.622985">
        <ele>788.1</ele>
        <time>2018-08-18T14:42:14Z</time>
      </trkpt>
      <trkpt lat="-28.299055" lon="-65.62295666666667">
        <ele>787.8</ele>
        <time>2018-08-18T14:42:16Z</time>
      </trkpt>
      <trkpt lat="-28.29898" lon="-65.62295">
        <ele>787.8</ele>
        <time>2018-08-18T14:42:18Z</time>
      </trkpt>
      <trkpt lat="-28.2989" lon="-65.622935">
        <ele>787.6</ele>
        <time>2018-08-18T14:42:20Z</time>
      </trkpt>
      <trkpt lat="-28.29882" lon="-65.62291166666667">
        <ele>787.5</ele>
        <time>2018-08-18T14:42:22Z</time>
      </trkpt>
      <trkpt lat="-28.298726666666667" lon="-65.622905">
        <ele>787.9</ele>
        <time>2018-08-18T14:42:24Z</time>
      </trkpt>
      <trkpt lat="-28.29865" lon="-65.62287166666667">
        <ele>789.2</ele>
        <time>2018-08-18T14:42:26Z</time>
      </trkpt>
      <trkpt lat="-28.29855" lon="-65.62285">
        <ele>790.1</ele>
        <time>2018-08-18T14:42:29Z</time>
      </trkpt>
      <trkpt lat="-28.298475" lon="-65.62284">
        <ele>791.1</ele>
        <time>2018-08-18T14:42:31Z</time>
      </trkpt>
      <trkpt lat="-28.298395" lon="-65.622825">
        <ele>791.7</ele>
        <time>2018-08-18T14:42:33Z</time>
      </trkpt>
      <trkpt lat="-28.29831" lon="-65.622815">
        <ele>792.8</ele>
        <time>2018-08-18T14:42:35Z</time>
      </trkpt>
      <trkpt lat="-28.29823" lon="-65.62281">
        <ele>793.1</ele>
        <time>2018-08-18T14:42:37Z</time>
      </trkpt>
      <trkpt lat="-28.29815" lon="-65.622795">
        <ele>793.2</ele>
        <time>2018-08-18T14:42:39Z</time>
      </trkpt>
      <trkpt lat="-28.298065" lon="-65.622805">
        <ele>792.8</ele>
        <time>2018-08-18T14:42:41Z</time>
      </trkpt>
      <trkpt lat="-28.29799" lon="-65.622815">
        <ele>792.1</ele>
        <time>2018-08-18T14:42:43Z</time>
      </trkpt>
      <trkpt lat="-28.297915" lon="-65.622815">
        <ele>792.1</ele>
        <time>2018-08-18T14:42:45Z</time>
      </trkpt>
      <trkpt lat="-28.2978" lon="-65.622825">
        <ele>792.8</ele>
        <time>2018-08-18T14:42:48Z</time>
      </trkpt>
      <trkpt lat="-28.297719999999998" lon="-65.62282833333333">
        <ele>792.9</ele>
        <time>2018-08-18T14:42:50Z</time>
      </trkpt>
      <trkpt lat="-28.297635" lon="-65.62284">
        <ele>793.2</ele>
        <time>2018-08-18T14:42:52Z</time>
      </trkpt>
      <trkpt lat="-28.29755" lon="-65.62286">
        <ele>793.1</ele>
        <time>2018-08-18T14:42:54Z</time>
      </trkpt>
      <trkpt lat="-28.297465" lon="-65.62287">
        <ele>793.4</ele>
        <time>2018-08-18T14:42:56Z</time>
      </trkpt>
      <trkpt lat="-28.29738" lon="-65.6229">
        <ele>793.9</ele>
        <time>2018-08-18T14:42:58Z</time>
      </trkpt>
      <trkpt lat="-28.29729" lon="-65.62291666666667">
        <ele>793.4</ele>
        <time>2018-08-18T14:43:00Z</time>
      </trkpt>
      <trkpt lat="-28.2972" lon="-65.622945">
        <ele>792.3</ele>
        <time>2018-08-18T14:43:02Z</time>
      </trkpt>
      <trkpt lat="-28.29711" lon="-65.62295666666667">
        <ele>791.3</ele>
        <time>2018-08-18T14:43:04Z</time>
      </trkpt>
      <trkpt lat="-28.29703" lon="-65.62299">
        <ele>791.0</ele>
        <time>2018-08-18T14:43:06Z</time>
      </trkpt>
      <trkpt lat="-28.296945" lon="-65.62299666666667">
        <ele>791.8</ele>
        <time>2018-08-18T14:43:08Z</time>
      </trkpt>
      <trkpt lat="-28.29686" lon="-65.62302">
        <ele>792.5</ele>
        <time>2018-08-18T14:43:10Z</time>
      </trkpt>
      <trkpt lat="-28.296755" lon="-65.62304">
        <ele>792.7</ele>
        <time>2018-08-18T14:43:12Z</time>
      </trkpt>
      <trkpt lat="-28.29665" lon="-65.623065">
        <ele>792.7</ele>
        <time>2018-08-18T14:43:14Z</time>
      </trkpt>
      <trkpt lat="-28.296585" lon="-65.623095">
        <ele>793.6</ele>
        <time>2018-08-18T14:43:16Z</time>
      </trkpt>
      <trkpt lat="-28.296495" lon="-65.62312">
        <ele>794.4</ele>
        <time>2018-08-18T14:43:18Z</time>
      </trkpt>
      <trkpt lat="-28.296415" lon="-65.62314333333333">
        <ele>794.9</ele>
        <time>2018-08-18T14:43:20Z</time>
      </trkpt>
      <trkpt lat="-28.29632" lon="-65.62318">
        <ele>794.7</ele>
        <time>2018-08-18T14:43:22Z</time>
      </trkpt>
      <trkpt lat="-28.296225" lon="-65.62322">
        <ele>793.8</ele>
        <time>2018-08-18T14:43:24Z</time>
      </trkpt>
      <trkpt lat="-28.29615" lon="-65.623275">
        <ele>793.4</ele>
        <time>2018-08-18T14:43:26Z</time>
      </trkpt>
      <trkpt lat="-28.29607" lon="-65.62332">
        <ele>792.7</ele>
        <time>2018-08-18T14:43:28Z</time>
      </trkpt>
      <trkpt lat="-28.295985" lon="-65.62336166666667">
        <ele>791.9</ele>
        <time>2018-08-18T14:43:30Z</time>
      </trkpt>
      <trkpt lat="-28.2959" lon="-65.62340666666667">
        <ele>790.9</ele>
        <time>2018-08-18T14:43:32Z</time>
      </trkpt>
      <trkpt lat="-28.29581" lon="-65.62344666666667">
        <ele>791.0</ele>
        <time>2018-08-18T14:43:34Z</time>
      </trkpt>
      <trkpt lat="-28.295725" lon="-65.623485">
        <ele>790.5</ele>
        <time>2018-08-18T14:43:36Z</time>
      </trkpt>
      <trkpt lat="-28.29563" lon="-65.623515">
        <ele>789.7</ele>
        <time>2018-08-18T14:43:38Z</time>
      </trkpt>
      <trkpt lat="-28.295545" lon="-65.623535">
        <ele>789.4</ele>
        <time>2018-08-18T14:43:40Z</time>
      </trkpt>
      <trkpt lat="-28.29546" lon="-65.62354500000001">
        <ele>789.9</ele>
        <time>2018-08-18T14:43:42Z</time>
      </trkpt>
      <trkpt lat="-28.295355" lon="-65.623575">
        <ele>791.7</ele>
        <time>2018-08-18T14:43:45Z</time>
      </trkpt>
      <trkpt lat="-28.295265" lon="-65.623595">
        <ele>791.7</ele>
        <time>2018-08-18T14:43:47Z</time>
      </trkpt>
      <trkpt lat="-28.29518" lon="-65.62363">
        <ele>792.0</ele>
        <time>2018-08-18T14:43:49Z</time>
      </trkpt>
      <trkpt lat="-28.295095" lon="-65.623655">
        <ele>791.6</ele>
        <time>2018-08-18T14:43:51Z</time>
      </trkpt>
      <trkpt lat="-28.29499" lon="-65.623675">
        <ele>791.6</ele>
        <time>2018-08-18T14:43:54Z</time>
      </trkpt>
      <trkpt lat="-28.294905" lon="-65.623715">
        <ele>791.4</ele>
        <time>2018-08-18T14:43:56Z</time>
      </trkpt>
      <trkpt lat="-28.294825" lon="-65.62374">
        <ele>791.0</ele>
        <time>2018-08-18T14:43:58Z</time>
      </trkpt>
      <trkpt lat="-28.294745" lon="-65.62376166666667">
        <ele>790.4</ele>
        <time>2018-08-18T14:44:00Z</time>
      </trkpt>
      <trkpt lat="-28.294665" lon="-65.6238">
        <ele>790.3</ele>
        <time>2018-08-18T14:44:02Z</time>
      </trkpt>
      <trkpt lat="-28.294575" lon="-65.623825">
        <ele>790.5</ele>
        <time>2018-08-18T14:44:04Z</time>
      </trkpt>
      <trkpt lat="-28.294465" lon="-65.623855">
        <ele>790.6</ele>
        <time>2018-08-18T14:44:06Z</time>
      </trkpt>
      <trkpt lat="-28.294355" lon="-65.62389">
        <ele>790.4</ele>
        <time>2018-08-18T14:44:08Z</time>
      </trkpt>
      <trkpt lat="-28.294255" lon="-65.62390333333333">
        <ele>791.3</ele>
        <time>2018-08-18T14:44:10Z</time>
      </trkpt>
      <trkpt lat="-28.294165" lon="-65.623935">
        <ele>792.4</ele>
        <time>2018-08-18T14:44:12Z</time>
      </trkpt>
      <trkpt lat="-28.29409" lon="-65.62394666666667">
        <ele>792.8</ele>
        <time>2018-08-18T14:44:14Z</time>
      </trkpt>
      <trkpt lat="-28.29402" lon="-65.623975">
        <ele>792.8</ele>
        <time>2018-08-18T14:44:16Z</time>
      </trkpt>
      <trkpt lat="-28.293945" lon="-65.624015">
        <ele>792.8</ele>
        <time>2018-08-18T14:44:18Z</time>
      </trkpt>
      <trkpt lat="-28.293875" lon="-65.62405">
        <ele>792.8</ele>
        <time>2018-08-18T14:44:20Z</time>
      </trkpt>
      <trkpt lat="-28.293801666666667" lon="-65.62408">
        <ele>792.8</ele>
        <time>2018-08-18T14:44:22Z</time>
      </trkpt>
      <trkpt lat="-28.29374" lon="-65.62412">
        <ele>792.8</ele>
        <time>2018-08-18T14:44:24Z</time>
      </trkpt>
      <trkpt lat="-28.29367" lon="-65.62416">
        <ele>792.7</ele>
        <time>2018-08-18T14:44:26Z</time>
      </trkpt>
      <trkpt lat="-28.293575" lon="-65.62421">
        <ele>792.7</ele>
        <time>2018-08-18T14:44:29Z</time>
      </trkpt>
      <trkpt lat="-28.29349" lon="-65.62426">
        <ele>792.8</ele>
        <time>2018-08-18T14:44:32Z</time>
      </trkpt>
      <trkpt lat="-28.293405" lon="-65.624305">
        <ele>792.8</ele>
        <time>2018-08-18T14:44:35Z</time>
      </trkpt>
      <trkpt lat="-28.293325" lon="-65.624345">
        <ele>792.9</ele>
        <time>2018-08-18T14:44:39Z</time>
      </trkpt>
      <trkpt lat="-28.29326" lon="-65.62439">
        <ele>792.9</ele>
        <time>2018-08-18T14:44:42Z</time>
      </trkpt>
      <trkpt lat="-28.29318" lon="-65.62443">
        <ele>793.1</ele>
        <time>2018-08-18T14:44:46Z</time>
      </trkpt>
      <trkpt lat="-28.29309" lon="-65.624475">
        <ele>793.2</ele>
        <time>2018-08-18T14:44:50Z</time>
      </trkpt>
      <trkpt lat="-28.293015" lon="-65.62451">
        <ele>793.4</ele>
        <time>2018-08-18T14:44:54Z</time>
      </trkpt>
      <trkpt lat="-28.292945" lon="-65.62455">
        <ele>793.7</ele>
        <time>2018-08-18T14:44:58Z</time>
      </trkpt>
      <trkpt lat="-28.292865" lon="-65.624595">
        <ele>793.8</ele>
        <time>2018-08-18T14:45:04Z</time>
      </trkpt>
      <trkpt lat="-28.29278" lon="-65.62462166666667">
        <ele>794.0</ele>
        <time>2018-08-18T14:45:07Z</time>
      </trkpt>
      <trkpt lat="-28.29269" lon="-65.62466333333333">
        <ele>794.2</ele>
        <time>2018-08-18T14:45:10Z</time>
      </trkpt>
      <trkpt lat="-28.29259" lon="-65.62472">
        <ele>794.3</ele>
        <time>2018-08-18T14:45:13Z</time>
      </trkpt>
      <trkpt lat="-28.292495" lon="-65.62478">
        <ele>794.4</ele>
        <time>2018-08-18T14:45:16Z</time>
      </trkpt>
      <trkpt lat="-28.29243" lon="-65.62481">
        <ele>794.4</ele>
        <time>2018-08-18T14:45:18Z</time>
      </trkpt>
      <trkpt lat="-28.29236" lon="-65.62484">
        <ele>794.7</ele>
        <time>2018-08-18T14:45:20Z</time>
      </trkpt>
      <trkpt lat="-28.292285" lon="-65.62488">
        <ele>794.8</ele>
        <time>2018-08-18T14:45:22Z</time>
      </trkpt>
      <trkpt lat="-28.29221" lon="-65.624915">
        <ele>794.8</ele>
        <time>2018-08-18T14:45:24Z</time>
      </trkpt>
      <trkpt lat="-28.292115" lon="-65.62495">
        <ele>794.7</ele>
        <time>2018-08-18T14:45:27Z</time>
      </trkpt>
      <trkpt lat="-28.29201" lon="-65.62497666666667">
        <ele>794.7</ele>
        <time>2018-08-18T14:45:30Z</time>
      </trkpt>
      <trkpt lat="-28.291925" lon="-65.62502">
        <ele>794.7</ele>
        <time>2018-08-18T14:45:33Z</time>
      </trkpt>
      <trkpt lat="-28.291845" lon="-65.625065">
        <ele>794.7</ele>
        <time>2018-08-18T14:45:36Z</time>
      </trkpt>
      <trkpt lat="-28.291755" lon="-65.62511">
        <ele>794.7</ele>
        <time>2018-08-18T14:45:39Z</time>
      </trkpt>
      <trkpt lat="-28.29168" lon="-65.62515">
        <ele>794.7</ele>
        <time>2018-08-18T14:45:41Z</time>
      </trkpt>
      <trkpt lat="-28.2916" lon="-65.62519">
        <ele>795.0</ele>
        <time>2018-08-18T14:45:43Z</time>
      </trkpt>
      <trkpt lat="-28.291525" lon="-65.625235">
        <ele>795.2</ele>
        <time>2018-08-18T14:45:45Z</time>
      </trkpt>
      <trkpt lat="-28.291445" lon="-65.62528">
        <ele>795.4</ele>
        <time>2018-08-18T14:45:47Z</time>
      </trkpt>
      <trkpt lat="-28.29136" lon="-65.62533">
        <ele>795.1</ele>
        <time>2018-08-18T14:45:49Z</time>
      </trkpt>
      <trkpt lat="-28.291275" lon="-65.625375">
        <ele>794.6</ele>
        <time>2018-08-18T14:45:51Z</time>
      </trkpt>
      <trkpt lat="-28.29119" lon="-65.625415">
        <ele>794.1</ele>
        <time>2018-08-18T14:45:53Z</time>
      </trkpt>
      <trkpt lat="-28.29111" lon="-65.62546">
        <ele>793.6</ele>
        <time>2018-08-18T14:45:55Z</time>
      </trkpt>
      <trkpt lat="-28.29103" lon="-65.625505">
        <ele>793.0</ele>
        <time>2018-08-18T14:45:57Z</time>
      </trkpt>
      <trkpt lat="-28.290955" lon="-65.625555">
        <ele>792.8</ele>
        <time>2018-08-18T14:45:59Z</time>
      </trkpt>
      <trkpt lat="-28.29086" lon="-65.6256">
        <ele>792.5</ele>
        <time>2018-08-18T14:46:01Z</time>
      </trkpt>
      <trkpt lat="-28.290775" lon="-65.62564666666667">
        <ele>792.5</ele>
        <time>2018-08-18T14:46:03Z</time>
      </trkpt>
      <trkpt lat="-28.290695" lon="-65.62569166666667">
        <ele>792.5</ele>
        <time>2018-08-18T14:46:05Z</time>
      </trkpt>
      <trkpt lat="-28.29063" lon="-65.62575">
        <ele>792.6</ele>
        <time>2018-08-18T14:46:07Z</time>
      </trkpt>
      <trkpt lat="-28.29055" lon="-65.625795">
        <ele>793.1</ele>
        <time>2018-08-18T14:46:09Z</time>
      </trkpt>
      <trkpt lat="-28.290465" lon="-65.625855">
        <ele>793.7</ele>
        <time>2018-08-18T14:46:11Z</time>
      </trkpt>
      <trkpt lat="-28.290385" lon="-65.62591">
        <ele>793.9</ele>
        <time>2018-08-18T14:46:13Z</time>
      </trkpt>
      <trkpt lat="-28.2903" lon="-65.625975">
        <ele>793.2</ele>
        <time>2018-08-18T14:46:15Z</time>
      </trkpt>
      <trkpt lat="-28.29022" lon="-65.62603">
        <ele>793.4</ele>
        <time>2018-08-18T14:46:17Z</time>
      </trkpt>
      <trkpt lat="-28.290125" lon="-65.626085">
        <ele>793.5</ele>
        <time>2018-08-18T14:46:19Z</time>
      </trkpt>
      <trkpt lat="-28.29005" lon="-65.626135">
        <ele>793.0</ele>
        <time>2018-08-18T14:46:21Z</time>
      </trkpt>
      <trkpt lat="-28.28998" lon="-65.626175">
        <ele>792.9</ele>
        <time>2018-08-18T14:46:23Z</time>
      </trkpt>
      <trkpt lat="-28.289885" lon="-65.62623">
        <ele>793.1</ele>
        <time>2018-08-18T14:46:26Z</time>
      </trkpt>
      <trkpt lat="-28.28981" lon="-65.626275">
        <ele>793.1</ele>
        <time>2018-08-18T14:46:28Z</time>
      </trkpt>
      <trkpt lat="-28.28974" lon="-65.62631">
        <ele>793.1</ele>
        <time>2018-08-18T14:46:30Z</time>
      </trkpt>
      <trkpt lat="-28.289645" lon="-65.626355">
        <ele>793.1</ele>
        <time>2018-08-18T14:46:33Z</time>
      </trkpt>
      <trkpt lat="-28.289575" lon="-65.62638">
        <ele>793.1</ele>
        <time>2018-08-18T14:46:35Z</time>
      </trkpt>
      <trkpt lat="-28.289481666666667" lon="-65.626425">
        <ele>793.2</ele>
        <time>2018-08-18T14:46:38Z</time>
      </trkpt>
      <trkpt lat="-28.28941" lon="-65.62647">
        <ele>793.2</ele>
        <time>2018-08-18T14:46:41Z</time>
      </trkpt>
      <trkpt lat="-28.28932" lon="-65.62652">
        <ele>793.2</ele>
        <time>2018-08-18T14:46:44Z</time>
      </trkpt>
      <trkpt lat="-28.28924" lon="-65.62654833333333">
        <ele>792.8</ele>
        <time>2018-08-18T14:46:46Z</time>
      </trkpt>
      <trkpt lat="-28.28916" lon="-65.62658666666667">
        <ele>792.5</ele>
        <time>2018-08-18T14:46:48Z</time>
      </trkpt>
      <trkpt lat="-28.28906" lon="-65.62663166666667">
        <ele>792.3</ele>
        <time>2018-08-18T14:46:51Z</time>
      </trkpt>
      <trkpt lat="-28.28896" lon="-65.62667">
        <ele>792.2</ele>
        <time>2018-08-18T14:46:54Z</time>
      </trkpt>
      <trkpt lat="-28.288875" lon="-65.626705">
        <ele>792.1</ele>
        <time>2018-08-18T14:46:57Z</time>
      </trkpt>
      <trkpt lat="-28.28878" lon="-65.626755">
        <ele>792.0</ele>
        <time>2018-08-18T14:47:00Z</time>
      </trkpt>
      <trkpt lat="-28.288685" lon="-65.62679">
        <ele>792.0</ele>
        <time>2018-08-18T14:47:03Z</time>
      </trkpt>
      <trkpt lat="-28.2886" lon="-65.62683">
        <ele>792.0</ele>
        <time>2018-08-18T14:47:06Z</time>
      </trkpt>
      <trkpt lat="-28.288515" lon="-65.62686166666667">
        <ele>792.1</ele>
        <time>2018-08-18T14:47:09Z</time>
      </trkpt>
      <trkpt lat="-28.288425" lon="-65.626895">
        <ele>792.2</ele>
        <time>2018-08-18T14:47:12Z</time>
      </trkpt>
      <trkpt lat="-28.288355" lon="-65.626925">
        <ele>792.3</ele>
        <time>2018-08-18T14:47:15Z</time>
      </trkpt>
      <trkpt lat="-28.288295" lon="-65.62694333333333">
        <ele>792.1</ele>
        <time>2018-08-18T14:47:22Z</time>
      </trkpt>
      <trkpt lat="-28.28822" lon="-65.627005">
        <ele>792.2</ele>
        <time>2018-08-18T14:47:29Z</time>
      </trkpt>
      <trkpt lat="-28.288145" lon="-65.627035">
        <ele>792.6</ele>
        <time>2018-08-18T14:47:33Z</time>
      </trkpt>
      <trkpt lat="-28.288075" lon="-65.62706">
        <ele>792.8</ele>
        <time>2018-08-18T14:47:36Z</time>
      </trkpt>
      <trkpt lat="-28.287985" lon="-65.62708333333333">
        <ele>793.0</ele>
        <time>2018-08-18T14:47:39Z</time>
      </trkpt>
      <trkpt lat="-28.287885" lon="-65.62712">
        <ele>793.1</ele>
        <time>2018-08-18T14:47:42Z</time>
      </trkpt>
      <trkpt lat="-28.287795" lon="-65.627155">
        <ele>793.2</ele>
        <time>2018-08-18T14:47:45Z</time>
      </trkpt>
      <trkpt lat="-28.28769" lon="-65.627185">
        <ele>793.3</ele>
        <time>2018-08-18T14:47:48Z</time>
      </trkpt>
      <trkpt lat="-28.28762" lon="-65.627215">
        <ele>793.2</ele>
        <time>2018-08-18T14:47:50Z</time>
      </trkpt>
      <trkpt lat="-28.28751" lon="-65.62724">
        <ele>793.2</ele>
        <time>2018-08-18T14:47:53Z</time>
      </trkpt>
      <trkpt lat="-28.28742" lon="-65.62726166666667">
        <ele>793.2</ele>
        <time>2018-08-18T14:47:56Z</time>
      </trkpt>
      <trkpt lat="-28.28734" lon="-65.6273">
        <ele>793.2</ele>
        <time>2018-08-18T14:47:59Z</time>
      </trkpt>
      <trkpt lat="-28.287265" lon="-65.62731166666667">
        <ele>793.2</ele>
        <time>2018-08-18T14:48:01Z</time>
      </trkpt>
      <trkpt lat="-28.28716" lon="-65.627345">
        <ele>793.1</ele>
        <time>2018-08-18T14:48:04Z</time>
      </trkpt>
      <trkpt lat="-28.287055" lon="-65.62738">
        <ele>793.2</ele>
        <time>2018-08-18T14:48:07Z</time>
      </trkpt>
      <trkpt lat="-28.286955" lon="-65.627395">
        <ele>793.4</ele>
        <time>2018-08-18T14:48:10Z</time>
      </trkpt>
      <trkpt lat="-28.28688" lon="-65.627425">
        <ele>793.2</ele>
        <time>2018-08-18T14:48:12Z</time>
      </trkpt>
      <trkpt lat="-28.28681" lon="-65.62744">
        <ele>793.2</ele>
        <time>2018-08-18T14:48:14Z</time>
      </trkpt>
      <trkpt lat="-28.286715" lon="-65.627465">
        <ele>793.2</ele>
        <time>2018-08-18T14:48:17Z</time>
      </trkpt>
      <trkpt lat="-28.286645" lon="-65.62748333333333">
        <ele>793.2</ele>
        <time>2018-08-18T14:48:19Z</time>
      </trkpt>
      <trkpt lat="-28.286565" lon="-65.62751">
        <ele>793.2</ele>
        <time>2018-08-18T14:48:21Z</time>
      </trkpt>
      <trkpt lat="-28.2865" lon="-65.627525">
        <ele>793.3</ele>
        <time>2018-08-18T14:48:23Z</time>
      </trkpt>
      <trkpt lat="-28.28642" lon="-65.62753833333333">
        <ele>793.3</ele>
        <time>2018-08-18T14:48:25Z</time>
      </trkpt>
      <trkpt lat="-28.28635" lon="-65.62756">
        <ele>793.3</ele>
        <time>2018-08-18T14:48:27Z</time>
      </trkpt>
      <trkpt lat="-28.286245" lon="-65.62757333333333">
        <ele>793.3</ele>
        <time>2018-08-18T14:48:30Z</time>
      </trkpt>
      <trkpt lat="-28.286145" lon="-65.627605">
        <ele>793.4</ele>
        <time>2018-08-18T14:48:33Z</time>
      </trkpt>
      <trkpt lat="-28.28606" lon="-65.627635">
        <ele>793.6</ele>
        <time>2018-08-18T14:48:36Z</time>
      </trkpt>
      <trkpt lat="-28.28597" lon="-65.62765666666667">
        <ele>793.6</ele>
        <time>2018-08-18T14:48:39Z</time>
      </trkpt>
      <trkpt lat="-28.2859" lon="-65.627705">
        <ele>793.8</ele>
        <time>2018-08-18T14:48:41Z</time>
      </trkpt>
      <trkpt lat="-28.28583" lon="-65.627775">
        <ele>794.0</ele>
        <time>2018-08-18T14:48:43Z</time>
      </trkpt>
      <trkpt lat="-28.28576" lon="-65.62784333333333">
        <ele>793.8</ele>
        <time>2018-08-18T14:48:45Z</time>
      </trkpt>
      <trkpt lat="-28.285685" lon="-65.62793333333333">
        <ele>793.6</ele>
        <time>2018-08-18T14:48:47Z</time>
      </trkpt>
      <trkpt lat="-28.285615" lon="-65.62802">
        <ele>793.9</ele>
        <time>2018-08-18T14:48:49Z</time>
      </trkpt>
      <trkpt lat="-28.28556" lon="-65.628085">
        <ele>794.4</ele>
        <time>2018-08-18T14:48:51Z</time>
      </trkpt>
      <trkpt lat="-28.285495" lon="-65.62817">
        <ele>794.6</ele>
        <time>2018-08-18T14:48:54Z</time>
      </trkpt>
      <trkpt lat="-28.285445" lon="-65.628245">
        <ele>795.0</ele>
        <time>2018-08-18T14:48:57Z</time>
      </trkpt>
      <trkpt lat="-28.28539" lon="-65.62831">
        <ele>795.3</ele>
        <time>2018-08-18T14:49:00Z</time>
      </trkpt>
      <trkpt lat="-28.285335" lon="-65.628375">
        <ele>795.5</ele>
        <time>2018-08-18T14:49:04Z</time>
      </trkpt>
      <trkpt lat="-28.28528" lon="-65.62845">
        <ele>795.8</ele>
        <time>2018-08-18T14:49:08Z</time>
      </trkpt>
      <trkpt lat="-28.285225" lon="-65.62851">
        <ele>796.1</ele>
        <time>2018-08-18T14:49:12Z</time>
      </trkpt>
      <trkpt lat="-28.28516" lon="-65.62859">
        <ele>796.3</ele>
        <time>2018-08-18T14:49:16Z</time>
      </trkpt>
      <trkpt lat="-28.285105" lon="-65.62866">
        <ele>796.6</ele>
        <time>2018-08-18T14:49:20Z</time>
      </trkpt>
      <trkpt lat="-28.285055" lon="-65.628725">
        <ele>796.7</ele>
        <time>2018-08-18T14:49:24Z</time>
      </trkpt>
      <trkpt lat="-28.28501" lon="-65.628805">
        <ele>797.1</ele>
        <time>2018-08-18T14:49:28Z</time>
      </trkpt>
      <trkpt lat="-28.284965" lon="-65.62889">
        <ele>797.8</ele>
        <time>2018-08-18T14:49:33Z</time>
      </trkpt>
      <trkpt lat="-28.284925" lon="-65.62896">
        <ele>798.6</ele>
        <time>2018-08-18T14:49:37Z</time>
      </trkpt>
      <trkpt lat="-28.284885" lon="-65.62905">
        <ele>799.1</ele>
        <time>2018-08-18T14:49:41Z</time>
      </trkpt>
      <trkpt lat="-28.284855" lon="-65.629155">
        <ele>799.5</ele>
        <time>2018-08-18T14:49:45Z</time>
      </trkpt>
      <trkpt lat="-28.28483" lon="-65.62923166666667">
        <ele>799.7</ele>
        <time>2018-08-18T14:49:48Z</time>
      </trkpt>
      <trkpt lat="-28.284795" lon="-65.629335">
        <ele>799.9</ele>
        <time>2018-08-18T14:49:52Z</time>
      </trkpt>
      <trkpt lat="-28.28478" lon="-65.62941000000001">
        <ele>800.0</ele>
        <time>2018-08-18T14:49:55Z</time>
      </trkpt>
      <trkpt lat="-28.284765" lon="-65.629495">
        <ele>800.1</ele>
        <time>2018-08-18T14:49:58Z</time>
      </trkpt>
      <trkpt lat="-28.284746666666667" lon="-65.62958">
        <ele>800.2</ele>
        <time>2018-08-18T14:50:01Z</time>
      </trkpt>
      <trkpt lat="-28.284745" lon="-65.62966666666667">
        <ele>800.6</ele>
        <time>2018-08-18T14:50:04Z</time>
      </trkpt>
      <trkpt lat="-28.28473" lon="-65.629765">
        <ele>801.0</ele>
        <time>2018-08-18T14:50:07Z</time>
      </trkpt>
      <trkpt lat="-28.28471" lon="-65.629875">
        <ele>801.6</ele>
        <time>2018-08-18T14:50:11Z</time>
      </trkpt>
      <trkpt lat="-28.28471" lon="-65.62997">
        <ele>802.7</ele>
        <time>2018-08-18T14:50:15Z</time>
      </trkpt>
      <trkpt lat="-28.28471" lon="-65.630055">
        <ele>803.7</ele>
        <time>2018-08-18T14:50:18Z</time>
      </trkpt>
      <trkpt lat="-28.28471" lon="-65.63015">
        <ele>804.5</ele>
        <time>2018-08-18T14:50:21Z</time>
      </trkpt>
      <trkpt lat="-28.284695" lon="-65.630255">
        <ele>805.1</ele>
        <time>2018-08-18T14:50:24Z</time>
      </trkpt>
      <trkpt lat="-28.284685" lon="-65.63034833333333">
        <ele>805.7</ele>
        <time>2018-08-18T14:50:27Z</time>
      </trkpt>
      <trkpt lat="-28.284675" lon="-65.63047">
        <ele>806.2</ele>
        <time>2018-08-18T14:50:30Z</time>
      </trkpt>
      <trkpt lat="-28.284665" lon="-65.630565">
        <ele>806.5</ele>
        <time>2018-08-18T14:50:33Z</time>
      </trkpt>
      <trkpt lat="-28.28466" lon="-65.63064833333334">
        <ele>806.8</ele>
        <time>2018-08-18T14:50:36Z</time>
      </trkpt>
      <trkpt lat="-28.28464" lon="-65.63075166666667">
        <ele>807.3</ele>
        <time>2018-08-18T14:50:40Z</time>
      </trkpt>
      <trkpt lat="-28.284625" lon="-65.630865">
        <ele>807.6</ele>
        <time>2018-08-18T14:50:43Z</time>
      </trkpt>
      <trkpt lat="-28.284595" lon="-65.630975">
        <ele>807.7</ele>
        <time>2018-08-18T14:50:46Z</time>
      </trkpt>
      <trkpt lat="-28.28457" lon="-65.63108">
        <ele>807.7</ele>
        <time>2018-08-18T14:50:49Z</time>
      </trkpt>
      <trkpt lat="-28.28453" lon="-65.631175">
        <ele>807.6</ele>
        <time>2018-08-18T14:50:52Z</time>
      </trkpt>
      <trkpt lat="-28.284485" lon="-65.631275">
        <ele>807.4</ele>
        <time>2018-08-18T14:50:55Z</time>
      </trkpt>
      <trkpt lat="-28.28445" lon="-65.63136">
        <ele>807.3</ele>
        <time>2018-08-18T14:50:58Z</time>
      </trkpt>
      <trkpt lat="-28.284405" lon="-65.63142833333333">
        <ele>807.3</ele>
        <time>2018-08-18T14:51:01Z</time>
      </trkpt>
      <trkpt lat="-28.28434" lon="-65.63151">
        <ele>807.2</ele>
        <time>2018-08-18T14:51:04Z</time>
      </trkpt>
      <trkpt lat="-28.28428" lon="-65.63155833333333">
        <ele>806.9</ele>
        <time>2018-08-18T14:51:07Z</time>
      </trkpt>
      <trkpt lat="-28.284215" lon="-65.631615">
        <ele>806.7</ele>
        <time>2018-08-18T14:51:10Z</time>
      </trkpt>
      <trkpt lat="-28.284125" lon="-65.63166">
        <ele>806.4</ele>
        <time>2018-08-18T14:51:14Z</time>
      </trkpt>
      <trkpt lat="-28.284055" lon="-65.631705">
        <ele>805.7</ele>
        <time>2018-08-18T14:51:16Z</time>
      </trkpt>
      <trkpt lat="-28.283965" lon="-65.63176">
        <ele>804.5</ele>
        <time>2018-08-18T14:51:18Z</time>
      </trkpt>
      <trkpt lat="-28.283865" lon="-65.63182">
        <ele>803.7</ele>
        <time>2018-08-18T14:51:20Z</time>
      </trkpt>
      <trkpt lat="-28.28375" lon="-65.63187166666667">
        <ele>802.9</ele>
        <time>2018-08-18T14:51:22Z</time>
      </trkpt>
      <trkpt lat="-28.283685" lon="-65.631915">
        <ele>802.7</ele>
        <time>2018-08-18T14:51:23Z</time>
      </trkpt>
      <trkpt lat="-28.283555" lon="-65.63199">
        <ele>801.7</ele>
        <time>2018-08-18T14:51:25Z</time>
      </trkpt>
      <trkpt lat="-28.28348" lon="-65.632025">
        <ele>801.9</ele>
        <time>2018-08-18T14:51:26Z</time>
      </trkpt>
      <trkpt lat="-28.28341" lon="-65.63207">
        <ele>802.2</ele>
        <time>2018-08-18T14:51:27Z</time>
      </trkpt>
      <trkpt lat="-28.283345" lon="-65.632095">
        <ele>802.4</ele>
        <time>2018-08-18T14:51:28Z</time>
      </trkpt>
      <trkpt lat="-28.28324" lon="-65.63216">
        <ele>802.3</ele>
        <time>2018-08-18T14:51:30Z</time>
      </trkpt>
      <trkpt lat="-28.283155" lon="-65.63221">
        <ele>802.0</ele>
        <time>2018-08-18T14:51:32Z</time>
      </trkpt>
      <trkpt lat="-28.283079999999998" lon="-65.63227">
        <ele>801.9</ele>
        <time>2018-08-18T14:51:35Z</time>
      </trkpt>
      <trkpt lat="-28.283" lon="-65.632335">
        <ele>801.8</ele>
        <time>2018-08-18T14:51:39Z</time>
      </trkpt>
      <trkpt lat="-28.28292" lon="-65.63238">
        <ele>801.9</ele>
        <time>2018-08-18T14:51:42Z</time>
      </trkpt>
      <trkpt lat="-28.282825" lon="-65.63241166666667">
        <ele>802.2</ele>
        <time>2018-08-18T14:51:46Z</time>
      </trkpt>
      <trkpt lat="-28.282755" lon="-65.632465">
        <ele>802.5</ele>
        <time>2018-08-18T14:51:50Z</time>
      </trkpt>
      <trkpt lat="-28.28267" lon="-65.632515">
        <ele>802.5</ele>
        <time>2018-08-18T14:51:53Z</time>
      </trkpt>
      <trkpt lat="-28.28257" lon="-65.63254833333333">
        <ele>802.5</ele>
        <time>2018-08-18T14:51:56Z</time>
      </trkpt>
      <trkpt lat="-28.2825" lon="-65.63258">
        <ele>802.5</ele>
        <time>2018-08-18T14:51:58Z</time>
      </trkpt>
      <trkpt lat="-28.282425" lon="-65.6326">
        <ele>802.2</ele>
        <time>2018-08-18T14:52:00Z</time>
      </trkpt>
      <trkpt lat="-28.282335" lon="-65.632605">
        <ele>802.2</ele>
        <time>2018-08-18T14:52:02Z</time>
      </trkpt>
      <trkpt lat="-28.282245" lon="-65.632605">
        <ele>802.0</ele>
        <time>2018-08-18T14:52:04Z</time>
      </trkpt>
      <trkpt lat="-28.282165" lon="-65.6326">
        <ele>801.5</ele>
        <time>2018-08-18T14:52:06Z</time>
      </trkpt>
      <trkpt lat="-28.282085" lon="-65.632585">
        <ele>801.2</ele>
        <time>2018-08-18T14:52:08Z</time>
      </trkpt>
      <trkpt lat="-28.281995" lon="-65.63258">
        <ele>801.0</ele>
        <time>2018-08-18T14:52:10Z</time>
      </trkpt>
      <trkpt lat="-28.281905" lon="-65.63256">
        <ele>800.9</ele>
        <time>2018-08-18T14:52:12Z</time>
      </trkpt>
      <trkpt lat="-28.281825" lon="-65.632535">
        <ele>801.2</ele>
        <time>2018-08-18T14:52:14Z</time>
      </trkpt>
      <trkpt lat="-28.28173" lon="-65.63253">
        <ele>801.1</ele>
        <time>2018-08-18T14:52:16Z</time>
      </trkpt>
      <trkpt lat="-28.28165" lon="-65.63252">
        <ele>801.4</ele>
        <time>2018-08-18T14:52:18Z</time>
      </trkpt>
      <trkpt lat="-28.28156" lon="-65.63249666666667">
        <ele>801.4</ele>
        <time>2018-08-18T14:52:20Z</time>
      </trkpt>
      <trkpt lat="-28.28147" lon="-65.632485">
        <ele>801.4</ele>
        <time>2018-08-18T14:52:22Z</time>
      </trkpt>
      <trkpt lat="-28.28137" lon="-65.632475">
        <ele>801.2</ele>
        <time>2018-08-18T14:52:24Z</time>
      </trkpt>
      <trkpt lat="-28.28126" lon="-65.632465">
        <ele>800.2</ele>
        <time>2018-08-18T14:52:26Z</time>
      </trkpt>
      <trkpt lat="-28.28114" lon="-65.63245">
        <ele>798.9</ele>
        <time>2018-08-18T14:52:28Z</time>
      </trkpt>
      <trkpt lat="-28.281065" lon="-65.63245">
        <ele>798.7</ele>
        <time>2018-08-18T14:52:29Z</time>
      </trkpt>
      <trkpt lat="-28.28099" lon="-65.63245">
        <ele>798.8</ele>
        <time>2018-08-18T14:52:30Z</time>
      </trkpt>
      <trkpt lat="-28.28091" lon="-65.63244">
        <ele>799.1</ele>
        <time>2018-08-18T14:52:31Z</time>
      </trkpt>
      <trkpt lat="-28.280835" lon="-65.63244">
        <ele>799.2</ele>
        <time>2018-08-18T14:52:32Z</time>
      </trkpt>
      <trkpt lat="-28.28076" lon="-65.63244">
        <ele>799.4</ele>
        <time>2018-08-18T14:52:33Z</time>
      </trkpt>
      <trkpt lat="-28.280685" lon="-65.63244">
        <ele>799.8</ele>
        <time>2018-08-18T14:52:34Z</time>
      </trkpt>
      <trkpt lat="-28.280545" lon="-65.63244">
        <ele>799.7</ele>
        <time>2018-08-18T14:52:36Z</time>
      </trkpt>
      <trkpt lat="-28.28044" lon="-65.63245">
        <ele>800.0</ele>
        <time>2018-08-18T14:52:38Z</time>
      </trkpt>
      <trkpt lat="-28.28032" lon="-65.632475">
        <ele>799.8</ele>
        <time>2018-08-18T14:52:40Z</time>
      </trkpt>
      <trkpt lat="-28.28021" lon="-65.632495">
        <ele>799.1</ele>
        <time>2018-08-18T14:52:42Z</time>
      </trkpt>
      <trkpt lat="-28.28012" lon="-65.63253">
        <ele>798.5</ele>
        <time>2018-08-18T14:52:44Z</time>
      </trkpt>
      <trkpt lat="-28.280035" lon="-65.63254166666667">
        <ele>798.3</ele>
        <time>2018-08-18T14:52:46Z</time>
      </trkpt>
      <trkpt lat="-28.27996" lon="-65.63257">
        <ele>798.3</ele>
        <time>2018-08-18T14:52:48Z</time>
      </trkpt>
      <trkpt lat="-28.27988" lon="-65.63258166666667">
        <ele>798.3</ele>
        <time>2018-08-18T14:52:50Z</time>
      </trkpt>
      <trkpt lat="-28.2798" lon="-65.632615">
        <ele>798.5</ele>
        <time>2018-08-18T14:52:52Z</time>
      </trkpt>
      <trkpt lat="-28.279715" lon="-65.63262666666667">
        <ele>798.4</ele>
        <time>2018-08-18T14:52:54Z</time>
      </trkpt>
      <trkpt lat="-28.279645" lon="-65.632655">
        <ele>798.3</ele>
        <time>2018-08-18T14:52:56Z</time>
      </trkpt>
      <trkpt lat="-28.27956" lon="-65.632675">
        <ele>798.4</ele>
        <time>2018-08-18T14:52:58Z</time>
      </trkpt>
      <trkpt lat="-28.27948" lon="-65.6327">
        <ele>798.6</ele>
        <time>2018-08-18T14:53:00Z</time>
      </trkpt>
      <trkpt lat="-28.27938" lon="-65.63272166666667">
        <ele>798.2</ele>
        <time>2018-08-18T14:53:03Z</time>
      </trkpt>
      <trkpt lat="-28.2793" lon="-65.632755">
        <ele>798.0</ele>
        <time>2018-08-18T14:53:05Z</time>
      </trkpt>
      <trkpt lat="-28.279215" lon="-65.632785">
        <ele>797.3</ele>
        <time>2018-08-18T14:53:08Z</time>
      </trkpt>
      <trkpt lat="-28.279145" lon="-65.632805">
        <ele>796.9</ele>
        <time>2018-08-18T14:53:10Z</time>
      </trkpt>
      <trkpt lat="-28.279075" lon="-65.632835">
        <ele>796.7</ele>
        <time>2018-08-18T14:53:12Z</time>
      </trkpt>
      <trkpt lat="-28.279" lon="-65.63284666666667">
        <ele>796.2</ele>
        <time>2018-08-18T14:53:14Z</time>
      </trkpt>
      <trkpt lat="-28.27891" lon="-65.63288">
        <ele>796.2</ele>
        <time>2018-08-18T14:53:16Z</time>
      </trkpt>
      <trkpt lat="-28.278825" lon="-65.6329">
        <ele>796.9</ele>
        <time>2018-08-18T14:53:18Z</time>
      </trkpt>
      <trkpt lat="-28.27873" lon="-65.632915">
        <ele>798.3</ele>
        <time>2018-08-18T14:53:20Z</time>
      </trkpt>
      <trkpt lat="-28.278645" lon="-65.632925">
        <ele>799.6</ele>
        <time>2018-08-18T14:53:22Z</time>
      </trkpt>
      <trkpt lat="-28.278575" lon="-65.632945">
        <ele>800.5</ele>
        <time>2018-08-18T14:53:24Z</time>
      </trkpt>
      <trkpt lat="-28.278505" lon="-65.63297">
        <ele>800.9</ele>
        <time>2018-08-18T14:53:26Z</time>
      </trkpt>
      <trkpt lat="-28.27844" lon="-65.632985">
        <ele>800.8</ele>
        <time>2018-08-18T14:53:28Z</time>
      </trkpt>
      <trkpt lat="-28.27836" lon="-65.63301">
        <ele>800.5</ele>
        <time>2018-08-18T14:53:30Z</time>
      </trkpt>
      <trkpt lat="-28.278255" lon="-65.633055">
        <ele>799.4</ele>
        <time>2018-08-18T14:53:33Z</time>
      </trkpt>
      <trkpt lat="-28.27818" lon="-65.63307">
        <ele>798.8</ele>
        <time>2018-08-18T14:53:35Z</time>
      </trkpt>
      <trkpt lat="-28.27809" lon="-65.633095">
        <ele>799.5</ele>
        <time>2018-08-18T14:53:37Z</time>
      </trkpt>
      <trkpt lat="-28.277985" lon="-65.633115">
        <ele>801.1</ele>
        <time>2018-08-18T14:53:39Z</time>
      </trkpt>
      <trkpt lat="-28.27788" lon="-65.633145">
        <ele>801.9</ele>
        <time>2018-08-18T14:53:41Z</time>
      </trkpt>
      <trkpt lat="-28.27778" lon="-65.63317">
        <ele>801.7</ele>
        <time>2018-08-18T14:53:43Z</time>
      </trkpt>
      <trkpt lat="-28.277675" lon="-65.63321">
        <ele>801.4</ele>
        <time>2018-08-18T14:53:45Z</time>
      </trkpt>
      <trkpt lat="-28.277565" lon="-65.63325">
        <ele>801.2</ele>
        <time>2018-08-18T14:53:47Z</time>
      </trkpt>
      <trkpt lat="-28.277465" lon="-65.63328">
        <ele>800.8</ele>
        <time>2018-08-18T14:53:49Z</time>
      </trkpt>
      <trkpt lat="-28.277365" lon="-65.63330500000001">
        <ele>799.9</ele>
        <time>2018-08-18T14:53:51Z</time>
      </trkpt>
      <trkpt lat="-28.27727" lon="-65.63334">
        <ele>799.7</ele>
        <time>2018-08-18T14:53:53Z</time>
      </trkpt>
      <trkpt lat="-28.277175" lon="-65.63335333333333">
        <ele>800.3</ele>
        <time>2018-08-18T14:53:55Z</time>
      </trkpt>
      <trkpt lat="-28.27709" lon="-65.633375">
        <ele>801.0</ele>
        <time>2018-08-18T14:53:57Z</time>
      </trkpt>
      <trkpt lat="-28.27702" lon="-65.63339">
        <ele>801.2</ele>
        <time>2018-08-18T14:53:59Z</time>
      </trkpt>
      <trkpt lat="-28.27694" lon="-65.63342">
        <ele>801.3</ele>
        <time>2018-08-18T14:54:01Z</time>
      </trkpt>
      <trkpt lat="-28.276855" lon="-65.633435">
        <ele>802.1</ele>
        <time>2018-08-18T14:54:03Z</time>
      </trkpt>
      <trkpt lat="-28.27675" lon="-65.63346">
        <ele>803.1</ele>
        <time>2018-08-18T14:54:05Z</time>
      </trkpt>
      <trkpt lat="-28.276655" lon="-65.63348">
        <ele>803.4</ele>
        <time>2018-08-18T14:54:07Z</time>
      </trkpt>
      <trkpt lat="-28.27657" lon="-65.63351">
        <ele>803.6</ele>
        <time>2018-08-18T14:54:09Z</time>
      </trkpt>
      <trkpt lat="-28.276485" lon="-65.63352">
        <ele>804.5</ele>
        <time>2018-08-18T14:54:11Z</time>
      </trkpt>
      <trkpt lat="-28.276415" lon="-65.633545">
        <ele>804.1</ele>
        <time>2018-08-18T14:54:13Z</time>
      </trkpt>
      <trkpt lat="-28.276315" lon="-65.63356666666667">
        <ele>803.1</ele>
        <time>2018-08-18T14:54:15Z</time>
      </trkpt>
      <trkpt lat="-28.27622" lon="-65.6336">
        <ele>802.3</ele>
        <time>2018-08-18T14:54:17Z</time>
      </trkpt>
      <trkpt lat="-28.276125" lon="-65.63363">
        <ele>801.1</ele>
        <time>2018-08-18T14:54:20Z</time>
      </trkpt>
      <trkpt lat="-28.276035" lon="-65.63366">
        <ele>800.6</ele>
        <time>2018-08-18T14:54:22Z</time>
      </trkpt>
      <trkpt lat="-28.275965" lon="-65.633675">
        <ele>800.5</ele>
        <time>2018-08-18T14:54:24Z</time>
      </trkpt>
      <trkpt lat="-28.27588" lon="-65.633705">
        <ele>800.5</ele>
        <time>2018-08-18T14:54:26Z</time>
      </trkpt>
      <trkpt lat="-28.27579" lon="-65.63373">
        <ele>800.4</ele>
        <time>2018-08-18T14:54:28Z</time>
      </trkpt>
      <trkpt lat="-28.27569" lon="-65.633745">
        <ele>800.0</ele>
        <time>2018-08-18T14:54:30Z</time>
      </trkpt>
      <trkpt lat="-28.275595" lon="-65.63378">
        <ele>799.9</ele>
        <time>2018-08-18T14:54:32Z</time>
      </trkpt>
      <trkpt lat="-28.27549" lon="-65.63379666666667">
        <ele>800.1</ele>
        <time>2018-08-18T14:54:34Z</time>
      </trkpt>
      <trkpt lat="-28.275395" lon="-65.633825">
        <ele>799.9</ele>
        <time>2018-08-18T14:54:36Z</time>
      </trkpt>
      <trkpt lat="-28.2753" lon="-65.633865">
        <ele>799.7</ele>
        <time>2018-08-18T14:54:38Z</time>
      </trkpt>
      <trkpt lat="-28.275205" lon="-65.633885">
        <ele>799.3</ele>
        <time>2018-08-18T14:54:40Z</time>
      </trkpt>
      <trkpt lat="-28.27512" lon="-65.63391">
        <ele>798.5</ele>
        <time>2018-08-18T14:54:42Z</time>
      </trkpt>
      <trkpt lat="-28.275035" lon="-65.63393">
        <ele>798.6</ele>
        <time>2018-08-18T14:54:44Z</time>
      </trkpt>
      <trkpt lat="-28.274945" lon="-65.63395">
        <ele>799.1</ele>
        <time>2018-08-18T14:54:46Z</time>
      </trkpt>
      <trkpt lat="-28.274845" lon="-65.633965">
        <ele>800.1</ele>
        <time>2018-08-18T14:54:48Z</time>
      </trkpt>
      <trkpt lat="-28.274755" lon="-65.63397666666667">
        <ele>801.1</ele>
        <time>2018-08-18T14:54:50Z</time>
      </trkpt>
      <trkpt lat="-28.27468" lon="-65.634005">
        <ele>801.6</ele>
        <time>2018-08-18T14:54:52Z</time>
      </trkpt>
      <trkpt lat="-28.274585" lon="-65.63402166666667">
        <ele>802.0</ele>
        <time>2018-08-18T14:54:54Z</time>
      </trkpt>
      <trkpt lat="-28.274495" lon="-65.634055">
        <ele>801.9</ele>
        <time>2018-08-18T14:54:56Z</time>
      </trkpt>
      <trkpt lat="-28.27441" lon="-65.63408">
        <ele>801.5</ele>
        <time>2018-08-18T14:54:58Z</time>
      </trkpt>
      <trkpt lat="-28.274325" lon="-65.6341">
        <ele>801.0</ele>
        <time>2018-08-18T14:55:00Z</time>
      </trkpt>
      <trkpt lat="-28.274235" lon="-65.63413">
        <ele>801.0</ele>
        <time>2018-08-18T14:55:02Z</time>
      </trkpt>
      <trkpt lat="-28.274135" lon="-65.634155">
        <ele>801.0</ele>
        <time>2018-08-18T14:55:04Z</time>
      </trkpt>
      <trkpt lat="-28.274055" lon="-65.63416166666667">
        <ele>801.1</ele>
        <time>2018-08-18T14:55:06Z</time>
      </trkpt>
      <trkpt lat="-28.27397" lon="-65.63419">
        <ele>801.4</ele>
        <time>2018-08-18T14:55:08Z</time>
      </trkpt>
      <trkpt lat="-28.27387" lon="-65.63420166666667">
        <ele>801.4</ele>
        <time>2018-08-18T14:55:10Z</time>
      </trkpt>
      <trkpt lat="-28.273795" lon="-65.634235">
        <ele>801.0</ele>
        <time>2018-08-18T14:55:12Z</time>
      </trkpt>
      <trkpt lat="-28.273715" lon="-65.63424333333333">
        <ele>800.8</ele>
        <time>2018-08-18T14:55:14Z</time>
      </trkpt>
      <trkpt lat="-28.273645" lon="-65.63427">
        <ele>801.3</ele>
        <time>2018-08-18T14:55:16Z</time>
      </trkpt>
      <trkpt lat="-28.273565" lon="-65.63428833333333">
        <ele>801.5</ele>
        <time>2018-08-18T14:55:18Z</time>
      </trkpt>
      <trkpt lat="-28.273475" lon="-65.634325">
        <ele>802.5</ele>
        <time>2018-08-18T14:55:20Z</time>
      </trkpt>
      <trkpt lat="-28.273405" lon="-65.63436">
        <ele>802.6</ele>
        <time>2018-08-18T14:55:22Z</time>
      </trkpt>
      <trkpt lat="-28.273335" lon="-65.63438666666667">
        <ele>802.6</ele>
        <time>2018-08-18T14:55:24Z</time>
      </trkpt>
      <trkpt lat="-28.27325" lon="-65.634455">
        <ele>802.7</ele>
        <time>2018-08-18T14:55:27Z</time>
      </trkpt>
      <trkpt lat="-28.273175" lon="-65.63450666666667">
        <ele>802.8</ele>
        <time>2018-08-18T14:55:30Z</time>
      </trkpt>
      <trkpt lat="-28.27311" lon="-65.634575">
        <ele>802.9</ele>
        <time>2018-08-18T14:55:33Z</time>
      </trkpt>
      <trkpt lat="-28.27304" lon="-65.634645">
        <ele>803.2</ele>
        <time>2018-08-18T14:55:37Z</time>
      </trkpt>
      <trkpt lat="-28.272985" lon="-65.634725">
        <ele>803.3</ele>
        <time>2018-08-18T14:55:42Z</time>
      </trkpt>
      <trkpt lat="-28.272945" lon="-65.63478">
        <ele>803.5</ele>
        <time>2018-08-18T14:55:46Z</time>
      </trkpt>
      <trkpt lat="-28.272885" lon="-65.63486">
        <ele>803.6</ele>
        <time>2018-08-18T14:55:50Z</time>
      </trkpt>
      <trkpt lat="-28.27283" lon="-65.634935">
        <ele>803.9</ele>
        <time>2018-08-18T14:55:54Z</time>
      </trkpt>
      <trkpt lat="-28.272775" lon="-65.635">
        <ele>804.0</ele>
        <time>2018-08-18T14:55:58Z</time>
      </trkpt>
      <trkpt lat="-28.272725" lon="-65.635065">
        <ele>804.3</ele>
        <time>2018-08-18T14:56:01Z</time>
      </trkpt>
      <trkpt lat="-28.272665" lon="-65.63513">
        <ele>804.5</ele>
        <time>2018-08-18T14:56:04Z</time>
      </trkpt>
      <trkpt lat="-28.272595" lon="-65.63518">
        <ele>804.9</ele>
        <time>2018-08-18T14:56:07Z</time>
      </trkpt>
      <trkpt lat="-28.27252" lon="-65.635215">
        <ele>805.3</ele>
        <time>2018-08-18T14:56:10Z</time>
      </trkpt>
      <trkpt lat="-28.272455" lon="-65.635245">
        <ele>805.5</ele>
        <time>2018-08-18T14:56:12Z</time>
      </trkpt>
      <trkpt lat="-28.27235" lon="-65.63529">
        <ele>807.2</ele>
        <time>2018-08-18T14:56:15Z</time>
      </trkpt>
      <trkpt lat="-28.272265" lon="-65.63531">
        <ele>808.4</ele>
        <time>2018-08-18T14:56:17Z</time>
      </trkpt>
      <trkpt lat="-28.272185" lon="-65.63534">
        <ele>808.9</ele>
        <time>2018-08-18T14:56:19Z</time>
      </trkpt>
      <trkpt lat="-28.272105" lon="-65.635345">
        <ele>808.9</ele>
        <time>2018-08-18T14:56:22Z</time>
      </trkpt>
      <trkpt lat="-28.272025" lon="-65.635355">
        <ele>808.9</ele>
        <time>2018-08-18T14:56:24Z</time>
      </trkpt>
      <trkpt lat="-28.27194" lon="-65.63536666666667">
        <ele>809.2</ele>
        <time>2018-08-18T14:56:27Z</time>
      </trkpt>
      <trkpt lat="-28.271855" lon="-65.635405">
        <ele>809.4</ele>
        <time>2018-08-18T14:56:31Z</time>
      </trkpt>
      <trkpt lat="-28.27178" lon="-65.63544">
        <ele>809.7</ele>
        <time>2018-08-18T14:56:35Z</time>
      </trkpt>
      <trkpt lat="-28.27171" lon="-65.63545">
        <ele>809.8</ele>
        <time>2018-08-18T14:56:38Z</time>
      </trkpt>
      <trkpt lat="-28.27163" lon="-65.63547">
        <ele>810.2</ele>
        <time>2018-08-18T14:56:41Z</time>
      </trkpt>
      <trkpt lat="-28.271525" lon="-65.63549">
        <ele>810.4</ele>
        <time>2018-08-18T14:56:44Z</time>
      </trkpt>
      <trkpt lat="-28.271445" lon="-65.63550166666667">
        <ele>810.7</ele>
        <time>2018-08-18T14:56:48Z</time>
      </trkpt>
      <trkpt lat="-28.27137" lon="-65.635525">
        <ele>811.3</ele>
        <time>2018-08-18T14:56:52Z</time>
      </trkpt>
      <trkpt lat="-28.27129" lon="-65.635535">
        <ele>811.9</ele>
        <time>2018-08-18T14:56:55Z</time>
      </trkpt>
      <trkpt lat="-28.27121" lon="-65.635555">
        <ele>812.4</ele>
        <time>2018-08-18T14:56:58Z</time>
      </trkpt>
      <trkpt lat="-28.27111" lon="-65.63557166666666">
        <ele>812.9</ele>
        <time>2018-08-18T14:57:01Z</time>
      </trkpt>
      <trkpt lat="-28.271015" lon="-65.63561">
        <ele>813.2</ele>
        <time>2018-08-18T14:57:03Z</time>
      </trkpt>
      <trkpt lat="-28.270945" lon="-65.63563">
        <ele>813.4</ele>
        <time>2018-08-18T14:57:05Z</time>
      </trkpt>
      <trkpt lat="-28.27084" lon="-65.635645">
        <ele>813.8</ele>
        <time>2018-08-18T14:57:08Z</time>
      </trkpt>
      <trkpt lat="-28.270745" lon="-65.635665">
        <ele>814.3</ele>
        <time>2018-08-18T14:57:11Z</time>
      </trkpt>
      <trkpt lat="-28.27064" lon="-65.6357">
        <ele>814.6</ele>
        <time>2018-08-18T14:57:14Z</time>
      </trkpt>
      <trkpt lat="-28.270535" lon="-65.635715">
        <ele>815.0</ele>
        <time>2018-08-18T14:57:17Z</time>
      </trkpt>
      <trkpt lat="-28.27045" lon="-65.63575">
        <ele>815.1</ele>
        <time>2018-08-18T14:57:19Z</time>
      </trkpt>
      <trkpt lat="-28.27035" lon="-65.635785">
        <ele>815.2</ele>
        <time>2018-08-18T14:57:22Z</time>
      </trkpt>
      <trkpt lat="-28.27027" lon="-65.63579666666666">
        <ele>815.2</ele>
        <time>2018-08-18T14:57:25Z</time>
      </trkpt>
      <trkpt lat="-28.270175" lon="-65.635835">
        <ele>815.5</ele>
        <time>2018-08-18T14:57:29Z</time>
      </trkpt>
      <trkpt lat="-28.270075" lon="-65.635855">
        <ele>815.4</ele>
        <time>2018-08-18T14:57:32Z</time>
      </trkpt>
      <trkpt lat="-28.26997" lon="-65.635875">
        <ele>814.5</ele>
        <time>2018-08-18T14:57:34Z</time>
      </trkpt>
      <trkpt lat="-28.26989" lon="-65.63588">
        <ele>814.3</ele>
        <time>2018-08-18T14:57:36Z</time>
      </trkpt>
      <trkpt lat="-28.269805" lon="-65.63589">
        <ele>814.4</ele>
        <time>2018-08-18T14:57:38Z</time>
      </trkpt>
      <trkpt lat="-28.269725" lon="-65.6359">
        <ele>813.7</ele>
        <time>2018-08-18T14:57:40Z</time>
      </trkpt>
      <trkpt lat="-28.26964" lon="-65.6359">
        <ele>812.9</ele>
        <time>2018-08-18T14:57:42Z</time>
      </trkpt>
      <trkpt lat="-28.269555" lon="-65.63589">
        <ele>813.1</ele>
        <time>2018-08-18T14:57:44Z</time>
      </trkpt>
      <trkpt lat="-28.269465" lon="-65.63588">
        <ele>813.4</ele>
        <time>2018-08-18T14:57:46Z</time>
      </trkpt>
      <trkpt lat="-28.269375" lon="-65.63588">
        <ele>813.4</ele>
        <time>2018-08-18T14:57:48Z</time>
      </trkpt>
      <trkpt lat="-28.269285" lon="-65.63587">
        <ele>813.5</ele>
        <time>2018-08-18T14:57:50Z</time>
      </trkpt>
      <trkpt lat="-28.26921" lon="-65.635855">
        <ele>814.0</ele>
        <time>2018-08-18T14:57:52Z</time>
      </trkpt>
      <trkpt lat="-28.269135" lon="-65.635845">
        <ele>814.4</ele>
        <time>2018-08-18T14:57:54Z</time>
      </trkpt>
      <trkpt lat="-28.26904" lon="-65.63584">
        <ele>814.4</ele>
        <time>2018-08-18T14:57:56Z</time>
      </trkpt>
      <trkpt lat="-28.26896" lon="-65.635825">
        <ele>813.9</ele>
        <time>2018-08-18T14:57:58Z</time>
      </trkpt>
      <trkpt lat="-28.26888" lon="-65.63581">
        <ele>813.1</ele>
        <time>2018-08-18T14:58:00Z</time>
      </trkpt>
      <trkpt lat="-28.268805" lon="-65.63579833333333">
        <ele>812.6</ele>
        <time>2018-08-18T14:58:02Z</time>
      </trkpt>
      <trkpt lat="-28.268725" lon="-65.635795">
        <ele>812.5</ele>
        <time>2018-08-18T14:58:04Z</time>
      </trkpt>
      <trkpt lat="-28.268645" lon="-65.635785">
        <ele>812.6</ele>
        <time>2018-08-18T14:58:06Z</time>
      </trkpt>
      <trkpt lat="-28.26856" lon="-65.63576833333333">
        <ele>812.3</ele>
        <time>2018-08-18T14:58:08Z</time>
      </trkpt>
      <trkpt lat="-28.268475" lon="-65.63576833333333">
        <ele>811.7</ele>
        <time>2018-08-18T14:58:10Z</time>
      </trkpt>
      <trkpt lat="-28.26838" lon="-65.635785">
        <ele>811.1</ele>
        <time>2018-08-18T14:58:12Z</time>
      </trkpt>
      <trkpt lat="-28.268285" lon="-65.63579666666666">
        <ele>811.0</ele>
        <time>2018-08-18T14:58:14Z</time>
      </trkpt>
      <trkpt lat="-28.26817" lon="-65.63584">
        <ele>811.0</ele>
        <time>2018-08-18T14:58:16Z</time>
      </trkpt>
      <trkpt lat="-28.2681" lon="-65.635855">
        <ele>810.7</ele>
        <time>2018-08-18T14:58:17Z</time>
      </trkpt>
      <trkpt lat="-28.26796" lon="-65.63592">
        <ele>809.5</ele>
        <time>2018-08-18T14:58:19Z</time>
      </trkpt>
      <trkpt lat="-28.26788" lon="-65.63594">
        <ele>808.8</ele>
        <time>2018-08-18T14:58:20Z</time>
      </trkpt>
      <trkpt lat="-28.267795" lon="-65.635965">
        <ele>808.2</ele>
        <time>2018-08-18T14:58:21Z</time>
      </trkpt>
      <trkpt lat="-28.267705" lon="-65.635985">
        <ele>807.7</ele>
        <time>2018-08-18T14:58:22Z</time>
      </trkpt>
      <trkpt lat="-28.26763" lon="-65.63599">
        <ele>807.0</ele>
        <time>2018-08-18T14:58:23Z</time>
      </trkpt>
      <trkpt lat="-28.267495" lon="-65.636005">
        <ele>805.7</ele>
        <time>2018-08-18T14:58:25Z</time>
      </trkpt>
      <trkpt lat="-28.267395" lon="-65.63601">
        <ele>804.6</ele>
        <time>2018-08-18T14:58:27Z</time>
      </trkpt>
      <trkpt lat="-28.2673" lon="-65.636025">
        <ele>804.1</ele>
        <time>2018-08-18T14:58:29Z</time>
      </trkpt>
      <trkpt lat="-28.267220000000002" lon="-65.636025">
        <ele>804.9</ele>
        <time>2018-08-18T14:58:31Z</time>
      </trkpt>
      <trkpt lat="-28.267135" lon="-65.636025">
        <ele>806.9</ele>
        <time>2018-08-18T14:58:33Z</time>
      </trkpt>
      <trkpt lat="-28.267035" lon="-65.63605">
        <ele>809.3</ele>
        <time>2018-08-18T14:58:35Z</time>
      </trkpt>
      <trkpt lat="-28.26696" lon="-65.63607">
        <ele>809.9</ele>
        <time>2018-08-18T14:58:37Z</time>
      </trkpt>
      <trkpt lat="-28.266885" lon="-65.63608">
        <ele>810.2</ele>
        <time>2018-08-18T14:58:39Z</time>
      </trkpt>
      <trkpt lat="-28.266805" lon="-65.636105">
        <ele>811.5</ele>
        <time>2018-08-18T14:58:41Z</time>
      </trkpt>
      <trkpt lat="-28.26672" lon="-65.636125">
        <ele>811.9</ele>
        <time>2018-08-18T14:58:43Z</time>
      </trkpt>
      <trkpt lat="-28.266645" lon="-65.63615">
        <ele>811.7</ele>
        <time>2018-08-18T14:58:45Z</time>
      </trkpt>
      <trkpt lat="-28.26655" lon="-65.63616666666667">
        <ele>811.5</ele>
        <time>2018-08-18T14:58:47Z</time>
      </trkpt>
      <trkpt lat="-28.26647" lon="-65.636205">
        <ele>810.8</ele>
        <time>2018-08-18T14:58:49Z</time>
      </trkpt>
      <trkpt lat="-28.26637" lon="-65.636245">
        <ele>809.8</ele>
        <time>2018-08-18T14:58:52Z</time>
      </trkpt>
      <trkpt lat="-28.266256666666667" lon="-65.63626333333333">
        <ele>809.4</ele>
        <time>2018-08-18T14:58:55Z</time>
      </trkpt>
      <trkpt lat="-28.26618" lon="-65.636275">
        <ele>810.0</ele>
        <time>2018-08-18T14:58:57Z</time>
      </trkpt>
      <trkpt lat="-28.266065" lon="-65.636295">
        <ele>810.1</ele>
        <time>2018-08-18T14:59:00Z</time>
      </trkpt>
      <trkpt lat="-28.265995" lon="-65.6363">
        <ele>812.3</ele>
        <time>2018-08-18T14:59:02Z</time>
      </trkpt>
      <trkpt lat="-28.265915" lon="-65.63633">
        <ele>813.4</ele>
        <time>2018-08-18T14:59:04Z</time>
      </trkpt>
      <trkpt lat="-28.26584" lon="-65.63634">
        <ele>813.3</ele>
        <time>2018-08-18T14:59:06Z</time>
      </trkpt>
      <trkpt lat="-28.26575" lon="-65.63637">
        <ele>812.3</ele>
        <time>2018-08-18T14:59:08Z</time>
      </trkpt>
      <trkpt lat="-28.26567" lon="-65.63638">
        <ele>812.1</ele>
        <time>2018-08-18T14:59:10Z</time>
      </trkpt>
      <trkpt lat="-28.265575" lon="-65.63639333333333">
        <ele>813.1</ele>
        <time>2018-08-18T14:59:12Z</time>
      </trkpt>
      <trkpt lat="-28.26546" lon="-65.636425">
        <ele>813.5</ele>
        <time>2018-08-18T14:59:14Z</time>
      </trkpt>
      <trkpt lat="-28.26538" lon="-65.636435">
        <ele>813.1</ele>
        <time>2018-08-18T14:59:16Z</time>
      </trkpt>
      <trkpt lat="-28.265305" lon="-65.63646">
        <ele>812.5</ele>
        <time>2018-08-18T14:59:18Z</time>
      </trkpt>
      <trkpt lat="-28.26522" lon="-65.636475">
        <ele>813.2</ele>
        <time>2018-08-18T14:59:20Z</time>
      </trkpt>
      <trkpt lat="-28.26513" lon="-65.63648333333333">
        <ele>815.7</ele>
        <time>2018-08-18T14:59:22Z</time>
      </trkpt>
      <trkpt lat="-28.265055" lon="-65.63652">
        <ele>818.3</ele>
        <time>2018-08-18T14:59:24Z</time>
      </trkpt>
      <trkpt lat="-28.26496" lon="-65.63652833333333">
        <ele>819.7</ele>
        <time>2018-08-18T14:59:26Z</time>
      </trkpt>
      <trkpt lat="-28.264855" lon="-65.63655">
        <ele>819.8</ele>
        <time>2018-08-18T14:59:28Z</time>
      </trkpt>
      <trkpt lat="-28.264785" lon="-65.63656666666667">
        <ele>819.5</ele>
        <time>2018-08-18T14:59:30Z</time>
      </trkpt>
      <trkpt lat="-28.264705" lon="-65.6366">
        <ele>819.0</ele>
        <time>2018-08-18T14:59:32Z</time>
      </trkpt>
      <trkpt lat="-28.264625" lon="-65.636615">
        <ele>818.1</ele>
        <time>2018-08-18T14:59:34Z</time>
      </trkpt>
      <trkpt lat="-28.264525" lon="-65.63664">
        <ele>818.3</ele>
        <time>2018-08-18T14:59:37Z</time>
      </trkpt>
      <trkpt lat="-28.26444" lon="-65.63666166666667">
        <ele>818.2</ele>
        <time>2018-08-18T14:59:39Z</time>
      </trkpt>
      <trkpt lat="-28.264345" lon="-65.636695">
        <ele>818.2</ele>
        <time>2018-08-18T14:59:41Z</time>
      </trkpt>
      <trkpt lat="-28.26425" lon="-65.636725">
        <ele>818.7</ele>
        <time>2018-08-18T14:59:43Z</time>
      </trkpt>
      <trkpt lat="-28.264165" lon="-65.636745">
        <ele>818.7</ele>
        <time>2018-08-18T14:59:45Z</time>
      </trkpt>
      <trkpt lat="-28.26407" lon="-65.636775">
        <ele>817.9</ele>
        <time>2018-08-18T14:59:47Z</time>
      </trkpt>
      <trkpt lat="-28.263985" lon="-65.63679333333333">
        <ele>816.6</ele>
        <time>2018-08-18T14:59:49Z</time>
      </trkpt>
      <trkpt lat="-28.263905" lon="-65.636825">
        <ele>816.3</ele>
        <time>2018-08-18T14:59:52Z</time>
      </trkpt>
      <trkpt lat="-28.263835" lon="-65.636855">
        <ele>815.6</ele>
        <time>2018-08-18T14:59:54Z</time>
      </trkpt>
      <trkpt lat="-28.263755" lon="-65.636885">
        <ele>815.4</ele>
        <time>2018-08-18T14:59:56Z</time>
      </trkpt>
      <trkpt lat="-28.263675" lon="-65.63691">
        <ele>815.5</ele>
        <time>2018-08-18T14:59:58Z</time>
      </trkpt>
      <trkpt lat="-28.263575" lon="-65.63692666666667">
        <ele>815.8</ele>
        <time>2018-08-18T15:00:00Z</time>
      </trkpt>
      <trkpt lat="-28.263491666666667" lon="-65.63695">
        <ele>816.3</ele>
        <time>2018-08-18T15:00:02Z</time>
      </trkpt>
      <trkpt lat="-28.263415" lon="-65.63697">
        <ele>815.8</ele>
        <time>2018-08-18T15:00:04Z</time>
      </trkpt>
      <trkpt lat="-28.263325" lon="-65.63697666666667">
        <ele>815.8</ele>
        <time>2018-08-18T15:00:06Z</time>
      </trkpt>
      <trkpt lat="-28.26324" lon="-65.636995">
        <ele>816.1</ele>
        <time>2018-08-18T15:00:08Z</time>
      </trkpt>
      <trkpt lat="-28.26313" lon="-65.63701">
        <ele>815.3</ele>
        <time>2018-08-18T15:00:11Z</time>
      </trkpt>
      <trkpt lat="-28.26305" lon="-65.637035">
        <ele>814.7</ele>
        <time>2018-08-18T15:00:13Z</time>
      </trkpt>
      <trkpt lat="-28.26296" lon="-65.637055">
        <ele>813.9</ele>
        <time>2018-08-18T15:00:15Z</time>
      </trkpt>
      <trkpt lat="-28.262885" lon="-65.637065">
        <ele>813.2</ele>
        <time>2018-08-18T15:00:17Z</time>
      </trkpt>
      <trkpt lat="-28.2628" lon="-65.63709">
        <ele>812.6</ele>
        <time>2018-08-18T15:00:19Z</time>
      </trkpt>
      <trkpt lat="-28.262715" lon="-65.6371">
        <ele>812.6</ele>
        <time>2018-08-18T15:00:21Z</time>
      </trkpt>
      <trkpt lat="-28.262635" lon="-65.63711">
        <ele>811.6</ele>
        <time>2018-08-18T15:00:23Z</time>
      </trkpt>
      <trkpt lat="-28.262545" lon="-65.63711333333333">
        <ele>811.5</ele>
        <time>2018-08-18T15:00:25Z</time>
      </trkpt>
      <trkpt lat="-28.262455" lon="-65.63715">
        <ele>811.2</ele>
        <time>2018-08-18T15:00:27Z</time>
      </trkpt>
      <trkpt lat="-28.262365" lon="-65.637175">
        <ele>810.7</ele>
        <time>2018-08-18T15:00:29Z</time>
      </trkpt>
      <trkpt lat="-28.26229" lon="-65.637195">
        <ele>810.9</ele>
        <time>2018-08-18T15:00:31Z</time>
      </trkpt>
      <trkpt lat="-28.262195" lon="-65.63723">
        <ele>812.2</ele>
        <time>2018-08-18T15:00:33Z</time>
      </trkpt>
      <trkpt lat="-28.26211" lon="-65.63726">
        <ele>813.5</ele>
        <time>2018-08-18T15:00:35Z</time>
      </trkpt>
      <trkpt lat="-28.26203" lon="-65.63728833333333">
        <ele>814.2</ele>
        <time>2018-08-18T15:00:37Z</time>
      </trkpt>
      <trkpt lat="-28.261935" lon="-65.637345">
        <ele>814.5</ele>
        <time>2018-08-18T15:00:39Z</time>
      </trkpt>
      <trkpt lat="-28.261865" lon="-65.637375">
        <ele>815.4</ele>
        <time>2018-08-18T15:00:41Z</time>
      </trkpt>
      <trkpt lat="-28.261795" lon="-65.63742">
        <ele>816.0</ele>
        <time>2018-08-18T15:00:43Z</time>
      </trkpt>
      <trkpt lat="-28.261735" lon="-65.63746">
        <ele>816.6</ele>
        <time>2018-08-18T15:00:45Z</time>
      </trkpt>
      <trkpt lat="-28.26167" lon="-65.6375">
        <ele>818.1</ele>
        <time>2018-08-18T15:00:47Z</time>
      </trkpt>
      <trkpt lat="-28.261589999999998" lon="-65.63754">
        <ele>819.6</ele>
        <time>2018-08-18T15:00:49Z</time>
      </trkpt>
      <trkpt lat="-28.261495" lon="-65.6376">
        <ele>820.9</ele>
        <time>2018-08-18T15:00:52Z</time>
      </trkpt>
      <trkpt lat="-28.26143" lon="-65.637635">
        <ele>821.3</ele>
        <time>2018-08-18T15:00:54Z</time>
      </trkpt>
      <trkpt lat="-28.261345" lon="-65.637685">
        <ele>821.1</ele>
        <time>2018-08-18T15:00:56Z</time>
      </trkpt>
      <trkpt lat="-28.26127" lon="-65.63773">
        <ele>820.8</ele>
        <time>2018-08-18T15:00:58Z</time>
      </trkpt>
      <trkpt lat="-28.26117" lon="-65.637795">
        <ele>820.7</ele>
        <time>2018-08-18T15:01:01Z</time>
      </trkpt>
      <trkpt lat="-28.261095" lon="-65.637845">
        <ele>820.6</ele>
        <time>2018-08-18T15:01:03Z</time>
      </trkpt>
      <trkpt lat="-28.261035" lon="-65.63789">
        <ele>820.5</ele>
        <time>2018-08-18T15:01:05Z</time>
      </trkpt>
      <trkpt lat="-28.260965" lon="-65.637935">
        <ele>820.4</ele>
        <time>2018-08-18T15:01:07Z</time>
      </trkpt>
      <trkpt lat="-28.2609" lon="-65.637985">
        <ele>820.3</ele>
        <time>2018-08-18T15:01:09Z</time>
      </trkpt>
      <trkpt lat="-28.26084" lon="-65.63803">
        <ele>819.3</ele>
        <time>2018-08-18T15:01:11Z</time>
      </trkpt>
      <trkpt lat="-28.260775" lon="-65.638075">
        <ele>817.6</ele>
        <time>2018-08-18T15:01:13Z</time>
      </trkpt>
      <trkpt lat="-28.26068" lon="-65.638135">
        <ele>816.5</ele>
        <time>2018-08-18T15:01:16Z</time>
      </trkpt>
      <trkpt lat="-28.260605" lon="-65.63818">
        <ele>816.4</ele>
        <time>2018-08-18T15:01:18Z</time>
      </trkpt>
      <trkpt lat="-28.260535" lon="-65.63822">
        <ele>816.7</ele>
        <time>2018-08-18T15:01:20Z</time>
      </trkpt>
      <trkpt lat="-28.260445" lon="-65.638265">
        <ele>816.8</ele>
        <time>2018-08-18T15:01:23Z</time>
      </trkpt>
      <trkpt lat="-28.260375" lon="-65.63830166666666">
        <ele>817.0</ele>
        <time>2018-08-18T15:01:25Z</time>
      </trkpt>
      <trkpt lat="-28.260285" lon="-65.63836">
        <ele>817.3</ele>
        <time>2018-08-18T15:01:28Z</time>
      </trkpt>
      <trkpt lat="-28.260215" lon="-65.638405">
        <ele>817.4</ele>
        <time>2018-08-18T15:01:30Z</time>
      </trkpt>
      <trkpt lat="-28.26013" lon="-65.63845333333333">
        <ele>817.5</ele>
        <time>2018-08-18T15:01:33Z</time>
      </trkpt>
      <trkpt lat="-28.26005" lon="-65.63852">
        <ele>817.5</ele>
        <time>2018-08-18T15:01:36Z</time>
      </trkpt>
      <trkpt lat="-28.259965" lon="-65.638575">
        <ele>817.5</ele>
        <time>2018-08-18T15:01:39Z</time>
      </trkpt>
      <trkpt lat="-28.25987" lon="-65.63863">
        <ele>817.6</ele>
        <time>2018-08-18T15:01:42Z</time>
      </trkpt>
      <trkpt lat="-28.25977" lon="-65.63867666666667">
        <ele>817.7</ele>
        <time>2018-08-18T15:01:45Z</time>
      </trkpt>
      <trkpt lat="-28.259705" lon="-65.63871666666667">
        <ele>817.6</ele>
        <time>2018-08-18T15:01:47Z</time>
      </trkpt>
      <trkpt lat="-28.25961" lon="-65.63878">
        <ele>817.6</ele>
        <time>2018-08-18T15:01:50Z</time>
      </trkpt>
      <trkpt lat="-28.259515" lon="-65.638835">
        <ele>817.6</ele>
        <time>2018-08-18T15:01:53Z</time>
      </trkpt>
      <trkpt lat="-28.25943" lon="-65.63889">
        <ele>817.6</ele>
        <time>2018-08-18T15:01:56Z</time>
      </trkpt>
      <trkpt lat="-28.25936" lon="-65.63893">
        <ele>817.6</ele>
        <time>2018-08-18T15:01:58Z</time>
      </trkpt>
      <trkpt lat="-28.25927" lon="-65.63898">
        <ele>817.7</ele>
        <time>2018-08-18T15:02:01Z</time>
      </trkpt>
      <trkpt lat="-28.25917" lon="-65.639035">
        <ele>817.8</ele>
        <time>2018-08-18T15:02:04Z</time>
      </trkpt>
      <trkpt lat="-28.2591" lon="-65.63907">
        <ele>817.8</ele>
        <time>2018-08-18T15:02:06Z</time>
      </trkpt>
      <trkpt lat="-28.25902" lon="-65.63912">
        <ele>817.9</ele>
        <time>2018-08-18T15:02:09Z</time>
      </trkpt>
      <trkpt lat="-28.25893" lon="-65.639165">
        <ele>818.1</ele>
        <time>2018-08-18T15:02:12Z</time>
      </trkpt>
      <trkpt lat="-28.25886" lon="-65.639205">
        <ele>818.5</ele>
        <time>2018-08-18T15:02:15Z</time>
      </trkpt>
      <trkpt lat="-28.258765" lon="-65.63925">
        <ele>818.8</ele>
        <time>2018-08-18T15:02:18Z</time>
      </trkpt>
      <trkpt lat="-28.25868" lon="-65.63929666666667">
        <ele>818.9</ele>
        <time>2018-08-18T15:02:20Z</time>
      </trkpt>
      <trkpt lat="-28.25858" lon="-65.639345">
        <ele>819.0</ele>
        <time>2018-08-18T15:02:23Z</time>
      </trkpt>
      <trkpt lat="-28.258505" lon="-65.63937">
        <ele>819.1</ele>
        <time>2018-08-18T15:02:25Z</time>
      </trkpt>
      <trkpt lat="-28.258435" lon="-65.63939166666667">
        <ele>819.2</ele>
        <time>2018-08-18T15:02:27Z</time>
      </trkpt>
      <trkpt lat="-28.258365" lon="-65.63943">
        <ele>819.9</ele>
        <time>2018-08-18T15:02:29Z</time>
      </trkpt>
      <trkpt lat="-28.258295" lon="-65.639465">
        <ele>820.8</ele>
        <time>2018-08-18T15:02:31Z</time>
      </trkpt>
      <trkpt lat="-28.258225" lon="-65.6395">
        <ele>820.9</ele>
        <time>2018-08-18T15:02:33Z</time>
      </trkpt>
      <trkpt lat="-28.25815" lon="-65.63954">
        <ele>821.0</ele>
        <time>2018-08-18T15:02:35Z</time>
      </trkpt>
      <trkpt lat="-28.25807" lon="-65.63957">
        <ele>821.4</ele>
        <time>2018-08-18T15:02:37Z</time>
      </trkpt>
      <trkpt lat="-28.257985" lon="-65.639615">
        <ele>821.7</ele>
        <time>2018-08-18T15:02:39Z</time>
      </trkpt>
      <trkpt lat="-28.257905" lon="-65.639655">
        <ele>821.0</ele>
        <time>2018-08-18T15:02:41Z</time>
      </trkpt>
      <trkpt lat="-28.25783" lon="-65.6397">
        <ele>819.9</ele>
        <time>2018-08-18T15:02:43Z</time>
      </trkpt>
      <trkpt lat="-28.25775" lon="-65.63974">
        <ele>819.5</ele>
        <time>2018-08-18T15:02:45Z</time>
      </trkpt>
      <trkpt lat="-28.257665" lon="-65.63978">
        <ele>819.8</ele>
        <time>2018-08-18T15:02:47Z</time>
      </trkpt>
      <trkpt lat="-28.25758" lon="-65.63982">
        <ele>819.4</ele>
        <time>2018-08-18T15:02:49Z</time>
      </trkpt>
      <trkpt lat="-28.257505" lon="-65.63986">
        <ele>819.8</ele>
        <time>2018-08-18T15:02:51Z</time>
      </trkpt>
      <trkpt lat="-28.25743" lon="-65.63988">
        <ele>820.3</ele>
        <time>2018-08-18T15:02:53Z</time>
      </trkpt>
      <trkpt lat="-28.257345" lon="-65.63992">
        <ele>821.4</ele>
        <time>2018-08-18T15:02:55Z</time>
      </trkpt>
      <trkpt lat="-28.25725" lon="-65.639945">
        <ele>821.8</ele>
        <time>2018-08-18T15:02:57Z</time>
      </trkpt>
      <trkpt lat="-28.257175" lon="-65.639965">
        <ele>821.5</ele>
        <time>2018-08-18T15:02:59Z</time>
      </trkpt>
      <trkpt lat="-28.25707" lon="-65.63999">
        <ele>821.6</ele>
        <time>2018-08-18T15:03:02Z</time>
      </trkpt>
      <trkpt lat="-28.257" lon="-65.64001">
        <ele>821.7</ele>
        <time>2018-08-18T15:03:04Z</time>
      </trkpt>
      <trkpt lat="-28.256905" lon="-65.640055">
        <ele>821.7</ele>
        <time>2018-08-18T15:03:07Z</time>
      </trkpt>
      <trkpt lat="-28.256805" lon="-65.6401">
        <ele>821.7</ele>
        <time>2018-08-18T15:03:10Z</time>
      </trkpt>
      <trkpt lat="-28.256715" lon="-65.64014">
        <ele>821.8</ele>
        <time>2018-08-18T15:03:13Z</time>
      </trkpt>
      <trkpt lat="-28.256635" lon="-65.64019">
        <ele>821.9</ele>
        <time>2018-08-18T15:03:18Z</time>
      </trkpt>
      <trkpt lat="-28.25656" lon="-65.64024">
        <ele>822.0</ele>
        <time>2018-08-18T15:03:21Z</time>
      </trkpt>
      <trkpt lat="-28.25649" lon="-65.640285">
        <ele>822.0</ele>
        <time>2018-08-18T15:03:23Z</time>
      </trkpt>
      <trkpt lat="-28.25642" lon="-65.64033">
        <ele>822.0</ele>
        <time>2018-08-18T15:03:25Z</time>
      </trkpt>
      <trkpt lat="-28.256335" lon="-65.64037666666667">
        <ele>822.0</ele>
        <time>2018-08-18T15:03:28Z</time>
      </trkpt>
      <trkpt lat="-28.256245" lon="-65.64045">
        <ele>822.1</ele>
        <time>2018-08-18T15:03:31Z</time>
      </trkpt>
      <trkpt lat="-28.25617" lon="-65.640495">
        <ele>822.3</ele>
        <time>2018-08-18T15:03:34Z</time>
      </trkpt>
      <trkpt lat="-28.256095" lon="-65.640555">
        <ele>822.5</ele>
        <time>2018-08-18T15:03:37Z</time>
      </trkpt>
      <trkpt lat="-28.256025" lon="-65.640625">
        <ele>822.8</ele>
        <time>2018-08-18T15:03:41Z</time>
      </trkpt>
      <trkpt lat="-28.25595" lon="-65.640685">
        <ele>822.9</ele>
        <time>2018-08-18T15:03:44Z</time>
      </trkpt>
      <trkpt lat="-28.255895" lon="-65.64075">
        <ele>822.9</ele>
        <time>2018-08-18T15:03:46Z</time>
      </trkpt>
      <trkpt lat="-28.255825" lon="-65.640825">
        <ele>822.8</ele>
        <time>2018-08-18T15:03:49Z</time>
      </trkpt>
      <trkpt lat="-28.255755" lon="-65.64089">
        <ele>822.8</ele>
        <time>2018-08-18T15:03:52Z</time>
      </trkpt>
      <trkpt lat="-28.255685" lon="-65.64095">
        <ele>823.0</ele>
        <time>2018-08-18T15:03:55Z</time>
      </trkpt>
      <trkpt lat="-28.255595" lon="-65.64103">
        <ele>823.2</ele>
        <time>2018-08-18T15:03:58Z</time>
      </trkpt>
      <trkpt lat="-28.255525" lon="-65.64109">
        <ele>823.4</ele>
        <time>2018-08-18T15:04:01Z</time>
      </trkpt>
      <trkpt lat="-28.25546" lon="-65.641135">
        <ele>823.6</ele>
        <time>2018-08-18T15:04:04Z</time>
      </trkpt>
      <trkpt lat="-28.25538" lon="-65.64121">
        <ele>823.7</ele>
        <time>2018-08-18T15:04:07Z</time>
      </trkpt>
      <trkpt lat="-28.255305" lon="-65.641255">
        <ele>823.8</ele>
        <time>2018-08-18T15:04:10Z</time>
      </trkpt>
      <trkpt lat="-28.25525" lon="-65.64133">
        <ele>823.9</ele>
        <time>2018-08-18T15:04:13Z</time>
      </trkpt>
      <trkpt lat="-28.25518" lon="-65.641395">
        <ele>824.1</ele>
        <time>2018-08-18T15:04:17Z</time>
      </trkpt>
      <trkpt lat="-28.25511" lon="-65.64144666666667">
        <ele>824.3</ele>
        <time>2018-08-18T15:04:20Z</time>
      </trkpt>
      <trkpt lat="-28.25504" lon="-65.64152">
        <ele>824.6</ele>
        <time>2018-08-18T15:04:24Z</time>
      </trkpt>
      <trkpt lat="-28.254985" lon="-65.641585">
        <ele>824.8</ele>
        <time>2018-08-18T15:04:27Z</time>
      </trkpt>
      <trkpt lat="-28.254935" lon="-65.64165">
        <ele>825.0</ele>
        <time>2018-08-18T15:04:30Z</time>
      </trkpt>
      <trkpt lat="-28.25489" lon="-65.64172">
        <ele>825.4</ele>
        <time>2018-08-18T15:04:34Z</time>
      </trkpt>
      <trkpt lat="-28.254865" lon="-65.6418">
        <ele>825.8</ele>
        <time>2018-08-18T15:04:38Z</time>
      </trkpt>
      <trkpt lat="-28.25483" lon="-65.64189666666667">
        <ele>825.9</ele>
        <time>2018-08-18T15:04:42Z</time>
      </trkpt>
      <trkpt lat="-28.2548" lon="-65.64199">
        <ele>826.0</ele>
        <time>2018-08-18T15:04:46Z</time>
      </trkpt>
      <trkpt lat="-28.254765" lon="-65.642065">
        <ele>826.2</ele>
        <time>2018-08-18T15:04:49Z</time>
      </trkpt>
      <trkpt lat="-28.254745" lon="-65.64216">
        <ele>826.6</ele>
        <time>2018-08-18T15:04:53Z</time>
      </trkpt>
      <trkpt lat="-28.254725" lon="-65.64225">
        <ele>827.1</ele>
        <time>2018-08-18T15:04:56Z</time>
      </trkpt>
      <trkpt lat="-28.25471" lon="-65.642335">
        <ele>827.6</ele>
        <time>2018-08-18T15:04:59Z</time>
      </trkpt>
      <trkpt lat="-28.25471" lon="-65.64245">
        <ele>828.3</ele>
        <time>2018-08-18T15:05:03Z</time>
      </trkpt>
      <trkpt lat="-28.25471" lon="-65.64254">
        <ele>828.4</ele>
        <time>2018-08-18T15:05:06Z</time>
      </trkpt>
      <trkpt lat="-28.25472" lon="-65.642615">
        <ele>828.5</ele>
        <time>2018-08-18T15:05:09Z</time>
      </trkpt>
      <trkpt lat="-28.25472" lon="-65.64270166666667">
        <ele>828.6</ele>
        <time>2018-08-18T15:05:12Z</time>
      </trkpt>
      <trkpt lat="-28.25473" lon="-65.642795">
        <ele>828.6</ele>
        <time>2018-08-18T15:05:15Z</time>
      </trkpt>
      <trkpt lat="-28.25474" lon="-65.64288166666667">
        <ele>828.6</ele>
        <time>2018-08-18T15:05:18Z</time>
      </trkpt>
      <trkpt lat="-28.254745" lon="-65.643">
        <ele>828.6</ele>
        <time>2018-08-18T15:05:22Z</time>
      </trkpt>
      <trkpt lat="-28.25476" lon="-65.6431">
        <ele>828.7</ele>
        <time>2018-08-18T15:05:25Z</time>
      </trkpt>
      <trkpt lat="-28.254775" lon="-65.64319">
        <ele>828.8</ele>
        <time>2018-08-18T15:05:28Z</time>
      </trkpt>
      <trkpt lat="-28.25478" lon="-65.643275">
        <ele>828.9</ele>
        <time>2018-08-18T15:05:31Z</time>
      </trkpt>
      <trkpt lat="-28.25479" lon="-65.64337">
        <ele>829.1</ele>
        <time>2018-08-18T15:05:34Z</time>
      </trkpt>
      <trkpt lat="-28.25481" lon="-65.64345333333333">
        <ele>829.2</ele>
        <time>2018-08-18T15:05:37Z</time>
      </trkpt>
      <trkpt lat="-28.25481" lon="-65.643545">
        <ele>829.4</ele>
        <time>2018-08-18T15:05:40Z</time>
      </trkpt>
      <trkpt lat="-28.254815" lon="-65.64364">
        <ele>829.4</ele>
        <time>2018-08-18T15:05:43Z</time>
      </trkpt>
      <trkpt lat="-28.25483" lon="-65.64373833333333">
        <ele>829.5</ele>
        <time>2018-08-18T15:05:46Z</time>
      </trkpt>
      <trkpt lat="-28.254845" lon="-65.643845">
        <ele>829.6</ele>
        <time>2018-08-18T15:05:49Z</time>
      </trkpt>
      <trkpt lat="-28.25485" lon="-65.64395">
        <ele>829.6</ele>
        <time>2018-08-18T15:05:52Z</time>
      </trkpt>
      <trkpt lat="-28.254851666666667" lon="-65.644045">
        <ele>829.6</ele>
        <time>2018-08-18T15:05:55Z</time>
      </trkpt>
      <trkpt lat="-28.254875" lon="-65.644155">
        <ele>829.7</ele>
        <time>2018-08-18T15:05:58Z</time>
      </trkpt>
      <trkpt lat="-28.25489" lon="-65.64424">
        <ele>830.0</ele>
        <time>2018-08-18T15:06:01Z</time>
      </trkpt>
      <trkpt lat="-28.2549" lon="-65.644315">
        <ele>830.1</ele>
        <time>2018-08-18T15:06:03Z</time>
      </trkpt>
      <trkpt lat="-28.25491" lon="-65.64443">
        <ele>830.2</ele>
        <time>2018-08-18T15:06:06Z</time>
      </trkpt>
      <trkpt lat="-28.25491" lon="-65.64453">
        <ele>830.2</ele>
        <time>2018-08-18T15:06:09Z</time>
      </trkpt>
      <trkpt lat="-28.25491" lon="-65.644625">
        <ele>830.1</ele>
        <time>2018-08-18T15:06:12Z</time>
      </trkpt>
      <trkpt lat="-28.25491" lon="-65.644735">
        <ele>830.2</ele>
        <time>2018-08-18T15:06:15Z</time>
      </trkpt>
      <trkpt lat="-28.2549" lon="-65.64484">
        <ele>830.3</ele>
        <time>2018-08-18T15:06:18Z</time>
      </trkpt>
      <trkpt lat="-28.25489" lon="-65.644935">
        <ele>830.5</ele>
        <time>2018-08-18T15:06:21Z</time>
      </trkpt>
      <trkpt lat="-28.254875" lon="-65.64503">
        <ele>830.7</ele>
        <time>2018-08-18T15:06:24Z</time>
      </trkpt>
      <trkpt lat="-28.25485" lon="-65.64512333333333">
        <ele>830.9</ele>
        <time>2018-08-18T15:06:27Z</time>
      </trkpt>
      <trkpt lat="-28.254825" lon="-65.645225">
        <ele>831.1</ele>
        <time>2018-08-18T15:06:30Z</time>
      </trkpt>
      <trkpt lat="-28.254795" lon="-65.64530166666667">
        <ele>831.3</ele>
        <time>2018-08-18T15:06:33Z</time>
      </trkpt>
      <trkpt lat="-28.254775" lon="-65.645405">
        <ele>831.6</ele>
        <time>2018-08-18T15:06:38Z</time>
      </trkpt>
      <trkpt lat="-28.25474" lon="-65.64548">
        <ele>831.6</ele>
        <time>2018-08-18T15:06:43Z</time>
      </trkpt>
      <trkpt lat="-28.2547" lon="-65.64556666666667">
        <ele>832.1</ele>
        <time>2018-08-18T15:06:49Z</time>
      </trkpt>
      <trkpt lat="-28.254655" lon="-65.645645">
        <ele>832.3</ele>
        <time>2018-08-18T15:06:53Z</time>
      </trkpt>
      <trkpt lat="-28.2546" lon="-65.64572">
        <ele>832.8</ele>
        <time>2018-08-18T15:06:58Z</time>
      </trkpt>
      <trkpt lat="-28.254585" lon="-65.64574">
        <ele>832.9</ele>
        <time>2018-08-18T15:07:05Z</time>
      </trkpt>
      <trkpt lat="-28.254585" lon="-65.64574">
        <ele>832.9</ele>
        <time>2018-08-18T15:07:06Z</time>
      </trkpt>
      <trkpt lat="-28.254605" lon="-65.64575">
        <ele>832.5</ele>
        <time>2018-08-18T15:07:22Z</time>
      </trkpt>
      <trkpt lat="-28.254605" lon="-65.64575">
        <ele>832.4</ele>
        <time>2018-08-18T15:07:23Z</time>
      </trkpt>
      <trkpt lat="-28.254605" lon="-65.64573">
        <ele>833.0</ele>
        <time>2018-08-18T15:07:32Z</time>
      </trkpt>
      <trkpt lat="-28.254605" lon="-65.64573">
        <ele>833.0</ele>
        <time>2018-08-18T15:07:33Z</time>
      </trkpt>
      <trkpt lat="-28.25462" lon="-65.64573">
        <ele>833.1</ele>
        <time>2018-08-18T15:07:42Z</time>
      </trkpt>
      <trkpt lat="-28.254625" lon="-65.64573">
        <ele>833.1</ele>
        <time>2018-08-18T15:07:43Z</time>
      </trkpt>
      <trkpt lat="-28.254635" lon="-65.645705">
        <ele>832.7</ele>
        <time>2018-08-18T15:07:53Z</time>
      </trkpt>
      <trkpt lat="-28.254635" lon="-65.645705">
        <ele>832.7</ele>
        <time>2018-08-18T15:07:54Z</time>
      </trkpt>
      <trkpt lat="-28.254625" lon="-65.645725">
        <ele>832.5</ele>
        <time>2018-08-18T15:08:05Z</time>
      </trkpt>
      <trkpt lat="-28.254625" lon="-65.645725">
        <ele>832.5</ele>
        <time>2018-08-18T15:08:06Z</time>
      </trkpt>
      <trkpt lat="-28.25459" lon="-65.64575333333333">
        <ele>832.4</ele>
        <time>2018-08-18T15:08:22Z</time>
      </trkpt>
      <trkpt lat="-28.25459" lon="-65.64577">
        <ele>832.4</ele>
        <time>2018-08-18T15:08:23Z</time>
      </trkpt>
      <trkpt lat="-28.254605" lon="-65.64575">
        <ele>832.7</ele>
        <time>2018-08-18T15:08:34Z</time>
      </trkpt>
      <trkpt lat="-28.25461" lon="-65.64574">
        <ele>832.7</ele>
        <time>2018-08-18T15:08:35Z</time>
      </trkpt>
      <trkpt lat="-28.254635" lon="-65.64573">
        <ele>832.8</ele>
        <time>2018-08-18T15:08:53Z</time>
      </trkpt>
      <trkpt lat="-28.254635" lon="-65.64573">
        <ele>832.8</ele>
        <time>2018-08-18T15:08:54Z</time>
      </trkpt>
      <trkpt lat="-28.254615" lon="-65.64575">
        <ele>832.5</ele>
        <time>2018-08-18T15:09:09Z</time>
      </trkpt>
      <trkpt lat="-28.25461" lon="-65.64575">
        <ele>832.4</ele>
        <time>2018-08-18T15:09:10Z</time>
      </trkpt>
      <trkpt lat="-28.254565" lon="-65.64574">
        <ele>832.5</ele>
        <time>2018-08-18T15:09:18Z</time>
      </trkpt>
      <trkpt lat="-28.254565" lon="-65.64574">
        <ele>832.5</ele>
        <time>2018-08-18T15:09:19Z</time>
      </trkpt>
      <trkpt lat="-28.254555" lon="-65.64572">
        <ele>832.6</ele>
        <time>2018-08-18T15:09:29Z</time>
      </trkpt>
      <trkpt lat="-28.254555" lon="-65.64572">
        <ele>832.6</ele>
        <time>2018-08-18T15:09:30Z</time>
      </trkpt>
      <trkpt lat="-28.25459" lon="-65.64574">
        <ele>833.0</ele>
        <time>2018-08-18T15:09:43Z</time>
      </trkpt>
      <trkpt lat="-28.25459" lon="-65.64574">
        <ele>833.0</ele>
        <time>2018-08-18T15:09:44Z</time>
      </trkpt>
      <trkpt lat="-28.254555" lon="-65.645835">
        <ele>833.2</ele>
        <time>2018-08-18T15:09:53Z</time>
      </trkpt>
      <trkpt lat="-28.2545" lon="-65.645915">
        <ele>833.5</ele>
        <time>2018-08-18T15:09:56Z</time>
      </trkpt>
      <trkpt lat="-28.254435" lon="-65.646005">
        <ele>833.9</ele>
        <time>2018-08-18T15:09:59Z</time>
      </trkpt>
      <trkpt lat="-28.254375" lon="-65.646085">
        <ele>834.0</ele>
        <time>2018-08-18T15:10:02Z</time>
      </trkpt>
      <trkpt lat="-28.25431" lon="-65.64615">
        <ele>834.1</ele>
        <time>2018-08-18T15:10:05Z</time>
      </trkpt>
      <trkpt lat="-28.254245" lon="-65.646225">
        <ele>834.3</ele>
        <time>2018-08-18T15:10:08Z</time>
      </trkpt>
      <trkpt lat="-28.254175" lon="-65.64631">
        <ele>834.5</ele>
        <time>2018-08-18T15:10:12Z</time>
      </trkpt>
      <trkpt lat="-28.25412" lon="-65.646375">
        <ele>834.6</ele>
        <time>2018-08-18T15:10:15Z</time>
      </trkpt>
      <trkpt lat="-28.254055" lon="-65.64645">
        <ele>834.8</ele>
        <time>2018-08-18T15:10:18Z</time>
      </trkpt>
      <trkpt lat="-28.253975" lon="-65.64653">
        <ele>834.8</ele>
        <time>2018-08-18T15:10:21Z</time>
      </trkpt>
      <trkpt lat="-28.253895" lon="-65.646615">
        <ele>834.7</ele>
        <time>2018-08-18T15:10:24Z</time>
      </trkpt>
      <trkpt lat="-28.25381" lon="-65.64668">
        <ele>834.6</ele>
        <time>2018-08-18T15:10:27Z</time>
      </trkpt>
      <trkpt lat="-28.25374" lon="-65.646735">
        <ele>834.6</ele>
        <time>2018-08-18T15:10:29Z</time>
      </trkpt>
      <trkpt lat="-28.253675" lon="-65.646775">
        <ele>834.7</ele>
        <time>2018-08-18T15:10:31Z</time>
      </trkpt>
      <trkpt lat="-28.2536" lon="-65.646815">
        <ele>834.8</ele>
        <time>2018-08-18T15:10:33Z</time>
      </trkpt>
      <trkpt lat="-28.25352" lon="-65.64686">
        <ele>835.0</ele>
        <time>2018-08-18T15:10:36Z</time>
      </trkpt>
      <trkpt lat="-28.25344" lon="-65.646885">
        <ele>835.1</ele>
        <time>2018-08-18T15:10:38Z</time>
      </trkpt>
      <trkpt lat="-28.253365" lon="-65.646905">
        <ele>835.1</ele>
        <time>2018-08-18T15:10:40Z</time>
      </trkpt>
      <trkpt lat="-28.253263333333333" lon="-65.646935">
        <ele>835.1</ele>
        <time>2018-08-18T15:10:43Z</time>
      </trkpt>
      <trkpt lat="-28.253175" lon="-65.64694">
        <ele>835.0</ele>
        <time>2018-08-18T15:10:46Z</time>
      </trkpt>
      <trkpt lat="-28.25309" lon="-65.64694">
        <ele>835.1</ele>
        <time>2018-08-18T15:10:49Z</time>
      </trkpt>
      <trkpt lat="-28.252995" lon="-65.64693">
        <ele>834.9</ele>
        <time>2018-08-18T15:10:53Z</time>
      </trkpt>
      <trkpt lat="-28.252915" lon="-65.64693">
        <ele>834.9</ele>
        <time>2018-08-18T15:10:56Z</time>
      </trkpt>
      <trkpt lat="-28.252835" lon="-65.64693">
        <ele>834.9</ele>
        <time>2018-08-18T15:10:59Z</time>
      </trkpt>
      <trkpt lat="-28.25273" lon="-65.646915">
        <ele>835.0</ele>
        <time>2018-08-18T15:11:02Z</time>
      </trkpt>
      <trkpt lat="-28.25264" lon="-65.646915">
        <ele>835.0</ele>
        <time>2018-08-18T15:11:05Z</time>
      </trkpt>
      <trkpt lat="-28.252535" lon="-65.646915">
        <ele>835.0</ele>
        <time>2018-08-18T15:11:08Z</time>
      </trkpt>
      <trkpt lat="-28.252465" lon="-65.646905">
        <ele>835.1</ele>
        <time>2018-08-18T15:11:10Z</time>
      </trkpt>
      <trkpt lat="-28.252385" lon="-65.6469">
        <ele>834.9</ele>
        <time>2018-08-18T15:11:12Z</time>
      </trkpt>
      <trkpt lat="-28.2523" lon="-65.646895">
        <ele>834.9</ele>
        <time>2018-08-18T15:11:14Z</time>
      </trkpt>
      <trkpt lat="-28.252205" lon="-65.646885">
        <ele>834.8</ele>
        <time>2018-08-18T15:11:17Z</time>
      </trkpt>
      <trkpt lat="-28.252105" lon="-65.64686833333333">
        <ele>834.8</ele>
        <time>2018-08-18T15:11:20Z</time>
      </trkpt>
      <trkpt lat="-28.252025" lon="-65.64686166666667">
        <ele>834.7</ele>
        <time>2018-08-18T15:11:22Z</time>
      </trkpt>
      <trkpt lat="-28.25193" lon="-65.64686">
        <ele>835.0</ele>
        <time>2018-08-18T15:11:24Z</time>
      </trkpt>
      <trkpt lat="-28.251825" lon="-65.64685">
        <ele>836.3</ele>
        <time>2018-08-18T15:11:26Z</time>
      </trkpt>
      <trkpt lat="-28.251735" lon="-65.64684">
        <ele>837.2</ele>
        <time>2018-08-18T15:11:28Z</time>
      </trkpt>
      <trkpt lat="-28.25166" lon="-65.64682166666667">
        <ele>836.6</ele>
        <time>2018-08-18T15:11:30Z</time>
      </trkpt>
      <trkpt lat="-28.251575" lon="-65.64682">
        <ele>836.2</ele>
        <time>2018-08-18T15:11:32Z</time>
      </trkpt>
      <trkpt lat="-28.251495" lon="-65.64682">
        <ele>835.5</ele>
        <time>2018-08-18T15:11:34Z</time>
      </trkpt>
      <trkpt lat="-28.25142" lon="-65.64682">
        <ele>834.5</ele>
        <time>2018-08-18T15:11:36Z</time>
      </trkpt>
      <trkpt lat="-28.25134" lon="-65.646815">
        <ele>834.1</ele>
        <time>2018-08-18T15:11:38Z</time>
      </trkpt>
      <trkpt lat="-28.251245" lon="-65.64681">
        <ele>834.0</ele>
        <time>2018-08-18T15:11:41Z</time>
      </trkpt>
      <trkpt lat="-28.251165" lon="-65.6468">
        <ele>834.0</ele>
        <time>2018-08-18T15:11:43Z</time>
      </trkpt>
      <trkpt lat="-28.25108" lon="-65.6468">
        <ele>833.8</ele>
        <time>2018-08-18T15:11:46Z</time>
      </trkpt>
      <trkpt lat="-28.250995" lon="-65.64678666666667">
        <ele>833.7</ele>
        <time>2018-08-18T15:11:50Z</time>
      </trkpt>
      <trkpt lat="-28.250913333333333" lon="-65.6468">
        <ele>834.0</ele>
        <time>2018-08-18T15:11:55Z</time>
      </trkpt>
      <trkpt lat="-28.250855" lon="-65.64678333333333">
        <ele>834.8</ele>
        <time>2018-08-18T15:12:02Z</time>
      </trkpt>
      <trkpt lat="-28.25078" lon="-65.646765">
        <ele>835.2</ele>
        <time>2018-08-18T15:12:07Z</time>
      </trkpt>
      <trkpt lat="-28.250705" lon="-65.64674166666667">
        <ele>835.5</ele>
        <time>2018-08-18T15:12:13Z</time>
      </trkpt>
      <trkpt lat="-28.25075" lon="-65.64677">
        <ele>835.6</ele>
        <time>2018-08-18T15:12:20Z</time>
      </trkpt>
      <trkpt lat="-28.25078" lon="-65.646775">
        <ele>835.5</ele>
        <time>2018-08-18T15:12:27Z</time>
      </trkpt>
      <trkpt lat="-28.25079" lon="-65.64678333333333">
        <ele>835.2</ele>
        <time>2018-08-18T15:12:35Z</time>
      </trkpt>
      <trkpt lat="-28.250785" lon="-65.64678166666667">
        <ele>835.2</ele>
        <time>2018-08-18T15:12:36Z</time>
      </trkpt>
      <trkpt lat="-28.25076" lon="-65.646785">
        <ele>835.1</ele>
        <time>2018-08-18T15:12:45Z</time>
      </trkpt>
      <trkpt lat="-28.25076" lon="-65.646785">
        <ele>835.1</ele>
        <time>2018-08-18T15:12:46Z</time>
      </trkpt>
      <trkpt lat="-28.250685" lon="-65.646785">
        <ele>834.2</ele>
        <time>2018-08-18T15:12:59Z</time>
      </trkpt>
      <trkpt lat="-28.2506" lon="-65.646785">
        <ele>833.7</ele>
        <time>2018-08-18T15:13:02Z</time>
      </trkpt>
      <trkpt lat="-28.25051" lon="-65.646775">
        <ele>833.2</ele>
        <time>2018-08-18T15:13:05Z</time>
      </trkpt>
      <trkpt lat="-28.2504" lon="-65.64677">
        <ele>832.9</ele>
        <time>2018-08-18T15:13:08Z</time>
      </trkpt>
      <trkpt lat="-28.250295" lon="-65.64676">
        <ele>832.6</ele>
        <time>2018-08-18T15:13:11Z</time>
      </trkpt>
      <trkpt lat="-28.2502" lon="-65.64674166666667">
        <ele>832.3</ele>
        <time>2018-08-18T15:13:14Z</time>
      </trkpt>
      <trkpt lat="-28.2501" lon="-65.646735">
        <ele>831.9</ele>
        <time>2018-08-18T15:13:17Z</time>
      </trkpt>
      <trkpt lat="-28.25002" lon="-65.646735">
        <ele>831.7</ele>
        <time>2018-08-18T15:13:19Z</time>
      </trkpt>
      <trkpt lat="-28.249945" lon="-65.646725">
        <ele>831.4</ele>
        <time>2018-08-18T15:13:21Z</time>
      </trkpt>
      <trkpt lat="-28.24987" lon="-65.646725">
        <ele>830.2</ele>
        <time>2018-08-18T15:13:23Z</time>
      </trkpt>
      <trkpt lat="-28.249795" lon="-65.646715">
        <ele>828.7</ele>
        <time>2018-08-18T15:13:25Z</time>
      </trkpt>
      <trkpt lat="-28.24968" lon="-65.64669">
        <ele>828.0</ele>
        <time>2018-08-18T15:13:28Z</time>
      </trkpt>
      <trkpt lat="-28.249595" lon="-65.64669">
        <ele>828.2</ele>
        <time>2018-08-18T15:13:30Z</time>
      </trkpt>
      <trkpt lat="-28.249505" lon="-65.64668">
        <ele>829.0</ele>
        <time>2018-08-18T15:13:32Z</time>
      </trkpt>
      <trkpt lat="-28.249405" lon="-65.64667">
        <ele>829.5</ele>
        <time>2018-08-18T15:13:34Z</time>
      </trkpt>
      <trkpt lat="-28.24932" lon="-65.64666">
        <ele>830.0</ele>
        <time>2018-08-18T15:13:36Z</time>
      </trkpt>
      <trkpt lat="-28.249205" lon="-65.64666">
        <ele>830.1</ele>
        <time>2018-08-18T15:13:39Z</time>
      </trkpt>
      <trkpt lat="-28.24911" lon="-65.64666">
        <ele>829.9</ele>
        <time>2018-08-18T15:13:41Z</time>
      </trkpt>
      <trkpt lat="-28.24901" lon="-65.64666">
        <ele>827.9</ele>
        <time>2018-08-18T15:13:44Z</time>
      </trkpt>
      <trkpt lat="-28.24893" lon="-65.64664833333333">
        <ele>827.2</ele>
        <time>2018-08-18T15:13:46Z</time>
      </trkpt>
      <trkpt lat="-28.248835" lon="-65.646645">
        <ele>827.9</ele>
        <time>2018-08-18T15:13:48Z</time>
      </trkpt>
      <trkpt lat="-28.248745" lon="-65.64663666666667">
        <ele>828.8</ele>
        <time>2018-08-18T15:13:50Z</time>
      </trkpt>
      <trkpt lat="-28.248645" lon="-65.646635">
        <ele>829.5</ele>
        <time>2018-08-18T15:13:52Z</time>
      </trkpt>
      <trkpt lat="-28.24856" lon="-65.646625">
        <ele>830.1</ele>
        <time>2018-08-18T15:13:54Z</time>
      </trkpt>
      <trkpt lat="-28.24849" lon="-65.646625">
        <ele>830.1</ele>
        <time>2018-08-18T15:13:56Z</time>
      </trkpt>
      <trkpt lat="-28.24841" lon="-65.646625">
        <ele>830.1</ele>
        <time>2018-08-18T15:13:58Z</time>
      </trkpt>
      <trkpt lat="-28.248335" lon="-65.646615">
        <ele>830.1</ele>
        <time>2018-08-18T15:14:00Z</time>
      </trkpt>
      <trkpt lat="-28.24823" lon="-65.6466">
        <ele>830.1</ele>
        <time>2018-08-18T15:14:03Z</time>
      </trkpt>
      <trkpt lat="-28.248135" lon="-65.646595">
        <ele>830.2</ele>
        <time>2018-08-18T15:14:06Z</time>
      </trkpt>
      <trkpt lat="-28.24803" lon="-65.646585">
        <ele>830.8</ele>
        <time>2018-08-18T15:14:09Z</time>
      </trkpt>
      <trkpt lat="-28.24792" lon="-65.646575">
        <ele>831.4</ele>
        <time>2018-08-18T15:14:12Z</time>
      </trkpt>
      <trkpt lat="-28.24784" lon="-65.646555">
        <ele>832.4</ele>
        <time>2018-08-18T15:14:14Z</time>
      </trkpt>
      <trkpt lat="-28.24775" lon="-65.64655">
        <ele>832.4</ele>
        <time>2018-08-18T15:14:17Z</time>
      </trkpt>
      <trkpt lat="-28.24766" lon="-65.64655">
        <ele>831.9</ele>
        <time>2018-08-18T15:14:19Z</time>
      </trkpt>
      <trkpt lat="-28.24754" lon="-65.646545">
        <ele>831.2</ele>
        <time>2018-08-18T15:14:22Z</time>
      </trkpt>
      <trkpt lat="-28.24746" lon="-65.64654">
        <ele>831.3</ele>
        <time>2018-08-18T15:14:24Z</time>
      </trkpt>
      <trkpt lat="-28.24735" lon="-65.64653">
        <ele>831.0</ele>
        <time>2018-08-18T15:14:27Z</time>
      </trkpt>
      <trkpt lat="-28.24727" lon="-65.64651833333333">
        <ele>831.0</ele>
        <time>2018-08-18T15:14:29Z</time>
      </trkpt>
      <trkpt lat="-28.24716" lon="-65.64651">
        <ele>831.0</ele>
        <time>2018-08-18T15:14:32Z</time>
      </trkpt>
      <trkpt lat="-28.24708" lon="-65.64651">
        <ele>830.9</ele>
        <time>2018-08-18T15:14:34Z</time>
      </trkpt>
      <trkpt lat="-28.247005" lon="-65.6465">
        <ele>831.0</ele>
        <time>2018-08-18T15:14:36Z</time>
      </trkpt>
      <trkpt lat="-28.24692" lon="-65.64649">
        <ele>831.2</ele>
        <time>2018-08-18T15:14:38Z</time>
      </trkpt>
      <trkpt lat="-28.24683" lon="-65.64648">
        <ele>831.9</ele>
        <time>2018-08-18T15:14:40Z</time>
      </trkpt>
      <trkpt lat="-28.24676" lon="-65.64646833333333">
        <ele>832.1</ele>
        <time>2018-08-18T15:14:42Z</time>
      </trkpt>
      <trkpt lat="-28.246685" lon="-65.646465">
        <ele>831.7</ele>
        <time>2018-08-18T15:14:44Z</time>
      </trkpt>
      <trkpt lat="-28.24661" lon="-65.646455">
        <ele>831.7</ele>
        <time>2018-08-18T15:14:46Z</time>
      </trkpt>
      <trkpt lat="-28.246505" lon="-65.646455">
        <ele>831.6</ele>
        <time>2018-08-18T15:14:49Z</time>
      </trkpt>
      <trkpt lat="-28.246425" lon="-65.64645">
        <ele>831.2</ele>
        <time>2018-08-18T15:14:51Z</time>
      </trkpt>
      <trkpt lat="-28.24635" lon="-65.646435">
        <ele>831.7</ele>
        <time>2018-08-18T15:14:53Z</time>
      </trkpt>
      <trkpt lat="-28.24627" lon="-65.64641166666667">
        <ele>833.2</ele>
        <time>2018-08-18T15:14:55Z</time>
      </trkpt>
      <trkpt lat="-28.246195" lon="-65.646405">
        <ele>834.5</ele>
        <time>2018-08-18T15:14:57Z</time>
      </trkpt>
      <trkpt lat="-28.24612" lon="-65.646405">
        <ele>834.5</ele>
        <time>2018-08-18T15:14:59Z</time>
      </trkpt>
      <trkpt lat="-28.246015" lon="-65.646395">
        <ele>833.5</ele>
        <time>2018-08-18T15:15:02Z</time>
      </trkpt>
      <trkpt lat="-28.245925" lon="-65.646375">
        <ele>833.7</ele>
        <time>2018-08-18T15:15:04Z</time>
      </trkpt>
      <trkpt lat="-28.245835" lon="-65.64637">
        <ele>835.9</ele>
        <time>2018-08-18T15:15:07Z</time>
      </trkpt>
      <trkpt lat="-28.245735" lon="-65.646365">
        <ele>836.3</ele>
        <time>2018-08-18T15:15:10Z</time>
      </trkpt>
      <trkpt lat="-28.245655" lon="-65.646365">
        <ele>836.3</ele>
        <time>2018-08-18T15:15:12Z</time>
      </trkpt>
      <trkpt lat="-28.24555" lon="-65.64637">
        <ele>835.9</ele>
        <time>2018-08-18T15:15:15Z</time>
      </trkpt>
      <trkpt lat="-28.245445" lon="-65.64637">
        <ele>835.5</ele>
        <time>2018-08-18T15:15:18Z</time>
      </trkpt>
      <trkpt lat="-28.24537" lon="-65.646365">
        <ele>835.4</ele>
        <time>2018-08-18T15:15:20Z</time>
      </trkpt>
      <trkpt lat="-28.245285" lon="-65.64635">
        <ele>835.3</ele>
        <time>2018-08-18T15:15:22Z</time>
      </trkpt>
      <trkpt lat="-28.245175" lon="-65.64633166666667">
        <ele>835.2</ele>
        <time>2018-08-18T15:15:25Z</time>
      </trkpt>
      <trkpt lat="-28.24507" lon="-65.646325">
        <ele>835.2</ele>
        <time>2018-08-18T15:15:28Z</time>
      </trkpt>
      <trkpt lat="-28.24499" lon="-65.64632">
        <ele>835.2</ele>
        <time>2018-08-18T15:15:30Z</time>
      </trkpt>
      <trkpt lat="-28.244915" lon="-65.646315">
        <ele>835.3</ele>
        <time>2018-08-18T15:15:32Z</time>
      </trkpt>
      <trkpt lat="-28.244835" lon="-65.64631">
        <ele>835.9</ele>
        <time>2018-08-18T15:15:34Z</time>
      </trkpt>
      <trkpt lat="-28.244735" lon="-65.646305">
        <ele>836.2</ele>
        <time>2018-08-18T15:15:37Z</time>
      </trkpt>
      <trkpt lat="-28.24464" lon="-65.64628666666667">
        <ele>835.2</ele>
        <time>2018-08-18T15:15:40Z</time>
      </trkpt>
      <trkpt lat="-28.24456" lon="-65.646285">
        <ele>833.9</ele>
        <time>2018-08-18T15:15:42Z</time>
      </trkpt>
      <trkpt lat="-28.24447" lon="-65.646285">
        <ele>833.1</ele>
        <time>2018-08-18T15:15:44Z</time>
      </trkpt>
      <trkpt lat="-28.244385" lon="-65.646275">
        <ele>833.0</ele>
        <time>2018-08-18T15:15:46Z</time>
      </trkpt>
      <trkpt lat="-28.2443" lon="-65.646275">
        <ele>833.3</ele>
        <time>2018-08-18T15:15:48Z</time>
      </trkpt>
      <trkpt lat="-28.24422" lon="-65.646265">
        <ele>833.3</ele>
        <time>2018-08-18T15:15:50Z</time>
      </trkpt>
      <trkpt lat="-28.244145" lon="-65.646255">
        <ele>833.0</ele>
        <time>2018-08-18T15:15:52Z</time>
      </trkpt>
      <trkpt lat="-28.244065" lon="-65.646255">
        <ele>832.3</ele>
        <time>2018-08-18T15:15:54Z</time>
      </trkpt>
      <trkpt lat="-28.243995" lon="-65.646255">
        <ele>831.8</ele>
        <time>2018-08-18T15:15:56Z</time>
      </trkpt>
      <trkpt lat="-28.24391" lon="-65.64624">
        <ele>831.8</ele>
        <time>2018-08-18T15:15:58Z</time>
      </trkpt>
      <trkpt lat="-28.24381" lon="-65.64624">
        <ele>831.9</ele>
        <time>2018-08-18T15:16:01Z</time>
      </trkpt>
      <trkpt lat="-28.24371" lon="-65.64623">
        <ele>830.6</ele>
        <time>2018-08-18T15:16:04Z</time>
      </trkpt>
      <trkpt lat="-28.243625" lon="-65.646225">
        <ele>829.8</ele>
        <time>2018-08-18T15:16:06Z</time>
      </trkpt>
      <trkpt lat="-28.243545" lon="-65.64622">
        <ele>829.3</ele>
        <time>2018-08-18T15:16:08Z</time>
      </trkpt>
      <trkpt lat="-28.243465" lon="-65.64621">
        <ele>828.9</ele>
        <time>2018-08-18T15:16:10Z</time>
      </trkpt>
      <trkpt lat="-28.243375" lon="-65.646195">
        <ele>828.9</ele>
        <time>2018-08-18T15:16:12Z</time>
      </trkpt>
      <trkpt lat="-28.243290000000002" lon="-65.64618333333334">
        <ele>829.2</ele>
        <time>2018-08-18T15:16:14Z</time>
      </trkpt>
      <trkpt lat="-28.24321" lon="-65.64618">
        <ele>829.5</ele>
        <time>2018-08-18T15:16:16Z</time>
      </trkpt>
      <trkpt lat="-28.243115" lon="-65.64618">
        <ele>829.7</ele>
        <time>2018-08-18T15:16:18Z</time>
      </trkpt>
      <trkpt lat="-28.24303" lon="-65.64618">
        <ele>829.6</ele>
        <time>2018-08-18T15:16:20Z</time>
      </trkpt>
      <trkpt lat="-28.242955" lon="-65.64617">
        <ele>829.6</ele>
        <time>2018-08-18T15:16:22Z</time>
      </trkpt>
      <trkpt lat="-28.242875" lon="-65.646165">
        <ele>829.7</ele>
        <time>2018-08-18T15:16:24Z</time>
      </trkpt>
      <trkpt lat="-28.24278" lon="-65.646165">
        <ele>830.7</ele>
        <time>2018-08-18T15:16:26Z</time>
      </trkpt>
      <trkpt lat="-28.24269" lon="-65.646145">
        <ele>831.3</ele>
        <time>2018-08-18T15:16:28Z</time>
      </trkpt>
      <trkpt lat="-28.24261" lon="-65.646145">
        <ele>831.2</ele>
        <time>2018-08-18T15:16:30Z</time>
      </trkpt>
      <trkpt lat="-28.24251" lon="-65.646135">
        <ele>830.6</ele>
        <time>2018-08-18T15:16:33Z</time>
      </trkpt>
      <trkpt lat="-28.242435" lon="-65.646125">
        <ele>830.4</ele>
        <time>2018-08-18T15:16:35Z</time>
      </trkpt>
      <trkpt lat="-28.242355" lon="-65.64610833333333">
        <ele>830.6</ele>
        <time>2018-08-18T15:16:37Z</time>
      </trkpt>
      <trkpt lat="-28.242265" lon="-65.6461">
        <ele>830.7</ele>
        <time>2018-08-18T15:16:39Z</time>
      </trkpt>
      <trkpt lat="-28.24219" lon="-65.6461">
        <ele>831.0</ele>
        <time>2018-08-18T15:16:41Z</time>
      </trkpt>
      <trkpt lat="-28.24211" lon="-65.646095">
        <ele>830.6</ele>
        <time>2018-08-18T15:16:43Z</time>
      </trkpt>
      <trkpt lat="-28.24201" lon="-65.64609">
        <ele>829.8</ele>
        <time>2018-08-18T15:16:45Z</time>
      </trkpt>
      <trkpt lat="-28.24194" lon="-65.64609">
        <ele>828.8</ele>
        <time>2018-08-18T15:16:47Z</time>
      </trkpt>
      <trkpt lat="-28.241855" lon="-65.64608">
        <ele>828.2</ele>
        <time>2018-08-18T15:16:49Z</time>
      </trkpt>
      <trkpt lat="-28.241775" lon="-65.64606166666667">
        <ele>827.7</ele>
        <time>2018-08-18T15:16:51Z</time>
      </trkpt>
      <trkpt lat="-28.24168" lon="-65.64606">
        <ele>827.5</ele>
        <time>2018-08-18T15:16:53Z</time>
      </trkpt>
      <trkpt lat="-28.241585" lon="-65.64605">
        <ele>829.1</ele>
        <time>2018-08-18T15:16:55Z</time>
      </trkpt>
      <trkpt lat="-28.24149" lon="-65.64604">
        <ele>830.6</ele>
        <time>2018-08-18T15:16:57Z</time>
      </trkpt>
      <trkpt lat="-28.241395" lon="-65.64602666666667">
        <ele>832.5</ele>
        <time>2018-08-18T15:16:59Z</time>
      </trkpt>
      <trkpt lat="-28.2413" lon="-65.646015">
        <ele>834.1</ele>
        <time>2018-08-18T15:17:01Z</time>
      </trkpt>
      <trkpt lat="-28.24123" lon="-65.646015">
        <ele>833.9</ele>
        <time>2018-08-18T15:17:03Z</time>
      </trkpt>
      <trkpt lat="-28.241145" lon="-65.646015">
        <ele>832.9</ele>
        <time>2018-08-18T15:17:05Z</time>
      </trkpt>
      <trkpt lat="-28.241075" lon="-65.64601">
        <ele>832.9</ele>
        <time>2018-08-18T15:17:07Z</time>
      </trkpt>
      <trkpt lat="-28.24099" lon="-65.64601">
        <ele>832.4</ele>
        <time>2018-08-18T15:17:09Z</time>
      </trkpt>
      <trkpt lat="-28.24091" lon="-65.646005">
        <ele>831.3</ele>
        <time>2018-08-18T15:17:11Z</time>
      </trkpt>
      <trkpt lat="-28.2408" lon="-65.646">
        <ele>829.9</ele>
        <time>2018-08-18T15:17:14Z</time>
      </trkpt>
      <trkpt lat="-28.24072" lon="-65.645995">
        <ele>829.5</ele>
        <time>2018-08-18T15:17:16Z</time>
      </trkpt>
      <trkpt lat="-28.240635" lon="-65.64597666666667">
        <ele>829.5</ele>
        <time>2018-08-18T15:17:18Z</time>
      </trkpt>
      <trkpt lat="-28.24053" lon="-65.64596833333333">
        <ele>829.0</ele>
        <time>2018-08-18T15:17:21Z</time>
      </trkpt>
      <trkpt lat="-28.240455" lon="-65.645965">
        <ele>828.9</ele>
        <time>2018-08-18T15:17:23Z</time>
      </trkpt>
      <trkpt lat="-28.24037" lon="-65.645955">
        <ele>829.5</ele>
        <time>2018-08-18T15:17:25Z</time>
      </trkpt>
      <trkpt lat="-28.240295" lon="-65.64595">
        <ele>830.2</ele>
        <time>2018-08-18T15:17:27Z</time>
      </trkpt>
      <trkpt lat="-28.24019" lon="-65.64593">
        <ele>830.3</ele>
        <time>2018-08-18T15:17:30Z</time>
      </trkpt>
      <trkpt lat="-28.240075" lon="-65.64593">
        <ele>830.6</ele>
        <time>2018-08-18T15:17:33Z</time>
      </trkpt>
      <trkpt lat="-28.24" lon="-65.64593">
        <ele>831.5</ele>
        <time>2018-08-18T15:17:35Z</time>
      </trkpt>
      <trkpt lat="-28.23992" lon="-65.64592">
        <ele>832.8</ele>
        <time>2018-08-18T15:17:37Z</time>
      </trkpt>
      <trkpt lat="-28.23984" lon="-65.64592">
        <ele>833.3</ele>
        <time>2018-08-18T15:17:39Z</time>
      </trkpt>
      <trkpt lat="-28.239755" lon="-65.64591">
        <ele>834.2</ele>
        <time>2018-08-18T15:17:41Z</time>
      </trkpt>
      <trkpt lat="-28.239655" lon="-65.6459">
        <ele>835.1</ele>
        <time>2018-08-18T15:17:43Z</time>
      </trkpt>
      <trkpt lat="-28.239555" lon="-65.645885">
        <ele>835.4</ele>
        <time>2018-08-18T15:17:45Z</time>
      </trkpt>
      <trkpt lat="-28.23947" lon="-65.645885">
        <ele>835.8</ele>
        <time>2018-08-18T15:17:48Z</time>
      </trkpt>
      <trkpt lat="-28.239375" lon="-65.64588333333333">
        <ele>835.9</ele>
        <time>2018-08-18T15:17:51Z</time>
      </trkpt>
      <trkpt lat="-28.239305" lon="-65.64587666666667">
        <ele>836.1</ele>
        <time>2018-08-18T15:17:53Z</time>
      </trkpt>
      <trkpt lat="-28.23921" lon="-65.645875">
        <ele>836.3</ele>
        <time>2018-08-18T15:17:56Z</time>
      </trkpt>
      <trkpt lat="-28.23912" lon="-65.645875">
        <ele>836.5</ele>
        <time>2018-08-18T15:17:59Z</time>
      </trkpt>
      <trkpt lat="-28.23901" lon="-65.645875">
        <ele>835.4</ele>
        <time>2018-08-18T15:18:02Z</time>
      </trkpt>
      <trkpt lat="-28.2389" lon="-65.645865">
        <ele>833.9</ele>
        <time>2018-08-18T15:18:05Z</time>
      </trkpt>
      <trkpt lat="-28.238795" lon="-65.64584">
        <ele>834.1</ele>
        <time>2018-08-18T15:18:08Z</time>
      </trkpt>
      <trkpt lat="-28.23871" lon="-65.64583">
        <ele>834.4</ele>
        <time>2018-08-18T15:18:10Z</time>
      </trkpt>
      <trkpt lat="-28.23862" lon="-65.645815">
        <ele>834.7</ele>
        <time>2018-08-18T15:18:13Z</time>
      </trkpt>
      <trkpt lat="-28.238515" lon="-65.64580333333333">
        <ele>835.0</ele>
        <time>2018-08-18T15:18:16Z</time>
      </trkpt>
      <trkpt lat="-28.238415" lon="-65.645815">
        <ele>835.1</ele>
        <time>2018-08-18T15:18:19Z</time>
      </trkpt>
      <trkpt lat="-28.238335" lon="-65.645825">
        <ele>835.2</ele>
        <time>2018-08-18T15:18:21Z</time>
      </trkpt>
      <trkpt lat="-28.23826" lon="-65.645835">
        <ele>835.2</ele>
        <time>2018-08-18T15:18:24Z</time>
      </trkpt>
      <trkpt lat="-28.238175" lon="-65.645855">
        <ele>835.2</ele>
        <time>2018-08-18T15:18:27Z</time>
      </trkpt>
      <trkpt lat="-28.23807" lon="-65.645875">
        <ele>836.3</ele>
        <time>2018-08-18T15:18:30Z</time>
      </trkpt>
      <trkpt lat="-28.238" lon="-65.645875">
        <ele>837.3</ele>
        <time>2018-08-18T15:18:32Z</time>
      </trkpt>
      <trkpt lat="-28.23791" lon="-65.64588666666667">
        <ele>837.5</ele>
        <time>2018-08-18T15:18:34Z</time>
      </trkpt>
      <trkpt lat="-28.237825" lon="-65.6459">
        <ele>837.6</ele>
        <time>2018-08-18T15:18:36Z</time>
      </trkpt>
      <trkpt lat="-28.23774" lon="-65.645915">
        <ele>837.8</ele>
        <time>2018-08-18T15:18:38Z</time>
      </trkpt>
      <trkpt lat="-28.23763" lon="-65.64593">
        <ele>839.2</ele>
        <time>2018-08-18T15:18:41Z</time>
      </trkpt>
      <trkpt lat="-28.23755" lon="-65.64593">
        <ele>839.8</ele>
        <time>2018-08-18T15:18:43Z</time>
      </trkpt>
      <trkpt lat="-28.237465" lon="-65.64595">
        <ele>840.5</ele>
        <time>2018-08-18T15:18:45Z</time>
      </trkpt>
      <trkpt lat="-28.237385" lon="-65.645955">
        <ele>841.0</ele>
        <time>2018-08-18T15:18:47Z</time>
      </trkpt>
      <trkpt lat="-28.23731" lon="-65.645965">
        <ele>841.9</ele>
        <time>2018-08-18T15:18:49Z</time>
      </trkpt>
      <trkpt lat="-28.237215" lon="-65.64597166666667">
        <ele>843.6</ele>
        <time>2018-08-18T15:18:51Z</time>
      </trkpt>
      <trkpt lat="-28.23714" lon="-65.64598166666667">
        <ele>843.8</ele>
        <time>2018-08-18T15:18:53Z</time>
      </trkpt>
      <trkpt lat="-28.237065" lon="-65.64601">
        <ele>843.6</ele>
        <time>2018-08-18T15:18:55Z</time>
      </trkpt>
      <trkpt lat="-28.236995" lon="-65.646015">
        <ele>843.3</ele>
        <time>2018-08-18T15:18:57Z</time>
      </trkpt>
      <trkpt lat="-28.236895" lon="-65.64605">
        <ele>842.5</ele>
        <time>2018-08-18T15:19:00Z</time>
      </trkpt>
      <trkpt lat="-28.236815" lon="-65.64606">
        <ele>842.2</ele>
        <time>2018-08-18T15:19:02Z</time>
      </trkpt>
      <trkpt lat="-28.236725" lon="-65.64606666666667">
        <ele>842.0</ele>
        <time>2018-08-18T15:19:04Z</time>
      </trkpt>
      <trkpt lat="-28.23665" lon="-65.646085">
        <ele>842.5</ele>
        <time>2018-08-18T15:19:06Z</time>
      </trkpt>
      <trkpt lat="-28.23657" lon="-65.646095">
        <ele>842.5</ele>
        <time>2018-08-18T15:19:08Z</time>
      </trkpt>
      <trkpt lat="-28.236495" lon="-65.6461">
        <ele>842.6</ele>
        <time>2018-08-18T15:19:10Z</time>
      </trkpt>
      <trkpt lat="-28.23641" lon="-65.64611166666667">
        <ele>843.3</ele>
        <time>2018-08-18T15:19:12Z</time>
      </trkpt>
      <trkpt lat="-28.236335" lon="-65.646125">
        <ele>844.8</ele>
        <time>2018-08-18T15:19:14Z</time>
      </trkpt>
      <trkpt lat="-28.23623" lon="-65.646145">
        <ele>845.9</ele>
        <time>2018-08-18T15:19:17Z</time>
      </trkpt>
      <trkpt lat="-28.23615" lon="-65.64617">
        <ele>845.9</ele>
        <time>2018-08-18T15:19:19Z</time>
      </trkpt>
      <trkpt lat="-28.236075" lon="-65.64618">
        <ele>844.7</ele>
        <time>2018-08-18T15:19:21Z</time>
      </trkpt>
      <trkpt lat="-28.235995" lon="-65.64619333333333">
        <ele>843.4</ele>
        <time>2018-08-18T15:19:23Z</time>
      </trkpt>
      <trkpt lat="-28.235925" lon="-65.64621">
        <ele>842.2</ele>
        <time>2018-08-18T15:19:25Z</time>
      </trkpt>
      <trkpt lat="-28.23585" lon="-65.64623">
        <ele>841.1</ele>
        <time>2018-08-18T15:19:27Z</time>
      </trkpt>
      <trkpt lat="-28.235775" lon="-65.646255">
        <ele>841.0</ele>
        <time>2018-08-18T15:19:29Z</time>
      </trkpt>
      <trkpt lat="-28.235685" lon="-65.646275">
        <ele>838.8</ele>
        <time>2018-08-18T15:19:31Z</time>
      </trkpt>
      <trkpt lat="-28.235615" lon="-65.646285">
        <ele>837.1</ele>
        <time>2018-08-18T15:19:33Z</time>
      </trkpt>
      <trkpt lat="-28.23553" lon="-65.646305">
        <ele>834.9</ele>
        <time>2018-08-18T15:19:35Z</time>
      </trkpt>
      <trkpt lat="-28.23544" lon="-65.64632">
        <ele>833.9</ele>
        <time>2018-08-18T15:19:37Z</time>
      </trkpt>
      <trkpt lat="-28.23534" lon="-65.64633333333333">
        <ele>833.4</ele>
        <time>2018-08-18T15:19:39Z</time>
      </trkpt>
      <trkpt lat="-28.235265" lon="-65.64635">
        <ele>832.7</ele>
        <time>2018-08-18T15:19:41Z</time>
      </trkpt>
      <trkpt lat="-28.235175" lon="-65.64637">
        <ele>830.8</ele>
        <time>2018-08-18T15:19:43Z</time>
      </trkpt>
      <trkpt lat="-28.235095" lon="-65.646395">
        <ele>828.8</ele>
        <time>2018-08-18T15:19:45Z</time>
      </trkpt>
      <trkpt lat="-28.235" lon="-65.646405">
        <ele>827.7</ele>
        <time>2018-08-18T15:19:47Z</time>
      </trkpt>
      <trkpt lat="-28.234925" lon="-65.64641166666667">
        <ele>828.5</ele>
        <time>2018-08-18T15:19:49Z</time>
      </trkpt>
      <trkpt lat="-28.23483" lon="-65.646435">
        <ele>829.2</ele>
        <time>2018-08-18T15:19:51Z</time>
      </trkpt>
      <trkpt lat="-28.234735" lon="-65.646435">
        <ele>829.9</ele>
        <time>2018-08-18T15:19:53Z</time>
      </trkpt>
      <trkpt lat="-28.23464" lon="-65.64645">
        <ele>830.2</ele>
        <time>2018-08-18T15:19:55Z</time>
      </trkpt>
      <trkpt lat="-28.234545" lon="-65.646455">
        <ele>830.3</ele>
        <time>2018-08-18T15:19:58Z</time>
      </trkpt>
      <trkpt lat="-28.234475" lon="-65.646455">
        <ele>830.6</ele>
        <time>2018-08-18T15:20:01Z</time>
      </trkpt>
      <trkpt lat="-28.23439" lon="-65.646465">
        <ele>830.8</ele>
        <time>2018-08-18T15:20:04Z</time>
      </trkpt>
      <trkpt lat="-28.2343" lon="-65.64648">
        <ele>831.0</ele>
        <time>2018-08-18T15:20:08Z</time>
      </trkpt>
      <trkpt lat="-28.234205" lon="-65.64649">
        <ele>831.0</ele>
        <time>2018-08-18T15:20:12Z</time>
      </trkpt>
      <trkpt lat="-28.23413" lon="-65.64651666666667">
        <ele>830.6</ele>
        <time>2018-08-18T15:20:17Z</time>
      </trkpt>
      <trkpt lat="-28.234045" lon="-65.646535">
        <ele>830.1</ele>
        <time>2018-08-18T15:20:21Z</time>
      </trkpt>
      <trkpt lat="-28.233955" lon="-65.64654">
        <ele>829.8</ele>
        <time>2018-08-18T15:20:25Z</time>
      </trkpt>
      <trkpt lat="-28.23386" lon="-65.646545">
        <ele>829.5</ele>
        <time>2018-08-18T15:20:28Z</time>
      </trkpt>
      <trkpt lat="-28.23378" lon="-65.64655">
        <ele>829.4</ele>
        <time>2018-08-18T15:20:31Z</time>
      </trkpt>
      <trkpt lat="-28.233705" lon="-65.646575">
        <ele>829.3</ele>
        <time>2018-08-18T15:20:34Z</time>
      </trkpt>
      <trkpt lat="-28.23362" lon="-65.646595">
        <ele>828.9</ele>
        <time>2018-08-18T15:20:38Z</time>
      </trkpt>
      <trkpt lat="-28.233525" lon="-65.64659666666667">
        <ele>828.5</ele>
        <time>2018-08-18T15:20:41Z</time>
      </trkpt>
      <trkpt lat="-28.233445" lon="-65.6466">
        <ele>828.0</ele>
        <time>2018-08-18T15:20:44Z</time>
      </trkpt>
      <trkpt lat="-28.23337" lon="-65.64662">
        <ele>827.6</ele>
        <time>2018-08-18T15:20:47Z</time>
      </trkpt>
      <trkpt lat="-28.233285" lon="-65.64663">
        <ele>827.2</ele>
        <time>2018-08-18T15:20:50Z</time>
      </trkpt>
      <trkpt lat="-28.233205" lon="-65.646635">
        <ele>827.0</ele>
        <time>2018-08-18T15:20:53Z</time>
      </trkpt>
      <trkpt lat="-28.233095" lon="-65.646625">
        <ele>826.6</ele>
        <time>2018-08-18T15:20:57Z</time>
      </trkpt>
      <trkpt lat="-28.233005" lon="-65.646625">
        <ele>826.5</ele>
        <time>2018-08-18T15:21:00Z</time>
      </trkpt>
      <trkpt lat="-28.232915" lon="-65.646625">
        <ele>826.5</ele>
        <time>2018-08-18T15:21:03Z</time>
      </trkpt>
      <trkpt lat="-28.232825" lon="-65.646635">
        <ele>826.5</ele>
        <time>2018-08-18T15:21:06Z</time>
      </trkpt>
      <trkpt lat="-28.232725" lon="-65.64664666666667">
        <ele>826.5</ele>
        <time>2018-08-18T15:21:10Z</time>
      </trkpt>
      <trkpt lat="-28.23264" lon="-65.64667">
        <ele>826.5</ele>
        <time>2018-08-18T15:21:13Z</time>
      </trkpt>
      <trkpt lat="-28.23256" lon="-65.64668">
        <ele>826.4</ele>
        <time>2018-08-18T15:21:16Z</time>
      </trkpt>
      <trkpt lat="-28.23246" lon="-65.64668">
        <ele>826.8</ele>
        <time>2018-08-18T15:21:19Z</time>
      </trkpt>
      <trkpt lat="-28.232385" lon="-65.64668">
        <ele>827.1</ele>
        <time>2018-08-18T15:21:21Z</time>
      </trkpt>
      <trkpt lat="-28.23231" lon="-65.64668">
        <ele>827.4</ele>
        <time>2018-08-18T15:21:23Z</time>
      </trkpt>
      <trkpt lat="-28.23221" lon="-65.64666">
        <ele>827.8</ele>
        <time>2018-08-18T15:21:26Z</time>
      </trkpt>
      <trkpt lat="-28.23212" lon="-65.64668">
        <ele>828.4</ele>
        <time>2018-08-18T15:21:29Z</time>
      </trkpt>
      <trkpt lat="-28.23203" lon="-65.64669">
        <ele>828.9</ele>
        <time>2018-08-18T15:21:31Z</time>
      </trkpt>
      <trkpt lat="-28.231935" lon="-65.64669">
        <ele>829.9</ele>
        <time>2018-08-18T15:21:34Z</time>
      </trkpt>
      <trkpt lat="-28.231865" lon="-65.64669">
        <ele>830.6</ele>
        <time>2018-08-18T15:21:37Z</time>
      </trkpt>
      <trkpt lat="-28.23179" lon="-65.64669">
        <ele>831.4</ele>
        <time>2018-08-18T15:21:41Z</time>
      </trkpt>
      <trkpt lat="-28.23172" lon="-65.64671">
        <ele>832.4</ele>
        <time>2018-08-18T15:21:47Z</time>
      </trkpt>
      <trkpt lat="-28.231625" lon="-65.646725">
        <ele>832.9</ele>
        <time>2018-08-18T15:21:52Z</time>
      </trkpt>
      <trkpt lat="-28.231545" lon="-65.646755">
        <ele>832.8</ele>
        <time>2018-08-18T15:21:56Z</time>
      </trkpt>
      <trkpt lat="-28.231455" lon="-65.646765">
        <ele>832.7</ele>
        <time>2018-08-18T15:21:59Z</time>
      </trkpt>
      <trkpt lat="-28.231355" lon="-65.646775">
        <ele>832.7</ele>
        <time>2018-08-18T15:22:02Z</time>
      </trkpt>
      <trkpt lat="-28.231265" lon="-65.646775">
        <ele>832.7</ele>
        <time>2018-08-18T15:22:05Z</time>
      </trkpt>
      <trkpt lat="-28.231175" lon="-65.64678166666667">
        <ele>832.8</ele>
        <time>2018-08-18T15:22:08Z</time>
      </trkpt>
      <trkpt lat="-28.231095" lon="-65.6468">
        <ele>832.7</ele>
        <time>2018-08-18T15:22:11Z</time>
      </trkpt>
      <trkpt lat="-28.231005" lon="-65.646815">
        <ele>832.5</ele>
        <time>2018-08-18T15:22:14Z</time>
      </trkpt>
      <trkpt lat="-28.230905" lon="-65.64682">
        <ele>832.2</ele>
        <time>2018-08-18T15:22:17Z</time>
      </trkpt>
      <trkpt lat="-28.230795" lon="-65.64682666666667">
        <ele>831.8</ele>
        <time>2018-08-18T15:22:20Z</time>
      </trkpt>
      <trkpt lat="-28.23071" lon="-65.64682666666667">
        <ele>831.8</ele>
        <time>2018-08-18T15:22:22Z</time>
      </trkpt>
      <trkpt lat="-28.2306" lon="-65.646845">
        <ele>831.9</ele>
        <time>2018-08-18T15:22:25Z</time>
      </trkpt>
      <trkpt lat="-28.23051" lon="-65.64686">
        <ele>832.0</ele>
        <time>2018-08-18T15:22:28Z</time>
      </trkpt>
      <trkpt lat="-28.230415" lon="-65.64686166666667">
        <ele>832.1</ele>
        <time>2018-08-18T15:22:31Z</time>
      </trkpt>
      <trkpt lat="-28.23032" lon="-65.64687">
        <ele>832.1</ele>
        <time>2018-08-18T15:22:34Z</time>
      </trkpt>
      <trkpt lat="-28.230215" lon="-65.646885">
        <ele>832.2</ele>
        <time>2018-08-18T15:22:37Z</time>
      </trkpt>
      <trkpt lat="-28.23012" lon="-65.646895">
        <ele>832.3</ele>
        <time>2018-08-18T15:22:40Z</time>
      </trkpt>
      <trkpt lat="-28.23002" lon="-65.646905">
        <ele>832.4</ele>
        <time>2018-08-18T15:22:43Z</time>
      </trkpt>
      <trkpt lat="-28.229945" lon="-65.646915">
        <ele>832.6</ele>
        <time>2018-08-18T15:22:45Z</time>
      </trkpt>
      <trkpt lat="-28.229865" lon="-65.646915">
        <ele>832.6</ele>
        <time>2018-08-18T15:22:47Z</time>
      </trkpt>
      <trkpt lat="-28.22979" lon="-65.64693">
        <ele>832.7</ele>
        <time>2018-08-18T15:22:49Z</time>
      </trkpt>
      <trkpt lat="-28.229705" lon="-65.646935">
        <ele>832.8</ele>
        <time>2018-08-18T15:22:51Z</time>
      </trkpt>
      <trkpt lat="-28.22962" lon="-65.646935">
        <ele>833.0</ele>
        <time>2018-08-18T15:22:53Z</time>
      </trkpt>
      <trkpt lat="-28.22954" lon="-65.64694">
        <ele>833.3</ele>
        <time>2018-08-18T15:22:56Z</time>
      </trkpt>
      <trkpt lat="-28.229445" lon="-65.64695">
        <ele>833.4</ele>
        <time>2018-08-18T15:23:00Z</time>
      </trkpt>
      <trkpt lat="-28.229355" lon="-65.64696166666667">
        <ele>833.4</ele>
        <time>2018-08-18T15:23:03Z</time>
      </trkpt>
      <trkpt lat="-28.229265" lon="-65.64698">
        <ele>833.6</ele>
        <time>2018-08-18T15:23:06Z</time>
      </trkpt>
      <trkpt lat="-28.22917" lon="-65.64699">
        <ele>833.4</ele>
        <time>2018-08-18T15:23:10Z</time>
      </trkpt>
      <trkpt lat="-28.229115" lon="-65.64699">
        <ele>833.2</ele>
        <time>2018-08-18T15:23:17Z</time>
      </trkpt>
      <trkpt lat="-28.22911" lon="-65.646995">
        <ele>833.2</ele>
        <time>2018-08-18T15:23:20Z</time>
      </trkpt>
      <trkpt lat="-28.2291" lon="-65.646995">
        <ele>833.5</ele>
        <time>2018-08-18T15:23:38Z</time>
      </trkpt>
      <trkpt lat="-28.2291" lon="-65.646995">
        <ele>833.6</ele>
        <time>2018-08-18T15:23:39Z</time>
      </trkpt>
      <trkpt lat="-28.22909" lon="-65.647">
        <ele>833.7</ele>
        <time>2018-08-18T15:24:10Z</time>
      </trkpt>
      <trkpt lat="-28.22909" lon="-65.647">
        <ele>833.7</ele>
        <time>2018-08-18T15:24:11Z</time>
      </trkpt>
      <trkpt lat="-28.22907" lon="-65.646995">
        <ele>834.1</ele>
        <time>2018-08-18T15:24:20Z</time>
      </trkpt>
      <trkpt lat="-28.229065" lon="-65.64699">
        <ele>834.1</ele>
        <time>2018-08-18T15:24:21Z</time>
      </trkpt>
      <trkpt lat="-28.22905" lon="-65.64696666666667">
        <ele>835.2</ele>
        <time>2018-08-18T15:24:34Z</time>
      </trkpt>
      <trkpt lat="-28.22905" lon="-65.64696166666667">
        <ele>835.4</ele>
        <time>2018-08-18T15:24:35Z</time>
      </trkpt>
      <trkpt lat="-28.229005" lon="-65.64696333333333">
        <ele>835.7</ele>
        <time>2018-08-18T15:24:42Z</time>
      </trkpt>
      <trkpt lat="-28.229" lon="-65.64698">
        <ele>835.7</ele>
        <time>2018-08-18T15:24:43Z</time>
      </trkpt>
      <trkpt lat="-28.22899" lon="-65.64698">
        <ele>836.0</ele>
        <time>2018-08-18T15:24:52Z</time>
      </trkpt>
      <trkpt lat="-28.228995" lon="-65.64698">
        <ele>836.0</ele>
        <time>2018-08-18T15:24:53Z</time>
      </trkpt>
      <trkpt lat="-28.22901" lon="-65.64696">
        <ele>836.2</ele>
        <time>2018-08-18T15:25:02Z</time>
      </trkpt>
      <trkpt lat="-28.22901" lon="-65.64696">
        <ele>836.4</ele>
        <time>2018-08-18T15:25:03Z</time>
      </trkpt>
      <trkpt lat="-28.22898" lon="-65.64696333333333">
        <ele>836.9</ele>
        <time>2018-08-18T15:25:13Z</time>
      </trkpt>
      <trkpt lat="-28.22898" lon="-65.64696333333333">
        <ele>836.9</ele>
        <time>2018-08-18T15:25:14Z</time>
      </trkpt>
      <trkpt lat="-28.229" lon="-65.64696">
        <ele>837.2</ele>
        <time>2018-08-18T15:25:25Z</time>
      </trkpt>
      <trkpt lat="-28.229005" lon="-65.64696">
        <ele>837.2</ele>
        <time>2018-08-18T15:25:26Z</time>
      </trkpt>
      <trkpt lat="-28.22901" lon="-65.646985">
        <ele>837.7</ele>
        <time>2018-08-18T15:25:34Z</time>
      </trkpt>
      <trkpt lat="-28.22901" lon="-65.64699">
        <ele>837.7</ele>
        <time>2018-08-18T15:25:35Z</time>
      </trkpt>
      <trkpt lat="-28.228995" lon="-65.64696">
        <ele>838.5</ele>
        <time>2018-08-18T15:25:47Z</time>
      </trkpt>
      <trkpt lat="-28.22899" lon="-65.64696">
        <ele>838.5</ele>
        <time>2018-08-18T15:25:48Z</time>
      </trkpt>
      <trkpt lat="-28.22901" lon="-65.64696166666667">
        <ele>839.4</ele>
        <time>2018-08-18T15:26:04Z</time>
      </trkpt>
      <trkpt lat="-28.22901" lon="-65.64696333333333">
        <ele>839.5</ele>
        <time>2018-08-18T15:26:05Z</time>
      </trkpt>
      <trkpt lat="-28.229035" lon="-65.646985">
        <ele>839.6</ele>
        <time>2018-08-18T15:26:14Z</time>
      </trkpt>
      <trkpt lat="-28.229035" lon="-65.646985">
        <ele>839.6</ele>
        <time>2018-08-18T15:26:15Z</time>
      </trkpt>
      <trkpt lat="-28.229065" lon="-65.646985">
        <ele>839.9</ele>
        <time>2018-08-18T15:27:27Z</time>
      </trkpt>
      <trkpt lat="-28.22907" lon="-65.64699">
        <ele>839.9</ele>
        <time>2018-08-18T15:27:28Z</time>
      </trkpt>
      <trkpt lat="-28.22908" lon="-65.646995">
        <ele>839.8</ele>
        <time>2018-08-18T15:27:38Z</time>
      </trkpt>
      <trkpt lat="-28.22908" lon="-65.646995">
        <ele>839.8</ele>
        <time>2018-08-18T15:27:39Z</time>
      </trkpt>
      <trkpt lat="-28.22909" lon="-65.64699">
        <ele>839.3</ele>
        <time>2018-08-18T15:28:09Z</time>
      </trkpt>
      <trkpt lat="-28.22909" lon="-65.64699">
        <ele>839.3</ele>
        <time>2018-08-18T15:28:10Z</time>
      </trkpt>
      <trkpt lat="-28.229045" lon="-65.64700166666667">
        <ele>837.9</ele>
        <time>2018-08-18T15:28:32Z</time>
      </trkpt>
      <trkpt lat="-28.22903" lon="-65.64701">
        <ele>837.4</ele>
        <time>2018-08-18T15:28:36Z</time>
      </trkpt>
      <trkpt lat="-28.22898" lon="-65.647035">
        <ele>836.1</ele>
        <time>2018-08-18T15:28:44Z</time>
      </trkpt>
      <trkpt lat="-28.228975" lon="-65.64704">
        <ele>835.8</ele>
        <time>2018-08-18T15:28:48Z</time>
      </trkpt>
      <trkpt lat="-28.22889" lon="-65.64705166666667">
        <ele>834.6</ele>
        <time>2018-08-18T15:28:56Z</time>
      </trkpt>
      <trkpt lat="-28.2288" lon="-65.647085">
        <ele>833.9</ele>
        <time>2018-08-18T15:29:00Z</time>
      </trkpt>
      <trkpt lat="-28.22871" lon="-65.647085">
        <ele>833.5</ele>
        <time>2018-08-18T15:29:03Z</time>
      </trkpt>
      <trkpt lat="-28.228615" lon="-65.64709166666667">
        <ele>833.2</ele>
        <time>2018-08-18T15:29:06Z</time>
      </trkpt>
      <trkpt lat="-28.22853" lon="-65.64711">
        <ele>832.8</ele>
        <time>2018-08-18T15:29:09Z</time>
      </trkpt>
      <trkpt lat="-28.228445" lon="-65.64713">
        <ele>832.5</ele>
        <time>2018-08-18T15:29:12Z</time>
      </trkpt>
      <trkpt lat="-28.22836" lon="-65.64715">
        <ele>832.1</ele>
        <time>2018-08-18T15:29:15Z</time>
      </trkpt>
      <trkpt lat="-28.228285" lon="-65.647155">
        <ele>831.9</ele>
        <time>2018-08-18T15:29:17Z</time>
      </trkpt>
      <trkpt lat="-28.228185" lon="-65.647165">
        <ele>831.8</ele>
        <time>2018-08-18T15:29:20Z</time>
      </trkpt>
      <trkpt lat="-28.228105" lon="-65.64716666666666">
        <ele>831.9</ele>
        <time>2018-08-18T15:29:23Z</time>
      </trkpt>
      <trkpt lat="-28.22803" lon="-65.64718">
        <ele>832.0</ele>
        <time>2018-08-18T15:29:26Z</time>
      </trkpt>
      <trkpt lat="-28.22794" lon="-65.647195">
        <ele>832.2</ele>
        <time>2018-08-18T15:29:29Z</time>
      </trkpt>
      <trkpt lat="-28.22786" lon="-65.64721">
        <ele>832.3</ele>
        <time>2018-08-18T15:29:33Z</time>
      </trkpt>
      <trkpt lat="-28.227785" lon="-65.647225">
        <ele>832.4</ele>
        <time>2018-08-18T15:29:37Z</time>
      </trkpt>
      <trkpt lat="-28.22771" lon="-65.64724">
        <ele>832.5</ele>
        <time>2018-08-18T15:29:40Z</time>
      </trkpt>
      <trkpt lat="-28.22763" lon="-65.64726">
        <ele>832.4</ele>
        <time>2018-08-18T15:29:43Z</time>
      </trkpt>
      <trkpt lat="-28.227555" lon="-65.64727666666667">
        <ele>832.3</ele>
        <time>2018-08-18T15:29:46Z</time>
      </trkpt>
      <trkpt lat="-28.227475" lon="-65.64731">
        <ele>832.1</ele>
        <time>2018-08-18T15:29:49Z</time>
      </trkpt>
      <trkpt lat="-28.22738" lon="-65.64731833333333">
        <ele>831.9</ele>
        <time>2018-08-18T15:29:52Z</time>
      </trkpt>
      <trkpt lat="-28.227285" lon="-65.64735">
        <ele>831.6</ele>
        <time>2018-08-18T15:29:55Z</time>
      </trkpt>
      <trkpt lat="-28.22721" lon="-65.64736">
        <ele>831.4</ele>
        <time>2018-08-18T15:29:57Z</time>
      </trkpt>
      <trkpt lat="-28.22711" lon="-65.64739666666667">
        <ele>829.8</ele>
        <time>2018-08-18T15:30:00Z</time>
      </trkpt>
      <trkpt lat="-28.22701" lon="-65.64743">
        <ele>829.7</ele>
        <time>2018-08-18T15:30:03Z</time>
      </trkpt>
      <trkpt lat="-28.22693" lon="-65.64744">
        <ele>829.7</ele>
        <time>2018-08-18T15:30:05Z</time>
      </trkpt>
      <trkpt lat="-28.22682" lon="-65.647465">
        <ele>829.4</ele>
        <time>2018-08-18T15:30:08Z</time>
      </trkpt>
      <trkpt lat="-28.22675" lon="-65.647485">
        <ele>828.6</ele>
        <time>2018-08-18T15:30:10Z</time>
      </trkpt>
      <trkpt lat="-28.226675" lon="-65.64750166666667">
        <ele>828.2</ele>
        <time>2018-08-18T15:30:12Z</time>
      </trkpt>
      <trkpt lat="-28.226595" lon="-65.647535">
        <ele>828.2</ele>
        <time>2018-08-18T15:30:14Z</time>
      </trkpt>
      <trkpt lat="-28.2265" lon="-65.64756">
        <ele>829.3</ele>
        <time>2018-08-18T15:30:17Z</time>
      </trkpt>
      <trkpt lat="-28.22643" lon="-65.64758">
        <ele>829.4</ele>
        <time>2018-08-18T15:30:19Z</time>
      </trkpt>
      <trkpt lat="-28.22634" lon="-65.6476">
        <ele>830.4</ele>
        <time>2018-08-18T15:30:21Z</time>
      </trkpt>
      <trkpt lat="-28.226265" lon="-65.64762">
        <ele>831.4</ele>
        <time>2018-08-18T15:30:23Z</time>
      </trkpt>
      <trkpt lat="-28.22617" lon="-65.64763333333333">
        <ele>831.6</ele>
        <time>2018-08-18T15:30:26Z</time>
      </trkpt>
      <trkpt lat="-28.22606" lon="-65.647665">
        <ele>831.7</ele>
        <time>2018-08-18T15:30:29Z</time>
      </trkpt>
      <trkpt lat="-28.22599" lon="-65.64769">
        <ele>831.7</ele>
        <time>2018-08-18T15:30:31Z</time>
      </trkpt>
      <trkpt lat="-28.225906666666667" lon="-65.64771">
        <ele>831.9</ele>
        <time>2018-08-18T15:30:34Z</time>
      </trkpt>
      <trkpt lat="-28.22582" lon="-65.64775">
        <ele>832.0</ele>
        <time>2018-08-18T15:30:37Z</time>
      </trkpt>
      <trkpt lat="-28.225735" lon="-65.64777">
        <ele>832.2</ele>
        <time>2018-08-18T15:30:40Z</time>
      </trkpt>
      <trkpt lat="-28.22564" lon="-65.6478">
        <ele>832.3</ele>
        <time>2018-08-18T15:30:43Z</time>
      </trkpt>
      <trkpt lat="-28.225545" lon="-65.647805">
        <ele>832.5</ele>
        <time>2018-08-18T15:30:46Z</time>
      </trkpt>
      <trkpt lat="-28.225455" lon="-65.647835">
        <ele>832.8</ele>
        <time>2018-08-18T15:30:50Z</time>
      </trkpt>
      <trkpt lat="-28.225375" lon="-65.64785666666667">
        <ele>832.9</ele>
        <time>2018-08-18T15:30:53Z</time>
      </trkpt>
      <trkpt lat="-28.2253" lon="-65.64789">
        <ele>833.2</ele>
        <time>2018-08-18T15:30:56Z</time>
      </trkpt>
      <trkpt lat="-28.22523" lon="-65.6479">
        <ele>833.3</ele>
        <time>2018-08-18T15:30:59Z</time>
      </trkpt>
      <trkpt lat="-28.225145" lon="-65.647935">
        <ele>833.5</ele>
        <time>2018-08-18T15:31:02Z</time>
      </trkpt>
      <trkpt lat="-28.22505" lon="-65.647965">
        <ele>833.7</ele>
        <time>2018-08-18T15:31:05Z</time>
      </trkpt>
      <trkpt lat="-28.22497" lon="-65.647985">
        <ele>833.7</ele>
        <time>2018-08-18T15:31:08Z</time>
      </trkpt>
      <trkpt lat="-28.224885" lon="-65.64802">
        <ele>833.7</ele>
        <time>2018-08-18T15:31:11Z</time>
      </trkpt>
      <trkpt lat="-28.224805" lon="-65.64803">
        <ele>833.7</ele>
        <time>2018-08-18T15:31:14Z</time>
      </trkpt>
      <trkpt lat="-28.224715" lon="-65.64803833333333">
        <ele>833.9</ele>
        <time>2018-08-18T15:31:17Z</time>
      </trkpt>
      <trkpt lat="-28.224625" lon="-65.64807">
        <ele>834.1</ele>
        <time>2018-08-18T15:31:20Z</time>
      </trkpt>
      <trkpt lat="-28.22454" lon="-65.648105">
        <ele>834.2</ele>
        <time>2018-08-18T15:31:23Z</time>
      </trkpt>
      <trkpt lat="-28.224435" lon="-65.64811666666667">
        <ele>834.4</ele>
        <time>2018-08-18T15:31:26Z</time>
      </trkpt>
      <trkpt lat="-28.22435" lon="-65.64815">
        <ele>834.7</ele>
        <time>2018-08-18T15:31:29Z</time>
      </trkpt>
      <trkpt lat="-28.224275" lon="-65.64818">
        <ele>834.9</ele>
        <time>2018-08-18T15:31:32Z</time>
      </trkpt>
      <trkpt lat="-28.224185" lon="-65.6482">
        <ele>835.2</ele>
        <time>2018-08-18T15:31:35Z</time>
      </trkpt>
      <trkpt lat="-28.22408" lon="-65.648235">
        <ele>835.3</ele>
        <time>2018-08-18T15:31:38Z</time>
      </trkpt>
      <trkpt lat="-28.223995" lon="-65.64825666666667">
        <ele>835.5</ele>
        <time>2018-08-18T15:31:41Z</time>
      </trkpt>
      <trkpt lat="-28.22391" lon="-65.64829">
        <ele>835.6</ele>
        <time>2018-08-18T15:31:44Z</time>
      </trkpt>
      <trkpt lat="-28.223815" lon="-65.64832">
        <ele>835.7</ele>
        <time>2018-08-18T15:31:47Z</time>
      </trkpt>
      <trkpt lat="-28.22371" lon="-65.64837">
        <ele>835.8</ele>
        <time>2018-08-18T15:31:50Z</time>
      </trkpt>
      <trkpt lat="-28.223615" lon="-65.648405">
        <ele>836.0</ele>
        <time>2018-08-18T15:31:53Z</time>
      </trkpt>
      <trkpt lat="-28.22351" lon="-65.64845">
        <ele>836.2</ele>
        <time>2018-08-18T15:31:56Z</time>
      </trkpt>
      <trkpt lat="-28.223425" lon="-65.64852">
        <ele>836.3</ele>
        <time>2018-08-18T15:31:59Z</time>
      </trkpt>
      <trkpt lat="-28.223345" lon="-65.64857166666667">
        <ele>836.3</ele>
        <time>2018-08-18T15:32:02Z</time>
      </trkpt>
      <trkpt lat="-28.223255" lon="-65.648645">
        <ele>836.4</ele>
        <time>2018-08-18T15:32:05Z</time>
      </trkpt>
      <trkpt lat="-28.22318" lon="-65.648695">
        <ele>836.1</ele>
        <time>2018-08-18T15:32:07Z</time>
      </trkpt>
      <trkpt lat="-28.223095" lon="-65.64875666666667">
        <ele>835.1</ele>
        <time>2018-08-18T15:32:10Z</time>
      </trkpt>
      <trkpt lat="-28.223015" lon="-65.648815">
        <ele>834.5</ele>
        <time>2018-08-18T15:32:12Z</time>
      </trkpt>
      <trkpt lat="-28.222945" lon="-65.648855">
        <ele>834.3</ele>
        <time>2018-08-18T15:32:14Z</time>
      </trkpt>
      <trkpt lat="-28.22286" lon="-65.64888833333333">
        <ele>834.3</ele>
        <time>2018-08-18T15:32:16Z</time>
      </trkpt>
      <trkpt lat="-28.22278" lon="-65.64893000000001">
        <ele>834.3</ele>
        <time>2018-08-18T15:32:18Z</time>
      </trkpt>
      <trkpt lat="-28.22269" lon="-65.64897666666667">
        <ele>833.9</ele>
        <time>2018-08-18T15:32:20Z</time>
      </trkpt>
      <trkpt lat="-28.22261" lon="-65.64901666666667">
        <ele>834.5</ele>
        <time>2018-08-18T15:32:22Z</time>
      </trkpt>
      <trkpt lat="-28.222515" lon="-65.64906166666667">
        <ele>836.1</ele>
        <time>2018-08-18T15:32:24Z</time>
      </trkpt>
      <trkpt lat="-28.22243" lon="-65.64910166666667">
        <ele>837.4</ele>
        <time>2018-08-18T15:32:26Z</time>
      </trkpt>
      <trkpt lat="-28.222355" lon="-65.649145">
        <ele>839.5</ele>
        <time>2018-08-18T15:32:28Z</time>
      </trkpt>
      <trkpt lat="-28.222275" lon="-65.649195">
        <ele>841.7</ele>
        <time>2018-08-18T15:32:30Z</time>
      </trkpt>
      <trkpt lat="-28.22221" lon="-65.64924">
        <ele>842.8</ele>
        <time>2018-08-18T15:32:32Z</time>
      </trkpt>
      <trkpt lat="-28.22215" lon="-65.649285">
        <ele>842.9</ele>
        <time>2018-08-18T15:32:34Z</time>
      </trkpt>
      <trkpt lat="-28.222085" lon="-65.64932666666667">
        <ele>843.1</ele>
        <time>2018-08-18T15:32:36Z</time>
      </trkpt>
      <trkpt lat="-28.222025" lon="-65.64937333333333">
        <ele>843.4</ele>
        <time>2018-08-18T15:32:38Z</time>
      </trkpt>
      <trkpt lat="-28.22194" lon="-65.649455">
        <ele>844.5</ele>
        <time>2018-08-18T15:32:41Z</time>
      </trkpt>
      <trkpt lat="-28.22188" lon="-65.649505">
        <ele>844.5</ele>
        <time>2018-08-18T15:32:43Z</time>
      </trkpt>
      <trkpt lat="-28.22181" lon="-65.64955166666667">
        <ele>845.0</ele>
        <time>2018-08-18T15:32:45Z</time>
      </trkpt>
      <trkpt lat="-28.22175" lon="-65.649615">
        <ele>845.3</ele>
        <time>2018-08-18T15:32:47Z</time>
      </trkpt>
      <trkpt lat="-28.22167" lon="-65.64967">
        <ele>845.8</ele>
        <time>2018-08-18T15:32:49Z</time>
      </trkpt>
      <trkpt lat="-28.221605" lon="-65.649725">
        <ele>846.5</ele>
        <time>2018-08-18T15:32:51Z</time>
      </trkpt>
      <trkpt lat="-28.221545" lon="-65.649775">
        <ele>846.6</ele>
        <time>2018-08-18T15:32:53Z</time>
      </trkpt>
      <trkpt lat="-28.22146" lon="-65.64984">
        <ele>847.3</ele>
        <time>2018-08-18T15:32:56Z</time>
      </trkpt>
      <trkpt lat="-28.221395" lon="-65.64989">
        <ele>847.4</ele>
        <time>2018-08-18T15:32:58Z</time>
      </trkpt>
      <trkpt lat="-28.22132" lon="-65.649955">
        <ele>847.5</ele>
        <time>2018-08-18T15:33:01Z</time>
      </trkpt>
      <trkpt lat="-28.221235" lon="-65.65003">
        <ele>847.6</ele>
        <time>2018-08-18T15:33:04Z</time>
      </trkpt>
      <trkpt lat="-28.22117" lon="-65.65008">
        <ele>847.7</ele>
        <time>2018-08-18T15:33:06Z</time>
      </trkpt>
      <trkpt lat="-28.2211" lon="-65.65015">
        <ele>847.6</ele>
        <time>2018-08-18T15:33:09Z</time>
      </trkpt>
      <trkpt lat="-28.22103" lon="-65.650215">
        <ele>847.5</ele>
        <time>2018-08-18T15:33:12Z</time>
      </trkpt>
      <trkpt lat="-28.220945" lon="-65.65027833333333">
        <ele>847.4</ele>
        <time>2018-08-18T15:33:15Z</time>
      </trkpt>
      <trkpt lat="-28.220885" lon="-65.650335">
        <ele>847.4</ele>
        <time>2018-08-18T15:33:17Z</time>
      </trkpt>
      <trkpt lat="-28.220815" lon="-65.65039">
        <ele>847.5</ele>
        <time>2018-08-18T15:33:19Z</time>
      </trkpt>
      <trkpt lat="-28.22074" lon="-65.65045">
        <ele>847.6</ele>
        <time>2018-08-18T15:33:23Z</time>
      </trkpt>
      <trkpt lat="-28.22065" lon="-65.650525">
        <ele>847.6</ele>
        <time>2018-08-18T15:33:26Z</time>
      </trkpt>
      <trkpt lat="-28.22059" lon="-65.65057">
        <ele>847.7</ele>
        <time>2018-08-18T15:33:28Z</time>
      </trkpt>
      <trkpt lat="-28.220525" lon="-65.650615">
        <ele>847.8</ele>
        <time>2018-08-18T15:33:30Z</time>
      </trkpt>
      <trkpt lat="-28.220445" lon="-65.650675">
        <ele>848.0</ele>
        <time>2018-08-18T15:33:33Z</time>
      </trkpt>
      <trkpt lat="-28.22035" lon="-65.65074">
        <ele>848.3</ele>
        <time>2018-08-18T15:33:36Z</time>
      </trkpt>
      <trkpt lat="-28.220285" lon="-65.65079">
        <ele>848.5</ele>
        <time>2018-08-18T15:33:38Z</time>
      </trkpt>
      <trkpt lat="-28.22022" lon="-65.650845">
        <ele>848.7</ele>
        <time>2018-08-18T15:33:41Z</time>
      </trkpt>
      <trkpt lat="-28.22015" lon="-65.65090666666667">
        <ele>848.7</ele>
        <time>2018-08-18T15:33:44Z</time>
      </trkpt>
      <trkpt lat="-28.22008" lon="-65.650965">
        <ele>848.8</ele>
        <time>2018-08-18T15:33:46Z</time>
      </trkpt>
      <trkpt lat="-28.220005" lon="-65.651025">
        <ele>848.8</ele>
        <time>2018-08-18T15:33:49Z</time>
      </trkpt>
      <trkpt lat="-28.219925" lon="-65.651095">
        <ele>848.8</ele>
        <time>2018-08-18T15:33:52Z</time>
      </trkpt>
      <trkpt lat="-28.219845" lon="-65.651155">
        <ele>848.7</ele>
        <time>2018-08-18T15:33:55Z</time>
      </trkpt>
      <trkpt lat="-28.21977" lon="-65.65121">
        <ele>848.7</ele>
        <time>2018-08-18T15:33:58Z</time>
      </trkpt>
      <trkpt lat="-28.219685" lon="-65.651275">
        <ele>848.6</ele>
        <time>2018-08-18T15:34:01Z</time>
      </trkpt>
      <trkpt lat="-28.219615" lon="-65.65133">
        <ele>848.5</ele>
        <time>2018-08-18T15:34:04Z</time>
      </trkpt>
      <trkpt lat="-28.21953" lon="-65.65139">
        <ele>848.5</ele>
        <time>2018-08-18T15:34:07Z</time>
      </trkpt>
      <trkpt lat="-28.219455" lon="-65.651455">
        <ele>848.8</ele>
        <time>2018-08-18T15:34:11Z</time>
      </trkpt>
      <trkpt lat="-28.21938" lon="-65.65151">
        <ele>849.0</ele>
        <time>2018-08-18T15:34:14Z</time>
      </trkpt>
      <trkpt lat="-28.2193" lon="-65.65156666666667">
        <ele>849.2</ele>
        <time>2018-08-18T15:34:17Z</time>
      </trkpt>
      <trkpt lat="-28.219215" lon="-65.65163">
        <ele>849.4</ele>
        <time>2018-08-18T15:34:20Z</time>
      </trkpt>
      <trkpt lat="-28.219125" lon="-65.651685">
        <ele>849.7</ele>
        <time>2018-08-18T15:34:23Z</time>
      </trkpt>
      <trkpt lat="-28.21904" lon="-65.65174">
        <ele>849.8</ele>
        <time>2018-08-18T15:34:26Z</time>
      </trkpt>
      <trkpt lat="-28.218975" lon="-65.651785">
        <ele>849.8</ele>
        <time>2018-08-18T15:34:28Z</time>
      </trkpt>
      <trkpt lat="-28.21889" lon="-65.65183166666667">
        <ele>849.8</ele>
        <time>2018-08-18T15:34:31Z</time>
      </trkpt>
      <trkpt lat="-28.218815" lon="-65.65191">
        <ele>849.5</ele>
        <time>2018-08-18T15:34:34Z</time>
      </trkpt>
      <trkpt lat="-28.218725" lon="-65.65197">
        <ele>849.3</ele>
        <time>2018-08-18T15:34:37Z</time>
      </trkpt>
      <trkpt lat="-28.218645" lon="-65.65201">
        <ele>849.4</ele>
        <time>2018-08-18T15:34:39Z</time>
      </trkpt>
      <trkpt lat="-28.21855" lon="-65.652055">
        <ele>849.6</ele>
        <time>2018-08-18T15:34:42Z</time>
      </trkpt>
      <trkpt lat="-28.21848" lon="-65.65209">
        <ele>849.9</ele>
        <time>2018-08-18T15:34:44Z</time>
      </trkpt>
      <trkpt lat="-28.21839" lon="-65.65215">
        <ele>850.1</ele>
        <time>2018-08-18T15:34:47Z</time>
      </trkpt>
      <trkpt lat="-28.2183" lon="-65.652215">
        <ele>850.3</ele>
        <time>2018-08-18T15:34:50Z</time>
      </trkpt>
      <trkpt lat="-28.218225" lon="-65.65227">
        <ele>850.6</ele>
        <time>2018-08-18T15:34:53Z</time>
      </trkpt>
      <trkpt lat="-28.218145" lon="-65.652315">
        <ele>850.8</ele>
        <time>2018-08-18T15:34:56Z</time>
      </trkpt>
      <trkpt lat="-28.218075" lon="-65.652375">
        <ele>851.0</ele>
        <time>2018-08-18T15:34:59Z</time>
      </trkpt>
      <trkpt lat="-28.218" lon="-65.65242">
        <ele>851.1</ele>
        <time>2018-08-18T15:35:02Z</time>
      </trkpt>
      <trkpt lat="-28.21794" lon="-65.65246166666667">
        <ele>851.1</ele>
        <time>2018-08-18T15:35:05Z</time>
      </trkpt>
      <trkpt lat="-28.21786" lon="-65.65250666666667">
        <ele>851.3</ele>
        <time>2018-08-18T15:35:08Z</time>
      </trkpt>
      <trkpt lat="-28.217775" lon="-65.65257">
        <ele>851.5</ele>
        <time>2018-08-18T15:35:11Z</time>
      </trkpt>
      <trkpt lat="-28.217685" lon="-65.652625">
        <ele>851.6</ele>
        <time>2018-08-18T15:35:15Z</time>
      </trkpt>
      <trkpt lat="-28.21761" lon="-65.652685">
        <ele>851.8</ele>
        <time>2018-08-18T15:35:19Z</time>
      </trkpt>
      <trkpt lat="-28.21753" lon="-65.65273">
        <ele>852.2</ele>
        <time>2018-08-18T15:35:23Z</time>
      </trkpt>
      <trkpt lat="-28.217455" lon="-65.65278166666667">
        <ele>852.9</ele>
        <time>2018-08-18T15:35:27Z</time>
      </trkpt>
      <trkpt lat="-28.217395" lon="-65.652845">
        <ele>853.7</ele>
        <time>2018-08-18T15:35:31Z</time>
      </trkpt>
      <trkpt lat="-28.217315" lon="-65.652905">
        <ele>854.3</ele>
        <time>2018-08-18T15:35:35Z</time>
      </trkpt>
      <trkpt lat="-28.217245" lon="-65.652955">
        <ele>854.9</ele>
        <time>2018-08-18T15:35:39Z</time>
      </trkpt>
      <trkpt lat="-28.217185" lon="-65.65300666666667">
        <ele>855.1</ele>
        <time>2018-08-18T15:35:43Z</time>
      </trkpt>
      <trkpt lat="-28.217125" lon="-65.65307">
        <ele>855.2</ele>
        <time>2018-08-18T15:35:46Z</time>
      </trkpt>
      <trkpt lat="-28.21705" lon="-65.653105">
        <ele>855.4</ele>
        <time>2018-08-18T15:35:50Z</time>
      </trkpt>
      <trkpt lat="-28.21698" lon="-65.65316">
        <ele>856.1</ele>
        <time>2018-08-18T15:35:55Z</time>
      </trkpt>
      <trkpt lat="-28.2169" lon="-65.6532">
        <ele>856.9</ele>
        <time>2018-08-18T15:36:00Z</time>
      </trkpt>
      <trkpt lat="-28.216845" lon="-65.653245">
        <ele>857.3</ele>
        <time>2018-08-18T15:36:04Z</time>
      </trkpt>
      <trkpt lat="-28.216775" lon="-65.6533">
        <ele>857.7</ele>
        <time>2018-08-18T15:36:09Z</time>
      </trkpt>
      <trkpt lat="-28.21671" lon="-65.65336">
        <ele>857.9</ele>
        <time>2018-08-18T15:36:13Z</time>
      </trkpt>
      <trkpt lat="-28.216625" lon="-65.65341166666667">
        <ele>858.0</ele>
        <time>2018-08-18T15:36:17Z</time>
      </trkpt>
      <trkpt lat="-28.216555" lon="-65.65348">
        <ele>857.8</ele>
        <time>2018-08-18T15:36:21Z</time>
      </trkpt>
      <trkpt lat="-28.216485" lon="-65.653525">
        <ele>857.7</ele>
        <time>2018-08-18T15:36:26Z</time>
      </trkpt>
      <trkpt lat="-28.21641" lon="-65.65357">
        <ele>857.6</ele>
        <time>2018-08-18T15:36:30Z</time>
      </trkpt>
      <trkpt lat="-28.21633" lon="-65.65362">
        <ele>857.5</ele>
        <time>2018-08-18T15:36:33Z</time>
      </trkpt>
      <trkpt lat="-28.216265" lon="-65.653655">
        <ele>857.0</ele>
        <time>2018-08-18T15:36:35Z</time>
      </trkpt>
      <trkpt lat="-28.21617" lon="-65.653695">
        <ele>856.6</ele>
        <time>2018-08-18T15:36:37Z</time>
      </trkpt>
      <trkpt lat="-28.216065" lon="-65.653755">
        <ele>855.9</ele>
        <time>2018-08-18T15:36:39Z</time>
      </trkpt>
      <trkpt lat="-28.21596" lon="-65.653805">
        <ele>854.3</ele>
        <time>2018-08-18T15:36:41Z</time>
      </trkpt>
      <trkpt lat="-28.21583" lon="-65.653885">
        <ele>854.1</ele>
        <time>2018-08-18T15:36:43Z</time>
      </trkpt>
      <trkpt lat="-28.21577" lon="-65.65393">
        <ele>854.4</ele>
        <time>2018-08-18T15:36:44Z</time>
      </trkpt>
      <trkpt lat="-28.2157" lon="-65.65398">
        <ele>853.9</ele>
        <time>2018-08-18T15:36:45Z</time>
      </trkpt>
      <trkpt lat="-28.215625" lon="-65.654025">
        <ele>853.3</ele>
        <time>2018-08-18T15:36:46Z</time>
      </trkpt>
      <trkpt lat="-28.215545" lon="-65.65406333333334">
        <ele>852.8</ele>
        <time>2018-08-18T15:36:47Z</time>
      </trkpt>
      <trkpt lat="-28.21546" lon="-65.65412">
        <ele>852.6</ele>
        <time>2018-08-18T15:36:48Z</time>
      </trkpt>
      <trkpt lat="-28.215335" lon="-65.65416666666667">
        <ele>852.0</ele>
        <time>2018-08-18T15:36:50Z</time>
      </trkpt>
      <trkpt lat="-28.21526" lon="-65.654205">
        <ele>852.5</ele>
        <time>2018-08-18T15:36:52Z</time>
      </trkpt>
      <trkpt lat="-28.215185" lon="-65.65425">
        <ele>852.7</ele>
        <time>2018-08-18T15:36:55Z</time>
      </trkpt>
      <trkpt lat="-28.215105" lon="-65.654285">
        <ele>853.0</ele>
        <time>2018-08-18T15:36:59Z</time>
      </trkpt>
      <trkpt lat="-28.215025" lon="-65.654345">
        <ele>853.2</ele>
        <time>2018-08-18T15:37:03Z</time>
      </trkpt>
      <trkpt lat="-28.214955" lon="-65.65439166666667">
        <ele>853.0</ele>
        <time>2018-08-18T15:37:08Z</time>
      </trkpt>
      <trkpt lat="-28.21488" lon="-65.65443">
        <ele>852.5</ele>
        <time>2018-08-18T15:37:12Z</time>
      </trkpt>
      <trkpt lat="-28.21481" lon="-65.654455">
        <ele>852.2</ele>
        <time>2018-08-18T15:37:15Z</time>
      </trkpt>
      <trkpt lat="-28.21471" lon="-65.65447666666667">
        <ele>851.8</ele>
        <time>2018-08-18T15:37:18Z</time>
      </trkpt>
      <trkpt lat="-28.21461" lon="-65.6545">
        <ele>851.4</ele>
        <time>2018-08-18T15:37:21Z</time>
      </trkpt>
      <trkpt lat="-28.21452" lon="-65.65451">
        <ele>850.7</ele>
        <time>2018-08-18T15:37:25Z</time>
      </trkpt>
      <trkpt lat="-28.214425" lon="-65.654515">
        <ele>850.2</ele>
        <time>2018-08-18T15:37:28Z</time>
      </trkpt>
      <trkpt lat="-28.21434" lon="-65.654515">
        <ele>849.7</ele>
        <time>2018-08-18T15:37:31Z</time>
      </trkpt>
      <trkpt lat="-28.214235" lon="-65.654515">
        <ele>849.1</ele>
        <time>2018-08-18T15:37:34Z</time>
      </trkpt>
      <trkpt lat="-28.214155" lon="-65.654515">
        <ele>848.8</ele>
        <time>2018-08-18T15:37:36Z</time>
      </trkpt>
      <trkpt lat="-28.21406" lon="-65.654515">
        <ele>848.6</ele>
        <time>2018-08-18T15:37:39Z</time>
      </trkpt>
      <trkpt lat="-28.213955" lon="-65.65451">
        <ele>848.5</ele>
        <time>2018-08-18T15:37:42Z</time>
      </trkpt>
      <trkpt lat="-28.21386" lon="-65.654515">
        <ele>848.4</ele>
        <time>2018-08-18T15:37:45Z</time>
      </trkpt>
      <trkpt lat="-28.213755" lon="-65.65452333333333">
        <ele>848.3</ele>
        <time>2018-08-18T15:37:48Z</time>
      </trkpt>
      <trkpt lat="-28.21366" lon="-65.654555">
        <ele>848.3</ele>
        <time>2018-08-18T15:37:51Z</time>
      </trkpt>
      <trkpt lat="-28.213555" lon="-65.654595">
        <ele>848.3</ele>
        <time>2018-08-18T15:37:54Z</time>
      </trkpt>
      <trkpt lat="-28.213495" lon="-65.65461833333333">
        <ele>848.3</ele>
        <time>2018-08-18T15:37:56Z</time>
      </trkpt>
      <trkpt lat="-28.21341" lon="-65.654655">
        <ele>848.5</ele>
        <time>2018-08-18T15:37:59Z</time>
      </trkpt>
      <trkpt lat="-28.213326666666667" lon="-65.65469">
        <ele>848.7</ele>
        <time>2018-08-18T15:38:02Z</time>
      </trkpt>
      <trkpt lat="-28.213265" lon="-65.654725">
        <ele>849.0</ele>
        <time>2018-08-18T15:38:04Z</time>
      </trkpt>
      <trkpt lat="-28.213175" lon="-65.65478">
        <ele>849.2</ele>
        <time>2018-08-18T15:38:07Z</time>
      </trkpt>
      <trkpt lat="-28.2131" lon="-65.65481">
        <ele>849.6</ele>
        <time>2018-08-18T15:38:10Z</time>
      </trkpt>
      <trkpt lat="-28.21301" lon="-65.654815">
        <ele>850.2</ele>
        <time>2018-08-18T15:38:13Z</time>
      </trkpt>
      <trkpt lat="-28.21293" lon="-65.65483">
        <ele>850.6</ele>
        <time>2018-08-18T15:38:16Z</time>
      </trkpt>
      <trkpt lat="-28.212855" lon="-65.65483333333333">
        <ele>850.9</ele>
        <time>2018-08-18T15:38:19Z</time>
      </trkpt>
      <trkpt lat="-28.21276" lon="-65.65484">
        <ele>851.1</ele>
        <time>2018-08-18T15:38:23Z</time>
      </trkpt>
      <trkpt lat="-28.212675" lon="-65.65484333333333">
        <ele>851.2</ele>
        <time>2018-08-18T15:38:26Z</time>
      </trkpt>
      <trkpt lat="-28.212595" lon="-65.65486">
        <ele>851.1</ele>
        <time>2018-08-18T15:38:29Z</time>
      </trkpt>
      <trkpt lat="-28.21251" lon="-65.654865">
        <ele>851.0</ele>
        <time>2018-08-18T15:38:32Z</time>
      </trkpt>
      <trkpt lat="-28.212425" lon="-65.65487">
        <ele>850.8</ele>
        <time>2018-08-18T15:38:35Z</time>
      </trkpt>
      <trkpt lat="-28.212335" lon="-65.654875">
        <ele>850.6</ele>
        <time>2018-08-18T15:38:38Z</time>
      </trkpt>
      <trkpt lat="-28.212245" lon="-65.65488">
        <ele>849.4</ele>
        <time>2018-08-18T15:38:41Z</time>
      </trkpt>
      <trkpt lat="-28.212145" lon="-65.65489">
        <ele>848.5</ele>
        <time>2018-08-18T15:38:43Z</time>
      </trkpt>
      <trkpt lat="-28.212045" lon="-65.654905">
        <ele>847.5</ele>
        <time>2018-08-18T15:38:45Z</time>
      </trkpt>
      <trkpt lat="-28.21196" lon="-65.654925">
        <ele>846.8</ele>
        <time>2018-08-18T15:38:47Z</time>
      </trkpt>
      <trkpt lat="-28.21187" lon="-65.654955">
        <ele>846.7</ele>
        <time>2018-08-18T15:38:49Z</time>
      </trkpt>
      <trkpt lat="-28.211785" lon="-65.65499">
        <ele>847.7</ele>
        <time>2018-08-18T15:38:51Z</time>
      </trkpt>
      <trkpt lat="-28.21168" lon="-65.65504666666666">
        <ele>848.6</ele>
        <time>2018-08-18T15:38:53Z</time>
      </trkpt>
      <trkpt lat="-28.211605" lon="-65.65513">
        <ele>848.7</ele>
        <time>2018-08-18T15:38:55Z</time>
      </trkpt>
      <trkpt lat="-28.211545" lon="-65.65519">
        <ele>847.7</ele>
        <time>2018-08-18T15:38:57Z</time>
      </trkpt>
      <trkpt lat="-28.211505" lon="-65.655265">
        <ele>847.6</ele>
        <time>2018-08-18T15:38:59Z</time>
      </trkpt>
      <trkpt lat="-28.21146" lon="-65.655365">
        <ele>847.5</ele>
        <time>2018-08-18T15:39:02Z</time>
      </trkpt>
      <trkpt lat="-28.211425" lon="-65.65546">
        <ele>847.1</ele>
        <time>2018-08-18T15:39:05Z</time>
      </trkpt>
      <trkpt lat="-28.211395" lon="-65.655535">
        <ele>845.3</ele>
        <time>2018-08-18T15:39:07Z</time>
      </trkpt>
      <trkpt lat="-28.211355" lon="-65.65564">
        <ele>841.7</ele>
        <time>2018-08-18T15:39:09Z</time>
      </trkpt>
      <trkpt lat="-28.211305" lon="-65.655725">
        <ele>839.5</ele>
        <time>2018-08-18T15:39:11Z</time>
      </trkpt>
      <trkpt lat="-28.21123" lon="-65.655805">
        <ele>839.2</ele>
        <time>2018-08-18T15:39:13Z</time>
      </trkpt>
      <trkpt lat="-28.211125" lon="-65.65589">
        <ele>840.4</ele>
        <time>2018-08-18T15:39:15Z</time>
      </trkpt>
      <trkpt lat="-28.21101" lon="-65.65595">
        <ele>841.1</ele>
        <time>2018-08-18T15:39:17Z</time>
      </trkpt>
      <trkpt lat="-28.21089" lon="-65.655995">
        <ele>841.8</ele>
        <time>2018-08-18T15:39:19Z</time>
      </trkpt>
      <trkpt lat="-28.210785" lon="-65.656025">
        <ele>842.8</ele>
        <time>2018-08-18T15:39:21Z</time>
      </trkpt>
      <trkpt lat="-28.210695" lon="-65.65604">
        <ele>843.1</ele>
        <time>2018-08-18T15:39:23Z</time>
      </trkpt>
      <trkpt lat="-28.21061" lon="-65.65606">
        <ele>843.3</ele>
        <time>2018-08-18T15:39:26Z</time>
      </trkpt>
      <trkpt lat="-28.210515" lon="-65.65606">
        <ele>844.0</ele>
        <time>2018-08-18T15:39:30Z</time>
      </trkpt>
      <trkpt lat="-28.21041" lon="-65.65608">
        <ele>845.1</ele>
        <time>2018-08-18T15:39:33Z</time>
      </trkpt>
      <trkpt lat="-28.210335" lon="-65.65608">
        <ele>846.3</ele>
        <time>2018-08-18T15:39:36Z</time>
      </trkpt>
      <trkpt lat="-28.21025" lon="-65.65609">
        <ele>847.9</ele>
        <time>2018-08-18T15:39:40Z</time>
      </trkpt>
      <trkpt lat="-28.21016" lon="-65.656105">
        <ele>849.6</ele>
        <time>2018-08-18T15:39:44Z</time>
      </trkpt>
      <trkpt lat="-28.21007" lon="-65.656125">
        <ele>850.5</ele>
        <time>2018-08-18T15:39:47Z</time>
      </trkpt>
      <trkpt lat="-28.20998" lon="-65.65613833333333">
        <ele>851.2</ele>
        <time>2018-08-18T15:39:50Z</time>
      </trkpt>
      <trkpt lat="-28.209875" lon="-65.656175">
        <ele>851.9</ele>
        <time>2018-08-18T15:39:53Z</time>
      </trkpt>
      <trkpt lat="-28.209795" lon="-65.656175">
        <ele>853.0</ele>
        <time>2018-08-18T15:39:57Z</time>
      </trkpt>
      <trkpt lat="-28.209695" lon="-65.65622">
        <ele>853.8</ele>
        <time>2018-08-18T15:40:01Z</time>
      </trkpt>
      <trkpt lat="-28.20961" lon="-65.65625">
        <ele>854.2</ele>
        <time>2018-08-18T15:40:04Z</time>
      </trkpt>
      <trkpt lat="-28.209505" lon="-65.656285">
        <ele>854.5</ele>
        <time>2018-08-18T15:40:07Z</time>
      </trkpt>
      <trkpt lat="-28.209425" lon="-65.656305">
        <ele>854.6</ele>
        <time>2018-08-18T15:40:10Z</time>
      </trkpt>
      <trkpt lat="-28.20935" lon="-65.65633">
        <ele>854.0</ele>
        <time>2018-08-18T15:40:12Z</time>
      </trkpt>
      <trkpt lat="-28.209245" lon="-65.65635">
        <ele>853.9</ele>
        <time>2018-08-18T15:40:15Z</time>
      </trkpt>
      <trkpt lat="-28.20915" lon="-65.656385">
        <ele>853.7</ele>
        <time>2018-08-18T15:40:18Z</time>
      </trkpt>
      <trkpt lat="-28.209055" lon="-65.6564">
        <ele>853.5</ele>
        <time>2018-08-18T15:40:21Z</time>
      </trkpt>
      <trkpt lat="-28.208965" lon="-65.656425">
        <ele>853.3</ele>
        <time>2018-08-18T15:40:24Z</time>
      </trkpt>
      <trkpt lat="-28.208855" lon="-65.656445">
        <ele>853.3</ele>
        <time>2018-08-18T15:40:27Z</time>
      </trkpt>
      <trkpt lat="-28.208765" lon="-65.656465">
        <ele>853.3</ele>
        <time>2018-08-18T15:40:30Z</time>
      </trkpt>
      <trkpt lat="-28.208675" lon="-65.656485">
        <ele>853.4</ele>
        <time>2018-08-18T15:40:33Z</time>
      </trkpt>
      <trkpt lat="-28.20859" lon="-65.65649666666667">
        <ele>853.6</ele>
        <time>2018-08-18T15:40:36Z</time>
      </trkpt>
      <trkpt lat="-28.20852" lon="-65.656525">
        <ele>853.7</ele>
        <time>2018-08-18T15:40:39Z</time>
      </trkpt>
      <trkpt lat="-28.20844" lon="-65.65654">
        <ele>853.9</ele>
        <time>2018-08-18T15:40:42Z</time>
      </trkpt>
      <trkpt lat="-28.208355" lon="-65.656565">
        <ele>854.1</ele>
        <time>2018-08-18T15:40:45Z</time>
      </trkpt>
      <trkpt lat="-28.20826" lon="-65.656585">
        <ele>854.1</ele>
        <time>2018-08-18T15:40:48Z</time>
      </trkpt>
      <trkpt lat="-28.208185" lon="-65.656615">
        <ele>854.1</ele>
        <time>2018-08-18T15:40:51Z</time>
      </trkpt>
      <trkpt lat="-28.20808" lon="-65.656635">
        <ele>854.2</ele>
        <time>2018-08-18T15:40:54Z</time>
      </trkpt>
      <trkpt lat="-28.208005" lon="-65.65665">
        <ele>854.2</ele>
        <time>2018-08-18T15:40:56Z</time>
      </trkpt>
      <trkpt lat="-28.20793" lon="-65.65667">
        <ele>854.4</ele>
        <time>2018-08-18T15:40:58Z</time>
      </trkpt>
      <trkpt lat="-28.207835" lon="-65.6567">
        <ele>854.4</ele>
        <time>2018-08-18T15:41:01Z</time>
      </trkpt>
      <trkpt lat="-28.20776" lon="-65.65671">
        <ele>854.4</ele>
        <time>2018-08-18T15:41:03Z</time>
      </trkpt>
      <trkpt lat="-28.20769" lon="-65.65672166666667">
        <ele>854.6</ele>
        <time>2018-08-18T15:41:05Z</time>
      </trkpt>
      <trkpt lat="-28.207585" lon="-65.656755">
        <ele>854.5</ele>
        <time>2018-08-18T15:41:08Z</time>
      </trkpt>
      <trkpt lat="-28.20748" lon="-65.656785">
        <ele>854.4</ele>
        <time>2018-08-18T15:41:11Z</time>
      </trkpt>
      <trkpt lat="-28.207405" lon="-65.6568">
        <ele>854.3</ele>
        <time>2018-08-18T15:41:13Z</time>
      </trkpt>
      <trkpt lat="-28.20733" lon="-65.65680833333333">
        <ele>854.3</ele>
        <time>2018-08-18T15:41:16Z</time>
      </trkpt>
      <trkpt lat="-28.207228333333333" lon="-65.65685">
        <ele>854.1</ele>
        <time>2018-08-18T15:41:19Z</time>
      </trkpt>
      <trkpt lat="-28.207165" lon="-65.65685833333333">
        <ele>854.0</ele>
        <time>2018-08-18T15:41:21Z</time>
      </trkpt>
      <trkpt lat="-28.207075" lon="-65.656885">
        <ele>854.0</ele>
        <time>2018-08-18T15:41:24Z</time>
      </trkpt>
      <trkpt lat="-28.206975" lon="-65.65692">
        <ele>853.9</ele>
        <time>2018-08-18T15:41:27Z</time>
      </trkpt>
      <trkpt lat="-28.206895" lon="-65.656935">
        <ele>853.7</ele>
        <time>2018-08-18T15:41:29Z</time>
      </trkpt>
      <trkpt lat="-28.20681" lon="-65.65694333333333">
        <ele>853.6</ele>
        <time>2018-08-18T15:41:32Z</time>
      </trkpt>
      <trkpt lat="-28.206715" lon="-65.65696">
        <ele>853.7</ele>
        <time>2018-08-18T15:41:35Z</time>
      </trkpt>
      <trkpt lat="-28.206605" lon="-65.65698">
        <ele>853.8</ele>
        <time>2018-08-18T15:41:38Z</time>
      </trkpt>
      <trkpt lat="-28.2065" lon="-65.657005">
        <ele>854.0</ele>
        <time>2018-08-18T15:41:41Z</time>
      </trkpt>
      <trkpt lat="-28.20643" lon="-65.657015">
        <ele>854.2</ele>
        <time>2018-08-18T15:41:43Z</time>
      </trkpt>
      <trkpt lat="-28.206335" lon="-65.657045">
        <ele>854.4</ele>
        <time>2018-08-18T15:41:46Z</time>
      </trkpt>
      <trkpt lat="-28.206255" lon="-65.657075">
        <ele>854.4</ele>
        <time>2018-08-18T15:41:50Z</time>
      </trkpt>
      <trkpt lat="-28.20617" lon="-65.657075">
        <ele>854.4</ele>
        <time>2018-08-18T15:41:52Z</time>
      </trkpt>
      <trkpt lat="-28.206085" lon="-65.6571">
        <ele>854.5</ele>
        <time>2018-08-18T15:41:55Z</time>
      </trkpt>
      <trkpt lat="-28.20601" lon="-65.65712">
        <ele>854.6</ele>
        <time>2018-08-18T15:41:57Z</time>
      </trkpt>
      <trkpt lat="-28.20591" lon="-65.65715">
        <ele>854.8</ele>
        <time>2018-08-18T15:42:00Z</time>
      </trkpt>
      <trkpt lat="-28.205835" lon="-65.65716666666667">
        <ele>855.0</ele>
        <time>2018-08-18T15:42:03Z</time>
      </trkpt>
      <trkpt lat="-28.205755" lon="-65.6572">
        <ele>855.0</ele>
        <time>2018-08-18T15:42:06Z</time>
      </trkpt>
      <trkpt lat="-28.205665" lon="-65.657225">
        <ele>855.1</ele>
        <time>2018-08-18T15:42:09Z</time>
      </trkpt>
      <trkpt lat="-28.205565" lon="-65.65724">
        <ele>855.0</ele>
        <time>2018-08-18T15:42:12Z</time>
      </trkpt>
      <trkpt lat="-28.205475" lon="-65.65725666666667">
        <ele>855.0</ele>
        <time>2018-08-18T15:42:15Z</time>
      </trkpt>
      <trkpt lat="-28.205385" lon="-65.657285">
        <ele>854.9</ele>
        <time>2018-08-18T15:42:18Z</time>
      </trkpt>
      <trkpt lat="-28.20529" lon="-65.65732">
        <ele>854.7</ele>
        <time>2018-08-18T15:42:22Z</time>
      </trkpt>
      <trkpt lat="-28.205205" lon="-65.657335">
        <ele>854.8</ele>
        <time>2018-08-18T15:42:25Z</time>
      </trkpt>
      <trkpt lat="-28.20513" lon="-65.65734666666667">
        <ele>854.9</ele>
        <time>2018-08-18T15:42:28Z</time>
      </trkpt>
      <trkpt lat="-28.20504" lon="-65.65737">
        <ele>854.8</ele>
        <time>2018-08-18T15:42:31Z</time>
      </trkpt>
      <trkpt lat="-28.204945" lon="-65.65738666666667">
        <ele>854.8</ele>
        <time>2018-08-18T15:42:34Z</time>
      </trkpt>
      <trkpt lat="-28.20486" lon="-65.65741">
        <ele>854.7</ele>
        <time>2018-08-18T15:42:37Z</time>
      </trkpt>
      <trkpt lat="-28.20477" lon="-65.65743">
        <ele>854.9</ele>
        <time>2018-08-18T15:42:40Z</time>
      </trkpt>
      <trkpt lat="-28.20469" lon="-65.65745">
        <ele>854.9</ele>
        <time>2018-08-18T15:42:42Z</time>
      </trkpt>
      <trkpt lat="-28.204595" lon="-65.657465">
        <ele>855.0</ele>
        <time>2018-08-18T15:42:45Z</time>
      </trkpt>
      <trkpt lat="-28.2045" lon="-65.657495">
        <ele>855.1</ele>
        <time>2018-08-18T15:42:48Z</time>
      </trkpt>
      <trkpt lat="-28.204425" lon="-65.657515">
        <ele>855.2</ele>
        <time>2018-08-18T15:42:51Z</time>
      </trkpt>
      <trkpt lat="-28.204335" lon="-65.65754">
        <ele>855.3</ele>
        <time>2018-08-18T15:42:54Z</time>
      </trkpt>
      <trkpt lat="-28.204255" lon="-65.65756">
        <ele>855.4</ele>
        <time>2018-08-18T15:42:57Z</time>
      </trkpt>
      <trkpt lat="-28.204165" lon="-65.65757333333333">
        <ele>855.5</ele>
        <time>2018-08-18T15:43:00Z</time>
      </trkpt>
      <trkpt lat="-28.20408" lon="-65.6576">
        <ele>855.6</ele>
        <time>2018-08-18T15:43:03Z</time>
      </trkpt>
      <trkpt lat="-28.204005" lon="-65.65761">
        <ele>855.7</ele>
        <time>2018-08-18T15:43:06Z</time>
      </trkpt>
      <trkpt lat="-28.20391" lon="-65.65761666666667">
        <ele>856.0</ele>
        <time>2018-08-18T15:43:09Z</time>
      </trkpt>
      <trkpt lat="-28.20382" lon="-65.657635">
        <ele>856.3</ele>
        <time>2018-08-18T15:43:12Z</time>
      </trkpt>
      <trkpt lat="-28.20374" lon="-65.657655">
        <ele>856.5</ele>
        <time>2018-08-18T15:43:15Z</time>
      </trkpt>
      <trkpt lat="-28.203645" lon="-65.65765666666667">
        <ele>856.9</ele>
        <time>2018-08-18T15:43:18Z</time>
      </trkpt>
      <trkpt lat="-28.20357" lon="-65.65766166666667">
        <ele>857.6</ele>
        <time>2018-08-18T15:43:21Z</time>
      </trkpt>
      <trkpt lat="-28.203475" lon="-65.657695">
        <ele>858.4</ele>
        <time>2018-08-18T15:43:25Z</time>
      </trkpt>
      <trkpt lat="-28.2034" lon="-65.657735">
        <ele>858.5</ele>
        <time>2018-08-18T15:43:27Z</time>
      </trkpt>
      <trkpt lat="-28.203325" lon="-65.65774833333333">
        <ele>859.8</ele>
        <time>2018-08-18T15:43:29Z</time>
      </trkpt>
      <trkpt lat="-28.20324" lon="-65.657785">
        <ele>859.5</ele>
        <time>2018-08-18T15:43:31Z</time>
      </trkpt>
      <trkpt lat="-28.20316" lon="-65.657815">
        <ele>859.0</ele>
        <time>2018-08-18T15:43:33Z</time>
      </trkpt>
      <trkpt lat="-28.203075" lon="-65.65783833333333">
        <ele>858.0</ele>
        <time>2018-08-18T15:43:35Z</time>
      </trkpt>
      <trkpt lat="-28.202965" lon="-65.65788">
        <ele>857.9</ele>
        <time>2018-08-18T15:43:38Z</time>
      </trkpt>
      <trkpt lat="-28.20288" lon="-65.657905">
        <ele>858.1</ele>
        <time>2018-08-18T15:43:41Z</time>
      </trkpt>
      <trkpt lat="-28.202785" lon="-65.65792">
        <ele>858.3</ele>
        <time>2018-08-18T15:43:44Z</time>
      </trkpt>
      <trkpt lat="-28.202695" lon="-65.657945">
        <ele>858.6</ele>
        <time>2018-08-18T15:43:47Z</time>
      </trkpt>
      <trkpt lat="-28.2026" lon="-65.657965">
        <ele>858.7</ele>
        <time>2018-08-18T15:43:50Z</time>
      </trkpt>
      <trkpt lat="-28.20251" lon="-65.65799">
        <ele>859.0</ele>
        <time>2018-08-18T15:43:53Z</time>
      </trkpt>
      <trkpt lat="-28.202435" lon="-65.65800166666666">
        <ele>859.3</ele>
        <time>2018-08-18T15:43:56Z</time>
      </trkpt>
      <trkpt lat="-28.20236" lon="-65.65800333333334">
        <ele>859.7</ele>
        <time>2018-08-18T15:43:58Z</time>
      </trkpt>
      <trkpt lat="-28.202265" lon="-65.65803">
        <ele>860.3</ele>
        <time>2018-08-18T15:44:01Z</time>
      </trkpt>
      <trkpt lat="-28.20219" lon="-65.65805">
        <ele>860.7</ele>
        <time>2018-08-18T15:44:03Z</time>
      </trkpt>
      <trkpt lat="-28.202105" lon="-65.65806">
        <ele>861.4</ele>
        <time>2018-08-18T15:44:06Z</time>
      </trkpt>
      <trkpt lat="-28.20202" lon="-65.658075">
        <ele>862.1</ele>
        <time>2018-08-18T15:44:09Z</time>
      </trkpt>
      <trkpt lat="-28.201935" lon="-65.658095">
        <ele>862.6</ele>
        <time>2018-08-18T15:44:11Z</time>
      </trkpt>
      <trkpt lat="-28.20185" lon="-65.658105">
        <ele>863.2</ele>
        <time>2018-08-18T15:44:13Z</time>
      </trkpt>
      <trkpt lat="-28.20177" lon="-65.658125">
        <ele>863.9</ele>
        <time>2018-08-18T15:44:16Z</time>
      </trkpt>
      <trkpt lat="-28.201655" lon="-65.65817">
        <ele>864.6</ele>
        <time>2018-08-18T15:44:19Z</time>
      </trkpt>
      <trkpt lat="-28.20158" lon="-65.65819">
        <ele>865.0</ele>
        <time>2018-08-18T15:44:21Z</time>
      </trkpt>
      <trkpt lat="-28.20149" lon="-65.65821">
        <ele>866.0</ele>
        <time>2018-08-18T15:44:25Z</time>
      </trkpt>
      <trkpt lat="-28.2014" lon="-65.658225">
        <ele>866.8</ele>
        <time>2018-08-18T15:44:28Z</time>
      </trkpt>
      <trkpt lat="-28.201335" lon="-65.65822666666666">
        <ele>867.3</ele>
        <time>2018-08-18T15:44:31Z</time>
      </trkpt>
      <trkpt lat="-28.20124" lon="-65.658235">
        <ele>867.7</ele>
        <time>2018-08-18T15:44:34Z</time>
      </trkpt>
      <trkpt lat="-28.201165" lon="-65.65823666666667">
        <ele>867.9</ele>
        <time>2018-08-18T15:44:36Z</time>
      </trkpt>
      <trkpt lat="-28.20107" lon="-65.658255">
        <ele>868.0</ele>
        <time>2018-08-18T15:44:39Z</time>
      </trkpt>
      <trkpt lat="-28.200995" lon="-65.658275">
        <ele>867.9</ele>
        <time>2018-08-18T15:44:42Z</time>
      </trkpt>
      <trkpt lat="-28.20092" lon="-65.6583">
        <ele>867.5</ele>
        <time>2018-08-18T15:44:45Z</time>
      </trkpt>
      <trkpt lat="-28.20084" lon="-65.65833">
        <ele>867.6</ele>
        <time>2018-08-18T15:44:48Z</time>
      </trkpt>
      <trkpt lat="-28.20074" lon="-65.658365">
        <ele>868.3</ele>
        <time>2018-08-18T15:44:51Z</time>
      </trkpt>
      <trkpt lat="-28.20065" lon="-65.65837166666667">
        <ele>869.0</ele>
        <time>2018-08-18T15:44:54Z</time>
      </trkpt>
      <trkpt lat="-28.20056" lon="-65.658395">
        <ele>869.8</ele>
        <time>2018-08-18T15:44:57Z</time>
      </trkpt>
      <trkpt lat="-28.20045" lon="-65.658415">
        <ele>870.5</ele>
        <time>2018-08-18T15:45:00Z</time>
      </trkpt>
      <trkpt lat="-28.20038" lon="-65.658435">
        <ele>870.9</ele>
        <time>2018-08-18T15:45:02Z</time>
      </trkpt>
      <trkpt lat="-28.200285" lon="-65.658455">
        <ele>871.2</ele>
        <time>2018-08-18T15:45:05Z</time>
      </trkpt>
      <trkpt lat="-28.20018" lon="-65.65848">
        <ele>871.2</ele>
        <time>2018-08-18T15:45:08Z</time>
      </trkpt>
      <trkpt lat="-28.200085" lon="-65.65851">
        <ele>871.1</ele>
        <time>2018-08-18T15:45:11Z</time>
      </trkpt>
      <trkpt lat="-28.19999" lon="-65.658545">
        <ele>871.0</ele>
        <time>2018-08-18T15:45:14Z</time>
      </trkpt>
      <trkpt lat="-28.19991" lon="-65.658575">
        <ele>870.8</ele>
        <time>2018-08-18T15:45:17Z</time>
      </trkpt>
      <trkpt lat="-28.19982" lon="-65.658595">
        <ele>870.5</ele>
        <time>2018-08-18T15:45:20Z</time>
      </trkpt>
      <trkpt lat="-28.199745" lon="-65.65863">
        <ele>869.0</ele>
        <time>2018-08-18T15:45:22Z</time>
      </trkpt>
      <trkpt lat="-28.19967" lon="-65.65864166666667">
        <ele>866.7</ele>
        <time>2018-08-18T15:45:24Z</time>
      </trkpt>
      <trkpt lat="-28.199595" lon="-65.65867">
        <ele>865.9</ele>
        <time>2018-08-18T15:45:26Z</time>
      </trkpt>
      <trkpt lat="-28.199495" lon="-65.65869166666667">
        <ele>864.2</ele>
        <time>2018-08-18T15:45:29Z</time>
      </trkpt>
      <trkpt lat="-28.19942" lon="-65.65872">
        <ele>863.1</ele>
        <time>2018-08-18T15:45:31Z</time>
      </trkpt>
      <trkpt lat="-28.19934" lon="-65.65873">
        <ele>862.1</ele>
        <time>2018-08-18T15:45:33Z</time>
      </trkpt>
      <trkpt lat="-28.199265" lon="-65.65876">
        <ele>861.7</ele>
        <time>2018-08-18T15:45:35Z</time>
      </trkpt>
      <trkpt lat="-28.19917" lon="-65.65877333333333">
        <ele>861.6</ele>
        <time>2018-08-18T15:45:38Z</time>
      </trkpt>
      <trkpt lat="-28.199095" lon="-65.65878666666667">
        <ele>861.5</ele>
        <time>2018-08-18T15:45:40Z</time>
      </trkpt>
      <trkpt lat="-28.199015" lon="-65.65881">
        <ele>861.5</ele>
        <time>2018-08-18T15:45:42Z</time>
      </trkpt>
      <trkpt lat="-28.198945" lon="-65.65882">
        <ele>861.5</ele>
        <time>2018-08-18T15:45:44Z</time>
      </trkpt>
      <trkpt lat="-28.19886" lon="-65.658845">
        <ele>862.0</ele>
        <time>2018-08-18T15:45:46Z</time>
      </trkpt>
      <trkpt lat="-28.19878" lon="-65.658855">
        <ele>863.4</ele>
        <time>2018-08-18T15:45:48Z</time>
      </trkpt>
      <trkpt lat="-28.198715" lon="-65.658855">
        <ele>865.2</ele>
        <time>2018-08-18T15:45:50Z</time>
      </trkpt>
      <trkpt lat="-28.198635" lon="-65.65886833333333">
        <ele>865.7</ele>
        <time>2018-08-18T15:45:52Z</time>
      </trkpt>
      <trkpt lat="-28.198525" lon="-65.658905">
        <ele>864.3</ele>
        <time>2018-08-18T15:45:55Z</time>
      </trkpt>
      <trkpt lat="-28.198445" lon="-65.65891333333333">
        <ele>864.6</ele>
        <time>2018-08-18T15:45:57Z</time>
      </trkpt>
      <trkpt lat="-28.19836" lon="-65.65894">
        <ele>864.2</ele>
        <time>2018-08-18T15:45:59Z</time>
      </trkpt>
      <trkpt lat="-28.19828" lon="-65.65895166666667">
        <ele>862.5</ele>
        <time>2018-08-18T15:46:01Z</time>
      </trkpt>
      <trkpt lat="-28.198195" lon="-65.658985">
        <ele>860.1</ele>
        <time>2018-08-18T15:46:03Z</time>
      </trkpt>
      <trkpt lat="-28.1981" lon="-65.659015">
        <ele>859.7</ele>
        <time>2018-08-18T15:46:06Z</time>
      </trkpt>
      <trkpt lat="-28.19802" lon="-65.659035">
        <ele>859.3</ele>
        <time>2018-08-18T15:46:09Z</time>
      </trkpt>
      <trkpt lat="-28.19793" lon="-65.659045">
        <ele>858.8</ele>
        <time>2018-08-18T15:46:13Z</time>
      </trkpt>
      <trkpt lat="-28.19784" lon="-65.65908">
        <ele>858.5</ele>
        <time>2018-08-18T15:46:16Z</time>
      </trkpt>
      <trkpt lat="-28.197755" lon="-65.65909166666667">
        <ele>858.2</ele>
        <time>2018-08-18T15:46:20Z</time>
      </trkpt>
      <trkpt lat="-28.1977" lon="-65.65911">
        <ele>857.9</ele>
        <time>2018-08-18T15:46:27Z</time>
      </trkpt>
      <trkpt lat="-28.197695" lon="-65.65911">
        <ele>857.8</ele>
        <time>2018-08-18T15:46:30Z</time>
      </trkpt>
      <trkpt lat="-28.197685" lon="-65.65907">
        <ele>857.6</ele>
        <time>2018-08-18T15:46:58Z</time>
      </trkpt>
      <trkpt lat="-28.197685" lon="-65.65907">
        <ele>857.6</ele>
        <time>2018-08-18T15:46:59Z</time>
      </trkpt>
      <trkpt lat="-28.197685" lon="-65.659045">
        <ele>859.2</ele>
        <time>2018-08-18T15:47:09Z</time>
      </trkpt>
      <trkpt lat="-28.197695" lon="-65.659045">
        <ele>859.2</ele>
        <time>2018-08-18T15:47:10Z</time>
      </trkpt>
      <trkpt lat="-28.197685" lon="-65.659045">
        <ele>860.2</ele>
        <time>2018-08-18T15:47:18Z</time>
      </trkpt>
      <trkpt lat="-28.197685" lon="-65.659045">
        <ele>860.7</ele>
        <time>2018-08-18T15:47:19Z</time>
      </trkpt>
      <trkpt lat="-28.197685" lon="-65.65907">
        <ele>861.6</ele>
        <time>2018-08-18T15:47:27Z</time>
      </trkpt>
      <trkpt lat="-28.197685" lon="-65.65907">
        <ele>861.7</ele>
        <time>2018-08-18T15:47:28Z</time>
      </trkpt>
      <trkpt lat="-28.197705" lon="-65.65904833333333">
        <ele>862.7</ele>
        <time>2018-08-18T15:47:43Z</time>
      </trkpt>
      <trkpt lat="-28.197705" lon="-65.659045">
        <ele>862.7</ele>
        <time>2018-08-18T15:47:44Z</time>
      </trkpt>
      <trkpt lat="-28.197685" lon="-65.659035">
        <ele>862.9</ele>
        <time>2018-08-18T15:47:53Z</time>
      </trkpt>
      <trkpt lat="-28.197685" lon="-65.659035">
        <ele>862.9</ele>
        <time>2018-08-18T15:47:54Z</time>
      </trkpt>
      <trkpt lat="-28.197685" lon="-65.659045">
        <ele>863.2</ele>
        <time>2018-08-18T15:48:04Z</time>
      </trkpt>
      <trkpt lat="-28.197685" lon="-65.659045">
        <ele>863.2</ele>
        <time>2018-08-18T15:48:05Z</time>
      </trkpt>
      <trkpt lat="-28.197685" lon="-65.65907">
        <ele>864.2</ele>
        <time>2018-08-18T15:48:18Z</time>
      </trkpt>
      <trkpt lat="-28.197685" lon="-65.65907">
        <ele>864.2</ele>
        <time>2018-08-18T15:48:19Z</time>
      </trkpt>
      <trkpt lat="-28.197665" lon="-65.65903">
        <ele>864.2</ele>
        <time>2018-08-18T15:48:29Z</time>
      </trkpt>
      <trkpt lat="-28.197665" lon="-65.659025">
        <ele>864.2</ele>
        <time>2018-08-18T15:48:30Z</time>
      </trkpt>
      <trkpt lat="-28.197685" lon="-65.658985">
        <ele>864.2</ele>
        <time>2018-08-18T15:48:40Z</time>
      </trkpt>
      <trkpt lat="-28.197685" lon="-65.65898">
        <ele>864.3</ele>
        <time>2018-08-18T15:48:41Z</time>
      </trkpt>
      <trkpt lat="-28.197685" lon="-65.65895666666667">
        <ele>865.3</ele>
        <time>2018-08-18T15:48:49Z</time>
      </trkpt>
      <trkpt lat="-28.197685" lon="-65.65897">
        <ele>865.3</ele>
        <time>2018-08-18T15:48:50Z</time>
      </trkpt>
      <trkpt lat="-28.19771" lon="-65.658985">
        <ele>866.0</ele>
        <time>2018-08-18T15:48:59Z</time>
      </trkpt>
      <trkpt lat="-28.19771" lon="-65.658985">
        <ele>866.0</ele>
        <time>2018-08-18T15:49:00Z</time>
      </trkpt>
      <trkpt lat="-28.197705" lon="-65.659015">
        <ele>866.2</ele>
        <time>2018-08-18T15:49:10Z</time>
      </trkpt>
      <trkpt lat="-28.197705" lon="-65.659025">
        <ele>866.2</ele>
        <time>2018-08-18T15:49:11Z</time>
      </trkpt>
      <trkpt lat="-28.197695" lon="-65.659035">
        <ele>866.1</ele>
        <time>2018-08-18T15:49:19Z</time>
      </trkpt>
      <trkpt lat="-28.197685" lon="-65.659035">
        <ele>866.1</ele>
        <time>2018-08-18T15:49:20Z</time>
      </trkpt>
      <trkpt lat="-28.19767" lon="-65.65903">
        <ele>866.3</ele>
        <time>2018-08-18T15:49:29Z</time>
      </trkpt>
      <trkpt lat="-28.197665" lon="-65.65903">
        <ele>866.4</ele>
        <time>2018-08-18T15:49:30Z</time>
      </trkpt>
      <trkpt lat="-28.197665" lon="-65.658985">
        <ele>866.7</ele>
        <time>2018-08-18T15:49:39Z</time>
      </trkpt>
      <trkpt lat="-28.19767" lon="-65.658985">
        <ele>866.7</ele>
        <time>2018-08-18T15:49:40Z</time>
      </trkpt>
      <trkpt lat="-28.19771" lon="-65.658975">
        <ele>868.0</ele>
        <time>2018-08-18T15:49:48Z</time>
      </trkpt>
      <trkpt lat="-28.197715" lon="-65.658975">
        <ele>868.1</ele>
        <time>2018-08-18T15:49:49Z</time>
      </trkpt>
      <trkpt lat="-28.19772" lon="-65.65893">
        <ele>868.9</ele>
        <time>2018-08-18T15:49:58Z</time>
      </trkpt>
      <trkpt lat="-28.19772" lon="-65.65893">
        <ele>869.0</ele>
        <time>2018-08-18T15:49:59Z</time>
      </trkpt>
      <trkpt lat="-28.197695" lon="-65.65893">
        <ele>869.5</ele>
        <time>2018-08-18T15:50:08Z</time>
      </trkpt>
      <trkpt lat="-28.197685" lon="-65.65894">
        <ele>869.8</ele>
        <time>2018-08-18T15:50:09Z</time>
      </trkpt>
      <trkpt lat="-28.197685" lon="-65.65897">
        <ele>871.4</ele>
        <time>2018-08-18T15:50:18Z</time>
      </trkpt>
      <trkpt lat="-28.197685" lon="-65.65897">
        <ele>871.4</ele>
        <time>2018-08-18T15:50:19Z</time>
      </trkpt>
      <trkpt lat="-28.19768" lon="-65.65897">
        <ele>873.0</ele>
        <time>2018-08-18T15:50:30Z</time>
      </trkpt>
      <trkpt lat="-28.19768" lon="-65.65895666666667">
        <ele>873.1</ele>
        <time>2018-08-18T15:50:31Z</time>
      </trkpt>
      <trkpt lat="-28.19771" lon="-65.65898">
        <ele>873.4</ele>
        <time>2018-08-18T15:50:41Z</time>
      </trkpt>
      <trkpt lat="-28.19771" lon="-65.65898">
        <ele>873.7</ele>
        <time>2018-08-18T15:50:42Z</time>
      </trkpt>
      <trkpt lat="-28.197695" lon="-65.65899833333333">
        <ele>874.2</ele>
        <time>2018-08-18T15:50:51Z</time>
      </trkpt>
      <trkpt lat="-28.197695" lon="-65.65899833333333">
        <ele>874.6</ele>
        <time>2018-08-18T15:50:52Z</time>
      </trkpt>
      <trkpt lat="-28.197675" lon="-65.659025">
        <ele>875.1</ele>
        <time>2018-08-18T15:51:04Z</time>
      </trkpt>
      <trkpt lat="-28.19767" lon="-65.65903">
        <ele>875.1</ele>
        <time>2018-08-18T15:51:05Z</time>
      </trkpt>
      <trkpt lat="-28.19768" lon="-65.658985">
        <ele>875.5</ele>
        <time>2018-08-18T15:51:14Z</time>
      </trkpt>
      <trkpt lat="-28.19768" lon="-65.658985">
        <ele>875.6</ele>
        <time>2018-08-18T15:51:15Z</time>
      </trkpt>
      <trkpt lat="-28.197665" lon="-65.65897">
        <ele>876.0</ele>
        <time>2018-08-18T15:51:25Z</time>
      </trkpt>
      <trkpt lat="-28.19766" lon="-65.65895833333333">
        <ele>876.3</ele>
        <time>2018-08-18T15:51:26Z</time>
      </trkpt>
      <trkpt lat="-28.197675" lon="-65.658985">
        <ele>877.7</ele>
        <time>2018-08-18T15:51:44Z</time>
      </trkpt>
      <trkpt lat="-28.197675" lon="-65.658985">
        <ele>877.7</ele>
        <time>2018-08-18T15:51:45Z</time>
      </trkpt>
      <trkpt lat="-28.197685" lon="-65.659">
        <ele>878.2</ele>
        <time>2018-08-18T15:51:54Z</time>
      </trkpt>
      <trkpt lat="-28.197685" lon="-65.659">
        <ele>878.2</ele>
        <time>2018-08-18T15:51:55Z</time>
      </trkpt>
      <trkpt lat="-28.197695" lon="-65.65898">
        <ele>878.9</ele>
        <time>2018-08-18T15:52:06Z</time>
      </trkpt>
      <trkpt lat="-28.197695" lon="-65.658975">
        <ele>879.0</ele>
        <time>2018-08-18T15:52:07Z</time>
      </trkpt>
      <trkpt lat="-28.197675" lon="-65.65897">
        <ele>880.3</ele>
        <time>2018-08-18T15:52:17Z</time>
      </trkpt>
      <trkpt lat="-28.197675" lon="-65.65897">
        <ele>880.5</ele>
        <time>2018-08-18T15:52:18Z</time>
      </trkpt>
      <trkpt lat="-28.197705" lon="-65.65898">
        <ele>880.3</ele>
        <time>2018-08-18T15:52:29Z</time>
      </trkpt>
      <trkpt lat="-28.197705" lon="-65.65898">
        <ele>880.3</ele>
        <time>2018-08-18T15:52:30Z</time>
      </trkpt>
      <trkpt lat="-28.197685" lon="-65.65898">
        <ele>880.7</ele>
        <time>2018-08-18T15:52:41Z</time>
      </trkpt>
      <trkpt lat="-28.19768" lon="-65.65898">
        <ele>880.7</ele>
        <time>2018-08-18T15:52:42Z</time>
      </trkpt>
      <trkpt lat="-28.19765" lon="-65.658985">
        <ele>880.9</ele>
        <time>2018-08-18T15:52:50Z</time>
      </trkpt>
      <trkpt lat="-28.19765" lon="-65.658985">
        <ele>880.9</ele>
        <time>2018-08-18T15:52:51Z</time>
      </trkpt>
      <trkpt lat="-28.19765" lon="-65.658945">
        <ele>881.2</ele>
        <time>2018-08-18T15:53:01Z</time>
      </trkpt>
      <trkpt lat="-28.19765" lon="-65.658945">
        <ele>881.2</ele>
        <time>2018-08-18T15:53:02Z</time>
      </trkpt>
      <trkpt lat="-28.19765" lon="-65.65891333333333">
        <ele>881.5</ele>
        <time>2018-08-18T15:53:14Z</time>
      </trkpt>
      <trkpt lat="-28.19765" lon="-65.65891166666667">
        <ele>881.5</ele>
        <time>2018-08-18T15:53:15Z</time>
      </trkpt>
      <trkpt lat="-28.19767" lon="-65.65895">
        <ele>881.7</ele>
        <time>2018-08-18T15:53:26Z</time>
      </trkpt>
      <trkpt lat="-28.197675" lon="-65.65895166666667">
        <ele>881.6</ele>
        <time>2018-08-18T15:53:27Z</time>
      </trkpt>
      <trkpt lat="-28.197685" lon="-65.659015">
        <ele>881.4</ele>
        <time>2018-08-18T15:53:34Z</time>
      </trkpt>
      <trkpt lat="-28.19771" lon="-65.65906">
        <ele>879.3</ele>
        <time>2018-08-18T15:53:41Z</time>
      </trkpt>
      <trkpt lat="-28.197715" lon="-65.65906">
        <ele>878.9</ele>
        <time>2018-08-18T15:53:42Z</time>
      </trkpt>
      <trkpt lat="-28.197615" lon="-65.65906">
        <ele>877.8</ele>
        <time>2018-08-18T15:53:52Z</time>
      </trkpt>
      <trkpt lat="-28.19753" lon="-65.65907">
        <ele>877.7</ele>
        <time>2018-08-18T15:53:55Z</time>
      </trkpt>
      <trkpt lat="-28.197435" lon="-65.65909">
        <ele>877.7</ele>
        <time>2018-08-18T15:53:59Z</time>
      </trkpt>
      <trkpt lat="-28.19734" lon="-65.65909666666667">
        <ele>877.7</ele>
        <time>2018-08-18T15:54:02Z</time>
      </trkpt>
      <trkpt lat="-28.19725" lon="-65.659125">
        <ele>877.6</ele>
        <time>2018-08-18T15:54:05Z</time>
      </trkpt>
      <trkpt lat="-28.19715" lon="-65.65913666666667">
        <ele>877.5</ele>
        <time>2018-08-18T15:54:08Z</time>
      </trkpt>
      <trkpt lat="-28.197065" lon="-65.659155">
        <ele>877.5</ele>
        <time>2018-08-18T15:54:11Z</time>
      </trkpt>
      <trkpt lat="-28.196975" lon="-65.659175">
        <ele>877.5</ele>
        <time>2018-08-18T15:54:14Z</time>
      </trkpt>
      <trkpt lat="-28.19688" lon="-65.6592">
        <ele>877.5</ele>
        <time>2018-08-18T15:54:17Z</time>
      </trkpt>
      <trkpt lat="-28.1968" lon="-65.65921">
        <ele>877.5</ele>
        <time>2018-08-18T15:54:19Z</time>
      </trkpt>
      <trkpt lat="-28.19671" lon="-65.65924">
        <ele>877.4</ele>
        <time>2018-08-18T15:54:22Z</time>
      </trkpt>
      <trkpt lat="-28.19662" lon="-65.65926">
        <ele>877.4</ele>
        <time>2018-08-18T15:54:25Z</time>
      </trkpt>
      <trkpt lat="-28.19653" lon="-65.65927">
        <ele>877.5</ele>
        <time>2018-08-18T15:54:28Z</time>
      </trkpt>
      <trkpt lat="-28.196455" lon="-65.659285">
        <ele>877.6</ele>
        <time>2018-08-18T15:54:30Z</time>
      </trkpt>
      <trkpt lat="-28.196355" lon="-65.659295">
        <ele>877.9</ele>
        <time>2018-08-18T15:54:33Z</time>
      </trkpt>
      <trkpt lat="-28.19626" lon="-65.659315">
        <ele>878.2</ele>
        <time>2018-08-18T15:54:36Z</time>
      </trkpt>
      <trkpt lat="-28.19616" lon="-65.659335">
        <ele>878.4</ele>
        <time>2018-08-18T15:54:39Z</time>
      </trkpt>
      <trkpt lat="-28.196075" lon="-65.659355">
        <ele>878.5</ele>
        <time>2018-08-18T15:54:42Z</time>
      </trkpt>
      <trkpt lat="-28.196" lon="-65.65936166666667">
        <ele>878.7</ele>
        <time>2018-08-18T15:54:44Z</time>
      </trkpt>
      <trkpt lat="-28.195925" lon="-65.65939">
        <ele>878.9</ele>
        <time>2018-08-18T15:54:46Z</time>
      </trkpt>
      <trkpt lat="-28.195835" lon="-65.65940166666667">
        <ele>879.2</ele>
        <time>2018-08-18T15:54:49Z</time>
      </trkpt>
      <trkpt lat="-28.195745" lon="-65.659425">
        <ele>879.6</ele>
        <time>2018-08-18T15:54:52Z</time>
      </trkpt>
      <trkpt lat="-28.195645" lon="-65.65944">
        <ele>879.8</ele>
        <time>2018-08-18T15:54:55Z</time>
      </trkpt>
      <trkpt lat="-28.19555" lon="-65.659465">
        <ele>879.9</ele>
        <time>2018-08-18T15:54:58Z</time>
      </trkpt>
      <trkpt lat="-28.195455" lon="-65.659495">
        <ele>880.0</ele>
        <time>2018-08-18T15:55:01Z</time>
      </trkpt>
      <trkpt lat="-28.19537" lon="-65.65952">
        <ele>880.2</ele>
        <time>2018-08-18T15:55:04Z</time>
      </trkpt>
      <trkpt lat="-28.1953" lon="-65.65954">
        <ele>880.4</ele>
        <time>2018-08-18T15:55:06Z</time>
      </trkpt>
      <trkpt lat="-28.195215" lon="-65.65954166666667">
        <ele>880.4</ele>
        <time>2018-08-18T15:55:09Z</time>
      </trkpt>
      <trkpt lat="-28.19512" lon="-65.659565">
        <ele>880.6</ele>
        <time>2018-08-18T15:55:12Z</time>
      </trkpt>
      <trkpt lat="-28.195025" lon="-65.65958">
        <ele>880.8</ele>
        <time>2018-08-18T15:55:15Z</time>
      </trkpt>
      <trkpt lat="-28.19494" lon="-65.65959166666667">
        <ele>880.8</ele>
        <time>2018-08-18T15:55:18Z</time>
      </trkpt>
      <trkpt lat="-28.19485" lon="-65.659625">
        <ele>880.8</ele>
        <time>2018-08-18T15:55:21Z</time>
      </trkpt>
      <trkpt lat="-28.194755" lon="-65.65963333333333">
        <ele>880.7</ele>
        <time>2018-08-18T15:55:24Z</time>
      </trkpt>
      <trkpt lat="-28.19465" lon="-65.659665">
        <ele>880.7</ele>
        <time>2018-08-18T15:55:27Z</time>
      </trkpt>
      <trkpt lat="-28.194555" lon="-65.65969">
        <ele>880.8</ele>
        <time>2018-08-18T15:55:30Z</time>
      </trkpt>
      <trkpt lat="-28.19446" lon="-65.65971">
        <ele>880.9</ele>
        <time>2018-08-18T15:55:33Z</time>
      </trkpt>
      <trkpt lat="-28.19437" lon="-65.659735">
        <ele>881.0</ele>
        <time>2018-08-18T15:55:36Z</time>
      </trkpt>
      <trkpt lat="-28.194265" lon="-65.659755">
        <ele>881.1</ele>
        <time>2018-08-18T15:55:39Z</time>
      </trkpt>
      <trkpt lat="-28.19418" lon="-65.65977166666667">
        <ele>881.0</ele>
        <time>2018-08-18T15:55:42Z</time>
      </trkpt>
      <trkpt lat="-28.194105" lon="-65.659795">
        <ele>880.9</ele>
        <time>2018-08-18T15:55:44Z</time>
      </trkpt>
      <trkpt lat="-28.194015" lon="-65.65982">
        <ele>881.0</ele>
        <time>2018-08-18T15:55:47Z</time>
      </trkpt>
      <trkpt lat="-28.193925" lon="-65.65984">
        <ele>881.1</ele>
        <time>2018-08-18T15:55:50Z</time>
      </trkpt>
      <trkpt lat="-28.19383" lon="-65.65985666666667">
        <ele>881.3</ele>
        <time>2018-08-18T15:55:53Z</time>
      </trkpt>
      <trkpt lat="-28.193735" lon="-65.65988">
        <ele>881.7</ele>
        <time>2018-08-18T15:55:56Z</time>
      </trkpt>
      <trkpt lat="-28.19366" lon="-65.65989">
        <ele>882.2</ele>
        <time>2018-08-18T15:55:59Z</time>
      </trkpt>
      <trkpt lat="-28.19358" lon="-65.659895">
        <ele>882.8</ele>
        <time>2018-08-18T15:56:02Z</time>
      </trkpt>
      <trkpt lat="-28.193485" lon="-65.659925">
        <ele>883.4</ele>
        <time>2018-08-18T15:56:05Z</time>
      </trkpt>
      <trkpt lat="-28.193385" lon="-65.659935">
        <ele>884.0</ele>
        <time>2018-08-18T15:56:08Z</time>
      </trkpt>
      <trkpt lat="-28.193285" lon="-65.65997">
        <ele>884.6</ele>
        <time>2018-08-18T15:56:11Z</time>
      </trkpt>
      <trkpt lat="-28.1932" lon="-65.65998833333333">
        <ele>884.8</ele>
        <time>2018-08-18T15:56:14Z</time>
      </trkpt>
      <trkpt lat="-28.193115" lon="-65.660015">
        <ele>885.0</ele>
        <time>2018-08-18T15:56:17Z</time>
      </trkpt>
      <trkpt lat="-28.19303" lon="-65.66003">
        <ele>885.1</ele>
        <time>2018-08-18T15:56:20Z</time>
      </trkpt>
      <trkpt lat="-28.19295" lon="-65.660055">
        <ele>885.3</ele>
        <time>2018-08-18T15:56:22Z</time>
      </trkpt>
      <trkpt lat="-28.192865" lon="-65.660075">
        <ele>885.4</ele>
        <time>2018-08-18T15:56:24Z</time>
      </trkpt>
      <trkpt lat="-28.192795" lon="-65.660095">
        <ele>885.5</ele>
        <time>2018-08-18T15:56:26Z</time>
      </trkpt>
      <trkpt lat="-28.192715" lon="-65.66011666666667">
        <ele>885.4</ele>
        <time>2018-08-18T15:56:29Z</time>
      </trkpt>
      <trkpt lat="-28.19264" lon="-65.66015">
        <ele>885.3</ele>
        <time>2018-08-18T15:56:32Z</time>
      </trkpt>
      <trkpt lat="-28.19255" lon="-65.66016166666667">
        <ele>885.2</ele>
        <time>2018-08-18T15:56:35Z</time>
      </trkpt>
      <trkpt lat="-28.192475" lon="-65.660195">
        <ele>884.9</ele>
        <time>2018-08-18T15:56:38Z</time>
      </trkpt>
      <trkpt lat="-28.1924" lon="-65.660205">
        <ele>884.4</ele>
        <time>2018-08-18T15:56:42Z</time>
      </trkpt>
      <trkpt lat="-28.1923" lon="-65.66024">
        <ele>883.4</ele>
        <time>2018-08-18T15:56:47Z</time>
      </trkpt>
      <trkpt lat="-28.192215" lon="-65.660255">
        <ele>883.0</ele>
        <time>2018-08-18T15:56:50Z</time>
      </trkpt>
      <trkpt lat="-28.19213" lon="-65.66029">
        <ele>882.7</ele>
        <time>2018-08-18T15:56:53Z</time>
      </trkpt>
      <trkpt lat="-28.192055" lon="-65.6603">
        <ele>883.0</ele>
        <time>2018-08-18T15:56:55Z</time>
      </trkpt>
      <trkpt lat="-28.19198" lon="-65.66030333333333">
        <ele>884.2</ele>
        <time>2018-08-18T15:56:57Z</time>
      </trkpt>
      <trkpt lat="-28.191905" lon="-65.660325">
        <ele>885.5</ele>
        <time>2018-08-18T15:56:59Z</time>
      </trkpt>
      <trkpt lat="-28.1918" lon="-65.66034">
        <ele>886.1</ele>
        <time>2018-08-18T15:57:02Z</time>
      </trkpt>
      <trkpt lat="-28.191725" lon="-65.66035166666667">
        <ele>886.1</ele>
        <time>2018-08-18T15:57:04Z</time>
      </trkpt>
      <trkpt lat="-28.19162" lon="-65.660385">
        <ele>886.0</ele>
        <time>2018-08-18T15:57:07Z</time>
      </trkpt>
      <trkpt lat="-28.19154" lon="-65.66041">
        <ele>885.9</ele>
        <time>2018-08-18T15:57:09Z</time>
      </trkpt>
      <trkpt lat="-28.191465" lon="-65.66043">
        <ele>885.7</ele>
        <time>2018-08-18T15:57:11Z</time>
      </trkpt>
      <trkpt lat="-28.19136" lon="-65.66046">
        <ele>885.5</ele>
        <time>2018-08-18T15:57:14Z</time>
      </trkpt>
      <trkpt lat="-28.191276666666667" lon="-65.66047">
        <ele>885.4</ele>
        <time>2018-08-18T15:57:16Z</time>
      </trkpt>
      <trkpt lat="-28.1912" lon="-65.6605">
        <ele>885.3</ele>
        <time>2018-08-18T15:57:19Z</time>
      </trkpt>
      <trkpt lat="-28.1911" lon="-65.660525">
        <ele>885.1</ele>
        <time>2018-08-18T15:57:22Z</time>
      </trkpt>
      <trkpt lat="-28.191005" lon="-65.66056">
        <ele>884.8</ele>
        <time>2018-08-18T15:57:25Z</time>
      </trkpt>
      <trkpt lat="-28.190925" lon="-65.66057166666667">
        <ele>884.5</ele>
        <time>2018-08-18T15:57:28Z</time>
      </trkpt>
      <trkpt lat="-28.19085" lon="-65.66059">
        <ele>884.3</ele>
        <time>2018-08-18T15:57:31Z</time>
      </trkpt>
      <trkpt lat="-28.190755" lon="-65.66061">
        <ele>884.2</ele>
        <time>2018-08-18T15:57:35Z</time>
      </trkpt>
      <trkpt lat="-28.19067" lon="-65.660635">
        <ele>884.0</ele>
        <time>2018-08-18T15:57:38Z</time>
      </trkpt>
      <trkpt lat="-28.190575" lon="-65.66065">
        <ele>883.9</ele>
        <time>2018-08-18T15:57:41Z</time>
      </trkpt>
      <trkpt lat="-28.19048" lon="-65.660675">
        <ele>883.8</ele>
        <time>2018-08-18T15:57:44Z</time>
      </trkpt>
      <trkpt lat="-28.190395" lon="-65.660695">
        <ele>883.7</ele>
        <time>2018-08-18T15:57:47Z</time>
      </trkpt>
      <trkpt lat="-28.19031" lon="-65.66070833333333">
        <ele>883.6</ele>
        <time>2018-08-18T15:57:50Z</time>
      </trkpt>
      <trkpt lat="-28.19022" lon="-65.66073">
        <ele>883.5</ele>
        <time>2018-08-18T15:57:53Z</time>
      </trkpt>
      <trkpt lat="-28.190135" lon="-65.660745">
        <ele>883.4</ele>
        <time>2018-08-18T15:57:56Z</time>
      </trkpt>
      <trkpt lat="-28.190055" lon="-65.66078">
        <ele>883.4</ele>
        <time>2018-08-18T15:57:59Z</time>
      </trkpt>
      <trkpt lat="-28.189975" lon="-65.660805">
        <ele>883.3</ele>
        <time>2018-08-18T15:58:04Z</time>
      </trkpt>
      <trkpt lat="-28.189895" lon="-65.660825">
        <ele>883.2</ele>
        <time>2018-08-18T15:58:07Z</time>
      </trkpt>
      <trkpt lat="-28.189815" lon="-65.66084166666667">
        <ele>883.2</ele>
        <time>2018-08-18T15:58:10Z</time>
      </trkpt>
      <trkpt lat="-28.189715" lon="-65.660865">
        <ele>883.5</ele>
        <time>2018-08-18T15:58:14Z</time>
      </trkpt>
      <trkpt lat="-28.18963" lon="-65.66087666666667">
        <ele>883.7</ele>
        <time>2018-08-18T15:58:17Z</time>
      </trkpt>
      <trkpt lat="-28.18956" lon="-65.66091">
        <ele>883.7</ele>
        <time>2018-08-18T15:58:19Z</time>
      </trkpt>
      <trkpt lat="-28.18946" lon="-65.66094">
        <ele>883.8</ele>
        <time>2018-08-18T15:58:22Z</time>
      </trkpt>
      <trkpt lat="-28.18938" lon="-65.660955">
        <ele>883.9</ele>
        <time>2018-08-18T15:58:25Z</time>
      </trkpt>
      <trkpt lat="-28.18928" lon="-65.66097">
        <ele>884.1</ele>
        <time>2018-08-18T15:58:28Z</time>
      </trkpt>
      <trkpt lat="-28.18919" lon="-65.660995">
        <ele>884.5</ele>
        <time>2018-08-18T15:58:31Z</time>
      </trkpt>
      <trkpt lat="-28.18908" lon="-65.661015">
        <ele>884.8</ele>
        <time>2018-08-18T15:58:34Z</time>
      </trkpt>
      <trkpt lat="-28.18901" lon="-65.66103">
        <ele>885.1</ele>
        <time>2018-08-18T15:58:36Z</time>
      </trkpt>
      <trkpt lat="-28.18891" lon="-65.66106">
        <ele>885.5</ele>
        <time>2018-08-18T15:58:39Z</time>
      </trkpt>
      <trkpt lat="-28.18882" lon="-65.66108">
        <ele>885.7</ele>
        <time>2018-08-18T15:58:42Z</time>
      </trkpt>
      <trkpt lat="-28.18875" lon="-65.6611">
        <ele>885.9</ele>
        <time>2018-08-18T15:58:44Z</time>
      </trkpt>
      <trkpt lat="-28.188655" lon="-65.661125">
        <ele>886.2</ele>
        <time>2018-08-18T15:58:47Z</time>
      </trkpt>
      <trkpt lat="-28.188575" lon="-65.661145">
        <ele>886.3</ele>
        <time>2018-08-18T15:58:50Z</time>
      </trkpt>
      <trkpt lat="-28.188495" lon="-65.66118">
        <ele>886.4</ele>
        <time>2018-08-18T15:58:53Z</time>
      </trkpt>
      <trkpt lat="-28.188395" lon="-65.66119">
        <ele>886.4</ele>
        <time>2018-08-18T15:58:56Z</time>
      </trkpt>
      <trkpt lat="-28.1883" lon="-65.66121">
        <ele>886.5</ele>
        <time>2018-08-18T15:58:59Z</time>
      </trkpt>
      <trkpt lat="-28.188215" lon="-65.66123">
        <ele>886.5</ele>
        <time>2018-08-18T15:59:02Z</time>
      </trkpt>
      <trkpt lat="-28.188105" lon="-65.661265">
        <ele>886.5</ele>
        <time>2018-08-18T15:59:05Z</time>
      </trkpt>
      <trkpt lat="-28.188025" lon="-65.661275">
        <ele>886.5</ele>
        <time>2018-08-18T15:59:07Z</time>
      </trkpt>
      <trkpt lat="-28.187925" lon="-65.661285">
        <ele>886.5</ele>
        <time>2018-08-18T15:59:10Z</time>
      </trkpt>
      <trkpt lat="-28.187825" lon="-65.661315">
        <ele>886.3</ele>
        <time>2018-08-18T15:59:13Z</time>
      </trkpt>
      <trkpt lat="-28.187715" lon="-65.661335">
        <ele>886.3</ele>
        <time>2018-08-18T15:59:16Z</time>
      </trkpt>
      <trkpt lat="-28.187645" lon="-65.661365">
        <ele>886.3</ele>
        <time>2018-08-18T15:59:18Z</time>
      </trkpt>
      <trkpt lat="-28.18755" lon="-65.66139">
        <ele>886.3</ele>
        <time>2018-08-18T15:59:21Z</time>
      </trkpt>
      <trkpt lat="-28.18745" lon="-65.661405">
        <ele>886.2</ele>
        <time>2018-08-18T15:59:24Z</time>
      </trkpt>
      <trkpt lat="-28.187335" lon="-65.66141666666667">
        <ele>886.4</ele>
        <time>2018-08-18T15:59:27Z</time>
      </trkpt>
      <trkpt lat="-28.187245" lon="-65.661445">
        <ele>887.4</ele>
        <time>2018-08-18T15:59:30Z</time>
      </trkpt>
      <trkpt lat="-28.18713" lon="-65.661465">
        <ele>887.7</ele>
        <time>2018-08-18T15:59:33Z</time>
      </trkpt>
      <trkpt lat="-28.18704" lon="-65.661485">
        <ele>888.3</ele>
        <time>2018-08-18T15:59:35Z</time>
      </trkpt>
      <trkpt lat="-28.186955" lon="-65.66151">
        <ele>888.2</ele>
        <time>2018-08-18T15:59:37Z</time>
      </trkpt>
      <trkpt lat="-28.18686" lon="-65.66153">
        <ele>887.8</ele>
        <time>2018-08-18T15:59:39Z</time>
      </trkpt>
      <trkpt lat="-28.186765" lon="-65.661545">
        <ele>887.0</ele>
        <time>2018-08-18T15:59:41Z</time>
      </trkpt>
      <trkpt lat="-28.18668" lon="-65.66156">
        <ele>886.4</ele>
        <time>2018-08-18T15:59:43Z</time>
      </trkpt>
      <trkpt lat="-28.18658" lon="-65.661585">
        <ele>886.0</ele>
        <time>2018-08-18T15:59:45Z</time>
      </trkpt>
      <trkpt lat="-28.18647" lon="-65.66159666666667">
        <ele>885.8</ele>
        <time>2018-08-18T15:59:47Z</time>
      </trkpt>
      <trkpt lat="-28.186385" lon="-65.661625">
        <ele>885.4</ele>
        <time>2018-08-18T15:59:49Z</time>
      </trkpt>
      <trkpt lat="-28.1863" lon="-65.661635">
        <ele>885.1</ele>
        <time>2018-08-18T15:59:51Z</time>
      </trkpt>
      <trkpt lat="-28.18621" lon="-65.66166">
        <ele>884.7</ele>
        <time>2018-08-18T15:59:53Z</time>
      </trkpt>
      <trkpt lat="-28.186115" lon="-65.66168833333333">
        <ele>885.8</ele>
        <time>2018-08-18T15:59:55Z</time>
      </trkpt>
      <trkpt lat="-28.18601" lon="-65.661705">
        <ele>886.6</ele>
        <time>2018-08-18T15:59:57Z</time>
      </trkpt>
      <trkpt lat="-28.185915" lon="-65.661715">
        <ele>886.5</ele>
        <time>2018-08-18T15:59:59Z</time>
      </trkpt>
      <trkpt lat="-28.18582" lon="-65.66172833333333">
        <ele>887.0</ele>
        <time>2018-08-18T16:00:01Z</time>
      </trkpt>
      <trkpt lat="-28.185735" lon="-65.66173666666667">
        <ele>887.5</ele>
        <time>2018-08-18T16:00:03Z</time>
      </trkpt>
      <trkpt lat="-28.18563" lon="-65.66176">
        <ele>888.2</ele>
        <time>2018-08-18T16:00:05Z</time>
      </trkpt>
      <trkpt lat="-28.185545" lon="-65.661775">
        <ele>888.6</ele>
        <time>2018-08-18T16:00:07Z</time>
      </trkpt>
      <trkpt lat="-28.18545" lon="-65.66179">
        <ele>888.4</ele>
        <time>2018-08-18T16:00:09Z</time>
      </trkpt>
      <trkpt lat="-28.185355" lon="-65.66181">
        <ele>887.9</ele>
        <time>2018-08-18T16:00:11Z</time>
      </trkpt>
      <trkpt lat="-28.18526" lon="-65.66182">
        <ele>887.3</ele>
        <time>2018-08-18T16:00:13Z</time>
      </trkpt>
      <trkpt lat="-28.18517" lon="-65.661845">
        <ele>886.9</ele>
        <time>2018-08-18T16:00:15Z</time>
      </trkpt>
      <trkpt lat="-28.18506" lon="-65.66186">
        <ele>886.3</ele>
        <time>2018-08-18T16:00:17Z</time>
      </trkpt>
      <trkpt lat="-28.184965" lon="-65.66187166666667">
        <ele>885.8</ele>
        <time>2018-08-18T16:00:19Z</time>
      </trkpt>
      <trkpt lat="-28.184875" lon="-65.6619">
        <ele>885.4</ele>
        <time>2018-08-18T16:00:21Z</time>
      </trkpt>
      <trkpt lat="-28.184785" lon="-65.661905">
        <ele>885.1</ele>
        <time>2018-08-18T16:00:23Z</time>
      </trkpt>
      <trkpt lat="-28.18469" lon="-65.661925">
        <ele>884.8</ele>
        <time>2018-08-18T16:00:25Z</time>
      </trkpt>
      <trkpt lat="-28.184605" lon="-65.66194">
        <ele>883.9</ele>
        <time>2018-08-18T16:00:27Z</time>
      </trkpt>
      <trkpt lat="-28.184515" lon="-65.66195333333333">
        <ele>883.5</ele>
        <time>2018-08-18T16:00:29Z</time>
      </trkpt>
      <trkpt lat="-28.18442" lon="-65.66197">
        <ele>883.9</ele>
        <time>2018-08-18T16:00:31Z</time>
      </trkpt>
      <trkpt lat="-28.184335" lon="-65.66199">
        <ele>883.9</ele>
        <time>2018-08-18T16:00:33Z</time>
      </trkpt>
      <trkpt lat="-28.18425" lon="-65.662">
        <ele>883.7</ele>
        <time>2018-08-18T16:00:35Z</time>
      </trkpt>
      <trkpt lat="-28.184155" lon="-65.662025">
        <ele>883.3</ele>
        <time>2018-08-18T16:00:37Z</time>
      </trkpt>
      <trkpt lat="-28.184065" lon="-65.662045">
        <ele>883.0</ele>
        <time>2018-08-18T16:00:39Z</time>
      </trkpt>
      <trkpt lat="-28.183975" lon="-65.662075">
        <ele>882.9</ele>
        <time>2018-08-18T16:00:41Z</time>
      </trkpt>
      <trkpt lat="-28.183885" lon="-65.66209">
        <ele>882.8</ele>
        <time>2018-08-18T16:00:43Z</time>
      </trkpt>
      <trkpt lat="-28.1838" lon="-65.66212">
        <ele>882.6</ele>
        <time>2018-08-18T16:00:45Z</time>
      </trkpt>
      <trkpt lat="-28.18373" lon="-65.66213166666667">
        <ele>882.6</ele>
        <time>2018-08-18T16:00:47Z</time>
      </trkpt>
      <trkpt lat="-28.183655" lon="-65.662165">
        <ele>882.7</ele>
        <time>2018-08-18T16:00:49Z</time>
      </trkpt>
      <trkpt lat="-28.18358" lon="-65.66218166666667">
        <ele>883.0</ele>
        <time>2018-08-18T16:00:51Z</time>
      </trkpt>
      <trkpt lat="-28.183495" lon="-65.662215">
        <ele>883.0</ele>
        <time>2018-08-18T16:00:53Z</time>
      </trkpt>
      <trkpt lat="-28.18341" lon="-65.66222833333333">
        <ele>882.8</ele>
        <time>2018-08-18T16:00:55Z</time>
      </trkpt>
      <trkpt lat="-28.18334" lon="-65.66226">
        <ele>883.1</ele>
        <time>2018-08-18T16:00:57Z</time>
      </trkpt>
      <trkpt lat="-28.183265" lon="-65.66227166666667">
        <ele>883.6</ele>
        <time>2018-08-18T16:00:59Z</time>
      </trkpt>
      <trkpt lat="-28.18318" lon="-65.662305">
        <ele>883.9</ele>
        <time>2018-08-18T16:01:01Z</time>
      </trkpt>
      <trkpt lat="-28.1831" lon="-65.66232">
        <ele>883.9</ele>
        <time>2018-08-18T16:01:03Z</time>
      </trkpt>
      <trkpt lat="-28.183015" lon="-65.66235">
        <ele>883.8</ele>
        <time>2018-08-18T16:01:05Z</time>
      </trkpt>
      <trkpt lat="-28.182945" lon="-65.662375">
        <ele>883.9</ele>
        <time>2018-08-18T16:01:07Z</time>
      </trkpt>
      <trkpt lat="-28.182875" lon="-65.662395">
        <ele>884.0</ele>
        <time>2018-08-18T16:01:09Z</time>
      </trkpt>
      <trkpt lat="-28.18277" lon="-65.66242">
        <ele>884.6</ele>
        <time>2018-08-18T16:01:12Z</time>
      </trkpt>
      <trkpt lat="-28.182655" lon="-65.66245">
        <ele>885.0</ele>
        <time>2018-08-18T16:01:15Z</time>
      </trkpt>
      <trkpt lat="-28.182575" lon="-65.66247">
        <ele>885.1</ele>
        <time>2018-08-18T16:01:17Z</time>
      </trkpt>
      <trkpt lat="-28.18247" lon="-65.662475">
        <ele>885.1</ele>
        <time>2018-08-18T16:01:20Z</time>
      </trkpt>
      <trkpt lat="-28.182395" lon="-65.662485">
        <ele>885.3</ele>
        <time>2018-08-18T16:01:22Z</time>
      </trkpt>
      <trkpt lat="-28.18229" lon="-65.662485">
        <ele>885.7</ele>
        <time>2018-08-18T16:01:25Z</time>
      </trkpt>
      <trkpt lat="-28.18221" lon="-65.662495">
        <ele>885.7</ele>
        <time>2018-08-18T16:01:27Z</time>
      </trkpt>
      <trkpt lat="-28.182105" lon="-65.66249666666667">
        <ele>885.8</ele>
        <time>2018-08-18T16:01:30Z</time>
      </trkpt>
      <trkpt lat="-28.182015" lon="-65.66249666666667">
        <ele>885.8</ele>
        <time>2018-08-18T16:01:33Z</time>
      </trkpt>
      <trkpt lat="-28.18191" lon="-65.66249666666667">
        <ele>885.9</ele>
        <time>2018-08-18T16:01:36Z</time>
      </trkpt>
      <trkpt lat="-28.1818" lon="-65.66250166666667">
        <ele>885.9</ele>
        <time>2018-08-18T16:01:39Z</time>
      </trkpt>
      <trkpt lat="-28.18173" lon="-65.662515">
        <ele>886.0</ele>
        <time>2018-08-18T16:01:41Z</time>
      </trkpt>
      <trkpt lat="-28.181625" lon="-65.662515">
        <ele>886.0</ele>
        <time>2018-08-18T16:01:44Z</time>
      </trkpt>
      <trkpt lat="-28.18151" lon="-65.662515">
        <ele>886.0</ele>
        <time>2018-08-18T16:01:47Z</time>
      </trkpt>
      <trkpt lat="-28.181425" lon="-65.662525">
        <ele>885.6</ele>
        <time>2018-08-18T16:01:49Z</time>
      </trkpt>
      <trkpt lat="-28.18135" lon="-65.66253">
        <ele>884.7</ele>
        <time>2018-08-18T16:01:51Z</time>
      </trkpt>
      <trkpt lat="-28.181265" lon="-65.662535">
        <ele>884.3</ele>
        <time>2018-08-18T16:01:53Z</time>
      </trkpt>
      <trkpt lat="-28.181185" lon="-65.662535">
        <ele>884.4</ele>
        <time>2018-08-18T16:01:55Z</time>
      </trkpt>
      <trkpt lat="-28.181105" lon="-65.662535">
        <ele>884.7</ele>
        <time>2018-08-18T16:01:57Z</time>
      </trkpt>
      <trkpt lat="-28.18103" lon="-65.662535">
        <ele>884.9</ele>
        <time>2018-08-18T16:01:59Z</time>
      </trkpt>
      <trkpt lat="-28.18094" lon="-65.662535">
        <ele>885.0</ele>
        <time>2018-08-18T16:02:01Z</time>
      </trkpt>
      <trkpt lat="-28.18087" lon="-65.66253666666667">
        <ele>885.0</ele>
        <time>2018-08-18T16:02:03Z</time>
      </trkpt>
      <trkpt lat="-28.180795" lon="-65.66254">
        <ele>885.2</ele>
        <time>2018-08-18T16:02:05Z</time>
      </trkpt>
      <trkpt lat="-28.180715" lon="-65.66254">
        <ele>885.4</ele>
        <time>2018-08-18T16:02:07Z</time>
      </trkpt>
      <trkpt lat="-28.18064" lon="-65.66254">
        <ele>885.5</ele>
        <time>2018-08-18T16:02:09Z</time>
      </trkpt>
      <trkpt lat="-28.18056" lon="-65.662545">
        <ele>885.2</ele>
        <time>2018-08-18T16:02:11Z</time>
      </trkpt>
      <trkpt lat="-28.18048" lon="-65.66256">
        <ele>885.1</ele>
        <time>2018-08-18T16:02:13Z</time>
      </trkpt>
      <trkpt lat="-28.18039" lon="-65.66254666666667">
        <ele>885.6</ele>
        <time>2018-08-18T16:02:15Z</time>
      </trkpt>
      <trkpt lat="-28.180315" lon="-65.66254666666667">
        <ele>886.8</ele>
        <time>2018-08-18T16:02:17Z</time>
      </trkpt>
      <trkpt lat="-28.180205" lon="-65.662545">
        <ele>889.0</ele>
        <time>2018-08-18T16:02:20Z</time>
      </trkpt>
      <trkpt lat="-28.180095" lon="-65.66256">
        <ele>889.3</ele>
        <time>2018-08-18T16:02:23Z</time>
      </trkpt>
      <trkpt lat="-28.180015" lon="-65.66256">
        <ele>889.4</ele>
        <time>2018-08-18T16:02:25Z</time>
      </trkpt>
      <trkpt lat="-28.179945" lon="-65.66256">
        <ele>889.4</ele>
        <time>2018-08-18T16:02:27Z</time>
      </trkpt>
      <trkpt lat="-28.17985" lon="-65.662575">
        <ele>889.1</ele>
        <time>2018-08-18T16:02:29Z</time>
      </trkpt>
      <trkpt lat="-28.179775" lon="-65.662575">
        <ele>889.1</ele>
        <time>2018-08-18T16:02:31Z</time>
      </trkpt>
      <trkpt lat="-28.1797" lon="-65.66258">
        <ele>889.1</ele>
        <time>2018-08-18T16:02:33Z</time>
      </trkpt>
      <trkpt lat="-28.1796" lon="-65.66258">
        <ele>889.1</ele>
        <time>2018-08-18T16:02:36Z</time>
      </trkpt>
      <trkpt lat="-28.179495" lon="-65.66258166666667">
        <ele>889.2</ele>
        <time>2018-08-18T16:02:39Z</time>
      </trkpt>
      <trkpt lat="-28.17942" lon="-65.6626">
        <ele>889.2</ele>
        <time>2018-08-18T16:02:41Z</time>
      </trkpt>
      <trkpt lat="-28.179315" lon="-65.662605">
        <ele>889.3</ele>
        <time>2018-08-18T16:02:44Z</time>
      </trkpt>
      <trkpt lat="-28.17922" lon="-65.662615">
        <ele>889.3</ele>
        <time>2018-08-18T16:02:47Z</time>
      </trkpt>
      <trkpt lat="-28.17914" lon="-65.66262">
        <ele>889.3</ele>
        <time>2018-08-18T16:02:49Z</time>
      </trkpt>
      <trkpt lat="-28.17904" lon="-65.66262833333333">
        <ele>889.1</ele>
        <time>2018-08-18T16:02:52Z</time>
      </trkpt>
      <trkpt lat="-28.178945" lon="-65.662645">
        <ele>889.0</ele>
        <time>2018-08-18T16:02:55Z</time>
      </trkpt>
      <trkpt lat="-28.17887" lon="-65.662655">
        <ele>889.5</ele>
        <time>2018-08-18T16:02:57Z</time>
      </trkpt>
      <trkpt lat="-28.17879" lon="-65.662665">
        <ele>890.1</ele>
        <time>2018-08-18T16:02:59Z</time>
      </trkpt>
      <trkpt lat="-28.178715" lon="-65.66266666666667">
        <ele>890.1</ele>
        <time>2018-08-18T16:03:01Z</time>
      </trkpt>
      <trkpt lat="-28.17864" lon="-65.66267">
        <ele>890.4</ele>
        <time>2018-08-18T16:03:03Z</time>
      </trkpt>
      <trkpt lat="-28.178555" lon="-65.662675">
        <ele>890.0</ele>
        <time>2018-08-18T16:03:05Z</time>
      </trkpt>
      <trkpt lat="-28.17848" lon="-65.6627">
        <ele>889.7</ele>
        <time>2018-08-18T16:03:07Z</time>
      </trkpt>
      <trkpt lat="-28.1784" lon="-65.6627">
        <ele>889.8</ele>
        <time>2018-08-18T16:03:09Z</time>
      </trkpt>
      <trkpt lat="-28.17832" lon="-65.66271">
        <ele>889.8</ele>
        <time>2018-08-18T16:03:11Z</time>
      </trkpt>
      <trkpt lat="-28.178245" lon="-65.66271">
        <ele>889.8</ele>
        <time>2018-08-18T16:03:13Z</time>
      </trkpt>
      <trkpt lat="-28.17813" lon="-65.662715">
        <ele>890.4</ele>
        <time>2018-08-18T16:03:16Z</time>
      </trkpt>
      <trkpt lat="-28.178055" lon="-65.662715">
        <ele>890.4</ele>
        <time>2018-08-18T16:03:18Z</time>
      </trkpt>
      <trkpt lat="-28.17796" lon="-65.66272">
        <ele>890.5</ele>
        <time>2018-08-18T16:03:21Z</time>
      </trkpt>
      <trkpt lat="-28.177855" lon="-65.66274">
        <ele>890.5</ele>
        <time>2018-08-18T16:03:24Z</time>
      </trkpt>
      <trkpt lat="-28.17777" lon="-65.66275">
        <ele>890.6</ele>
        <time>2018-08-18T16:03:26Z</time>
      </trkpt>
      <trkpt lat="-28.1777" lon="-65.66276">
        <ele>890.5</ele>
        <time>2018-08-18T16:03:28Z</time>
      </trkpt>
      <trkpt lat="-28.177625" lon="-65.66276">
        <ele>889.4</ele>
        <time>2018-08-18T16:03:30Z</time>
      </trkpt>
      <trkpt lat="-28.17754" lon="-65.662775">
        <ele>889.1</ele>
        <time>2018-08-18T16:03:32Z</time>
      </trkpt>
      <trkpt lat="-28.17746" lon="-65.662775">
        <ele>888.6</ele>
        <time>2018-08-18T16:03:34Z</time>
      </trkpt>
      <trkpt lat="-28.17738" lon="-65.662785">
        <ele>888.1</ele>
        <time>2018-08-18T16:03:36Z</time>
      </trkpt>
      <trkpt lat="-28.17728" lon="-65.662795">
        <ele>888.2</ele>
        <time>2018-08-18T16:03:39Z</time>
      </trkpt>
      <trkpt lat="-28.177175" lon="-65.662795">
        <ele>888.2</ele>
        <time>2018-08-18T16:03:42Z</time>
      </trkpt>
      <trkpt lat="-28.177105" lon="-65.662795">
        <ele>888.3</ele>
        <time>2018-08-18T16:03:44Z</time>
      </trkpt>
      <trkpt lat="-28.17703" lon="-65.662805">
        <ele>888.4</ele>
        <time>2018-08-18T16:03:47Z</time>
      </trkpt>
      <trkpt lat="-28.17693" lon="-65.66281166666667">
        <ele>888.6</ele>
        <time>2018-08-18T16:03:50Z</time>
      </trkpt>
      <trkpt lat="-28.176825" lon="-65.662825">
        <ele>888.8</ele>
        <time>2018-08-18T16:03:53Z</time>
      </trkpt>
      <trkpt lat="-28.17672" lon="-65.66283">
        <ele>889.5</ele>
        <time>2018-08-18T16:03:56Z</time>
      </trkpt>
      <trkpt lat="-28.176645" lon="-65.66284">
        <ele>889.8</ele>
        <time>2018-08-18T16:03:58Z</time>
      </trkpt>
      <trkpt lat="-28.17657" lon="-65.66284">
        <ele>890.4</ele>
        <time>2018-08-18T16:04:00Z</time>
      </trkpt>
      <trkpt lat="-28.176455" lon="-65.662845">
        <ele>891.2</ele>
        <time>2018-08-18T16:04:03Z</time>
      </trkpt>
      <trkpt lat="-28.176375" lon="-65.66284666666667">
        <ele>891.9</ele>
        <time>2018-08-18T16:04:05Z</time>
      </trkpt>
      <trkpt lat="-28.176275" lon="-65.66287">
        <ele>892.3</ele>
        <time>2018-08-18T16:04:07Z</time>
      </trkpt>
      <trkpt lat="-28.17617" lon="-65.66287">
        <ele>892.3</ele>
        <time>2018-08-18T16:04:09Z</time>
      </trkpt>
      <trkpt lat="-28.17606" lon="-65.66285333333333">
        <ele>891.6</ele>
        <time>2018-08-18T16:04:11Z</time>
      </trkpt>
      <trkpt lat="-28.175925" lon="-65.662845">
        <ele>890.6</ele>
        <time>2018-08-18T16:04:13Z</time>
      </trkpt>
      <trkpt lat="-28.175845" lon="-65.66283">
        <ele>890.3</ele>
        <time>2018-08-18T16:04:14Z</time>
      </trkpt>
      <trkpt lat="-28.17577" lon="-65.66280833333333">
        <ele>889.7</ele>
        <time>2018-08-18T16:04:15Z</time>
      </trkpt>
      <trkpt lat="-28.17569" lon="-65.662805">
        <ele>888.9</ele>
        <time>2018-08-18T16:04:16Z</time>
      </trkpt>
      <trkpt lat="-28.17561" lon="-65.662795">
        <ele>888.1</ele>
        <time>2018-08-18T16:04:17Z</time>
      </trkpt>
      <trkpt lat="-28.175535" lon="-65.662775">
        <ele>887.6</ele>
        <time>2018-08-18T16:04:18Z</time>
      </trkpt>
      <trkpt lat="-28.17546" lon="-65.66276">
        <ele>887.1</ele>
        <time>2018-08-18T16:04:19Z</time>
      </trkpt>
      <trkpt lat="-28.17532" lon="-65.66271666666667">
        <ele>886.8</ele>
        <time>2018-08-18T16:04:21Z</time>
      </trkpt>
      <trkpt lat="-28.17524" lon="-65.6627">
        <ele>886.8</ele>
        <time>2018-08-18T16:04:22Z</time>
      </trkpt>
      <trkpt lat="-28.17517" lon="-65.66269">
        <ele>886.5</ele>
        <time>2018-08-18T16:04:23Z</time>
      </trkpt>
      <trkpt lat="-28.17502" lon="-65.662655">
        <ele>886.1</ele>
        <time>2018-08-18T16:04:25Z</time>
      </trkpt>
      <trkpt lat="-28.17489" lon="-65.662625">
        <ele>885.0</ele>
        <time>2018-08-18T16:04:27Z</time>
      </trkpt>
      <trkpt lat="-28.174755" lon="-65.6626">
        <ele>884.9</ele>
        <time>2018-08-18T16:04:29Z</time>
      </trkpt>
      <trkpt lat="-28.174615" lon="-65.662575">
        <ele>884.6</ele>
        <time>2018-08-18T16:04:31Z</time>
      </trkpt>
      <trkpt lat="-28.174505" lon="-65.66254">
        <ele>884.5</ele>
        <time>2018-08-18T16:04:33Z</time>
      </trkpt>
      <trkpt lat="-28.17439" lon="-65.662525">
        <ele>884.3</ele>
        <time>2018-08-18T16:04:35Z</time>
      </trkpt>
      <trkpt lat="-28.17432" lon="-65.66249833333333">
        <ele>882.8</ele>
        <time>2018-08-18T16:04:37Z</time>
      </trkpt>
      <trkpt lat="-28.174235" lon="-65.66249833333333">
        <ele>881.2</ele>
        <time>2018-08-18T16:04:39Z</time>
      </trkpt>
      <trkpt lat="-28.174135" lon="-65.662535">
        <ele>881.4</ele>
        <time>2018-08-18T16:04:41Z</time>
      </trkpt>
      <trkpt lat="-28.174045" lon="-65.662615">
        <ele>881.4</ele>
        <time>2018-08-18T16:04:43Z</time>
      </trkpt>
      <trkpt lat="-28.174" lon="-65.6627">
        <ele>882.8</ele>
        <time>2018-08-18T16:04:45Z</time>
      </trkpt>
      <trkpt lat="-28.173975" lon="-65.662785">
        <ele>882.9</ele>
        <time>2018-08-18T16:04:47Z</time>
      </trkpt>
      <trkpt lat="-28.17396" lon="-65.66288">
        <ele>884.1</ele>
        <time>2018-08-18T16:04:49Z</time>
      </trkpt>
      <trkpt lat="-28.173945" lon="-65.66301">
        <ele>884.9</ele>
        <time>2018-08-18T16:04:52Z</time>
      </trkpt>
      <trkpt lat="-28.173925" lon="-65.663145">
        <ele>885.4</ele>
        <time>2018-08-18T16:04:54Z</time>
      </trkpt>
      <trkpt lat="-28.17391" lon="-65.663255">
        <ele>883.7</ele>
        <time>2018-08-18T16:04:56Z</time>
      </trkpt>
      <trkpt lat="-28.17389" lon="-65.66334">
        <ele>882.3</ele>
        <time>2018-08-18T16:04:58Z</time>
      </trkpt>
      <trkpt lat="-28.173875" lon="-65.663425">
        <ele>882.2</ele>
        <time>2018-08-18T16:05:00Z</time>
      </trkpt>
      <trkpt lat="-28.173845" lon="-65.66352">
        <ele>882.7</ele>
        <time>2018-08-18T16:05:02Z</time>
      </trkpt>
      <trkpt lat="-28.17382" lon="-65.663605">
        <ele>884.6</ele>
        <time>2018-08-18T16:05:04Z</time>
      </trkpt>
      <trkpt lat="-28.173773333333333" lon="-65.66368666666666">
        <ele>885.5</ele>
        <time>2018-08-18T16:05:06Z</time>
      </trkpt>
      <trkpt lat="-28.173735" lon="-65.66378">
        <ele>885.7</ele>
        <time>2018-08-18T16:05:08Z</time>
      </trkpt>
      <trkpt lat="-28.17366" lon="-65.663855">
        <ele>885.6</ele>
        <time>2018-08-18T16:05:10Z</time>
      </trkpt>
      <trkpt lat="-28.173595" lon="-65.66391">
        <ele>884.9</ele>
        <time>2018-08-18T16:05:12Z</time>
      </trkpt>
      <trkpt lat="-28.173505" lon="-65.66396">
        <ele>885.4</ele>
        <time>2018-08-18T16:05:15Z</time>
      </trkpt>
      <trkpt lat="-28.173425" lon="-65.664015">
        <ele>885.7</ele>
        <time>2018-08-18T16:05:17Z</time>
      </trkpt>
      <trkpt lat="-28.173345" lon="-65.664055">
        <ele>885.8</ele>
        <time>2018-08-18T16:05:19Z</time>
      </trkpt>
      <trkpt lat="-28.17327" lon="-65.6641">
        <ele>885.6</ele>
        <time>2018-08-18T16:05:21Z</time>
      </trkpt>
      <trkpt lat="-28.173195" lon="-65.66414833333333">
        <ele>885.3</ele>
        <time>2018-08-18T16:05:23Z</time>
      </trkpt>
      <trkpt lat="-28.173115" lon="-65.664195">
        <ele>884.7</ele>
        <time>2018-08-18T16:05:25Z</time>
      </trkpt>
      <trkpt lat="-28.17304" lon="-65.66424333333333">
        <ele>883.8</ele>
        <time>2018-08-18T16:05:27Z</time>
      </trkpt>
      <trkpt lat="-28.17296" lon="-65.66429333333333">
        <ele>883.4</ele>
        <time>2018-08-18T16:05:29Z</time>
      </trkpt>
      <trkpt lat="-28.17289" lon="-65.66435">
        <ele>883.3</ele>
        <time>2018-08-18T16:05:31Z</time>
      </trkpt>
      <trkpt lat="-28.172805" lon="-65.66439">
        <ele>883.2</ele>
        <time>2018-08-18T16:05:33Z</time>
      </trkpt>
      <trkpt lat="-28.172735" lon="-65.66442">
        <ele>884.7</ele>
        <time>2018-08-18T16:05:35Z</time>
      </trkpt>
      <trkpt lat="-28.17266" lon="-65.664455">
        <ele>887.2</ele>
        <time>2018-08-18T16:05:37Z</time>
      </trkpt>
      <trkpt lat="-28.17259" lon="-65.66447166666667">
        <ele>889.4</ele>
        <time>2018-08-18T16:05:39Z</time>
      </trkpt>
      <trkpt lat="-28.17251" lon="-65.664505">
        <ele>890.7</ele>
        <time>2018-08-18T16:05:41Z</time>
      </trkpt>
      <trkpt lat="-28.17243" lon="-65.664545">
        <ele>891.7</ele>
        <time>2018-08-18T16:05:43Z</time>
      </trkpt>
      <trkpt lat="-28.17235" lon="-65.66457">
        <ele>891.9</ele>
        <time>2018-08-18T16:05:45Z</time>
      </trkpt>
      <trkpt lat="-28.172275" lon="-65.66459">
        <ele>892.0</ele>
        <time>2018-08-18T16:05:47Z</time>
      </trkpt>
      <trkpt lat="-28.1722" lon="-65.664615">
        <ele>891.7</ele>
        <time>2018-08-18T16:05:49Z</time>
      </trkpt>
      <trkpt lat="-28.17212" lon="-65.664635">
        <ele>891.3</ele>
        <time>2018-08-18T16:05:51Z</time>
      </trkpt>
      <trkpt lat="-28.17203" lon="-65.664665">
        <ele>890.2</ele>
        <time>2018-08-18T16:05:53Z</time>
      </trkpt>
      <trkpt lat="-28.171955" lon="-65.66468166666667">
        <ele>890.2</ele>
        <time>2018-08-18T16:05:55Z</time>
      </trkpt>
      <trkpt lat="-28.171865" lon="-65.66472">
        <ele>890.2</ele>
        <time>2018-08-18T16:05:58Z</time>
      </trkpt>
      <trkpt lat="-28.17178" lon="-65.664765">
        <ele>890.3</ele>
        <time>2018-08-18T16:06:01Z</time>
      </trkpt>
      <trkpt lat="-28.17169" lon="-65.664815">
        <ele>890.6</ele>
        <time>2018-08-18T16:06:04Z</time>
      </trkpt>
      <trkpt lat="-28.171611666666667" lon="-65.66485">
        <ele>890.9</ele>
        <time>2018-08-18T16:06:06Z</time>
      </trkpt>
      <trkpt lat="-28.17155" lon="-65.664895">
        <ele>891.2</ele>
        <time>2018-08-18T16:06:08Z</time>
      </trkpt>
      <trkpt lat="-28.17148" lon="-65.66494">
        <ele>891.5</ele>
        <time>2018-08-18T16:06:10Z</time>
      </trkpt>
      <trkpt lat="-28.171415" lon="-65.66498">
        <ele>891.9</ele>
        <time>2018-08-18T16:06:12Z</time>
      </trkpt>
      <trkpt lat="-28.17134" lon="-65.665025">
        <ele>892.4</ele>
        <time>2018-08-18T16:06:14Z</time>
      </trkpt>
      <trkpt lat="-28.17127" lon="-65.665065">
        <ele>892.8</ele>
        <time>2018-08-18T16:06:16Z</time>
      </trkpt>
      <trkpt lat="-28.17121" lon="-65.66512">
        <ele>893.4</ele>
        <time>2018-08-18T16:06:18Z</time>
      </trkpt>
      <trkpt lat="-28.171135" lon="-65.66518">
        <ele>893.6</ele>
        <time>2018-08-18T16:06:20Z</time>
      </trkpt>
      <trkpt lat="-28.171055" lon="-65.665255">
        <ele>892.8</ele>
        <time>2018-08-18T16:06:22Z</time>
      </trkpt>
      <trkpt lat="-28.17098" lon="-65.665345">
        <ele>891.1</ele>
        <time>2018-08-18T16:06:24Z</time>
      </trkpt>
      <trkpt lat="-28.1709" lon="-65.66543">
        <ele>889.9</ele>
        <time>2018-08-18T16:06:26Z</time>
      </trkpt>
      <trkpt lat="-28.170835" lon="-65.6655">
        <ele>890.0</ele>
        <time>2018-08-18T16:06:28Z</time>
      </trkpt>
      <trkpt lat="-28.170765" lon="-65.665575">
        <ele>890.6</ele>
        <time>2018-08-18T16:06:30Z</time>
      </trkpt>
      <trkpt lat="-28.170685" lon="-65.66565">
        <ele>891.6</ele>
        <time>2018-08-18T16:06:32Z</time>
      </trkpt>
      <trkpt lat="-28.170605" lon="-65.665685">
        <ele>892.5</ele>
        <time>2018-08-18T16:06:34Z</time>
      </trkpt>
      <trkpt lat="-28.17052" lon="-65.66571833333333">
        <ele>893.3</ele>
        <time>2018-08-18T16:06:36Z</time>
      </trkpt>
      <trkpt lat="-28.17043" lon="-65.66575">
        <ele>894.2</ele>
        <time>2018-08-18T16:06:38Z</time>
      </trkpt>
      <trkpt lat="-28.170325" lon="-65.665785">
        <ele>894.3</ele>
        <time>2018-08-18T16:06:40Z</time>
      </trkpt>
      <trkpt lat="-28.17021" lon="-65.66580666666667">
        <ele>894.0</ele>
        <time>2018-08-18T16:06:42Z</time>
      </trkpt>
      <trkpt lat="-28.170095" lon="-65.665845">
        <ele>893.4</ele>
        <time>2018-08-18T16:06:44Z</time>
      </trkpt>
      <trkpt lat="-28.169985" lon="-65.665875">
        <ele>892.9</ele>
        <time>2018-08-18T16:06:46Z</time>
      </trkpt>
      <trkpt lat="-28.16988" lon="-65.66589166666667">
        <ele>892.9</ele>
        <time>2018-08-18T16:06:48Z</time>
      </trkpt>
      <trkpt lat="-28.16976" lon="-65.665925">
        <ele>893.1</ele>
        <time>2018-08-18T16:06:50Z</time>
      </trkpt>
      <trkpt lat="-28.16964" lon="-65.665955">
        <ele>893.7</ele>
        <time>2018-08-18T16:06:52Z</time>
      </trkpt>
      <trkpt lat="-28.16952" lon="-65.66598666666667">
        <ele>894.0</ele>
        <time>2018-08-18T16:06:54Z</time>
      </trkpt>
      <trkpt lat="-28.16939" lon="-65.66603">
        <ele>893.5</ele>
        <time>2018-08-18T16:06:56Z</time>
      </trkpt>
      <trkpt lat="-28.169255" lon="-65.66607166666667">
        <ele>892.6</ele>
        <time>2018-08-18T16:06:58Z</time>
      </trkpt>
      <trkpt lat="-28.16913" lon="-65.66611166666667">
        <ele>891.7</ele>
        <time>2018-08-18T16:07:00Z</time>
      </trkpt>
      <trkpt lat="-28.169025" lon="-65.66615">
        <ele>891.3</ele>
        <time>2018-08-18T16:07:02Z</time>
      </trkpt>
      <trkpt lat="-28.16893" lon="-65.66618">
        <ele>891.6</ele>
        <time>2018-08-18T16:07:04Z</time>
      </trkpt>
      <trkpt lat="-28.16884" lon="-65.66621">
        <ele>891.6</ele>
        <time>2018-08-18T16:07:06Z</time>
      </trkpt>
      <trkpt lat="-28.168735" lon="-65.66624">
        <ele>891.9</ele>
        <time>2018-08-18T16:07:08Z</time>
      </trkpt>
      <trkpt lat="-28.16864" lon="-65.66626333333333">
        <ele>892.0</ele>
        <time>2018-08-18T16:07:10Z</time>
      </trkpt>
      <trkpt lat="-28.16855" lon="-65.666295">
        <ele>892.2</ele>
        <time>2018-08-18T16:07:12Z</time>
      </trkpt>
      <trkpt lat="-28.168465" lon="-65.666315">
        <ele>892.4</ele>
        <time>2018-08-18T16:07:14Z</time>
      </trkpt>
      <trkpt lat="-28.168385" lon="-65.666335">
        <ele>892.5</ele>
        <time>2018-08-18T16:07:16Z</time>
      </trkpt>
      <trkpt lat="-28.168305" lon="-65.66637">
        <ele>892.5</ele>
        <time>2018-08-18T16:07:18Z</time>
      </trkpt>
      <trkpt lat="-28.168205" lon="-65.666405">
        <ele>893.4</ele>
        <time>2018-08-18T16:07:21Z</time>
      </trkpt>
      <trkpt lat="-28.168125" lon="-65.666425">
        <ele>894.7</ele>
        <time>2018-08-18T16:07:23Z</time>
      </trkpt>
      <trkpt lat="-28.16805" lon="-65.666435">
        <ele>895.3</ele>
        <time>2018-08-18T16:07:25Z</time>
      </trkpt>
      <trkpt lat="-28.167975" lon="-65.66647">
        <ele>895.4</ele>
        <time>2018-08-18T16:07:27Z</time>
      </trkpt>
      <trkpt lat="-28.1679" lon="-65.6665">
        <ele>895.2</ele>
        <time>2018-08-18T16:07:29Z</time>
      </trkpt>
      <trkpt lat="-28.167825" lon="-65.66652">
        <ele>895.3</ele>
        <time>2018-08-18T16:07:31Z</time>
      </trkpt>
      <trkpt lat="-28.16772" lon="-65.66656">
        <ele>895.4</ele>
        <time>2018-08-18T16:07:34Z</time>
      </trkpt>
      <trkpt lat="-28.167645" lon="-65.66657166666667">
        <ele>895.9</ele>
        <time>2018-08-18T16:07:36Z</time>
      </trkpt>
      <trkpt lat="-28.167565" lon="-65.666605">
        <ele>895.9</ele>
        <time>2018-08-18T16:07:38Z</time>
      </trkpt>
      <trkpt lat="-28.167483333333333" lon="-65.66661833333333">
        <ele>896.0</ele>
        <time>2018-08-18T16:07:40Z</time>
      </trkpt>
      <trkpt lat="-28.16739" lon="-65.66664666666667">
        <ele>896.6</ele>
        <time>2018-08-18T16:07:43Z</time>
      </trkpt>
      <trkpt lat="-28.167315" lon="-65.66668">
        <ele>896.9</ele>
        <time>2018-08-18T16:07:45Z</time>
      </trkpt>
      <trkpt lat="-28.167235" lon="-65.6667">
        <ele>896.9</ele>
        <time>2018-08-18T16:07:47Z</time>
      </trkpt>
      <trkpt lat="-28.167165" lon="-65.666725">
        <ele>896.8</ele>
        <time>2018-08-18T16:07:49Z</time>
      </trkpt>
      <trkpt lat="-28.167065" lon="-65.66674833333333">
        <ele>896.8</ele>
        <time>2018-08-18T16:07:52Z</time>
      </trkpt>
      <trkpt lat="-28.16696" lon="-65.666785">
        <ele>896.9</ele>
        <time>2018-08-18T16:07:55Z</time>
      </trkpt>
      <trkpt lat="-28.166875" lon="-65.66681">
        <ele>896.9</ele>
        <time>2018-08-18T16:07:58Z</time>
      </trkpt>
      <trkpt lat="-28.16679" lon="-65.66683166666667">
        <ele>897.0</ele>
        <time>2018-08-18T16:08:01Z</time>
      </trkpt>
      <trkpt lat="-28.166685" lon="-65.666865">
        <ele>897.0</ele>
        <time>2018-08-18T16:08:04Z</time>
      </trkpt>
      <trkpt lat="-28.166605" lon="-65.666895">
        <ele>897.1</ele>
        <time>2018-08-18T16:08:07Z</time>
      </trkpt>
      <trkpt lat="-28.16652" lon="-65.666925">
        <ele>897.1</ele>
        <time>2018-08-18T16:08:10Z</time>
      </trkpt>
      <trkpt lat="-28.166425" lon="-65.66695">
        <ele>897.2</ele>
        <time>2018-08-18T16:08:13Z</time>
      </trkpt>
      <trkpt lat="-28.16634" lon="-65.66697166666667">
        <ele>897.2</ele>
        <time>2018-08-18T16:08:16Z</time>
      </trkpt>
      <trkpt lat="-28.16625" lon="-65.66701">
        <ele>897.3</ele>
        <time>2018-08-18T16:08:19Z</time>
      </trkpt>
      <trkpt lat="-28.166155" lon="-65.667035">
        <ele>897.3</ele>
        <time>2018-08-18T16:08:22Z</time>
      </trkpt>
      <trkpt lat="-28.16608" lon="-65.667055">
        <ele>897.4</ele>
        <time>2018-08-18T16:08:25Z</time>
      </trkpt>
      <trkpt lat="-28.165985" lon="-65.667085">
        <ele>897.6</ele>
        <time>2018-08-18T16:08:28Z</time>
      </trkpt>
      <trkpt lat="-28.16589" lon="-65.66712">
        <ele>897.8</ele>
        <time>2018-08-18T16:08:31Z</time>
      </trkpt>
      <trkpt lat="-28.16582" lon="-65.66714">
        <ele>897.7</ele>
        <time>2018-08-18T16:08:33Z</time>
      </trkpt>
      <trkpt lat="-28.16574" lon="-65.667165">
        <ele>897.8</ele>
        <time>2018-08-18T16:08:36Z</time>
      </trkpt>
      <trkpt lat="-28.165665" lon="-65.667185">
        <ele>898.0</ele>
        <time>2018-08-18T16:08:39Z</time>
      </trkpt>
      <trkpt lat="-28.16558" lon="-65.66719833333333">
        <ele>898.2</ele>
        <time>2018-08-18T16:08:42Z</time>
      </trkpt>
      <trkpt lat="-28.1655" lon="-65.667235">
        <ele>898.3</ele>
        <time>2018-08-18T16:08:45Z</time>
      </trkpt>
      <trkpt lat="-28.165415" lon="-65.66726">
        <ele>898.5</ele>
        <time>2018-08-18T16:08:48Z</time>
      </trkpt>
      <trkpt lat="-28.16531" lon="-65.66728">
        <ele>898.6</ele>
        <time>2018-08-18T16:08:51Z</time>
      </trkpt>
      <trkpt lat="-28.165215" lon="-65.667315">
        <ele>898.7</ele>
        <time>2018-08-18T16:08:54Z</time>
      </trkpt>
      <trkpt lat="-28.16513" lon="-65.667345">
        <ele>898.8</ele>
        <time>2018-08-18T16:08:57Z</time>
      </trkpt>
      <trkpt lat="-28.16504" lon="-65.667375">
        <ele>898.9</ele>
        <time>2018-08-18T16:09:00Z</time>
      </trkpt>
      <trkpt lat="-28.164945" lon="-65.6674">
        <ele>899.1</ele>
        <time>2018-08-18T16:09:03Z</time>
      </trkpt>
      <trkpt lat="-28.16488" lon="-65.66742">
        <ele>899.2</ele>
        <time>2018-08-18T16:09:05Z</time>
      </trkpt>
      <trkpt lat="-28.16478" lon="-65.667445">
        <ele>899.2</ele>
        <time>2018-08-18T16:09:08Z</time>
      </trkpt>
      <trkpt lat="-28.164675" lon="-65.66746833333333">
        <ele>899.2</ele>
        <time>2018-08-18T16:09:11Z</time>
      </trkpt>
      <trkpt lat="-28.164585" lon="-65.667505">
        <ele>899.3</ele>
        <time>2018-08-18T16:09:14Z</time>
      </trkpt>
      <trkpt lat="-28.16448" lon="-65.667545">
        <ele>899.5</ele>
        <time>2018-08-18T16:09:17Z</time>
      </trkpt>
      <trkpt lat="-28.164405" lon="-65.66758">
        <ele>900.1</ele>
        <time>2018-08-18T16:09:19Z</time>
      </trkpt>
      <trkpt lat="-28.164335" lon="-65.667615">
        <ele>900.2</ele>
        <time>2018-08-18T16:09:21Z</time>
      </trkpt>
      <trkpt lat="-28.164265" lon="-65.667655">
        <ele>899.9</ele>
        <time>2018-08-18T16:09:23Z</time>
      </trkpt>
      <trkpt lat="-28.164195" lon="-65.66771">
        <ele>899.4</ele>
        <time>2018-08-18T16:09:25Z</time>
      </trkpt>
      <trkpt lat="-28.16413" lon="-65.66777">
        <ele>898.8</ele>
        <time>2018-08-18T16:09:27Z</time>
      </trkpt>
      <trkpt lat="-28.164065" lon="-65.66782166666667">
        <ele>898.3</ele>
        <time>2018-08-18T16:09:29Z</time>
      </trkpt>
      <trkpt lat="-28.164005" lon="-65.66789">
        <ele>897.4</ele>
        <time>2018-08-18T16:09:31Z</time>
      </trkpt>
      <trkpt lat="-28.16395" lon="-65.667935">
        <ele>897.0</ele>
        <time>2018-08-18T16:09:33Z</time>
      </trkpt>
      <trkpt lat="-28.163885" lon="-65.667995">
        <ele>897.4</ele>
        <time>2018-08-18T16:09:35Z</time>
      </trkpt>
      <trkpt lat="-28.16383" lon="-65.66808">
        <ele>897.6</ele>
        <time>2018-08-18T16:09:37Z</time>
      </trkpt>
      <trkpt lat="-28.16377" lon="-65.668155">
        <ele>898.2</ele>
        <time>2018-08-18T16:09:39Z</time>
      </trkpt>
      <trkpt lat="-28.163725" lon="-65.66822166666667">
        <ele>898.5</ele>
        <time>2018-08-18T16:09:41Z</time>
      </trkpt>
      <trkpt lat="-28.16368" lon="-65.668305">
        <ele>898.0</ele>
        <time>2018-08-18T16:09:43Z</time>
      </trkpt>
      <trkpt lat="-28.163635" lon="-65.668385">
        <ele>897.5</ele>
        <time>2018-08-18T16:09:45Z</time>
      </trkpt>
      <trkpt lat="-28.16358" lon="-65.66847">
        <ele>897.2</ele>
        <time>2018-08-18T16:09:47Z</time>
      </trkpt>
      <trkpt lat="-28.16353" lon="-65.668555">
        <ele>896.3</ele>
        <time>2018-08-18T16:09:49Z</time>
      </trkpt>
      <trkpt lat="-28.163485" lon="-65.66862166666667">
        <ele>896.0</ele>
        <time>2018-08-18T16:09:51Z</time>
      </trkpt>
      <trkpt lat="-28.16343" lon="-65.668705">
        <ele>895.4</ele>
        <time>2018-08-18T16:09:53Z</time>
      </trkpt>
      <trkpt lat="-28.16337" lon="-65.66878">
        <ele>894.8</ele>
        <time>2018-08-18T16:09:55Z</time>
      </trkpt>
      <trkpt lat="-28.163305" lon="-65.66884166666667">
        <ele>894.3</ele>
        <time>2018-08-18T16:09:57Z</time>
      </trkpt>
      <trkpt lat="-28.163235" lon="-65.66892">
        <ele>894.0</ele>
        <time>2018-08-18T16:09:59Z</time>
      </trkpt>
      <trkpt lat="-28.16314" lon="-65.66898">
        <ele>894.6</ele>
        <time>2018-08-18T16:10:02Z</time>
      </trkpt>
      <trkpt lat="-28.163055" lon="-65.669055">
        <ele>894.3</ele>
        <time>2018-08-18T16:10:04Z</time>
      </trkpt>
      <trkpt lat="-28.162975" lon="-65.6691">
        <ele>895.0</ele>
        <time>2018-08-18T16:10:06Z</time>
      </trkpt>
      <trkpt lat="-28.1629" lon="-65.669135">
        <ele>895.8</ele>
        <time>2018-08-18T16:10:08Z</time>
      </trkpt>
      <trkpt lat="-28.16282" lon="-65.669155">
        <ele>895.9</ele>
        <time>2018-08-18T16:10:10Z</time>
      </trkpt>
      <trkpt lat="-28.16273" lon="-65.669155">
        <ele>896.0</ele>
        <time>2018-08-18T16:10:12Z</time>
      </trkpt>
      <trkpt lat="-28.162605" lon="-65.669155">
        <ele>896.4</ele>
        <time>2018-08-18T16:10:14Z</time>
      </trkpt>
      <trkpt lat="-28.16252" lon="-65.669155">
        <ele>896.9</ele>
        <time>2018-08-18T16:10:16Z</time>
      </trkpt>
      <trkpt lat="-28.162415" lon="-65.669145">
        <ele>897.3</ele>
        <time>2018-08-18T16:10:18Z</time>
      </trkpt>
      <trkpt lat="-28.162295" lon="-65.66914">
        <ele>897.5</ele>
        <time>2018-08-18T16:10:20Z</time>
      </trkpt>
      <trkpt lat="-28.16219" lon="-65.66912">
        <ele>897.7</ele>
        <time>2018-08-18T16:10:22Z</time>
      </trkpt>
      <trkpt lat="-28.16207" lon="-65.66912">
        <ele>897.8</ele>
        <time>2018-08-18T16:10:24Z</time>
      </trkpt>
      <trkpt lat="-28.161945" lon="-65.66912">
        <ele>897.9</ele>
        <time>2018-08-18T16:10:26Z</time>
      </trkpt>
      <trkpt lat="-28.16181" lon="-65.66912">
        <ele>897.4</ele>
        <time>2018-08-18T16:10:28Z</time>
      </trkpt>
      <trkpt lat="-28.16169" lon="-65.66912">
        <ele>896.6</ele>
        <time>2018-08-18T16:10:30Z</time>
      </trkpt>
      <trkpt lat="-28.161565" lon="-65.66912">
        <ele>896.2</ele>
        <time>2018-08-18T16:10:32Z</time>
      </trkpt>
      <trkpt lat="-28.16143" lon="-65.66912">
        <ele>895.9</ele>
        <time>2018-08-18T16:10:34Z</time>
      </trkpt>
      <trkpt lat="-28.161295" lon="-65.66912">
        <ele>895.1</ele>
        <time>2018-08-18T16:10:36Z</time>
      </trkpt>
      <trkpt lat="-28.161175" lon="-65.66912">
        <ele>894.4</ele>
        <time>2018-08-18T16:10:38Z</time>
      </trkpt>
      <trkpt lat="-28.161035" lon="-65.66912">
        <ele>893.9</ele>
        <time>2018-08-18T16:10:40Z</time>
      </trkpt>
      <trkpt lat="-28.16092" lon="-65.66912">
        <ele>893.9</ele>
        <time>2018-08-18T16:10:42Z</time>
      </trkpt>
      <trkpt lat="-28.160805" lon="-65.66912">
        <ele>894.1</ele>
        <time>2018-08-18T16:10:44Z</time>
      </trkpt>
      <trkpt lat="-28.16067" lon="-65.66912">
        <ele>894.5</ele>
        <time>2018-08-18T16:10:46Z</time>
      </trkpt>
      <trkpt lat="-28.16054" lon="-65.66912">
        <ele>894.5</ele>
        <time>2018-08-18T16:10:48Z</time>
      </trkpt>
      <trkpt lat="-28.160435" lon="-65.66912">
        <ele>893.9</ele>
        <time>2018-08-18T16:10:50Z</time>
      </trkpt>
      <trkpt lat="-28.160325" lon="-65.66912">
        <ele>893.8</ele>
        <time>2018-08-18T16:10:52Z</time>
      </trkpt>
      <trkpt lat="-28.16021" lon="-65.66911">
        <ele>893.5</ele>
        <time>2018-08-18T16:10:54Z</time>
      </trkpt>
      <trkpt lat="-28.160095" lon="-65.66911">
        <ele>893.5</ele>
        <time>2018-08-18T16:10:56Z</time>
      </trkpt>
      <trkpt lat="-28.159995" lon="-65.66911">
        <ele>893.6</ele>
        <time>2018-08-18T16:10:58Z</time>
      </trkpt>
      <trkpt lat="-28.15989" lon="-65.66912">
        <ele>893.1</ele>
        <time>2018-08-18T16:11:00Z</time>
      </trkpt>
      <trkpt lat="-28.159775" lon="-65.66911">
        <ele>893.0</ele>
        <time>2018-08-18T16:11:02Z</time>
      </trkpt>
      <trkpt lat="-28.15966" lon="-65.66911">
        <ele>892.9</ele>
        <time>2018-08-18T16:11:04Z</time>
      </trkpt>
      <trkpt lat="-28.159565" lon="-65.66911">
        <ele>892.8</ele>
        <time>2018-08-18T16:11:06Z</time>
      </trkpt>
      <trkpt lat="-28.159485" lon="-65.669105">
        <ele>893.8</ele>
        <time>2018-08-18T16:11:08Z</time>
      </trkpt>
      <trkpt lat="-28.15939" lon="-65.6691">
        <ele>894.9</ele>
        <time>2018-08-18T16:11:10Z</time>
      </trkpt>
      <trkpt lat="-28.159285" lon="-65.6691">
        <ele>894.8</ele>
        <time>2018-08-18T16:11:12Z</time>
      </trkpt>
      <trkpt lat="-28.159195" lon="-65.6691">
        <ele>894.8</ele>
        <time>2018-08-18T16:11:14Z</time>
      </trkpt>
      <trkpt lat="-28.15908" lon="-65.66909">
        <ele>895.8</ele>
        <time>2018-08-18T16:11:16Z</time>
      </trkpt>
      <trkpt lat="-28.158985" lon="-65.66909">
        <ele>896.3</ele>
        <time>2018-08-18T16:11:18Z</time>
      </trkpt>
      <trkpt lat="-28.15887" lon="-65.66909">
        <ele>896.7</ele>
        <time>2018-08-18T16:11:20Z</time>
      </trkpt>
      <trkpt lat="-28.15875" lon="-65.6691">
        <ele>896.8</ele>
        <time>2018-08-18T16:11:22Z</time>
      </trkpt>
      <trkpt lat="-28.158635" lon="-65.669105">
        <ele>896.8</ele>
        <time>2018-08-18T16:11:24Z</time>
      </trkpt>
      <trkpt lat="-28.158525" lon="-65.669105">
        <ele>896.7</ele>
        <time>2018-08-18T16:11:26Z</time>
      </trkpt>
      <trkpt lat="-28.158426666666667" lon="-65.6691">
        <ele>896.7</ele>
        <time>2018-08-18T16:11:28Z</time>
      </trkpt>
      <trkpt lat="-28.158335" lon="-65.66909">
        <ele>896.8</ele>
        <time>2018-08-18T16:11:30Z</time>
      </trkpt>
      <trkpt lat="-28.158235" lon="-65.66909">
        <ele>896.8</ele>
        <time>2018-08-18T16:11:32Z</time>
      </trkpt>
      <trkpt lat="-28.15813" lon="-65.6691">
        <ele>896.2</ele>
        <time>2018-08-18T16:11:34Z</time>
      </trkpt>
      <trkpt lat="-28.158035" lon="-65.669105">
        <ele>895.9</ele>
        <time>2018-08-18T16:11:36Z</time>
      </trkpt>
      <trkpt lat="-28.157925" lon="-65.669105">
        <ele>895.7</ele>
        <time>2018-08-18T16:11:38Z</time>
      </trkpt>
      <trkpt lat="-28.15782" lon="-65.6691">
        <ele>895.5</ele>
        <time>2018-08-18T16:11:40Z</time>
      </trkpt>
      <trkpt lat="-28.15773" lon="-65.6691">
        <ele>895.5</ele>
        <time>2018-08-18T16:11:42Z</time>
      </trkpt>
      <trkpt lat="-28.15763" lon="-65.66909">
        <ele>895.4</ele>
        <time>2018-08-18T16:11:44Z</time>
      </trkpt>
      <trkpt lat="-28.157545" lon="-65.66909">
        <ele>895.7</ele>
        <time>2018-08-18T16:11:46Z</time>
      </trkpt>
      <trkpt lat="-28.15746" lon="-65.66909">
        <ele>896.1</ele>
        <time>2018-08-18T16:11:48Z</time>
      </trkpt>
      <trkpt lat="-28.157385" lon="-65.66909">
        <ele>895.8</ele>
        <time>2018-08-18T16:11:50Z</time>
      </trkpt>
      <trkpt lat="-28.1573" lon="-65.66909">
        <ele>895.1</ele>
        <time>2018-08-18T16:11:52Z</time>
      </trkpt>
      <trkpt lat="-28.157225" lon="-65.66907833333333">
        <ele>895.1</ele>
        <time>2018-08-18T16:11:54Z</time>
      </trkpt>
      <trkpt lat="-28.15714" lon="-65.669075">
        <ele>895.5</ele>
        <time>2018-08-18T16:11:56Z</time>
      </trkpt>
      <trkpt lat="-28.157055" lon="-65.669075">
        <ele>896.1</ele>
        <time>2018-08-18T16:11:58Z</time>
      </trkpt>
      <trkpt lat="-28.15697" lon="-65.66907833333333">
        <ele>896.9</ele>
        <time>2018-08-18T16:12:00Z</time>
      </trkpt>
      <trkpt lat="-28.156875" lon="-65.66907333333333">
        <ele>896.9</ele>
        <time>2018-08-18T16:12:02Z</time>
      </trkpt>
      <trkpt lat="-28.156765" lon="-65.66907166666667">
        <ele>896.3</ele>
        <time>2018-08-18T16:12:04Z</time>
      </trkpt>
      <trkpt lat="-28.15667" lon="-65.66907">
        <ele>896.3</ele>
        <time>2018-08-18T16:12:06Z</time>
      </trkpt>
      <trkpt lat="-28.156575" lon="-65.669065">
        <ele>896.9</ele>
        <time>2018-08-18T16:12:08Z</time>
      </trkpt>
      <trkpt lat="-28.15648" lon="-65.669065">
        <ele>897.8</ele>
        <time>2018-08-18T16:12:10Z</time>
      </trkpt>
      <trkpt lat="-28.156375" lon="-65.66905">
        <ele>898.6</ele>
        <time>2018-08-18T16:12:12Z</time>
      </trkpt>
      <trkpt lat="-28.156265" lon="-65.669025">
        <ele>898.7</ele>
        <time>2018-08-18T16:12:14Z</time>
      </trkpt>
      <trkpt lat="-28.156155" lon="-65.66898">
        <ele>898.6</ele>
        <time>2018-08-18T16:12:16Z</time>
      </trkpt>
      <trkpt lat="-28.156035" lon="-65.66893">
        <ele>898.3</ele>
        <time>2018-08-18T16:12:18Z</time>
      </trkpt>
      <trkpt lat="-28.15592" lon="-65.668865">
        <ele>897.8</ele>
        <time>2018-08-18T16:12:20Z</time>
      </trkpt>
      <trkpt lat="-28.155795" lon="-65.6688">
        <ele>897.1</ele>
        <time>2018-08-18T16:12:22Z</time>
      </trkpt>
      <trkpt lat="-28.155695" lon="-65.668755">
        <ele>896.4</ele>
        <time>2018-08-18T16:12:24Z</time>
      </trkpt>
      <trkpt lat="-28.15559" lon="-65.668705">
        <ele>895.8</ele>
        <time>2018-08-18T16:12:26Z</time>
      </trkpt>
      <trkpt lat="-28.1555" lon="-65.66866">
        <ele>895.4</ele>
        <time>2018-08-18T16:12:28Z</time>
      </trkpt>
      <trkpt lat="-28.15542" lon="-65.66861">
        <ele>895.3</ele>
        <time>2018-08-18T16:12:30Z</time>
      </trkpt>
      <trkpt lat="-28.15534" lon="-65.668575">
        <ele>895.8</ele>
        <time>2018-08-18T16:12:32Z</time>
      </trkpt>
      <trkpt lat="-28.15526" lon="-65.66853">
        <ele>896.6</ele>
        <time>2018-08-18T16:12:34Z</time>
      </trkpt>
      <trkpt lat="-28.155175" lon="-65.66849">
        <ele>897.0</ele>
        <time>2018-08-18T16:12:36Z</time>
      </trkpt>
      <trkpt lat="-28.155105" lon="-65.66844666666667">
        <ele>897.1</ele>
        <time>2018-08-18T16:12:38Z</time>
      </trkpt>
      <trkpt lat="-28.15502" lon="-65.66840666666667">
        <ele>897.3</ele>
        <time>2018-08-18T16:12:40Z</time>
      </trkpt>
      <trkpt lat="-28.154925" lon="-65.668375">
        <ele>897.4</ele>
        <time>2018-08-18T16:12:42Z</time>
      </trkpt>
      <trkpt lat="-28.15483" lon="-65.66833">
        <ele>897.7</ele>
        <time>2018-08-18T16:12:44Z</time>
      </trkpt>
      <trkpt lat="-28.154745" lon="-65.668285">
        <ele>897.5</ele>
        <time>2018-08-18T16:12:46Z</time>
      </trkpt>
      <trkpt lat="-28.154665" lon="-65.66822666666667">
        <ele>896.2</ele>
        <time>2018-08-18T16:12:48Z</time>
      </trkpt>
      <trkpt lat="-28.15459" lon="-65.66817">
        <ele>894.6</ele>
        <time>2018-08-18T16:12:50Z</time>
      </trkpt>
      <trkpt lat="-28.154465" lon="-65.66804">
        <ele>892.8</ele>
        <time>2018-08-18T16:12:53Z</time>
      </trkpt>
      <trkpt lat="-28.15441" lon="-65.667955">
        <ele>890.8</ele>
        <time>2018-08-18T16:12:55Z</time>
      </trkpt>
      <trkpt lat="-28.154355" lon="-65.66788">
        <ele>889.9</ele>
        <time>2018-08-18T16:12:57Z</time>
      </trkpt>
      <trkpt lat="-28.154295" lon="-65.66777">
        <ele>890.5</ele>
        <time>2018-08-18T16:12:59Z</time>
      </trkpt>
      <trkpt lat="-28.154255" lon="-65.667675">
        <ele>891.7</ele>
        <time>2018-08-18T16:13:01Z</time>
      </trkpt>
      <trkpt lat="-28.154225" lon="-65.66755">
        <ele>893.8</ele>
        <time>2018-08-18T16:13:03Z</time>
      </trkpt>
      <trkpt lat="-28.154205" lon="-65.667445">
        <ele>895.8</ele>
        <time>2018-08-18T16:13:05Z</time>
      </trkpt>
      <trkpt lat="-28.154185" lon="-65.667345">
        <ele>897.3</ele>
        <time>2018-08-18T16:13:07Z</time>
      </trkpt>
      <trkpt lat="-28.15417" lon="-65.667235">
        <ele>898.3</ele>
        <time>2018-08-18T16:13:09Z</time>
      </trkpt>
      <trkpt lat="-28.154155" lon="-65.667135">
        <ele>898.4</ele>
        <time>2018-08-18T16:13:11Z</time>
      </trkpt>
      <trkpt lat="-28.15414" lon="-65.66701">
        <ele>898.3</ele>
        <time>2018-08-18T16:13:13Z</time>
      </trkpt>
      <trkpt lat="-28.15413" lon="-65.666925">
        <ele>899.1</ele>
        <time>2018-08-18T16:13:15Z</time>
      </trkpt>
      <trkpt lat="-28.15412" lon="-65.66683">
        <ele>899.2</ele>
        <time>2018-08-18T16:13:17Z</time>
      </trkpt>
      <trkpt lat="-28.154105" lon="-65.666745">
        <ele>898.8</ele>
        <time>2018-08-18T16:13:19Z</time>
      </trkpt>
      <trkpt lat="-28.154095" lon="-65.66664">
        <ele>898.2</ele>
        <time>2018-08-18T16:13:21Z</time>
      </trkpt>
      <trkpt lat="-28.15407" lon="-65.666545">
        <ele>898.0</ele>
        <time>2018-08-18T16:13:23Z</time>
      </trkpt>
      <trkpt lat="-28.154065" lon="-65.66646">
        <ele>897.8</ele>
        <time>2018-08-18T16:13:25Z</time>
      </trkpt>
      <trkpt lat="-28.15405" lon="-65.66634666666667">
        <ele>898.3</ele>
        <time>2018-08-18T16:13:27Z</time>
      </trkpt>
      <trkpt lat="-28.154045" lon="-65.66625">
        <ele>899.2</ele>
        <time>2018-08-18T16:13:29Z</time>
      </trkpt>
      <trkpt lat="-28.154035" lon="-65.66615">
        <ele>899.7</ele>
        <time>2018-08-18T16:13:31Z</time>
      </trkpt>
      <trkpt lat="-28.154025" lon="-65.666025">
        <ele>899.6</ele>
        <time>2018-08-18T16:13:33Z</time>
      </trkpt>
      <trkpt lat="-28.154015" lon="-65.66593">
        <ele>899.2</ele>
        <time>2018-08-18T16:13:35Z</time>
      </trkpt>
      <trkpt lat="-28.153995" lon="-65.66581166666667">
        <ele>899.0</ele>
        <time>2018-08-18T16:13:37Z</time>
      </trkpt>
      <trkpt lat="-28.153975" lon="-65.665705">
        <ele>899.1</ele>
        <time>2018-08-18T16:13:39Z</time>
      </trkpt>
      <trkpt lat="-28.153955" lon="-65.665575">
        <ele>898.9</ele>
        <time>2018-08-18T16:13:41Z</time>
      </trkpt>
      <trkpt lat="-28.15393" lon="-65.665475">
        <ele>898.9</ele>
        <time>2018-08-18T16:13:43Z</time>
      </trkpt>
      <trkpt lat="-28.15392" lon="-65.66535666666667">
        <ele>897.5</ele>
        <time>2018-08-18T16:13:45Z</time>
      </trkpt>
      <trkpt lat="-28.15391" lon="-65.665255">
        <ele>897.6</ele>
        <time>2018-08-18T16:13:47Z</time>
      </trkpt>
      <trkpt lat="-28.153905" lon="-65.66517">
        <ele>897.7</ele>
        <time>2018-08-18T16:13:49Z</time>
      </trkpt>
      <trkpt lat="-28.1539" lon="-65.665085">
        <ele>897.9</ele>
        <time>2018-08-18T16:13:51Z</time>
      </trkpt>
      <trkpt lat="-28.153881666666667" lon="-65.66498">
        <ele>898.2</ele>
        <time>2018-08-18T16:13:54Z</time>
      </trkpt>
      <trkpt lat="-28.15388" lon="-65.66486">
        <ele>898.6</ele>
        <time>2018-08-18T16:13:57Z</time>
      </trkpt>
      <trkpt lat="-28.153875" lon="-65.664765">
        <ele>898.9</ele>
        <time>2018-08-18T16:14:00Z</time>
      </trkpt>
      <trkpt lat="-28.153865" lon="-65.664635">
        <ele>899.2</ele>
        <time>2018-08-18T16:14:03Z</time>
      </trkpt>
      <trkpt lat="-28.153855" lon="-65.664545">
        <ele>899.6</ele>
        <time>2018-08-18T16:14:06Z</time>
      </trkpt>
      <trkpt lat="-28.15384" lon="-65.664445">
        <ele>900.0</ele>
        <time>2018-08-18T16:14:09Z</time>
      </trkpt>
      <trkpt lat="-28.15384" lon="-65.664345">
        <ele>900.6</ele>
        <time>2018-08-18T16:14:13Z</time>
      </trkpt>
      <trkpt lat="-28.153845" lon="-65.66426">
        <ele>901.1</ele>
        <time>2018-08-18T16:14:16Z</time>
      </trkpt>
      <trkpt lat="-28.153845" lon="-65.664165">
        <ele>901.7</ele>
        <time>2018-08-18T16:14:20Z</time>
      </trkpt>
      <trkpt lat="-28.153845" lon="-65.66406333333333">
        <ele>902.2</ele>
        <time>2018-08-18T16:14:24Z</time>
      </trkpt>
      <trkpt lat="-28.15384" lon="-65.66397">
        <ele>902.7</ele>
        <time>2018-08-18T16:14:28Z</time>
      </trkpt>
      <trkpt lat="-28.15384" lon="-65.663875">
        <ele>903.0</ele>
        <time>2018-08-18T16:14:31Z</time>
      </trkpt>
      <trkpt lat="-28.153835" lon="-65.66379">
        <ele>903.1</ele>
        <time>2018-08-18T16:14:34Z</time>
      </trkpt>
      <trkpt lat="-28.15383" lon="-65.663685">
        <ele>903.1</ele>
        <time>2018-08-18T16:14:38Z</time>
      </trkpt>
      <trkpt lat="-28.153835" lon="-65.663595">
        <ele>903.2</ele>
        <time>2018-08-18T16:14:42Z</time>
      </trkpt>
      <trkpt lat="-28.15384" lon="-65.66348333333333">
        <ele>903.6</ele>
        <time>2018-08-18T16:14:46Z</time>
      </trkpt>
      <trkpt lat="-28.153835" lon="-65.66338">
        <ele>904.1</ele>
        <time>2018-08-18T16:14:50Z</time>
      </trkpt>
      <trkpt lat="-28.15384" lon="-65.66328">
        <ele>904.6</ele>
        <time>2018-08-18T16:14:54Z</time>
      </trkpt>
      <trkpt lat="-28.153845" lon="-65.66318">
        <ele>905.2</ele>
        <time>2018-08-18T16:14:58Z</time>
      </trkpt>
      <trkpt lat="-28.153845" lon="-65.663095">
        <ele>905.5</ele>
        <time>2018-08-18T16:15:01Z</time>
      </trkpt>
      <trkpt lat="-28.15384" lon="-65.663">
        <ele>905.7</ele>
        <time>2018-08-18T16:15:04Z</time>
      </trkpt>
      <trkpt lat="-28.153845" lon="-65.66289166666667">
        <ele>906.0</ele>
        <time>2018-08-18T16:15:07Z</time>
      </trkpt>
      <trkpt lat="-28.15384" lon="-65.662785">
        <ele>906.3</ele>
        <time>2018-08-18T16:15:10Z</time>
      </trkpt>
      <trkpt lat="-28.153845" lon="-65.662695">
        <ele>906.7</ele>
        <time>2018-08-18T16:15:13Z</time>
      </trkpt>
      <trkpt lat="-28.15386" lon="-65.662615">
        <ele>906.9</ele>
        <time>2018-08-18T16:15:15Z</time>
      </trkpt>
      <trkpt lat="-28.153875" lon="-65.66253">
        <ele>907.1</ele>
        <time>2018-08-18T16:15:17Z</time>
      </trkpt>
      <trkpt lat="-28.153895" lon="-65.66245">
        <ele>908.4</ele>
        <time>2018-08-18T16:15:19Z</time>
      </trkpt>
      <trkpt lat="-28.15392" lon="-65.66235666666667">
        <ele>909.9</ele>
        <time>2018-08-18T16:15:21Z</time>
      </trkpt>
      <trkpt lat="-28.153955" lon="-65.66227333333333">
        <ele>910.7</ele>
        <time>2018-08-18T16:15:23Z</time>
      </trkpt>
      <trkpt lat="-28.154" lon="-65.662195">
        <ele>911.0</ele>
        <time>2018-08-18T16:15:25Z</time>
      </trkpt>
      <trkpt lat="-28.15406" lon="-65.66211">
        <ele>911.5</ele>
        <time>2018-08-18T16:15:27Z</time>
      </trkpt>
      <trkpt lat="-28.154105" lon="-65.662045">
        <ele>912.1</ele>
        <time>2018-08-18T16:15:29Z</time>
      </trkpt>
      <trkpt lat="-28.154155" lon="-65.661955">
        <ele>911.8</ele>
        <time>2018-08-18T16:15:31Z</time>
      </trkpt>
      <trkpt lat="-28.15421" lon="-65.661845">
        <ele>911.5</ele>
        <time>2018-08-18T16:15:33Z</time>
      </trkpt>
      <trkpt lat="-28.154235" lon="-65.661725">
        <ele>911.1</ele>
        <time>2018-08-18T16:15:35Z</time>
      </trkpt>
      <trkpt lat="-28.154245" lon="-65.66162">
        <ele>910.3</ele>
        <time>2018-08-18T16:15:37Z</time>
      </trkpt>
      <trkpt lat="-28.154235" lon="-65.66151166666667">
        <ele>909.5</ele>
        <time>2018-08-18T16:15:39Z</time>
      </trkpt>
      <trkpt lat="-28.154225" lon="-65.66142333333333">
        <ele>909.2</ele>
        <time>2018-08-18T16:15:41Z</time>
      </trkpt>
      <trkpt lat="-28.15421" lon="-65.661335">
        <ele>909.1</ele>
        <time>2018-08-18T16:15:43Z</time>
      </trkpt>
      <trkpt lat="-28.1542" lon="-65.661255">
        <ele>909.0</ele>
        <time>2018-08-18T16:15:45Z</time>
      </trkpt>
      <trkpt lat="-28.154185" lon="-65.66117">
        <ele>908.7</ele>
        <time>2018-08-18T16:15:47Z</time>
      </trkpt>
      <trkpt lat="-28.154165" lon="-65.66106">
        <ele>908.7</ele>
        <time>2018-08-18T16:15:50Z</time>
      </trkpt>
      <trkpt lat="-28.154155" lon="-65.66097166666667">
        <ele>908.9</ele>
        <time>2018-08-18T16:15:52Z</time>
      </trkpt>
      <trkpt lat="-28.154145" lon="-65.660875">
        <ele>909.0</ele>
        <time>2018-08-18T16:15:55Z</time>
      </trkpt>
      <trkpt lat="-28.15413" lon="-65.66074666666667">
        <ele>909.0</ele>
        <time>2018-08-18T16:15:58Z</time>
      </trkpt>
      <trkpt lat="-28.15411" lon="-65.66066000000001">
        <ele>909.0</ele>
        <time>2018-08-18T16:16:00Z</time>
      </trkpt>
      <trkpt lat="-28.154105" lon="-65.660575">
        <ele>909.0</ele>
        <time>2018-08-18T16:16:02Z</time>
      </trkpt>
      <trkpt lat="-28.15409" lon="-65.660495">
        <ele>909.0</ele>
        <time>2018-08-18T16:16:04Z</time>
      </trkpt>
      <trkpt lat="-28.15407" lon="-65.66038">
        <ele>909.0</ele>
        <time>2018-08-18T16:16:07Z</time>
      </trkpt>
      <trkpt lat="-28.154055" lon="-65.66029">
        <ele>908.9</ele>
        <time>2018-08-18T16:16:10Z</time>
      </trkpt>
      <trkpt lat="-28.15405" lon="-65.660195">
        <ele>909.1</ele>
        <time>2018-08-18T16:16:13Z</time>
      </trkpt>
      <trkpt lat="-28.15408" lon="-65.660075">
        <ele>909.4</ele>
        <time>2018-08-18T16:16:16Z</time>
      </trkpt>
      <trkpt lat="-28.154145" lon="-65.66003">
        <ele>909.6</ele>
        <time>2018-08-18T16:16:19Z</time>
      </trkpt>
      <trkpt lat="-28.154225" lon="-65.66">
        <ele>909.6</ele>
        <time>2018-08-18T16:16:23Z</time>
      </trkpt>
      <trkpt lat="-28.154295" lon="-65.65997666666667">
        <ele>909.7</ele>
        <time>2018-08-18T16:16:27Z</time>
      </trkpt>
      <trkpt lat="-28.15438" lon="-65.659965">
        <ele>909.6</ele>
        <time>2018-08-18T16:16:31Z</time>
      </trkpt>
      <trkpt lat="-28.1544" lon="-65.659935">
        <ele>909.8</ele>
        <time>2018-08-18T16:16:38Z</time>
      </trkpt>
      <trkpt lat="-28.1544" lon="-65.659935">
        <ele>909.8</ele>
        <time>2018-08-18T16:16:41Z</time>
      </trkpt>
      <trkpt lat="-28.15448" lon="-65.65989166666667">
        <ele>910.5</ele>
        <time>2018-08-18T16:17:20Z</time>
      </trkpt>
      <trkpt lat="-28.15451" lon="-65.65989">
        <ele>910.5</ele>
        <time>2018-08-18T16:17:27Z</time>
      </trkpt>
      <trkpt lat="-28.15451" lon="-65.65988">
        <ele>909.4</ele>
        <time>2018-08-18T16:17:37Z</time>
      </trkpt>
      <trkpt lat="-28.154505" lon="-65.65988">
        <ele>909.4</ele>
        <time>2018-08-18T16:17:38Z</time>
      </trkpt>
      <trkpt lat="-28.15447" lon="-65.65987">
        <ele>908.8</ele>
        <time>2018-08-18T16:17:46Z</time>
      </trkpt>
      <trkpt lat="-28.15447" lon="-65.65987">
        <ele>908.8</ele>
        <time>2018-08-18T16:17:47Z</time>
      </trkpt>
      <trkpt lat="-28.154486666666667" lon="-65.659885">
        <ele>908.6</ele>
        <time>2018-08-18T16:18:00Z</time>
      </trkpt>
      <trkpt lat="-28.1545" lon="-65.65989">
        <ele>908.6</ele>
        <time>2018-08-18T16:18:01Z</time>
      </trkpt>
      <trkpt lat="-28.154505" lon="-65.65989666666667">
        <ele>908.2</ele>
        <time>2018-08-18T16:18:10Z</time>
      </trkpt>
      <trkpt lat="-28.154505" lon="-65.65989833333333">
        <ele>908.2</ele>
        <time>2018-08-18T16:18:11Z</time>
      </trkpt>
      <trkpt lat="-28.15447" lon="-65.65989833333333">
        <ele>908.1</ele>
        <time>2018-08-18T16:18:20Z</time>
      </trkpt>
      <trkpt lat="-28.154465" lon="-65.65989666666667">
        <ele>908.1</ele>
        <time>2018-08-18T16:18:21Z</time>
      </trkpt>
      <trkpt lat="-28.15445" lon="-65.65988">
        <ele>908.5</ele>
        <time>2018-08-18T16:18:29Z</time>
      </trkpt>
      <trkpt lat="-28.15445" lon="-65.65988">
        <ele>908.6</ele>
        <time>2018-08-18T16:18:30Z</time>
      </trkpt>
      <trkpt lat="-28.15455" lon="-65.65987">
        <ele>908.9</ele>
        <time>2018-08-18T16:18:33Z</time>
      </trkpt>
      <trkpt lat="-28.154625" lon="-65.659875">
        <ele>908.9</ele>
        <time>2018-08-18T16:18:35Z</time>
      </trkpt>
      <trkpt lat="-28.1547" lon="-65.65987">
        <ele>908.9</ele>
        <time>2018-08-18T16:18:37Z</time>
      </trkpt>
      <trkpt lat="-28.154795" lon="-65.65984">
        <ele>908.9</ele>
        <time>2018-08-18T16:18:40Z</time>
      </trkpt>
      <trkpt lat="-28.154855" lon="-65.659765">
        <ele>909.3</ele>
        <time>2018-08-18T16:18:42Z</time>
      </trkpt>
      <trkpt lat="-28.15488" lon="-65.659665">
        <ele>908.9</ele>
        <time>2018-08-18T16:18:44Z</time>
      </trkpt>
      <trkpt lat="-28.1549" lon="-65.659575">
        <ele>908.9</ele>
        <time>2018-08-18T16:18:46Z</time>
      </trkpt>
      <trkpt lat="-28.154905" lon="-65.659485">
        <ele>909.7</ele>
        <time>2018-08-18T16:18:48Z</time>
      </trkpt>
      <trkpt lat="-28.154915" lon="-65.65938">
        <ele>910.2</ele>
        <time>2018-08-18T16:18:50Z</time>
      </trkpt>
      <trkpt lat="-28.154915" lon="-65.659295">
        <ele>910.4</ele>
        <time>2018-08-18T16:18:52Z</time>
      </trkpt>
      <trkpt lat="-28.154925" lon="-65.65921">
        <ele>910.4</ele>
        <time>2018-08-18T16:18:54Z</time>
      </trkpt>
      <trkpt lat="-28.15495" lon="-65.65911">
        <ele>910.4</ele>
        <time>2018-08-18T16:18:57Z</time>
      </trkpt>
      <trkpt lat="-28.15501" lon="-65.659045">
        <ele>910.0</ele>
        <time>2018-08-18T16:19:03Z</time>
      </trkpt>
      <trkpt lat="-28.15502" lon="-65.659015">
        <ele>909.4</ele>
        <time>2018-08-18T16:19:10Z</time>
      </trkpt>
      <trkpt lat="-28.15503" lon="-65.658985">
        <ele>908.8</ele>
        <time>2018-08-18T16:19:18Z</time>
      </trkpt>
      <trkpt lat="-28.15503" lon="-65.658985">
        <ele>908.8</ele>
        <time>2018-08-18T16:19:19Z</time>
      </trkpt>
      <trkpt lat="-28.15503" lon="-65.65898">
        <ele>909.1</ele>
        <time>2018-08-18T16:19:28Z</time>
      </trkpt>
      <trkpt lat="-28.155035" lon="-65.65898">
        <ele>908.9</ele>
        <time>2018-08-18T16:19:29Z</time>
      </trkpt>
      <trkpt lat="-28.15502" lon="-65.658985">
        <ele>908.4</ele>
        <time>2018-08-18T16:19:40Z</time>
      </trkpt>
      <trkpt lat="-28.155015" lon="-65.658985">
        <ele>908.5</ele>
        <time>2018-08-18T16:19:41Z</time>
      </trkpt>
      <trkpt lat="-28.15501" lon="-65.659015">
        <ele>909.4</ele>
        <time>2018-08-18T16:19:49Z</time>
      </trkpt>
      <trkpt lat="-28.15501" lon="-65.659015">
        <ele>909.3</ele>
        <time>2018-08-18T16:19:50Z</time>
      </trkpt>
      <trkpt lat="-28.154475" lon="-65.65985">
        <ele>894.8</ele>
        <time>2018-08-18T20:38:05Z</time>
      </trkpt>
      <trkpt lat="-28.154475" lon="-65.65985">
        <ele>894.8</ele>
        <time>2018-08-18T20:38:14Z</time>
      </trkpt>
      <trkpt lat="-28.15447" lon="-65.659795">
        <ele>877.9</ele>
        <time>2018-08-18T20:38:21Z</time>
      </trkpt>
      <trkpt lat="-28.15447" lon="-65.659795">
        <ele>894.8</ele>
        <time>2018-08-18T20:38:26Z</time>
      </trkpt>
      <trkpt lat="-28.154425" lon="-65.659755">
        <ele>897.1</ele>
        <time>2018-08-18T20:38:33Z</time>
      </trkpt>
      <trkpt lat="-28.154425" lon="-65.659755">
        <ele>897.1</ele>
        <time>2018-08-18T20:38:34Z</time>
      </trkpt>
      <trkpt lat="-28.154525" lon="-65.65985">
        <ele>903.1</ele>
        <time>2018-08-18T20:41:31Z</time>
      </trkpt>
      <trkpt lat="-28.1546" lon="-65.65985">
        <ele>903.9</ele>
        <time>2018-08-18T20:41:35Z</time>
      </trkpt>
      <trkpt lat="-28.154675" lon="-65.65982">
        <ele>904.3</ele>
        <time>2018-08-18T20:41:38Z</time>
      </trkpt>
      <trkpt lat="-28.154675" lon="-65.65971">
        <ele>904.4</ele>
        <time>2018-08-18T20:41:42Z</time>
      </trkpt>
      <trkpt lat="-28.1546" lon="-65.659645">
        <ele>904.4</ele>
        <time>2018-08-18T20:41:46Z</time>
      </trkpt>
      <trkpt lat="-28.154535" lon="-65.65958">
        <ele>904.5</ele>
        <time>2018-08-18T20:41:49Z</time>
      </trkpt>
      <trkpt lat="-28.154485" lon="-65.65953">
        <ele>904.6</ele>
        <time>2018-08-18T20:41:52Z</time>
      </trkpt>
      <trkpt lat="-28.154415" lon="-65.659485">
        <ele>904.8</ele>
        <time>2018-08-18T20:41:57Z</time>
      </trkpt>
      <trkpt lat="-28.15438" lon="-65.65958">
        <ele>904.7</ele>
        <time>2018-08-18T20:42:02Z</time>
      </trkpt>
      <trkpt lat="-28.15439" lon="-65.659665">
        <ele>904.7</ele>
        <time>2018-08-18T20:42:06Z</time>
      </trkpt>
      <trkpt lat="-28.15441" lon="-65.659745">
        <ele>904.8</ele>
        <time>2018-08-18T20:42:13Z</time>
      </trkpt>
      <trkpt lat="-28.154415" lon="-65.659805">
        <ele>905.2</ele>
        <time>2018-08-18T20:42:20Z</time>
      </trkpt>
      <trkpt lat="-28.154435" lon="-65.659795">
        <ele>905.4</ele>
        <time>2018-08-18T20:42:24Z</time>
      </trkpt>
      <trkpt lat="-28.15443" lon="-65.659805">
        <ele>904.9</ele>
        <time>2018-08-18T20:42:33Z</time>
      </trkpt>
      <trkpt lat="-28.15443" lon="-65.659805">
        <ele>904.9</ele>
        <time>2018-08-18T20:42:34Z</time>
      </trkpt>
      <trkpt lat="-28.15445" lon="-65.659755">
        <ele>904.7</ele>
        <time>2018-08-18T20:42:46Z</time>
      </trkpt>
      <trkpt lat="-28.15445" lon="-65.659755">
        <ele>904.7</ele>
        <time>2018-08-18T20:42:47Z</time>
      </trkpt>
      <trkpt lat="-28.15443" lon="-65.659755">
        <ele>903.9</ele>
        <time>2018-08-18T20:43:00Z</time>
      </trkpt>
      <trkpt lat="-28.154435" lon="-65.659755">
        <ele>903.9</ele>
        <time>2018-08-18T20:43:01Z</time>
      </trkpt>
      <trkpt lat="-28.15444" lon="-65.659755">
        <ele>904.3</ele>
        <time>2018-08-18T20:43:09Z</time>
      </trkpt>
      <trkpt lat="-28.154425" lon="-65.659755">
        <ele>904.3</ele>
        <time>2018-08-18T20:43:16Z</time>
      </trkpt>
      <trkpt lat="-28.154415" lon="-65.659755">
        <ele>904.3</ele>
        <time>2018-08-18T20:43:17Z</time>
      </trkpt>
      <trkpt lat="-28.154415" lon="-65.659795">
        <ele>904.4</ele>
        <time>2018-08-18T20:43:25Z</time>
      </trkpt>
      <trkpt lat="-28.15443" lon="-65.659795">
        <ele>904.4</ele>
        <time>2018-08-18T20:43:26Z</time>
      </trkpt>
      <trkpt lat="-28.15445" lon="-65.659805">
        <ele>904.6</ele>
        <time>2018-08-18T20:43:34Z</time>
      </trkpt>
      <trkpt lat="-28.15445" lon="-65.65982">
        <ele>904.7</ele>
        <time>2018-08-18T20:43:35Z</time>
      </trkpt>
      <trkpt lat="-28.15443" lon="-65.659805">
        <ele>904.7</ele>
        <time>2018-08-18T20:43:46Z</time>
      </trkpt>
      <trkpt lat="-28.15443" lon="-65.659805">
        <ele>904.7</ele>
        <time>2018-08-18T20:43:47Z</time>
      </trkpt>
      <trkpt lat="-28.154415" lon="-65.659785">
        <ele>903.4</ele>
        <time>2018-08-18T20:43:56Z</time>
      </trkpt>
      <trkpt lat="-28.154415" lon="-65.659755">
        <ele>903.0</ele>
        <time>2018-08-18T20:43:57Z</time>
      </trkpt>
      <trkpt lat="-28.154345" lon="-65.659785">
        <ele>902.2</ele>
        <time>2018-08-18T20:44:08Z</time>
      </trkpt>
      <trkpt lat="-28.154355" lon="-65.659805">
        <ele>901.8</ele>
        <time>2018-08-18T20:44:14Z</time>
      </trkpt>
      <trkpt lat="-28.154395" lon="-65.659805">
        <ele>901.5</ele>
        <time>2018-08-18T20:44:22Z</time>
      </trkpt>
      <trkpt lat="-28.1544" lon="-65.659795">
        <ele>901.5</ele>
        <time>2018-08-18T20:44:23Z</time>
      </trkpt>
      <trkpt lat="-28.154395" lon="-65.659755">
        <ele>901.3</ele>
        <time>2018-08-18T20:44:33Z</time>
      </trkpt>
      <trkpt lat="-28.1544" lon="-65.659755">
        <ele>901.3</ele>
        <time>2018-08-18T20:44:34Z</time>
      </trkpt>
      <trkpt lat="-28.154415" lon="-65.659755">
        <ele>901.5</ele>
        <time>2018-08-18T20:44:50Z</time>
      </trkpt>
      <trkpt lat="-28.154425" lon="-65.659755">
        <ele>901.5</ele>
        <time>2018-08-18T20:44:51Z</time>
      </trkpt>
      <trkpt lat="-28.154415" lon="-65.659795">
        <ele>901.8</ele>
        <time>2018-08-18T20:45:07Z</time>
      </trkpt>
      <trkpt lat="-28.154415" lon="-65.659805">
        <ele>901.9</ele>
        <time>2018-08-18T20:45:08Z</time>
      </trkpt>
      <trkpt lat="-28.15443" lon="-65.65983">
        <ele>902.3</ele>
        <time>2018-08-18T20:45:17Z</time>
      </trkpt>
      <trkpt lat="-28.15443" lon="-65.65983">
        <ele>902.3</ele>
        <time>2018-08-18T20:45:18Z</time>
      </trkpt>
      <trkpt lat="-28.154415" lon="-65.65982">
        <ele>903.1</ele>
        <time>2018-08-18T20:45:42Z</time>
      </trkpt>
      <trkpt lat="-28.154425" lon="-65.65983">
        <ele>903.1</ele>
        <time>2018-08-18T20:45:43Z</time>
      </trkpt>
      <trkpt lat="-28.154435" lon="-65.65983">
        <ele>904.3</ele>
        <time>2018-08-18T20:46:00Z</time>
      </trkpt>
      <trkpt lat="-28.154435" lon="-65.65983">
        <ele>904.4</ele>
        <time>2018-08-18T20:46:01Z</time>
      </trkpt>
      <trkpt lat="-28.15444" lon="-65.65982">
        <ele>904.7</ele>
        <time>2018-08-18T20:46:21Z</time>
      </trkpt>
      <trkpt lat="-28.154435" lon="-65.65982">
        <ele>904.8</ele>
        <time>2018-08-18T20:46:22Z</time>
      </trkpt>
      <trkpt lat="-28.154405" lon="-65.65989">
        <ele>906.0</ele>
        <time>2018-08-18T20:46:35Z</time>
      </trkpt>
      <trkpt lat="-28.15433" lon="-65.65988">
        <ele>906.1</ele>
        <time>2018-08-18T20:46:40Z</time>
      </trkpt>
      <trkpt lat="-28.154255" lon="-65.65985">
        <ele>905.9</ele>
        <time>2018-08-18T20:46:45Z</time>
      </trkpt>
      <trkpt lat="-28.15417" lon="-65.65979">
        <ele>905.8</ele>
        <time>2018-08-18T20:46:49Z</time>
      </trkpt>
      <trkpt lat="-28.15412" lon="-65.65971">
        <ele>905.7</ele>
        <time>2018-08-18T20:46:52Z</time>
      </trkpt>
      <trkpt lat="-28.15407" lon="-65.65965">
        <ele>905.5</ele>
        <time>2018-08-18T20:46:56Z</time>
      </trkpt>
      <trkpt lat="-28.15406" lon="-65.65957">
        <ele>905.5</ele>
        <time>2018-08-18T20:47:00Z</time>
      </trkpt>
      <trkpt lat="-28.15405" lon="-65.659475">
        <ele>905.4</ele>
        <time>2018-08-18T20:47:03Z</time>
      </trkpt>
      <trkpt lat="-28.154035" lon="-65.65939">
        <ele>905.4</ele>
        <time>2018-08-18T20:47:06Z</time>
      </trkpt>
      <trkpt lat="-28.154025" lon="-65.65929">
        <ele>905.2</ele>
        <time>2018-08-18T20:47:10Z</time>
      </trkpt>
      <trkpt lat="-28.154015" lon="-65.659205">
        <ele>905.2</ele>
        <time>2018-08-18T20:47:14Z</time>
      </trkpt>
      <trkpt lat="-28.154015" lon="-65.659125">
        <ele>905.5</ele>
        <time>2018-08-18T20:47:20Z</time>
      </trkpt>
      <trkpt lat="-28.154" lon="-65.659035">
        <ele>905.5</ele>
        <time>2018-08-18T20:47:26Z</time>
      </trkpt>
      <trkpt lat="-28.153975" lon="-65.658985">
        <ele>905.5</ele>
        <time>2018-08-18T20:47:33Z</time>
      </trkpt>
      <trkpt lat="-28.153975" lon="-65.658985">
        <ele>905.6</ele>
        <time>2018-08-18T20:47:36Z</time>
      </trkpt>
      <trkpt lat="-28.153905" lon="-65.658905">
        <ele>905.0</ele>
        <time>2018-08-18T20:47:46Z</time>
      </trkpt>
      <trkpt lat="-28.153825" lon="-65.65889">
        <ele>904.8</ele>
        <time>2018-08-18T20:47:51Z</time>
      </trkpt>
      <trkpt lat="-28.15374" lon="-65.658905">
        <ele>904.9</ele>
        <time>2018-08-18T20:47:55Z</time>
      </trkpt>
      <trkpt lat="-28.15365" lon="-65.65893">
        <ele>905.0</ele>
        <time>2018-08-18T20:47:59Z</time>
      </trkpt>
      <trkpt lat="-28.153565" lon="-65.65895">
        <ele>905.1</ele>
        <time>2018-08-18T20:48:03Z</time>
      </trkpt>
      <trkpt lat="-28.153465" lon="-65.65897">
        <ele>905.1</ele>
        <time>2018-08-18T20:48:07Z</time>
      </trkpt>
      <trkpt lat="-28.153395" lon="-65.658975">
        <ele>905.2</ele>
        <time>2018-08-18T20:48:10Z</time>
      </trkpt>
      <trkpt lat="-28.15331" lon="-65.658985">
        <ele>905.2</ele>
        <time>2018-08-18T20:48:14Z</time>
      </trkpt>
      <trkpt lat="-28.15322" lon="-65.658985">
        <ele>905.1</ele>
        <time>2018-08-18T20:48:18Z</time>
      </trkpt>
      <trkpt lat="-28.153125" lon="-65.65903">
        <ele>905.0</ele>
        <time>2018-08-18T20:48:22Z</time>
      </trkpt>
      <trkpt lat="-28.153045" lon="-65.659035">
        <ele>904.9</ele>
        <time>2018-08-18T20:48:25Z</time>
      </trkpt>
      <trkpt lat="-28.15296" lon="-65.659045">
        <ele>904.8</ele>
        <time>2018-08-18T20:48:28Z</time>
      </trkpt>
      <trkpt lat="-28.15287" lon="-65.65906">
        <ele>904.8</ele>
        <time>2018-08-18T20:48:31Z</time>
      </trkpt>
      <trkpt lat="-28.15278" lon="-65.65907">
        <ele>904.9</ele>
        <time>2018-08-18T20:48:34Z</time>
      </trkpt>
      <trkpt lat="-28.15269" lon="-65.65908">
        <ele>905.0</ele>
        <time>2018-08-18T20:48:37Z</time>
      </trkpt>
      <trkpt lat="-28.15262" lon="-65.65909">
        <ele>905.1</ele>
        <time>2018-08-18T20:48:39Z</time>
      </trkpt>
      <trkpt lat="-28.152515" lon="-65.65909">
        <ele>905.4</ele>
        <time>2018-08-18T20:48:42Z</time>
      </trkpt>
      <trkpt lat="-28.152435" lon="-65.65911">
        <ele>905.5</ele>
        <time>2018-08-18T20:48:45Z</time>
      </trkpt>
      <trkpt lat="-28.152345" lon="-65.659115">
        <ele>905.7</ele>
        <time>2018-08-18T20:48:48Z</time>
      </trkpt>
      <trkpt lat="-28.15227" lon="-65.659125">
        <ele>905.8</ele>
        <time>2018-08-18T20:48:51Z</time>
      </trkpt>
      <trkpt lat="-28.152185" lon="-65.65913">
        <ele>905.8</ele>
        <time>2018-08-18T20:48:54Z</time>
      </trkpt>
      <trkpt lat="-28.15211" lon="-65.65913">
        <ele>905.8</ele>
        <time>2018-08-18T20:48:58Z</time>
      </trkpt>
      <trkpt lat="-28.15204" lon="-65.659155">
        <ele>905.7</ele>
        <time>2018-08-18T20:49:01Z</time>
      </trkpt>
      <trkpt lat="-28.15196" lon="-65.659175">
        <ele>905.7</ele>
        <time>2018-08-18T20:49:04Z</time>
      </trkpt>
      <trkpt lat="-28.151875" lon="-65.659165">
        <ele>905.9</ele>
        <time>2018-08-18T20:49:08Z</time>
      </trkpt>
      <trkpt lat="-28.15184" lon="-65.65907">
        <ele>906.2</ele>
        <time>2018-08-18T20:49:13Z</time>
      </trkpt>
      <trkpt lat="-28.151825" lon="-65.658975">
        <ele>906.6</ele>
        <time>2018-08-18T20:49:17Z</time>
      </trkpt>
      <trkpt lat="-28.15182" lon="-65.658865">
        <ele>906.7</ele>
        <time>2018-08-18T20:49:21Z</time>
      </trkpt>
      <trkpt lat="-28.151805" lon="-65.65877">
        <ele>906.8</ele>
        <time>2018-08-18T20:49:24Z</time>
      </trkpt>
      <trkpt lat="-28.151795" lon="-65.65868">
        <ele>906.9</ele>
        <time>2018-08-18T20:49:27Z</time>
      </trkpt>
      <trkpt lat="-28.15178" lon="-65.658595">
        <ele>907.1</ele>
        <time>2018-08-18T20:49:30Z</time>
      </trkpt>
      <trkpt lat="-28.15176" lon="-65.6585">
        <ele>907.3</ele>
        <time>2018-08-18T20:49:33Z</time>
      </trkpt>
      <trkpt lat="-28.15175" lon="-65.658405">
        <ele>907.5</ele>
        <time>2018-08-18T20:49:36Z</time>
      </trkpt>
      <trkpt lat="-28.15175" lon="-65.65831">
        <ele>907.9</ele>
        <time>2018-08-18T20:49:40Z</time>
      </trkpt>
      <trkpt lat="-28.151745" lon="-65.65819">
        <ele>908.0</ele>
        <time>2018-08-18T20:49:44Z</time>
      </trkpt>
      <trkpt lat="-28.151735" lon="-65.658105">
        <ele>908.1</ele>
        <time>2018-08-18T20:49:47Z</time>
      </trkpt>
      <trkpt lat="-28.15172" lon="-65.658">
        <ele>908.2</ele>
        <time>2018-08-18T20:49:50Z</time>
      </trkpt>
      <trkpt lat="-28.151715" lon="-65.657915">
        <ele>908.2</ele>
        <time>2018-08-18T20:49:53Z</time>
      </trkpt>
      <trkpt lat="-28.1517" lon="-65.65782">
        <ele>908.4</ele>
        <time>2018-08-18T20:49:56Z</time>
      </trkpt>
      <trkpt lat="-28.151685" lon="-65.65774">
        <ele>908.6</ele>
        <time>2018-08-18T20:50:00Z</time>
      </trkpt>
      <trkpt lat="-28.15163" lon="-65.65768">
        <ele>908.9</ele>
        <time>2018-08-18T20:50:04Z</time>
      </trkpt>
      <trkpt lat="-28.15156" lon="-65.657635">
        <ele>909.0</ele>
        <time>2018-08-18T20:50:07Z</time>
      </trkpt>
      <trkpt lat="-28.15147" lon="-65.657635">
        <ele>909.1</ele>
        <time>2018-08-18T20:50:11Z</time>
      </trkpt>
      <trkpt lat="-28.151375" lon="-65.657685">
        <ele>909.3</ele>
        <time>2018-08-18T20:50:14Z</time>
      </trkpt>
      <trkpt lat="-28.15129" lon="-65.657735">
        <ele>909.5</ele>
        <time>2018-08-18T20:50:17Z</time>
      </trkpt>
      <trkpt lat="-28.1512" lon="-65.657785">
        <ele>909.8</ele>
        <time>2018-08-18T20:50:20Z</time>
      </trkpt>
      <trkpt lat="-28.151115" lon="-65.657825">
        <ele>910.1</ele>
        <time>2018-08-18T20:50:23Z</time>
      </trkpt>
      <trkpt lat="-28.151025" lon="-65.65786">
        <ele>910.4</ele>
        <time>2018-08-18T20:50:26Z</time>
      </trkpt>
      <trkpt lat="-28.150925" lon="-65.657905">
        <ele>910.8</ele>
        <time>2018-08-18T20:50:29Z</time>
      </trkpt>
      <trkpt lat="-28.15084" lon="-65.65792">
        <ele>911.2</ele>
        <time>2018-08-18T20:50:32Z</time>
      </trkpt>
      <trkpt lat="-28.15075" lon="-65.657955">
        <ele>911.4</ele>
        <time>2018-08-18T20:50:35Z</time>
      </trkpt>
      <trkpt lat="-28.150655" lon="-65.657965">
        <ele>911.5</ele>
        <time>2018-08-18T20:50:38Z</time>
      </trkpt>
      <trkpt lat="-28.150545" lon="-65.657965">
        <ele>911.6</ele>
        <time>2018-08-18T20:50:41Z</time>
      </trkpt>
      <trkpt lat="-28.15046" lon="-65.657985">
        <ele>911.6</ele>
        <time>2018-08-18T20:50:44Z</time>
      </trkpt>
      <trkpt lat="-28.15037" lon="-65.657965">
        <ele>911.6</ele>
        <time>2018-08-18T20:50:47Z</time>
      </trkpt>
      <trkpt lat="-28.150275" lon="-65.65796">
        <ele>911.7</ele>
        <time>2018-08-18T20:50:50Z</time>
      </trkpt>
      <trkpt lat="-28.150185" lon="-65.65792">
        <ele>911.8</ele>
        <time>2018-08-18T20:50:53Z</time>
      </trkpt>
      <trkpt lat="-28.15009" lon="-65.657915">
        <ele>912.1</ele>
        <time>2018-08-18T20:50:56Z</time>
      </trkpt>
      <trkpt lat="-28.15001" lon="-65.65788">
        <ele>912.2</ele>
        <time>2018-08-18T20:50:59Z</time>
      </trkpt>
      <trkpt lat="-28.14992" lon="-65.657835">
        <ele>912.2</ele>
        <time>2018-08-18T20:51:02Z</time>
      </trkpt>
      <trkpt lat="-28.149835" lon="-65.657785">
        <ele>912.4</ele>
        <time>2018-08-18T20:51:05Z</time>
      </trkpt>
      <trkpt lat="-28.14974" lon="-65.65774">
        <ele>912.6</ele>
        <time>2018-08-18T20:51:08Z</time>
      </trkpt>
      <trkpt lat="-28.149645" lon="-65.657695">
        <ele>913.0</ele>
        <time>2018-08-18T20:51:11Z</time>
      </trkpt>
      <trkpt lat="-28.149555" lon="-65.657655">
        <ele>913.3</ele>
        <time>2018-08-18T20:51:14Z</time>
      </trkpt>
      <trkpt lat="-28.14947" lon="-65.65761">
        <ele>913.5</ele>
        <time>2018-08-18T20:51:17Z</time>
      </trkpt>
      <trkpt lat="-28.14937" lon="-65.65757">
        <ele>913.8</ele>
        <time>2018-08-18T20:51:20Z</time>
      </trkpt>
      <trkpt lat="-28.14931" lon="-65.657525">
        <ele>914.1</ele>
        <time>2018-08-18T20:51:22Z</time>
      </trkpt>
      <trkpt lat="-28.14922" lon="-65.65747">
        <ele>914.5</ele>
        <time>2018-08-18T20:51:25Z</time>
      </trkpt>
      <trkpt lat="-28.149145" lon="-65.65745">
        <ele>914.8</ele>
        <time>2018-08-18T20:51:28Z</time>
      </trkpt>
      <trkpt lat="-28.149065" lon="-65.65741">
        <ele>915.1</ele>
        <time>2018-08-18T20:51:31Z</time>
      </trkpt>
      <trkpt lat="-28.148975" lon="-65.65737">
        <ele>915.4</ele>
        <time>2018-08-18T20:51:34Z</time>
      </trkpt>
      <trkpt lat="-28.148895" lon="-65.657335">
        <ele>915.6</ele>
        <time>2018-08-18T20:51:37Z</time>
      </trkpt>
      <trkpt lat="-28.148815" lon="-65.65729">
        <ele>915.9</ele>
        <time>2018-08-18T20:51:40Z</time>
      </trkpt>
      <trkpt lat="-28.14874" lon="-65.65724">
        <ele>916.1</ele>
        <time>2018-08-18T20:51:43Z</time>
      </trkpt>
      <trkpt lat="-28.14866" lon="-65.657205">
        <ele>916.3</ele>
        <time>2018-08-18T20:51:46Z</time>
      </trkpt>
      <trkpt lat="-28.148575" lon="-65.65716">
        <ele>916.6</ele>
        <time>2018-08-18T20:51:49Z</time>
      </trkpt>
      <trkpt lat="-28.148505" lon="-65.65712">
        <ele>916.8</ele>
        <time>2018-08-18T20:51:52Z</time>
      </trkpt>
      <trkpt lat="-28.14842" lon="-65.65709">
        <ele>917.0</ele>
        <time>2018-08-18T20:51:56Z</time>
      </trkpt>
      <trkpt lat="-28.148335" lon="-65.657045">
        <ele>917.1</ele>
        <time>2018-08-18T20:51:59Z</time>
      </trkpt>
      <trkpt lat="-28.148265" lon="-65.657015">
        <ele>917.2</ele>
        <time>2018-08-18T20:52:02Z</time>
      </trkpt>
      <trkpt lat="-28.14818" lon="-65.656975">
        <ele>917.2</ele>
        <time>2018-08-18T20:52:05Z</time>
      </trkpt>
      <trkpt lat="-28.14809" lon="-65.65693">
        <ele>917.3</ele>
        <time>2018-08-18T20:52:09Z</time>
      </trkpt>
      <trkpt lat="-28.14801" lon="-65.656885">
        <ele>917.4</ele>
        <time>2018-08-18T20:52:12Z</time>
      </trkpt>
      <trkpt lat="-28.14793" lon="-65.65685">
        <ele>917.5</ele>
        <time>2018-08-18T20:52:15Z</time>
      </trkpt>
      <trkpt lat="-28.147845" lon="-65.6568">
        <ele>917.6</ele>
        <time>2018-08-18T20:52:18Z</time>
      </trkpt>
      <trkpt lat="-28.147775" lon="-65.656785">
        <ele>917.7</ele>
        <time>2018-08-18T20:52:21Z</time>
      </trkpt>
      <trkpt lat="-28.14769" lon="-65.65675">
        <ele>917.8</ele>
        <time>2018-08-18T20:52:24Z</time>
      </trkpt>
      <trkpt lat="-28.14761" lon="-65.65671">
        <ele>918.0</ele>
        <time>2018-08-18T20:52:27Z</time>
      </trkpt>
      <trkpt lat="-28.14753" lon="-65.65667">
        <ele>918.2</ele>
        <time>2018-08-18T20:52:30Z</time>
      </trkpt>
      <trkpt lat="-28.14744" lon="-65.656625">
        <ele>918.3</ele>
        <time>2018-08-18T20:52:33Z</time>
      </trkpt>
      <trkpt lat="-28.14735" lon="-65.656615">
        <ele>918.4</ele>
        <time>2018-08-18T20:52:36Z</time>
      </trkpt>
      <trkpt lat="-28.14726" lon="-65.656585">
        <ele>918.6</ele>
        <time>2018-08-18T20:52:39Z</time>
      </trkpt>
      <trkpt lat="-28.147165" lon="-65.656555">
        <ele>918.9</ele>
        <time>2018-08-18T20:52:42Z</time>
      </trkpt>
      <trkpt lat="-28.14707" lon="-65.656525">
        <ele>919.1</ele>
        <time>2018-08-18T20:52:45Z</time>
      </trkpt>
      <trkpt lat="-28.146985" lon="-65.656485">
        <ele>919.4</ele>
        <time>2018-08-18T20:52:48Z</time>
      </trkpt>
      <trkpt lat="-28.146915" lon="-65.65647">
        <ele>919.6</ele>
        <time>2018-08-18T20:52:50Z</time>
      </trkpt>
      <trkpt lat="-28.14682" lon="-65.656445">
        <ele>920.1</ele>
        <time>2018-08-18T20:52:53Z</time>
      </trkpt>
      <trkpt lat="-28.14674" lon="-65.6564">
        <ele>920.4</ele>
        <time>2018-08-18T20:52:56Z</time>
      </trkpt>
      <trkpt lat="-28.146655" lon="-65.656395">
        <ele>920.6</ele>
        <time>2018-08-18T20:52:59Z</time>
      </trkpt>
      <trkpt lat="-28.146565" lon="-65.65636">
        <ele>920.6</ele>
        <time>2018-08-18T20:53:02Z</time>
      </trkpt>
      <trkpt lat="-28.14648" lon="-65.65634">
        <ele>920.5</ele>
        <time>2018-08-18T20:53:05Z</time>
      </trkpt>
      <trkpt lat="-28.1464" lon="-65.656315">
        <ele>920.3</ele>
        <time>2018-08-18T20:53:08Z</time>
      </trkpt>
      <trkpt lat="-28.14632" lon="-65.656285">
        <ele>920.3</ele>
        <time>2018-08-18T20:53:11Z</time>
      </trkpt>
      <trkpt lat="-28.14625" lon="-65.656255">
        <ele>920.4</ele>
        <time>2018-08-18T20:53:14Z</time>
      </trkpt>
      <trkpt lat="-28.14617" lon="-65.65622">
        <ele>920.6</ele>
        <time>2018-08-18T20:53:17Z</time>
      </trkpt>
      <trkpt lat="-28.146075" lon="-65.6562">
        <ele>920.7</ele>
        <time>2018-08-18T20:53:20Z</time>
      </trkpt>
      <trkpt lat="-28.146" lon="-65.656175">
        <ele>920.9</ele>
        <time>2018-08-18T20:53:23Z</time>
      </trkpt>
      <trkpt lat="-28.14592" lon="-65.656135">
        <ele>921.1</ele>
        <time>2018-08-18T20:53:26Z</time>
      </trkpt>
      <trkpt lat="-28.145835" lon="-65.656125">
        <ele>921.2</ele>
        <time>2018-08-18T20:53:29Z</time>
      </trkpt>
      <trkpt lat="-28.145765" lon="-65.656105">
        <ele>921.3</ele>
        <time>2018-08-18T20:53:32Z</time>
      </trkpt>
      <trkpt lat="-28.14566" lon="-65.65608">
        <ele>921.4</ele>
        <time>2018-08-18T20:53:35Z</time>
      </trkpt>
      <trkpt lat="-28.145585" lon="-65.65603">
        <ele>921.5</ele>
        <time>2018-08-18T20:53:38Z</time>
      </trkpt>
      <trkpt lat="-28.145505" lon="-65.656025">
        <ele>921.7</ele>
        <time>2018-08-18T20:53:41Z</time>
      </trkpt>
      <trkpt lat="-28.145425" lon="-65.655995">
        <ele>921.8</ele>
        <time>2018-08-18T20:53:44Z</time>
      </trkpt>
      <trkpt lat="-28.14534" lon="-65.65595">
        <ele>921.9</ele>
        <time>2018-08-18T20:53:47Z</time>
      </trkpt>
      <trkpt lat="-28.14524" lon="-65.655935">
        <ele>922.1</ele>
        <time>2018-08-18T20:53:50Z</time>
      </trkpt>
      <trkpt lat="-28.145165" lon="-65.6559">
        <ele>922.2</ele>
        <time>2018-08-18T20:53:53Z</time>
      </trkpt>
      <trkpt lat="-28.145085" lon="-65.655865">
        <ele>922.4</ele>
        <time>2018-08-18T20:53:56Z</time>
      </trkpt>
      <trkpt lat="-28.145" lon="-65.655855">
        <ele>922.5</ele>
        <time>2018-08-18T20:53:59Z</time>
      </trkpt>
      <trkpt lat="-28.14491" lon="-65.655815">
        <ele>922.8</ele>
        <time>2018-08-18T20:54:02Z</time>
      </trkpt>
      <trkpt lat="-28.144825" lon="-65.655795">
        <ele>923.0</ele>
        <time>2018-08-18T20:54:05Z</time>
      </trkpt>
      <trkpt lat="-28.14474" lon="-65.65577">
        <ele>923.1</ele>
        <time>2018-08-18T20:54:08Z</time>
      </trkpt>
      <trkpt lat="-28.144635" lon="-65.65575">
        <ele>923.2</ele>
        <time>2018-08-18T20:54:11Z</time>
      </trkpt>
      <trkpt lat="-28.14455" lon="-65.655725">
        <ele>923.4</ele>
        <time>2018-08-18T20:54:14Z</time>
      </trkpt>
      <trkpt lat="-28.144445" lon="-65.655725">
        <ele>923.5</ele>
        <time>2018-08-18T20:54:17Z</time>
      </trkpt>
      <trkpt lat="-28.14436" lon="-65.655725">
        <ele>923.6</ele>
        <time>2018-08-18T20:54:20Z</time>
      </trkpt>
      <trkpt lat="-28.144255" lon="-65.655725">
        <ele>923.8</ele>
        <time>2018-08-18T20:54:23Z</time>
      </trkpt>
      <trkpt lat="-28.14415" lon="-65.655725">
        <ele>924.1</ele>
        <time>2018-08-18T20:54:26Z</time>
      </trkpt>
      <trkpt lat="-28.14406" lon="-65.655725">
        <ele>924.3</ele>
        <time>2018-08-18T20:54:29Z</time>
      </trkpt>
      <trkpt lat="-28.14397" lon="-65.655725">
        <ele>924.5</ele>
        <time>2018-08-18T20:54:32Z</time>
      </trkpt>
      <trkpt lat="-28.14387" lon="-65.65575">
        <ele>924.6</ele>
        <time>2018-08-18T20:54:35Z</time>
      </trkpt>
      <trkpt lat="-28.1438" lon="-65.65575">
        <ele>924.6</ele>
        <time>2018-08-18T20:54:37Z</time>
      </trkpt>
      <trkpt lat="-28.14369" lon="-65.655725">
        <ele>924.7</ele>
        <time>2018-08-18T20:54:40Z</time>
      </trkpt>
      <trkpt lat="-28.14359" lon="-65.655725">
        <ele>924.9</ele>
        <time>2018-08-18T20:54:43Z</time>
      </trkpt>
      <trkpt lat="-28.143495" lon="-65.655725">
        <ele>925.0</ele>
        <time>2018-08-18T20:54:46Z</time>
      </trkpt>
      <trkpt lat="-28.14339" lon="-65.655725">
        <ele>925.2</ele>
        <time>2018-08-18T20:54:49Z</time>
      </trkpt>
      <trkpt lat="-28.14331" lon="-65.655725">
        <ele>925.8</ele>
        <time>2018-08-18T20:54:51Z</time>
      </trkpt>
      <trkpt lat="-28.143245" lon="-65.655725">
        <ele>925.9</ele>
        <time>2018-08-18T20:54:53Z</time>
      </trkpt>
      <trkpt lat="-28.14314" lon="-65.655715">
        <ele>926.0</ele>
        <time>2018-08-18T20:54:56Z</time>
      </trkpt>
      <trkpt lat="-28.143065" lon="-65.655705">
        <ele>926.0</ele>
        <time>2018-08-18T20:54:58Z</time>
      </trkpt>
      <trkpt lat="-28.14299" lon="-65.655685">
        <ele>925.8</ele>
        <time>2018-08-18T20:55:00Z</time>
      </trkpt>
      <trkpt lat="-28.14289" lon="-65.65568">
        <ele>925.6</ele>
        <time>2018-08-18T20:55:03Z</time>
      </trkpt>
      <trkpt lat="-28.1428" lon="-65.655675">
        <ele>925.5</ele>
        <time>2018-08-18T20:55:06Z</time>
      </trkpt>
      <trkpt lat="-28.1427" lon="-65.65564">
        <ele>925.4</ele>
        <time>2018-08-18T20:55:09Z</time>
      </trkpt>
      <trkpt lat="-28.142625" lon="-65.65564">
        <ele>925.4</ele>
        <time>2018-08-18T20:55:11Z</time>
      </trkpt>
      <trkpt lat="-28.142515" lon="-65.65563">
        <ele>925.3</ele>
        <time>2018-08-18T20:55:14Z</time>
      </trkpt>
      <trkpt lat="-28.142405" lon="-65.6556">
        <ele>925.2</ele>
        <time>2018-08-18T20:55:17Z</time>
      </trkpt>
      <trkpt lat="-28.14232" lon="-65.65559">
        <ele>925.1</ele>
        <time>2018-08-18T20:55:20Z</time>
      </trkpt>
      <trkpt lat="-28.142215" lon="-65.65557">
        <ele>925.1</ele>
        <time>2018-08-18T20:55:23Z</time>
      </trkpt>
      <trkpt lat="-28.142135" lon="-65.655555">
        <ele>925.1</ele>
        <time>2018-08-18T20:55:25Z</time>
      </trkpt>
      <trkpt lat="-28.14204" lon="-65.655525">
        <ele>925.2</ele>
        <time>2018-08-18T20:55:28Z</time>
      </trkpt>
      <trkpt lat="-28.141935" lon="-65.6555">
        <ele>925.3</ele>
        <time>2018-08-18T20:55:31Z</time>
      </trkpt>
      <trkpt lat="-28.14186" lon="-65.65548">
        <ele>925.4</ele>
        <time>2018-08-18T20:55:33Z</time>
      </trkpt>
      <trkpt lat="-28.141755" lon="-65.65545">
        <ele>925.8</ele>
        <time>2018-08-18T20:55:36Z</time>
      </trkpt>
      <trkpt lat="-28.14167" lon="-65.655415">
        <ele>926.1</ele>
        <time>2018-08-18T20:55:39Z</time>
      </trkpt>
      <trkpt lat="-28.141585" lon="-65.655375">
        <ele>926.3</ele>
        <time>2018-08-18T20:55:42Z</time>
      </trkpt>
      <trkpt lat="-28.141515" lon="-65.655355">
        <ele>926.5</ele>
        <time>2018-08-18T20:55:45Z</time>
      </trkpt>
      <trkpt lat="-28.141445" lon="-65.65533">
        <ele>926.7</ele>
        <time>2018-08-18T20:55:48Z</time>
      </trkpt>
      <trkpt lat="-28.14137" lon="-65.65527">
        <ele>927.0</ele>
        <time>2018-08-18T20:55:51Z</time>
      </trkpt>
      <trkpt lat="-28.141285" lon="-65.65526">
        <ele>927.3</ele>
        <time>2018-08-18T20:55:55Z</time>
      </trkpt>
      <trkpt lat="-28.14121" lon="-65.65523">
        <ele>927.5</ele>
        <time>2018-08-18T20:55:59Z</time>
      </trkpt>
      <trkpt lat="-28.14113" lon="-65.65519">
        <ele>927.6</ele>
        <time>2018-08-18T20:56:05Z</time>
      </trkpt>
      <trkpt lat="-28.141065" lon="-65.65513">
        <ele>927.8</ele>
        <time>2018-08-18T20:56:10Z</time>
      </trkpt>
      <trkpt lat="-28.141005" lon="-65.655075">
        <ele>927.9</ele>
        <time>2018-08-18T20:56:13Z</time>
      </trkpt>
      <trkpt lat="-28.140945" lon="-65.65501">
        <ele>927.9</ele>
        <time>2018-08-18T20:56:16Z</time>
      </trkpt>
      <trkpt lat="-28.140885" lon="-65.654965">
        <ele>928.1</ele>
        <time>2018-08-18T20:56:19Z</time>
      </trkpt>
      <trkpt lat="-28.140815" lon="-65.654925">
        <ele>928.5</ele>
        <time>2018-08-18T20:56:23Z</time>
      </trkpt>
      <trkpt lat="-28.140745" lon="-65.65488">
        <ele>929.0</ele>
        <time>2018-08-18T20:56:27Z</time>
      </trkpt>
      <trkpt lat="-28.14069" lon="-65.65482">
        <ele>929.2</ele>
        <time>2018-08-18T20:56:30Z</time>
      </trkpt>
      <trkpt lat="-28.140635" lon="-65.65474">
        <ele>929.5</ele>
        <time>2018-08-18T20:56:33Z</time>
      </trkpt>
      <trkpt lat="-28.140565" lon="-65.654695">
        <ele>929.7</ele>
        <time>2018-08-18T20:56:37Z</time>
      </trkpt>
      <trkpt lat="-28.140505" lon="-65.654615">
        <ele>929.8</ele>
        <time>2018-08-18T20:56:41Z</time>
      </trkpt>
      <trkpt lat="-28.140465" lon="-65.65455">
        <ele>930.0</ele>
        <time>2018-08-18T20:56:45Z</time>
      </trkpt>
      <trkpt lat="-28.14041" lon="-65.654475">
        <ele>930.2</ele>
        <time>2018-08-18T20:56:49Z</time>
      </trkpt>
      <trkpt lat="-28.140355" lon="-65.65443">
        <ele>930.4</ele>
        <time>2018-08-18T20:56:53Z</time>
      </trkpt>
      <trkpt lat="-28.14029" lon="-65.654365">
        <ele>930.7</ele>
        <time>2018-08-18T20:56:57Z</time>
      </trkpt>
      <trkpt lat="-28.14023" lon="-65.654285">
        <ele>930.9</ele>
        <time>2018-08-18T20:57:01Z</time>
      </trkpt>
      <trkpt lat="-28.140165" lon="-65.65424">
        <ele>931.2</ele>
        <time>2018-08-18T20:57:05Z</time>
      </trkpt>
      <trkpt lat="-28.140105" lon="-65.654165">
        <ele>931.5</ele>
        <time>2018-08-18T20:57:09Z</time>
      </trkpt>
      <trkpt lat="-28.14004" lon="-65.65411">
        <ele>931.8</ele>
        <time>2018-08-18T20:57:13Z</time>
      </trkpt>
      <trkpt lat="-28.139985" lon="-65.654025">
        <ele>932.1</ele>
        <time>2018-08-18T20:57:17Z</time>
      </trkpt>
      <trkpt lat="-28.13992" lon="-65.65396">
        <ele>932.2</ele>
        <time>2018-08-18T20:57:21Z</time>
      </trkpt>
      <trkpt lat="-28.139855" lon="-65.65389">
        <ele>932.5</ele>
        <time>2018-08-18T20:57:25Z</time>
      </trkpt>
      <trkpt lat="-28.139795" lon="-65.653835">
        <ele>932.8</ele>
        <time>2018-08-18T20:57:29Z</time>
      </trkpt>
      <trkpt lat="-28.139735" lon="-65.653755">
        <ele>933.3</ele>
        <time>2018-08-18T20:57:33Z</time>
      </trkpt>
      <trkpt lat="-28.139675" lon="-65.653715">
        <ele>933.6</ele>
        <time>2018-08-18T20:57:37Z</time>
      </trkpt>
      <trkpt lat="-28.13962" lon="-65.653655">
        <ele>933.8</ele>
        <time>2018-08-18T20:57:41Z</time>
      </trkpt>
      <trkpt lat="-28.13956" lon="-65.653585">
        <ele>934.0</ele>
        <time>2018-08-18T20:57:45Z</time>
      </trkpt>
      <trkpt lat="-28.1395" lon="-65.65353">
        <ele>934.1</ele>
        <time>2018-08-18T20:57:50Z</time>
      </trkpt>
      <trkpt lat="-28.139445" lon="-65.653445">
        <ele>934.3</ele>
        <time>2018-08-18T20:57:55Z</time>
      </trkpt>
      <trkpt lat="-28.13939" lon="-65.653385">
        <ele>934.7</ele>
        <time>2018-08-18T20:58:00Z</time>
      </trkpt>
      <trkpt lat="-28.13933" lon="-65.6533">
        <ele>935.0</ele>
        <time>2018-08-18T20:58:04Z</time>
      </trkpt>
      <trkpt lat="-28.139295" lon="-65.653265">
        <ele>935.4</ele>
        <time>2018-08-18T20:58:08Z</time>
      </trkpt>
      <trkpt lat="-28.139245" lon="-65.653205">
        <ele>935.7</ele>
        <time>2018-08-18T20:58:12Z</time>
      </trkpt>
      <trkpt lat="-28.13919" lon="-65.653135">
        <ele>935.9</ele>
        <time>2018-08-18T20:58:16Z</time>
      </trkpt>
      <trkpt lat="-28.13913" lon="-65.653075">
        <ele>936.1</ele>
        <time>2018-08-18T20:58:20Z</time>
      </trkpt>
      <trkpt lat="-28.13907" lon="-65.652995">
        <ele>936.4</ele>
        <time>2018-08-18T20:58:24Z</time>
      </trkpt>
      <trkpt lat="-28.139015" lon="-65.652935">
        <ele>936.8</ele>
        <time>2018-08-18T20:58:28Z</time>
      </trkpt>
      <trkpt lat="-28.138955" lon="-65.65286">
        <ele>937.1</ele>
        <time>2018-08-18T20:58:32Z</time>
      </trkpt>
      <trkpt lat="-28.13891" lon="-65.652795">
        <ele>937.5</ele>
        <time>2018-08-18T20:58:38Z</time>
      </trkpt>
      <trkpt lat="-28.138865" lon="-65.652725">
        <ele>937.9</ele>
        <time>2018-08-18T20:58:43Z</time>
      </trkpt>
      <trkpt lat="-28.138845" lon="-65.652685">
        <ele>938.5</ele>
        <time>2018-08-18T20:58:51Z</time>
      </trkpt>
      <trkpt lat="-28.138825" lon="-65.65272">
        <ele>938.6</ele>
        <time>2018-08-18T20:58:57Z</time>
      </trkpt>
      <trkpt lat="-28.13883" lon="-65.65271">
        <ele>938.6</ele>
        <time>2018-08-18T20:58:59Z</time>
      </trkpt>
      <trkpt lat="-28.13883" lon="-65.652685">
        <ele>940.0</ele>
        <time>2018-08-18T20:59:11Z</time>
      </trkpt>
      <trkpt lat="-28.138835" lon="-65.652685">
        <ele>940.1</ele>
        <time>2018-08-18T20:59:12Z</time>
      </trkpt>
      <trkpt lat="-28.138775" lon="-65.652645">
        <ele>940.5</ele>
        <time>2018-08-18T20:59:16Z</time>
      </trkpt>
      <trkpt lat="-28.138725" lon="-65.652545">
        <ele>940.8</ele>
        <time>2018-08-18T20:59:19Z</time>
      </trkpt>
      <trkpt lat="-28.13868" lon="-65.6525">
        <ele>940.9</ele>
        <time>2018-08-18T20:59:22Z</time>
      </trkpt>
      <trkpt lat="-28.13862" lon="-65.65242">
        <ele>941.1</ele>
        <time>2018-08-18T20:59:25Z</time>
      </trkpt>
      <trkpt lat="-28.138565" lon="-65.652375">
        <ele>941.2</ele>
        <time>2018-08-18T20:59:28Z</time>
      </trkpt>
      <trkpt lat="-28.138515" lon="-65.652315">
        <ele>941.4</ele>
        <time>2018-08-18T20:59:31Z</time>
      </trkpt>
      <trkpt lat="-28.138465" lon="-65.652235">
        <ele>941.6</ele>
        <time>2018-08-18T20:59:34Z</time>
      </trkpt>
      <trkpt lat="-28.138415" lon="-65.652175">
        <ele>941.7</ele>
        <time>2018-08-18T20:59:38Z</time>
      </trkpt>
      <trkpt lat="-28.138365" lon="-65.65209">
        <ele>941.7</ele>
        <time>2018-08-18T20:59:42Z</time>
      </trkpt>
      <trkpt lat="-28.13832" lon="-65.65201">
        <ele>941.7</ele>
        <time>2018-08-18T20:59:47Z</time>
      </trkpt>
      <trkpt lat="-28.138275" lon="-65.65196">
        <ele>941.7</ele>
        <time>2018-08-18T20:59:52Z</time>
      </trkpt>
      <trkpt lat="-28.13824" lon="-65.651875">
        <ele>941.9</ele>
        <time>2018-08-18T20:59:57Z</time>
      </trkpt>
      <trkpt lat="-28.138205" lon="-65.651785">
        <ele>942.1</ele>
        <time>2018-08-18T21:00:02Z</time>
      </trkpt>
      <trkpt lat="-28.138185" lon="-65.6517">
        <ele>942.5</ele>
        <time>2018-08-18T21:00:07Z</time>
      </trkpt>
      <trkpt lat="-28.13817" lon="-65.651615">
        <ele>942.7</ele>
        <time>2018-08-18T21:00:12Z</time>
      </trkpt>
      <trkpt lat="-28.138155" lon="-65.65152">
        <ele>943.2</ele>
        <time>2018-08-18T21:00:17Z</time>
      </trkpt>
      <trkpt lat="-28.13812" lon="-65.651435">
        <ele>943.7</ele>
        <time>2018-08-18T21:00:22Z</time>
      </trkpt>
      <trkpt lat="-28.138095" lon="-65.65133">
        <ele>944.3</ele>
        <time>2018-08-18T21:00:28Z</time>
      </trkpt>
      <trkpt lat="-28.138065" lon="-65.65125">
        <ele>944.8</ele>
        <time>2018-08-18T21:00:34Z</time>
      </trkpt>
      <trkpt lat="-28.138035" lon="-65.65118">
        <ele>945.2</ele>
        <time>2018-08-18T21:00:38Z</time>
      </trkpt>
      <trkpt lat="-28.138005" lon="-65.651095">
        <ele>945.7</ele>
        <time>2018-08-18T21:00:43Z</time>
      </trkpt>
      <trkpt lat="-28.137965" lon="-65.651015">
        <ele>946.4</ele>
        <time>2018-08-18T21:00:49Z</time>
      </trkpt>
      <trkpt lat="-28.13794" lon="-65.650925">
        <ele>946.9</ele>
        <time>2018-08-18T21:00:55Z</time>
      </trkpt>
      <trkpt lat="-28.137925" lon="-65.650835">
        <ele>947.3</ele>
        <time>2018-08-18T21:01:00Z</time>
      </trkpt>
      <trkpt lat="-28.137895" lon="-65.65076">
        <ele>947.7</ele>
        <time>2018-08-18T21:01:05Z</time>
      </trkpt>
      <trkpt lat="-28.137875" lon="-65.650665">
        <ele>948.2</ele>
        <time>2018-08-18T21:01:10Z</time>
      </trkpt>
      <trkpt lat="-28.137845" lon="-65.650575">
        <ele>948.7</ele>
        <time>2018-08-18T21:01:15Z</time>
      </trkpt>
      <trkpt lat="-28.137825" lon="-65.65049">
        <ele>949.1</ele>
        <time>2018-08-18T21:01:20Z</time>
      </trkpt>
      <trkpt lat="-28.13779" lon="-65.65042">
        <ele>949.6</ele>
        <time>2018-08-18T21:01:25Z</time>
      </trkpt>
      <trkpt lat="-28.137775" lon="-65.650335">
        <ele>950.1</ele>
        <time>2018-08-18T21:01:30Z</time>
      </trkpt>
      <trkpt lat="-28.13775" lon="-65.65025">
        <ele>950.6</ele>
        <time>2018-08-18T21:01:35Z</time>
      </trkpt>
      <trkpt lat="-28.13773" lon="-65.650165">
        <ele>951.0</ele>
        <time>2018-08-18T21:01:39Z</time>
      </trkpt>
      <trkpt lat="-28.137705" lon="-65.650075">
        <ele>951.4</ele>
        <time>2018-08-18T21:01:43Z</time>
      </trkpt>
      <trkpt lat="-28.137695" lon="-65.649995">
        <ele>951.7</ele>
        <time>2018-08-18T21:01:46Z</time>
      </trkpt>
      <trkpt lat="-28.137665" lon="-65.649905">
        <ele>951.9</ele>
        <time>2018-08-18T21:01:49Z</time>
      </trkpt>
      <trkpt lat="-28.137635" lon="-65.649815">
        <ele>952.2</ele>
        <time>2018-08-18T21:01:52Z</time>
      </trkpt>
      <trkpt lat="-28.1376" lon="-65.64973">
        <ele>952.4</ele>
        <time>2018-08-18T21:01:55Z</time>
      </trkpt>
      <trkpt lat="-28.137575" lon="-65.649645">
        <ele>952.6</ele>
        <time>2018-08-18T21:01:58Z</time>
      </trkpt>
      <trkpt lat="-28.13755" lon="-65.64955">
        <ele>952.9</ele>
        <time>2018-08-18T21:02:01Z</time>
      </trkpt>
      <trkpt lat="-28.137525" lon="-65.649465">
        <ele>953.0</ele>
        <time>2018-08-18T21:02:04Z</time>
      </trkpt>
      <trkpt lat="-28.137495" lon="-65.64936">
        <ele>953.2</ele>
        <time>2018-08-18T21:02:07Z</time>
      </trkpt>
      <trkpt lat="-28.137465" lon="-65.64924">
        <ele>953.5</ele>
        <time>2018-08-18T21:02:10Z</time>
      </trkpt>
      <trkpt lat="-28.137435" lon="-65.649165">
        <ele>955.0</ele>
        <time>2018-08-18T21:02:12Z</time>
      </trkpt>
      <trkpt lat="-28.13741" lon="-65.649055">
        <ele>955.1</ele>
        <time>2018-08-18T21:02:15Z</time>
      </trkpt>
      <trkpt lat="-28.13738" lon="-65.648955">
        <ele>955.3</ele>
        <time>2018-08-18T21:02:18Z</time>
      </trkpt>
      <trkpt lat="-28.13735" lon="-65.64883">
        <ele>955.4</ele>
        <time>2018-08-18T21:02:21Z</time>
      </trkpt>
      <trkpt lat="-28.137325" lon="-65.648745">
        <ele>956.2</ele>
        <time>2018-08-18T21:02:23Z</time>
      </trkpt>
      <trkpt lat="-28.1373" lon="-65.648685">
        <ele>956.6</ele>
        <time>2018-08-18T21:02:25Z</time>
      </trkpt>
      <trkpt lat="-28.137275" lon="-65.648605">
        <ele>956.7</ele>
        <time>2018-08-18T21:02:27Z</time>
      </trkpt>
      <trkpt lat="-28.13725" lon="-65.64852">
        <ele>956.8</ele>
        <time>2018-08-18T21:02:29Z</time>
      </trkpt>
      <trkpt lat="-28.13721" lon="-65.648415">
        <ele>956.9</ele>
        <time>2018-08-18T21:02:32Z</time>
      </trkpt>
      <trkpt lat="-28.13719" lon="-65.64833">
        <ele>957.5</ele>
        <time>2018-08-18T21:02:34Z</time>
      </trkpt>
      <trkpt lat="-28.137155" lon="-65.648255">
        <ele>957.7</ele>
        <time>2018-08-18T21:02:36Z</time>
      </trkpt>
      <trkpt lat="-28.1371" lon="-65.64815">
        <ele>957.9</ele>
        <time>2018-08-18T21:02:39Z</time>
      </trkpt>
      <trkpt lat="-28.137055" lon="-65.64807">
        <ele>958.1</ele>
        <time>2018-08-18T21:02:42Z</time>
      </trkpt>
      <trkpt lat="-28.13701" lon="-65.647985">
        <ele>958.2</ele>
        <time>2018-08-18T21:02:45Z</time>
      </trkpt>
      <trkpt lat="-28.136955" lon="-65.647925">
        <ele>958.1</ele>
        <time>2018-08-18T21:02:48Z</time>
      </trkpt>
      <trkpt lat="-28.136905" lon="-65.647845">
        <ele>957.9</ele>
        <time>2018-08-18T21:02:51Z</time>
      </trkpt>
      <trkpt lat="-28.13685" lon="-65.647805">
        <ele>957.7</ele>
        <time>2018-08-18T21:02:55Z</time>
      </trkpt>
      <trkpt lat="-28.13683" lon="-65.647805">
        <ele>957.9</ele>
        <time>2018-08-18T21:03:02Z</time>
      </trkpt>
      <trkpt lat="-28.136805" lon="-65.64783">
        <ele>958.3</ele>
        <time>2018-08-18T21:03:17Z</time>
      </trkpt>
      <trkpt lat="-28.136805" lon="-65.64783">
        <ele>958.3</ele>
        <time>2018-08-18T21:03:18Z</time>
      </trkpt>
      <trkpt lat="-28.136795" lon="-65.647745">
        <ele>958.1</ele>
        <time>2018-08-18T21:03:26Z</time>
      </trkpt>
      <trkpt lat="-28.13674" lon="-65.647665">
        <ele>957.7</ele>
        <time>2018-08-18T21:03:31Z</time>
      </trkpt>
      <trkpt lat="-28.136685" lon="-65.6476">
        <ele>957.5</ele>
        <time>2018-08-18T21:03:34Z</time>
      </trkpt>
      <trkpt lat="-28.136615" lon="-65.64752">
        <ele>957.5</ele>
        <time>2018-08-18T21:03:38Z</time>
      </trkpt>
      <trkpt lat="-28.136555" lon="-65.64744">
        <ele>957.4</ele>
        <time>2018-08-18T21:03:42Z</time>
      </trkpt>
      <trkpt lat="-28.136495" lon="-65.647385">
        <ele>957.4</ele>
        <time>2018-08-18T21:03:46Z</time>
      </trkpt>
      <trkpt lat="-28.136425" lon="-65.64731">
        <ele>957.3</ele>
        <time>2018-08-18T21:03:49Z</time>
      </trkpt>
      <trkpt lat="-28.136365" lon="-65.64726">
        <ele>957.2</ele>
        <time>2018-08-18T21:03:52Z</time>
      </trkpt>
      <trkpt lat="-28.136305" lon="-65.647195">
        <ele>957.2</ele>
        <time>2018-08-18T21:03:55Z</time>
      </trkpt>
      <trkpt lat="-28.136245" lon="-65.64713">
        <ele>957.1</ele>
        <time>2018-08-18T21:03:58Z</time>
      </trkpt>
      <trkpt lat="-28.136185" lon="-65.64707">
        <ele>956.9</ele>
        <time>2018-08-18T21:04:01Z</time>
      </trkpt>
      <trkpt lat="-28.13613" lon="-65.647">
        <ele>956.7</ele>
        <time>2018-08-18T21:04:04Z</time>
      </trkpt>
      <trkpt lat="-28.13606" lon="-65.64694">
        <ele>956.7</ele>
        <time>2018-08-18T21:04:07Z</time>
      </trkpt>
      <trkpt lat="-28.13601" lon="-65.64686">
        <ele>956.6</ele>
        <time>2018-08-18T21:04:11Z</time>
      </trkpt>
      <trkpt lat="-28.13594" lon="-65.6468">
        <ele>956.6</ele>
        <time>2018-08-18T21:04:15Z</time>
      </trkpt>
      <trkpt lat="-28.13588" lon="-65.646735">
        <ele>956.6</ele>
        <time>2018-08-18T21:04:19Z</time>
      </trkpt>
      <trkpt lat="-28.13582" lon="-65.64668">
        <ele>956.9</ele>
        <time>2018-08-18T21:04:23Z</time>
      </trkpt>
      <trkpt lat="-28.135765" lon="-65.646625">
        <ele>957.3</ele>
        <time>2018-08-18T21:04:27Z</time>
      </trkpt>
      <trkpt lat="-28.1357" lon="-65.64655">
        <ele>957.7</ele>
        <time>2018-08-18T21:04:31Z</time>
      </trkpt>
      <trkpt lat="-28.13563" lon="-65.6465">
        <ele>958.3</ele>
        <time>2018-08-18T21:04:36Z</time>
      </trkpt>
      <trkpt lat="-28.13557" lon="-65.646435">
        <ele>959.0</ele>
        <time>2018-08-18T21:04:42Z</time>
      </trkpt>
      <trkpt lat="-28.135505" lon="-65.64637">
        <ele>959.7</ele>
        <time>2018-08-18T21:04:47Z</time>
      </trkpt>
      <trkpt lat="-28.13543" lon="-65.646325">
        <ele>960.5</ele>
        <time>2018-08-18T21:04:52Z</time>
      </trkpt>
      <trkpt lat="-28.135355" lon="-65.646285">
        <ele>961.3</ele>
        <time>2018-08-18T21:04:58Z</time>
      </trkpt>
      <trkpt lat="-28.135295" lon="-65.646255">
        <ele>962.1</ele>
        <time>2018-08-18T21:05:02Z</time>
      </trkpt>
      <trkpt lat="-28.13523" lon="-65.64618">
        <ele>963.1</ele>
        <time>2018-08-18T21:05:07Z</time>
      </trkpt>
      <trkpt lat="-28.135175" lon="-65.646145">
        <ele>963.8</ele>
        <time>2018-08-18T21:05:12Z</time>
      </trkpt>
      <trkpt lat="-28.13511" lon="-65.6461">
        <ele>964.4</ele>
        <time>2018-08-18T21:05:17Z</time>
      </trkpt>
      <trkpt lat="-28.135045" lon="-65.646055">
        <ele>964.9</ele>
        <time>2018-08-18T21:05:22Z</time>
      </trkpt>
      <trkpt lat="-28.134975" lon="-65.646">
        <ele>965.5</ele>
        <time>2018-08-18T21:05:26Z</time>
      </trkpt>
      <trkpt lat="-28.134925" lon="-65.645945">
        <ele>965.9</ele>
        <time>2018-08-18T21:05:30Z</time>
      </trkpt>
      <trkpt lat="-28.13487" lon="-65.645875">
        <ele>966.0</ele>
        <time>2018-08-18T21:05:34Z</time>
      </trkpt>
      <trkpt lat="-28.13481" lon="-65.645825">
        <ele>966.2</ele>
        <time>2018-08-18T21:05:38Z</time>
      </trkpt>
      <trkpt lat="-28.13476" lon="-65.64575">
        <ele>966.2</ele>
        <time>2018-08-18T21:05:42Z</time>
      </trkpt>
      <trkpt lat="-28.134705" lon="-65.645695">
        <ele>966.1</ele>
        <time>2018-08-18T21:05:46Z</time>
      </trkpt>
      <trkpt lat="-28.134645" lon="-65.64561">
        <ele>966.1</ele>
        <time>2018-08-18T21:05:50Z</time>
      </trkpt>
      <trkpt lat="-28.13459" lon="-65.645525">
        <ele>966.1</ele>
        <time>2018-08-18T21:05:54Z</time>
      </trkpt>
      <trkpt lat="-28.134525" lon="-65.64546">
        <ele>966.4</ele>
        <time>2018-08-18T21:05:58Z</time>
      </trkpt>
      <trkpt lat="-28.134475" lon="-65.64538">
        <ele>966.6</ele>
        <time>2018-08-18T21:06:02Z</time>
      </trkpt>
      <trkpt lat="-28.134425" lon="-65.64532">
        <ele>966.8</ele>
        <time>2018-08-18T21:06:06Z</time>
      </trkpt>
      <trkpt lat="-28.13437" lon="-65.645255">
        <ele>966.9</ele>
        <time>2018-08-18T21:06:10Z</time>
      </trkpt>
      <trkpt lat="-28.13432" lon="-65.645185">
        <ele>967.1</ele>
        <time>2018-08-18T21:06:14Z</time>
      </trkpt>
      <trkpt lat="-28.134255" lon="-65.64511">
        <ele>967.5</ele>
        <time>2018-08-18T21:06:18Z</time>
      </trkpt>
      <trkpt lat="-28.134215" lon="-65.64503">
        <ele>967.8</ele>
        <time>2018-08-18T21:06:22Z</time>
      </trkpt>
      <trkpt lat="-28.134135" lon="-65.64499">
        <ele>968.4</ele>
        <time>2018-08-18T21:06:27Z</time>
      </trkpt>
      <trkpt lat="-28.13406" lon="-65.64497">
        <ele>969.1</ele>
        <time>2018-08-18T21:06:31Z</time>
      </trkpt>
      <trkpt lat="-28.13397" lon="-65.644945">
        <ele>969.8</ele>
        <time>2018-08-18T21:06:35Z</time>
      </trkpt>
      <trkpt lat="-28.133885" lon="-65.644945">
        <ele>970.5</ele>
        <time>2018-08-18T21:06:39Z</time>
      </trkpt>
      <trkpt lat="-28.13381" lon="-65.644965">
        <ele>971.0</ele>
        <time>2018-08-18T21:06:43Z</time>
      </trkpt>
      <trkpt lat="-28.13373" lon="-65.64497">
        <ele>971.4</ele>
        <time>2018-08-18T21:06:47Z</time>
      </trkpt>
      <trkpt lat="-28.13366" lon="-65.64498">
        <ele>971.9</ele>
        <time>2018-08-18T21:06:51Z</time>
      </trkpt>
      <trkpt lat="-28.13359" lon="-65.64499">
        <ele>972.2</ele>
        <time>2018-08-18T21:06:55Z</time>
      </trkpt>
      <trkpt lat="-28.133505" lon="-65.64501">
        <ele>972.6</ele>
        <time>2018-08-18T21:07:00Z</time>
      </trkpt>
      <trkpt lat="-28.13342" lon="-65.645015">
        <ele>973.1</ele>
        <time>2018-08-18T21:07:05Z</time>
      </trkpt>
      <trkpt lat="-28.13334" lon="-65.64502">
        <ele>973.7</ele>
        <time>2018-08-18T21:07:09Z</time>
      </trkpt>
      <trkpt lat="-28.133255" lon="-65.64503">
        <ele>974.6</ele>
        <time>2018-08-18T21:07:14Z</time>
      </trkpt>
      <trkpt lat="-28.13317" lon="-65.64503">
        <ele>975.6</ele>
        <time>2018-08-18T21:07:19Z</time>
      </trkpt>
      <trkpt lat="-28.13308" lon="-65.645065">
        <ele>976.4</ele>
        <time>2018-08-18T21:07:25Z</time>
      </trkpt>
      <trkpt lat="-28.133005" lon="-65.645075">
        <ele>977.0</ele>
        <time>2018-08-18T21:07:30Z</time>
      </trkpt>
      <trkpt lat="-28.132925" lon="-65.6451">
        <ele>977.5</ele>
        <time>2018-08-18T21:07:35Z</time>
      </trkpt>
      <trkpt lat="-28.132855" lon="-65.6451">
        <ele>978.0</ele>
        <time>2018-08-18T21:07:39Z</time>
      </trkpt>
      <trkpt lat="-28.132765" lon="-65.64511">
        <ele>978.8</ele>
        <time>2018-08-18T21:07:44Z</time>
      </trkpt>
      <trkpt lat="-28.132675" lon="-65.645115">
        <ele>979.3</ele>
        <time>2018-08-18T21:07:49Z</time>
      </trkpt>
      <trkpt lat="-28.13259" lon="-65.645115">
        <ele>979.9</ele>
        <time>2018-08-18T21:07:54Z</time>
      </trkpt>
      <trkpt lat="-28.13251" lon="-65.645115">
        <ele>980.5</ele>
        <time>2018-08-18T21:07:59Z</time>
      </trkpt>
      <trkpt lat="-28.132435" lon="-65.64514">
        <ele>981.1</ele>
        <time>2018-08-18T21:08:05Z</time>
      </trkpt>
      <trkpt lat="-28.132355" lon="-65.64515">
        <ele>981.1</ele>
        <time>2018-08-18T21:08:10Z</time>
      </trkpt>
      <trkpt lat="-28.132265" lon="-65.64514">
        <ele>981.3</ele>
        <time>2018-08-18T21:08:15Z</time>
      </trkpt>
      <trkpt lat="-28.132195" lon="-65.645115">
        <ele>982.0</ele>
        <time>2018-08-18T21:08:19Z</time>
      </trkpt>
      <trkpt lat="-28.132105" lon="-65.64511">
        <ele>982.7</ele>
        <time>2018-08-18T21:08:25Z</time>
      </trkpt>
      <trkpt lat="-28.13202" lon="-65.645095">
        <ele>983.3</ele>
        <time>2018-08-18T21:08:30Z</time>
      </trkpt>
      <trkpt lat="-28.13195" lon="-65.645065">
        <ele>984.1</ele>
        <time>2018-08-18T21:08:35Z</time>
      </trkpt>
      <trkpt lat="-28.13187" lon="-65.64503">
        <ele>985.0</ele>
        <time>2018-08-18T21:08:40Z</time>
      </trkpt>
      <trkpt lat="-28.13179" lon="-65.645025">
        <ele>986.1</ele>
        <time>2018-08-18T21:08:45Z</time>
      </trkpt>
      <trkpt lat="-28.131715" lon="-65.64499">
        <ele>987.2</ele>
        <time>2018-08-18T21:08:50Z</time>
      </trkpt>
      <trkpt lat="-28.131635" lon="-65.64497">
        <ele>988.3</ele>
        <time>2018-08-18T21:08:55Z</time>
      </trkpt>
      <trkpt lat="-28.13156" lon="-65.644945">
        <ele>989.2</ele>
        <time>2018-08-18T21:09:00Z</time>
      </trkpt>
      <trkpt lat="-28.131475" lon="-65.644935">
        <ele>989.6</ele>
        <time>2018-08-18T21:09:06Z</time>
      </trkpt>
      <trkpt lat="-28.1314" lon="-65.644915">
        <ele>989.9</ele>
        <time>2018-08-18T21:09:11Z</time>
      </trkpt>
      <trkpt lat="-28.131325" lon="-65.64489">
        <ele>990.3</ele>
        <time>2018-08-18T21:09:16Z</time>
      </trkpt>
      <trkpt lat="-28.131255" lon="-65.644885">
        <ele>990.6</ele>
        <time>2018-08-18T21:09:20Z</time>
      </trkpt>
      <trkpt lat="-28.13118" lon="-65.64485">
        <ele>991.0</ele>
        <time>2018-08-18T21:09:24Z</time>
      </trkpt>
      <trkpt lat="-28.131085" lon="-65.64485">
        <ele>991.3</ele>
        <time>2018-08-18T21:09:27Z</time>
      </trkpt>
      <trkpt lat="-28.13099" lon="-65.64485">
        <ele>991.9</ele>
        <time>2018-08-18T21:09:30Z</time>
      </trkpt>
      <trkpt lat="-28.13091" lon="-65.64485">
        <ele>992.5</ele>
        <time>2018-08-18T21:09:33Z</time>
      </trkpt>
      <trkpt lat="-28.13082" lon="-65.64487">
        <ele>993.1</ele>
        <time>2018-08-18T21:09:37Z</time>
      </trkpt>
      <trkpt lat="-28.13073" lon="-65.64489">
        <ele>994.8</ele>
        <time>2018-08-18T21:09:40Z</time>
      </trkpt>
      <trkpt lat="-28.130645" lon="-65.644915">
        <ele>997.1</ele>
        <time>2018-08-18T21:09:42Z</time>
      </trkpt>
      <trkpt lat="-28.130535" lon="-65.644945">
        <ele>999.0</ele>
        <time>2018-08-18T21:09:44Z</time>
      </trkpt>
      <trkpt lat="-28.130425" lon="-65.64499">
        <ele>1000.8</ele>
        <time>2018-08-18T21:09:46Z</time>
      </trkpt>
      <trkpt lat="-28.130315" lon="-65.64503">
        <ele>1001.9</ele>
        <time>2018-08-18T21:09:48Z</time>
      </trkpt>
      <trkpt lat="-28.130205" lon="-65.645105">
        <ele>1002.7</ele>
        <time>2018-08-18T21:09:50Z</time>
      </trkpt>
      <trkpt lat="-28.130105" lon="-65.64516">
        <ele>1003.8</ele>
        <time>2018-08-18T21:09:52Z</time>
      </trkpt>
      <trkpt lat="-28.13" lon="-65.645195">
        <ele>1004.4</ele>
        <time>2018-08-18T21:09:54Z</time>
      </trkpt>
      <trkpt lat="-28.129895" lon="-65.645255">
        <ele>1004.0</ele>
        <time>2018-08-18T21:09:56Z</time>
      </trkpt>
      <trkpt lat="-28.12979" lon="-65.64533">
        <ele>1001.6</ele>
        <time>2018-08-18T21:09:58Z</time>
      </trkpt>
      <trkpt lat="-28.12967" lon="-65.645385">
        <ele>999.5</ele>
        <time>2018-08-18T21:10:00Z</time>
      </trkpt>
      <trkpt lat="-28.129565" lon="-65.64546">
        <ele>996.8</ele>
        <time>2018-08-18T21:10:02Z</time>
      </trkpt>
      <trkpt lat="-28.129465" lon="-65.645515">
        <ele>994.8</ele>
        <time>2018-08-18T21:10:04Z</time>
      </trkpt>
      <trkpt lat="-28.12935" lon="-65.64556">
        <ele>992.3</ele>
        <time>2018-08-18T21:10:06Z</time>
      </trkpt>
      <trkpt lat="-28.12922" lon="-65.645565">
        <ele>990.7</ele>
        <time>2018-08-18T21:10:08Z</time>
      </trkpt>
      <trkpt lat="-28.12909" lon="-65.645525">
        <ele>990.2</ele>
        <time>2018-08-18T21:10:10Z</time>
      </trkpt>
      <trkpt lat="-28.12898" lon="-65.64547">
        <ele>990.6</ele>
        <time>2018-08-18T21:10:12Z</time>
      </trkpt>
      <trkpt lat="-28.12887" lon="-65.645385">
        <ele>990.4</ele>
        <time>2018-08-18T21:10:14Z</time>
      </trkpt>
      <trkpt lat="-28.12879" lon="-65.6453">
        <ele>990.5</ele>
        <time>2018-08-18T21:10:16Z</time>
      </trkpt>
      <trkpt lat="-28.12871" lon="-65.645195">
        <ele>989.5</ele>
        <time>2018-08-18T21:10:18Z</time>
      </trkpt>
      <trkpt lat="-28.128645" lon="-65.645075">
        <ele>987.2</ele>
        <time>2018-08-18T21:10:20Z</time>
      </trkpt>
      <trkpt lat="-28.12861" lon="-65.644945">
        <ele>985.5</ele>
        <time>2018-08-18T21:10:22Z</time>
      </trkpt>
      <trkpt lat="-28.12858" lon="-65.644805">
        <ele>984.8</ele>
        <time>2018-08-18T21:10:24Z</time>
      </trkpt>
      <trkpt lat="-28.128595" lon="-65.64469">
        <ele>983.2</ele>
        <time>2018-08-18T21:10:26Z</time>
      </trkpt>
      <trkpt lat="-28.128615" lon="-65.64458">
        <ele>980.8</ele>
        <time>2018-08-18T21:10:28Z</time>
      </trkpt>
      <trkpt lat="-28.12865" lon="-65.644475">
        <ele>978.9</ele>
        <time>2018-08-18T21:10:30Z</time>
      </trkpt>
      <trkpt lat="-28.128695" lon="-65.644355">
        <ele>978.0</ele>
        <time>2018-08-18T21:10:32Z</time>
      </trkpt>
      <trkpt lat="-28.128735" lon="-65.64424">
        <ele>977.1</ele>
        <time>2018-08-18T21:10:34Z</time>
      </trkpt>
      <trkpt lat="-28.128795" lon="-65.64413">
        <ele>976.8</ele>
        <time>2018-08-18T21:10:36Z</time>
      </trkpt>
      <trkpt lat="-28.12884" lon="-65.644045">
        <ele>976.7</ele>
        <time>2018-08-18T21:10:38Z</time>
      </trkpt>
      <trkpt lat="-28.128875" lon="-65.64395">
        <ele>978.0</ele>
        <time>2018-08-18T21:10:40Z</time>
      </trkpt>
      <trkpt lat="-28.128875" lon="-65.643855">
        <ele>980.1</ele>
        <time>2018-08-18T21:10:42Z</time>
      </trkpt>
      <trkpt lat="-28.12886" lon="-65.643755">
        <ele>982.4</ele>
        <time>2018-08-18T21:10:44Z</time>
      </trkpt>
      <trkpt lat="-28.128815" lon="-65.643675">
        <ele>983.6</ele>
        <time>2018-08-18T21:10:46Z</time>
      </trkpt>
      <trkpt lat="-28.128745" lon="-65.64362">
        <ele>985.0</ele>
        <time>2018-08-18T21:10:48Z</time>
      </trkpt>
      <trkpt lat="-28.12866" lon="-65.643595">
        <ele>986.0</ele>
        <time>2018-08-18T21:10:50Z</time>
      </trkpt>
      <trkpt lat="-28.12859" lon="-65.643595">
        <ele>987.1</ele>
        <time>2018-08-18T21:10:52Z</time>
      </trkpt>
      <trkpt lat="-28.12851" lon="-65.64362">
        <ele>987.4</ele>
        <time>2018-08-18T21:10:54Z</time>
      </trkpt>
      <trkpt lat="-28.12844" lon="-65.64364">
        <ele>987.5</ele>
        <time>2018-08-18T21:10:56Z</time>
      </trkpt>
      <trkpt lat="-28.128355" lon="-65.64368">
        <ele>987.9</ele>
        <time>2018-08-18T21:10:59Z</time>
      </trkpt>
      <trkpt lat="-28.128295" lon="-65.64376">
        <ele>988.4</ele>
        <time>2018-08-18T21:11:02Z</time>
      </trkpt>
      <trkpt lat="-28.128235" lon="-65.643815">
        <ele>988.7</ele>
        <time>2018-08-18T21:11:05Z</time>
      </trkpt>
      <trkpt lat="-28.12819" lon="-65.643885">
        <ele>988.8</ele>
        <time>2018-08-18T21:11:08Z</time>
      </trkpt>
      <trkpt lat="-28.128115" lon="-65.64395">
        <ele>988.8</ele>
        <time>2018-08-18T21:11:11Z</time>
      </trkpt>
      <trkpt lat="-28.12806" lon="-65.644005">
        <ele>988.7</ele>
        <time>2018-08-18T21:11:14Z</time>
      </trkpt>
      <trkpt lat="-28.12799" lon="-65.644085">
        <ele>988.6</ele>
        <time>2018-08-18T21:11:17Z</time>
      </trkpt>
      <trkpt lat="-28.12792" lon="-65.64413">
        <ele>988.5</ele>
        <time>2018-08-18T21:11:20Z</time>
      </trkpt>
      <trkpt lat="-28.12785" lon="-65.644175">
        <ele>988.4</ele>
        <time>2018-08-18T21:11:23Z</time>
      </trkpt>
      <trkpt lat="-28.127785" lon="-65.64421">
        <ele>988.2</ele>
        <time>2018-08-18T21:11:26Z</time>
      </trkpt>
      <trkpt lat="-28.1277" lon="-65.64427">
        <ele>988.1</ele>
        <time>2018-08-18T21:11:30Z</time>
      </trkpt>
      <trkpt lat="-28.12764" lon="-65.644315">
        <ele>987.9</ele>
        <time>2018-08-18T21:11:33Z</time>
      </trkpt>
      <trkpt lat="-28.12756" lon="-65.64434">
        <ele>987.8</ele>
        <time>2018-08-18T21:11:37Z</time>
      </trkpt>
      <trkpt lat="-28.12749" lon="-65.644355">
        <ele>987.9</ele>
        <time>2018-08-18T21:11:41Z</time>
      </trkpt>
      <trkpt lat="-28.127405" lon="-65.6444">
        <ele>987.9</ele>
        <time>2018-08-18T21:11:46Z</time>
      </trkpt>
      <trkpt lat="-28.12732" lon="-65.64443">
        <ele>988.0</ele>
        <time>2018-08-18T21:11:50Z</time>
      </trkpt>
      <trkpt lat="-28.12725" lon="-65.644435">
        <ele>987.9</ele>
        <time>2018-08-18T21:11:54Z</time>
      </trkpt>
      <trkpt lat="-28.12717" lon="-65.644485">
        <ele>987.9</ele>
        <time>2018-08-18T21:11:59Z</time>
      </trkpt>
      <trkpt lat="-28.12709" lon="-65.64451">
        <ele>988.2</ele>
        <time>2018-08-18T21:12:03Z</time>
      </trkpt>
      <trkpt lat="-28.127015" lon="-65.64454">
        <ele>988.7</ele>
        <time>2018-08-18T21:12:07Z</time>
      </trkpt>
      <trkpt lat="-28.12694" lon="-65.644565">
        <ele>989.6</ele>
        <time>2018-08-18T21:12:12Z</time>
      </trkpt>
      <trkpt lat="-28.12687" lon="-65.64458">
        <ele>990.4</ele>
        <time>2018-08-18T21:12:16Z</time>
      </trkpt>
      <trkpt lat="-28.1268" lon="-65.644615">
        <ele>991.1</ele>
        <time>2018-08-18T21:12:21Z</time>
      </trkpt>
      <trkpt lat="-28.126715" lon="-65.644625">
        <ele>991.4</ele>
        <time>2018-08-18T21:12:26Z</time>
      </trkpt>
      <trkpt lat="-28.12664" lon="-65.644645">
        <ele>992.1</ele>
        <time>2018-08-18T21:12:31Z</time>
      </trkpt>
      <trkpt lat="-28.126565" lon="-65.644655">
        <ele>992.6</ele>
        <time>2018-08-18T21:12:35Z</time>
      </trkpt>
      <trkpt lat="-28.12649" lon="-65.64465">
        <ele>993.0</ele>
        <time>2018-08-18T21:12:39Z</time>
      </trkpt>
      <trkpt lat="-28.1264" lon="-65.644625">
        <ele>993.6</ele>
        <time>2018-08-18T21:12:43Z</time>
      </trkpt>
      <trkpt lat="-28.12632" lon="-65.64458">
        <ele>994.3</ele>
        <time>2018-08-18T21:12:47Z</time>
      </trkpt>
      <trkpt lat="-28.12623" lon="-65.644565">
        <ele>995.1</ele>
        <time>2018-08-18T21:12:51Z</time>
      </trkpt>
      <trkpt lat="-28.126145" lon="-65.64453">
        <ele>995.9</ele>
        <time>2018-08-18T21:12:56Z</time>
      </trkpt>
      <trkpt lat="-28.126065" lon="-65.644495">
        <ele>996.4</ele>
        <time>2018-08-18T21:13:00Z</time>
      </trkpt>
      <trkpt lat="-28.125995" lon="-65.644435">
        <ele>996.7</ele>
        <time>2018-08-18T21:13:03Z</time>
      </trkpt>
      <trkpt lat="-28.125935" lon="-65.644355">
        <ele>996.9</ele>
        <time>2018-08-18T21:13:07Z</time>
      </trkpt>
      <trkpt lat="-28.12587" lon="-65.644305">
        <ele>997.4</ele>
        <time>2018-08-18T21:13:11Z</time>
      </trkpt>
      <trkpt lat="-28.125815" lon="-65.64421">
        <ele>997.9</ele>
        <time>2018-08-18T21:13:14Z</time>
      </trkpt>
      <trkpt lat="-28.125765" lon="-65.644165">
        <ele>998.5</ele>
        <time>2018-08-18T21:13:17Z</time>
      </trkpt>
      <trkpt lat="-28.12572" lon="-65.64407">
        <ele>999.1</ele>
        <time>2018-08-18T21:13:21Z</time>
      </trkpt>
      <trkpt lat="-28.125685" lon="-65.643995">
        <ele>999.6</ele>
        <time>2018-08-18T21:13:24Z</time>
      </trkpt>
      <trkpt lat="-28.12565" lon="-65.643905">
        <ele>1000.3</ele>
        <time>2018-08-18T21:13:28Z</time>
      </trkpt>
      <trkpt lat="-28.125615" lon="-65.64382">
        <ele>1001.2</ele>
        <time>2018-08-18T21:13:32Z</time>
      </trkpt>
      <trkpt lat="-28.12559" lon="-65.643735">
        <ele>1002.0</ele>
        <time>2018-08-18T21:13:37Z</time>
      </trkpt>
      <trkpt lat="-28.12558" lon="-65.64364">
        <ele>1002.6</ele>
        <time>2018-08-18T21:13:41Z</time>
      </trkpt>
      <trkpt lat="-28.125565" lon="-65.643545">
        <ele>1003.2</ele>
        <time>2018-08-18T21:13:45Z</time>
      </trkpt>
      <trkpt lat="-28.12556" lon="-65.64344">
        <ele>1003.9</ele>
        <time>2018-08-18T21:13:49Z</time>
      </trkpt>
      <trkpt lat="-28.12557" lon="-65.64333">
        <ele>1004.5</ele>
        <time>2018-08-18T21:13:53Z</time>
      </trkpt>
      <trkpt lat="-28.12558" lon="-65.643225">
        <ele>1005.0</ele>
        <time>2018-08-18T21:13:57Z</time>
      </trkpt>
      <trkpt lat="-28.12559" lon="-65.64317">
        <ele>1005.4</ele>
        <time>2018-08-18T21:14:01Z</time>
      </trkpt>
      <trkpt lat="-28.125605" lon="-65.64306">
        <ele>1005.6</ele>
        <time>2018-08-18T21:14:07Z</time>
      </trkpt>
      <trkpt lat="-28.125615" lon="-65.642975">
        <ele>1005.9</ele>
        <time>2018-08-18T21:14:12Z</time>
      </trkpt>
      <trkpt lat="-28.125645" lon="-65.64288">
        <ele>1006.2</ele>
        <time>2018-08-18T21:14:17Z</time>
      </trkpt>
      <trkpt lat="-28.12567" lon="-65.642795">
        <ele>1006.6</ele>
        <time>2018-08-18T21:14:23Z</time>
      </trkpt>
      <trkpt lat="-28.12569" lon="-65.642695">
        <ele>1006.7</ele>
        <time>2018-08-18T21:14:28Z</time>
      </trkpt>
      <trkpt lat="-28.125705" lon="-65.64261">
        <ele>1006.7</ele>
        <time>2018-08-18T21:14:33Z</time>
      </trkpt>
      <trkpt lat="-28.125695" lon="-65.64251">
        <ele>1006.7</ele>
        <time>2018-08-18T21:14:38Z</time>
      </trkpt>
      <trkpt lat="-28.12566" lon="-65.64243">
        <ele>1006.3</ele>
        <time>2018-08-18T21:14:44Z</time>
      </trkpt>
      <trkpt lat="-28.12561" lon="-65.642375">
        <ele>1006.0</ele>
        <time>2018-08-18T21:14:48Z</time>
      </trkpt>
      <trkpt lat="-28.125535" lon="-65.642325">
        <ele>1005.6</ele>
        <time>2018-08-18T21:14:51Z</time>
      </trkpt>
      <trkpt lat="-28.125455" lon="-65.64227">
        <ele>1005.5</ele>
        <time>2018-08-18T21:14:54Z</time>
      </trkpt>
      <trkpt lat="-28.125385" lon="-65.642235">
        <ele>1005.5</ele>
        <time>2018-08-18T21:14:57Z</time>
      </trkpt>
      <trkpt lat="-28.125305" lon="-65.642205">
        <ele>1005.8</ele>
        <time>2018-08-18T21:15:00Z</time>
      </trkpt>
      <trkpt lat="-28.12521" lon="-65.64223">
        <ele>1006.0</ele>
        <time>2018-08-18T21:15:04Z</time>
      </trkpt>
      <trkpt lat="-28.125125" lon="-65.64227">
        <ele>1006.0</ele>
        <time>2018-08-18T21:15:07Z</time>
      </trkpt>
      <trkpt lat="-28.12507" lon="-65.642325">
        <ele>1005.9</ele>
        <time>2018-08-18T21:15:09Z</time>
      </trkpt>
      <trkpt lat="-28.125" lon="-65.642385">
        <ele>1005.7</ele>
        <time>2018-08-18T21:15:12Z</time>
      </trkpt>
      <trkpt lat="-28.12492" lon="-65.642465">
        <ele>1005.4</ele>
        <time>2018-08-18T21:15:15Z</time>
      </trkpt>
      <trkpt lat="-28.12485" lon="-65.642515">
        <ele>1005.0</ele>
        <time>2018-08-18T21:15:18Z</time>
      </trkpt>
      <trkpt lat="-28.12478" lon="-65.64256">
        <ele>1004.7</ele>
        <time>2018-08-18T21:15:21Z</time>
      </trkpt>
      <trkpt lat="-28.124705" lon="-65.642595">
        <ele>1004.2</ele>
        <time>2018-08-18T21:15:24Z</time>
      </trkpt>
      <trkpt lat="-28.124625" lon="-65.6426">
        <ele>1003.9</ele>
        <time>2018-08-18T21:15:27Z</time>
      </trkpt>
      <trkpt lat="-28.124555" lon="-65.64257">
        <ele>1003.7</ele>
        <time>2018-08-18T21:15:30Z</time>
      </trkpt>
      <trkpt lat="-28.124485" lon="-65.642515">
        <ele>1003.4</ele>
        <time>2018-08-18T21:15:33Z</time>
      </trkpt>
      <trkpt lat="-28.12443" lon="-65.64246">
        <ele>1003.2</ele>
        <time>2018-08-18T21:15:35Z</time>
      </trkpt>
      <trkpt lat="-28.124365" lon="-65.642385">
        <ele>1003.1</ele>
        <time>2018-08-18T21:15:37Z</time>
      </trkpt>
      <trkpt lat="-28.12432" lon="-65.642345">
        <ele>1002.8</ele>
        <time>2018-08-18T21:15:40Z</time>
      </trkpt>
      <trkpt lat="-28.12427" lon="-65.64228">
        <ele>1002.6</ele>
        <time>2018-08-18T21:15:43Z</time>
      </trkpt>
      <trkpt lat="-28.124215" lon="-65.642205">
        <ele>1002.6</ele>
        <time>2018-08-18T21:15:46Z</time>
      </trkpt>
      <trkpt lat="-28.12416" lon="-65.642155">
        <ele>1002.5</ele>
        <time>2018-08-18T21:15:50Z</time>
      </trkpt>
      <trkpt lat="-28.12409" lon="-65.6421">
        <ele>1002.4</ele>
        <time>2018-08-18T21:15:55Z</time>
      </trkpt>
      <trkpt lat="-28.124015" lon="-65.642055">
        <ele>1002.5</ele>
        <time>2018-08-18T21:16:00Z</time>
      </trkpt>
      <trkpt lat="-28.12394" lon="-65.642035">
        <ele>1002.7</ele>
        <time>2018-08-18T21:16:04Z</time>
      </trkpt>
      <trkpt lat="-28.12387" lon="-65.642015">
        <ele>1003.0</ele>
        <time>2018-08-18T21:16:09Z</time>
      </trkpt>
      <trkpt lat="-28.12379" lon="-65.642025">
        <ele>1003.2</ele>
        <time>2018-08-18T21:16:14Z</time>
      </trkpt>
      <trkpt lat="-28.123715" lon="-65.642035">
        <ele>1003.4</ele>
        <time>2018-08-18T21:16:19Z</time>
      </trkpt>
      <trkpt lat="-28.123645" lon="-65.642035">
        <ele>1003.6</ele>
        <time>2018-08-18T21:16:23Z</time>
      </trkpt>
      <trkpt lat="-28.12357" lon="-65.642065">
        <ele>1003.9</ele>
        <time>2018-08-18T21:16:27Z</time>
      </trkpt>
      <trkpt lat="-28.123495" lon="-65.642075">
        <ele>1004.4</ele>
        <time>2018-08-18T21:16:32Z</time>
      </trkpt>
      <trkpt lat="-28.12342" lon="-65.64212">
        <ele>1004.8</ele>
        <time>2018-08-18T21:16:37Z</time>
      </trkpt>
      <trkpt lat="-28.123345" lon="-65.64216">
        <ele>1005.1</ele>
        <time>2018-08-18T21:16:41Z</time>
      </trkpt>
      <trkpt lat="-28.123275" lon="-65.642205">
        <ele>1005.4</ele>
        <time>2018-08-18T21:16:45Z</time>
      </trkpt>
      <trkpt lat="-28.123215" lon="-65.64224">
        <ele>1005.8</ele>
        <time>2018-08-18T21:16:50Z</time>
      </trkpt>
      <trkpt lat="-28.123155" lon="-65.6423">
        <ele>1006.1</ele>
        <time>2018-08-18T21:16:54Z</time>
      </trkpt>
      <trkpt lat="-28.123075" lon="-65.642335">
        <ele>1006.4</ele>
        <time>2018-08-18T21:16:58Z</time>
      </trkpt>
      <trkpt lat="-28.123" lon="-65.642365">
        <ele>1006.8</ele>
        <time>2018-08-18T21:17:02Z</time>
      </trkpt>
      <trkpt lat="-28.122925" lon="-65.642385">
        <ele>1007.0</ele>
        <time>2018-08-18T21:17:06Z</time>
      </trkpt>
      <trkpt lat="-28.122835" lon="-65.64238">
        <ele>1007.1</ele>
        <time>2018-08-18T21:17:10Z</time>
      </trkpt>
      <trkpt lat="-28.122755" lon="-65.642385">
        <ele>1007.2</ele>
        <time>2018-08-18T21:17:14Z</time>
      </trkpt>
      <trkpt lat="-28.12267" lon="-65.642385">
        <ele>1007.1</ele>
        <time>2018-08-18T21:17:17Z</time>
      </trkpt>
      <trkpt lat="-28.1226" lon="-65.642385">
        <ele>1007.1</ele>
        <time>2018-08-18T21:17:19Z</time>
      </trkpt>
      <trkpt lat="-28.122505" lon="-65.642385">
        <ele>1007.1</ele>
        <time>2018-08-18T21:17:22Z</time>
      </trkpt>
      <trkpt lat="-28.122415" lon="-65.64238">
        <ele>1007.2</ele>
        <time>2018-08-18T21:17:25Z</time>
      </trkpt>
      <trkpt lat="-28.122325" lon="-65.642375">
        <ele>1008.1</ele>
        <time>2018-08-18T21:17:27Z</time>
      </trkpt>
      <trkpt lat="-28.122245" lon="-65.642345">
        <ele>1009.5</ele>
        <time>2018-08-18T21:17:29Z</time>
      </trkpt>
      <trkpt lat="-28.12217" lon="-65.642335">
        <ele>1009.9</ele>
        <time>2018-08-18T21:17:31Z</time>
      </trkpt>
      <trkpt lat="-28.12209" lon="-65.64229">
        <ele>1010.5</ele>
        <time>2018-08-18T21:17:33Z</time>
      </trkpt>
      <trkpt lat="-28.122015" lon="-65.642235">
        <ele>1011.7</ele>
        <time>2018-08-18T21:17:35Z</time>
      </trkpt>
      <trkpt lat="-28.121945" lon="-65.64216">
        <ele>1013.2</ele>
        <time>2018-08-18T21:17:37Z</time>
      </trkpt>
      <trkpt lat="-28.121855" lon="-65.642075">
        <ele>1014.5</ele>
        <time>2018-08-18T21:17:39Z</time>
      </trkpt>
      <trkpt lat="-28.12178" lon="-65.642005">
        <ele>1015.1</ele>
        <time>2018-08-18T21:17:41Z</time>
      </trkpt>
      <trkpt lat="-28.121705" lon="-65.641925">
        <ele>1015.5</ele>
        <time>2018-08-18T21:17:43Z</time>
      </trkpt>
      <trkpt lat="-28.12163" lon="-65.64185">
        <ele>1015.9</ele>
        <time>2018-08-18T21:17:45Z</time>
      </trkpt>
      <trkpt lat="-28.121555" lon="-65.6418">
        <ele>1016.5</ele>
        <time>2018-08-18T21:17:47Z</time>
      </trkpt>
      <trkpt lat="-28.12145" lon="-65.641735">
        <ele>1016.4</ele>
        <time>2018-08-18T21:17:50Z</time>
      </trkpt>
      <trkpt lat="-28.12135" lon="-65.6417">
        <ele>1016.3</ele>
        <time>2018-08-18T21:17:53Z</time>
      </trkpt>
      <trkpt lat="-28.121255" lon="-65.6417">
        <ele>1016.3</ele>
        <time>2018-08-18T21:17:56Z</time>
      </trkpt>
      <trkpt lat="-28.121165" lon="-65.641735">
        <ele>1016.4</ele>
        <time>2018-08-18T21:17:59Z</time>
      </trkpt>
      <trkpt lat="-28.121125" lon="-65.641845">
        <ele>1016.6</ele>
        <time>2018-08-18T21:18:02Z</time>
      </trkpt>
      <trkpt lat="-28.121115" lon="-65.641935">
        <ele>1017.0</ele>
        <time>2018-08-18T21:18:04Z</time>
      </trkpt>
      <trkpt lat="-28.1211" lon="-65.64206">
        <ele>1016.7</ele>
        <time>2018-08-18T21:18:06Z</time>
      </trkpt>
      <trkpt lat="-28.121065" lon="-65.64216">
        <ele>1016.3</ele>
        <time>2018-08-18T21:18:08Z</time>
      </trkpt>
      <trkpt lat="-28.121005" lon="-65.642285">
        <ele>1017.0</ele>
        <time>2018-08-18T21:18:10Z</time>
      </trkpt>
      <trkpt lat="-28.120945" lon="-65.642385">
        <ele>1017.1</ele>
        <time>2018-08-18T21:18:12Z</time>
      </trkpt>
      <trkpt lat="-28.12088" lon="-65.642465">
        <ele>1016.6</ele>
        <time>2018-08-18T21:18:14Z</time>
      </trkpt>
      <trkpt lat="-28.120815" lon="-65.64257">
        <ele>1016.1</ele>
        <time>2018-08-18T21:18:16Z</time>
      </trkpt>
      <trkpt lat="-28.120745" lon="-65.64268">
        <ele>1016.0</ele>
        <time>2018-08-18T21:18:18Z</time>
      </trkpt>
      <trkpt lat="-28.120675" lon="-65.642735">
        <ele>1016.0</ele>
        <time>2018-08-18T21:18:20Z</time>
      </trkpt>
      <trkpt lat="-28.120595" lon="-65.642795">
        <ele>1015.9</ele>
        <time>2018-08-18T21:18:23Z</time>
      </trkpt>
      <trkpt lat="-28.12052" lon="-65.642835">
        <ele>1015.7</ele>
        <time>2018-08-18T21:18:26Z</time>
      </trkpt>
      <trkpt lat="-28.12044" lon="-65.64286">
        <ele>1015.3</ele>
        <time>2018-08-18T21:18:29Z</time>
      </trkpt>
      <trkpt lat="-28.120355" lon="-65.64286">
        <ele>1015.2</ele>
        <time>2018-08-18T21:18:32Z</time>
      </trkpt>
      <trkpt lat="-28.120285" lon="-65.642835">
        <ele>1015.1</ele>
        <time>2018-08-18T21:18:36Z</time>
      </trkpt>
      <trkpt lat="-28.1202" lon="-65.642795">
        <ele>1014.8</ele>
        <time>2018-08-18T21:18:40Z</time>
      </trkpt>
      <trkpt lat="-28.12014" lon="-65.64275">
        <ele>1014.9</ele>
        <time>2018-08-18T21:18:44Z</time>
      </trkpt>
      <trkpt lat="-28.120075" lon="-65.642695">
        <ele>1014.9</ele>
        <time>2018-08-18T21:18:48Z</time>
      </trkpt>
      <trkpt lat="-28.120025" lon="-65.642655">
        <ele>1014.6</ele>
        <time>2018-08-18T21:18:51Z</time>
      </trkpt>
      <trkpt lat="-28.119955" lon="-65.64261">
        <ele>1014.2</ele>
        <time>2018-08-18T21:18:54Z</time>
      </trkpt>
      <trkpt lat="-28.11987" lon="-65.642595">
        <ele>1013.6</ele>
        <time>2018-08-18T21:18:57Z</time>
      </trkpt>
      <trkpt lat="-28.119785" lon="-65.642605">
        <ele>1012.9</ele>
        <time>2018-08-18T21:19:00Z</time>
      </trkpt>
      <trkpt lat="-28.11969" lon="-65.642605">
        <ele>1012.0</ele>
        <time>2018-08-18T21:19:05Z</time>
      </trkpt>
      <trkpt lat="-28.119595" lon="-65.642595">
        <ele>1011.7</ele>
        <time>2018-08-18T21:19:12Z</time>
      </trkpt>
      <trkpt lat="-28.119515" lon="-65.64257">
        <ele>1011.2</ele>
        <time>2018-08-18T21:19:17Z</time>
      </trkpt>
      <trkpt lat="-28.11944" lon="-65.64257">
        <ele>1010.6</ele>
        <time>2018-08-18T21:19:21Z</time>
      </trkpt>
      <trkpt lat="-28.119355" lon="-65.64257">
        <ele>1009.5</ele>
        <time>2018-08-18T21:19:26Z</time>
      </trkpt>
      <trkpt lat="-28.119335" lon="-65.64257">
        <ele>1008.0</ele>
        <time>2018-08-18T21:19:33Z</time>
      </trkpt>
      <trkpt lat="-28.119335" lon="-65.64256">
        <ele>1007.6</ele>
        <time>2018-08-18T21:19:35Z</time>
      </trkpt>
      <trkpt lat="-28.1193" lon="-65.64257">
        <ele>1007.6</ele>
        <time>2018-08-18T21:19:43Z</time>
      </trkpt>
      <trkpt lat="-28.11929" lon="-65.64259">
        <ele>1007.7</ele>
        <time>2018-08-18T21:19:44Z</time>
      </trkpt>
      <trkpt lat="-28.11928" lon="-65.64261">
        <ele>1007.5</ele>
        <time>2018-08-18T21:19:52Z</time>
      </trkpt>
      <trkpt lat="-28.119285" lon="-65.64261">
        <ele>1007.4</ele>
        <time>2018-08-18T21:19:53Z</time>
      </trkpt>
      <trkpt lat="-28.119285" lon="-65.64257">
        <ele>1006.5</ele>
        <time>2018-08-18T21:20:03Z</time>
      </trkpt>
      <trkpt lat="-28.1193" lon="-65.64255">
        <ele>1006.5</ele>
        <time>2018-08-18T21:20:05Z</time>
      </trkpt>
      <trkpt lat="-28.11932" lon="-65.642525">
        <ele>1006.6</ele>
        <time>2018-08-18T21:20:12Z</time>
      </trkpt>
      <trkpt lat="-28.11932" lon="-65.642525">
        <ele>1006.6</ele>
        <time>2018-08-18T21:20:13Z</time>
      </trkpt>
      <trkpt lat="-28.11886" lon="-65.642695">
        <ele>1055.4</ele>
        <time>2018-08-19T14:24:08Z</time>
      </trkpt>
      <trkpt lat="-28.11886" lon="-65.642695">
        <ele>1055.4</ele>
        <time>2018-08-19T14:24:09Z</time>
      </trkpt>
      <trkpt lat="-28.118965" lon="-65.642695">
        <ele>1042.8</ele>
        <time>2018-08-19T14:24:12Z</time>
      </trkpt>
      <trkpt lat="-28.119075" lon="-65.642695">
        <ele>1017.7</ele>
        <time>2018-08-19T14:24:19Z</time>
      </trkpt>
      <trkpt lat="-28.1191" lon="-65.642785">
        <ele>1020.3</ele>
        <time>2018-08-19T14:24:25Z</time>
      </trkpt>
      <trkpt lat="-28.11911" lon="-65.64273">
        <ele>1025.1</ele>
        <time>2018-08-19T14:24:32Z</time>
      </trkpt>
      <trkpt lat="-28.119085" lon="-65.642675">
        <ele>1010.3</ele>
        <time>2018-08-19T14:24:39Z</time>
      </trkpt>
      <trkpt lat="-28.119085" lon="-65.642675">
        <ele>1008.0</ele>
        <time>2018-08-19T14:24:43Z</time>
      </trkpt>
      <trkpt lat="-28.119175" lon="-65.64261">
        <ele>1008.5</ele>
        <time>2018-08-19T14:25:16Z</time>
      </trkpt>
      <trkpt lat="-28.11923" lon="-65.64254">
        <ele>1008.8</ele>
        <time>2018-08-19T14:25:22Z</time>
      </trkpt>
      <trkpt lat="-28.11924" lon="-65.64254">
        <ele>1008.9</ele>
        <time>2018-08-19T14:25:29Z</time>
      </trkpt>
      <trkpt lat="-28.119315" lon="-65.64254">
        <ele>1009.4</ele>
        <time>2018-08-19T14:25:35Z</time>
      </trkpt>
      <trkpt lat="-28.119405" lon="-65.64254">
        <ele>1009.3</ele>
        <time>2018-08-19T14:25:40Z</time>
      </trkpt>
      <trkpt lat="-28.11948" lon="-65.64254">
        <ele>1009.3</ele>
        <time>2018-08-19T14:25:45Z</time>
      </trkpt>
      <trkpt lat="-28.119575" lon="-65.64256">
        <ele>1009.4</ele>
        <time>2018-08-19T14:25:49Z</time>
      </trkpt>
      <trkpt lat="-28.119665" lon="-65.64256">
        <ele>1009.3</ele>
        <time>2018-08-19T14:25:53Z</time>
      </trkpt>
      <trkpt lat="-28.119735" lon="-65.64254">
        <ele>1009.2</ele>
        <time>2018-08-19T14:25:58Z</time>
      </trkpt>
      <trkpt lat="-28.11982" lon="-65.64255">
        <ele>1009.4</ele>
        <time>2018-08-19T14:26:03Z</time>
      </trkpt>
      <trkpt lat="-28.11989" lon="-65.64256">
        <ele>1009.5</ele>
        <time>2018-08-19T14:26:07Z</time>
      </trkpt>
      <trkpt lat="-28.11996" lon="-65.64259">
        <ele>1009.7</ele>
        <time>2018-08-19T14:26:12Z</time>
      </trkpt>
      <trkpt lat="-28.120025" lon="-65.64261">
        <ele>1009.9</ele>
        <time>2018-08-19T14:26:16Z</time>
      </trkpt>
      <trkpt lat="-28.12008" lon="-65.642685">
        <ele>1010.1</ele>
        <time>2018-08-19T14:26:21Z</time>
      </trkpt>
      <trkpt lat="-28.12014" lon="-65.642735">
        <ele>1010.2</ele>
        <time>2018-08-19T14:26:26Z</time>
      </trkpt>
      <trkpt lat="-28.1202" lon="-65.642795">
        <ele>1010.2</ele>
        <time>2018-08-19T14:26:30Z</time>
      </trkpt>
      <trkpt lat="-28.120285" lon="-65.64283">
        <ele>1010.2</ele>
        <time>2018-08-19T14:26:34Z</time>
      </trkpt>
      <trkpt lat="-28.12037" lon="-65.642835">
        <ele>1010.2</ele>
        <time>2018-08-19T14:26:37Z</time>
      </trkpt>
      <trkpt lat="-28.120455" lon="-65.642835">
        <ele>1010.2</ele>
        <time>2018-08-19T14:26:41Z</time>
      </trkpt>
      <trkpt lat="-28.120545" lon="-65.642795">
        <ele>1010.2</ele>
        <time>2018-08-19T14:26:46Z</time>
      </trkpt>
      <trkpt lat="-28.120625" lon="-65.64273">
        <ele>1010.3</ele>
        <time>2018-08-19T14:26:50Z</time>
      </trkpt>
      <trkpt lat="-28.120685" lon="-65.642655">
        <ele>1010.3</ele>
        <time>2018-08-19T14:26:53Z</time>
      </trkpt>
      <trkpt lat="-28.12075" lon="-65.64259">
        <ele>1010.4</ele>
        <time>2018-08-19T14:26:57Z</time>
      </trkpt>
      <trkpt lat="-28.120805" lon="-65.642515">
        <ele>1010.6</ele>
        <time>2018-08-19T14:27:01Z</time>
      </trkpt>
      <trkpt lat="-28.12087" lon="-65.64245">
        <ele>1010.9</ele>
        <time>2018-08-19T14:27:05Z</time>
      </trkpt>
      <trkpt lat="-28.120935" lon="-65.642385">
        <ele>1011.0</ele>
        <time>2018-08-19T14:27:08Z</time>
      </trkpt>
      <trkpt lat="-28.120995" lon="-65.6423">
        <ele>1011.4</ele>
        <time>2018-08-19T14:27:12Z</time>
      </trkpt>
      <trkpt lat="-28.12103" lon="-65.642235">
        <ele>1011.6</ele>
        <time>2018-08-19T14:27:15Z</time>
      </trkpt>
      <trkpt lat="-28.12107" lon="-65.642155">
        <ele>1011.7</ele>
        <time>2018-08-19T14:27:18Z</time>
      </trkpt>
      <trkpt lat="-28.121105" lon="-65.64207">
        <ele>1011.8</ele>
        <time>2018-08-19T14:27:21Z</time>
      </trkpt>
      <trkpt lat="-28.121105" lon="-65.641975">
        <ele>1012.0</ele>
        <time>2018-08-19T14:27:24Z</time>
      </trkpt>
      <trkpt lat="-28.121105" lon="-65.64189">
        <ele>1012.3</ele>
        <time>2018-08-19T14:27:27Z</time>
      </trkpt>
      <trkpt lat="-28.121115" lon="-65.64179">
        <ele>1012.6</ele>
        <time>2018-08-19T14:27:32Z</time>
      </trkpt>
      <trkpt lat="-28.12116" lon="-65.64171">
        <ele>1012.9</ele>
        <time>2018-08-19T14:27:36Z</time>
      </trkpt>
      <trkpt lat="-28.12122" lon="-65.64167">
        <ele>1013.2</ele>
        <time>2018-08-19T14:27:41Z</time>
      </trkpt>
      <trkpt lat="-28.121255" lon="-65.64167">
        <ele>1012.7</ele>
        <time>2018-08-19T14:27:48Z</time>
      </trkpt>
      <trkpt lat="-28.121255" lon="-65.64167">
        <ele>1012.6</ele>
        <time>2018-08-19T14:27:50Z</time>
      </trkpt>
      <trkpt lat="-28.12127" lon="-65.64169">
        <ele>1012.5</ele>
        <time>2018-08-19T14:28:00Z</time>
      </trkpt>
      <trkpt lat="-28.12127" lon="-65.641695">
        <ele>1012.5</ele>
        <time>2018-08-19T14:28:01Z</time>
      </trkpt>
      <trkpt lat="-28.12127" lon="-65.64167">
        <ele>1012.5</ele>
        <time>2018-08-19T14:28:10Z</time>
      </trkpt>
      <trkpt lat="-28.12126" lon="-65.64167">
        <ele>1012.6</ele>
        <time>2018-08-19T14:28:11Z</time>
      </trkpt>
      <trkpt lat="-28.12126" lon="-65.641695">
        <ele>1011.7</ele>
        <time>2018-08-19T14:28:30Z</time>
      </trkpt>
      <trkpt lat="-28.12126" lon="-65.6417">
        <ele>1011.7</ele>
        <time>2018-08-19T14:28:31Z</time>
      </trkpt>
      <trkpt lat="-28.121245" lon="-65.64167">
        <ele>1011.8</ele>
        <time>2018-08-19T14:28:46Z</time>
      </trkpt>
      <trkpt lat="-28.12124" lon="-65.64167">
        <ele>1011.8</ele>
        <time>2018-08-19T14:28:47Z</time>
      </trkpt>
      <trkpt lat="-28.121235" lon="-65.64167">
        <ele>1011.9</ele>
        <time>2018-08-19T14:28:58Z</time>
      </trkpt>
      <trkpt lat="-28.121235" lon="-65.64167">
        <ele>1011.9</ele>
        <time>2018-08-19T14:28:59Z</time>
      </trkpt>
      <trkpt lat="-28.12125" lon="-65.64167">
        <ele>1012.0</ele>
        <time>2018-08-19T14:29:32Z</time>
      </trkpt>
      <trkpt lat="-28.12125" lon="-65.64167">
        <ele>1012.0</ele>
        <time>2018-08-19T14:29:33Z</time>
      </trkpt>
      <trkpt lat="-28.12127" lon="-65.64167">
        <ele>1012.1</ele>
        <time>2018-08-19T14:29:56Z</time>
      </trkpt>
      <trkpt lat="-28.12126" lon="-65.64167">
        <ele>1012.1</ele>
        <time>2018-08-19T14:29:57Z</time>
      </trkpt>
      <trkpt lat="-28.121255" lon="-65.64167">
        <ele>1012.2</ele>
        <time>2018-08-19T14:30:15Z</time>
      </trkpt>
      <trkpt lat="-28.121255" lon="-65.64167">
        <ele>1012.2</ele>
        <time>2018-08-19T14:30:16Z</time>
      </trkpt>
      <trkpt lat="-28.12134" lon="-65.6417">
        <ele>1014.0</ele>
        <time>2018-08-19T14:34:17Z</time>
      </trkpt>
      <trkpt lat="-28.12143" lon="-65.64171">
        <ele>1014.2</ele>
        <time>2018-08-19T14:34:23Z</time>
      </trkpt>
      <trkpt lat="-28.121495" lon="-65.641755">
        <ele>1014.2</ele>
        <time>2018-08-19T14:34:26Z</time>
      </trkpt>
      <trkpt lat="-28.12158" lon="-65.64181">
        <ele>1013.9</ele>
        <time>2018-08-19T14:34:30Z</time>
      </trkpt>
      <trkpt lat="-28.12164" lon="-65.64185">
        <ele>1013.8</ele>
        <time>2018-08-19T14:34:33Z</time>
      </trkpt>
      <trkpt lat="-28.12171" lon="-65.641935">
        <ele>1013.8</ele>
        <time>2018-08-19T14:34:37Z</time>
      </trkpt>
      <trkpt lat="-28.12179" lon="-65.64201">
        <ele>1013.7</ele>
        <time>2018-08-19T14:34:41Z</time>
      </trkpt>
      <trkpt lat="-28.12185" lon="-65.64207">
        <ele>1013.6</ele>
        <time>2018-08-19T14:34:44Z</time>
      </trkpt>
      <trkpt lat="-28.12191" lon="-65.64212">
        <ele>1013.6</ele>
        <time>2018-08-19T14:34:47Z</time>
      </trkpt>
      <trkpt lat="-28.12198" lon="-65.642195">
        <ele>1013.6</ele>
        <time>2018-08-19T14:34:50Z</time>
      </trkpt>
      <trkpt lat="-28.12205" lon="-65.64224">
        <ele>1013.7</ele>
        <time>2018-08-19T14:34:53Z</time>
      </trkpt>
      <trkpt lat="-28.12213" lon="-65.642285">
        <ele>1013.7</ele>
        <time>2018-08-19T14:34:56Z</time>
      </trkpt>
      <trkpt lat="-28.122205" lon="-65.642315">
        <ele>1013.7</ele>
        <time>2018-08-19T14:34:59Z</time>
      </trkpt>
      <trkpt lat="-28.122305" lon="-65.642335">
        <ele>1013.8</ele>
        <time>2018-08-19T14:35:02Z</time>
      </trkpt>
      <trkpt lat="-28.122385" lon="-65.642345">
        <ele>1013.9</ele>
        <time>2018-08-19T14:35:05Z</time>
      </trkpt>
      <trkpt lat="-28.122465" lon="-65.642345">
        <ele>1013.9</ele>
        <time>2018-08-19T14:35:08Z</time>
      </trkpt>
      <trkpt lat="-28.12255" lon="-65.642345">
        <ele>1014.0</ele>
        <time>2018-08-19T14:35:11Z</time>
      </trkpt>
      <trkpt lat="-28.122635" lon="-65.642335">
        <ele>1014.0</ele>
        <time>2018-08-19T14:35:14Z</time>
      </trkpt>
      <trkpt lat="-28.122725" lon="-65.642345">
        <ele>1014.1</ele>
        <time>2018-08-19T14:35:17Z</time>
      </trkpt>
      <trkpt lat="-28.12281" lon="-65.642335">
        <ele>1014.2</ele>
        <time>2018-08-19T14:35:20Z</time>
      </trkpt>
      <trkpt lat="-28.122895" lon="-65.642325">
        <ele>1014.3</ele>
        <time>2018-08-19T14:35:23Z</time>
      </trkpt>
      <trkpt lat="-28.12299" lon="-65.6423">
        <ele>1014.3</ele>
        <time>2018-08-19T14:35:26Z</time>
      </trkpt>
      <trkpt lat="-28.123085" lon="-65.64227">
        <ele>1014.3</ele>
        <time>2018-08-19T14:35:29Z</time>
      </trkpt>
      <trkpt lat="-28.12318" lon="-65.642235">
        <ele>1014.3</ele>
        <time>2018-08-19T14:35:32Z</time>
      </trkpt>
      <trkpt lat="-28.123255" lon="-65.642185">
        <ele>1014.3</ele>
        <time>2018-08-19T14:35:35Z</time>
      </trkpt>
      <trkpt lat="-28.123335" lon="-65.64212">
        <ele>1014.2</ele>
        <time>2018-08-19T14:35:38Z</time>
      </trkpt>
      <trkpt lat="-28.123405" lon="-65.642075">
        <ele>1013.2</ele>
        <time>2018-08-19T14:35:40Z</time>
      </trkpt>
      <trkpt lat="-28.123475" lon="-65.642055">
        <ele>1011.7</ele>
        <time>2018-08-19T14:35:42Z</time>
      </trkpt>
      <trkpt lat="-28.123545" lon="-65.642035">
        <ele>1011.6</ele>
        <time>2018-08-19T14:35:44Z</time>
      </trkpt>
      <trkpt lat="-28.123645" lon="-65.642015">
        <ele>1011.5</ele>
        <time>2018-08-19T14:35:47Z</time>
      </trkpt>
      <trkpt lat="-28.123735" lon="-65.64201">
        <ele>1011.4</ele>
        <time>2018-08-19T14:35:50Z</time>
      </trkpt>
      <trkpt lat="-28.12382" lon="-65.642005">
        <ele>1011.3</ele>
        <time>2018-08-19T14:35:53Z</time>
      </trkpt>
      <trkpt lat="-28.12389" lon="-65.64201">
        <ele>1011.1</ele>
        <time>2018-08-19T14:35:56Z</time>
      </trkpt>
      <trkpt lat="-28.12397" lon="-65.642025">
        <ele>1010.8</ele>
        <time>2018-08-19T14:35:59Z</time>
      </trkpt>
      <trkpt lat="-28.12405" lon="-65.642065">
        <ele>1010.5</ele>
        <time>2018-08-19T14:36:02Z</time>
      </trkpt>
      <trkpt lat="-28.12414" lon="-65.642145">
        <ele>1007.8</ele>
        <time>2018-08-19T14:36:05Z</time>
      </trkpt>
      <trkpt lat="-28.1242" lon="-65.642205">
        <ele>1006.3</ele>
        <time>2018-08-19T14:36:07Z</time>
      </trkpt>
      <trkpt lat="-28.12426" lon="-65.64229">
        <ele>1005.7</ele>
        <time>2018-08-19T14:36:09Z</time>
      </trkpt>
      <trkpt lat="-28.12433" lon="-65.64238">
        <ele>1005.3</ele>
        <time>2018-08-19T14:36:11Z</time>
      </trkpt>
      <trkpt lat="-28.124405" lon="-65.64245">
        <ele>1004.7</ele>
        <time>2018-08-19T14:36:13Z</time>
      </trkpt>
      <trkpt lat="-28.124485" lon="-65.642515">
        <ele>1004.5</ele>
        <time>2018-08-19T14:36:16Z</time>
      </trkpt>
      <trkpt lat="-28.124575" lon="-65.64257">
        <ele>1004.4</ele>
        <time>2018-08-19T14:36:19Z</time>
      </trkpt>
      <trkpt lat="-28.12465" lon="-65.64257">
        <ele>1004.3</ele>
        <time>2018-08-19T14:36:22Z</time>
      </trkpt>
      <trkpt lat="-28.124725" lon="-65.64256">
        <ele>1004.1</ele>
        <time>2018-08-19T14:36:25Z</time>
      </trkpt>
      <trkpt lat="-28.12481" lon="-65.64251">
        <ele>1004.1</ele>
        <time>2018-08-19T14:36:28Z</time>
      </trkpt>
      <trkpt lat="-28.124885" lon="-65.642455">
        <ele>1004.0</ele>
        <time>2018-08-19T14:36:31Z</time>
      </trkpt>
      <trkpt lat="-28.124955" lon="-65.642385">
        <ele>1004.1</ele>
        <time>2018-08-19T14:36:34Z</time>
      </trkpt>
      <trkpt lat="-28.12502" lon="-65.642315">
        <ele>1004.2</ele>
        <time>2018-08-19T14:36:37Z</time>
      </trkpt>
      <trkpt lat="-28.125085" lon="-65.64224">
        <ele>1004.2</ele>
        <time>2018-08-19T14:36:40Z</time>
      </trkpt>
      <trkpt lat="-28.125175" lon="-65.642205">
        <ele>1004.2</ele>
        <time>2018-08-19T14:36:43Z</time>
      </trkpt>
      <trkpt lat="-28.125275" lon="-65.6422">
        <ele>1004.2</ele>
        <time>2018-08-19T14:36:46Z</time>
      </trkpt>
      <trkpt lat="-28.125365" lon="-65.642205">
        <ele>1004.1</ele>
        <time>2018-08-19T14:36:49Z</time>
      </trkpt>
      <trkpt lat="-28.125435" lon="-65.64224">
        <ele>1004.1</ele>
        <time>2018-08-19T14:36:53Z</time>
      </trkpt>
      <trkpt lat="-28.125515" lon="-65.6423">
        <ele>1004.0</ele>
        <time>2018-08-19T14:36:57Z</time>
      </trkpt>
      <trkpt lat="-28.12558" lon="-65.642345">
        <ele>1003.9</ele>
        <time>2018-08-19T14:37:02Z</time>
      </trkpt>
      <trkpt lat="-28.125635" lon="-65.642425">
        <ele>1004.1</ele>
        <time>2018-08-19T14:37:08Z</time>
      </trkpt>
      <trkpt lat="-28.125655" lon="-65.642515">
        <ele>1004.1</ele>
        <time>2018-08-19T14:37:13Z</time>
      </trkpt>
      <trkpt lat="-28.12566" lon="-65.6426">
        <ele>1004.3</ele>
        <time>2018-08-19T14:37:16Z</time>
      </trkpt>
      <trkpt lat="-28.12565" lon="-65.642695">
        <ele>1004.7</ele>
        <time>2018-08-19T14:37:21Z</time>
      </trkpt>
      <trkpt lat="-28.12564" lon="-65.642775">
        <ele>1005.0</ele>
        <time>2018-08-19T14:37:26Z</time>
      </trkpt>
      <trkpt lat="-28.125625" lon="-65.64286">
        <ele>1005.5</ele>
        <time>2018-08-19T14:37:33Z</time>
      </trkpt>
      <trkpt lat="-28.12561" lon="-65.642945">
        <ele>1005.5</ele>
        <time>2018-08-19T14:37:40Z</time>
      </trkpt>
      <trkpt lat="-28.12559" lon="-65.64302">
        <ele>1005.7</ele>
        <time>2018-08-19T14:37:44Z</time>
      </trkpt>
      <trkpt lat="-28.12557" lon="-65.643105">
        <ele>1005.6</ele>
        <time>2018-08-19T14:37:47Z</time>
      </trkpt>
      <trkpt lat="-28.125555" lon="-65.643225">
        <ele>1005.3</ele>
        <time>2018-08-19T14:37:50Z</time>
      </trkpt>
      <trkpt lat="-28.12555" lon="-65.64331">
        <ele>1004.5</ele>
        <time>2018-08-19T14:37:52Z</time>
      </trkpt>
      <trkpt lat="-28.12554" lon="-65.643415">
        <ele>1003.9</ele>
        <time>2018-08-19T14:37:54Z</time>
      </trkpt>
      <trkpt lat="-28.12554" lon="-65.643535">
        <ele>1004.2</ele>
        <time>2018-08-19T14:37:57Z</time>
      </trkpt>
      <trkpt lat="-28.125555" lon="-65.643665">
        <ele>1004.2</ele>
        <time>2018-08-19T14:37:59Z</time>
      </trkpt>
      <trkpt lat="-28.12558" lon="-65.64378">
        <ele>1003.6</ele>
        <time>2018-08-19T14:38:01Z</time>
      </trkpt>
      <trkpt lat="-28.125615" lon="-65.6439">
        <ele>1003.2</ele>
        <time>2018-08-19T14:38:03Z</time>
      </trkpt>
      <trkpt lat="-28.12566" lon="-65.644005">
        <ele>1002.6</ele>
        <time>2018-08-19T14:38:05Z</time>
      </trkpt>
      <trkpt lat="-28.125715" lon="-65.64409">
        <ele>1001.8</ele>
        <time>2018-08-19T14:38:07Z</time>
      </trkpt>
      <trkpt lat="-28.12577" lon="-65.644175">
        <ele>1000.8</ele>
        <time>2018-08-19T14:38:09Z</time>
      </trkpt>
      <trkpt lat="-28.125835" lon="-65.64427">
        <ele>1000.0</ele>
        <time>2018-08-19T14:38:11Z</time>
      </trkpt>
      <trkpt lat="-28.125905" lon="-65.644355">
        <ele>999.2</ele>
        <time>2018-08-19T14:38:13Z</time>
      </trkpt>
      <trkpt lat="-28.125955" lon="-65.6444">
        <ele>998.5</ele>
        <time>2018-08-19T14:38:15Z</time>
      </trkpt>
      <trkpt lat="-28.12605" lon="-65.644465">
        <ele>998.0</ele>
        <time>2018-08-19T14:38:17Z</time>
      </trkpt>
      <trkpt lat="-28.12614" lon="-65.64451">
        <ele>997.6</ele>
        <time>2018-08-19T14:38:19Z</time>
      </trkpt>
      <trkpt lat="-28.12623" lon="-65.64454">
        <ele>997.3</ele>
        <time>2018-08-19T14:38:21Z</time>
      </trkpt>
      <trkpt lat="-28.126325" lon="-65.64458">
        <ele>996.9</ele>
        <time>2018-08-19T14:38:23Z</time>
      </trkpt>
      <trkpt lat="-28.12641" lon="-65.644605">
        <ele>996.8</ele>
        <time>2018-08-19T14:38:25Z</time>
      </trkpt>
      <trkpt lat="-28.1265" lon="-65.64462">
        <ele>996.5</ele>
        <time>2018-08-19T14:38:27Z</time>
      </trkpt>
      <trkpt lat="-28.126585" lon="-65.64462">
        <ele>996.0</ele>
        <time>2018-08-19T14:38:29Z</time>
      </trkpt>
      <trkpt lat="-28.12667" lon="-65.644605">
        <ele>996.2</ele>
        <time>2018-08-19T14:38:31Z</time>
      </trkpt>
      <trkpt lat="-28.126765" lon="-65.64458">
        <ele>996.2</ele>
        <time>2018-08-19T14:38:33Z</time>
      </trkpt>
      <trkpt lat="-28.126855" lon="-65.64454">
        <ele>996.0</ele>
        <time>2018-08-19T14:38:35Z</time>
      </trkpt>
      <trkpt lat="-28.12697" lon="-65.64451">
        <ele>995.6</ele>
        <time>2018-08-19T14:38:37Z</time>
      </trkpt>
      <trkpt lat="-28.127085" lon="-65.644475">
        <ele>995.7</ele>
        <time>2018-08-19T14:38:39Z</time>
      </trkpt>
      <trkpt lat="-28.127195" lon="-65.644435">
        <ele>995.5</ele>
        <time>2018-08-19T14:38:41Z</time>
      </trkpt>
      <trkpt lat="-28.127295" lon="-65.6444">
        <ele>994.8</ele>
        <time>2018-08-19T14:38:43Z</time>
      </trkpt>
      <trkpt lat="-28.127395" lon="-65.644355">
        <ele>994.3</ele>
        <time>2018-08-19T14:38:45Z</time>
      </trkpt>
      <trkpt lat="-28.127495" lon="-65.644315">
        <ele>992.8</ele>
        <time>2018-08-19T14:38:47Z</time>
      </trkpt>
      <trkpt lat="-28.127585" lon="-65.64426">
        <ele>991.6</ele>
        <time>2018-08-19T14:38:49Z</time>
      </trkpt>
      <trkpt lat="-28.12768" lon="-65.64421">
        <ele>991.4</ele>
        <time>2018-08-19T14:38:51Z</time>
      </trkpt>
      <trkpt lat="-28.12777" lon="-65.644155">
        <ele>990.7</ele>
        <time>2018-08-19T14:38:53Z</time>
      </trkpt>
      <trkpt lat="-28.12787" lon="-65.64408">
        <ele>990.6</ele>
        <time>2018-08-19T14:38:55Z</time>
      </trkpt>
      <trkpt lat="-28.12795" lon="-65.644005">
        <ele>990.5</ele>
        <time>2018-08-19T14:38:57Z</time>
      </trkpt>
      <trkpt lat="-28.128045" lon="-65.64393">
        <ele>990.3</ele>
        <time>2018-08-19T14:38:59Z</time>
      </trkpt>
      <trkpt lat="-28.12813" lon="-65.643845">
        <ele>990.0</ele>
        <time>2018-08-19T14:39:01Z</time>
      </trkpt>
      <trkpt lat="-28.12821" lon="-65.64377">
        <ele>988.8</ele>
        <time>2018-08-19T14:39:03Z</time>
      </trkpt>
      <trkpt lat="-28.1283" lon="-65.64368">
        <ele>987.5</ele>
        <time>2018-08-19T14:39:05Z</time>
      </trkpt>
      <trkpt lat="-28.12839" lon="-65.64362">
        <ele>985.6</ele>
        <time>2018-08-19T14:39:07Z</time>
      </trkpt>
      <trkpt lat="-28.12848" lon="-65.643575">
        <ele>984.5</ele>
        <time>2018-08-19T14:39:09Z</time>
      </trkpt>
      <trkpt lat="-28.12857" lon="-65.643555">
        <ele>985.1</ele>
        <time>2018-08-19T14:39:11Z</time>
      </trkpt>
      <trkpt lat="-28.128685" lon="-65.64359">
        <ele>985.5</ele>
        <time>2018-08-19T14:39:13Z</time>
      </trkpt>
      <trkpt lat="-28.12876" lon="-65.64364">
        <ele>985.2</ele>
        <time>2018-08-19T14:39:15Z</time>
      </trkpt>
      <trkpt lat="-28.128805" lon="-65.643705">
        <ele>985.1</ele>
        <time>2018-08-19T14:39:17Z</time>
      </trkpt>
      <trkpt lat="-28.128825" lon="-65.64381">
        <ele>985.2</ele>
        <time>2018-08-19T14:39:20Z</time>
      </trkpt>
      <trkpt lat="-28.12882" lon="-65.643905">
        <ele>985.5</ele>
        <time>2018-08-19T14:39:23Z</time>
      </trkpt>
      <trkpt lat="-28.128795" lon="-65.643995">
        <ele>985.8</ele>
        <time>2018-08-19T14:39:26Z</time>
      </trkpt>
      <trkpt lat="-28.12876" lon="-65.64407">
        <ele>986.0</ele>
        <time>2018-08-19T14:39:29Z</time>
      </trkpt>
      <trkpt lat="-28.128715" lon="-65.64417">
        <ele>986.2</ele>
        <time>2018-08-19T14:39:32Z</time>
      </trkpt>
      <trkpt lat="-28.12867" lon="-65.64426">
        <ele>986.3</ele>
        <time>2018-08-19T14:39:35Z</time>
      </trkpt>
      <trkpt lat="-28.128635" lon="-65.644335">
        <ele>986.4</ele>
        <time>2018-08-19T14:39:37Z</time>
      </trkpt>
      <trkpt lat="-28.128605" lon="-65.64442">
        <ele>986.8</ele>
        <time>2018-08-19T14:39:39Z</time>
      </trkpt>
      <trkpt lat="-28.12858" lon="-65.64454">
        <ele>986.8</ele>
        <time>2018-08-19T14:39:42Z</time>
      </trkpt>
      <trkpt lat="-28.128565" lon="-65.644625">
        <ele>986.8</ele>
        <time>2018-08-19T14:39:44Z</time>
      </trkpt>
      <trkpt lat="-28.12856" lon="-65.64471">
        <ele>986.8</ele>
        <time>2018-08-19T14:39:46Z</time>
      </trkpt>
      <trkpt lat="-28.128565" lon="-65.64483">
        <ele>986.9</ele>
        <time>2018-08-19T14:39:49Z</time>
      </trkpt>
      <trkpt lat="-28.12858" lon="-65.644935">
        <ele>987.2</ele>
        <time>2018-08-19T14:39:52Z</time>
      </trkpt>
      <trkpt lat="-28.128615" lon="-65.64503">
        <ele>987.4</ele>
        <time>2018-08-19T14:39:55Z</time>
      </trkpt>
      <trkpt lat="-28.128645" lon="-65.645115">
        <ele>987.8</ele>
        <time>2018-08-19T14:39:58Z</time>
      </trkpt>
      <trkpt lat="-28.128685" lon="-65.645195">
        <ele>988.2</ele>
        <time>2018-08-19T14:40:01Z</time>
      </trkpt>
      <trkpt lat="-28.12875" lon="-65.64528">
        <ele>988.6</ele>
        <time>2018-08-19T14:40:04Z</time>
      </trkpt>
      <trkpt lat="-28.128825" lon="-65.64534">
        <ele>989.0</ele>
        <time>2018-08-19T14:40:07Z</time>
      </trkpt>
      <trkpt lat="-28.128905" lon="-65.64542">
        <ele>989.2</ele>
        <time>2018-08-19T14:40:10Z</time>
      </trkpt>
      <trkpt lat="-28.128995" lon="-65.64547">
        <ele>989.3</ele>
        <time>2018-08-19T14:40:13Z</time>
      </trkpt>
      <trkpt lat="-28.12908" lon="-65.645495">
        <ele>989.3</ele>
        <time>2018-08-19T14:40:16Z</time>
      </trkpt>
      <trkpt lat="-28.129165" lon="-65.645525">
        <ele>989.4</ele>
        <time>2018-08-19T14:40:19Z</time>
      </trkpt>
      <trkpt lat="-28.129245" lon="-65.645525">
        <ele>989.5</ele>
        <time>2018-08-19T14:40:22Z</time>
      </trkpt>
      <trkpt lat="-28.12933" lon="-65.645525">
        <ele>989.5</ele>
        <time>2018-08-19T14:40:25Z</time>
      </trkpt>
      <trkpt lat="-28.12941" lon="-65.645495">
        <ele>989.5</ele>
        <time>2018-08-19T14:40:28Z</time>
      </trkpt>
      <trkpt lat="-28.129505" lon="-65.645465">
        <ele>989.5</ele>
        <time>2018-08-19T14:40:31Z</time>
      </trkpt>
      <trkpt lat="-28.12958" lon="-65.64542">
        <ele>989.7</ele>
        <time>2018-08-19T14:40:34Z</time>
      </trkpt>
      <trkpt lat="-28.12966" lon="-65.645365">
        <ele>989.8</ele>
        <time>2018-08-19T14:40:37Z</time>
      </trkpt>
      <trkpt lat="-28.12974" lon="-65.645335">
        <ele>990.0</ele>
        <time>2018-08-19T14:40:40Z</time>
      </trkpt>
      <trkpt lat="-28.12982" lon="-65.6453">
        <ele>990.1</ele>
        <time>2018-08-19T14:40:43Z</time>
      </trkpt>
      <trkpt lat="-28.129895" lon="-65.645255">
        <ele>990.2</ele>
        <time>2018-08-19T14:40:46Z</time>
      </trkpt>
      <trkpt lat="-28.129975" lon="-65.645195">
        <ele>990.3</ele>
        <time>2018-08-19T14:40:49Z</time>
      </trkpt>
      <trkpt lat="-28.13005" lon="-65.64516">
        <ele>990.5</ele>
        <time>2018-08-19T14:40:52Z</time>
      </trkpt>
      <trkpt lat="-28.130125" lon="-65.645115">
        <ele>990.7</ele>
        <time>2018-08-19T14:40:55Z</time>
      </trkpt>
      <trkpt lat="-28.130205" lon="-65.645075">
        <ele>990.9</ele>
        <time>2018-08-19T14:40:58Z</time>
      </trkpt>
      <trkpt lat="-28.130275" lon="-65.64503">
        <ele>991.2</ele>
        <time>2018-08-19T14:41:01Z</time>
      </trkpt>
      <trkpt lat="-28.130375" lon="-65.64498">
        <ele>991.5</ele>
        <time>2018-08-19T14:41:05Z</time>
      </trkpt>
      <trkpt lat="-28.130445" lon="-65.644945">
        <ele>991.6</ele>
        <time>2018-08-19T14:41:08Z</time>
      </trkpt>
      <trkpt lat="-28.130515" lon="-65.644915">
        <ele>991.8</ele>
        <time>2018-08-19T14:41:11Z</time>
      </trkpt>
      <trkpt lat="-28.130595" lon="-65.644885">
        <ele>991.9</ele>
        <time>2018-08-19T14:41:14Z</time>
      </trkpt>
      <trkpt lat="-28.13067" lon="-65.64485">
        <ele>992.1</ele>
        <time>2018-08-19T14:41:17Z</time>
      </trkpt>
      <trkpt lat="-28.13074" lon="-65.64484">
        <ele>992.1</ele>
        <time>2018-08-19T14:41:20Z</time>
      </trkpt>
      <trkpt lat="-28.13081" lon="-65.64480666666667">
        <ele>992.1</ele>
        <time>2018-08-19T14:41:23Z</time>
      </trkpt>
      <trkpt lat="-28.130895" lon="-65.644805">
        <ele>992.2</ele>
        <time>2018-08-19T14:41:26Z</time>
      </trkpt>
      <trkpt lat="-28.130985" lon="-65.644805">
        <ele>992.2</ele>
        <time>2018-08-19T14:41:29Z</time>
      </trkpt>
      <trkpt lat="-28.13107" lon="-65.644805">
        <ele>992.1</ele>
        <time>2018-08-19T14:41:32Z</time>
      </trkpt>
      <trkpt lat="-28.131165" lon="-65.644805">
        <ele>992.0</ele>
        <time>2018-08-19T14:41:35Z</time>
      </trkpt>
      <trkpt lat="-28.131255" lon="-65.64483">
        <ele>992.0</ele>
        <time>2018-08-19T14:41:38Z</time>
      </trkpt>
      <trkpt lat="-28.131345" lon="-65.64485">
        <ele>991.9</ele>
        <time>2018-08-19T14:41:41Z</time>
      </trkpt>
      <trkpt lat="-28.13145" lon="-65.64489">
        <ele>991.9</ele>
        <time>2018-08-19T14:41:44Z</time>
      </trkpt>
      <trkpt lat="-28.131525" lon="-65.64489166666667">
        <ele>991.7</ele>
        <time>2018-08-19T14:41:46Z</time>
      </trkpt>
      <trkpt lat="-28.131605" lon="-65.64493">
        <ele>991.6</ele>
        <time>2018-08-19T14:41:48Z</time>
      </trkpt>
      <trkpt lat="-28.131675" lon="-65.644945">
        <ele>991.6</ele>
        <time>2018-08-19T14:41:50Z</time>
      </trkpt>
      <trkpt lat="-28.13175" lon="-65.64498">
        <ele>991.2</ele>
        <time>2018-08-19T14:41:52Z</time>
      </trkpt>
      <trkpt lat="-28.131825" lon="-65.64499">
        <ele>991.0</ele>
        <time>2018-08-19T14:41:54Z</time>
      </trkpt>
      <trkpt lat="-28.131915" lon="-65.64503">
        <ele>990.7</ele>
        <time>2018-08-19T14:41:56Z</time>
      </trkpt>
      <trkpt lat="-28.132005" lon="-65.645055">
        <ele>990.7</ele>
        <time>2018-08-19T14:41:58Z</time>
      </trkpt>
      <trkpt lat="-28.13208" lon="-65.645075">
        <ele>990.4</ele>
        <time>2018-08-19T14:42:00Z</time>
      </trkpt>
      <trkpt lat="-28.13216" lon="-65.645095">
        <ele>989.6</ele>
        <time>2018-08-19T14:42:02Z</time>
      </trkpt>
      <trkpt lat="-28.132245" lon="-65.64511">
        <ele>988.8</ele>
        <time>2018-08-19T14:42:04Z</time>
      </trkpt>
      <trkpt lat="-28.13233" lon="-65.64511">
        <ele>987.7</ele>
        <time>2018-08-19T14:42:06Z</time>
      </trkpt>
      <trkpt lat="-28.132415" lon="-65.645115">
        <ele>987.0</ele>
        <time>2018-08-19T14:42:08Z</time>
      </trkpt>
      <trkpt lat="-28.132505" lon="-65.64511">
        <ele>986.5</ele>
        <time>2018-08-19T14:42:10Z</time>
      </trkpt>
      <trkpt lat="-28.13259" lon="-65.645105">
        <ele>986.2</ele>
        <time>2018-08-19T14:42:13Z</time>
      </trkpt>
      <trkpt lat="-28.132675" lon="-65.645095">
        <ele>985.8</ele>
        <time>2018-08-19T14:42:14Z</time>
      </trkpt>
      <trkpt lat="-28.132755" lon="-65.645075">
        <ele>985.5</ele>
        <time>2018-08-19T14:42:16Z</time>
      </trkpt>
      <trkpt lat="-28.132845" lon="-65.645065">
        <ele>985.1</ele>
        <time>2018-08-19T14:42:18Z</time>
      </trkpt>
      <trkpt lat="-28.13293" lon="-65.64503">
        <ele>984.8</ele>
        <time>2018-08-19T14:42:20Z</time>
      </trkpt>
      <trkpt lat="-28.13303" lon="-65.64503">
        <ele>985.0</ele>
        <time>2018-08-19T14:42:22Z</time>
      </trkpt>
      <trkpt lat="-28.13314" lon="-65.645015">
        <ele>984.4</ele>
        <time>2018-08-19T14:42:24Z</time>
      </trkpt>
      <trkpt lat="-28.133255" lon="-65.64499">
        <ele>983.5</ele>
        <time>2018-08-19T14:42:26Z</time>
      </trkpt>
      <trkpt lat="-28.13338" lon="-65.64498">
        <ele>983.0</ele>
        <time>2018-08-19T14:42:28Z</time>
      </trkpt>
      <trkpt lat="-28.133505" lon="-65.644965">
        <ele>982.5</ele>
        <time>2018-08-19T14:42:30Z</time>
      </trkpt>
      <trkpt lat="-28.133635" lon="-65.644945">
        <ele>981.6</ele>
        <time>2018-08-19T14:42:32Z</time>
      </trkpt>
      <trkpt lat="-28.13376" lon="-65.644925">
        <ele>980.7</ele>
        <time>2018-08-19T14:42:34Z</time>
      </trkpt>
      <trkpt lat="-28.133875" lon="-65.644915">
        <ele>980.1</ele>
        <time>2018-08-19T14:42:36Z</time>
      </trkpt>
      <trkpt lat="-28.13399" lon="-65.644915">
        <ele>980.0</ele>
        <time>2018-08-19T14:42:38Z</time>
      </trkpt>
      <trkpt lat="-28.134065" lon="-65.644935">
        <ele>980.1</ele>
        <time>2018-08-19T14:42:39Z</time>
      </trkpt>
      <trkpt lat="-28.13419" lon="-65.64499">
        <ele>980.1</ele>
        <time>2018-08-19T14:42:41Z</time>
      </trkpt>
      <trkpt lat="-28.134285" lon="-65.645075">
        <ele>979.5</ele>
        <time>2018-08-19T14:42:43Z</time>
      </trkpt>
      <trkpt lat="-28.13437" lon="-65.645195">
        <ele>978.6</ele>
        <time>2018-08-19T14:42:45Z</time>
      </trkpt>
      <trkpt lat="-28.134455" lon="-65.6453">
        <ele>977.9</ele>
        <time>2018-08-19T14:42:47Z</time>
      </trkpt>
      <trkpt lat="-28.13454" lon="-65.64542">
        <ele>977.1</ele>
        <time>2018-08-19T14:42:49Z</time>
      </trkpt>
      <trkpt lat="-28.13462" lon="-65.645525">
        <ele>977.1</ele>
        <time>2018-08-19T14:42:51Z</time>
      </trkpt>
      <trkpt lat="-28.134695" lon="-65.645635">
        <ele>976.7</ele>
        <time>2018-08-19T14:42:53Z</time>
      </trkpt>
      <trkpt lat="-28.13477" lon="-65.64574">
        <ele>976.2</ele>
        <time>2018-08-19T14:42:55Z</time>
      </trkpt>
      <trkpt lat="-28.13485" lon="-65.645835">
        <ele>975.6</ele>
        <time>2018-08-19T14:42:57Z</time>
      </trkpt>
      <trkpt lat="-28.13493" lon="-65.64593">
        <ele>975.2</ele>
        <time>2018-08-19T14:42:59Z</time>
      </trkpt>
      <trkpt lat="-28.134995" lon="-65.646005">
        <ele>974.5</ele>
        <time>2018-08-19T14:43:01Z</time>
      </trkpt>
      <trkpt lat="-28.13505" lon="-65.64606">
        <ele>973.4</ele>
        <time>2018-08-19T14:43:03Z</time>
      </trkpt>
      <trkpt lat="-28.13513" lon="-65.6461">
        <ele>971.1</ele>
        <time>2018-08-19T14:43:06Z</time>
      </trkpt>
      <trkpt lat="-28.135195" lon="-65.646145">
        <ele>969.9</ele>
        <time>2018-08-19T14:43:08Z</time>
      </trkpt>
      <trkpt lat="-28.135265" lon="-65.64621">
        <ele>969.5</ele>
        <time>2018-08-19T14:43:10Z</time>
      </trkpt>
      <trkpt lat="-28.135355" lon="-65.646275">
        <ele>969.1</ele>
        <time>2018-08-19T14:43:13Z</time>
      </trkpt>
      <trkpt lat="-28.13545" lon="-65.646325">
        <ele>968.9</ele>
        <time>2018-08-19T14:43:15Z</time>
      </trkpt>
      <trkpt lat="-28.135545" lon="-65.646405">
        <ele>968.4</ele>
        <time>2018-08-19T14:43:17Z</time>
      </trkpt>
      <trkpt lat="-28.13563" lon="-65.64648">
        <ele>968.1</ele>
        <time>2018-08-19T14:43:19Z</time>
      </trkpt>
      <trkpt lat="-28.1357" lon="-65.64655">
        <ele>968.0</ele>
        <time>2018-08-19T14:43:21Z</time>
      </trkpt>
      <trkpt lat="-28.13577" lon="-65.646625">
        <ele>966.7</ele>
        <time>2018-08-19T14:43:23Z</time>
      </trkpt>
      <trkpt lat="-28.135855" lon="-65.64671">
        <ele>964.9</ele>
        <time>2018-08-19T14:43:25Z</time>
      </trkpt>
      <trkpt lat="-28.135925" lon="-65.646775">
        <ele>963.9</ele>
        <time>2018-08-19T14:43:27Z</time>
      </trkpt>
      <trkpt lat="-28.13601" lon="-65.64686">
        <ele>963.5</ele>
        <time>2018-08-19T14:43:29Z</time>
      </trkpt>
      <trkpt lat="-28.136075" lon="-65.64694">
        <ele>962.2</ele>
        <time>2018-08-19T14:43:31Z</time>
      </trkpt>
      <trkpt lat="-28.136165" lon="-65.64704">
        <ele>960.8</ele>
        <time>2018-08-19T14:43:33Z</time>
      </trkpt>
      <trkpt lat="-28.13625" lon="-65.64713">
        <ele>959.7</ele>
        <time>2018-08-19T14:43:35Z</time>
      </trkpt>
      <trkpt lat="-28.13634" lon="-65.647225">
        <ele>959.3</ele>
        <time>2018-08-19T14:43:37Z</time>
      </trkpt>
      <trkpt lat="-28.136425" lon="-65.64731">
        <ele>959.8</ele>
        <time>2018-08-19T14:43:39Z</time>
      </trkpt>
      <trkpt lat="-28.136495" lon="-65.64739">
        <ele>960.1</ele>
        <time>2018-08-19T14:43:41Z</time>
      </trkpt>
      <trkpt lat="-28.13656" lon="-65.647465">
        <ele>960.4</ele>
        <time>2018-08-19T14:43:43Z</time>
      </trkpt>
      <trkpt lat="-28.136615" lon="-65.647525">
        <ele>960.8</ele>
        <time>2018-08-19T14:43:45Z</time>
      </trkpt>
      <trkpt lat="-28.136675" lon="-65.64758">
        <ele>960.8</ele>
        <time>2018-08-19T14:43:47Z</time>
      </trkpt>
      <trkpt lat="-28.13675" lon="-65.647655">
        <ele>960.9</ele>
        <time>2018-08-19T14:43:50Z</time>
      </trkpt>
      <trkpt lat="-28.136805" lon="-65.64771">
        <ele>960.9</ele>
        <time>2018-08-19T14:43:52Z</time>
      </trkpt>
      <trkpt lat="-28.13686" lon="-65.647785">
        <ele>960.6</ele>
        <time>2018-08-19T14:43:56Z</time>
      </trkpt>
      <trkpt lat="-28.13692" lon="-65.64787">
        <ele>960.4</ele>
        <time>2018-08-19T14:43:59Z</time>
      </trkpt>
      <trkpt lat="-28.13697" lon="-65.647935">
        <ele>960.3</ele>
        <time>2018-08-19T14:44:04Z</time>
      </trkpt>
      <trkpt lat="-28.13701" lon="-65.648025">
        <ele>960.1</ele>
        <time>2018-08-19T14:44:07Z</time>
      </trkpt>
      <trkpt lat="-28.137045" lon="-65.648095">
        <ele>960.0</ele>
        <time>2018-08-19T14:44:10Z</time>
      </trkpt>
      <trkpt lat="-28.137095" lon="-65.6482">
        <ele>959.9</ele>
        <time>2018-08-19T14:44:13Z</time>
      </trkpt>
      <trkpt lat="-28.137125" lon="-65.648285">
        <ele>959.9</ele>
        <time>2018-08-19T14:44:15Z</time>
      </trkpt>
      <trkpt lat="-28.13717" lon="-65.648375">
        <ele>959.9</ele>
        <time>2018-08-19T14:44:17Z</time>
      </trkpt>
      <trkpt lat="-28.13721" lon="-65.64846">
        <ele>959.9</ele>
        <time>2018-08-19T14:44:19Z</time>
      </trkpt>
      <trkpt lat="-28.13724" lon="-65.64852">
        <ele>960.0</ele>
        <time>2018-08-19T14:44:21Z</time>
      </trkpt>
      <trkpt lat="-28.137275" lon="-65.64860666666667">
        <ele>960.2</ele>
        <time>2018-08-19T14:44:23Z</time>
      </trkpt>
      <trkpt lat="-28.1373" lon="-65.648705">
        <ele>960.3</ele>
        <time>2018-08-19T14:44:26Z</time>
      </trkpt>
      <trkpt lat="-28.137325" lon="-65.648815">
        <ele>960.3</ele>
        <time>2018-08-19T14:44:29Z</time>
      </trkpt>
      <trkpt lat="-28.137355" lon="-65.648885">
        <ele>960.3</ele>
        <time>2018-08-19T14:44:31Z</time>
      </trkpt>
      <trkpt lat="-28.137385" lon="-65.64897">
        <ele>960.5</ele>
        <time>2018-08-19T14:44:33Z</time>
      </trkpt>
      <trkpt lat="-28.13741" lon="-65.649055">
        <ele>960.6</ele>
        <time>2018-08-19T14:44:35Z</time>
      </trkpt>
      <trkpt lat="-28.137445" lon="-65.649135">
        <ele>960.7</ele>
        <time>2018-08-19T14:44:37Z</time>
      </trkpt>
      <trkpt lat="-28.137475" lon="-65.64924">
        <ele>960.8</ele>
        <time>2018-08-19T14:44:40Z</time>
      </trkpt>
      <trkpt lat="-28.137505" lon="-65.64936">
        <ele>960.8</ele>
        <time>2018-08-19T14:44:43Z</time>
      </trkpt>
      <trkpt lat="-28.13753" lon="-65.649465">
        <ele>960.9</ele>
        <time>2018-08-19T14:44:46Z</time>
      </trkpt>
      <trkpt lat="-28.137565" lon="-65.64958">
        <ele>961.0</ele>
        <time>2018-08-19T14:44:49Z</time>
      </trkpt>
      <trkpt lat="-28.1376" lon="-65.64967">
        <ele>961.1</ele>
        <time>2018-08-19T14:44:52Z</time>
      </trkpt>
      <trkpt lat="-28.137635" lon="-65.649755">
        <ele>961.1</ele>
        <time>2018-08-19T14:44:55Z</time>
      </trkpt>
      <trkpt lat="-28.137665" lon="-65.649855">
        <ele>961.0</ele>
        <time>2018-08-19T14:44:58Z</time>
      </trkpt>
      <trkpt lat="-28.137695" lon="-65.649945">
        <ele>961.0</ele>
        <time>2018-08-19T14:45:01Z</time>
      </trkpt>
      <trkpt lat="-28.13772" lon="-65.65004">
        <ele>961.0</ele>
        <time>2018-08-19T14:45:04Z</time>
      </trkpt>
      <trkpt lat="-28.137755" lon="-65.65015">
        <ele>961.0</ele>
        <time>2018-08-19T14:45:07Z</time>
      </trkpt>
      <trkpt lat="-28.13778" lon="-65.650245">
        <ele>961.0</ele>
        <time>2018-08-19T14:45:10Z</time>
      </trkpt>
      <trkpt lat="-28.13781" lon="-65.65033">
        <ele>960.9</ele>
        <time>2018-08-19T14:45:13Z</time>
      </trkpt>
      <trkpt lat="-28.137825" lon="-65.650405">
        <ele>960.9</ele>
        <time>2018-08-19T14:45:16Z</time>
      </trkpt>
      <trkpt lat="-28.137855" lon="-65.65049">
        <ele>960.7</ele>
        <time>2018-08-19T14:45:19Z</time>
      </trkpt>
      <trkpt lat="-28.137875" lon="-65.650575">
        <ele>960.6</ele>
        <time>2018-08-19T14:45:22Z</time>
      </trkpt>
      <trkpt lat="-28.137895" lon="-65.650655">
        <ele>960.5</ele>
        <time>2018-08-19T14:45:26Z</time>
      </trkpt>
      <trkpt lat="-28.13792" lon="-65.650755">
        <ele>960.3</ele>
        <time>2018-08-19T14:45:29Z</time>
      </trkpt>
      <trkpt lat="-28.137945" lon="-65.65084">
        <ele>960.1</ele>
        <time>2018-08-19T14:45:32Z</time>
      </trkpt>
      <trkpt lat="-28.137965" lon="-65.65093">
        <ele>959.8</ele>
        <time>2018-08-19T14:45:36Z</time>
      </trkpt>
      <trkpt lat="-28.137995" lon="-65.651015">
        <ele>959.5</ele>
        <time>2018-08-19T14:45:40Z</time>
      </trkpt>
      <trkpt lat="-28.138025" lon="-65.65110666666666">
        <ele>958.3</ele>
        <time>2018-08-19T14:45:43Z</time>
      </trkpt>
      <trkpt lat="-28.13805" lon="-65.65121">
        <ele>956.9</ele>
        <time>2018-08-19T14:45:45Z</time>
      </trkpt>
      <trkpt lat="-28.138075" lon="-65.651315">
        <ele>956.1</ele>
        <time>2018-08-19T14:45:47Z</time>
      </trkpt>
      <trkpt lat="-28.13811" lon="-65.651425">
        <ele>955.7</ele>
        <time>2018-08-19T14:45:50Z</time>
      </trkpt>
      <trkpt lat="-28.138135" lon="-65.65152">
        <ele>954.9</ele>
        <time>2018-08-19T14:45:52Z</time>
      </trkpt>
      <trkpt lat="-28.138155" lon="-65.651615">
        <ele>953.4</ele>
        <time>2018-08-19T14:45:54Z</time>
      </trkpt>
      <trkpt lat="-28.13819" lon="-65.6517">
        <ele>952.1</ele>
        <time>2018-08-19T14:45:56Z</time>
      </trkpt>
      <trkpt lat="-28.13822" lon="-65.65181">
        <ele>951.2</ele>
        <time>2018-08-19T14:45:58Z</time>
      </trkpt>
      <trkpt lat="-28.138255" lon="-65.65192">
        <ele>950.8</ele>
        <time>2018-08-19T14:46:00Z</time>
      </trkpt>
      <trkpt lat="-28.138285" lon="-65.65201">
        <ele>950.2</ele>
        <time>2018-08-19T14:46:02Z</time>
      </trkpt>
      <trkpt lat="-28.13833" lon="-65.65209">
        <ele>949.9</ele>
        <time>2018-08-19T14:46:04Z</time>
      </trkpt>
      <trkpt lat="-28.138385" lon="-65.652195">
        <ele>949.9</ele>
        <time>2018-08-19T14:46:06Z</time>
      </trkpt>
      <trkpt lat="-28.138465" lon="-65.6523">
        <ele>949.6</ele>
        <time>2018-08-19T14:46:08Z</time>
      </trkpt>
      <trkpt lat="-28.13853" lon="-65.65239">
        <ele>949.7</ele>
        <time>2018-08-19T14:46:10Z</time>
      </trkpt>
      <trkpt lat="-28.13861" lon="-65.65246">
        <ele>949.3</ele>
        <time>2018-08-19T14:46:12Z</time>
      </trkpt>
      <trkpt lat="-28.138685" lon="-65.652545">
        <ele>948.7</ele>
        <time>2018-08-19T14:46:14Z</time>
      </trkpt>
      <trkpt lat="-28.138745" lon="-65.652615">
        <ele>948.1</ele>
        <time>2018-08-19T14:46:16Z</time>
      </trkpt>
      <trkpt lat="-28.13881" lon="-65.652685">
        <ele>947.6</ele>
        <time>2018-08-19T14:46:18Z</time>
      </trkpt>
      <trkpt lat="-28.13888" lon="-65.65277">
        <ele>947.0</ele>
        <time>2018-08-19T14:46:20Z</time>
      </trkpt>
      <trkpt lat="-28.13895" lon="-65.65286">
        <ele>946.3</ele>
        <time>2018-08-19T14:46:22Z</time>
      </trkpt>
      <trkpt lat="-28.139015" lon="-65.652945">
        <ele>945.7</ele>
        <time>2018-08-19T14:46:24Z</time>
      </trkpt>
      <trkpt lat="-28.13907" lon="-65.65302">
        <ele>944.9</ele>
        <time>2018-08-19T14:46:26Z</time>
      </trkpt>
      <trkpt lat="-28.13914" lon="-65.653075">
        <ele>944.0</ele>
        <time>2018-08-19T14:46:28Z</time>
      </trkpt>
      <trkpt lat="-28.13922" lon="-65.65317">
        <ele>943.9</ele>
        <time>2018-08-19T14:46:31Z</time>
      </trkpt>
      <trkpt lat="-28.13929" lon="-65.653245">
        <ele>943.8</ele>
        <time>2018-08-19T14:46:34Z</time>
      </trkpt>
      <trkpt lat="-28.13935" lon="-65.6533">
        <ele>943.6</ele>
        <time>2018-08-19T14:46:37Z</time>
      </trkpt>
      <trkpt lat="-28.139415" lon="-65.653395">
        <ele>943.6</ele>
        <time>2018-08-19T14:46:40Z</time>
      </trkpt>
      <trkpt lat="-28.139485" lon="-65.65348">
        <ele>943.5</ele>
        <time>2018-08-19T14:46:43Z</time>
      </trkpt>
      <trkpt lat="-28.13956" lon="-65.653565">
        <ele>943.3</ele>
        <time>2018-08-19T14:46:46Z</time>
      </trkpt>
      <trkpt lat="-28.139605" lon="-65.65362">
        <ele>943.2</ele>
        <time>2018-08-19T14:46:48Z</time>
      </trkpt>
      <trkpt lat="-28.139685" lon="-65.653715">
        <ele>943.1</ele>
        <time>2018-08-19T14:46:51Z</time>
      </trkpt>
      <trkpt lat="-28.139735" lon="-65.653755">
        <ele>943.0</ele>
        <time>2018-08-19T14:46:53Z</time>
      </trkpt>
      <trkpt lat="-28.13981" lon="-65.653845">
        <ele>942.9</ele>
        <time>2018-08-19T14:46:56Z</time>
      </trkpt>
      <trkpt lat="-28.13988" lon="-65.65393">
        <ele>942.8</ele>
        <time>2018-08-19T14:46:59Z</time>
      </trkpt>
      <trkpt lat="-28.139935" lon="-65.65398">
        <ele>942.7</ele>
        <time>2018-08-19T14:47:02Z</time>
      </trkpt>
      <trkpt lat="-28.139995" lon="-65.654055">
        <ele>942.6</ele>
        <time>2018-08-19T14:47:05Z</time>
      </trkpt>
      <trkpt lat="-28.140065" lon="-65.65412">
        <ele>942.5</ele>
        <time>2018-08-19T14:47:08Z</time>
      </trkpt>
      <trkpt lat="-28.14014" lon="-65.6542">
        <ele>942.4</ele>
        <time>2018-08-19T14:47:11Z</time>
      </trkpt>
      <trkpt lat="-28.14021" lon="-65.65427">
        <ele>942.2</ele>
        <time>2018-08-19T14:47:14Z</time>
      </trkpt>
      <trkpt lat="-28.14027" lon="-65.65433">
        <ele>942.0</ele>
        <time>2018-08-19T14:47:17Z</time>
      </trkpt>
      <trkpt lat="-28.14034" lon="-65.65439">
        <ele>941.6</ele>
        <time>2018-08-19T14:47:20Z</time>
      </trkpt>
      <trkpt lat="-28.14041" lon="-65.654475">
        <ele>941.2</ele>
        <time>2018-08-19T14:47:23Z</time>
      </trkpt>
      <trkpt lat="-28.14047" lon="-65.654515">
        <ele>940.8</ele>
        <time>2018-08-19T14:47:26Z</time>
      </trkpt>
      <trkpt lat="-28.140525" lon="-65.654595">
        <ele>940.2</ele>
        <time>2018-08-19T14:47:30Z</time>
      </trkpt>
      <trkpt lat="-28.140575" lon="-65.654655">
        <ele>940.0</ele>
        <time>2018-08-19T14:47:32Z</time>
      </trkpt>
      <trkpt lat="-28.14065" lon="-65.65474">
        <ele>939.9</ele>
        <time>2018-08-19T14:47:34Z</time>
      </trkpt>
      <trkpt lat="-28.14071" lon="-65.65482">
        <ele>939.7</ele>
        <time>2018-08-19T14:47:37Z</time>
      </trkpt>
      <trkpt lat="-28.14077" lon="-65.65488">
        <ele>939.5</ele>
        <time>2018-08-19T14:47:40Z</time>
      </trkpt>
      <trkpt lat="-28.140835" lon="-65.65495">
        <ele>939.4</ele>
        <time>2018-08-19T14:47:43Z</time>
      </trkpt>
      <trkpt lat="-28.140905" lon="-65.65501">
        <ele>939.2</ele>
        <time>2018-08-19T14:47:46Z</time>
      </trkpt>
      <trkpt lat="-28.14096" lon="-65.655045">
        <ele>939.0</ele>
        <time>2018-08-19T14:47:49Z</time>
      </trkpt>
      <trkpt lat="-28.14103" lon="-65.65512">
        <ele>938.9</ele>
        <time>2018-08-19T14:47:52Z</time>
      </trkpt>
      <trkpt lat="-28.141105" lon="-65.65517">
        <ele>938.6</ele>
        <time>2018-08-19T14:47:56Z</time>
      </trkpt>
      <trkpt lat="-28.141175" lon="-65.655215">
        <ele>938.3</ele>
        <time>2018-08-19T14:47:59Z</time>
      </trkpt>
      <trkpt lat="-28.14124" lon="-65.655255">
        <ele>938.1</ele>
        <time>2018-08-19T14:48:01Z</time>
      </trkpt>
      <trkpt lat="-28.1413" lon="-65.65527166666666">
        <ele>936.0</ele>
        <time>2018-08-19T14:48:03Z</time>
      </trkpt>
      <trkpt lat="-28.14141" lon="-65.65533">
        <ele>934.1</ele>
        <time>2018-08-19T14:48:06Z</time>
      </trkpt>
      <trkpt lat="-28.14149" lon="-65.655345">
        <ele>933.3</ele>
        <time>2018-08-19T14:48:08Z</time>
      </trkpt>
      <trkpt lat="-28.141575" lon="-65.655375">
        <ele>933.2</ele>
        <time>2018-08-19T14:48:10Z</time>
      </trkpt>
      <trkpt lat="-28.141665" lon="-65.6554">
        <ele>933.0</ele>
        <time>2018-08-19T14:48:12Z</time>
      </trkpt>
      <trkpt lat="-28.141765" lon="-65.655415">
        <ele>932.5</ele>
        <time>2018-08-19T14:48:14Z</time>
      </trkpt>
      <trkpt lat="-28.14186" lon="-65.65546">
        <ele>932.1</ele>
        <time>2018-08-19T14:48:16Z</time>
      </trkpt>
      <trkpt lat="-28.14194" lon="-65.655485">
        <ele>932.0</ele>
        <time>2018-08-19T14:48:18Z</time>
      </trkpt>
      <trkpt lat="-28.142015" lon="-65.6555">
        <ele>931.7</ele>
        <time>2018-08-19T14:48:20Z</time>
      </trkpt>
      <trkpt lat="-28.14209" lon="-65.65557">
        <ele>931.6</ele>
        <time>2018-08-19T14:48:23Z</time>
      </trkpt>
      <trkpt lat="-28.14217" lon="-65.655625">
        <ele>931.5</ele>
        <time>2018-08-19T14:48:27Z</time>
      </trkpt>
      <trkpt lat="-28.142245" lon="-65.65568">
        <ele>931.4</ele>
        <time>2018-08-19T14:48:30Z</time>
      </trkpt>
      <trkpt lat="-28.142305" lon="-65.655725">
        <ele>931.4</ele>
        <time>2018-08-19T14:48:32Z</time>
      </trkpt>
      <trkpt lat="-28.14236" lon="-65.65577">
        <ele>931.3</ele>
        <time>2018-08-19T14:48:34Z</time>
      </trkpt>
      <trkpt lat="-28.142425" lon="-65.655845">
        <ele>931.0</ele>
        <time>2018-08-19T14:48:36Z</time>
      </trkpt>
      <trkpt lat="-28.142475" lon="-65.65591">
        <ele>930.9</ele>
        <time>2018-08-19T14:48:38Z</time>
      </trkpt>
      <trkpt lat="-28.142525" lon="-65.655985">
        <ele>930.9</ele>
        <time>2018-08-19T14:48:40Z</time>
      </trkpt>
      <trkpt lat="-28.14259" lon="-65.65608">
        <ele>931.5</ele>
        <time>2018-08-19T14:48:43Z</time>
      </trkpt>
      <trkpt lat="-28.14263" lon="-65.656165">
        <ele>931.7</ele>
        <time>2018-08-19T14:48:45Z</time>
      </trkpt>
      <trkpt lat="-28.142655" lon="-65.656245">
        <ele>931.9</ele>
        <time>2018-08-19T14:48:47Z</time>
      </trkpt>
      <trkpt lat="-28.142685" lon="-65.656335">
        <ele>931.8</ele>
        <time>2018-08-19T14:48:49Z</time>
      </trkpt>
      <trkpt lat="-28.142705" lon="-65.656445">
        <ele>931.8</ele>
        <time>2018-08-19T14:48:52Z</time>
      </trkpt>
      <trkpt lat="-28.14273" lon="-65.656565">
        <ele>931.8</ele>
        <time>2018-08-19T14:48:55Z</time>
      </trkpt>
      <trkpt lat="-28.14274" lon="-65.65667">
        <ele>931.6</ele>
        <time>2018-08-19T14:48:58Z</time>
      </trkpt>
      <trkpt lat="-28.14274" lon="-65.65676500000001">
        <ele>931.5</ele>
        <time>2018-08-19T14:49:00Z</time>
      </trkpt>
      <trkpt lat="-28.142725" lon="-65.65685">
        <ele>931.4</ele>
        <time>2018-08-19T14:49:03Z</time>
      </trkpt>
      <trkpt lat="-28.1427" lon="-65.65696">
        <ele>931.5</ele>
        <time>2018-08-19T14:49:06Z</time>
      </trkpt>
      <trkpt lat="-28.142665" lon="-65.657045">
        <ele>931.7</ele>
        <time>2018-08-19T14:49:09Z</time>
      </trkpt>
      <trkpt lat="-28.14265" lon="-65.65714">
        <ele>932.1</ele>
        <time>2018-08-19T14:49:13Z</time>
      </trkpt>
      <trkpt lat="-28.14263" lon="-65.657225">
        <ele>932.6</ele>
        <time>2018-08-19T14:49:19Z</time>
      </trkpt>
      <trkpt lat="-28.142595" lon="-65.65724">
        <ele>932.7</ele>
        <time>2018-08-19T14:49:25Z</time>
      </trkpt>
      <trkpt lat="-28.142595" lon="-65.65724333333333">
        <ele>933.0</ele>
        <time>2018-08-19T14:49:34Z</time>
      </trkpt>
      <trkpt lat="-28.142595" lon="-65.65724166666666">
        <ele>933.0</ele>
        <time>2018-08-19T14:49:35Z</time>
      </trkpt>
      <trkpt lat="-28.142625" lon="-65.65724">
        <ele>932.7</ele>
        <time>2018-08-19T14:49:52Z</time>
      </trkpt>
      <trkpt lat="-28.14263" lon="-65.65724">
        <ele>932.6</ele>
        <time>2018-08-19T14:49:53Z</time>
      </trkpt>
      <trkpt lat="-28.142645" lon="-65.65724">
        <ele>933.0</ele>
        <time>2018-08-19T14:50:05Z</time>
      </trkpt>
      <trkpt lat="-28.14265" lon="-65.65724">
        <ele>933.0</ele>
        <time>2018-08-19T14:50:12Z</time>
      </trkpt>
      <trkpt lat="-28.142595" lon="-65.657325">
        <ele>933.1</ele>
        <time>2018-08-19T14:50:15Z</time>
      </trkpt>
      <trkpt lat="-28.14254" lon="-65.657385">
        <ele>933.2</ele>
        <time>2018-08-19T14:50:19Z</time>
      </trkpt>
      <trkpt lat="-28.142475" lon="-65.657455">
        <ele>933.3</ele>
        <time>2018-08-19T14:50:22Z</time>
      </trkpt>
      <trkpt lat="-28.142415" lon="-65.657515">
        <ele>933.4</ele>
        <time>2018-08-19T14:50:25Z</time>
      </trkpt>
      <trkpt lat="-28.14235" lon="-65.6576">
        <ele>933.6</ele>
        <time>2018-08-19T14:50:28Z</time>
      </trkpt>
      <trkpt lat="-28.142285" lon="-65.657685">
        <ele>933.8</ele>
        <time>2018-08-19T14:50:31Z</time>
      </trkpt>
      <trkpt lat="-28.142235" lon="-65.65774">
        <ele>933.8</ele>
        <time>2018-08-19T14:50:33Z</time>
      </trkpt>
      <trkpt lat="-28.14218" lon="-65.65779">
        <ele>934.1</ele>
        <time>2018-08-19T14:50:35Z</time>
      </trkpt>
      <trkpt lat="-28.14213" lon="-65.65788">
        <ele>934.8</ele>
        <time>2018-08-19T14:50:37Z</time>
      </trkpt>
      <trkpt lat="-28.14207" lon="-65.65792">
        <ele>935.6</ele>
        <time>2018-08-19T14:50:39Z</time>
      </trkpt>
      <trkpt lat="-28.142015" lon="-65.658">
        <ele>936.2</ele>
        <time>2018-08-19T14:50:41Z</time>
      </trkpt>
      <trkpt lat="-28.141955" lon="-65.658085">
        <ele>936.4</ele>
        <time>2018-08-19T14:50:43Z</time>
      </trkpt>
      <trkpt lat="-28.14189" lon="-65.658145">
        <ele>936.4</ele>
        <time>2018-08-19T14:50:45Z</time>
      </trkpt>
      <trkpt lat="-28.141825" lon="-65.658225">
        <ele>936.4</ele>
        <time>2018-08-19T14:50:47Z</time>
      </trkpt>
      <trkpt lat="-28.14175" lon="-65.65831">
        <ele>936.2</ele>
        <time>2018-08-19T14:50:49Z</time>
      </trkpt>
      <trkpt lat="-28.14168" lon="-65.65837">
        <ele>935.8</ele>
        <time>2018-08-19T14:50:51Z</time>
      </trkpt>
      <trkpt lat="-28.14161" lon="-65.658455">
        <ele>935.1</ele>
        <time>2018-08-19T14:50:53Z</time>
      </trkpt>
      <trkpt lat="-28.14154" lon="-65.658535">
        <ele>934.6</ele>
        <time>2018-08-19T14:50:55Z</time>
      </trkpt>
      <trkpt lat="-28.14147" lon="-65.65863">
        <ele>934.4</ele>
        <time>2018-08-19T14:50:57Z</time>
      </trkpt>
      <trkpt lat="-28.141395" lon="-65.65872">
        <ele>934.3</ele>
        <time>2018-08-19T14:50:59Z</time>
      </trkpt>
      <trkpt lat="-28.14132" lon="-65.65881">
        <ele>934.2</ele>
        <time>2018-08-19T14:51:01Z</time>
      </trkpt>
      <trkpt lat="-28.14124" lon="-65.658905">
        <ele>933.7</ele>
        <time>2018-08-19T14:51:03Z</time>
      </trkpt>
      <trkpt lat="-28.14115" lon="-65.659015">
        <ele>932.7</ele>
        <time>2018-08-19T14:51:05Z</time>
      </trkpt>
      <trkpt lat="-28.141105" lon="-65.65908">
        <ele>931.8</ele>
        <time>2018-08-19T14:51:06Z</time>
      </trkpt>
      <trkpt lat="-28.141055" lon="-65.65913">
        <ele>930.8</ele>
        <time>2018-08-19T14:51:07Z</time>
      </trkpt>
      <trkpt lat="-28.141005" lon="-65.659205">
        <ele>930.0</ele>
        <time>2018-08-19T14:51:08Z</time>
      </trkpt>
      <trkpt lat="-28.140955" lon="-65.65927">
        <ele>929.4</ele>
        <time>2018-08-19T14:51:09Z</time>
      </trkpt>
      <trkpt lat="-28.140915" lon="-65.659335">
        <ele>929.5</ele>
        <time>2018-08-19T14:51:10Z</time>
      </trkpt>
      <trkpt lat="-28.14087" lon="-65.6594">
        <ele>929.6</ele>
        <time>2018-08-19T14:51:11Z</time>
      </trkpt>
      <trkpt lat="-28.14077" lon="-65.65954">
        <ele>929.3</ele>
        <time>2018-08-19T14:51:13Z</time>
      </trkpt>
      <trkpt lat="-28.140715" lon="-65.659605">
        <ele>929.1</ele>
        <time>2018-08-19T14:51:14Z</time>
      </trkpt>
      <trkpt lat="-28.140655" lon="-65.659665">
        <ele>928.9</ele>
        <time>2018-08-19T14:51:15Z</time>
      </trkpt>
      <trkpt lat="-28.14059" lon="-65.659745">
        <ele>928.6</ele>
        <time>2018-08-19T14:51:16Z</time>
      </trkpt>
      <trkpt lat="-28.14053" lon="-65.65982">
        <ele>928.3</ele>
        <time>2018-08-19T14:51:17Z</time>
      </trkpt>
      <trkpt lat="-28.14047" lon="-65.659885">
        <ele>927.9</ele>
        <time>2018-08-19T14:51:18Z</time>
      </trkpt>
      <trkpt lat="-28.1404" lon="-65.659935">
        <ele>927.5</ele>
        <time>2018-08-19T14:51:19Z</time>
      </trkpt>
      <trkpt lat="-28.14033" lon="-65.66002">
        <ele>927.0</ele>
        <time>2018-08-19T14:51:20Z</time>
      </trkpt>
      <trkpt lat="-28.14026" lon="-65.660075">
        <ele>926.5</ele>
        <time>2018-08-19T14:51:21Z</time>
      </trkpt>
      <trkpt lat="-28.140185" lon="-65.66015">
        <ele>926.0</ele>
        <time>2018-08-19T14:51:22Z</time>
      </trkpt>
      <trkpt lat="-28.140105" lon="-65.660195">
        <ele>925.6</ele>
        <time>2018-08-19T14:51:23Z</time>
      </trkpt>
      <trkpt lat="-28.14002" lon="-65.66028">
        <ele>925.2</ele>
        <time>2018-08-19T14:51:24Z</time>
      </trkpt>
      <trkpt lat="-28.13994" lon="-65.660335">
        <ele>924.8</ele>
        <time>2018-08-19T14:51:25Z</time>
      </trkpt>
      <trkpt lat="-28.13985" lon="-65.660385">
        <ele>924.2</ele>
        <time>2018-08-19T14:51:26Z</time>
      </trkpt>
      <trkpt lat="-28.13976" lon="-65.66045">
        <ele>923.7</ele>
        <time>2018-08-19T14:51:27Z</time>
      </trkpt>
      <trkpt lat="-28.13966" lon="-65.660505">
        <ele>923.1</ele>
        <time>2018-08-19T14:51:28Z</time>
      </trkpt>
      <trkpt lat="-28.13957" lon="-65.66055">
        <ele>922.6</ele>
        <time>2018-08-19T14:51:29Z</time>
      </trkpt>
      <trkpt lat="-28.139475" lon="-65.66059">
        <ele>922.0</ele>
        <time>2018-08-19T14:51:30Z</time>
      </trkpt>
      <trkpt lat="-28.13938" lon="-65.660635">
        <ele>921.5</ele>
        <time>2018-08-19T14:51:31Z</time>
      </trkpt>
      <trkpt lat="-28.139285" lon="-65.66065166666667">
        <ele>921.2</ele>
        <time>2018-08-19T14:51:32Z</time>
      </trkpt>
      <trkpt lat="-28.13919" lon="-65.660695">
        <ele>921.0</ele>
        <time>2018-08-19T14:51:33Z</time>
      </trkpt>
      <trkpt lat="-28.1391" lon="-65.66074">
        <ele>920.7</ele>
        <time>2018-08-19T14:51:34Z</time>
      </trkpt>
      <trkpt lat="-28.139015" lon="-65.660745">
        <ele>920.5</ele>
        <time>2018-08-19T14:51:35Z</time>
      </trkpt>
      <trkpt lat="-28.138925" lon="-65.66079">
        <ele>920.4</ele>
        <time>2018-08-19T14:51:36Z</time>
      </trkpt>
      <trkpt lat="-28.138835" lon="-65.660815">
        <ele>920.2</ele>
        <time>2018-08-19T14:51:37Z</time>
      </trkpt>
      <trkpt lat="-28.13875" lon="-65.660835">
        <ele>920.1</ele>
        <time>2018-08-19T14:51:38Z</time>
      </trkpt>
      <trkpt lat="-28.138665" lon="-65.660835">
        <ele>920.0</ele>
        <time>2018-08-19T14:51:39Z</time>
      </trkpt>
      <trkpt lat="-28.138585" lon="-65.660865">
        <ele>920.0</ele>
        <time>2018-08-19T14:51:40Z</time>
      </trkpt>
      <trkpt lat="-28.1385" lon="-65.660875">
        <ele>919.9</ele>
        <time>2018-08-19T14:51:41Z</time>
      </trkpt>
      <trkpt lat="-28.13842" lon="-65.660875">
        <ele>919.8</ele>
        <time>2018-08-19T14:51:42Z</time>
      </trkpt>
      <trkpt lat="-28.138345" lon="-65.660875">
        <ele>919.8</ele>
        <time>2018-08-19T14:51:43Z</time>
      </trkpt>
      <trkpt lat="-28.13827" lon="-65.660875">
        <ele>919.8</ele>
        <time>2018-08-19T14:51:44Z</time>
      </trkpt>
      <trkpt lat="-28.138195" lon="-65.6609">
        <ele>919.7</ele>
        <time>2018-08-19T14:51:45Z</time>
      </trkpt>
      <trkpt lat="-28.13805" lon="-65.6609">
        <ele>919.9</ele>
        <time>2018-08-19T14:51:47Z</time>
      </trkpt>
      <trkpt lat="-28.137925" lon="-65.6609">
        <ele>920.2</ele>
        <time>2018-08-19T14:51:49Z</time>
      </trkpt>
      <trkpt lat="-28.13781" lon="-65.660875">
        <ele>920.5</ele>
        <time>2018-08-19T14:51:51Z</time>
      </trkpt>
      <trkpt lat="-28.137695" lon="-65.660875">
        <ele>920.8</ele>
        <time>2018-08-19T14:51:53Z</time>
      </trkpt>
      <trkpt lat="-28.1376" lon="-65.66086">
        <ele>921.8</ele>
        <time>2018-08-19T14:51:55Z</time>
      </trkpt>
      <trkpt lat="-28.13751" lon="-65.660835">
        <ele>923.3</ele>
        <time>2018-08-19T14:51:57Z</time>
      </trkpt>
      <trkpt lat="-28.137435" lon="-65.660825">
        <ele>923.4</ele>
        <time>2018-08-19T14:51:59Z</time>
      </trkpt>
      <trkpt lat="-28.13735" lon="-65.660805">
        <ele>923.6</ele>
        <time>2018-08-19T14:52:02Z</time>
      </trkpt>
      <trkpt lat="-28.137265" lon="-65.66079">
        <ele>923.6</ele>
        <time>2018-08-19T14:52:05Z</time>
      </trkpt>
      <trkpt lat="-28.137165" lon="-65.66077">
        <ele>923.7</ele>
        <time>2018-08-19T14:52:08Z</time>
      </trkpt>
      <trkpt lat="-28.137095" lon="-65.66074">
        <ele>923.7</ele>
        <time>2018-08-19T14:52:10Z</time>
      </trkpt>
      <trkpt lat="-28.13702" lon="-65.66073">
        <ele>924.1</ele>
        <time>2018-08-19T14:52:12Z</time>
      </trkpt>
      <trkpt lat="-28.13694" lon="-65.660695">
        <ele>924.7</ele>
        <time>2018-08-19T14:52:14Z</time>
      </trkpt>
      <trkpt lat="-28.136865" lon="-65.660685">
        <ele>925.3</ele>
        <time>2018-08-19T14:52:16Z</time>
      </trkpt>
      <trkpt lat="-28.13679" lon="-65.66065">
        <ele>925.7</ele>
        <time>2018-08-19T14:52:18Z</time>
      </trkpt>
      <trkpt lat="-28.136715" lon="-65.66064">
        <ele>926.3</ele>
        <time>2018-08-19T14:52:20Z</time>
      </trkpt>
      <trkpt lat="-28.13664" lon="-65.66061">
        <ele>926.6</ele>
        <time>2018-08-19T14:52:22Z</time>
      </trkpt>
      <trkpt lat="-28.136565" lon="-65.66059">
        <ele>926.8</ele>
        <time>2018-08-19T14:52:24Z</time>
      </trkpt>
      <trkpt lat="-28.136495" lon="-65.660565">
        <ele>926.9</ele>
        <time>2018-08-19T14:52:26Z</time>
      </trkpt>
      <trkpt lat="-28.136415" lon="-65.66055">
        <ele>927.2</ele>
        <time>2018-08-19T14:52:28Z</time>
      </trkpt>
      <trkpt lat="-28.13635" lon="-65.660525">
        <ele>927.2</ele>
        <time>2018-08-19T14:52:30Z</time>
      </trkpt>
      <trkpt lat="-28.13627" lon="-65.660505">
        <ele>927.2</ele>
        <time>2018-08-19T14:52:32Z</time>
      </trkpt>
      <trkpt lat="-28.136175" lon="-65.66047">
        <ele>927.3</ele>
        <time>2018-08-19T14:52:35Z</time>
      </trkpt>
      <trkpt lat="-28.13608" lon="-65.660425">
        <ele>927.4</ele>
        <time>2018-08-19T14:52:38Z</time>
      </trkpt>
      <trkpt lat="-28.13598" lon="-65.660415">
        <ele>927.4</ele>
        <time>2018-08-19T14:52:41Z</time>
      </trkpt>
      <trkpt lat="-28.135885" lon="-65.660385">
        <ele>927.5</ele>
        <time>2018-08-19T14:52:44Z</time>
      </trkpt>
      <trkpt lat="-28.135795" lon="-65.66034">
        <ele>927.6</ele>
        <time>2018-08-19T14:52:47Z</time>
      </trkpt>
      <trkpt lat="-28.135715" lon="-65.66034">
        <ele>927.7</ele>
        <time>2018-08-19T14:52:50Z</time>
      </trkpt>
      <trkpt lat="-28.13562" lon="-65.6603">
        <ele>927.7</ele>
        <time>2018-08-19T14:52:53Z</time>
      </trkpt>
      <trkpt lat="-28.13554" lon="-65.66028">
        <ele>927.8</ele>
        <time>2018-08-19T14:52:56Z</time>
      </trkpt>
      <trkpt lat="-28.13544" lon="-65.660255">
        <ele>927.8</ele>
        <time>2018-08-19T14:52:59Z</time>
      </trkpt>
      <trkpt lat="-28.135355" lon="-65.660225">
        <ele>927.9</ele>
        <time>2018-08-19T14:53:02Z</time>
      </trkpt>
      <trkpt lat="-28.135265" lon="-65.660195">
        <ele>928.0</ele>
        <time>2018-08-19T14:53:05Z</time>
      </trkpt>
      <trkpt lat="-28.13518" lon="-65.66018">
        <ele>928.1</ele>
        <time>2018-08-19T14:53:08Z</time>
      </trkpt>
      <trkpt lat="-28.13508" lon="-65.66015">
        <ele>928.2</ele>
        <time>2018-08-19T14:53:11Z</time>
      </trkpt>
      <trkpt lat="-28.134995" lon="-65.660115">
        <ele>928.3</ele>
        <time>2018-08-19T14:53:14Z</time>
      </trkpt>
      <trkpt lat="-28.134905" lon="-65.660105">
        <ele>928.3</ele>
        <time>2018-08-19T14:53:17Z</time>
      </trkpt>
      <trkpt lat="-28.13482" lon="-65.660075">
        <ele>928.4</ele>
        <time>2018-08-19T14:53:20Z</time>
      </trkpt>
      <trkpt lat="-28.13473" lon="-65.660045">
        <ele>928.6</ele>
        <time>2018-08-19T14:53:23Z</time>
      </trkpt>
      <trkpt lat="-28.134635" lon="-65.66002">
        <ele>928.8</ele>
        <time>2018-08-19T14:53:26Z</time>
      </trkpt>
      <trkpt lat="-28.134555" lon="-65.65997166666666">
        <ele>928.9</ele>
        <time>2018-08-19T14:53:29Z</time>
      </trkpt>
      <trkpt lat="-28.134455" lon="-65.659965">
        <ele>929.0</ele>
        <time>2018-08-19T14:53:32Z</time>
      </trkpt>
      <trkpt lat="-28.134365" lon="-65.659935">
        <ele>929.2</ele>
        <time>2018-08-19T14:53:35Z</time>
      </trkpt>
      <trkpt lat="-28.134265" lon="-65.65989">
        <ele>929.3</ele>
        <time>2018-08-19T14:53:38Z</time>
      </trkpt>
      <trkpt lat="-28.13418" lon="-65.65988">
        <ele>929.5</ele>
        <time>2018-08-19T14:53:41Z</time>
      </trkpt>
      <trkpt lat="-28.134085" lon="-65.65985">
        <ele>929.7</ele>
        <time>2018-08-19T14:53:44Z</time>
      </trkpt>
      <trkpt lat="-28.13398" lon="-65.65982">
        <ele>929.9</ele>
        <time>2018-08-19T14:53:47Z</time>
      </trkpt>
      <trkpt lat="-28.133885" lon="-65.659795">
        <ele>930.1</ele>
        <time>2018-08-19T14:53:50Z</time>
      </trkpt>
      <trkpt lat="-28.133815" lon="-65.659755">
        <ele>930.3</ele>
        <time>2018-08-19T14:53:52Z</time>
      </trkpt>
      <trkpt lat="-28.13373" lon="-65.659745">
        <ele>930.5</ele>
        <time>2018-08-19T14:53:55Z</time>
      </trkpt>
      <trkpt lat="-28.13365" lon="-65.65971">
        <ele>930.7</ele>
        <time>2018-08-19T14:53:58Z</time>
      </trkpt>
      <trkpt lat="-28.133565" lon="-65.6597">
        <ele>930.8</ele>
        <time>2018-08-19T14:54:01Z</time>
      </trkpt>
      <trkpt lat="-28.13347" lon="-65.659665">
        <ele>931.0</ele>
        <time>2018-08-19T14:54:04Z</time>
      </trkpt>
      <trkpt lat="-28.133405" lon="-65.659655">
        <ele>931.2</ele>
        <time>2018-08-19T14:54:06Z</time>
      </trkpt>
      <trkpt lat="-28.133305" lon="-65.659625">
        <ele>931.4</ele>
        <time>2018-08-19T14:54:09Z</time>
      </trkpt>
      <trkpt lat="-28.133215" lon="-65.65958">
        <ele>931.7</ele>
        <time>2018-08-19T14:54:12Z</time>
      </trkpt>
      <trkpt lat="-28.133125" lon="-65.65957">
        <ele>931.9</ele>
        <time>2018-08-19T14:54:15Z</time>
      </trkpt>
      <trkpt lat="-28.13304" lon="-65.65954">
        <ele>932.0</ele>
        <time>2018-08-19T14:54:17Z</time>
      </trkpt>
      <trkpt lat="-28.13295" lon="-65.65952">
        <ele>932.3</ele>
        <time>2018-08-19T14:54:20Z</time>
      </trkpt>
      <trkpt lat="-28.13288" lon="-65.659495">
        <ele>932.4</ele>
        <time>2018-08-19T14:54:22Z</time>
      </trkpt>
      <trkpt lat="-28.132805" lon="-65.659475">
        <ele>932.6</ele>
        <time>2018-08-19T14:54:24Z</time>
      </trkpt>
      <trkpt lat="-28.13273" lon="-65.65944">
        <ele>933.4</ele>
        <time>2018-08-19T14:54:26Z</time>
      </trkpt>
      <trkpt lat="-28.132655" lon="-65.65943">
        <ele>934.5</ele>
        <time>2018-08-19T14:54:28Z</time>
      </trkpt>
      <trkpt lat="-28.13258" lon="-65.6594">
        <ele>935.6</ele>
        <time>2018-08-19T14:54:30Z</time>
      </trkpt>
      <trkpt lat="-28.1325" lon="-65.659355">
        <ele>937.2</ele>
        <time>2018-08-19T14:54:32Z</time>
      </trkpt>
      <trkpt lat="-28.132425" lon="-65.659355">
        <ele>938.1</ele>
        <time>2018-08-19T14:54:34Z</time>
      </trkpt>
      <trkpt lat="-28.13232" lon="-65.659315">
        <ele>938.1</ele>
        <time>2018-08-19T14:54:37Z</time>
      </trkpt>
      <trkpt lat="-28.132245" lon="-65.659295">
        <ele>938.0</ele>
        <time>2018-08-19T14:54:39Z</time>
      </trkpt>
      <trkpt lat="-28.132165" lon="-65.65927">
        <ele>937.9</ele>
        <time>2018-08-19T14:54:41Z</time>
      </trkpt>
      <trkpt lat="-28.132085" lon="-65.659255">
        <ele>937.8</ele>
        <time>2018-08-19T14:54:43Z</time>
      </trkpt>
      <trkpt lat="-28.13201" lon="-65.65921">
        <ele>937.5</ele>
        <time>2018-08-19T14:54:45Z</time>
      </trkpt>
      <trkpt lat="-28.13193" lon="-65.6592">
        <ele>937.4</ele>
        <time>2018-08-19T14:54:47Z</time>
      </trkpt>
      <trkpt lat="-28.13186" lon="-65.659175">
        <ele>937.4</ele>
        <time>2018-08-19T14:54:49Z</time>
      </trkpt>
      <trkpt lat="-28.131785" lon="-65.65913">
        <ele>937.4</ele>
        <time>2018-08-19T14:54:51Z</time>
      </trkpt>
      <trkpt lat="-28.131705" lon="-65.659115">
        <ele>937.6</ele>
        <time>2018-08-19T14:54:53Z</time>
      </trkpt>
      <trkpt lat="-28.131625" lon="-65.65908">
        <ele>938.0</ele>
        <time>2018-08-19T14:54:55Z</time>
      </trkpt>
      <trkpt lat="-28.13155" lon="-65.659045">
        <ele>938.7</ele>
        <time>2018-08-19T14:54:57Z</time>
      </trkpt>
      <trkpt lat="-28.13147" lon="-65.659015">
        <ele>939.2</ele>
        <time>2018-08-19T14:54:59Z</time>
      </trkpt>
      <trkpt lat="-28.1314" lon="-65.658985">
        <ele>939.5</ele>
        <time>2018-08-19T14:55:01Z</time>
      </trkpt>
      <trkpt lat="-28.13133" lon="-65.65895">
        <ele>939.5</ele>
        <time>2018-08-19T14:55:03Z</time>
      </trkpt>
      <trkpt lat="-28.13126" lon="-65.658905">
        <ele>939.4</ele>
        <time>2018-08-19T14:55:05Z</time>
      </trkpt>
      <trkpt lat="-28.13119" lon="-65.65889">
        <ele>939.4</ele>
        <time>2018-08-19T14:55:07Z</time>
      </trkpt>
      <trkpt lat="-28.13111" lon="-65.658845">
        <ele>939.4</ele>
        <time>2018-08-19T14:55:10Z</time>
      </trkpt>
      <trkpt lat="-28.131045" lon="-65.65881">
        <ele>939.4</ele>
        <time>2018-08-19T14:55:13Z</time>
      </trkpt>
      <trkpt lat="-28.130965" lon="-65.65877">
        <ele>939.4</ele>
        <time>2018-08-19T14:55:16Z</time>
      </trkpt>
      <trkpt lat="-28.13088" lon="-65.658725">
        <ele>939.4</ele>
        <time>2018-08-19T14:55:19Z</time>
      </trkpt>
      <trkpt lat="-28.130805" lon="-65.65868">
        <ele>939.5</ele>
        <time>2018-08-19T14:55:22Z</time>
      </trkpt>
      <trkpt lat="-28.13072" lon="-65.658635">
        <ele>939.5</ele>
        <time>2018-08-19T14:55:25Z</time>
      </trkpt>
      <trkpt lat="-28.130635" lon="-65.65859">
        <ele>939.6</ele>
        <time>2018-08-19T14:55:28Z</time>
      </trkpt>
      <trkpt lat="-28.13055" lon="-65.658545">
        <ele>939.6</ele>
        <time>2018-08-19T14:55:31Z</time>
      </trkpt>
      <trkpt lat="-28.130465" lon="-65.6585">
        <ele>939.6</ele>
        <time>2018-08-19T14:55:34Z</time>
      </trkpt>
      <trkpt lat="-28.13039" lon="-65.65845">
        <ele>939.6</ele>
        <time>2018-08-19T14:55:37Z</time>
      </trkpt>
      <trkpt lat="-28.1303" lon="-65.658395">
        <ele>939.6</ele>
        <time>2018-08-19T14:55:40Z</time>
      </trkpt>
      <trkpt lat="-28.130205" lon="-65.65835">
        <ele>939.6</ele>
        <time>2018-08-19T14:55:43Z</time>
      </trkpt>
      <trkpt lat="-28.130135" lon="-65.65831">
        <ele>939.7</ele>
        <time>2018-08-19T14:55:45Z</time>
      </trkpt>
      <trkpt lat="-28.130045" lon="-65.658255">
        <ele>939.8</ele>
        <time>2018-08-19T14:55:48Z</time>
      </trkpt>
      <trkpt lat="-28.129975" lon="-65.658225">
        <ele>939.8</ele>
        <time>2018-08-19T14:55:50Z</time>
      </trkpt>
      <trkpt lat="-28.129885" lon="-65.65817">
        <ele>940.0</ele>
        <time>2018-08-19T14:55:53Z</time>
      </trkpt>
      <trkpt lat="-28.12979" lon="-65.658105">
        <ele>940.2</ele>
        <time>2018-08-19T14:55:56Z</time>
      </trkpt>
      <trkpt lat="-28.129705" lon="-65.65806">
        <ele>940.4</ele>
        <time>2018-08-19T14:55:59Z</time>
      </trkpt>
      <trkpt lat="-28.12961" lon="-65.658">
        <ele>940.6</ele>
        <time>2018-08-19T14:56:02Z</time>
      </trkpt>
      <trkpt lat="-28.129515" lon="-65.657965">
        <ele>940.8</ele>
        <time>2018-08-19T14:56:05Z</time>
      </trkpt>
      <trkpt lat="-28.12942" lon="-65.65792">
        <ele>941.0</ele>
        <time>2018-08-19T14:56:08Z</time>
      </trkpt>
      <trkpt lat="-28.12933" lon="-65.65788">
        <ele>941.2</ele>
        <time>2018-08-19T14:56:11Z</time>
      </trkpt>
      <trkpt lat="-28.129265" lon="-65.657835">
        <ele>941.3</ele>
        <time>2018-08-19T14:56:13Z</time>
      </trkpt>
      <trkpt lat="-28.129175" lon="-65.657785">
        <ele>941.4</ele>
        <time>2018-08-19T14:56:16Z</time>
      </trkpt>
      <trkpt lat="-28.129115" lon="-65.65777">
        <ele>941.5</ele>
        <time>2018-08-19T14:56:18Z</time>
      </trkpt>
      <trkpt lat="-28.12903" lon="-65.657735">
        <ele>941.6</ele>
        <time>2018-08-19T14:56:21Z</time>
      </trkpt>
      <trkpt lat="-28.128945" lon="-65.657695">
        <ele>941.7</ele>
        <time>2018-08-19T14:56:24Z</time>
      </trkpt>
      <trkpt lat="-28.12886" lon="-65.657655">
        <ele>941.7</ele>
        <time>2018-08-19T14:56:27Z</time>
      </trkpt>
      <trkpt lat="-28.12877" lon="-65.65761">
        <ele>941.8</ele>
        <time>2018-08-19T14:56:30Z</time>
      </trkpt>
      <trkpt lat="-28.1287" lon="-65.6576">
        <ele>941.8</ele>
        <time>2018-08-19T14:56:33Z</time>
      </trkpt>
      <trkpt lat="-28.12861" lon="-65.65757">
        <ele>941.9</ele>
        <time>2018-08-19T14:56:36Z</time>
      </trkpt>
      <trkpt lat="-28.12852" lon="-65.65754">
        <ele>942.0</ele>
        <time>2018-08-19T14:56:39Z</time>
      </trkpt>
      <trkpt lat="-28.12844" lon="-65.65751">
        <ele>942.2</ele>
        <time>2018-08-19T14:56:42Z</time>
      </trkpt>
      <trkpt lat="-28.128355" lon="-65.65747">
        <ele>942.4</ele>
        <time>2018-08-19T14:56:45Z</time>
      </trkpt>
      <trkpt lat="-28.12828" lon="-65.657465">
        <ele>942.5</ele>
        <time>2018-08-19T14:56:48Z</time>
      </trkpt>
      <trkpt lat="-28.1282" lon="-65.65743">
        <ele>942.7</ele>
        <time>2018-08-19T14:56:51Z</time>
      </trkpt>
      <trkpt lat="-28.128115" lon="-65.65741">
        <ele>942.9</ele>
        <time>2018-08-19T14:56:54Z</time>
      </trkpt>
      <trkpt lat="-28.128045" lon="-65.657385">
        <ele>943.0</ele>
        <time>2018-08-19T14:56:57Z</time>
      </trkpt>
      <trkpt lat="-28.127965" lon="-65.65738">
        <ele>943.2</ele>
        <time>2018-08-19T14:57:00Z</time>
      </trkpt>
      <trkpt lat="-28.127885" lon="-65.657365">
        <ele>943.4</ele>
        <time>2018-08-19T14:57:03Z</time>
      </trkpt>
      <trkpt lat="-28.1278" lon="-65.657345">
        <ele>943.6</ele>
        <time>2018-08-19T14:57:06Z</time>
      </trkpt>
      <trkpt lat="-28.12772" lon="-65.657325">
        <ele>943.8</ele>
        <time>2018-08-19T14:57:09Z</time>
      </trkpt>
      <trkpt lat="-28.12763" lon="-65.657315">
        <ele>944.0</ele>
        <time>2018-08-19T14:57:12Z</time>
      </trkpt>
      <trkpt lat="-28.12755" lon="-65.6573">
        <ele>944.2</ele>
        <time>2018-08-19T14:57:15Z</time>
      </trkpt>
      <trkpt lat="-28.12747" lon="-65.6573">
        <ele>944.4</ele>
        <time>2018-08-19T14:57:18Z</time>
      </trkpt>
      <trkpt lat="-28.12739" lon="-65.65729">
        <ele>944.6</ele>
        <time>2018-08-19T14:57:21Z</time>
      </trkpt>
      <trkpt lat="-28.127305" lon="-65.657285">
        <ele>944.9</ele>
        <time>2018-08-19T14:57:24Z</time>
      </trkpt>
      <trkpt lat="-28.127225" lon="-65.65728">
        <ele>945.1</ele>
        <time>2018-08-19T14:57:27Z</time>
      </trkpt>
      <trkpt lat="-28.127145" lon="-65.65727">
        <ele>945.3</ele>
        <time>2018-08-19T14:57:30Z</time>
      </trkpt>
      <trkpt lat="-28.12706" lon="-65.65727">
        <ele>945.6</ele>
        <time>2018-08-19T14:57:33Z</time>
      </trkpt>
      <trkpt lat="-28.12698" lon="-65.65727">
        <ele>945.8</ele>
        <time>2018-08-19T14:57:36Z</time>
      </trkpt>
      <trkpt lat="-28.1269" lon="-65.65727">
        <ele>946.1</ele>
        <time>2018-08-19T14:57:39Z</time>
      </trkpt>
      <trkpt lat="-28.126825" lon="-65.65727">
        <ele>946.3</ele>
        <time>2018-08-19T14:57:42Z</time>
      </trkpt>
      <trkpt lat="-28.12675" lon="-65.657285">
        <ele>946.5</ele>
        <time>2018-08-19T14:57:45Z</time>
      </trkpt>
      <trkpt lat="-28.126665" lon="-65.657285">
        <ele>946.6</ele>
        <time>2018-08-19T14:57:48Z</time>
      </trkpt>
      <trkpt lat="-28.126585" lon="-65.657285">
        <ele>946.9</ele>
        <time>2018-08-19T14:57:51Z</time>
      </trkpt>
      <trkpt lat="-28.126505" lon="-65.65729">
        <ele>947.1</ele>
        <time>2018-08-19T14:57:54Z</time>
      </trkpt>
      <trkpt lat="-28.12643" lon="-65.6573">
        <ele>947.3</ele>
        <time>2018-08-19T14:57:57Z</time>
      </trkpt>
      <trkpt lat="-28.126335" lon="-65.6573">
        <ele>947.5</ele>
        <time>2018-08-19T14:58:00Z</time>
      </trkpt>
      <trkpt lat="-28.12626" lon="-65.6573">
        <ele>947.8</ele>
        <time>2018-08-19T14:58:03Z</time>
      </trkpt>
      <trkpt lat="-28.12618" lon="-65.657315">
        <ele>948.1</ele>
        <time>2018-08-19T14:58:06Z</time>
      </trkpt>
      <trkpt lat="-28.1261" lon="-65.657325">
        <ele>948.3</ele>
        <time>2018-08-19T14:58:09Z</time>
      </trkpt>
      <trkpt lat="-28.126015" lon="-65.657335">
        <ele>948.5</ele>
        <time>2018-08-19T14:58:12Z</time>
      </trkpt>
      <trkpt lat="-28.12592" lon="-65.657345">
        <ele>948.8</ele>
        <time>2018-08-19T14:58:15Z</time>
      </trkpt>
      <trkpt lat="-28.125835" lon="-65.657345">
        <ele>949.0</ele>
        <time>2018-08-19T14:58:18Z</time>
      </trkpt>
      <trkpt lat="-28.125755" lon="-65.657345">
        <ele>949.3</ele>
        <time>2018-08-19T14:58:21Z</time>
      </trkpt>
      <trkpt lat="-28.12566" lon="-65.657375">
        <ele>949.5</ele>
        <time>2018-08-19T14:58:24Z</time>
      </trkpt>
      <trkpt lat="-28.12558" lon="-65.657385">
        <ele>949.7</ele>
        <time>2018-08-19T14:58:27Z</time>
      </trkpt>
      <trkpt lat="-28.12549" lon="-65.657385">
        <ele>949.9</ele>
        <time>2018-08-19T14:58:30Z</time>
      </trkpt>
      <trkpt lat="-28.1254" lon="-65.657385">
        <ele>950.2</ele>
        <time>2018-08-19T14:58:33Z</time>
      </trkpt>
      <trkpt lat="-28.125315" lon="-65.65741">
        <ele>950.4</ele>
        <time>2018-08-19T14:58:36Z</time>
      </trkpt>
      <trkpt lat="-28.125225" lon="-65.65743">
        <ele>950.6</ele>
        <time>2018-08-19T14:58:39Z</time>
      </trkpt>
      <trkpt lat="-28.125125" lon="-65.65743">
        <ele>950.9</ele>
        <time>2018-08-19T14:58:42Z</time>
      </trkpt>
      <trkpt lat="-28.12503" lon="-65.657455">
        <ele>951.1</ele>
        <time>2018-08-19T14:58:45Z</time>
      </trkpt>
      <trkpt lat="-28.12493" lon="-65.65747">
        <ele>951.4</ele>
        <time>2018-08-19T14:58:48Z</time>
      </trkpt>
      <trkpt lat="-28.12484" lon="-65.65747">
        <ele>951.6</ele>
        <time>2018-08-19T14:58:51Z</time>
      </trkpt>
      <trkpt lat="-28.12474" lon="-65.657495">
        <ele>951.9</ele>
        <time>2018-08-19T14:58:54Z</time>
      </trkpt>
      <trkpt lat="-28.124665" lon="-65.657495">
        <ele>952.1</ele>
        <time>2018-08-19T14:58:57Z</time>
      </trkpt>
      <trkpt lat="-28.124675" lon="-65.65751">
        <ele>952.3</ele>
        <time>2018-08-19T14:59:04Z</time>
      </trkpt>
      <trkpt lat="-28.124685" lon="-65.657515">
        <ele>952.3</ele>
        <time>2018-08-19T14:59:05Z</time>
      </trkpt>
      <trkpt lat="-28.124705" lon="-65.657515">
        <ele>952.3</ele>
        <time>2018-08-19T14:59:17Z</time>
      </trkpt>
      <trkpt lat="-28.124705" lon="-65.657525">
        <ele>952.3</ele>
        <time>2018-08-19T14:59:18Z</time>
      </trkpt>
      <trkpt lat="-28.124685" lon="-65.657515">
        <ele>952.5</ele>
        <time>2018-08-19T14:59:33Z</time>
      </trkpt>
      <trkpt lat="-28.124675" lon="-65.657515">
        <ele>952.5</ele>
        <time>2018-08-19T14:59:34Z</time>
      </trkpt>
      <trkpt lat="-28.124665" lon="-65.657495">
        <ele>952.8</ele>
        <time>2018-08-19T15:00:26Z</time>
      </trkpt>
      <trkpt lat="-28.124665" lon="-65.657495">
        <ele>952.8</ele>
        <time>2018-08-19T15:00:27Z</time>
      </trkpt>
      <trkpt lat="-28.124685" lon="-65.657495">
        <ele>953.2</ele>
        <time>2018-08-19T15:00:54Z</time>
      </trkpt>
      <trkpt lat="-28.124685" lon="-65.657495">
        <ele>953.2</ele>
        <time>2018-08-19T15:00:55Z</time>
      </trkpt>
      <trkpt lat="-28.12467" lon="-65.65751">
        <ele>953.7</ele>
        <time>2018-08-19T15:02:00Z</time>
      </trkpt>
      <trkpt lat="-28.12467" lon="-65.657515">
        <ele>953.8</ele>
        <time>2018-08-19T15:02:01Z</time>
      </trkpt>
      <trkpt lat="-28.12466" lon="-65.657515">
        <ele>953.8</ele>
        <time>2018-08-19T15:02:09Z</time>
      </trkpt>
      <trkpt lat="-28.124665" lon="-65.657515">
        <ele>953.8</ele>
        <time>2018-08-19T15:02:10Z</time>
      </trkpt>
      <trkpt lat="-28.124665" lon="-65.657525">
        <ele>953.9</ele>
        <time>2018-08-19T15:02:21Z</time>
      </trkpt>
      <trkpt lat="-28.124665" lon="-65.657525">
        <ele>953.9</ele>
        <time>2018-08-19T15:02:22Z</time>
      </trkpt>
      <trkpt lat="-28.12463" lon="-65.657525">
        <ele>954.4</ele>
        <time>2018-08-19T15:02:31Z</time>
      </trkpt>
      <trkpt lat="-28.124625" lon="-65.657525">
        <ele>954.4</ele>
        <time>2018-08-19T15:02:32Z</time>
      </trkpt>
      <trkpt lat="-28.124605" lon="-65.657525">
        <ele>954.7</ele>
        <time>2018-08-19T15:02:41Z</time>
      </trkpt>
      <trkpt lat="-28.124615" lon="-65.657525">
        <ele>954.7</ele>
        <time>2018-08-19T15:02:42Z</time>
      </trkpt>
      <trkpt lat="-28.124595" lon="-65.657525">
        <ele>955.3</ele>
        <time>2018-08-19T15:02:53Z</time>
      </trkpt>
      <trkpt lat="-28.124595" lon="-65.657525">
        <ele>955.3</ele>
        <time>2018-08-19T15:02:54Z</time>
      </trkpt>
      <trkpt lat="-28.124605" lon="-65.657525">
        <ele>955.4</ele>
        <time>2018-08-19T15:03:08Z</time>
      </trkpt>
      <trkpt lat="-28.124605" lon="-65.657525">
        <ele>955.4</ele>
        <time>2018-08-19T15:03:09Z</time>
      </trkpt>
      <trkpt lat="-28.12452" lon="-65.65754">
        <ele>955.2</ele>
        <time>2018-08-19T15:03:16Z</time>
      </trkpt>
      <trkpt lat="-28.12444" lon="-65.65754">
        <ele>955.3</ele>
        <time>2018-08-19T15:03:19Z</time>
      </trkpt>
      <trkpt lat="-28.124365" lon="-65.657545">
        <ele>955.3</ele>
        <time>2018-08-19T15:03:23Z</time>
      </trkpt>
      <trkpt lat="-28.12427" lon="-65.65756">
        <ele>955.3</ele>
        <time>2018-08-19T15:03:27Z</time>
      </trkpt>
      <trkpt lat="-28.124175" lon="-65.65756">
        <ele>955.3</ele>
        <time>2018-08-19T15:03:30Z</time>
      </trkpt>
      <trkpt lat="-28.124085" lon="-65.65757">
        <ele>955.3</ele>
        <time>2018-08-19T15:03:33Z</time>
      </trkpt>
      <trkpt lat="-28.123985" lon="-65.65757">
        <ele>955.3</ele>
        <time>2018-08-19T15:03:36Z</time>
      </trkpt>
      <trkpt lat="-28.12391" lon="-65.65759">
        <ele>955.1</ele>
        <time>2018-08-19T15:03:38Z</time>
      </trkpt>
      <trkpt lat="-28.12383" lon="-65.6576">
        <ele>954.8</ele>
        <time>2018-08-19T15:03:40Z</time>
      </trkpt>
      <trkpt lat="-28.123755" lon="-65.65761">
        <ele>954.6</ele>
        <time>2018-08-19T15:03:42Z</time>
      </trkpt>
      <trkpt lat="-28.123675" lon="-65.65761">
        <ele>954.3</ele>
        <time>2018-08-19T15:03:44Z</time>
      </trkpt>
      <trkpt lat="-28.12359" lon="-65.657635">
        <ele>954.1</ele>
        <time>2018-08-19T15:03:46Z</time>
      </trkpt>
      <trkpt lat="-28.1235" lon="-65.657645">
        <ele>953.8</ele>
        <time>2018-08-19T15:03:48Z</time>
      </trkpt>
      <trkpt lat="-28.123405" lon="-65.657655">
        <ele>953.5</ele>
        <time>2018-08-19T15:03:50Z</time>
      </trkpt>
      <trkpt lat="-28.123305" lon="-65.657655">
        <ele>953.3</ele>
        <time>2018-08-19T15:03:52Z</time>
      </trkpt>
      <trkpt lat="-28.12319" lon="-65.65768">
        <ele>953.0</ele>
        <time>2018-08-19T15:03:54Z</time>
      </trkpt>
      <trkpt lat="-28.123085" lon="-65.65769">
        <ele>952.6</ele>
        <time>2018-08-19T15:03:56Z</time>
      </trkpt>
      <trkpt lat="-28.122965" lon="-65.657695">
        <ele>952.2</ele>
        <time>2018-08-19T15:03:58Z</time>
      </trkpt>
      <trkpt lat="-28.12285" lon="-65.65772">
        <ele>951.8</ele>
        <time>2018-08-19T15:04:00Z</time>
      </trkpt>
      <trkpt lat="-28.122735" lon="-65.65774">
        <ele>951.2</ele>
        <time>2018-08-19T15:04:02Z</time>
      </trkpt>
      <trkpt lat="-28.1226" lon="-65.65774">
        <ele>951.0</ele>
        <time>2018-08-19T15:04:04Z</time>
      </trkpt>
      <trkpt lat="-28.12247" lon="-65.65777">
        <ele>951.2</ele>
        <time>2018-08-19T15:04:06Z</time>
      </trkpt>
      <trkpt lat="-28.12235" lon="-65.657785">
        <ele>951.4</ele>
        <time>2018-08-19T15:04:08Z</time>
      </trkpt>
      <trkpt lat="-28.122225" lon="-65.657785">
        <ele>951.3</ele>
        <time>2018-08-19T15:04:10Z</time>
      </trkpt>
      <trkpt lat="-28.12211" lon="-65.65778833333333">
        <ele>951.1</ele>
        <time>2018-08-19T15:04:12Z</time>
      </trkpt>
      <trkpt lat="-28.12199" lon="-65.65782">
        <ele>950.9</ele>
        <time>2018-08-19T15:04:14Z</time>
      </trkpt>
      <trkpt lat="-28.121865" lon="-65.657835">
        <ele>950.7</ele>
        <time>2018-08-19T15:04:16Z</time>
      </trkpt>
      <trkpt lat="-28.12175" lon="-65.657835">
        <ele>950.5</ele>
        <time>2018-08-19T15:04:18Z</time>
      </trkpt>
      <trkpt lat="-28.12163" lon="-65.657835">
        <ele>950.4</ele>
        <time>2018-08-19T15:04:20Z</time>
      </trkpt>
      <trkpt lat="-28.12152" lon="-65.65787">
        <ele>950.0</ele>
        <time>2018-08-19T15:04:22Z</time>
      </trkpt>
      <trkpt lat="-28.121405" lon="-65.65787">
        <ele>949.4</ele>
        <time>2018-08-19T15:04:24Z</time>
      </trkpt>
      <trkpt lat="-28.121285" lon="-65.65788">
        <ele>948.9</ele>
        <time>2018-08-19T15:04:26Z</time>
      </trkpt>
      <trkpt lat="-28.12116" lon="-65.65788">
        <ele>948.6</ele>
        <time>2018-08-19T15:04:28Z</time>
      </trkpt>
      <trkpt lat="-28.12103" lon="-65.65788">
        <ele>948.3</ele>
        <time>2018-08-19T15:04:30Z</time>
      </trkpt>
      <trkpt lat="-28.120925" lon="-65.65787">
        <ele>947.9</ele>
        <time>2018-08-19T15:04:32Z</time>
      </trkpt>
      <trkpt lat="-28.120805" lon="-65.65787">
        <ele>947.6</ele>
        <time>2018-08-19T15:04:34Z</time>
      </trkpt>
      <trkpt lat="-28.12069" lon="-65.65787">
        <ele>947.5</ele>
        <time>2018-08-19T15:04:36Z</time>
      </trkpt>
      <trkpt lat="-28.12058" lon="-65.65786">
        <ele>947.8</ele>
        <time>2018-08-19T15:04:38Z</time>
      </trkpt>
      <trkpt lat="-28.120475" lon="-65.657835">
        <ele>947.8</ele>
        <time>2018-08-19T15:04:40Z</time>
      </trkpt>
      <trkpt lat="-28.12037" lon="-65.657835">
        <ele>947.6</ele>
        <time>2018-08-19T15:04:42Z</time>
      </trkpt>
      <trkpt lat="-28.12026" lon="-65.657835">
        <ele>947.4</ele>
        <time>2018-08-19T15:04:44Z</time>
      </trkpt>
      <trkpt lat="-28.12016" lon="-65.657835">
        <ele>946.9</ele>
        <time>2018-08-19T15:04:46Z</time>
      </trkpt>
      <trkpt lat="-28.120045" lon="-65.65783">
        <ele>946.5</ele>
        <time>2018-08-19T15:04:48Z</time>
      </trkpt>
      <trkpt lat="-28.119955" lon="-65.65782">
        <ele>946.0</ele>
        <time>2018-08-19T15:04:50Z</time>
      </trkpt>
      <trkpt lat="-28.119855" lon="-65.657815">
        <ele>945.7</ele>
        <time>2018-08-19T15:04:52Z</time>
      </trkpt>
      <trkpt lat="-28.11975" lon="-65.65778666666667">
        <ele>945.6</ele>
        <time>2018-08-19T15:04:54Z</time>
      </trkpt>
      <trkpt lat="-28.11965" lon="-65.657785">
        <ele>945.8</ele>
        <time>2018-08-19T15:04:56Z</time>
      </trkpt>
      <trkpt lat="-28.119555" lon="-65.657785">
        <ele>945.9</ele>
        <time>2018-08-19T15:04:58Z</time>
      </trkpt>
      <trkpt lat="-28.119465" lon="-65.657785">
        <ele>945.9</ele>
        <time>2018-08-19T15:05:00Z</time>
      </trkpt>
      <trkpt lat="-28.11937" lon="-65.657775">
        <ele>946.1</ele>
        <time>2018-08-19T15:05:02Z</time>
      </trkpt>
      <trkpt lat="-28.11929" lon="-65.65777">
        <ele>946.4</ele>
        <time>2018-08-19T15:05:04Z</time>
      </trkpt>
      <trkpt lat="-28.119215" lon="-65.657765">
        <ele>946.5</ele>
        <time>2018-08-19T15:05:06Z</time>
      </trkpt>
      <trkpt lat="-28.119135" lon="-65.65774">
        <ele>946.6</ele>
        <time>2018-08-19T15:05:08Z</time>
      </trkpt>
      <trkpt lat="-28.11906" lon="-65.65774">
        <ele>946.6</ele>
        <time>2018-08-19T15:05:10Z</time>
      </trkpt>
      <trkpt lat="-28.11899" lon="-65.65774">
        <ele>946.7</ele>
        <time>2018-08-19T15:05:12Z</time>
      </trkpt>
      <trkpt lat="-28.118885" lon="-65.65774">
        <ele>946.7</ele>
        <time>2018-08-19T15:05:15Z</time>
      </trkpt>
      <trkpt lat="-28.11881" lon="-65.657735">
        <ele>946.8</ele>
        <time>2018-08-19T15:05:17Z</time>
      </trkpt>
      <trkpt lat="-28.11873" lon="-65.65772">
        <ele>946.9</ele>
        <time>2018-08-19T15:05:19Z</time>
      </trkpt>
      <trkpt lat="-28.11864" lon="-65.65772">
        <ele>946.9</ele>
        <time>2018-08-19T15:05:22Z</time>
      </trkpt>
      <trkpt lat="-28.11854" lon="-65.657695">
        <ele>947.0</ele>
        <time>2018-08-19T15:05:25Z</time>
      </trkpt>
      <trkpt lat="-28.11844" lon="-65.657695">
        <ele>947.0</ele>
        <time>2018-08-19T15:05:28Z</time>
      </trkpt>
      <trkpt lat="-28.11834" lon="-65.657695">
        <ele>947.1</ele>
        <time>2018-08-19T15:05:31Z</time>
      </trkpt>
      <trkpt lat="-28.11824" lon="-65.657695">
        <ele>947.3</ele>
        <time>2018-08-19T15:05:34Z</time>
      </trkpt>
      <trkpt lat="-28.11816" lon="-65.65769">
        <ele>947.5</ele>
        <time>2018-08-19T15:05:36Z</time>
      </trkpt>
      <trkpt lat="-28.118075" lon="-65.65768">
        <ele>947.7</ele>
        <time>2018-08-19T15:05:39Z</time>
      </trkpt>
      <trkpt lat="-28.117995" lon="-65.657655">
        <ele>948.0</ele>
        <time>2018-08-19T15:05:43Z</time>
      </trkpt>
      <trkpt lat="-28.11792" lon="-65.657655">
        <ele>948.3</ele>
        <time>2018-08-19T15:05:46Z</time>
      </trkpt>
      <trkpt lat="-28.11784" lon="-65.657655">
        <ele>948.6</ele>
        <time>2018-08-19T15:05:49Z</time>
      </trkpt>
      <trkpt lat="-28.117765" lon="-65.657655">
        <ele>948.8</ele>
        <time>2018-08-19T15:05:52Z</time>
      </trkpt>
      <trkpt lat="-28.11769" lon="-65.657655">
        <ele>949.1</ele>
        <time>2018-08-19T15:05:55Z</time>
      </trkpt>
      <trkpt lat="-28.11761" lon="-65.657655">
        <ele>949.4</ele>
        <time>2018-08-19T15:05:58Z</time>
      </trkpt>
      <trkpt lat="-28.11752" lon="-65.65765">
        <ele>949.8</ele>
        <time>2018-08-19T15:06:02Z</time>
      </trkpt>
      <trkpt lat="-28.11742" lon="-65.657645">
        <ele>950.2</ele>
        <time>2018-08-19T15:06:06Z</time>
      </trkpt>
      <trkpt lat="-28.11735" lon="-65.657635">
        <ele>950.5</ele>
        <time>2018-08-19T15:06:09Z</time>
      </trkpt>
      <trkpt lat="-28.11726" lon="-65.657645">
        <ele>950.9</ele>
        <time>2018-08-19T15:06:13Z</time>
      </trkpt>
      <trkpt lat="-28.117175" lon="-65.65765">
        <ele>951.2</ele>
        <time>2018-08-19T15:06:17Z</time>
      </trkpt>
      <trkpt lat="-28.11708" lon="-65.657655">
        <ele>951.5</ele>
        <time>2018-08-19T15:06:21Z</time>
      </trkpt>
      <trkpt lat="-28.116985" lon="-65.657655">
        <ele>951.9</ele>
        <time>2018-08-19T15:06:25Z</time>
      </trkpt>
      <trkpt lat="-28.1169" lon="-65.657655">
        <ele>952.2</ele>
        <time>2018-08-19T15:06:28Z</time>
      </trkpt>
      <trkpt lat="-28.11682" lon="-65.657655">
        <ele>952.6</ele>
        <time>2018-08-19T15:06:32Z</time>
      </trkpt>
      <trkpt lat="-28.11673" lon="-65.65768">
        <ele>953.0</ele>
        <time>2018-08-19T15:06:36Z</time>
      </trkpt>
      <trkpt lat="-28.11665" lon="-65.65769">
        <ele>953.4</ele>
        <time>2018-08-19T15:06:40Z</time>
      </trkpt>
      <trkpt lat="-28.11656" lon="-65.657695">
        <ele>953.9</ele>
        <time>2018-08-19T15:06:44Z</time>
      </trkpt>
      <trkpt lat="-28.11648" lon="-65.657695">
        <ele>954.3</ele>
        <time>2018-08-19T15:06:48Z</time>
      </trkpt>
      <trkpt lat="-28.116395" lon="-65.65773">
        <ele>954.7</ele>
        <time>2018-08-19T15:06:52Z</time>
      </trkpt>
      <trkpt lat="-28.11631" lon="-65.65774">
        <ele>955.2</ele>
        <time>2018-08-19T15:06:56Z</time>
      </trkpt>
      <trkpt lat="-28.116235" lon="-65.657765">
        <ele>955.7</ele>
        <time>2018-08-19T15:07:00Z</time>
      </trkpt>
      <trkpt lat="-28.116155" lon="-65.657785">
        <ele>956.1</ele>
        <time>2018-08-19T15:07:04Z</time>
      </trkpt>
      <trkpt lat="-28.11609" lon="-65.657815">
        <ele>956.5</ele>
        <time>2018-08-19T15:07:08Z</time>
      </trkpt>
      <trkpt lat="-28.11601" lon="-65.657835">
        <ele>956.9</ele>
        <time>2018-08-19T15:07:12Z</time>
      </trkpt>
      <trkpt lat="-28.115935" lon="-65.65786">
        <ele>957.2</ele>
        <time>2018-08-19T15:07:16Z</time>
      </trkpt>
      <trkpt lat="-28.115855" lon="-65.65788">
        <ele>957.6</ele>
        <time>2018-08-19T15:07:20Z</time>
      </trkpt>
      <trkpt lat="-28.115775" lon="-65.65792">
        <ele>958.1</ele>
        <time>2018-08-19T15:07:24Z</time>
      </trkpt>
      <trkpt lat="-28.11569" lon="-65.657955">
        <ele>958.5</ele>
        <time>2018-08-19T15:07:28Z</time>
      </trkpt>
      <trkpt lat="-28.11561" lon="-65.65799">
        <ele>958.8</ele>
        <time>2018-08-19T15:07:32Z</time>
      </trkpt>
      <trkpt lat="-28.115535" lon="-65.65800166666666">
        <ele>959.2</ele>
        <time>2018-08-19T15:07:36Z</time>
      </trkpt>
      <trkpt lat="-28.115455" lon="-65.65806">
        <ele>959.7</ele>
        <time>2018-08-19T15:07:40Z</time>
      </trkpt>
      <trkpt lat="-28.115375" lon="-65.658095">
        <ele>960.2</ele>
        <time>2018-08-19T15:07:44Z</time>
      </trkpt>
      <trkpt lat="-28.1153" lon="-65.65814">
        <ele>960.6</ele>
        <time>2018-08-19T15:07:48Z</time>
      </trkpt>
      <trkpt lat="-28.115215" lon="-65.65818">
        <ele>961.0</ele>
        <time>2018-08-19T15:07:52Z</time>
      </trkpt>
      <trkpt lat="-28.115135" lon="-65.658225">
        <ele>961.5</ele>
        <time>2018-08-19T15:07:56Z</time>
      </trkpt>
      <trkpt lat="-28.11505" lon="-65.65827">
        <ele>962.0</ele>
        <time>2018-08-19T15:08:00Z</time>
      </trkpt>
      <trkpt lat="-28.11498" lon="-65.65831">
        <ele>962.4</ele>
        <time>2018-08-19T15:08:03Z</time>
      </trkpt>
      <trkpt lat="-28.114915" lon="-65.65833">
        <ele>962.7</ele>
        <time>2018-08-19T15:08:06Z</time>
      </trkpt>
      <trkpt lat="-28.11485" lon="-65.65837">
        <ele>963.1</ele>
        <time>2018-08-19T15:08:09Z</time>
      </trkpt>
      <trkpt lat="-28.11478" lon="-65.658415">
        <ele>963.4</ele>
        <time>2018-08-19T15:08:12Z</time>
      </trkpt>
      <trkpt lat="-28.114715" lon="-65.658455">
        <ele>963.8</ele>
        <time>2018-08-19T15:08:15Z</time>
      </trkpt>
      <trkpt lat="-28.114635" lon="-65.65851">
        <ele>964.2</ele>
        <time>2018-08-19T15:08:18Z</time>
      </trkpt>
      <trkpt lat="-28.114565" lon="-65.658555">
        <ele>964.5</ele>
        <time>2018-08-19T15:08:21Z</time>
      </trkpt>
      <trkpt lat="-28.11449" lon="-65.658595">
        <ele>964.9</ele>
        <time>2018-08-19T15:08:24Z</time>
      </trkpt>
      <trkpt lat="-28.1144" lon="-65.658665">
        <ele>965.1</ele>
        <time>2018-08-19T15:08:27Z</time>
      </trkpt>
      <trkpt lat="-28.114325" lon="-65.658705">
        <ele>965.3</ele>
        <time>2018-08-19T15:08:29Z</time>
      </trkpt>
      <trkpt lat="-28.11427" lon="-65.65875">
        <ele>965.5</ele>
        <time>2018-08-19T15:08:31Z</time>
      </trkpt>
      <trkpt lat="-28.114205" lon="-65.65877166666667">
        <ele>967.4</ele>
        <time>2018-08-19T15:08:33Z</time>
      </trkpt>
      <trkpt lat="-28.114135" lon="-65.658835">
        <ele>967.5</ele>
        <time>2018-08-19T15:08:35Z</time>
      </trkpt>
      <trkpt lat="-28.114075" lon="-65.658865">
        <ele>967.6</ele>
        <time>2018-08-19T15:08:37Z</time>
      </trkpt>
      <trkpt lat="-28.114005" lon="-65.658905">
        <ele>969.1</ele>
        <time>2018-08-19T15:08:39Z</time>
      </trkpt>
      <trkpt lat="-28.11393" lon="-65.65895">
        <ele>970.0</ele>
        <time>2018-08-19T15:08:41Z</time>
      </trkpt>
      <trkpt lat="-28.113855" lon="-65.658985">
        <ele>970.5</ele>
        <time>2018-08-19T15:08:43Z</time>
      </trkpt>
      <trkpt lat="-28.113775" lon="-65.659045">
        <ele>970.9</ele>
        <time>2018-08-19T15:08:45Z</time>
      </trkpt>
      <trkpt lat="-28.1137" lon="-65.65909">
        <ele>970.8</ele>
        <time>2018-08-19T15:08:47Z</time>
      </trkpt>
      <trkpt lat="-28.113605" lon="-65.65913">
        <ele>970.2</ele>
        <time>2018-08-19T15:08:49Z</time>
      </trkpt>
      <trkpt lat="-28.113525" lon="-65.65917">
        <ele>969.7</ele>
        <time>2018-08-19T15:08:51Z</time>
      </trkpt>
      <trkpt lat="-28.113435" lon="-65.65921">
        <ele>969.8</ele>
        <time>2018-08-19T15:08:53Z</time>
      </trkpt>
      <trkpt lat="-28.113335" lon="-65.65926">
        <ele>969.7</ele>
        <time>2018-08-19T15:08:55Z</time>
      </trkpt>
      <trkpt lat="-28.113235" lon="-65.659305">
        <ele>969.8</ele>
        <time>2018-08-19T15:08:57Z</time>
      </trkpt>
      <trkpt lat="-28.11314" lon="-65.659345">
        <ele>969.8</ele>
        <time>2018-08-19T15:08:59Z</time>
      </trkpt>
      <trkpt lat="-28.11303" lon="-65.659395">
        <ele>969.6</ele>
        <time>2018-08-19T15:09:01Z</time>
      </trkpt>
      <trkpt lat="-28.11294" lon="-65.65943">
        <ele>969.7</ele>
        <time>2018-08-19T15:09:03Z</time>
      </trkpt>
      <trkpt lat="-28.112865" lon="-65.65944">
        <ele>969.8</ele>
        <time>2018-08-19T15:09:05Z</time>
      </trkpt>
      <trkpt lat="-28.112785" lon="-65.659495">
        <ele>969.7</ele>
        <time>2018-08-19T15:09:07Z</time>
      </trkpt>
      <trkpt lat="-28.11269" lon="-65.65953">
        <ele>969.5</ele>
        <time>2018-08-19T15:09:09Z</time>
      </trkpt>
      <trkpt lat="-28.112605" lon="-65.65956">
        <ele>969.4</ele>
        <time>2018-08-19T15:09:11Z</time>
      </trkpt>
      <trkpt lat="-28.11251" lon="-65.65958">
        <ele>969.1</ele>
        <time>2018-08-19T15:09:13Z</time>
      </trkpt>
      <trkpt lat="-28.112415" lon="-65.659625">
        <ele>969.1</ele>
        <time>2018-08-19T15:09:15Z</time>
      </trkpt>
      <trkpt lat="-28.11232" lon="-65.659665">
        <ele>968.7</ele>
        <time>2018-08-19T15:09:17Z</time>
      </trkpt>
      <trkpt lat="-28.112205" lon="-65.6597">
        <ele>969.1</ele>
        <time>2018-08-19T15:09:19Z</time>
      </trkpt>
      <trkpt lat="-28.11211" lon="-65.659735">
        <ele>969.2</ele>
        <time>2018-08-19T15:09:21Z</time>
      </trkpt>
      <trkpt lat="-28.112005" lon="-65.65975666666667">
        <ele>969.0</ele>
        <time>2018-08-19T15:09:23Z</time>
      </trkpt>
      <trkpt lat="-28.111895" lon="-65.65982">
        <ele>969.1</ele>
        <time>2018-08-19T15:09:25Z</time>
      </trkpt>
      <trkpt lat="-28.11178" lon="-65.65985">
        <ele>968.5</ele>
        <time>2018-08-19T15:09:27Z</time>
      </trkpt>
      <trkpt lat="-28.111655" lon="-65.65989">
        <ele>968.0</ele>
        <time>2018-08-19T15:09:29Z</time>
      </trkpt>
      <trkpt lat="-28.111525" lon="-65.659955">
        <ele>967.8</ele>
        <time>2018-08-19T15:09:31Z</time>
      </trkpt>
      <trkpt lat="-28.11141" lon="-65.66">
        <ele>967.7</ele>
        <time>2018-08-19T15:09:33Z</time>
      </trkpt>
      <trkpt lat="-28.111285" lon="-65.660045">
        <ele>967.3</ele>
        <time>2018-08-19T15:09:35Z</time>
      </trkpt>
      <trkpt lat="-28.111165" lon="-65.660075">
        <ele>966.8</ele>
        <time>2018-08-19T15:09:37Z</time>
      </trkpt>
      <trkpt lat="-28.11104" lon="-65.660115">
        <ele>966.7</ele>
        <time>2018-08-19T15:09:39Z</time>
      </trkpt>
      <trkpt lat="-28.11092" lon="-65.66019">
        <ele>966.0</ele>
        <time>2018-08-19T15:09:41Z</time>
      </trkpt>
      <trkpt lat="-28.1108" lon="-65.66024">
        <ele>965.6</ele>
        <time>2018-08-19T15:09:43Z</time>
      </trkpt>
      <trkpt lat="-28.110675" lon="-65.66028">
        <ele>964.9</ele>
        <time>2018-08-19T15:09:45Z</time>
      </trkpt>
      <trkpt lat="-28.11055" lon="-65.66034">
        <ele>964.5</ele>
        <time>2018-08-19T15:09:47Z</time>
      </trkpt>
      <trkpt lat="-28.11048" lon="-65.660365">
        <ele>964.2</ele>
        <time>2018-08-19T15:09:48Z</time>
      </trkpt>
      <trkpt lat="-28.11041" lon="-65.660385">
        <ele>963.9</ele>
        <time>2018-08-19T15:09:49Z</time>
      </trkpt>
      <trkpt lat="-28.110335" lon="-65.660425">
        <ele>963.6</ele>
        <time>2018-08-19T15:09:50Z</time>
      </trkpt>
      <trkpt lat="-28.110195" lon="-65.66047">
        <ele>963.4</ele>
        <time>2018-08-19T15:09:52Z</time>
      </trkpt>
      <trkpt lat="-28.110135" lon="-65.660495">
        <ele>963.3</ele>
        <time>2018-08-19T15:09:53Z</time>
      </trkpt>
      <trkpt lat="-28.110055" lon="-65.660525">
        <ele>963.3</ele>
        <time>2018-08-19T15:09:54Z</time>
      </trkpt>
      <trkpt lat="-28.10999" lon="-65.66055">
        <ele>963.1</ele>
        <time>2018-08-19T15:09:55Z</time>
      </trkpt>
      <trkpt lat="-28.10992" lon="-65.660565">
        <ele>963.0</ele>
        <time>2018-08-19T15:09:56Z</time>
      </trkpt>
      <trkpt lat="-28.10985" lon="-65.6606">
        <ele>962.9</ele>
        <time>2018-08-19T15:09:57Z</time>
      </trkpt>
      <trkpt lat="-28.10978" lon="-65.66061">
        <ele>962.8</ele>
        <time>2018-08-19T15:09:58Z</time>
      </trkpt>
      <trkpt lat="-28.10971" lon="-65.660645">
        <ele>962.5</ele>
        <time>2018-08-19T15:09:59Z</time>
      </trkpt>
      <trkpt lat="-28.10964" lon="-65.66065">
        <ele>962.3</ele>
        <time>2018-08-19T15:10:00Z</time>
      </trkpt>
      <trkpt lat="-28.10957" lon="-65.660695">
        <ele>961.9</ele>
        <time>2018-08-19T15:10:01Z</time>
      </trkpt>
      <trkpt lat="-28.10944" lon="-65.66073">
        <ele>961.5</ele>
        <time>2018-08-19T15:10:03Z</time>
      </trkpt>
      <trkpt lat="-28.109325" lon="-65.66077">
        <ele>961.3</ele>
        <time>2018-08-19T15:10:05Z</time>
      </trkpt>
      <trkpt lat="-28.10921" lon="-65.66079">
        <ele>961.3</ele>
        <time>2018-08-19T15:10:07Z</time>
      </trkpt>
      <trkpt lat="-28.109095" lon="-65.660825">
        <ele>961.3</ele>
        <time>2018-08-19T15:10:09Z</time>
      </trkpt>
      <trkpt lat="-28.108995" lon="-65.660835">
        <ele>961.6</ele>
        <time>2018-08-19T15:10:11Z</time>
      </trkpt>
      <trkpt lat="-28.108905" lon="-65.66087">
        <ele>961.7</ele>
        <time>2018-08-19T15:10:13Z</time>
      </trkpt>
      <trkpt lat="-28.108795" lon="-65.660875">
        <ele>962.1</ele>
        <time>2018-08-19T15:10:16Z</time>
      </trkpt>
      <trkpt lat="-28.108715" lon="-65.6609">
        <ele>962.7</ele>
        <time>2018-08-19T15:10:17Z</time>
      </trkpt>
      <trkpt lat="-28.10863" lon="-65.660915">
        <ele>963.4</ele>
        <time>2018-08-19T15:10:19Z</time>
      </trkpt>
      <trkpt lat="-28.10855" lon="-65.66092">
        <ele>964.0</ele>
        <time>2018-08-19T15:10:21Z</time>
      </trkpt>
      <trkpt lat="-28.108455" lon="-65.660945">
        <ele>964.3</ele>
        <time>2018-08-19T15:10:23Z</time>
      </trkpt>
      <trkpt lat="-28.10836" lon="-65.660955">
        <ele>964.4</ele>
        <time>2018-08-19T15:10:26Z</time>
      </trkpt>
      <trkpt lat="-28.108275" lon="-65.66095666666666">
        <ele>964.5</ele>
        <time>2018-08-19T15:10:29Z</time>
      </trkpt>
      <trkpt lat="-28.10817" lon="-65.660985">
        <ele>964.7</ele>
        <time>2018-08-19T15:10:32Z</time>
      </trkpt>
      <trkpt lat="-28.108065" lon="-65.660995">
        <ele>964.8</ele>
        <time>2018-08-19T15:10:35Z</time>
      </trkpt>
      <trkpt lat="-28.10796" lon="-65.661015">
        <ele>965.0</ele>
        <time>2018-08-19T15:10:38Z</time>
      </trkpt>
      <trkpt lat="-28.10786" lon="-65.66103">
        <ele>965.2</ele>
        <time>2018-08-19T15:10:41Z</time>
      </trkpt>
      <trkpt lat="-28.107765" lon="-65.66105">
        <ele>965.4</ele>
        <time>2018-08-19T15:10:44Z</time>
      </trkpt>
      <trkpt lat="-28.10767" lon="-65.66106">
        <ele>965.6</ele>
        <time>2018-08-19T15:10:47Z</time>
      </trkpt>
      <trkpt lat="-28.10757" lon="-65.661085">
        <ele>965.8</ele>
        <time>2018-08-19T15:10:50Z</time>
      </trkpt>
      <trkpt lat="-28.10747" lon="-65.6611">
        <ele>965.9</ele>
        <time>2018-08-19T15:10:53Z</time>
      </trkpt>
      <trkpt lat="-28.107375" lon="-65.661125">
        <ele>966.1</ele>
        <time>2018-08-19T15:10:56Z</time>
      </trkpt>
      <trkpt lat="-28.107275" lon="-65.66114">
        <ele>966.9</ele>
        <time>2018-08-19T15:10:59Z</time>
      </trkpt>
      <trkpt lat="-28.1072" lon="-65.661145">
        <ele>967.1</ele>
        <time>2018-08-19T15:11:01Z</time>
      </trkpt>
      <trkpt lat="-28.107115" lon="-65.66117">
        <ele>968.8</ele>
        <time>2018-08-19T15:11:03Z</time>
      </trkpt>
      <trkpt lat="-28.10704" lon="-65.66118">
        <ele>969.7</ele>
        <time>2018-08-19T15:11:05Z</time>
      </trkpt>
      <trkpt lat="-28.106955" lon="-65.66118">
        <ele>970.2</ele>
        <time>2018-08-19T15:11:07Z</time>
      </trkpt>
      <trkpt lat="-28.10686" lon="-65.66121">
        <ele>970.4</ele>
        <time>2018-08-19T15:11:09Z</time>
      </trkpt>
      <trkpt lat="-28.106755" lon="-65.66123">
        <ele>970.5</ele>
        <time>2018-08-19T15:11:11Z</time>
      </trkpt>
      <trkpt lat="-28.106665" lon="-65.66124">
        <ele>970.3</ele>
        <time>2018-08-19T15:11:13Z</time>
      </trkpt>
      <trkpt lat="-28.10656" lon="-65.661265">
        <ele>969.9</ele>
        <time>2018-08-19T15:11:15Z</time>
      </trkpt>
      <trkpt lat="-28.10646" lon="-65.661285">
        <ele>969.4</ele>
        <time>2018-08-19T15:11:17Z</time>
      </trkpt>
      <trkpt lat="-28.10634" lon="-65.661305">
        <ele>968.8</ele>
        <time>2018-08-19T15:11:19Z</time>
      </trkpt>
      <trkpt lat="-28.10623" lon="-65.661325">
        <ele>968.2</ele>
        <time>2018-08-19T15:11:21Z</time>
      </trkpt>
      <trkpt lat="-28.1061" lon="-65.66135">
        <ele>967.7</ele>
        <time>2018-08-19T15:11:23Z</time>
      </trkpt>
      <trkpt lat="-28.10596" lon="-65.66137">
        <ele>967.1</ele>
        <time>2018-08-19T15:11:25Z</time>
      </trkpt>
      <trkpt lat="-28.10589" lon="-65.66139">
        <ele>966.7</ele>
        <time>2018-08-19T15:11:26Z</time>
      </trkpt>
      <trkpt lat="-28.105815" lon="-65.6614">
        <ele>966.3</ele>
        <time>2018-08-19T15:11:27Z</time>
      </trkpt>
      <trkpt lat="-28.105735" lon="-65.66141">
        <ele>966.0</ele>
        <time>2018-08-19T15:11:28Z</time>
      </trkpt>
      <trkpt lat="-28.10565" lon="-65.66141">
        <ele>965.6</ele>
        <time>2018-08-19T15:11:29Z</time>
      </trkpt>
      <trkpt lat="-28.10557" lon="-65.661445">
        <ele>965.2</ele>
        <time>2018-08-19T15:11:30Z</time>
      </trkpt>
      <trkpt lat="-28.105485" lon="-65.661455">
        <ele>964.9</ele>
        <time>2018-08-19T15:11:31Z</time>
      </trkpt>
      <trkpt lat="-28.1054" lon="-65.661465">
        <ele>964.5</ele>
        <time>2018-08-19T15:11:32Z</time>
      </trkpt>
      <trkpt lat="-28.105305" lon="-65.66149">
        <ele>964.2</ele>
        <time>2018-08-19T15:11:33Z</time>
      </trkpt>
      <trkpt lat="-28.10522" lon="-65.6615">
        <ele>963.9</ele>
        <time>2018-08-19T15:11:34Z</time>
      </trkpt>
      <trkpt lat="-28.10513" lon="-65.66151">
        <ele>963.6</ele>
        <time>2018-08-19T15:11:35Z</time>
      </trkpt>
      <trkpt lat="-28.105045" lon="-65.66153">
        <ele>963.3</ele>
        <time>2018-08-19T15:11:36Z</time>
      </trkpt>
      <trkpt lat="-28.104965" lon="-65.66155">
        <ele>962.9</ele>
        <time>2018-08-19T15:11:37Z</time>
      </trkpt>
      <trkpt lat="-28.10488" lon="-65.66155">
        <ele>962.6</ele>
        <time>2018-08-19T15:11:38Z</time>
      </trkpt>
      <trkpt lat="-28.104795" lon="-65.661575">
        <ele>962.3</ele>
        <time>2018-08-19T15:11:39Z</time>
      </trkpt>
      <trkpt lat="-28.1047" lon="-65.661595">
        <ele>962.1</ele>
        <time>2018-08-19T15:11:40Z</time>
      </trkpt>
      <trkpt lat="-28.10463" lon="-65.661595">
        <ele>961.9</ele>
        <time>2018-08-19T15:11:41Z</time>
      </trkpt>
      <trkpt lat="-28.104545" lon="-65.661625">
        <ele>961.8</ele>
        <time>2018-08-19T15:11:42Z</time>
      </trkpt>
      <trkpt lat="-28.10447" lon="-65.661635">
        <ele>961.7</ele>
        <time>2018-08-19T15:11:43Z</time>
      </trkpt>
      <trkpt lat="-28.10439" lon="-65.661635">
        <ele>961.6</ele>
        <time>2018-08-19T15:11:44Z</time>
      </trkpt>
      <trkpt lat="-28.104315" lon="-65.66166">
        <ele>961.6</ele>
        <time>2018-08-19T15:11:45Z</time>
      </trkpt>
      <trkpt lat="-28.10424" lon="-65.66167">
        <ele>961.5</ele>
        <time>2018-08-19T15:11:46Z</time>
      </trkpt>
      <trkpt lat="-28.10417" lon="-65.66168">
        <ele>961.5</ele>
        <time>2018-08-19T15:11:47Z</time>
      </trkpt>
      <trkpt lat="-28.104025" lon="-65.66171">
        <ele>961.6</ele>
        <time>2018-08-19T15:11:49Z</time>
      </trkpt>
      <trkpt lat="-28.103895" lon="-65.661725">
        <ele>961.7</ele>
        <time>2018-08-19T15:11:51Z</time>
      </trkpt>
      <trkpt lat="-28.103755" lon="-65.661765">
        <ele>962.2</ele>
        <time>2018-08-19T15:11:53Z</time>
      </trkpt>
      <trkpt lat="-28.10363" lon="-65.661775">
        <ele>962.7</ele>
        <time>2018-08-19T15:11:55Z</time>
      </trkpt>
      <trkpt lat="-28.10351" lon="-65.6618">
        <ele>963.0</ele>
        <time>2018-08-19T15:11:57Z</time>
      </trkpt>
      <trkpt lat="-28.1034" lon="-65.66182">
        <ele>963.3</ele>
        <time>2018-08-19T15:11:59Z</time>
      </trkpt>
      <trkpt lat="-28.103295" lon="-65.66184">
        <ele>963.7</ele>
        <time>2018-08-19T15:12:01Z</time>
      </trkpt>
      <trkpt lat="-28.103195" lon="-65.661855">
        <ele>963.8</ele>
        <time>2018-08-19T15:12:03Z</time>
      </trkpt>
      <trkpt lat="-28.103105" lon="-65.66186">
        <ele>963.9</ele>
        <time>2018-08-19T15:12:05Z</time>
      </trkpt>
      <trkpt lat="-28.10302" lon="-65.661895">
        <ele>963.9</ele>
        <time>2018-08-19T15:12:07Z</time>
      </trkpt>
      <trkpt lat="-28.10294" lon="-65.661905">
        <ele>963.9</ele>
        <time>2018-08-19T15:12:09Z</time>
      </trkpt>
      <trkpt lat="-28.10283" lon="-65.66193">
        <ele>963.8</ele>
        <time>2018-08-19T15:12:12Z</time>
      </trkpt>
      <trkpt lat="-28.10275" lon="-65.66194">
        <ele>963.6</ele>
        <time>2018-08-19T15:12:14Z</time>
      </trkpt>
      <trkpt lat="-28.102675" lon="-65.66194">
        <ele>963.4</ele>
        <time>2018-08-19T15:12:16Z</time>
      </trkpt>
      <trkpt lat="-28.10259" lon="-65.66194">
        <ele>963.2</ele>
        <time>2018-08-19T15:12:18Z</time>
      </trkpt>
      <trkpt lat="-28.102515" lon="-65.66194666666667">
        <ele>963.0</ele>
        <time>2018-08-19T15:12:20Z</time>
      </trkpt>
      <trkpt lat="-28.102445" lon="-65.66198">
        <ele>963.2</ele>
        <time>2018-08-19T15:12:22Z</time>
      </trkpt>
      <trkpt lat="-28.102365" lon="-65.66199">
        <ele>963.6</ele>
        <time>2018-08-19T15:12:24Z</time>
      </trkpt>
      <trkpt lat="-28.10228" lon="-65.662">
        <ele>963.9</ele>
        <time>2018-08-19T15:12:26Z</time>
      </trkpt>
      <trkpt lat="-28.1022" lon="-65.662015">
        <ele>964.0</ele>
        <time>2018-08-19T15:12:28Z</time>
      </trkpt>
      <trkpt lat="-28.10212" lon="-65.662035">
        <ele>964.2</ele>
        <time>2018-08-19T15:12:30Z</time>
      </trkpt>
      <trkpt lat="-28.10204" lon="-65.662045">
        <ele>964.4</ele>
        <time>2018-08-19T15:12:32Z</time>
      </trkpt>
      <trkpt lat="-28.101955" lon="-65.662065">
        <ele>964.6</ele>
        <time>2018-08-19T15:12:34Z</time>
      </trkpt>
      <trkpt lat="-28.101865" lon="-65.66208">
        <ele>964.7</ele>
        <time>2018-08-19T15:12:36Z</time>
      </trkpt>
      <trkpt lat="-28.101785" lon="-65.662085">
        <ele>964.8</ele>
        <time>2018-08-19T15:12:38Z</time>
      </trkpt>
      <trkpt lat="-28.101705" lon="-65.662085">
        <ele>964.9</ele>
        <time>2018-08-19T15:12:40Z</time>
      </trkpt>
      <trkpt lat="-28.10162" lon="-65.66212">
        <ele>965.1</ele>
        <time>2018-08-19T15:12:42Z</time>
      </trkpt>
      <trkpt lat="-28.101535" lon="-65.66213">
        <ele>965.3</ele>
        <time>2018-08-19T15:12:44Z</time>
      </trkpt>
      <trkpt lat="-28.10145" lon="-65.66215">
        <ele>965.4</ele>
        <time>2018-08-19T15:12:46Z</time>
      </trkpt>
      <trkpt lat="-28.10137" lon="-65.662165">
        <ele>965.6</ele>
        <time>2018-08-19T15:12:49Z</time>
      </trkpt>
      <trkpt lat="-28.10129" lon="-65.662165">
        <ele>966.1</ele>
        <time>2018-08-19T15:12:50Z</time>
      </trkpt>
      <trkpt lat="-28.10121" lon="-65.66216666666666">
        <ele>966.7</ele>
        <time>2018-08-19T15:12:52Z</time>
      </trkpt>
      <trkpt lat="-28.10113" lon="-65.662205">
        <ele>966.9</ele>
        <time>2018-08-19T15:12:54Z</time>
      </trkpt>
      <trkpt lat="-28.101035" lon="-65.662225">
        <ele>966.5</ele>
        <time>2018-08-19T15:12:56Z</time>
      </trkpt>
      <trkpt lat="-28.10097" lon="-65.66225">
        <ele>966.2</ele>
        <time>2018-08-19T15:12:58Z</time>
      </trkpt>
      <trkpt lat="-28.10089" lon="-65.66227">
        <ele>966.3</ele>
        <time>2018-08-19T15:13:00Z</time>
      </trkpt>
      <trkpt lat="-28.10081" lon="-65.662305">
        <ele>966.6</ele>
        <time>2018-08-19T15:13:02Z</time>
      </trkpt>
      <trkpt lat="-28.100735" lon="-65.662335">
        <ele>966.6</ele>
        <time>2018-08-19T15:13:04Z</time>
      </trkpt>
      <trkpt lat="-28.100655" lon="-65.662355">
        <ele>966.7</ele>
        <time>2018-08-19T15:13:06Z</time>
      </trkpt>
      <trkpt lat="-28.10057" lon="-65.662395">
        <ele>966.7</ele>
        <time>2018-08-19T15:13:08Z</time>
      </trkpt>
      <trkpt lat="-28.1005" lon="-65.66243">
        <ele>966.7</ele>
        <time>2018-08-19T15:13:10Z</time>
      </trkpt>
      <trkpt lat="-28.10043" lon="-65.662465">
        <ele>966.5</ele>
        <time>2018-08-19T15:13:12Z</time>
      </trkpt>
      <trkpt lat="-28.100355" lon="-65.662495">
        <ele>966.3</ele>
        <time>2018-08-19T15:13:14Z</time>
      </trkpt>
      <trkpt lat="-28.100275" lon="-65.662535">
        <ele>966.5</ele>
        <time>2018-08-19T15:13:16Z</time>
      </trkpt>
      <trkpt lat="-28.100205" lon="-65.66258">
        <ele>966.8</ele>
        <time>2018-08-19T15:13:18Z</time>
      </trkpt>
      <trkpt lat="-28.100135" lon="-65.66262">
        <ele>967.3</ele>
        <time>2018-08-19T15:13:20Z</time>
      </trkpt>
      <trkpt lat="-28.10005" lon="-65.662665">
        <ele>967.9</ele>
        <time>2018-08-19T15:13:22Z</time>
      </trkpt>
      <trkpt lat="-28.099985" lon="-65.66271">
        <ele>967.9</ele>
        <time>2018-08-19T15:13:24Z</time>
      </trkpt>
      <trkpt lat="-28.099905" lon="-65.662775">
        <ele>967.9</ele>
        <time>2018-08-19T15:13:26Z</time>
      </trkpt>
      <trkpt lat="-28.099825" lon="-65.66283">
        <ele>967.8</ele>
        <time>2018-08-19T15:13:28Z</time>
      </trkpt>
      <trkpt lat="-28.09974" lon="-65.662885">
        <ele>967.6</ele>
        <time>2018-08-19T15:13:30Z</time>
      </trkpt>
      <trkpt lat="-28.09968" lon="-65.662925">
        <ele>967.6</ele>
        <time>2018-08-19T15:13:32Z</time>
      </trkpt>
      <trkpt lat="-28.099615" lon="-65.662985">
        <ele>967.6</ele>
        <time>2018-08-19T15:13:34Z</time>
      </trkpt>
      <trkpt lat="-28.099545" lon="-65.663055">
        <ele>967.5</ele>
        <time>2018-08-19T15:13:36Z</time>
      </trkpt>
      <trkpt lat="-28.099475" lon="-65.663115">
        <ele>967.5</ele>
        <time>2018-08-19T15:13:38Z</time>
      </trkpt>
      <trkpt lat="-28.0994" lon="-65.66319">
        <ele>967.3</ele>
        <time>2018-08-19T15:13:40Z</time>
      </trkpt>
      <trkpt lat="-28.09934" lon="-65.663255">
        <ele>967.2</ele>
        <time>2018-08-19T15:13:42Z</time>
      </trkpt>
      <trkpt lat="-28.099265" lon="-65.663335">
        <ele>967.0</ele>
        <time>2018-08-19T15:13:45Z</time>
      </trkpt>
      <trkpt lat="-28.09919" lon="-65.663415">
        <ele>967.1</ele>
        <time>2018-08-19T15:13:46Z</time>
      </trkpt>
      <trkpt lat="-28.09912" lon="-65.66348">
        <ele>967.0</ele>
        <time>2018-08-19T15:13:48Z</time>
      </trkpt>
      <trkpt lat="-28.099045" lon="-65.663565">
        <ele>966.8</ele>
        <time>2018-08-19T15:13:50Z</time>
      </trkpt>
      <trkpt lat="-28.098975" lon="-65.663675">
        <ele>966.6</ele>
        <time>2018-08-19T15:13:52Z</time>
      </trkpt>
      <trkpt lat="-28.098905" lon="-65.66377">
        <ele>966.7</ele>
        <time>2018-08-19T15:13:54Z</time>
      </trkpt>
      <trkpt lat="-28.09883" lon="-65.663875">
        <ele>966.8</ele>
        <time>2018-08-19T15:13:56Z</time>
      </trkpt>
      <trkpt lat="-28.09877" lon="-65.66397">
        <ele>966.8</ele>
        <time>2018-08-19T15:13:58Z</time>
      </trkpt>
      <trkpt lat="-28.098715" lon="-65.66409">
        <ele>966.3</ele>
        <time>2018-08-19T15:14:00Z</time>
      </trkpt>
      <trkpt lat="-28.098665" lon="-65.664195">
        <ele>965.6</ele>
        <time>2018-08-19T15:14:02Z</time>
      </trkpt>
      <trkpt lat="-28.0986" lon="-65.664305">
        <ele>965.1</ele>
        <time>2018-08-19T15:14:04Z</time>
      </trkpt>
      <trkpt lat="-28.09856" lon="-65.66442">
        <ele>964.7</ele>
        <time>2018-08-19T15:14:06Z</time>
      </trkpt>
      <trkpt lat="-28.098505" lon="-65.664545">
        <ele>964.1</ele>
        <time>2018-08-19T15:14:08Z</time>
      </trkpt>
      <trkpt lat="-28.09845" lon="-65.66466">
        <ele>963.6</ele>
        <time>2018-08-19T15:14:10Z</time>
      </trkpt>
      <trkpt lat="-28.09841" lon="-65.664765">
        <ele>963.4</ele>
        <time>2018-08-19T15:14:12Z</time>
      </trkpt>
      <trkpt lat="-28.098365" lon="-65.66486">
        <ele>963.2</ele>
        <time>2018-08-19T15:14:14Z</time>
      </trkpt>
      <trkpt lat="-28.098325" lon="-65.664955">
        <ele>962.4</ele>
        <time>2018-08-19T15:14:16Z</time>
      </trkpt>
      <trkpt lat="-28.098285" lon="-65.66504">
        <ele>962.8</ele>
        <time>2018-08-19T15:14:18Z</time>
      </trkpt>
      <trkpt lat="-28.098255" lon="-65.665125">
        <ele>963.7</ele>
        <time>2018-08-19T15:14:20Z</time>
      </trkpt>
      <trkpt lat="-28.098225" lon="-65.665225">
        <ele>963.8</ele>
        <time>2018-08-19T15:14:23Z</time>
      </trkpt>
      <trkpt lat="-28.098185" lon="-65.66531">
        <ele>963.6</ele>
        <time>2018-08-19T15:14:24Z</time>
      </trkpt>
      <trkpt lat="-28.09816" lon="-65.66542">
        <ele>963.2</ele>
        <time>2018-08-19T15:14:26Z</time>
      </trkpt>
      <trkpt lat="-28.098115" lon="-65.665515">
        <ele>964.2</ele>
        <time>2018-08-19T15:14:28Z</time>
      </trkpt>
      <trkpt lat="-28.09807" lon="-65.66562">
        <ele>966.4</ele>
        <time>2018-08-19T15:14:30Z</time>
      </trkpt>
      <trkpt lat="-28.098035" lon="-65.665705">
        <ele>967.1</ele>
        <time>2018-08-19T15:14:32Z</time>
      </trkpt>
      <trkpt lat="-28.09798" lon="-65.6658">
        <ele>966.7</ele>
        <time>2018-08-19T15:14:35Z</time>
      </trkpt>
      <trkpt lat="-28.097925" lon="-65.66591">
        <ele>966.1</ele>
        <time>2018-08-19T15:14:38Z</time>
      </trkpt>
      <trkpt lat="-28.09789" lon="-65.665985">
        <ele>965.3</ele>
        <time>2018-08-19T15:14:40Z</time>
      </trkpt>
      <trkpt lat="-28.097855" lon="-65.66609">
        <ele>964.8</ele>
        <time>2018-08-19T15:14:43Z</time>
      </trkpt>
      <trkpt lat="-28.097805" lon="-65.666185">
        <ele>964.7</ele>
        <time>2018-08-19T15:14:45Z</time>
      </trkpt>
      <trkpt lat="-28.09776" lon="-65.666285">
        <ele>964.5</ele>
        <time>2018-08-19T15:14:48Z</time>
      </trkpt>
      <trkpt lat="-28.097715" lon="-65.66638">
        <ele>964.2</ele>
        <time>2018-08-19T15:14:52Z</time>
      </trkpt>
      <trkpt lat="-28.097675" lon="-65.666455">
        <ele>964.1</ele>
        <time>2018-08-19T15:14:53Z</time>
      </trkpt>
      <trkpt lat="-28.09763" lon="-65.66654">
        <ele>963.9</ele>
        <time>2018-08-19T15:14:56Z</time>
      </trkpt>
      <trkpt lat="-28.09758" lon="-65.66664">
        <ele>964.2</ele>
        <time>2018-08-19T15:14:58Z</time>
      </trkpt>
      <trkpt lat="-28.097555" lon="-65.666745">
        <ele>964.6</ele>
        <time>2018-08-19T15:15:00Z</time>
      </trkpt>
      <trkpt lat="-28.09751" lon="-65.66682">
        <ele>965.3</ele>
        <time>2018-08-19T15:15:02Z</time>
      </trkpt>
      <trkpt lat="-28.097475" lon="-65.666895">
        <ele>965.2</ele>
        <time>2018-08-19T15:15:04Z</time>
      </trkpt>
      <trkpt lat="-28.097445" lon="-65.66697">
        <ele>965.2</ele>
        <time>2018-08-19T15:15:06Z</time>
      </trkpt>
      <trkpt lat="-28.0974" lon="-65.66708">
        <ele>965.1</ele>
        <time>2018-08-19T15:15:09Z</time>
      </trkpt>
      <trkpt lat="-28.09735" lon="-65.667185">
        <ele>965.0</ele>
        <time>2018-08-19T15:15:12Z</time>
      </trkpt>
      <trkpt lat="-28.097295" lon="-65.66728">
        <ele>965.0</ele>
        <time>2018-08-19T15:15:15Z</time>
      </trkpt>
      <trkpt lat="-28.09726" lon="-65.667365">
        <ele>964.9</ele>
        <time>2018-08-19T15:15:17Z</time>
      </trkpt>
      <trkpt lat="-28.09721" lon="-65.66746">
        <ele>964.9</ele>
        <time>2018-08-19T15:15:20Z</time>
      </trkpt>
      <trkpt lat="-28.097145" lon="-65.667545">
        <ele>965.0</ele>
        <time>2018-08-19T15:15:23Z</time>
      </trkpt>
      <trkpt lat="-28.097085" lon="-65.667655">
        <ele>965.1</ele>
        <time>2018-08-19T15:15:26Z</time>
      </trkpt>
      <trkpt lat="-28.097045" lon="-65.66773">
        <ele>965.2</ele>
        <time>2018-08-19T15:15:29Z</time>
      </trkpt>
      <trkpt lat="-28.096995" lon="-65.667815">
        <ele>965.2</ele>
        <time>2018-08-19T15:15:32Z</time>
      </trkpt>
      <trkpt lat="-28.09694" lon="-65.6679">
        <ele>965.2</ele>
        <time>2018-08-19T15:15:35Z</time>
      </trkpt>
      <trkpt lat="-28.096885" lon="-65.667985">
        <ele>965.3</ele>
        <time>2018-08-19T15:15:38Z</time>
      </trkpt>
      <trkpt lat="-28.09682" lon="-65.66804">
        <ele>965.4</ele>
        <time>2018-08-19T15:15:41Z</time>
      </trkpt>
      <trkpt lat="-28.096775" lon="-65.668115">
        <ele>965.4</ele>
        <time>2018-08-19T15:15:44Z</time>
      </trkpt>
      <trkpt lat="-28.096705" lon="-65.66818">
        <ele>965.6</ele>
        <time>2018-08-19T15:15:47Z</time>
      </trkpt>
      <trkpt lat="-28.09663" lon="-65.66826">
        <ele>965.8</ele>
        <time>2018-08-19T15:15:50Z</time>
      </trkpt>
      <trkpt lat="-28.096575" lon="-65.66833">
        <ele>965.9</ele>
        <time>2018-08-19T15:15:53Z</time>
      </trkpt>
      <trkpt lat="-28.096505" lon="-65.668395">
        <ele>966.1</ele>
        <time>2018-08-19T15:15:56Z</time>
      </trkpt>
      <trkpt lat="-28.09644" lon="-65.668445">
        <ele>966.3</ele>
        <time>2018-08-19T15:16:00Z</time>
      </trkpt>
      <trkpt lat="-28.09637" lon="-65.66853">
        <ele>966.4</ele>
        <time>2018-08-19T15:16:02Z</time>
      </trkpt>
      <trkpt lat="-28.09629" lon="-65.6686">
        <ele>966.6</ele>
        <time>2018-08-19T15:16:06Z</time>
      </trkpt>
      <trkpt lat="-28.096215" lon="-65.66867">
        <ele>966.8</ele>
        <time>2018-08-19T15:16:08Z</time>
      </trkpt>
      <trkpt lat="-28.09613" lon="-65.66874">
        <ele>967.0</ele>
        <time>2018-08-19T15:16:11Z</time>
      </trkpt>
      <trkpt lat="-28.09604" lon="-65.6688">
        <ele>967.2</ele>
        <time>2018-08-19T15:16:14Z</time>
      </trkpt>
      <trkpt lat="-28.095965" lon="-65.66883833333333">
        <ele>967.3</ele>
        <time>2018-08-19T15:16:17Z</time>
      </trkpt>
      <trkpt lat="-28.09587" lon="-65.66891">
        <ele>967.5</ele>
        <time>2018-08-19T15:16:20Z</time>
      </trkpt>
      <trkpt lat="-28.0958" lon="-65.66894">
        <ele>968.0</ele>
        <time>2018-08-19T15:16:22Z</time>
      </trkpt>
      <trkpt lat="-28.09572" lon="-65.66898">
        <ele>968.8</ele>
        <time>2018-08-19T15:16:24Z</time>
      </trkpt>
      <trkpt lat="-28.09564" lon="-65.669025">
        <ele>969.3</ele>
        <time>2018-08-19T15:16:26Z</time>
      </trkpt>
      <trkpt lat="-28.09556" lon="-65.669065">
        <ele>969.7</ele>
        <time>2018-08-19T15:16:28Z</time>
      </trkpt>
      <trkpt lat="-28.095485" lon="-65.66911">
        <ele>969.7</ele>
        <time>2018-08-19T15:16:30Z</time>
      </trkpt>
      <trkpt lat="-28.09542" lon="-65.669145">
        <ele>969.8</ele>
        <time>2018-08-19T15:16:33Z</time>
      </trkpt>
      <trkpt lat="-28.095345" lon="-65.669165">
        <ele>969.9</ele>
        <time>2018-08-19T15:16:34Z</time>
      </trkpt>
      <trkpt lat="-28.09527" lon="-65.6692">
        <ele>969.8</ele>
        <time>2018-08-19T15:16:36Z</time>
      </trkpt>
      <trkpt lat="-28.095205" lon="-65.66923">
        <ele>969.9</ele>
        <time>2018-08-19T15:16:38Z</time>
      </trkpt>
      <trkpt lat="-28.095115" lon="-65.66925">
        <ele>970.1</ele>
        <time>2018-08-19T15:16:40Z</time>
      </trkpt>
      <trkpt lat="-28.09504" lon="-65.669285">
        <ele>970.1</ele>
        <time>2018-08-19T15:16:42Z</time>
      </trkpt>
      <trkpt lat="-28.094935" lon="-65.66929">
        <ele>970.7</ele>
        <time>2018-08-19T15:16:44Z</time>
      </trkpt>
      <trkpt lat="-28.09485" lon="-65.66933">
        <ele>971.0</ele>
        <time>2018-08-19T15:16:46Z</time>
      </trkpt>
      <trkpt lat="-28.09477" lon="-65.669345">
        <ele>971.2</ele>
        <time>2018-08-19T15:16:49Z</time>
      </trkpt>
      <trkpt lat="-28.09466" lon="-65.66938">
        <ele>971.8</ele>
        <time>2018-08-19T15:16:51Z</time>
      </trkpt>
      <trkpt lat="-28.094555" lon="-65.66942">
        <ele>972.2</ele>
        <time>2018-08-19T15:16:54Z</time>
      </trkpt>
      <trkpt lat="-28.09447" lon="-65.66943">
        <ele>972.1</ele>
        <time>2018-08-19T15:16:56Z</time>
      </trkpt>
      <trkpt lat="-28.09439" lon="-65.669455">
        <ele>972.1</ele>
        <time>2018-08-19T15:16:58Z</time>
      </trkpt>
      <trkpt lat="-28.094305" lon="-65.669475">
        <ele>972.2</ele>
        <time>2018-08-19T15:17:00Z</time>
      </trkpt>
      <trkpt lat="-28.09422" lon="-65.6695">
        <ele>972.2</ele>
        <time>2018-08-19T15:17:02Z</time>
      </trkpt>
      <trkpt lat="-28.09414" lon="-65.669515">
        <ele>972.2</ele>
        <time>2018-08-19T15:17:05Z</time>
      </trkpt>
      <trkpt lat="-28.09405" lon="-65.66954">
        <ele>972.2</ele>
        <time>2018-08-19T15:17:06Z</time>
      </trkpt>
      <trkpt lat="-28.09396" lon="-65.66956">
        <ele>972.1</ele>
        <time>2018-08-19T15:17:08Z</time>
      </trkpt>
      <trkpt lat="-28.093865" lon="-65.66959">
        <ele>972.1</ele>
        <time>2018-08-19T15:17:10Z</time>
      </trkpt>
      <trkpt lat="-28.093775" lon="-65.669595">
        <ele>972.0</ele>
        <time>2018-08-19T15:17:12Z</time>
      </trkpt>
      <trkpt lat="-28.093675" lon="-65.669635">
        <ele>972.0</ele>
        <time>2018-08-19T15:17:14Z</time>
      </trkpt>
      <trkpt lat="-28.09359" lon="-65.669655">
        <ele>972.0</ele>
        <time>2018-08-19T15:17:17Z</time>
      </trkpt>
      <trkpt lat="-28.093485" lon="-65.66968">
        <ele>972.1</ele>
        <time>2018-08-19T15:17:18Z</time>
      </trkpt>
      <trkpt lat="-28.093405" lon="-65.6697">
        <ele>972.3</ele>
        <time>2018-08-19T15:17:21Z</time>
      </trkpt>
      <trkpt lat="-28.093315" lon="-65.66973">
        <ele>972.4</ele>
        <time>2018-08-19T15:17:22Z</time>
      </trkpt>
      <trkpt lat="-28.09322" lon="-65.66974">
        <ele>972.4</ele>
        <time>2018-08-19T15:17:24Z</time>
      </trkpt>
      <trkpt lat="-28.09312" lon="-65.669775">
        <ele>972.5</ele>
        <time>2018-08-19T15:17:26Z</time>
      </trkpt>
      <trkpt lat="-28.09303" lon="-65.669785">
        <ele>972.6</ele>
        <time>2018-08-19T15:17:28Z</time>
      </trkpt>
      <trkpt lat="-28.092945" lon="-65.66982">
        <ele>972.7</ele>
        <time>2018-08-19T15:17:30Z</time>
      </trkpt>
      <trkpt lat="-28.09286" lon="-65.66982166666666">
        <ele>972.8</ele>
        <time>2018-08-19T15:17:32Z</time>
      </trkpt>
      <trkpt lat="-28.092775" lon="-65.669865">
        <ele>972.8</ele>
        <time>2018-08-19T15:17:34Z</time>
      </trkpt>
      <trkpt lat="-28.09269" lon="-65.66988">
        <ele>972.6</ele>
        <time>2018-08-19T15:17:37Z</time>
      </trkpt>
      <trkpt lat="-28.092605" lon="-65.669905">
        <ele>972.6</ele>
        <time>2018-08-19T15:17:38Z</time>
      </trkpt>
      <trkpt lat="-28.09252" lon="-65.669925">
        <ele>972.6</ele>
        <time>2018-08-19T15:17:40Z</time>
      </trkpt>
      <trkpt lat="-28.09243" lon="-65.66996">
        <ele>972.8</ele>
        <time>2018-08-19T15:17:42Z</time>
      </trkpt>
      <trkpt lat="-28.09235" lon="-65.669965">
        <ele>973.1</ele>
        <time>2018-08-19T15:17:44Z</time>
      </trkpt>
      <trkpt lat="-28.09226" lon="-65.67001">
        <ele>973.4</ele>
        <time>2018-08-19T15:17:46Z</time>
      </trkpt>
      <trkpt lat="-28.09217" lon="-65.67003">
        <ele>973.5</ele>
        <time>2018-08-19T15:17:48Z</time>
      </trkpt>
      <trkpt lat="-28.092085" lon="-65.67005">
        <ele>973.6</ele>
        <time>2018-08-19T15:17:50Z</time>
      </trkpt>
      <trkpt lat="-28.09199" lon="-65.670075">
        <ele>973.7</ele>
        <time>2018-08-19T15:17:53Z</time>
      </trkpt>
      <trkpt lat="-28.091895" lon="-65.670095">
        <ele>973.8</ele>
        <time>2018-08-19T15:17:54Z</time>
      </trkpt>
      <trkpt lat="-28.09181" lon="-65.67012">
        <ele>973.9</ele>
        <time>2018-08-19T15:17:56Z</time>
      </trkpt>
      <trkpt lat="-28.09172" lon="-65.67014">
        <ele>974.0</ele>
        <time>2018-08-19T15:17:58Z</time>
      </trkpt>
      <trkpt lat="-28.091635" lon="-65.67017">
        <ele>974.2</ele>
        <time>2018-08-19T15:18:00Z</time>
      </trkpt>
      <trkpt lat="-28.09155" lon="-65.67019">
        <ele>974.3</ele>
        <time>2018-08-19T15:18:02Z</time>
      </trkpt>
      <trkpt lat="-28.09146" lon="-65.670215">
        <ele>974.5</ele>
        <time>2018-08-19T15:18:04Z</time>
      </trkpt>
      <trkpt lat="-28.091375" lon="-65.670235">
        <ele>974.7</ele>
        <time>2018-08-19T15:18:06Z</time>
      </trkpt>
      <trkpt lat="-28.0913" lon="-65.670255">
        <ele>975.0</ele>
        <time>2018-08-19T15:18:09Z</time>
      </trkpt>
      <trkpt lat="-28.09122" lon="-65.670275">
        <ele>975.3</ele>
        <time>2018-08-19T15:18:10Z</time>
      </trkpt>
      <trkpt lat="-28.09115" lon="-65.670275">
        <ele>975.3</ele>
        <time>2018-08-19T15:18:12Z</time>
      </trkpt>
      <trkpt lat="-28.09108" lon="-65.670315">
        <ele>975.3</ele>
        <time>2018-08-19T15:18:14Z</time>
      </trkpt>
      <trkpt lat="-28.09101" lon="-65.67033">
        <ele>975.4</ele>
        <time>2018-08-19T15:18:16Z</time>
      </trkpt>
      <trkpt lat="-28.090935" lon="-65.670355">
        <ele>975.4</ele>
        <time>2018-08-19T15:18:19Z</time>
      </trkpt>
      <trkpt lat="-28.09084" lon="-65.670375">
        <ele>975.4</ele>
        <time>2018-08-19T15:18:22Z</time>
      </trkpt>
      <trkpt lat="-28.09076" lon="-65.6704">
        <ele>975.5</ele>
        <time>2018-08-19T15:18:25Z</time>
      </trkpt>
      <trkpt lat="-28.090675" lon="-65.670415">
        <ele>975.6</ele>
        <time>2018-08-19T15:18:28Z</time>
      </trkpt>
      <trkpt lat="-28.090595" lon="-65.670455">
        <ele>975.7</ele>
        <time>2018-08-19T15:18:31Z</time>
      </trkpt>
      <trkpt lat="-28.09052" lon="-65.67048">
        <ele>975.8</ele>
        <time>2018-08-19T15:18:34Z</time>
      </trkpt>
      <trkpt lat="-28.09044" lon="-65.6705">
        <ele>975.9</ele>
        <time>2018-08-19T15:18:37Z</time>
      </trkpt>
      <trkpt lat="-28.090365" lon="-65.670535">
        <ele>976.1</ele>
        <time>2018-08-19T15:18:41Z</time>
      </trkpt>
      <trkpt lat="-28.09029" lon="-65.67057">
        <ele>976.2</ele>
        <time>2018-08-19T15:18:43Z</time>
      </trkpt>
      <trkpt lat="-28.090215" lon="-65.67058">
        <ele>976.3</ele>
        <time>2018-08-19T15:18:46Z</time>
      </trkpt>
      <trkpt lat="-28.090145" lon="-65.67063">
        <ele>976.5</ele>
        <time>2018-08-19T15:18:49Z</time>
      </trkpt>
      <trkpt lat="-28.09006" lon="-65.670665">
        <ele>976.6</ele>
        <time>2018-08-19T15:18:52Z</time>
      </trkpt>
      <trkpt lat="-28.089975" lon="-65.67071">
        <ele>976.7</ele>
        <time>2018-08-19T15:18:55Z</time>
      </trkpt>
      <trkpt lat="-28.089905" lon="-65.67075">
        <ele>976.9</ele>
        <time>2018-08-19T15:18:58Z</time>
      </trkpt>
      <trkpt lat="-28.089835" lon="-65.67079">
        <ele>977.0</ele>
        <time>2018-08-19T15:19:00Z</time>
      </trkpt>
      <trkpt lat="-28.08977" lon="-65.670805">
        <ele>977.1</ele>
        <time>2018-08-19T15:19:02Z</time>
      </trkpt>
      <trkpt lat="-28.089675" lon="-65.67089">
        <ele>977.3</ele>
        <time>2018-08-19T15:19:05Z</time>
      </trkpt>
      <trkpt lat="-28.08958" lon="-65.67095">
        <ele>977.9</ele>
        <time>2018-08-19T15:19:08Z</time>
      </trkpt>
      <trkpt lat="-28.089485" lon="-65.671015">
        <ele>979.1</ele>
        <time>2018-08-19T15:19:11Z</time>
      </trkpt>
      <trkpt lat="-28.089405" lon="-65.671035">
        <ele>979.4</ele>
        <time>2018-08-19T15:19:13Z</time>
      </trkpt>
      <trkpt lat="-28.089335" lon="-65.67109">
        <ele>979.6</ele>
        <time>2018-08-19T15:19:15Z</time>
      </trkpt>
      <trkpt lat="-28.08925" lon="-65.671135">
        <ele>979.6</ele>
        <time>2018-08-19T15:19:17Z</time>
      </trkpt>
      <trkpt lat="-28.089165" lon="-65.671175">
        <ele>980.1</ele>
        <time>2018-08-19T15:19:20Z</time>
      </trkpt>
      <trkpt lat="-28.08909" lon="-65.67124">
        <ele>980.1</ele>
        <time>2018-08-19T15:19:22Z</time>
      </trkpt>
      <trkpt lat="-28.089015" lon="-65.67126">
        <ele>980.0</ele>
        <time>2018-08-19T15:19:24Z</time>
      </trkpt>
      <trkpt lat="-28.088935" lon="-65.67133">
        <ele>980.0</ele>
        <time>2018-08-19T15:19:27Z</time>
      </trkpt>
      <trkpt lat="-28.088865" lon="-65.67135333333333">
        <ele>980.0</ele>
        <time>2018-08-19T15:19:29Z</time>
      </trkpt>
      <trkpt lat="-28.08878" lon="-65.671425">
        <ele>980.0</ele>
        <time>2018-08-19T15:19:32Z</time>
      </trkpt>
      <trkpt lat="-28.08868" lon="-65.671485">
        <ele>980.4</ele>
        <time>2018-08-19T15:19:35Z</time>
      </trkpt>
      <trkpt lat="-28.08861" lon="-65.67153">
        <ele>980.5</ele>
        <time>2018-08-19T15:19:37Z</time>
      </trkpt>
      <trkpt lat="-28.08854" lon="-65.671565">
        <ele>980.5</ele>
        <time>2018-08-19T15:19:40Z</time>
      </trkpt>
      <trkpt lat="-28.088475" lon="-65.67161">
        <ele>980.5</ele>
        <time>2018-08-19T15:19:41Z</time>
      </trkpt>
      <trkpt lat="-28.088405" lon="-65.67165">
        <ele>980.7</ele>
        <time>2018-08-19T15:19:43Z</time>
      </trkpt>
      <trkpt lat="-28.08833" lon="-65.6717">
        <ele>980.5</ele>
        <time>2018-08-19T15:19:45Z</time>
      </trkpt>
      <trkpt lat="-28.08823" lon="-65.671755">
        <ele>980.7</ele>
        <time>2018-08-19T15:19:48Z</time>
      </trkpt>
      <trkpt lat="-28.088165" lon="-65.67179">
        <ele>980.8</ele>
        <time>2018-08-19T15:19:51Z</time>
      </trkpt>
      <trkpt lat="-28.088075" lon="-65.67185">
        <ele>981.4</ele>
        <time>2018-08-19T15:19:53Z</time>
      </trkpt>
      <trkpt lat="-28.088005" lon="-65.671895">
        <ele>981.8</ele>
        <time>2018-08-19T15:19:55Z</time>
      </trkpt>
      <trkpt lat="-28.08794" lon="-65.671935">
        <ele>982.2</ele>
        <time>2018-08-19T15:19:57Z</time>
      </trkpt>
      <trkpt lat="-28.087875" lon="-65.672">
        <ele>982.5</ele>
        <time>2018-08-19T15:19:59Z</time>
      </trkpt>
      <trkpt lat="-28.087805" lon="-65.67202">
        <ele>982.6</ele>
        <time>2018-08-19T15:20:02Z</time>
      </trkpt>
      <trkpt lat="-28.087715" lon="-65.672095">
        <ele>982.6</ele>
        <time>2018-08-19T15:20:05Z</time>
      </trkpt>
      <trkpt lat="-28.087645" lon="-65.67212">
        <ele>982.6</ele>
        <time>2018-08-19T15:20:06Z</time>
      </trkpt>
      <trkpt lat="-28.08755" lon="-65.672185">
        <ele>982.6</ele>
        <time>2018-08-19T15:20:09Z</time>
      </trkpt>
      <trkpt lat="-28.08746" lon="-65.67224">
        <ele>982.6</ele>
        <time>2018-08-19T15:20:13Z</time>
      </trkpt>
      <trkpt lat="-28.087385" lon="-65.672285">
        <ele>982.6</ele>
        <time>2018-08-19T15:20:14Z</time>
      </trkpt>
      <trkpt lat="-28.087315" lon="-65.67232">
        <ele>982.5</ele>
        <time>2018-08-19T15:20:16Z</time>
      </trkpt>
      <trkpt lat="-28.087235" lon="-65.672365">
        <ele>982.5</ele>
        <time>2018-08-19T15:20:19Z</time>
      </trkpt>
      <trkpt lat="-28.08716" lon="-65.67238666666667">
        <ele>982.5</ele>
        <time>2018-08-19T15:20:22Z</time>
      </trkpt>
      <trkpt lat="-28.08709" lon="-65.67243">
        <ele>982.4</ele>
        <time>2018-08-19T15:20:25Z</time>
      </trkpt>
      <trkpt lat="-28.08702" lon="-65.67247">
        <ele>982.4</ele>
        <time>2018-08-19T15:20:29Z</time>
      </trkpt>
      <trkpt lat="-28.086955" lon="-65.672515">
        <ele>982.4</ele>
        <time>2018-08-19T15:20:31Z</time>
      </trkpt>
      <trkpt lat="-28.086885" lon="-65.67255">
        <ele>982.4</ele>
        <time>2018-08-19T15:20:34Z</time>
      </trkpt>
      <trkpt lat="-28.086815" lon="-65.6726">
        <ele>982.5</ele>
        <time>2018-08-19T15:20:38Z</time>
      </trkpt>
      <trkpt lat="-28.08673" lon="-65.672635">
        <ele>982.6</ele>
        <time>2018-08-19T15:20:42Z</time>
      </trkpt>
      <trkpt lat="-28.08666" lon="-65.672675">
        <ele>982.7</ele>
        <time>2018-08-19T15:20:46Z</time>
      </trkpt>
      <trkpt lat="-28.08659" lon="-65.67273">
        <ele>983.2</ele>
        <time>2018-08-19T15:20:52Z</time>
      </trkpt>
      <trkpt lat="-28.08652" lon="-65.67277">
        <ele>983.5</ele>
        <time>2018-08-19T15:20:56Z</time>
      </trkpt>
      <trkpt lat="-28.08644" lon="-65.672805">
        <ele>983.8</ele>
        <time>2018-08-19T15:21:00Z</time>
      </trkpt>
      <trkpt lat="-28.086375" lon="-65.672835">
        <ele>984.1</ele>
        <time>2018-08-19T15:21:04Z</time>
      </trkpt>
      <trkpt lat="-28.086305" lon="-65.67286">
        <ele>984.4</ele>
        <time>2018-08-19T15:21:08Z</time>
      </trkpt>
      <trkpt lat="-28.086235" lon="-65.67288">
        <ele>984.7</ele>
        <time>2018-08-19T15:21:12Z</time>
      </trkpt>
      <trkpt lat="-28.086165" lon="-65.672915">
        <ele>985.0</ele>
        <time>2018-08-19T15:21:16Z</time>
      </trkpt>
      <trkpt lat="-28.08607" lon="-65.67292">
        <ele>985.3</ele>
        <time>2018-08-19T15:21:20Z</time>
      </trkpt>
      <trkpt lat="-28.085985" lon="-65.672955">
        <ele>985.6</ele>
        <time>2018-08-19T15:21:25Z</time>
      </trkpt>
      <trkpt lat="-28.085905" lon="-65.672965">
        <ele>985.9</ele>
        <time>2018-08-19T15:21:29Z</time>
      </trkpt>
      <trkpt lat="-28.08583" lon="-65.67299">
        <ele>986.1</ele>
        <time>2018-08-19T15:21:34Z</time>
      </trkpt>
      <trkpt lat="-28.08575" lon="-65.673005">
        <ele>986.4</ele>
        <time>2018-08-19T15:21:37Z</time>
      </trkpt>
      <trkpt lat="-28.085675" lon="-65.673005">
        <ele>986.6</ele>
        <time>2018-08-19T15:21:42Z</time>
      </trkpt>
      <trkpt lat="-28.085595" lon="-65.673045">
        <ele>986.9</ele>
        <time>2018-08-19T15:21:45Z</time>
      </trkpt>
      <trkpt lat="-28.085515" lon="-65.67306">
        <ele>987.2</ele>
        <time>2018-08-19T15:21:49Z</time>
      </trkpt>
      <trkpt lat="-28.08543" lon="-65.673085">
        <ele>987.5</ele>
        <time>2018-08-19T15:21:53Z</time>
      </trkpt>
      <trkpt lat="-28.085355" lon="-65.673105">
        <ele>987.8</ele>
        <time>2018-08-19T15:21:57Z</time>
      </trkpt>
      <trkpt lat="-28.085265" lon="-65.67313">
        <ele>988.3</ele>
        <time>2018-08-19T15:22:02Z</time>
      </trkpt>
      <trkpt lat="-28.08519" lon="-65.673145">
        <ele>988.6</ele>
        <time>2018-08-19T15:22:06Z</time>
      </trkpt>
      <trkpt lat="-28.08512" lon="-65.673145">
        <ele>988.9</ele>
        <time>2018-08-19T15:22:09Z</time>
      </trkpt>
      <trkpt lat="-28.08505" lon="-65.673185">
        <ele>989.1</ele>
        <time>2018-08-19T15:22:11Z</time>
      </trkpt>
      <trkpt lat="-28.084975" lon="-65.67319">
        <ele>989.3</ele>
        <time>2018-08-19T15:22:14Z</time>
      </trkpt>
      <trkpt lat="-28.084895" lon="-65.67322">
        <ele>989.6</ele>
        <time>2018-08-19T15:22:18Z</time>
      </trkpt>
      <trkpt lat="-28.08481" lon="-65.67323">
        <ele>990.0</ele>
        <time>2018-08-19T15:22:23Z</time>
      </trkpt>
      <trkpt lat="-28.08473" lon="-65.673255">
        <ele>990.3</ele>
        <time>2018-08-19T15:22:29Z</time>
      </trkpt>
      <trkpt lat="-28.08465" lon="-65.673275">
        <ele>990.6</ele>
        <time>2018-08-19T15:22:31Z</time>
      </trkpt>
      <trkpt lat="-28.08457" lon="-65.6733">
        <ele>990.9</ele>
        <time>2018-08-19T15:22:35Z</time>
      </trkpt>
      <trkpt lat="-28.08449" lon="-65.67331">
        <ele>991.1</ele>
        <time>2018-08-19T15:22:37Z</time>
      </trkpt>
      <trkpt lat="-28.084405" lon="-65.67332333333333">
        <ele>991.3</ele>
        <time>2018-08-19T15:22:41Z</time>
      </trkpt>
      <trkpt lat="-28.08432" lon="-65.67337">
        <ele>991.5</ele>
        <time>2018-08-19T15:22:45Z</time>
      </trkpt>
      <trkpt lat="-28.08423" lon="-65.673405">
        <ele>991.6</ele>
        <time>2018-08-19T15:22:49Z</time>
      </trkpt>
      <trkpt lat="-28.084135" lon="-65.673415">
        <ele>991.8</ele>
        <time>2018-08-19T15:22:52Z</time>
      </trkpt>
      <trkpt lat="-28.08404" lon="-65.673445">
        <ele>991.9</ele>
        <time>2018-08-19T15:22:55Z</time>
      </trkpt>
      <trkpt lat="-28.08394" lon="-65.673455">
        <ele>992.0</ele>
        <time>2018-08-19T15:22:57Z</time>
      </trkpt>
      <trkpt lat="-28.08384" lon="-65.673495">
        <ele>992.1</ele>
        <time>2018-08-19T15:23:01Z</time>
      </trkpt>
      <trkpt lat="-28.08374" lon="-65.67352">
        <ele>992.1</ele>
        <time>2018-08-19T15:23:03Z</time>
      </trkpt>
      <trkpt lat="-28.083655" lon="-65.673535">
        <ele>992.2</ele>
        <time>2018-08-19T15:23:06Z</time>
      </trkpt>
      <trkpt lat="-28.08356" lon="-65.67353833333334">
        <ele>992.2</ele>
        <time>2018-08-19T15:23:09Z</time>
      </trkpt>
      <trkpt lat="-28.083485" lon="-65.673575">
        <ele>992.5</ele>
        <time>2018-08-19T15:23:11Z</time>
      </trkpt>
      <trkpt lat="-28.08341" lon="-65.673595">
        <ele>992.5</ele>
        <time>2018-08-19T15:23:14Z</time>
      </trkpt>
      <trkpt lat="-28.08333" lon="-65.67361">
        <ele>992.5</ele>
        <time>2018-08-19T15:23:16Z</time>
      </trkpt>
      <trkpt lat="-28.08324" lon="-65.67363">
        <ele>992.5</ele>
        <time>2018-08-19T15:23:19Z</time>
      </trkpt>
      <trkpt lat="-28.08315" lon="-65.67364">
        <ele>992.5</ele>
        <time>2018-08-19T15:23:22Z</time>
      </trkpt>
      <trkpt lat="-28.08308" lon="-65.673675">
        <ele>992.5</ele>
        <time>2018-08-19T15:23:24Z</time>
      </trkpt>
      <trkpt lat="-28.083005" lon="-65.67368">
        <ele>992.5</ele>
        <time>2018-08-19T15:23:25Z</time>
      </trkpt>
      <trkpt lat="-28.082925" lon="-65.673705">
        <ele>992.5</ele>
        <time>2018-08-19T15:23:28Z</time>
      </trkpt>
      <trkpt lat="-28.08283" lon="-65.673725">
        <ele>992.5</ele>
        <time>2018-08-19T15:23:31Z</time>
      </trkpt>
      <trkpt lat="-28.082725" lon="-65.673755">
        <ele>992.5</ele>
        <time>2018-08-19T15:23:34Z</time>
      </trkpt>
      <trkpt lat="-28.082635" lon="-65.67376">
        <ele>992.5</ele>
        <time>2018-08-19T15:23:37Z</time>
      </trkpt>
      <trkpt lat="-28.082545" lon="-65.6738">
        <ele>992.5</ele>
        <time>2018-08-19T15:23:39Z</time>
      </trkpt>
      <trkpt lat="-28.082445" lon="-65.67382">
        <ele>992.4</ele>
        <time>2018-08-19T15:23:43Z</time>
      </trkpt>
      <trkpt lat="-28.082345" lon="-65.673835">
        <ele>992.4</ele>
        <time>2018-08-19T15:23:45Z</time>
      </trkpt>
      <trkpt lat="-28.08227" lon="-65.673845">
        <ele>992.4</ele>
        <time>2018-08-19T15:23:47Z</time>
      </trkpt>
      <trkpt lat="-28.0822" lon="-65.673855">
        <ele>992.4</ele>
        <time>2018-08-19T15:23:50Z</time>
      </trkpt>
      <trkpt lat="-28.08212" lon="-65.673865">
        <ele>992.4</ele>
        <time>2018-08-19T15:23:52Z</time>
      </trkpt>
      <trkpt lat="-28.082055" lon="-65.673865">
        <ele>992.4</ele>
        <time>2018-08-19T15:23:53Z</time>
      </trkpt>
      <trkpt lat="-28.081975" lon="-65.673865">
        <ele>992.4</ele>
        <time>2018-08-19T15:23:56Z</time>
      </trkpt>
      <trkpt lat="-28.081875" lon="-65.673895">
        <ele>992.4</ele>
        <time>2018-08-19T15:23:59Z</time>
      </trkpt>
      <trkpt lat="-28.081775" lon="-65.673905">
        <ele>992.5</ele>
        <time>2018-08-19T15:24:02Z</time>
      </trkpt>
      <trkpt lat="-28.081665" lon="-65.673905">
        <ele>992.5</ele>
        <time>2018-08-19T15:24:04Z</time>
      </trkpt>
      <trkpt lat="-28.08156" lon="-65.67393">
        <ele>992.6</ele>
        <time>2018-08-19T15:24:07Z</time>
      </trkpt>
      <trkpt lat="-28.08146" lon="-65.67395">
        <ele>992.7</ele>
        <time>2018-08-19T15:24:10Z</time>
      </trkpt>
      <trkpt lat="-28.081355" lon="-65.67395">
        <ele>992.8</ele>
        <time>2018-08-19T15:24:14Z</time>
      </trkpt>
      <trkpt lat="-28.08125" lon="-65.67397">
        <ele>993.0</ele>
        <time>2018-08-19T15:24:17Z</time>
      </trkpt>
      <trkpt lat="-28.081145" lon="-65.673975">
        <ele>993.1</ele>
        <time>2018-08-19T15:24:20Z</time>
      </trkpt>
      <trkpt lat="-28.08105" lon="-65.67399">
        <ele>993.3</ele>
        <time>2018-08-19T15:24:22Z</time>
      </trkpt>
      <trkpt lat="-28.080945" lon="-65.67399">
        <ele>993.5</ele>
        <time>2018-08-19T15:24:25Z</time>
      </trkpt>
      <trkpt lat="-28.080845" lon="-65.674015">
        <ele>993.8</ele>
        <time>2018-08-19T15:24:28Z</time>
      </trkpt>
      <trkpt lat="-28.080755" lon="-65.67403">
        <ele>994.0</ele>
        <time>2018-08-19T15:24:32Z</time>
      </trkpt>
      <trkpt lat="-28.080675" lon="-65.674035">
        <ele>994.2</ele>
        <time>2018-08-19T15:24:34Z</time>
      </trkpt>
      <trkpt lat="-28.080575" lon="-65.674045">
        <ele>994.5</ele>
        <time>2018-08-19T15:24:39Z</time>
      </trkpt>
      <trkpt lat="-28.08049" lon="-65.674065">
        <ele>994.7</ele>
        <time>2018-08-19T15:24:42Z</time>
      </trkpt>
      <trkpt lat="-28.080415" lon="-65.67407">
        <ele>994.9</ele>
        <time>2018-08-19T15:24:45Z</time>
      </trkpt>
      <trkpt lat="-28.080335" lon="-65.67408">
        <ele>995.1</ele>
        <time>2018-08-19T15:24:48Z</time>
      </trkpt>
      <trkpt lat="-28.080255" lon="-65.67409">
        <ele>995.2</ele>
        <time>2018-08-19T15:24:51Z</time>
      </trkpt>
      <trkpt lat="-28.080175" lon="-65.67411">
        <ele>995.3</ele>
        <time>2018-08-19T15:24:54Z</time>
      </trkpt>
      <trkpt lat="-28.080095" lon="-65.67412">
        <ele>995.6</ele>
        <time>2018-08-19T15:24:57Z</time>
      </trkpt>
      <trkpt lat="-28.080015" lon="-65.674125">
        <ele>996.0</ele>
        <time>2018-08-19T15:25:01Z</time>
      </trkpt>
      <trkpt lat="-28.079925" lon="-65.67413">
        <ele>996.4</ele>
        <time>2018-08-19T15:25:05Z</time>
      </trkpt>
      <trkpt lat="-28.07985" lon="-65.67413">
        <ele>996.7</ele>
        <time>2018-08-19T15:25:08Z</time>
      </trkpt>
      <trkpt lat="-28.07977" lon="-65.67413">
        <ele>997.0</ele>
        <time>2018-08-19T15:25:11Z</time>
      </trkpt>
      <trkpt lat="-28.079695" lon="-65.674155">
        <ele>997.2</ele>
        <time>2018-08-19T15:25:14Z</time>
      </trkpt>
      <trkpt lat="-28.07962" lon="-65.674165">
        <ele>997.4</ele>
        <time>2018-08-19T15:25:17Z</time>
      </trkpt>
      <trkpt lat="-28.079545" lon="-65.674175">
        <ele>997.5</ele>
        <time>2018-08-19T15:25:19Z</time>
      </trkpt>
      <trkpt lat="-28.079455" lon="-65.674175">
        <ele>997.7</ele>
        <time>2018-08-19T15:25:23Z</time>
      </trkpt>
      <trkpt lat="-28.079355" lon="-65.674195">
        <ele>997.8</ele>
        <time>2018-08-19T15:25:26Z</time>
      </trkpt>
      <trkpt lat="-28.07926" lon="-65.674205">
        <ele>998.0</ele>
        <time>2018-08-19T15:25:29Z</time>
      </trkpt>
      <trkpt lat="-28.079165" lon="-65.674215">
        <ele>998.2</ele>
        <time>2018-08-19T15:25:31Z</time>
      </trkpt>
      <trkpt lat="-28.07909" lon="-65.674215">
        <ele>998.3</ele>
        <time>2018-08-19T15:25:33Z</time>
      </trkpt>
      <trkpt lat="-28.078985" lon="-65.67424">
        <ele>998.5</ele>
        <time>2018-08-19T15:25:37Z</time>
      </trkpt>
      <trkpt lat="-28.078915" lon="-65.674255">
        <ele>999.6</ele>
        <time>2018-08-19T15:25:39Z</time>
      </trkpt>
      <trkpt lat="-28.07883" lon="-65.67426">
        <ele>1000.4</ele>
        <time>2018-08-19T15:25:41Z</time>
      </trkpt>
      <trkpt lat="-28.07876" lon="-65.67427">
        <ele>1000.4</ele>
        <time>2018-08-19T15:25:43Z</time>
      </trkpt>
      <trkpt lat="-28.078655" lon="-65.674295">
        <ele>1000.5</ele>
        <time>2018-08-19T15:25:46Z</time>
      </trkpt>
      <trkpt lat="-28.078555" lon="-65.674315">
        <ele>1000.6</ele>
        <time>2018-08-19T15:25:49Z</time>
      </trkpt>
      <trkpt lat="-28.07846" lon="-65.674345">
        <ele>1000.7</ele>
        <time>2018-08-19T15:25:52Z</time>
      </trkpt>
      <trkpt lat="-28.078355" lon="-65.674355">
        <ele>1000.8</ele>
        <time>2018-08-19T15:25:55Z</time>
      </trkpt>
      <trkpt lat="-28.07828" lon="-65.67439">
        <ele>1000.9</ele>
        <time>2018-08-19T15:25:57Z</time>
      </trkpt>
      <trkpt lat="-28.078175" lon="-65.67442">
        <ele>1001.7</ele>
        <time>2018-08-19T15:26:00Z</time>
      </trkpt>
      <trkpt lat="-28.0781" lon="-65.67444">
        <ele>1002.1</ele>
        <time>2018-08-19T15:26:02Z</time>
      </trkpt>
      <trkpt lat="-28.07803" lon="-65.674465">
        <ele>1002.6</ele>
        <time>2018-08-19T15:26:03Z</time>
      </trkpt>
      <trkpt lat="-28.077955" lon="-65.674485">
        <ele>1003.1</ele>
        <time>2018-08-19T15:26:05Z</time>
      </trkpt>
      <trkpt lat="-28.07788" lon="-65.67452">
        <ele>1003.5</ele>
        <time>2018-08-19T15:26:08Z</time>
      </trkpt>
      <trkpt lat="-28.0778" lon="-65.67455">
        <ele>1003.8</ele>
        <time>2018-08-19T15:26:10Z</time>
      </trkpt>
      <trkpt lat="-28.077725" lon="-65.67458">
        <ele>1004.0</ele>
        <time>2018-08-19T15:26:12Z</time>
      </trkpt>
      <trkpt lat="-28.077655" lon="-65.674615">
        <ele>1004.2</ele>
        <time>2018-08-19T15:26:14Z</time>
      </trkpt>
      <trkpt lat="-28.077575" lon="-65.674645">
        <ele>1004.3</ele>
        <time>2018-08-19T15:26:15Z</time>
      </trkpt>
      <trkpt lat="-28.0775" lon="-65.674665">
        <ele>1004.5</ele>
        <time>2018-08-19T15:26:18Z</time>
      </trkpt>
      <trkpt lat="-28.07742" lon="-65.674705">
        <ele>1004.7</ele>
        <time>2018-08-19T15:26:20Z</time>
      </trkpt>
      <trkpt lat="-28.077335" lon="-65.674735">
        <ele>1004.8</ele>
        <time>2018-08-19T15:26:21Z</time>
      </trkpt>
      <trkpt lat="-28.07726" lon="-65.674745">
        <ele>1004.9</ele>
        <time>2018-08-19T15:26:24Z</time>
      </trkpt>
      <trkpt lat="-28.07718" lon="-65.674795">
        <ele>1005.0</ele>
        <time>2018-08-19T15:26:26Z</time>
      </trkpt>
      <trkpt lat="-28.07711" lon="-65.67482">
        <ele>1005.0</ele>
        <time>2018-08-19T15:26:28Z</time>
      </trkpt>
      <trkpt lat="-28.077035" lon="-65.67485">
        <ele>1005.1</ele>
        <time>2018-08-19T15:26:29Z</time>
      </trkpt>
      <trkpt lat="-28.07696" lon="-65.674875">
        <ele>1005.2</ele>
        <time>2018-08-19T15:26:31Z</time>
      </trkpt>
      <trkpt lat="-28.07689" lon="-65.67489">
        <ele>1005.3</ele>
        <time>2018-08-19T15:26:33Z</time>
      </trkpt>
      <trkpt lat="-28.076815" lon="-65.674935">
        <ele>1005.5</ele>
        <time>2018-08-19T15:26:35Z</time>
      </trkpt>
      <trkpt lat="-28.076735" lon="-65.67496">
        <ele>1005.5</ele>
        <time>2018-08-19T15:26:37Z</time>
      </trkpt>
      <trkpt lat="-28.076655" lon="-65.674975">
        <ele>1005.5</ele>
        <time>2018-08-19T15:26:40Z</time>
      </trkpt>
      <trkpt lat="-28.076575" lon="-65.67502">
        <ele>1005.4</ele>
        <time>2018-08-19T15:26:41Z</time>
      </trkpt>
      <trkpt lat="-28.0765" lon="-65.67505">
        <ele>1005.5</ele>
        <time>2018-08-19T15:26:44Z</time>
      </trkpt>
      <trkpt lat="-28.07642" lon="-65.675075">
        <ele>1005.6</ele>
        <time>2018-08-19T15:26:45Z</time>
      </trkpt>
      <trkpt lat="-28.07632" lon="-65.675115">
        <ele>1005.5</ele>
        <time>2018-08-19T15:26:48Z</time>
      </trkpt>
      <trkpt lat="-28.07622" lon="-65.675155">
        <ele>1005.4</ele>
        <time>2018-08-19T15:26:52Z</time>
      </trkpt>
      <trkpt lat="-28.076125" lon="-65.67519">
        <ele>1004.9</ele>
        <time>2018-08-19T15:26:55Z</time>
      </trkpt>
      <trkpt lat="-28.076045" lon="-65.6752">
        <ele>1004.3</ele>
        <time>2018-08-19T15:26:57Z</time>
      </trkpt>
      <trkpt lat="-28.075965" lon="-65.675245">
        <ele>1004.0</ele>
        <time>2018-08-19T15:26:58Z</time>
      </trkpt>
      <trkpt lat="-28.07589" lon="-65.675275">
        <ele>1003.9</ele>
        <time>2018-08-19T15:27:01Z</time>
      </trkpt>
      <trkpt lat="-28.075815" lon="-65.67529">
        <ele>1003.9</ele>
        <time>2018-08-19T15:27:03Z</time>
      </trkpt>
      <trkpt lat="-28.07574" lon="-65.675325">
        <ele>1003.9</ele>
        <time>2018-08-19T15:27:05Z</time>
      </trkpt>
      <trkpt lat="-28.07567" lon="-65.67534">
        <ele>1004.0</ele>
        <time>2018-08-19T15:27:07Z</time>
      </trkpt>
      <trkpt lat="-28.075595" lon="-65.67538">
        <ele>1004.1</ele>
        <time>2018-08-19T15:27:09Z</time>
      </trkpt>
      <trkpt lat="-28.075495" lon="-65.675425">
        <ele>1004.6</ele>
        <time>2018-08-19T15:27:12Z</time>
      </trkpt>
      <trkpt lat="-28.075425" lon="-65.67545">
        <ele>1005.0</ele>
        <time>2018-08-19T15:27:13Z</time>
      </trkpt>
      <trkpt lat="-28.075355" lon="-65.67547">
        <ele>1005.0</ele>
        <time>2018-08-19T15:27:15Z</time>
      </trkpt>
      <trkpt lat="-28.07528" lon="-65.675505">
        <ele>1005.0</ele>
        <time>2018-08-19T15:27:18Z</time>
      </trkpt>
      <trkpt lat="-28.075205" lon="-65.67551166666667">
        <ele>1005.1</ele>
        <time>2018-08-19T15:27:19Z</time>
      </trkpt>
      <trkpt lat="-28.075115" lon="-65.675565">
        <ele>1005.1</ele>
        <time>2018-08-19T15:27:22Z</time>
      </trkpt>
      <trkpt lat="-28.075035" lon="-65.6756">
        <ele>1005.2</ele>
        <time>2018-08-19T15:27:25Z</time>
      </trkpt>
      <trkpt lat="-28.074955" lon="-65.67561">
        <ele>1005.2</ele>
        <time>2018-08-19T15:27:28Z</time>
      </trkpt>
      <trkpt lat="-28.07488" lon="-65.67565">
        <ele>1005.3</ele>
        <time>2018-08-19T15:27:32Z</time>
      </trkpt>
      <trkpt lat="-28.074805" lon="-65.675675">
        <ele>1005.4</ele>
        <time>2018-08-19T15:27:34Z</time>
      </trkpt>
      <trkpt lat="-28.07472" lon="-65.675695">
        <ele>1005.5</ele>
        <time>2018-08-19T15:27:39Z</time>
      </trkpt>
      <trkpt lat="-28.07465" lon="-65.67573">
        <ele>1005.7</ele>
        <time>2018-08-19T15:27:43Z</time>
      </trkpt>
      <trkpt lat="-28.07458" lon="-65.67576">
        <ele>1005.9</ele>
        <time>2018-08-19T15:27:48Z</time>
      </trkpt>
      <trkpt lat="-28.07451" lon="-65.67579">
        <ele>1006.1</ele>
        <time>2018-08-19T15:27:52Z</time>
      </trkpt>
      <trkpt lat="-28.07444" lon="-65.675815">
        <ele>1006.4</ele>
        <time>2018-08-19T15:27:56Z</time>
      </trkpt>
      <trkpt lat="-28.074355" lon="-65.675835">
        <ele>1006.8</ele>
        <time>2018-08-19T15:28:01Z</time>
      </trkpt>
      <trkpt lat="-28.07428" lon="-65.675875">
        <ele>1007.0</ele>
        <time>2018-08-19T15:28:05Z</time>
      </trkpt>
      <trkpt lat="-28.0742" lon="-65.67591">
        <ele>1007.3</ele>
        <time>2018-08-19T15:28:09Z</time>
      </trkpt>
      <trkpt lat="-28.07413" lon="-65.67592">
        <ele>1007.6</ele>
        <time>2018-08-19T15:28:13Z</time>
      </trkpt>
      <trkpt lat="-28.07405" lon="-65.67596">
        <ele>1008.0</ele>
        <time>2018-08-19T15:28:18Z</time>
      </trkpt>
      <trkpt lat="-28.073985" lon="-65.675995">
        <ele>1008.2</ele>
        <time>2018-08-19T15:28:22Z</time>
      </trkpt>
      <trkpt lat="-28.073905" lon="-65.676015">
        <ele>1008.5</ele>
        <time>2018-08-19T15:28:26Z</time>
      </trkpt>
      <trkpt lat="-28.073835" lon="-65.67605">
        <ele>1008.7</ele>
        <time>2018-08-19T15:28:31Z</time>
      </trkpt>
      <trkpt lat="-28.073765" lon="-65.676085">
        <ele>1009.1</ele>
        <time>2018-08-19T15:28:35Z</time>
      </trkpt>
      <trkpt lat="-28.07368" lon="-65.6761">
        <ele>1009.4</ele>
        <time>2018-08-19T15:28:39Z</time>
      </trkpt>
      <trkpt lat="-28.07361" lon="-65.676135">
        <ele>1009.6</ele>
        <time>2018-08-19T15:28:42Z</time>
      </trkpt>
      <trkpt lat="-28.073535" lon="-65.676145">
        <ele>1009.7</ele>
        <time>2018-08-19T15:28:45Z</time>
      </trkpt>
      <trkpt lat="-28.073445" lon="-65.676185">
        <ele>1009.9</ele>
        <time>2018-08-19T15:28:49Z</time>
      </trkpt>
      <trkpt lat="-28.07338" lon="-65.67621">
        <ele>1010.1</ele>
        <time>2018-08-19T15:28:52Z</time>
      </trkpt>
      <trkpt lat="-28.0733" lon="-65.67623">
        <ele>1010.2</ele>
        <time>2018-08-19T15:28:55Z</time>
      </trkpt>
      <trkpt lat="-28.073235" lon="-65.676265">
        <ele>1010.4</ele>
        <time>2018-08-19T15:28:58Z</time>
      </trkpt>
      <trkpt lat="-28.07316" lon="-65.67628500000001">
        <ele>1010.5</ele>
        <time>2018-08-19T15:29:01Z</time>
      </trkpt>
      <trkpt lat="-28.073075" lon="-65.676325">
        <ele>1010.9</ele>
        <time>2018-08-19T15:29:05Z</time>
      </trkpt>
      <trkpt lat="-28.07299" lon="-65.676365">
        <ele>1011.3</ele>
        <time>2018-08-19T15:29:09Z</time>
      </trkpt>
      <trkpt lat="-28.072895" lon="-65.6764">
        <ele>1011.6</ele>
        <time>2018-08-19T15:29:12Z</time>
      </trkpt>
      <trkpt lat="-28.072795" lon="-65.676435">
        <ele>1011.8</ele>
        <time>2018-08-19T15:29:15Z</time>
      </trkpt>
      <trkpt lat="-28.072695" lon="-65.676455">
        <ele>1012.1</ele>
        <time>2018-08-19T15:29:18Z</time>
      </trkpt>
      <trkpt lat="-28.07263" lon="-65.67649">
        <ele>1013.0</ele>
        <time>2018-08-19T15:29:20Z</time>
      </trkpt>
      <trkpt lat="-28.072555" lon="-65.67652">
        <ele>1014.2</ele>
        <time>2018-08-19T15:29:22Z</time>
      </trkpt>
      <trkpt lat="-28.07247" lon="-65.67655">
        <ele>1014.8</ele>
        <time>2018-08-19T15:29:24Z</time>
      </trkpt>
      <trkpt lat="-28.0724" lon="-65.676585">
        <ele>1014.9</ele>
        <time>2018-08-19T15:29:26Z</time>
      </trkpt>
      <trkpt lat="-28.072325" lon="-65.676595">
        <ele>1014.9</ele>
        <time>2018-08-19T15:29:28Z</time>
      </trkpt>
      <trkpt lat="-28.072255" lon="-65.676635">
        <ele>1015.2</ele>
        <time>2018-08-19T15:29:30Z</time>
      </trkpt>
      <trkpt lat="-28.072185" lon="-65.67666">
        <ele>1014.9</ele>
        <time>2018-08-19T15:29:32Z</time>
      </trkpt>
      <trkpt lat="-28.07211" lon="-65.67668">
        <ele>1014.5</ele>
        <time>2018-08-19T15:29:34Z</time>
      </trkpt>
      <trkpt lat="-28.072035" lon="-65.676715">
        <ele>1014.3</ele>
        <time>2018-08-19T15:29:36Z</time>
      </trkpt>
      <trkpt lat="-28.071965" lon="-65.676745">
        <ele>1014.4</ele>
        <time>2018-08-19T15:29:38Z</time>
      </trkpt>
      <trkpt lat="-28.07189" lon="-65.676775">
        <ele>1014.4</ele>
        <time>2018-08-19T15:29:40Z</time>
      </trkpt>
      <trkpt lat="-28.071815" lon="-65.6768">
        <ele>1014.4</ele>
        <time>2018-08-19T15:29:42Z</time>
      </trkpt>
      <trkpt lat="-28.07171" lon="-65.67682">
        <ele>1014.4</ele>
        <time>2018-08-19T15:29:45Z</time>
      </trkpt>
      <trkpt lat="-28.071625" lon="-65.67686">
        <ele>1014.5</ele>
        <time>2018-08-19T15:29:47Z</time>
      </trkpt>
      <trkpt lat="-28.071555" lon="-65.676885">
        <ele>1014.5</ele>
        <time>2018-08-19T15:29:49Z</time>
      </trkpt>
      <trkpt lat="-28.071485" lon="-65.676905">
        <ele>1014.5</ele>
        <time>2018-08-19T15:29:51Z</time>
      </trkpt>
      <trkpt lat="-28.0714" lon="-65.676945">
        <ele>1014.3</ele>
        <time>2018-08-19T15:29:53Z</time>
      </trkpt>
      <trkpt lat="-28.071315" lon="-65.67698">
        <ele>1014.3</ele>
        <time>2018-08-19T15:29:55Z</time>
      </trkpt>
      <trkpt lat="-28.07123" lon="-65.677">
        <ele>1014.3</ele>
        <time>2018-08-19T15:29:57Z</time>
      </trkpt>
      <trkpt lat="-28.07114" lon="-65.677045">
        <ele>1014.4</ele>
        <time>2018-08-19T15:29:59Z</time>
      </trkpt>
      <trkpt lat="-28.07105" lon="-65.67708">
        <ele>1014.4</ele>
        <time>2018-08-19T15:30:01Z</time>
      </trkpt>
      <trkpt lat="-28.07095" lon="-65.67712">
        <ele>1014.4</ele>
        <time>2018-08-19T15:30:03Z</time>
      </trkpt>
      <trkpt lat="-28.07087" lon="-65.67716">
        <ele>1014.4</ele>
        <time>2018-08-19T15:30:05Z</time>
      </trkpt>
      <trkpt lat="-28.07079" lon="-65.677195">
        <ele>1014.3</ele>
        <time>2018-08-19T15:30:07Z</time>
      </trkpt>
      <trkpt lat="-28.070705" lon="-65.67724">
        <ele>1013.6</ele>
        <time>2018-08-19T15:30:09Z</time>
      </trkpt>
      <trkpt lat="-28.07063" lon="-65.67726">
        <ele>1013.4</ele>
        <time>2018-08-19T15:30:11Z</time>
      </trkpt>
      <trkpt lat="-28.07055" lon="-65.67731">
        <ele>1013.5</ele>
        <time>2018-08-19T15:30:13Z</time>
      </trkpt>
      <trkpt lat="-28.070475" lon="-65.677355">
        <ele>1014.0</ele>
        <time>2018-08-19T15:30:15Z</time>
      </trkpt>
      <trkpt lat="-28.07041" lon="-65.677395">
        <ele>1014.3</ele>
        <time>2018-08-19T15:30:17Z</time>
      </trkpt>
      <trkpt lat="-28.070335" lon="-65.67744">
        <ele>1014.8</ele>
        <time>2018-08-19T15:30:19Z</time>
      </trkpt>
      <trkpt lat="-28.070245" lon="-65.67748166666667">
        <ele>1015.1</ele>
        <time>2018-08-19T15:30:21Z</time>
      </trkpt>
      <trkpt lat="-28.070175" lon="-65.677535">
        <ele>1015.2</ele>
        <time>2018-08-19T15:30:23Z</time>
      </trkpt>
      <trkpt lat="-28.070095" lon="-65.67758">
        <ele>1015.2</ele>
        <time>2018-08-19T15:30:25Z</time>
      </trkpt>
      <trkpt lat="-28.070015" lon="-65.677645">
        <ele>1015.6</ele>
        <time>2018-08-19T15:30:27Z</time>
      </trkpt>
      <trkpt lat="-28.06994" lon="-65.6777">
        <ele>1016.3</ele>
        <time>2018-08-19T15:30:29Z</time>
      </trkpt>
      <trkpt lat="-28.06988" lon="-65.67775">
        <ele>1016.7</ele>
        <time>2018-08-19T15:30:31Z</time>
      </trkpt>
      <trkpt lat="-28.06981" lon="-65.677795">
        <ele>1017.0</ele>
        <time>2018-08-19T15:30:33Z</time>
      </trkpt>
      <trkpt lat="-28.06973" lon="-65.677845">
        <ele>1017.1</ele>
        <time>2018-08-19T15:30:36Z</time>
      </trkpt>
      <trkpt lat="-28.069655" lon="-65.67792">
        <ele>1017.1</ele>
        <time>2018-08-19T15:30:39Z</time>
      </trkpt>
      <trkpt lat="-28.069585" lon="-65.677985">
        <ele>1017.2</ele>
        <time>2018-08-19T15:30:42Z</time>
      </trkpt>
      <trkpt lat="-28.069525" lon="-65.67803">
        <ele>1017.4</ele>
        <time>2018-08-19T15:30:45Z</time>
      </trkpt>
      <trkpt lat="-28.069465" lon="-65.678095">
        <ele>1017.5</ele>
        <time>2018-08-19T15:30:48Z</time>
      </trkpt>
      <trkpt lat="-28.069405" lon="-65.678155">
        <ele>1017.6</ele>
        <time>2018-08-19T15:30:51Z</time>
      </trkpt>
      <trkpt lat="-28.069335" lon="-65.67821">
        <ele>1017.7</ele>
        <time>2018-08-19T15:30:54Z</time>
      </trkpt>
      <trkpt lat="-28.069265" lon="-65.67825500000001">
        <ele>1017.8</ele>
        <time>2018-08-19T15:30:57Z</time>
      </trkpt>
      <trkpt lat="-28.069205" lon="-65.678295">
        <ele>1018.0</ele>
        <time>2018-08-19T15:31:00Z</time>
      </trkpt>
      <trkpt lat="-28.069145" lon="-65.678365">
        <ele>1018.3</ele>
        <time>2018-08-19T15:31:03Z</time>
      </trkpt>
      <trkpt lat="-28.06908" lon="-65.67842">
        <ele>1018.5</ele>
        <time>2018-08-19T15:31:06Z</time>
      </trkpt>
      <trkpt lat="-28.06901" lon="-65.67846">
        <ele>1018.7</ele>
        <time>2018-08-19T15:31:09Z</time>
      </trkpt>
      <trkpt lat="-28.068945" lon="-65.67852">
        <ele>1018.9</ele>
        <time>2018-08-19T15:31:12Z</time>
      </trkpt>
      <trkpt lat="-28.068875" lon="-65.678565">
        <ele>1019.1</ele>
        <time>2018-08-19T15:31:15Z</time>
      </trkpt>
      <trkpt lat="-28.06879" lon="-65.67863">
        <ele>1019.4</ele>
        <time>2018-08-19T15:31:19Z</time>
      </trkpt>
      <trkpt lat="-28.06872" lon="-65.678685">
        <ele>1019.4</ele>
        <time>2018-08-19T15:31:22Z</time>
      </trkpt>
      <trkpt lat="-28.068655" lon="-65.678735">
        <ele>1019.4</ele>
        <time>2018-08-19T15:31:25Z</time>
      </trkpt>
      <trkpt lat="-28.068565" lon="-65.67879">
        <ele>1019.3</ele>
        <time>2018-08-19T15:31:28Z</time>
      </trkpt>
      <trkpt lat="-28.06847" lon="-65.678855">
        <ele>1019.2</ele>
        <time>2018-08-19T15:31:31Z</time>
      </trkpt>
      <trkpt lat="-28.068405" lon="-65.678905">
        <ele>1019.1</ele>
        <time>2018-08-19T15:31:33Z</time>
      </trkpt>
      <trkpt lat="-28.068315" lon="-65.67895">
        <ele>1019.0</ele>
        <time>2018-08-19T15:31:36Z</time>
      </trkpt>
      <trkpt lat="-28.06822" lon="-65.678995">
        <ele>1019.1</ele>
        <time>2018-08-19T15:31:39Z</time>
      </trkpt>
      <trkpt lat="-28.068135" lon="-65.679045">
        <ele>1019.2</ele>
        <time>2018-08-19T15:31:42Z</time>
      </trkpt>
      <trkpt lat="-28.068045" lon="-65.679095">
        <ele>1019.2</ele>
        <time>2018-08-19T15:31:45Z</time>
      </trkpt>
      <trkpt lat="-28.06797" lon="-65.679135">
        <ele>1019.2</ele>
        <time>2018-08-19T15:31:47Z</time>
      </trkpt>
      <trkpt lat="-28.0679" lon="-65.679165">
        <ele>1019.2</ele>
        <time>2018-08-19T15:31:49Z</time>
      </trkpt>
      <trkpt lat="-28.06783" lon="-65.679185">
        <ele>1019.0</ele>
        <time>2018-08-19T15:31:51Z</time>
      </trkpt>
      <trkpt lat="-28.067735" lon="-65.67923">
        <ele>1018.7</ele>
        <time>2018-08-19T15:31:54Z</time>
      </trkpt>
      <trkpt lat="-28.06764" lon="-65.67928">
        <ele>1018.7</ele>
        <time>2018-08-19T15:31:56Z</time>
      </trkpt>
      <trkpt lat="-28.067555" lon="-65.679315">
        <ele>1018.5</ele>
        <time>2018-08-19T15:31:58Z</time>
      </trkpt>
      <trkpt lat="-28.06748" lon="-65.679345">
        <ele>1018.5</ele>
        <time>2018-08-19T15:32:00Z</time>
      </trkpt>
      <trkpt lat="-28.06739" lon="-65.679365">
        <ele>1018.6</ele>
        <time>2018-08-19T15:32:03Z</time>
      </trkpt>
      <trkpt lat="-28.0673" lon="-65.67941">
        <ele>1018.6</ele>
        <time>2018-08-19T15:32:06Z</time>
      </trkpt>
      <trkpt lat="-28.067195" lon="-65.67944">
        <ele>1018.6</ele>
        <time>2018-08-19T15:32:09Z</time>
      </trkpt>
      <trkpt lat="-28.067115" lon="-65.679445">
        <ele>1018.6</ele>
        <time>2018-08-19T15:32:11Z</time>
      </trkpt>
      <trkpt lat="-28.067055" lon="-65.679475">
        <ele>1018.7</ele>
        <time>2018-08-19T15:32:13Z</time>
      </trkpt>
      <trkpt lat="-28.06696" lon="-65.679505">
        <ele>1018.8</ele>
        <time>2018-08-19T15:32:16Z</time>
      </trkpt>
      <trkpt lat="-28.066855" lon="-65.67954">
        <ele>1019.0</ele>
        <time>2018-08-19T15:32:18Z</time>
      </trkpt>
      <trkpt lat="-28.066785" lon="-65.67955">
        <ele>1019.1</ele>
        <time>2018-08-19T15:32:21Z</time>
      </trkpt>
      <trkpt lat="-28.066685" lon="-65.67959">
        <ele>1019.3</ele>
        <time>2018-08-19T15:32:24Z</time>
      </trkpt>
      <trkpt lat="-28.066585" lon="-65.679615">
        <ele>1019.5</ele>
        <time>2018-08-19T15:32:27Z</time>
      </trkpt>
      <trkpt lat="-28.06651" lon="-65.679635">
        <ele>1019.8</ele>
        <time>2018-08-19T15:32:30Z</time>
      </trkpt>
      <trkpt lat="-28.066425" lon="-65.67967166666666">
        <ele>1020.0</ele>
        <time>2018-08-19T15:32:34Z</time>
      </trkpt>
      <trkpt lat="-28.06635" lon="-65.679715">
        <ele>1020.1</ele>
        <time>2018-08-19T15:32:37Z</time>
      </trkpt>
      <trkpt lat="-28.066275" lon="-65.679745">
        <ele>1020.3</ele>
        <time>2018-08-19T15:32:41Z</time>
      </trkpt>
      <trkpt lat="-28.0662" lon="-65.679775">
        <ele>1020.5</ele>
        <time>2018-08-19T15:32:45Z</time>
      </trkpt>
      <trkpt lat="-28.066115" lon="-65.67981">
        <ele>1020.8</ele>
        <time>2018-08-19T15:32:49Z</time>
      </trkpt>
      <trkpt lat="-28.066035" lon="-65.67984">
        <ele>1021.1</ele>
        <time>2018-08-19T15:32:53Z</time>
      </trkpt>
      <trkpt lat="-28.06594" lon="-65.67986">
        <ele>1021.3</ele>
        <time>2018-08-19T15:32:57Z</time>
      </trkpt>
      <trkpt lat="-28.06587" lon="-65.6799">
        <ele>1021.7</ele>
        <time>2018-08-19T15:33:03Z</time>
      </trkpt>
      <trkpt lat="-28.06579" lon="-65.679945">
        <ele>1021.9</ele>
        <time>2018-08-19T15:33:07Z</time>
      </trkpt>
      <trkpt lat="-28.065715" lon="-65.67999">
        <ele>1022.3</ele>
        <time>2018-08-19T15:33:11Z</time>
      </trkpt>
      <trkpt lat="-28.06564" lon="-65.680035">
        <ele>1022.6</ele>
        <time>2018-08-19T15:33:15Z</time>
      </trkpt>
      <trkpt lat="-28.065565" lon="-65.680075">
        <ele>1023.0</ele>
        <time>2018-08-19T15:33:19Z</time>
      </trkpt>
      <trkpt lat="-28.06549" lon="-65.680125">
        <ele>1023.4</ele>
        <time>2018-08-19T15:33:24Z</time>
      </trkpt>
      <trkpt lat="-28.06542" lon="-65.68017">
        <ele>1023.8</ele>
        <time>2018-08-19T15:33:29Z</time>
      </trkpt>
      <trkpt lat="-28.06536" lon="-65.680215">
        <ele>1024.3</ele>
        <time>2018-08-19T15:33:34Z</time>
      </trkpt>
      <trkpt lat="-28.06529" lon="-65.680265">
        <ele>1024.6</ele>
        <time>2018-08-19T15:33:38Z</time>
      </trkpt>
      <trkpt lat="-28.065225" lon="-65.68031">
        <ele>1025.0</ele>
        <time>2018-08-19T15:33:42Z</time>
      </trkpt>
      <trkpt lat="-28.065145" lon="-65.680375">
        <ele>1025.5</ele>
        <time>2018-08-19T15:33:47Z</time>
      </trkpt>
      <trkpt lat="-28.065095" lon="-65.680425">
        <ele>1025.9</ele>
        <time>2018-08-19T15:33:51Z</time>
      </trkpt>
      <trkpt lat="-28.065025" lon="-65.68049">
        <ele>1026.4</ele>
        <time>2018-08-19T15:33:56Z</time>
      </trkpt>
      <trkpt lat="-28.06497" lon="-65.680535">
        <ele>1026.8</ele>
        <time>2018-08-19T15:34:01Z</time>
      </trkpt>
      <trkpt lat="-28.06492" lon="-65.680615">
        <ele>1027.3</ele>
        <time>2018-08-19T15:34:05Z</time>
      </trkpt>
      <trkpt lat="-28.06487" lon="-65.680655">
        <ele>1027.8</ele>
        <time>2018-08-19T15:34:09Z</time>
      </trkpt>
      <trkpt lat="-28.064815" lon="-65.68073">
        <ele>1028.3</ele>
        <time>2018-08-19T15:34:13Z</time>
      </trkpt>
      <trkpt lat="-28.064765" lon="-65.680795">
        <ele>1028.8</ele>
        <time>2018-08-19T15:34:17Z</time>
      </trkpt>
      <trkpt lat="-28.06471" lon="-65.680845">
        <ele>1029.2</ele>
        <time>2018-08-19T15:34:21Z</time>
      </trkpt>
      <trkpt lat="-28.06465" lon="-65.68092">
        <ele>1029.8</ele>
        <time>2018-08-19T15:34:26Z</time>
      </trkpt>
      <trkpt lat="-28.06459" lon="-65.680975">
        <ele>1030.1</ele>
        <time>2018-08-19T15:34:30Z</time>
      </trkpt>
      <trkpt lat="-28.06454" lon="-65.681025">
        <ele>1030.5</ele>
        <time>2018-08-19T15:34:34Z</time>
      </trkpt>
      <trkpt lat="-28.0645" lon="-65.68111">
        <ele>1031.0</ele>
        <time>2018-08-19T15:34:38Z</time>
      </trkpt>
      <trkpt lat="-28.06446" lon="-65.6812">
        <ele>1031.4</ele>
        <time>2018-08-19T15:34:43Z</time>
      </trkpt>
      <trkpt lat="-28.0644" lon="-65.681275">
        <ele>1031.7</ele>
        <time>2018-08-19T15:34:47Z</time>
      </trkpt>
      <trkpt lat="-28.06435" lon="-65.68136">
        <ele>1032.0</ele>
        <time>2018-08-19T15:34:51Z</time>
      </trkpt>
      <trkpt lat="-28.064305" lon="-65.681415">
        <ele>1032.2</ele>
        <time>2018-08-19T15:34:54Z</time>
      </trkpt>
      <trkpt lat="-28.064245" lon="-65.6815">
        <ele>1032.4</ele>
        <time>2018-08-19T15:34:58Z</time>
      </trkpt>
      <trkpt lat="-28.064195" lon="-65.68156">
        <ele>1032.6</ele>
        <time>2018-08-19T15:35:02Z</time>
      </trkpt>
      <trkpt lat="-28.06414" lon="-65.68164333333333">
        <ele>1032.8</ele>
        <time>2018-08-19T15:35:06Z</time>
      </trkpt>
      <trkpt lat="-28.06409" lon="-65.681735">
        <ele>1032.9</ele>
        <time>2018-08-19T15:35:09Z</time>
      </trkpt>
      <trkpt lat="-28.06404" lon="-65.681785">
        <ele>1033.0</ele>
        <time>2018-08-19T15:35:12Z</time>
      </trkpt>
      <trkpt lat="-28.06399" lon="-65.68187">
        <ele>1033.2</ele>
        <time>2018-08-19T15:35:15Z</time>
      </trkpt>
      <trkpt lat="-28.063925" lon="-65.68195">
        <ele>1033.3</ele>
        <time>2018-08-19T15:35:18Z</time>
      </trkpt>
      <trkpt lat="-28.06386" lon="-65.68201166666667">
        <ele>1033.5</ele>
        <time>2018-08-19T15:35:21Z</time>
      </trkpt>
      <trkpt lat="-28.063805" lon="-65.682095">
        <ele>1033.6</ele>
        <time>2018-08-19T15:35:24Z</time>
      </trkpt>
      <trkpt lat="-28.063745" lon="-65.682165">
        <ele>1033.7</ele>
        <time>2018-08-19T15:35:27Z</time>
      </trkpt>
      <trkpt lat="-28.06369" lon="-65.68223">
        <ele>1033.9</ele>
        <time>2018-08-19T15:35:30Z</time>
      </trkpt>
      <trkpt lat="-28.063625" lon="-65.6823">
        <ele>1034.1</ele>
        <time>2018-08-19T15:35:34Z</time>
      </trkpt>
      <trkpt lat="-28.06357" lon="-65.682355">
        <ele>1034.3</ele>
        <time>2018-08-19T15:35:37Z</time>
      </trkpt>
      <trkpt lat="-28.06352" lon="-65.68240166666666">
        <ele>1034.6</ele>
        <time>2018-08-19T15:35:40Z</time>
      </trkpt>
      <trkpt lat="-28.06345" lon="-65.682485">
        <ele>1034.9</ele>
        <time>2018-08-19T15:35:43Z</time>
      </trkpt>
      <trkpt lat="-28.06338" lon="-65.682545">
        <ele>1035.2</ele>
        <time>2018-08-19T15:35:46Z</time>
      </trkpt>
      <trkpt lat="-28.063295" lon="-65.68262">
        <ele>1035.6</ele>
        <time>2018-08-19T15:35:49Z</time>
      </trkpt>
      <trkpt lat="-28.063215" lon="-65.682685">
        <ele>1035.8</ele>
        <time>2018-08-19T15:35:52Z</time>
      </trkpt>
      <trkpt lat="-28.063135" lon="-65.68273">
        <ele>1036.1</ele>
        <time>2018-08-19T15:35:55Z</time>
      </trkpt>
      <trkpt lat="-28.063055" lon="-65.682805">
        <ele>1036.4</ele>
        <time>2018-08-19T15:35:58Z</time>
      </trkpt>
      <trkpt lat="-28.06297" lon="-65.682855">
        <ele>1036.7</ele>
        <time>2018-08-19T15:36:01Z</time>
      </trkpt>
      <trkpt lat="-28.06289" lon="-65.68291">
        <ele>1037.1</ele>
        <time>2018-08-19T15:36:04Z</time>
      </trkpt>
      <trkpt lat="-28.06282" lon="-65.682955">
        <ele>1037.6</ele>
        <time>2018-08-19T15:36:07Z</time>
      </trkpt>
      <trkpt lat="-28.062745" lon="-65.682995">
        <ele>1038.1</ele>
        <time>2018-08-19T15:36:10Z</time>
      </trkpt>
      <trkpt lat="-28.062675" lon="-65.68306">
        <ele>1038.6</ele>
        <time>2018-08-19T15:36:13Z</time>
      </trkpt>
      <trkpt lat="-28.0626" lon="-65.683105">
        <ele>1039.0</ele>
        <time>2018-08-19T15:36:15Z</time>
      </trkpt>
      <trkpt lat="-28.06253" lon="-65.68315">
        <ele>1039.5</ele>
        <time>2018-08-19T15:36:19Z</time>
      </trkpt>
      <trkpt lat="-28.062465" lon="-65.68317166666667">
        <ele>1039.9</ele>
        <time>2018-08-19T15:36:22Z</time>
      </trkpt>
      <trkpt lat="-28.062395" lon="-65.68322">
        <ele>1040.3</ele>
        <time>2018-08-19T15:36:25Z</time>
      </trkpt>
      <trkpt lat="-28.06233" lon="-65.683265">
        <ele>1040.7</ele>
        <time>2018-08-19T15:36:28Z</time>
      </trkpt>
      <trkpt lat="-28.06225" lon="-65.683305">
        <ele>1040.9</ele>
        <time>2018-08-19T15:36:30Z</time>
      </trkpt>
      <trkpt lat="-28.06217" lon="-65.68335">
        <ele>1041.0</ele>
        <time>2018-08-19T15:36:33Z</time>
      </trkpt>
      <trkpt lat="-28.0621" lon="-65.683385">
        <ele>1041.2</ele>
        <time>2018-08-19T15:36:36Z</time>
      </trkpt>
      <trkpt lat="-28.062015" lon="-65.683435">
        <ele>1041.4</ele>
        <time>2018-08-19T15:36:39Z</time>
      </trkpt>
      <trkpt lat="-28.06194" lon="-65.68348">
        <ele>1041.7</ele>
        <time>2018-08-19T15:36:42Z</time>
      </trkpt>
      <trkpt lat="-28.06186" lon="-65.683525">
        <ele>1041.9</ele>
        <time>2018-08-19T15:36:45Z</time>
      </trkpt>
      <trkpt lat="-28.061795" lon="-65.683575">
        <ele>1042.2</ele>
        <time>2018-08-19T15:36:49Z</time>
      </trkpt>
      <trkpt lat="-28.06172" lon="-65.68361">
        <ele>1042.5</ele>
        <time>2018-08-19T15:36:52Z</time>
      </trkpt>
      <trkpt lat="-28.061625" lon="-65.68367">
        <ele>1042.7</ele>
        <time>2018-08-19T15:36:55Z</time>
      </trkpt>
      <trkpt lat="-28.06156" lon="-65.683715">
        <ele>1042.9</ele>
        <time>2018-08-19T15:36:57Z</time>
      </trkpt>
      <trkpt lat="-28.061465" lon="-65.683755">
        <ele>1043.1</ele>
        <time>2018-08-19T15:37:00Z</time>
      </trkpt>
      <trkpt lat="-28.061395" lon="-65.6838">
        <ele>1043.8</ele>
        <time>2018-08-19T15:37:02Z</time>
      </trkpt>
      <trkpt lat="-28.06132" lon="-65.68383">
        <ele>1044.7</ele>
        <time>2018-08-19T15:37:04Z</time>
      </trkpt>
      <trkpt lat="-28.061245" lon="-65.68384">
        <ele>1045.2</ele>
        <time>2018-08-19T15:37:06Z</time>
      </trkpt>
      <trkpt lat="-28.06117" lon="-65.68388">
        <ele>1045.6</ele>
        <time>2018-08-19T15:37:08Z</time>
      </trkpt>
      <trkpt lat="-28.06109" lon="-65.683895">
        <ele>1045.8</ele>
        <time>2018-08-19T15:37:10Z</time>
      </trkpt>
      <trkpt lat="-28.06101" lon="-65.68393">
        <ele>1045.9</ele>
        <time>2018-08-19T15:37:12Z</time>
      </trkpt>
      <trkpt lat="-28.060925" lon="-65.68394">
        <ele>1046.0</ele>
        <time>2018-08-19T15:37:14Z</time>
      </trkpt>
      <trkpt lat="-28.060845" lon="-65.683975">
        <ele>1046.0</ele>
        <time>2018-08-19T15:37:16Z</time>
      </trkpt>
      <trkpt lat="-28.06077" lon="-65.68398">
        <ele>1046.0</ele>
        <time>2018-08-19T15:37:18Z</time>
      </trkpt>
      <trkpt lat="-28.060685" lon="-65.684005">
        <ele>1046.0</ele>
        <time>2018-08-19T15:37:20Z</time>
      </trkpt>
      <trkpt lat="-28.060615" lon="-65.684025">
        <ele>1045.9</ele>
        <time>2018-08-19T15:37:22Z</time>
      </trkpt>
      <trkpt lat="-28.060545" lon="-65.684025">
        <ele>1045.9</ele>
        <time>2018-08-19T15:37:24Z</time>
      </trkpt>
      <trkpt lat="-28.060475" lon="-65.684055">
        <ele>1045.9</ele>
        <time>2018-08-19T15:37:26Z</time>
      </trkpt>
      <trkpt lat="-28.0604" lon="-65.684065">
        <ele>1045.9</ele>
        <time>2018-08-19T15:37:28Z</time>
      </trkpt>
      <trkpt lat="-28.06032" lon="-65.684065">
        <ele>1045.8</ele>
        <time>2018-08-19T15:37:30Z</time>
      </trkpt>
      <trkpt lat="-28.06024" lon="-65.68409">
        <ele>1045.7</ele>
        <time>2018-08-19T15:37:32Z</time>
      </trkpt>
      <trkpt lat="-28.06015" lon="-65.684105">
        <ele>1045.6</ele>
        <time>2018-08-19T15:37:34Z</time>
      </trkpt>
      <trkpt lat="-28.060065" lon="-65.68411">
        <ele>1045.6</ele>
        <time>2018-08-19T15:37:36Z</time>
      </trkpt>
      <trkpt lat="-28.059975" lon="-65.68411">
        <ele>1045.6</ele>
        <time>2018-08-19T15:37:38Z</time>
      </trkpt>
      <trkpt lat="-28.05988" lon="-65.68411">
        <ele>1045.7</ele>
        <time>2018-08-19T15:37:40Z</time>
      </trkpt>
      <trkpt lat="-28.059795" lon="-65.68411">
        <ele>1045.7</ele>
        <time>2018-08-19T15:37:42Z</time>
      </trkpt>
      <trkpt lat="-28.059715" lon="-65.68411">
        <ele>1045.8</ele>
        <time>2018-08-19T15:37:44Z</time>
      </trkpt>
      <trkpt lat="-28.05964" lon="-65.684105">
        <ele>1045.8</ele>
        <time>2018-08-19T15:37:46Z</time>
      </trkpt>
      <trkpt lat="-28.059535" lon="-65.68409">
        <ele>1045.8</ele>
        <time>2018-08-19T15:37:49Z</time>
      </trkpt>
      <trkpt lat="-28.059425" lon="-65.684065">
        <ele>1045.9</ele>
        <time>2018-08-19T15:37:52Z</time>
      </trkpt>
      <trkpt lat="-28.05933" lon="-65.684065">
        <ele>1045.9</ele>
        <time>2018-08-19T15:37:55Z</time>
      </trkpt>
      <trkpt lat="-28.05923" lon="-65.684065">
        <ele>1046.0</ele>
        <time>2018-08-19T15:37:58Z</time>
      </trkpt>
      <trkpt lat="-28.05913" lon="-65.68405">
        <ele>1046.1</ele>
        <time>2018-08-19T15:38:01Z</time>
      </trkpt>
      <trkpt lat="-28.059035" lon="-65.684025">
        <ele>1046.3</ele>
        <time>2018-08-19T15:38:04Z</time>
      </trkpt>
      <trkpt lat="-28.058935" lon="-65.684015">
        <ele>1046.4</ele>
        <time>2018-08-19T15:38:07Z</time>
      </trkpt>
      <trkpt lat="-28.05883" lon="-65.684005">
        <ele>1046.6</ele>
        <time>2018-08-19T15:38:10Z</time>
      </trkpt>
      <trkpt lat="-28.058715" lon="-65.68398">
        <ele>1046.8</ele>
        <time>2018-08-19T15:38:13Z</time>
      </trkpt>
      <trkpt lat="-28.058625" lon="-65.68398">
        <ele>1046.9</ele>
        <time>2018-08-19T15:38:16Z</time>
      </trkpt>
      <trkpt lat="-28.058525" lon="-65.68398">
        <ele>1047.0</ele>
        <time>2018-08-19T15:38:19Z</time>
      </trkpt>
      <trkpt lat="-28.05843" lon="-65.68398">
        <ele>1047.1</ele>
        <time>2018-08-19T15:38:22Z</time>
      </trkpt>
      <trkpt lat="-28.058325" lon="-65.68397">
        <ele>1047.2</ele>
        <time>2018-08-19T15:38:25Z</time>
      </trkpt>
      <trkpt lat="-28.05823" lon="-65.68394">
        <ele>1047.2</ele>
        <time>2018-08-19T15:38:28Z</time>
      </trkpt>
      <trkpt lat="-28.058145" lon="-65.68394">
        <ele>1047.2</ele>
        <time>2018-08-19T15:38:31Z</time>
      </trkpt>
      <trkpt lat="-28.058055" lon="-65.68394">
        <ele>1047.2</ele>
        <time>2018-08-19T15:38:34Z</time>
      </trkpt>
      <trkpt lat="-28.057965" lon="-65.68393">
        <ele>1047.1</ele>
        <time>2018-08-19T15:38:37Z</time>
      </trkpt>
      <trkpt lat="-28.05787" lon="-65.68392">
        <ele>1047.2</ele>
        <time>2018-08-19T15:38:40Z</time>
      </trkpt>
      <trkpt lat="-28.057775" lon="-65.68394">
        <ele>1047.6</ele>
        <time>2018-08-19T15:38:45Z</time>
      </trkpt>
      <trkpt lat="-28.057705" lon="-65.68394">
        <ele>1047.7</ele>
        <time>2018-08-19T15:38:46Z</time>
      </trkpt>
      <trkpt lat="-28.057605" lon="-65.68393">
        <ele>1047.7</ele>
        <time>2018-08-19T15:38:50Z</time>
      </trkpt>
      <trkpt lat="-28.057515" lon="-65.68393">
        <ele>1047.5</ele>
        <time>2018-08-19T15:38:51Z</time>
      </trkpt>
      <trkpt lat="-28.057435" lon="-65.68393">
        <ele>1049.0</ele>
        <time>2018-08-19T15:38:53Z</time>
      </trkpt>
      <trkpt lat="-28.05734" lon="-65.68393">
        <ele>1050.8</ele>
        <time>2018-08-19T15:38:55Z</time>
      </trkpt>
      <trkpt lat="-28.05724" lon="-65.68393">
        <ele>1049.2</ele>
        <time>2018-08-19T15:38:58Z</time>
      </trkpt>
      <trkpt lat="-28.057125" lon="-65.68394">
        <ele>1046.7</ele>
        <time>2018-08-19T15:38:59Z</time>
      </trkpt>
      <trkpt lat="-28.057025" lon="-65.683965">
        <ele>1045.6</ele>
        <time>2018-08-19T15:39:01Z</time>
      </trkpt>
      <trkpt lat="-28.056925" lon="-65.68398">
        <ele>1045.8</ele>
        <time>2018-08-19T15:39:03Z</time>
      </trkpt>
      <trkpt lat="-28.05681" lon="-65.684025">
        <ele>1046.5</ele>
        <time>2018-08-19T15:39:05Z</time>
      </trkpt>
      <trkpt lat="-28.0567" lon="-65.684055">
        <ele>1047.5</ele>
        <time>2018-08-19T15:39:08Z</time>
      </trkpt>
      <trkpt lat="-28.05661" lon="-65.68409">
        <ele>1048.0</ele>
        <time>2018-08-19T15:39:10Z</time>
      </trkpt>
      <trkpt lat="-28.05651" lon="-65.68411">
        <ele>1047.7</ele>
        <time>2018-08-19T15:39:12Z</time>
      </trkpt>
      <trkpt lat="-28.05642" lon="-65.684145">
        <ele>1047.7</ele>
        <time>2018-08-19T15:39:14Z</time>
      </trkpt>
      <trkpt lat="-28.05631" lon="-65.684155">
        <ele>1047.6</ele>
        <time>2018-08-19T15:39:16Z</time>
      </trkpt>
      <trkpt lat="-28.05622" lon="-65.684195">
        <ele>1047.3</ele>
        <time>2018-08-19T15:39:18Z</time>
      </trkpt>
      <trkpt lat="-28.056115" lon="-65.68422">
        <ele>1047.3</ele>
        <time>2018-08-19T15:39:20Z</time>
      </trkpt>
      <trkpt lat="-28.05604" lon="-65.68423">
        <ele>1047.4</ele>
        <time>2018-08-19T15:39:22Z</time>
      </trkpt>
      <trkpt lat="-28.05594" lon="-65.68425">
        <ele>1047.4</ele>
        <time>2018-08-19T15:39:25Z</time>
      </trkpt>
      <trkpt lat="-28.05584" lon="-65.684285">
        <ele>1047.5</ele>
        <time>2018-08-19T15:39:28Z</time>
      </trkpt>
      <trkpt lat="-28.055735" lon="-65.68429">
        <ele>1047.5</ele>
        <time>2018-08-19T15:39:31Z</time>
      </trkpt>
      <trkpt lat="-28.05564" lon="-65.684315">
        <ele>1047.6</ele>
        <time>2018-08-19T15:39:34Z</time>
      </trkpt>
      <trkpt lat="-28.055545" lon="-65.684335">
        <ele>1047.6</ele>
        <time>2018-08-19T15:39:36Z</time>
      </trkpt>
      <trkpt lat="-28.05545" lon="-65.684335">
        <ele>1047.7</ele>
        <time>2018-08-19T15:39:39Z</time>
      </trkpt>
      <trkpt lat="-28.05537" lon="-65.684335">
        <ele>1047.8</ele>
        <time>2018-08-19T15:39:42Z</time>
      </trkpt>
      <trkpt lat="-28.05529" lon="-65.684335">
        <ele>1047.9</ele>
        <time>2018-08-19T15:39:45Z</time>
      </trkpt>
      <trkpt lat="-28.05521" lon="-65.684355">
        <ele>1047.9</ele>
        <time>2018-08-19T15:39:48Z</time>
      </trkpt>
      <trkpt lat="-28.05513" lon="-65.684355">
        <ele>1048.0</ele>
        <time>2018-08-19T15:39:51Z</time>
      </trkpt>
      <trkpt lat="-28.05505" lon="-65.684355">
        <ele>1048.1</ele>
        <time>2018-08-19T15:39:55Z</time>
      </trkpt>
      <trkpt lat="-28.054975" lon="-65.684335">
        <ele>1048.2</ele>
        <time>2018-08-19T15:39:58Z</time>
      </trkpt>
      <trkpt lat="-28.054895" lon="-65.684335">
        <ele>1048.3</ele>
        <time>2018-08-19T15:40:01Z</time>
      </trkpt>
      <trkpt lat="-28.054825" lon="-65.684335">
        <ele>1048.4</ele>
        <time>2018-08-19T15:40:04Z</time>
      </trkpt>
      <trkpt lat="-28.05473" lon="-65.684335">
        <ele>1048.5</ele>
        <time>2018-08-19T15:40:08Z</time>
      </trkpt>
      <trkpt lat="-28.054645" lon="-65.684315">
        <ele>1048.6</ele>
        <time>2018-08-19T15:40:12Z</time>
      </trkpt>
      <trkpt lat="-28.05455" lon="-65.68429">
        <ele>1048.8</ele>
        <time>2018-08-19T15:40:16Z</time>
      </trkpt>
      <trkpt lat="-28.05446" lon="-65.684285">
        <ele>1048.9</ele>
        <time>2018-08-19T15:40:20Z</time>
      </trkpt>
      <trkpt lat="-28.05436" lon="-65.68425">
        <ele>1049.1</ele>
        <time>2018-08-19T15:40:24Z</time>
      </trkpt>
      <trkpt lat="-28.054275" lon="-65.68424">
        <ele>1049.2</ele>
        <time>2018-08-19T15:40:27Z</time>
      </trkpt>
      <trkpt lat="-28.054185" lon="-65.684205">
        <ele>1049.3</ele>
        <time>2018-08-19T15:40:31Z</time>
      </trkpt>
      <trkpt lat="-28.05411" lon="-65.684185">
        <ele>1049.4</ele>
        <time>2018-08-19T15:40:35Z</time>
      </trkpt>
      <trkpt lat="-28.054025" lon="-65.684155">
        <ele>1049.3</ele>
        <time>2018-08-19T15:40:41Z</time>
      </trkpt>
      <trkpt lat="-28.053955" lon="-65.684105">
        <ele>1049.5</ele>
        <time>2018-08-19T15:40:46Z</time>
      </trkpt>
      <trkpt lat="-28.053885" lon="-65.68406">
        <ele>1049.7</ele>
        <time>2018-08-19T15:40:50Z</time>
      </trkpt>
      <trkpt lat="-28.05381" lon="-65.68402">
        <ele>1049.8</ele>
        <time>2018-08-19T15:40:54Z</time>
      </trkpt>
      <trkpt lat="-28.05374" lon="-65.68398">
        <ele>1049.9</ele>
        <time>2018-08-19T15:40:58Z</time>
      </trkpt>
      <trkpt lat="-28.053665" lon="-65.68394">
        <ele>1050.1</ele>
        <time>2018-08-19T15:41:02Z</time>
      </trkpt>
      <trkpt lat="-28.05359" lon="-65.683895">
        <ele>1050.2</ele>
        <time>2018-08-19T15:41:06Z</time>
      </trkpt>
      <trkpt lat="-28.053525" lon="-65.683865">
        <ele>1050.3</ele>
        <time>2018-08-19T15:41:10Z</time>
      </trkpt>
      <trkpt lat="-28.053445" lon="-65.6838">
        <ele>1050.5</ele>
        <time>2018-08-19T15:41:15Z</time>
      </trkpt>
      <trkpt lat="-28.05339" lon="-65.683755">
        <ele>1050.5</ele>
        <time>2018-08-19T15:41:19Z</time>
      </trkpt>
      <trkpt lat="-28.053315" lon="-65.683715">
        <ele>1050.7</ele>
        <time>2018-08-19T15:41:24Z</time>
      </trkpt>
      <trkpt lat="-28.05325" lon="-65.68366">
        <ele>1051.2</ele>
        <time>2018-08-19T15:41:29Z</time>
      </trkpt>
      <trkpt lat="-28.053175" lon="-65.68361">
        <ele>1051.7</ele>
        <time>2018-08-19T15:41:34Z</time>
      </trkpt>
      <trkpt lat="-28.05312" lon="-65.683555">
        <ele>1052.1</ele>
        <time>2018-08-19T15:41:38Z</time>
      </trkpt>
      <trkpt lat="-28.05305" lon="-65.683515">
        <ele>1052.3</ele>
        <time>2018-08-19T15:41:43Z</time>
      </trkpt>
      <trkpt lat="-28.052985" lon="-65.68346">
        <ele>1052.3</ele>
        <time>2018-08-19T15:41:48Z</time>
      </trkpt>
      <trkpt lat="-28.05291" lon="-65.683425">
        <ele>1051.7</ele>
        <time>2018-08-19T15:41:54Z</time>
      </trkpt>
      <trkpt lat="-28.05284" lon="-65.683385">
        <ele>1049.8</ele>
        <time>2018-08-19T15:42:00Z</time>
      </trkpt>
      <trkpt lat="-28.05278" lon="-65.683345">
        <ele>1047.8</ele>
        <time>2018-08-19T15:42:05Z</time>
      </trkpt>
      <trkpt lat="-28.05271" lon="-65.6833">
        <ele>1045.6</ele>
        <time>2018-08-19T15:42:10Z</time>
      </trkpt>
      <trkpt lat="-28.05265" lon="-65.683255">
        <ele>1043.6</ele>
        <time>2018-08-19T15:42:15Z</time>
      </trkpt>
      <trkpt lat="-28.05259" lon="-65.6832">
        <ele>1041.7</ele>
        <time>2018-08-19T15:42:19Z</time>
      </trkpt>
      <trkpt lat="-28.05252" lon="-65.683125">
        <ele>1040.0</ele>
        <time>2018-08-19T15:42:25Z</time>
      </trkpt>
      <trkpt lat="-28.052455" lon="-65.68308">
        <ele>1038.5</ele>
        <time>2018-08-19T15:42:30Z</time>
      </trkpt>
      <trkpt lat="-28.0524" lon="-65.682995">
        <ele>1038.5</ele>
        <time>2018-08-19T15:42:33Z</time>
      </trkpt>
      <trkpt lat="-28.05234" lon="-65.682945">
        <ele>1039.5</ele>
        <time>2018-08-19T15:42:36Z</time>
      </trkpt>
      <trkpt lat="-28.0523" lon="-65.68288">
        <ele>1040.9</ele>
        <time>2018-08-19T15:42:39Z</time>
      </trkpt>
      <trkpt lat="-28.052235" lon="-65.68281">
        <ele>1043.0</ele>
        <time>2018-08-19T15:42:43Z</time>
      </trkpt>
      <trkpt lat="-28.05218" lon="-65.68276">
        <ele>1045.2</ele>
        <time>2018-08-19T15:42:47Z</time>
      </trkpt>
      <trkpt lat="-28.052115" lon="-65.68272">
        <ele>1047.6</ele>
        <time>2018-08-19T15:42:52Z</time>
      </trkpt>
      <trkpt lat="-28.05204" lon="-65.68267">
        <ele>1050.2</ele>
        <time>2018-08-19T15:42:57Z</time>
      </trkpt>
      <trkpt lat="-28.05196" lon="-65.682625">
        <ele>1052.7</ele>
        <time>2018-08-19T15:43:03Z</time>
      </trkpt>
      <trkpt lat="-28.05189" lon="-65.68258">
        <ele>1054.6</ele>
        <time>2018-08-19T15:43:08Z</time>
      </trkpt>
      <trkpt lat="-28.05181" lon="-65.68254">
        <ele>1056.2</ele>
        <time>2018-08-19T15:43:15Z</time>
      </trkpt>
      <trkpt lat="-28.051735" lon="-65.682505">
        <ele>1056.9</ele>
        <time>2018-08-19T15:43:20Z</time>
      </trkpt>
      <trkpt lat="-28.051665" lon="-65.682475">
        <ele>1057.6</ele>
        <time>2018-08-19T15:43:24Z</time>
      </trkpt>
      <trkpt lat="-28.051595" lon="-65.68243">
        <ele>1058.4</ele>
        <time>2018-08-19T15:43:28Z</time>
      </trkpt>
      <trkpt lat="-28.05151" lon="-65.6824">
        <ele>1059.3</ele>
        <time>2018-08-19T15:43:34Z</time>
      </trkpt>
      <trkpt lat="-28.05144" lon="-65.682365">
        <ele>1059.8</ele>
        <time>2018-08-19T15:43:37Z</time>
      </trkpt>
      <trkpt lat="-28.051355" lon="-65.68232">
        <ele>1060.8</ele>
        <time>2018-08-19T15:43:42Z</time>
      </trkpt>
      <trkpt lat="-28.05127" lon="-65.682305">
        <ele>1061.8</ele>
        <time>2018-08-19T15:43:47Z</time>
      </trkpt>
      <trkpt lat="-28.051195" lon="-65.68228">
        <ele>1062.5</ele>
        <time>2018-08-19T15:43:51Z</time>
      </trkpt>
      <trkpt lat="-28.051105" lon="-65.68226">
        <ele>1063.1</ele>
        <time>2018-08-19T15:43:55Z</time>
      </trkpt>
      <trkpt lat="-28.051015" lon="-65.682235">
        <ele>1063.6</ele>
        <time>2018-08-19T15:44:00Z</time>
      </trkpt>
      <trkpt lat="-28.05094" lon="-65.68222">
        <ele>1064.0</ele>
        <time>2018-08-19T15:44:04Z</time>
      </trkpt>
      <trkpt lat="-28.050855" lon="-65.68218833333333">
        <ele>1064.3</ele>
        <time>2018-08-19T15:44:08Z</time>
      </trkpt>
      <trkpt lat="-28.05076" lon="-65.682185">
        <ele>1064.8</ele>
        <time>2018-08-19T15:44:12Z</time>
      </trkpt>
      <trkpt lat="-28.05067" lon="-65.682175">
        <ele>1065.3</ele>
        <time>2018-08-19T15:44:16Z</time>
      </trkpt>
      <trkpt lat="-28.050585" lon="-65.682165">
        <ele>1065.8</ele>
        <time>2018-08-19T15:44:20Z</time>
      </trkpt>
      <trkpt lat="-28.05049" lon="-65.68215000000001">
        <ele>1066.3</ele>
        <time>2018-08-19T15:44:24Z</time>
      </trkpt>
      <trkpt lat="-28.05039" lon="-65.68214">
        <ele>1066.7</ele>
        <time>2018-08-19T15:44:28Z</time>
      </trkpt>
      <trkpt lat="-28.0503" lon="-65.68213">
        <ele>1067.3</ele>
        <time>2018-08-19T15:44:32Z</time>
      </trkpt>
      <trkpt lat="-28.050205" lon="-65.68209666666667">
        <ele>1067.8</ele>
        <time>2018-08-19T15:44:36Z</time>
      </trkpt>
      <trkpt lat="-28.050125" lon="-65.682095">
        <ele>1068.2</ele>
        <time>2018-08-19T15:44:39Z</time>
      </trkpt>
      <trkpt lat="-28.05004" lon="-65.682095">
        <ele>1068.5</ele>
        <time>2018-08-19T15:44:42Z</time>
      </trkpt>
      <trkpt lat="-28.049955" lon="-65.682095">
        <ele>1068.8</ele>
        <time>2018-08-19T15:44:45Z</time>
      </trkpt>
      <trkpt lat="-28.04988" lon="-65.682095">
        <ele>1069.1</ele>
        <time>2018-08-19T15:44:48Z</time>
      </trkpt>
      <trkpt lat="-28.0498" lon="-65.682095">
        <ele>1069.2</ele>
        <time>2018-08-19T15:44:52Z</time>
      </trkpt>
      <trkpt lat="-28.049725" lon="-65.682095">
        <ele>1069.0</ele>
        <time>2018-08-19T15:44:57Z</time>
      </trkpt>
      <trkpt lat="-28.049645" lon="-65.682095">
        <ele>1069.1</ele>
        <time>2018-08-19T15:45:00Z</time>
      </trkpt>
      <trkpt lat="-28.04956" lon="-65.682095">
        <ele>1069.3</ele>
        <time>2018-08-19T15:45:03Z</time>
      </trkpt>
      <trkpt lat="-28.049485" lon="-65.682095">
        <ele>1069.5</ele>
        <time>2018-08-19T15:45:06Z</time>
      </trkpt>
      <trkpt lat="-28.049385" lon="-65.682095">
        <ele>1069.8</ele>
        <time>2018-08-19T15:45:10Z</time>
      </trkpt>
      <trkpt lat="-28.0493" lon="-65.682095">
        <ele>1070.1</ele>
        <time>2018-08-19T15:45:14Z</time>
      </trkpt>
      <trkpt lat="-28.04921" lon="-65.68212">
        <ele>1070.5</ele>
        <time>2018-08-19T15:45:18Z</time>
      </trkpt>
      <trkpt lat="-28.049125" lon="-65.68212">
        <ele>1070.8</ele>
        <time>2018-08-19T15:45:22Z</time>
      </trkpt>
      <trkpt lat="-28.049045" lon="-65.68214">
        <ele>1071.2</ele>
        <time>2018-08-19T15:45:26Z</time>
      </trkpt>
      <trkpt lat="-28.04897" lon="-65.68215000000001">
        <ele>1071.6</ele>
        <time>2018-08-19T15:45:30Z</time>
      </trkpt>
      <trkpt lat="-28.048895" lon="-65.682175">
        <ele>1072.0</ele>
        <time>2018-08-19T15:45:34Z</time>
      </trkpt>
      <trkpt lat="-28.048815" lon="-65.682185">
        <ele>1072.4</ele>
        <time>2018-08-19T15:45:38Z</time>
      </trkpt>
      <trkpt lat="-28.048745" lon="-65.682185">
        <ele>1072.9</ele>
        <time>2018-08-19T15:45:42Z</time>
      </trkpt>
      <trkpt lat="-28.048665" lon="-65.682225">
        <ele>1073.4</ele>
        <time>2018-08-19T15:45:47Z</time>
      </trkpt>
      <trkpt lat="-28.04858" lon="-65.682235">
        <ele>1073.9</ele>
        <time>2018-08-19T15:45:53Z</time>
      </trkpt>
      <trkpt lat="-28.04851" lon="-65.68227">
        <ele>1074.2</ele>
        <time>2018-08-19T15:45:57Z</time>
      </trkpt>
      <trkpt lat="-28.048435" lon="-65.68228">
        <ele>1074.5</ele>
        <time>2018-08-19T15:46:01Z</time>
      </trkpt>
      <trkpt lat="-28.048365" lon="-65.682305">
        <ele>1074.8</ele>
        <time>2018-08-19T15:46:06Z</time>
      </trkpt>
      <trkpt lat="-28.048295" lon="-65.68232">
        <ele>1075.0</ele>
        <time>2018-08-19T15:46:10Z</time>
      </trkpt>
      <trkpt lat="-28.04821" lon="-65.682345">
        <ele>1075.2</ele>
        <time>2018-08-19T15:46:15Z</time>
      </trkpt>
      <trkpt lat="-28.04813" lon="-65.682365">
        <ele>1075.3</ele>
        <time>2018-08-19T15:46:21Z</time>
      </trkpt>
      <trkpt lat="-28.04805" lon="-65.68239">
        <ele>1075.4</ele>
        <time>2018-08-19T15:46:26Z</time>
      </trkpt>
      <trkpt lat="-28.047965" lon="-65.6824">
        <ele>1075.6</ele>
        <time>2018-08-19T15:46:31Z</time>
      </trkpt>
      <trkpt lat="-28.04788" lon="-65.68243">
        <ele>1075.8</ele>
        <time>2018-08-19T15:46:36Z</time>
      </trkpt>
      <trkpt lat="-28.047805" lon="-65.68245">
        <ele>1076.0</ele>
        <time>2018-08-19T15:46:40Z</time>
      </trkpt>
      <trkpt lat="-28.047725" lon="-65.682475">
        <ele>1076.3</ele>
        <time>2018-08-19T15:46:45Z</time>
      </trkpt>
      <trkpt lat="-28.047655" lon="-65.682495">
        <ele>1076.6</ele>
        <time>2018-08-19T15:46:49Z</time>
      </trkpt>
      <trkpt lat="-28.04758" lon="-65.682505">
        <ele>1076.9</ele>
        <time>2018-08-19T15:46:55Z</time>
      </trkpt>
      <trkpt lat="-28.04751" lon="-65.682535">
        <ele>1077.1</ele>
        <time>2018-08-19T15:46:59Z</time>
      </trkpt>
      <trkpt lat="-28.047435" lon="-65.682545">
        <ele>1077.4</ele>
        <time>2018-08-19T15:47:03Z</time>
      </trkpt>
      <trkpt lat="-28.047345" lon="-65.682585">
        <ele>1077.7</ele>
        <time>2018-08-19T15:47:08Z</time>
      </trkpt>
      <trkpt lat="-28.047275" lon="-65.68259">
        <ele>1078.0</ele>
        <time>2018-08-19T15:47:14Z</time>
      </trkpt>
      <trkpt lat="-28.0472" lon="-65.68262">
        <ele>1078.3</ele>
        <time>2018-08-19T15:47:18Z</time>
      </trkpt>
      <trkpt lat="-28.04712" lon="-65.682625">
        <ele>1078.6</ele>
        <time>2018-08-19T15:47:23Z</time>
      </trkpt>
      <trkpt lat="-28.047035" lon="-65.682655">
        <ele>1078.9</ele>
        <time>2018-08-19T15:47:28Z</time>
      </trkpt>
      <trkpt lat="-28.04696" lon="-65.682675">
        <ele>1079.2</ele>
        <time>2018-08-19T15:47:33Z</time>
      </trkpt>
      <trkpt lat="-28.046885" lon="-65.6827">
        <ele>1079.5</ele>
        <time>2018-08-19T15:47:37Z</time>
      </trkpt>
      <trkpt lat="-28.0468" lon="-65.68273">
        <ele>1079.8</ele>
        <time>2018-08-19T15:47:42Z</time>
      </trkpt>
      <trkpt lat="-28.04672" lon="-65.68273">
        <ele>1080.0</ele>
        <time>2018-08-19T15:47:46Z</time>
      </trkpt>
      <trkpt lat="-28.046645" lon="-65.682765">
        <ele>1080.4</ele>
        <time>2018-08-19T15:47:50Z</time>
      </trkpt>
      <trkpt lat="-28.04657" lon="-65.68277">
        <ele>1080.7</ele>
        <time>2018-08-19T15:47:54Z</time>
      </trkpt>
      <trkpt lat="-28.04648" lon="-65.682815">
        <ele>1081.5</ele>
        <time>2018-08-19T15:48:00Z</time>
      </trkpt>
      <trkpt lat="-28.046405" lon="-65.68284">
        <ele>1081.9</ele>
        <time>2018-08-19T15:48:04Z</time>
      </trkpt>
      <trkpt lat="-28.046315" lon="-65.682855">
        <ele>1082.3</ele>
        <time>2018-08-19T15:48:08Z</time>
      </trkpt>
      <trkpt lat="-28.04624" lon="-65.68288">
        <ele>1082.8</ele>
        <time>2018-08-19T15:48:12Z</time>
      </trkpt>
      <trkpt lat="-28.04617" lon="-65.6829">
        <ele>1083.2</ele>
        <time>2018-08-19T15:48:15Z</time>
      </trkpt>
      <trkpt lat="-28.04609" lon="-65.682925">
        <ele>1083.6</ele>
        <time>2018-08-19T15:48:19Z</time>
      </trkpt>
      <trkpt lat="-28.04601" lon="-65.682945">
        <ele>1084.0</ele>
        <time>2018-08-19T15:48:23Z</time>
      </trkpt>
      <trkpt lat="-28.045925" lon="-65.682955">
        <ele>1084.2</ele>
        <time>2018-08-19T15:48:27Z</time>
      </trkpt>
      <trkpt lat="-28.04584" lon="-65.682985">
        <ele>1084.5</ele>
        <time>2018-08-19T15:48:31Z</time>
      </trkpt>
      <trkpt lat="-28.045755" lon="-65.682995">
        <ele>1084.7</ele>
        <time>2018-08-19T15:48:35Z</time>
      </trkpt>
      <trkpt lat="-28.04567" lon="-65.68302">
        <ele>1085.0</ele>
        <time>2018-08-19T15:48:39Z</time>
      </trkpt>
      <trkpt lat="-28.045595" lon="-65.68304">
        <ele>1085.3</ele>
        <time>2018-08-19T15:48:43Z</time>
      </trkpt>
      <trkpt lat="-28.04552" lon="-65.68306">
        <ele>1085.6</ele>
        <time>2018-08-19T15:48:47Z</time>
      </trkpt>
      <trkpt lat="-28.04544" lon="-65.683075">
        <ele>1086.0</ele>
        <time>2018-08-19T15:48:51Z</time>
      </trkpt>
      <trkpt lat="-28.045355" lon="-65.683105">
        <ele>1086.2</ele>
        <time>2018-08-19T15:48:56Z</time>
      </trkpt>
      <trkpt lat="-28.045285" lon="-65.683125">
        <ele>1086.4</ele>
        <time>2018-08-19T15:49:00Z</time>
      </trkpt>
      <trkpt lat="-28.045205" lon="-65.68315">
        <ele>1086.8</ele>
        <time>2018-08-19T15:49:05Z</time>
      </trkpt>
      <trkpt lat="-28.045115" lon="-65.68317">
        <ele>1087.2</ele>
        <time>2018-08-19T15:49:10Z</time>
      </trkpt>
      <trkpt lat="-28.04504" lon="-65.6832">
        <ele>1087.5</ele>
        <time>2018-08-19T15:49:15Z</time>
      </trkpt>
      <trkpt lat="-28.04496" lon="-65.68322">
        <ele>1087.6</ele>
        <time>2018-08-19T15:49:20Z</time>
      </trkpt>
      <trkpt lat="-28.04489" lon="-65.68322">
        <ele>1087.8</ele>
        <time>2018-08-19T15:49:25Z</time>
      </trkpt>
      <trkpt lat="-28.044805" lon="-65.683255">
        <ele>1088.0</ele>
        <time>2018-08-19T15:49:30Z</time>
      </trkpt>
      <trkpt lat="-28.044725" lon="-65.683285">
        <ele>1088.2</ele>
        <time>2018-08-19T15:49:35Z</time>
      </trkpt>
      <trkpt lat="-28.04464" lon="-65.683305">
        <ele>1088.5</ele>
        <time>2018-08-19T15:49:40Z</time>
      </trkpt>
      <trkpt lat="-28.044565" lon="-65.683305">
        <ele>1088.9</ele>
        <time>2018-08-19T15:49:46Z</time>
      </trkpt>
      <trkpt lat="-28.04449" lon="-65.683345">
        <ele>1089.3</ele>
        <time>2018-08-19T15:49:51Z</time>
      </trkpt>
      <trkpt lat="-28.04441" lon="-65.68335">
        <ele>1089.8</ele>
        <time>2018-08-19T15:49:56Z</time>
      </trkpt>
      <trkpt lat="-28.04433" lon="-65.683385">
        <ele>1090.4</ele>
        <time>2018-08-19T15:50:01Z</time>
      </trkpt>
      <trkpt lat="-28.044245" lon="-65.68338666666666">
        <ele>1091.2</ele>
        <time>2018-08-19T15:50:07Z</time>
      </trkpt>
      <trkpt lat="-28.044165" lon="-65.683425">
        <ele>1092.0</ele>
        <time>2018-08-19T15:50:13Z</time>
      </trkpt>
      <trkpt lat="-28.04408" lon="-65.683445">
        <ele>1092.7</ele>
        <time>2018-08-19T15:50:19Z</time>
      </trkpt>
      <trkpt lat="-28.04401" lon="-65.68347">
        <ele>1093.3</ele>
        <time>2018-08-19T15:50:24Z</time>
      </trkpt>
      <trkpt lat="-28.04394" lon="-65.68351">
        <ele>1094.2</ele>
        <time>2018-08-19T15:50:31Z</time>
      </trkpt>
      <trkpt lat="-28.04387" lon="-65.68353">
        <ele>1094.9</ele>
        <time>2018-08-19T15:50:36Z</time>
      </trkpt>
      <trkpt lat="-28.043785" lon="-65.683555">
        <ele>1095.5</ele>
        <time>2018-08-19T15:50:41Z</time>
      </trkpt>
      <trkpt lat="-28.0437" lon="-65.683575">
        <ele>1096.2</ele>
        <time>2018-08-19T15:50:46Z</time>
      </trkpt>
      <trkpt lat="-28.043625" lon="-65.6836">
        <ele>1096.9</ele>
        <time>2018-08-19T15:50:51Z</time>
      </trkpt>
      <trkpt lat="-28.04355" lon="-65.68361">
        <ele>1097.5</ele>
        <time>2018-08-19T15:50:56Z</time>
      </trkpt>
      <trkpt lat="-28.043475" lon="-65.68366">
        <ele>1097.9</ele>
        <time>2018-08-19T15:51:01Z</time>
      </trkpt>
      <trkpt lat="-28.043405" lon="-65.683685">
        <ele>1098.2</ele>
        <time>2018-08-19T15:51:06Z</time>
      </trkpt>
      <trkpt lat="-28.043325" lon="-65.683715">
        <ele>1098.4</ele>
        <time>2018-08-19T15:51:11Z</time>
      </trkpt>
      <trkpt lat="-28.04325" lon="-65.68374">
        <ele>1098.7</ele>
        <time>2018-08-19T15:51:15Z</time>
      </trkpt>
      <trkpt lat="-28.04317" lon="-65.683755">
        <ele>1099.4</ele>
        <time>2018-08-19T15:51:20Z</time>
      </trkpt>
      <trkpt lat="-28.04308" lon="-65.68378">
        <ele>1100.0</ele>
        <time>2018-08-19T15:51:25Z</time>
      </trkpt>
      <trkpt lat="-28.04301" lon="-65.6838">
        <ele>1100.6</ele>
        <time>2018-08-19T15:51:30Z</time>
      </trkpt>
      <trkpt lat="-28.042945" lon="-65.68384">
        <ele>1101.3</ele>
        <time>2018-08-19T15:51:34Z</time>
      </trkpt>
      <trkpt lat="-28.04287" lon="-65.683865">
        <ele>1101.9</ele>
        <time>2018-08-19T15:51:38Z</time>
      </trkpt>
      <trkpt lat="-28.042795" lon="-65.683895">
        <ele>1102.4</ele>
        <time>2018-08-19T15:51:42Z</time>
      </trkpt>
      <trkpt lat="-28.042715" lon="-65.68394">
        <ele>1102.8</ele>
        <time>2018-08-19T15:51:46Z</time>
      </trkpt>
      <trkpt lat="-28.04264" lon="-65.683975">
        <ele>1103.1</ele>
        <time>2018-08-19T15:51:50Z</time>
      </trkpt>
      <trkpt lat="-28.042565" lon="-65.684015">
        <ele>1103.3</ele>
        <time>2018-08-19T15:51:54Z</time>
      </trkpt>
      <trkpt lat="-28.042485" lon="-65.68405">
        <ele>1103.7</ele>
        <time>2018-08-19T15:51:58Z</time>
      </trkpt>
      <trkpt lat="-28.0424" lon="-65.684065">
        <ele>1104.4</ele>
        <time>2018-08-19T15:52:02Z</time>
      </trkpt>
      <trkpt lat="-28.042315" lon="-65.68411">
        <ele>1105.0</ele>
        <time>2018-08-19T15:52:06Z</time>
      </trkpt>
      <trkpt lat="-28.042245" lon="-65.684145">
        <ele>1105.6</ele>
        <time>2018-08-19T15:52:11Z</time>
      </trkpt>
      <trkpt lat="-28.04223" lon="-65.684155">
        <ele>1105.8</ele>
        <time>2018-08-19T15:52:17Z</time>
      </trkpt>
      <trkpt lat="-28.042245" lon="-65.684145">
        <ele>1106.5</ele>
        <time>2018-08-19T15:52:28Z</time>
      </trkpt>
      <trkpt lat="-28.042245" lon="-65.684145">
        <ele>1106.5</ele>
        <time>2018-08-19T15:52:29Z</time>
      </trkpt>
      <trkpt lat="-28.042265" lon="-65.684155">
        <ele>1107.0</ele>
        <time>2018-08-19T15:52:38Z</time>
      </trkpt>
      <trkpt lat="-28.042265" lon="-65.684155">
        <ele>1107.2</ele>
        <time>2018-08-19T15:52:39Z</time>
      </trkpt>
      <trkpt lat="-28.042265" lon="-65.68414">
        <ele>1108.1</ele>
        <time>2018-08-19T15:52:51Z</time>
      </trkpt>
      <trkpt lat="-28.042275" lon="-65.68414">
        <ele>1108.1</ele>
        <time>2018-08-19T15:52:52Z</time>
      </trkpt>
      <trkpt lat="-28.042295" lon="-65.684145">
        <ele>1108.5</ele>
        <time>2018-08-19T15:53:05Z</time>
      </trkpt>
      <trkpt lat="-28.042295" lon="-65.684145">
        <ele>1108.7</ele>
        <time>2018-08-19T15:53:06Z</time>
      </trkpt>
      <trkpt lat="-28.042275" lon="-65.684155">
        <ele>1109.9</ele>
        <time>2018-08-19T15:53:27Z</time>
      </trkpt>
      <trkpt lat="-28.042275" lon="-65.684155">
        <ele>1109.9</ele>
        <time>2018-08-19T15:53:28Z</time>
      </trkpt>
      <trkpt lat="-28.04226" lon="-65.684155">
        <ele>1110.4</ele>
        <time>2018-08-19T15:53:39Z</time>
      </trkpt>
      <trkpt lat="-28.04226" lon="-65.684155">
        <ele>1110.6</ele>
        <time>2018-08-19T15:53:40Z</time>
      </trkpt>
      <trkpt lat="-28.04225" lon="-65.68411">
        <ele>1111.2</ele>
        <time>2018-08-19T15:53:52Z</time>
      </trkpt>
      <trkpt lat="-28.04225" lon="-65.68411">
        <ele>1111.2</ele>
        <time>2018-08-19T15:53:53Z</time>
      </trkpt>
      <trkpt lat="-28.042265" lon="-65.684145">
        <ele>1111.8</ele>
        <time>2018-08-19T15:54:04Z</time>
      </trkpt>
      <trkpt lat="-28.042265" lon="-65.684145">
        <ele>1111.8</ele>
        <time>2018-08-19T15:54:05Z</time>
      </trkpt>
      <trkpt lat="-28.042285" lon="-65.68411">
        <ele>1112.3</ele>
        <time>2018-08-19T15:54:17Z</time>
      </trkpt>
      <trkpt lat="-28.04228" lon="-65.68411">
        <ele>1112.3</ele>
        <time>2018-08-19T15:54:18Z</time>
      </trkpt>
      <trkpt lat="-28.04221" lon="-65.684155">
        <ele>1112.8</ele>
        <time>2018-08-19T15:54:24Z</time>
      </trkpt>
      <trkpt lat="-28.042125" lon="-65.684205">
        <ele>1113.5</ele>
        <time>2018-08-19T15:54:30Z</time>
      </trkpt>
      <trkpt lat="-28.042035" lon="-65.68425">
        <ele>1113.6</ele>
        <time>2018-08-19T15:54:34Z</time>
      </trkpt>
      <trkpt lat="-28.04197" lon="-65.684285">
        <ele>1113.6</ele>
        <time>2018-08-19T15:54:37Z</time>
      </trkpt>
      <trkpt lat="-28.041885" lon="-65.684315">
        <ele>1113.5</ele>
        <time>2018-08-19T15:54:40Z</time>
      </trkpt>
      <trkpt lat="-28.0418" lon="-65.684335">
        <ele>1113.3</ele>
        <time>2018-08-19T15:54:43Z</time>
      </trkpt>
      <trkpt lat="-28.04172" lon="-65.68437">
        <ele>1113.1</ele>
        <time>2018-08-19T15:54:46Z</time>
      </trkpt>
      <trkpt lat="-28.04164" lon="-65.68442">
        <ele>1112.8</ele>
        <time>2018-08-19T15:54:49Z</time>
      </trkpt>
      <trkpt lat="-28.041565" lon="-65.684455">
        <ele>1112.5</ele>
        <time>2018-08-19T15:54:52Z</time>
      </trkpt>
      <trkpt lat="-28.04149" lon="-65.684475">
        <ele>1112.2</ele>
        <time>2018-08-19T15:54:55Z</time>
      </trkpt>
      <trkpt lat="-28.0414" lon="-65.684515">
        <ele>1111.9</ele>
        <time>2018-08-19T15:54:58Z</time>
      </trkpt>
      <trkpt lat="-28.04131" lon="-65.68456">
        <ele>1111.6</ele>
        <time>2018-08-19T15:55:01Z</time>
      </trkpt>
      <trkpt lat="-28.04123" lon="-65.684595">
        <ele>1111.2</ele>
        <time>2018-08-19T15:55:04Z</time>
      </trkpt>
      <trkpt lat="-28.04116" lon="-65.684635">
        <ele>1111.1</ele>
        <time>2018-08-19T15:55:07Z</time>
      </trkpt>
      <trkpt lat="-28.041085" lon="-65.68467">
        <ele>1111.1</ele>
        <time>2018-08-19T15:55:10Z</time>
      </trkpt>
      <trkpt lat="-28.041005" lon="-65.6847">
        <ele>1111.1</ele>
        <time>2018-08-19T15:55:13Z</time>
      </trkpt>
      <trkpt lat="-28.04092" lon="-65.684735">
        <ele>1111.1</ele>
        <time>2018-08-19T15:55:16Z</time>
      </trkpt>
      <trkpt lat="-28.04083" lon="-65.684765">
        <ele>1110.9</ele>
        <time>2018-08-19T15:55:19Z</time>
      </trkpt>
      <trkpt lat="-28.040745" lon="-65.684785">
        <ele>1110.8</ele>
        <time>2018-08-19T15:55:22Z</time>
      </trkpt>
      <trkpt lat="-28.04065" lon="-65.684825">
        <ele>1110.7</ele>
        <time>2018-08-19T15:55:25Z</time>
      </trkpt>
      <trkpt lat="-28.04057" lon="-65.68486">
        <ele>1110.5</ele>
        <time>2018-08-19T15:55:28Z</time>
      </trkpt>
      <trkpt lat="-28.040485" lon="-65.68488">
        <ele>1110.4</ele>
        <time>2018-08-19T15:55:31Z</time>
      </trkpt>
      <trkpt lat="-28.040405" lon="-65.684905">
        <ele>1110.4</ele>
        <time>2018-08-19T15:55:34Z</time>
      </trkpt>
      <trkpt lat="-28.04033" lon="-65.684925">
        <ele>1110.3</ele>
        <time>2018-08-19T15:55:37Z</time>
      </trkpt>
      <trkpt lat="-28.040255" lon="-65.68495">
        <ele>1110.3</ele>
        <time>2018-08-19T15:55:40Z</time>
      </trkpt>
      <trkpt lat="-28.040175" lon="-65.684965">
        <ele>1110.3</ele>
        <time>2018-08-19T15:55:43Z</time>
      </trkpt>
      <trkpt lat="-28.0401" lon="-65.68499">
        <ele>1110.5</ele>
        <time>2018-08-19T15:55:46Z</time>
      </trkpt>
      <trkpt lat="-28.040025" lon="-65.68501">
        <ele>1110.6</ele>
        <time>2018-08-19T15:55:49Z</time>
      </trkpt>
      <trkpt lat="-28.03994" lon="-65.68504">
        <ele>1110.8</ele>
        <time>2018-08-19T15:55:53Z</time>
      </trkpt>
      <trkpt lat="-28.039845" lon="-65.68505">
        <ele>1111.0</ele>
        <time>2018-08-19T15:55:57Z</time>
      </trkpt>
      <trkpt lat="-28.03976" lon="-65.685075">
        <ele>1111.2</ele>
        <time>2018-08-19T15:56:01Z</time>
      </trkpt>
      <trkpt lat="-28.039685" lon="-65.685095">
        <ele>1111.5</ele>
        <time>2018-08-19T15:56:05Z</time>
      </trkpt>
      <trkpt lat="-28.039595" lon="-65.685095">
        <ele>1111.7</ele>
        <time>2018-08-19T15:56:10Z</time>
      </trkpt>
      <trkpt lat="-28.039495" lon="-65.68513">
        <ele>1111.9</ele>
        <time>2018-08-19T15:56:15Z</time>
      </trkpt>
      <trkpt lat="-28.03942" lon="-65.68514">
        <ele>1112.1</ele>
        <time>2018-08-19T15:56:19Z</time>
      </trkpt>
      <trkpt lat="-28.039345" lon="-65.68514333333333">
        <ele>1112.4</ele>
        <time>2018-08-19T15:56:23Z</time>
      </trkpt>
      <trkpt lat="-28.039265" lon="-65.68518">
        <ele>1112.6</ele>
        <time>2018-08-19T15:56:28Z</time>
      </trkpt>
      <trkpt lat="-28.039185" lon="-65.68519">
        <ele>1112.9</ele>
        <time>2018-08-19T15:56:32Z</time>
      </trkpt>
      <trkpt lat="-28.0391" lon="-65.685205">
        <ele>1113.1</ele>
        <time>2018-08-19T15:56:37Z</time>
      </trkpt>
      <trkpt lat="-28.039005" lon="-65.685215">
        <ele>1113.4</ele>
        <time>2018-08-19T15:56:41Z</time>
      </trkpt>
      <trkpt lat="-28.03893" lon="-65.685225">
        <ele>1113.7</ele>
        <time>2018-08-19T15:56:45Z</time>
      </trkpt>
      <trkpt lat="-28.038855" lon="-65.685235">
        <ele>1114.1</ele>
        <time>2018-08-19T15:56:50Z</time>
      </trkpt>
      <trkpt lat="-28.038765" lon="-65.685235">
        <ele>1114.6</ele>
        <time>2018-08-19T15:56:55Z</time>
      </trkpt>
      <trkpt lat="-28.03869" lon="-65.685235">
        <ele>1114.9</ele>
        <time>2018-08-19T15:57:00Z</time>
      </trkpt>
      <trkpt lat="-28.038615" lon="-65.685255">
        <ele>1115.2</ele>
        <time>2018-08-19T15:57:04Z</time>
      </trkpt>
      <trkpt lat="-28.038525" lon="-65.685265">
        <ele>1115.6</ele>
        <time>2018-08-19T15:57:09Z</time>
      </trkpt>
      <trkpt lat="-28.038445" lon="-65.68527">
        <ele>1116.0</ele>
        <time>2018-08-19T15:57:14Z</time>
      </trkpt>
      <trkpt lat="-28.03837" lon="-65.685275">
        <ele>1116.4</ele>
        <time>2018-08-19T15:57:19Z</time>
      </trkpt>
      <trkpt lat="-28.03829" lon="-65.685275">
        <ele>1116.5</ele>
        <time>2018-08-19T15:57:25Z</time>
      </trkpt>
      <trkpt lat="-28.03822" lon="-65.685275">
        <ele>1116.6</ele>
        <time>2018-08-19T15:57:30Z</time>
      </trkpt>
      <trkpt lat="-28.038135" lon="-65.6853">
        <ele>1116.7</ele>
        <time>2018-08-19T15:57:36Z</time>
      </trkpt>
      <trkpt lat="-28.038065" lon="-65.685275">
        <ele>1116.9</ele>
        <time>2018-08-19T15:57:41Z</time>
      </trkpt>
      <trkpt lat="-28.037995" lon="-65.6853">
        <ele>1117.1</ele>
        <time>2018-08-19T15:57:46Z</time>
      </trkpt>
      <trkpt lat="-28.03791" lon="-65.6853">
        <ele>1117.4</ele>
        <time>2018-08-19T15:57:51Z</time>
      </trkpt>
      <trkpt lat="-28.03784" lon="-65.6853">
        <ele>1117.8</ele>
        <time>2018-08-19T15:57:55Z</time>
      </trkpt>
      <trkpt lat="-28.03777" lon="-65.6853">
        <ele>1118.5</ele>
        <time>2018-08-19T15:58:00Z</time>
      </trkpt>
      <trkpt lat="-28.037685" lon="-65.685315">
        <ele>1119.2</ele>
        <time>2018-08-19T15:58:05Z</time>
      </trkpt>
      <trkpt lat="-28.0376" lon="-65.685315">
        <ele>1119.9</ele>
        <time>2018-08-19T15:58:12Z</time>
      </trkpt>
      <trkpt lat="-28.037525" lon="-65.685315">
        <ele>1120.3</ele>
        <time>2018-08-19T15:58:17Z</time>
      </trkpt>
      <trkpt lat="-28.03745" lon="-65.68532">
        <ele>1120.6</ele>
        <time>2018-08-19T15:58:22Z</time>
      </trkpt>
      <trkpt lat="-28.037365" lon="-65.68532">
        <ele>1120.7</ele>
        <time>2018-08-19T15:58:29Z</time>
      </trkpt>
      <trkpt lat="-28.03728" lon="-65.68532">
        <ele>1120.9</ele>
        <time>2018-08-19T15:58:35Z</time>
      </trkpt>
      <trkpt lat="-28.0372" lon="-65.685345">
        <ele>1121.1</ele>
        <time>2018-08-19T15:58:40Z</time>
      </trkpt>
      <trkpt lat="-28.037115" lon="-65.68535">
        <ele>1121.3</ele>
        <time>2018-08-19T15:58:46Z</time>
      </trkpt>
      <trkpt lat="-28.037035" lon="-65.68535">
        <ele>1121.5</ele>
        <time>2018-08-19T15:58:51Z</time>
      </trkpt>
      <trkpt lat="-28.03696" lon="-65.685355">
        <ele>1121.9</ele>
        <time>2018-08-19T15:58:56Z</time>
      </trkpt>
      <trkpt lat="-28.03688" lon="-65.685355">
        <ele>1122.2</ele>
        <time>2018-08-19T15:59:02Z</time>
      </trkpt>
      <trkpt lat="-28.036805" lon="-65.685355">
        <ele>1122.6</ele>
        <time>2018-08-19T15:59:07Z</time>
      </trkpt>
      <trkpt lat="-28.03672" lon="-65.685355">
        <ele>1123.1</ele>
        <time>2018-08-19T15:59:13Z</time>
      </trkpt>
      <trkpt lat="-28.036645" lon="-65.685355">
        <ele>1123.9</ele>
        <time>2018-08-19T15:59:20Z</time>
      </trkpt>
      <trkpt lat="-28.036565" lon="-65.685345">
        <ele>1125.0</ele>
        <time>2018-08-19T15:59:26Z</time>
      </trkpt>
      <trkpt lat="-28.036495" lon="-65.685345">
        <ele>1125.7</ele>
        <time>2018-08-19T15:59:30Z</time>
      </trkpt>
      <trkpt lat="-28.03642" lon="-65.68534">
        <ele>1126.4</ele>
        <time>2018-08-19T15:59:34Z</time>
      </trkpt>
      <trkpt lat="-28.03634" lon="-65.68535">
        <ele>1127.3</ele>
        <time>2018-08-19T15:59:39Z</time>
      </trkpt>
      <trkpt lat="-28.036265" lon="-65.685355">
        <ele>1127.9</ele>
        <time>2018-08-19T15:59:43Z</time>
      </trkpt>
      <trkpt lat="-28.03618" lon="-65.685355">
        <ele>1128.6</ele>
        <time>2018-08-19T15:59:48Z</time>
      </trkpt>
      <trkpt lat="-28.036095" lon="-65.685355">
        <ele>1129.3</ele>
        <time>2018-08-19T15:59:53Z</time>
      </trkpt>
      <trkpt lat="-28.036025" lon="-65.685355">
        <ele>1130.1</ele>
        <time>2018-08-19T15:59:58Z</time>
      </trkpt>
      <trkpt lat="-28.035955" lon="-65.685355">
        <ele>1130.7</ele>
        <time>2018-08-19T16:00:03Z</time>
      </trkpt>
      <trkpt lat="-28.03587" lon="-65.685355">
        <ele>1131.2</ele>
        <time>2018-08-19T16:00:08Z</time>
      </trkpt>
      <trkpt lat="-28.035795" lon="-65.685355">
        <ele>1131.6</ele>
        <time>2018-08-19T16:00:13Z</time>
      </trkpt>
      <trkpt lat="-28.035715" lon="-65.685355">
        <ele>1132.0</ele>
        <time>2018-08-19T16:00:17Z</time>
      </trkpt>
      <trkpt lat="-28.03563" lon="-65.685355">
        <ele>1132.6</ele>
        <time>2018-08-19T16:00:22Z</time>
      </trkpt>
      <trkpt lat="-28.03556" lon="-65.685355">
        <ele>1132.9</ele>
        <time>2018-08-19T16:00:26Z</time>
      </trkpt>
      <trkpt lat="-28.03548" lon="-65.685355">
        <ele>1133.4</ele>
        <time>2018-08-19T16:00:31Z</time>
      </trkpt>
      <trkpt lat="-28.035405" lon="-65.685355">
        <ele>1133.9</ele>
        <time>2018-08-19T16:00:35Z</time>
      </trkpt>
      <trkpt lat="-28.03533" lon="-65.68535666666666">
        <ele>1134.4</ele>
        <time>2018-08-19T16:00:40Z</time>
      </trkpt>
      <trkpt lat="-28.03524" lon="-65.685385">
        <ele>1135.0</ele>
        <time>2018-08-19T16:00:45Z</time>
      </trkpt>
      <trkpt lat="-28.03516" lon="-65.685385">
        <ele>1135.5</ele>
        <time>2018-08-19T16:00:50Z</time>
      </trkpt>
      <trkpt lat="-28.035075" lon="-65.68535666666666">
        <ele>1136.1</ele>
        <time>2018-08-19T16:00:55Z</time>
      </trkpt>
      <trkpt lat="-28.035005" lon="-65.685355">
        <ele>1136.7</ele>
        <time>2018-08-19T16:01:00Z</time>
      </trkpt>
      <trkpt lat="-28.03492" lon="-65.68535666666666">
        <ele>1137.3</ele>
        <time>2018-08-19T16:01:05Z</time>
      </trkpt>
      <trkpt lat="-28.034855" lon="-65.685385">
        <ele>1137.8</ele>
        <time>2018-08-19T16:01:10Z</time>
      </trkpt>
      <trkpt lat="-28.034765" lon="-65.685385">
        <ele>1138.3</ele>
        <time>2018-08-19T16:01:16Z</time>
      </trkpt>
      <trkpt lat="-28.034685" lon="-65.685395">
        <ele>1138.7</ele>
        <time>2018-08-19T16:01:22Z</time>
      </trkpt>
      <trkpt lat="-28.03461" lon="-65.6854">
        <ele>1138.9</ele>
        <time>2018-08-19T16:01:27Z</time>
      </trkpt>
      <trkpt lat="-28.03453" lon="-65.6854">
        <ele>1139.3</ele>
        <time>2018-08-19T16:01:32Z</time>
      </trkpt>
      <trkpt lat="-28.034445" lon="-65.685405">
        <ele>1139.8</ele>
        <time>2018-08-19T16:01:37Z</time>
      </trkpt>
      <trkpt lat="-28.03436" lon="-65.685415">
        <ele>1140.6</ele>
        <time>2018-08-19T16:01:43Z</time>
      </trkpt>
      <trkpt lat="-28.03428" lon="-65.685415">
        <ele>1141.2</ele>
        <time>2018-08-19T16:01:49Z</time>
      </trkpt>
      <trkpt lat="-28.034195" lon="-65.68543">
        <ele>1142.1</ele>
        <time>2018-08-19T16:01:56Z</time>
      </trkpt>
      <trkpt lat="-28.034115" lon="-65.68544">
        <ele>1143.2</ele>
        <time>2018-08-19T16:02:02Z</time>
      </trkpt>
      <trkpt lat="-28.03404" lon="-65.68545">
        <ele>1144.2</ele>
        <time>2018-08-19T16:02:07Z</time>
      </trkpt>
      <trkpt lat="-28.033965" lon="-65.68546">
        <ele>1144.9</ele>
        <time>2018-08-19T16:02:12Z</time>
      </trkpt>
      <trkpt lat="-28.033885" lon="-65.68546">
        <ele>1145.5</ele>
        <time>2018-08-19T16:02:17Z</time>
      </trkpt>
      <trkpt lat="-28.03381" lon="-65.68548">
        <ele>1146.1</ele>
        <time>2018-08-19T16:02:22Z</time>
      </trkpt>
      <trkpt lat="-28.033735" lon="-65.685495">
        <ele>1146.7</ele>
        <time>2018-08-19T16:02:27Z</time>
      </trkpt>
      <trkpt lat="-28.033655" lon="-65.6855">
        <ele>1147.3</ele>
        <time>2018-08-19T16:02:32Z</time>
      </trkpt>
      <trkpt lat="-28.03358" lon="-65.6855">
        <ele>1147.8</ele>
        <time>2018-08-19T16:02:37Z</time>
      </trkpt>
      <trkpt lat="-28.033505" lon="-65.685535">
        <ele>1148.3</ele>
        <time>2018-08-19T16:02:42Z</time>
      </trkpt>
      <trkpt lat="-28.033425" lon="-65.68554">
        <ele>1148.8</ele>
        <time>2018-08-19T16:02:47Z</time>
      </trkpt>
      <trkpt lat="-28.033345" lon="-65.685545">
        <ele>1149.4</ele>
        <time>2018-08-19T16:02:53Z</time>
      </trkpt>
      <trkpt lat="-28.03327" lon="-65.685575">
        <ele>1149.9</ele>
        <time>2018-08-19T16:02:58Z</time>
      </trkpt>
      <trkpt lat="-28.0332" lon="-65.68558">
        <ele>1150.5</ele>
        <time>2018-08-19T16:03:03Z</time>
      </trkpt>
      <trkpt lat="-28.03312" lon="-65.68561">
        <ele>1151.1</ele>
        <time>2018-08-19T16:03:09Z</time>
      </trkpt>
      <trkpt lat="-28.033045" lon="-65.685625">
        <ele>1151.6</ele>
        <time>2018-08-19T16:03:14Z</time>
      </trkpt>
      <trkpt lat="-28.03297" lon="-65.68564">
        <ele>1152.1</ele>
        <time>2018-08-19T16:03:19Z</time>
      </trkpt>
      <trkpt lat="-28.032885" lon="-65.68566">
        <ele>1152.7</ele>
        <time>2018-08-19T16:03:24Z</time>
      </trkpt>
      <trkpt lat="-28.032795" lon="-65.685685">
        <ele>1153.2</ele>
        <time>2018-08-19T16:03:29Z</time>
      </trkpt>
      <trkpt lat="-28.032715" lon="-65.685705">
        <ele>1153.8</ele>
        <time>2018-08-19T16:03:34Z</time>
      </trkpt>
      <trkpt lat="-28.032635" lon="-65.685725">
        <ele>1154.4</ele>
        <time>2018-08-19T16:03:39Z</time>
      </trkpt>
      <trkpt lat="-28.03256" lon="-65.68575">
        <ele>1154.7</ele>
        <time>2018-08-19T16:03:43Z</time>
      </trkpt>
      <trkpt lat="-28.032485" lon="-65.68577">
        <ele>1155.2</ele>
        <time>2018-08-19T16:03:47Z</time>
      </trkpt>
      <trkpt lat="-28.032415" lon="-65.685805">
        <ele>1155.6</ele>
        <time>2018-08-19T16:03:51Z</time>
      </trkpt>
      <trkpt lat="-28.03233" lon="-65.685835">
        <ele>1156.2</ele>
        <time>2018-08-19T16:03:56Z</time>
      </trkpt>
      <trkpt lat="-28.03225" lon="-65.68588">
        <ele>1156.5</ele>
        <time>2018-08-19T16:04:00Z</time>
      </trkpt>
      <trkpt lat="-28.03217" lon="-65.68591">
        <ele>1156.9</ele>
        <time>2018-08-19T16:04:04Z</time>
      </trkpt>
      <trkpt lat="-28.032085" lon="-65.68595">
        <ele>1157.2</ele>
        <time>2018-08-19T16:04:08Z</time>
      </trkpt>
      <trkpt lat="-28.03201" lon="-65.685995">
        <ele>1157.5</ele>
        <time>2018-08-19T16:04:12Z</time>
      </trkpt>
      <trkpt lat="-28.03193" lon="-65.686035">
        <ele>1157.8</ele>
        <time>2018-08-19T16:04:16Z</time>
      </trkpt>
      <trkpt lat="-28.03186" lon="-65.68608">
        <ele>1158.0</ele>
        <time>2018-08-19T16:04:19Z</time>
      </trkpt>
      <trkpt lat="-28.031795" lon="-65.686125">
        <ele>1158.3</ele>
        <time>2018-08-19T16:04:23Z</time>
      </trkpt>
      <trkpt lat="-28.03174" lon="-65.68621">
        <ele>1159.0</ele>
        <time>2018-08-19T16:04:29Z</time>
      </trkpt>
      <trkpt lat="-28.03167" lon="-65.686255">
        <ele>1159.7</ele>
        <time>2018-08-19T16:04:33Z</time>
      </trkpt>
      <trkpt lat="-28.0316" lon="-65.686285">
        <ele>1160.3</ele>
        <time>2018-08-19T16:04:37Z</time>
      </trkpt>
      <trkpt lat="-28.031525" lon="-65.68634">
        <ele>1160.9</ele>
        <time>2018-08-19T16:04:44Z</time>
      </trkpt>
      <trkpt lat="-28.031465" lon="-65.686415">
        <ele>1161.6</ele>
        <time>2018-08-19T16:04:49Z</time>
      </trkpt>
      <trkpt lat="-28.03141" lon="-65.686475">
        <ele>1162.1</ele>
        <time>2018-08-19T16:04:54Z</time>
      </trkpt>
      <trkpt lat="-28.031345" lon="-65.68653">
        <ele>1162.2</ele>
        <time>2018-08-19T16:04:59Z</time>
      </trkpt>
      <trkpt lat="-28.03129" lon="-65.686595">
        <ele>1162.5</ele>
        <time>2018-08-19T16:05:03Z</time>
      </trkpt>
      <trkpt lat="-28.03123" lon="-65.68665">
        <ele>1163.4</ele>
        <time>2018-08-19T16:05:07Z</time>
      </trkpt>
      <trkpt lat="-28.03123" lon="-65.686625">
        <ele>1164.9</ele>
        <time>2018-08-19T16:05:14Z</time>
      </trkpt>
      <trkpt lat="-28.031235" lon="-65.68661">
        <ele>1165.4</ele>
        <time>2018-08-19T16:05:19Z</time>
      </trkpt>
      <trkpt lat="-28.031215" lon="-65.686605">
        <ele>1166.9</ele>
        <time>2018-08-19T16:05:36Z</time>
      </trkpt>
      <trkpt lat="-28.031215" lon="-65.686605">
        <ele>1167.0</ele>
        <time>2018-08-19T16:05:37Z</time>
      </trkpt>
      <trkpt lat="-28.03122" lon="-65.68661">
        <ele>1167.9</ele>
        <time>2018-08-19T16:05:47Z</time>
      </trkpt>
      <trkpt lat="-28.031225" lon="-65.68661">
        <ele>1168.0</ele>
        <time>2018-08-19T16:05:49Z</time>
      </trkpt>
      <trkpt lat="-28.03123" lon="-65.686625">
        <ele>1168.0</ele>
        <time>2018-08-19T16:05:58Z</time>
      </trkpt>
      <trkpt lat="-28.031235" lon="-65.686625">
        <ele>1168.0</ele>
        <time>2018-08-19T16:05:59Z</time>
      </trkpt>
      <trkpt lat="-28.03122" lon="-65.686645">
        <ele>1168.2</ele>
        <time>2018-08-19T16:06:08Z</time>
      </trkpt>
      <trkpt lat="-28.031215" lon="-65.68665">
        <ele>1168.3</ele>
        <time>2018-08-19T16:06:09Z</time>
      </trkpt>
      <trkpt lat="-28.031215" lon="-65.68667">
        <ele>1169.2</ele>
        <time>2018-08-19T16:06:17Z</time>
      </trkpt>
      <trkpt lat="-28.031215" lon="-65.68667">
        <ele>1169.4</ele>
        <time>2018-08-19T16:06:18Z</time>
      </trkpt>
      <trkpt lat="-28.03122" lon="-65.68666">
        <ele>1169.6</ele>
        <time>2018-08-19T16:06:28Z</time>
      </trkpt>
      <trkpt lat="-28.031225" lon="-65.68666">
        <ele>1169.6</ele>
        <time>2018-08-19T16:06:29Z</time>
      </trkpt>
      <trkpt lat="-28.03116" lon="-65.68671">
        <ele>1170.1</ele>
        <time>2018-08-19T16:06:34Z</time>
      </trkpt>
      <trkpt lat="-28.03112" lon="-65.68679">
        <ele>1170.7</ele>
        <time>2018-08-19T16:06:38Z</time>
      </trkpt>
      <trkpt lat="-28.03106" lon="-65.686875">
        <ele>1171.2</ele>
        <time>2018-08-19T16:06:42Z</time>
      </trkpt>
      <trkpt lat="-28.031" lon="-65.686935">
        <ele>1171.4</ele>
        <time>2018-08-19T16:06:45Z</time>
      </trkpt>
      <trkpt lat="-28.03093" lon="-65.68701">
        <ele>1171.6</ele>
        <time>2018-08-19T16:06:48Z</time>
      </trkpt>
      <trkpt lat="-28.030875" lon="-65.687065">
        <ele>1172.4</ele>
        <time>2018-08-19T16:06:50Z</time>
      </trkpt>
      <trkpt lat="-28.030815" lon="-65.68715">
        <ele>1172.1</ele>
        <time>2018-08-19T16:06:52Z</time>
      </trkpt>
      <trkpt lat="-28.030765" lon="-65.68724">
        <ele>1171.4</ele>
        <time>2018-08-19T16:06:54Z</time>
      </trkpt>
      <trkpt lat="-28.030735" lon="-65.687325">
        <ele>1170.8</ele>
        <time>2018-08-19T16:06:56Z</time>
      </trkpt>
      <trkpt lat="-28.030705" lon="-65.68741">
        <ele>1170.0</ele>
        <time>2018-08-19T16:06:58Z</time>
      </trkpt>
      <trkpt lat="-28.030705" lon="-65.687495">
        <ele>1170.0</ele>
        <time>2018-08-19T16:07:01Z</time>
      </trkpt>
      <trkpt lat="-28.030695" lon="-65.68758">
        <ele>1170.3</ele>
        <time>2018-08-19T16:07:05Z</time>
      </trkpt>
      <trkpt lat="-28.030685" lon="-65.68758">
        <ele>1170.4</ele>
        <time>2018-08-19T16:07:12Z</time>
      </trkpt>
      <trkpt lat="-28.03068" lon="-65.68759">
        <ele>1170.2</ele>
        <time>2018-08-19T16:07:22Z</time>
      </trkpt>
      <trkpt lat="-28.03068" lon="-65.68759">
        <ele>1170.3</ele>
        <time>2018-08-19T16:07:23Z</time>
      </trkpt>
      <trkpt lat="-28.03067" lon="-65.68758">
        <ele>1170.5</ele>
        <time>2018-08-19T16:07:47Z</time>
      </trkpt>
      <trkpt lat="-28.03067" lon="-65.68758">
        <ele>1170.5</ele>
        <time>2018-08-19T16:07:48Z</time>
      </trkpt>
      <trkpt lat="-28.03068" lon="-65.6876">
        <ele>1170.8</ele>
        <time>2018-08-19T16:08:05Z</time>
      </trkpt>
      <trkpt lat="-28.030685" lon="-65.6876">
        <ele>1170.8</ele>
        <time>2018-08-19T16:08:06Z</time>
      </trkpt>
      <trkpt lat="-28.03069" lon="-65.68761">
        <ele>1170.8</ele>
        <time>2018-08-19T16:08:27Z</time>
      </trkpt>
      <trkpt lat="-28.03069" lon="-65.68761">
        <ele>1170.8</ele>
        <time>2018-08-19T16:08:28Z</time>
      </trkpt>
      <trkpt lat="-28.03068" lon="-65.68755166666666">
        <ele>1170.8</ele>
        <time>2018-08-19T16:08:38Z</time>
      </trkpt>
      <trkpt lat="-28.03067" lon="-65.68755">
        <ele>1170.8</ele>
        <time>2018-08-19T16:08:39Z</time>
      </trkpt>
      <trkpt lat="-28.03067" lon="-65.687545">
        <ele>1170.7</ele>
        <time>2018-08-19T16:08:51Z</time>
      </trkpt>
      <trkpt lat="-28.03068" lon="-65.687545">
        <ele>1170.7</ele>
        <time>2018-08-19T16:08:52Z</time>
      </trkpt>
      <trkpt lat="-28.03067" lon="-65.68755">
        <ele>1170.5</ele>
        <time>2018-08-19T16:09:09Z</time>
      </trkpt>
      <trkpt lat="-28.03067" lon="-65.68755">
        <ele>1170.5</ele>
        <time>2018-08-19T16:09:10Z</time>
      </trkpt>
      <trkpt lat="-28.03067" lon="-65.68758">
        <ele>1170.6</ele>
        <time>2018-08-19T16:09:25Z</time>
      </trkpt>
      <trkpt lat="-28.03067" lon="-65.68758">
        <ele>1170.7</ele>
        <time>2018-08-19T16:09:26Z</time>
      </trkpt>
      <trkpt lat="-28.03066" lon="-65.6876">
        <ele>1170.6</ele>
        <time>2018-08-19T16:09:37Z</time>
      </trkpt>
      <trkpt lat="-28.03066" lon="-65.6876">
        <ele>1170.5</ele>
        <time>2018-08-19T16:09:38Z</time>
      </trkpt>
      <trkpt lat="-28.030645" lon="-65.68761">
        <ele>1170.5</ele>
        <time>2018-08-19T16:09:49Z</time>
      </trkpt>
      <trkpt lat="-28.03065" lon="-65.68761">
        <ele>1170.5</ele>
        <time>2018-08-19T16:09:50Z</time>
      </trkpt>
      <trkpt lat="-28.03068" lon="-65.687625">
        <ele>1170.3</ele>
        <time>2018-08-19T16:10:00Z</time>
      </trkpt>
      <trkpt lat="-28.03068" lon="-65.68763">
        <ele>1170.3</ele>
        <time>2018-08-19T16:10:01Z</time>
      </trkpt>
      <trkpt lat="-28.03066" lon="-65.68761">
        <ele>1170.1</ele>
        <time>2018-08-19T16:10:12Z</time>
      </trkpt>
      <trkpt lat="-28.030665" lon="-65.68761">
        <ele>1170.1</ele>
        <time>2018-08-19T16:10:13Z</time>
      </trkpt>
      <trkpt lat="-28.030665" lon="-65.687595">
        <ele>1170.0</ele>
        <time>2018-08-19T16:10:23Z</time>
      </trkpt>
      <trkpt lat="-28.030665" lon="-65.687595">
        <ele>1170.0</ele>
        <time>2018-08-19T16:10:24Z</time>
      </trkpt>
      <trkpt lat="-28.030635" lon="-65.68758">
        <ele>1170.4</ele>
        <time>2018-08-19T16:10:39Z</time>
      </trkpt>
      <trkpt lat="-28.030635" lon="-65.68758">
        <ele>1170.6</ele>
        <time>2018-08-19T16:10:40Z</time>
      </trkpt>
      <trkpt lat="-28.03067" lon="-65.68761">
        <ele>1171.0</ele>
        <time>2018-08-19T16:10:58Z</time>
      </trkpt>
      <trkpt lat="-28.03067" lon="-65.68761">
        <ele>1171.0</ele>
        <time>2018-08-19T16:10:59Z</time>
      </trkpt>
      <trkpt lat="-28.03067" lon="-65.687625">
        <ele>1170.8</ele>
        <time>2018-08-19T16:11:09Z</time>
      </trkpt>
      <trkpt lat="-28.03067" lon="-65.687625">
        <ele>1170.8</ele>
        <time>2018-08-19T16:11:10Z</time>
      </trkpt>
      <trkpt lat="-28.030685" lon="-65.68763">
        <ele>1170.4</ele>
        <time>2018-08-19T16:11:27Z</time>
      </trkpt>
      <trkpt lat="-28.030685" lon="-65.68763">
        <ele>1170.4</ele>
        <time>2018-08-19T16:11:28Z</time>
      </trkpt>
      <trkpt lat="-28.03067" lon="-65.68758">
        <ele>1170.1</ele>
        <time>2018-08-19T16:11:42Z</time>
      </trkpt>
      <trkpt lat="-28.03067" lon="-65.68758">
        <ele>1170.0</ele>
        <time>2018-08-19T16:11:43Z</time>
      </trkpt>
      <trkpt lat="-28.0307" lon="-65.687595">
        <ele>1169.3</ele>
        <time>2018-08-19T16:11:53Z</time>
      </trkpt>
      <trkpt lat="-28.0307" lon="-65.687595">
        <ele>1169.3</ele>
        <time>2018-08-19T16:11:54Z</time>
      </trkpt>
      <trkpt lat="-28.030705" lon="-65.68758">
        <ele>1169.2</ele>
        <time>2018-08-19T16:12:04Z</time>
      </trkpt>
      <trkpt lat="-28.030705" lon="-65.68758">
        <ele>1169.2</ele>
        <time>2018-08-19T16:12:05Z</time>
      </trkpt>
      <trkpt lat="-28.03073" lon="-65.687595">
        <ele>1169.0</ele>
        <time>2018-08-19T16:12:15Z</time>
      </trkpt>
      <trkpt lat="-28.03073" lon="-65.6876">
        <ele>1169.0</ele>
        <time>2018-08-19T16:12:16Z</time>
      </trkpt>
      <trkpt lat="-28.030655" lon="-65.68761">
        <ele>1168.5</ele>
        <time>2018-08-19T16:12:26Z</time>
      </trkpt>
      <trkpt lat="-28.030655" lon="-65.687635">
        <ele>1167.0</ele>
        <time>2018-08-19T16:12:33Z</time>
      </trkpt>
      <trkpt lat="-28.03067" lon="-65.6876">
        <ele>1166.4</ele>
        <time>2018-08-19T16:12:42Z</time>
      </trkpt>
      <trkpt lat="-28.030665" lon="-65.6876">
        <ele>1166.4</ele>
        <time>2018-08-19T16:12:45Z</time>
      </trkpt>
      <trkpt lat="-28.03066" lon="-65.687625">
        <ele>1166.4</ele>
        <time>2018-08-19T16:12:53Z</time>
      </trkpt>
      <trkpt lat="-28.03066" lon="-65.687625">
        <ele>1166.4</ele>
        <time>2018-08-19T16:12:54Z</time>
      </trkpt>
      <trkpt lat="-28.03068" lon="-65.68763">
        <ele>1167.1</ele>
        <time>2018-08-19T16:13:05Z</time>
      </trkpt>
      <trkpt lat="-28.03068" lon="-65.68763">
        <ele>1167.2</ele>
        <time>2018-08-19T16:13:06Z</time>
      </trkpt>
      <trkpt lat="-28.030645" lon="-65.687625">
        <ele>1167.1</ele>
        <time>2018-08-19T16:13:26Z</time>
      </trkpt>
      <trkpt lat="-28.030635" lon="-65.687625">
        <ele>1167.1</ele>
        <time>2018-08-19T16:13:27Z</time>
      </trkpt>
      <trkpt lat="-28.030635" lon="-65.687635">
        <ele>1167.1</ele>
        <time>2018-08-19T16:13:35Z</time>
      </trkpt>
      <trkpt lat="-28.030635" lon="-65.687635">
        <ele>1167.1</ele>
        <time>2018-08-19T16:13:36Z</time>
      </trkpt>
      <trkpt lat="-28.030645" lon="-65.68758">
        <ele>1166.7</ele>
        <time>2018-08-19T16:13:49Z</time>
      </trkpt>
      <trkpt lat="-28.03067" lon="-65.687495">
        <ele>1166.9</ele>
        <time>2018-08-19T16:13:54Z</time>
      </trkpt>
      <trkpt lat="-28.03069" lon="-65.68743">
        <ele>1166.9</ele>
        <time>2018-08-19T16:14:01Z</time>
      </trkpt>
      <trkpt lat="-28.03069" lon="-65.68742">
        <ele>1166.7</ele>
        <time>2018-08-19T16:14:05Z</time>
      </trkpt>
      <trkpt lat="-28.030665" lon="-65.6874">
        <ele>1166.0</ele>
        <time>2018-08-19T16:14:13Z</time>
      </trkpt>
      <trkpt lat="-28.03066" lon="-65.6874">
        <ele>1165.9</ele>
        <time>2018-08-19T16:14:14Z</time>
      </trkpt>
      <trkpt lat="-28.03066" lon="-65.68746">
        <ele>1164.7</ele>
        <time>2018-08-19T16:14:23Z</time>
      </trkpt>
      <trkpt lat="-28.03066" lon="-65.68746">
        <ele>1164.6</ele>
        <time>2018-08-19T16:14:27Z</time>
      </trkpt>
      <trkpt lat="-28.030635" lon="-65.68743">
        <ele>1164.1</ele>
        <time>2018-08-19T16:14:37Z</time>
      </trkpt>
      <trkpt lat="-28.030635" lon="-65.68743">
        <ele>1164.3</ele>
        <time>2018-08-19T16:14:38Z</time>
      </trkpt>
      <trkpt lat="-28.030665" lon="-65.687455">
        <ele>1165.7</ele>
        <time>2018-08-19T16:14:51Z</time>
      </trkpt>
      <trkpt lat="-28.03066" lon="-65.68743">
        <ele>1165.8</ele>
        <time>2018-08-19T16:14:55Z</time>
      </trkpt>
      <trkpt lat="-28.030635" lon="-65.68746">
        <ele>1166.0</ele>
        <time>2018-08-19T16:15:07Z</time>
      </trkpt>
      <trkpt lat="-28.030645" lon="-65.687455">
        <ele>1166.0</ele>
        <time>2018-08-19T16:15:08Z</time>
      </trkpt>
      <trkpt lat="-28.030665" lon="-65.687455">
        <ele>1166.9</ele>
        <time>2018-08-19T16:15:17Z</time>
      </trkpt>
      <trkpt lat="-28.030695" lon="-65.687515">
        <ele>1167.8</ele>
        <time>2018-08-19T16:15:24Z</time>
      </trkpt>
      <trkpt lat="-28.03067" lon="-65.68758">
        <ele>1168.4</ele>
        <time>2018-08-19T16:15:31Z</time>
      </trkpt>
      <trkpt lat="-28.030665" lon="-65.6876">
        <ele>1168.7</ele>
        <time>2018-08-19T16:15:35Z</time>
      </trkpt>
      <trkpt lat="-28.03068" lon="-65.687595">
        <ele>1168.7</ele>
        <time>2018-08-19T16:15:47Z</time>
      </trkpt>
      <trkpt lat="-28.03068" lon="-65.6876">
        <ele>1168.7</ele>
        <time>2018-08-19T16:15:48Z</time>
      </trkpt>
      <trkpt lat="-28.03069" lon="-65.6876">
        <ele>1168.7</ele>
        <time>2018-08-19T16:16:00Z</time>
      </trkpt>
      <trkpt lat="-28.03069" lon="-65.6876">
        <ele>1168.7</ele>
        <time>2018-08-19T16:16:01Z</time>
      </trkpt>
      <trkpt lat="-28.03069" lon="-65.68758">
        <ele>1168.9</ele>
        <time>2018-08-19T16:16:13Z</time>
      </trkpt>
      <trkpt lat="-28.030685" lon="-65.68758">
        <ele>1168.9</ele>
        <time>2018-08-19T16:16:14Z</time>
      </trkpt>
      <trkpt lat="-28.030665" lon="-65.68758">
        <ele>1169.1</ele>
        <time>2018-08-19T16:16:24Z</time>
      </trkpt>
      <trkpt lat="-28.030665" lon="-65.68755333333333">
        <ele>1169.1</ele>
        <time>2018-08-19T16:16:25Z</time>
      </trkpt>
      <trkpt lat="-28.030645" lon="-65.68758">
        <ele>1170.3</ele>
        <time>2018-08-19T16:16:53Z</time>
      </trkpt>
      <trkpt lat="-28.030645" lon="-65.68759">
        <ele>1170.4</ele>
        <time>2018-08-19T16:16:54Z</time>
      </trkpt>
      <trkpt lat="-28.03066" lon="-65.68759">
        <ele>1171.2</ele>
        <time>2018-08-19T16:17:19Z</time>
      </trkpt>
      <trkpt lat="-28.030665" lon="-65.68759">
        <ele>1171.2</ele>
        <time>2018-08-19T16:17:20Z</time>
      </trkpt>
      <trkpt lat="-28.03067" lon="-65.6876">
        <ele>1171.3</ele>
        <time>2018-08-19T16:17:30Z</time>
      </trkpt>
      <trkpt lat="-28.03067" lon="-65.6876">
        <ele>1171.3</ele>
        <time>2018-08-19T16:17:31Z</time>
      </trkpt>
      <trkpt lat="-28.030655" lon="-65.6876">
        <ele>1171.6</ele>
        <time>2018-08-19T16:17:41Z</time>
      </trkpt>
      <trkpt lat="-28.030655" lon="-65.6876">
        <ele>1171.6</ele>
        <time>2018-08-19T16:17:42Z</time>
      </trkpt>
      <trkpt lat="-28.03067" lon="-65.68758">
        <ele>1171.6</ele>
        <time>2018-08-19T16:17:58Z</time>
      </trkpt>
      <trkpt lat="-28.03067" lon="-65.68758">
        <ele>1171.6</ele>
        <time>2018-08-19T16:17:59Z</time>
      </trkpt>
      <trkpt lat="-28.030665" lon="-65.68755">
        <ele>1172.0</ele>
        <time>2018-08-19T16:18:14Z</time>
      </trkpt>
      <trkpt lat="-28.030665" lon="-65.68755">
        <ele>1172.0</ele>
        <time>2018-08-19T16:18:15Z</time>
      </trkpt>
      <trkpt lat="-28.03065" lon="-65.68755">
        <ele>1172.3</ele>
        <time>2018-08-19T16:18:30Z</time>
      </trkpt>
      <trkpt lat="-28.03065" lon="-65.68755166666666">
        <ele>1172.3</ele>
        <time>2018-08-19T16:18:31Z</time>
      </trkpt>
      <trkpt lat="-28.03066" lon="-65.68758">
        <ele>1172.6</ele>
        <time>2018-08-19T16:18:44Z</time>
      </trkpt>
      <trkpt lat="-28.030665" lon="-65.68758">
        <ele>1172.6</ele>
        <time>2018-08-19T16:18:45Z</time>
      </trkpt>
      <trkpt lat="-28.03067" lon="-65.687595">
        <ele>1172.7</ele>
        <time>2018-08-19T16:18:57Z</time>
      </trkpt>
      <trkpt lat="-28.03067" lon="-65.6876">
        <ele>1172.7</ele>
        <time>2018-08-19T16:18:58Z</time>
      </trkpt>
      <trkpt lat="-28.030685" lon="-65.6876">
        <ele>1173.2</ele>
        <time>2018-08-19T16:19:11Z</time>
      </trkpt>
      <trkpt lat="-28.03068" lon="-65.6876">
        <ele>1173.2</ele>
        <time>2018-08-19T16:19:12Z</time>
      </trkpt>
      <trkpt lat="-28.030665" lon="-65.68759">
        <ele>1173.3</ele>
        <time>2018-08-19T16:19:23Z</time>
      </trkpt>
      <trkpt lat="-28.030665" lon="-65.68759">
        <ele>1173.3</ele>
        <time>2018-08-19T16:19:24Z</time>
      </trkpt>
      <trkpt lat="-28.03068" lon="-65.68759">
        <ele>1173.9</ele>
        <time>2018-08-19T16:19:48Z</time>
      </trkpt>
      <trkpt lat="-28.03068" lon="-65.68759">
        <ele>1173.8</ele>
        <time>2018-08-19T16:19:49Z</time>
      </trkpt>
      <trkpt lat="-28.03069" lon="-65.68755333333333">
        <ele>1173.8</ele>
        <time>2018-08-19T16:19:59Z</time>
      </trkpt>
      <trkpt lat="-28.030695" lon="-65.68755333333333">
        <ele>1173.8</ele>
        <time>2018-08-19T16:20:00Z</time>
      </trkpt>
      <trkpt lat="-28.03069" lon="-65.68758">
        <ele>1173.6</ele>
        <time>2018-08-19T16:20:11Z</time>
      </trkpt>
      <trkpt lat="-28.03069" lon="-65.68758">
        <ele>1173.6</ele>
        <time>2018-08-19T16:20:12Z</time>
      </trkpt>
      <trkpt lat="-28.030705" lon="-65.68755">
        <ele>1172.9</ele>
        <time>2018-08-19T16:20:25Z</time>
      </trkpt>
      <trkpt lat="-28.030705" lon="-65.68755">
        <ele>1172.8</ele>
        <time>2018-08-19T16:20:26Z</time>
      </trkpt>
      <trkpt lat="-28.03069" lon="-65.687545">
        <ele>1172.5</ele>
        <time>2018-08-19T16:20:34Z</time>
      </trkpt>
      <trkpt lat="-28.030685" lon="-65.687535">
        <ele>1172.5</ele>
        <time>2018-08-19T16:20:35Z</time>
      </trkpt>
      <trkpt lat="-28.03065" lon="-65.68747">
        <ele>1171.9</ele>
        <time>2018-08-19T16:20:43Z</time>
      </trkpt>
      <trkpt lat="-28.03065" lon="-65.68747">
        <ele>1171.9</ele>
        <time>2018-08-19T16:20:49Z</time>
      </trkpt>
      <trkpt lat="-28.03066" lon="-65.687495">
        <ele>1171.3</ele>
        <time>2018-08-19T16:21:02Z</time>
      </trkpt>
      <trkpt lat="-28.03066" lon="-65.687495">
        <ele>1171.3</ele>
        <time>2018-08-19T16:21:03Z</time>
      </trkpt>
      <trkpt lat="-28.030635" lon="-65.687495">
        <ele>1171.2</ele>
        <time>2018-08-19T16:21:12Z</time>
      </trkpt>
      <trkpt lat="-28.030635" lon="-65.68747">
        <ele>1171.2</ele>
        <time>2018-08-19T16:21:13Z</time>
      </trkpt>
      <trkpt lat="-28.03063" lon="-65.68747">
        <ele>1170.9</ele>
        <time>2018-08-19T16:21:32Z</time>
      </trkpt>
      <trkpt lat="-28.03063" lon="-65.68747">
        <ele>1171.0</ele>
        <time>2018-08-19T16:21:33Z</time>
      </trkpt>
      <trkpt lat="-28.03055" lon="-65.687515">
        <ele>1170.6</ele>
        <time>2018-08-19T16:21:44Z</time>
      </trkpt>
      <trkpt lat="-28.03044" lon="-65.687545">
        <ele>1170.7</ele>
        <time>2018-08-19T16:21:47Z</time>
      </trkpt>
      <trkpt lat="-28.030355" lon="-65.68759">
        <ele>1170.1</ele>
        <time>2018-08-19T16:21:49Z</time>
      </trkpt>
      <trkpt lat="-28.030265" lon="-65.687655">
        <ele>1169.2</ele>
        <time>2018-08-19T16:21:51Z</time>
      </trkpt>
      <trkpt lat="-28.03014" lon="-65.68774">
        <ele>1168.1</ele>
        <time>2018-08-19T16:21:53Z</time>
      </trkpt>
      <trkpt lat="-28.030065" lon="-65.68778">
        <ele>1167.2</ele>
        <time>2018-08-19T16:21:54Z</time>
      </trkpt>
      <trkpt lat="-28.029995" lon="-65.68785">
        <ele>1166.3</ele>
        <time>2018-08-19T16:21:55Z</time>
      </trkpt>
      <trkpt lat="-28.02991" lon="-65.687905">
        <ele>1165.3</ele>
        <time>2018-08-19T16:21:56Z</time>
      </trkpt>
      <trkpt lat="-28.029835" lon="-65.687955">
        <ele>1164.0</ele>
        <time>2018-08-19T16:21:57Z</time>
      </trkpt>
      <trkpt lat="-28.02975" lon="-65.688">
        <ele>1162.7</ele>
        <time>2018-08-19T16:21:58Z</time>
      </trkpt>
      <trkpt lat="-28.02965" lon="-65.688045">
        <ele>1161.7</ele>
        <time>2018-08-19T16:21:59Z</time>
      </trkpt>
      <trkpt lat="-28.029555" lon="-65.688085">
        <ele>1160.7</ele>
        <time>2018-08-19T16:22:00Z</time>
      </trkpt>
      <trkpt lat="-28.029455" lon="-65.688125">
        <ele>1159.8</ele>
        <time>2018-08-19T16:22:01Z</time>
      </trkpt>
      <trkpt lat="-28.02936" lon="-65.68816">
        <ele>1158.6</ele>
        <time>2018-08-19T16:22:02Z</time>
      </trkpt>
      <trkpt lat="-28.02925" lon="-65.68821">
        <ele>1157.1</ele>
        <time>2018-08-19T16:22:03Z</time>
      </trkpt>
      <trkpt lat="-28.02915" lon="-65.68823">
        <ele>1155.8</ele>
        <time>2018-08-19T16:22:04Z</time>
      </trkpt>
      <trkpt lat="-28.029045" lon="-65.688275">
        <ele>1154.7</ele>
        <time>2018-08-19T16:22:05Z</time>
      </trkpt>
      <trkpt lat="-28.028925" lon="-65.68831">
        <ele>1153.7</ele>
        <time>2018-08-19T16:22:06Z</time>
      </trkpt>
      <trkpt lat="-28.02882" lon="-65.688355">
        <ele>1152.7</ele>
        <time>2018-08-19T16:22:07Z</time>
      </trkpt>
      <trkpt lat="-28.0287" lon="-65.688385">
        <ele>1151.8</ele>
        <time>2018-08-19T16:22:08Z</time>
      </trkpt>
      <trkpt lat="-28.028585" lon="-65.688415">
        <ele>1151.1</ele>
        <time>2018-08-19T16:22:09Z</time>
      </trkpt>
      <trkpt lat="-28.028475" lon="-65.688455">
        <ele>1150.5</ele>
        <time>2018-08-19T16:22:10Z</time>
      </trkpt>
      <trkpt lat="-28.02836" lon="-65.68849">
        <ele>1150.1</ele>
        <time>2018-08-19T16:22:11Z</time>
      </trkpt>
      <trkpt lat="-28.02824" lon="-65.68852">
        <ele>1149.8</ele>
        <time>2018-08-19T16:22:12Z</time>
      </trkpt>
      <trkpt lat="-28.028125" lon="-65.688535">
        <ele>1149.9</ele>
        <time>2018-08-19T16:22:13Z</time>
      </trkpt>
      <trkpt lat="-28.028005" lon="-65.688585">
        <ele>1149.4</ele>
        <time>2018-08-19T16:22:14Z</time>
      </trkpt>
      <trkpt lat="-28.02788" lon="-65.688615">
        <ele>1148.6</ele>
        <time>2018-08-19T16:22:15Z</time>
      </trkpt>
      <trkpt lat="-28.02775" lon="-65.68864">
        <ele>1147.8</ele>
        <time>2018-08-19T16:22:16Z</time>
      </trkpt>
      <trkpt lat="-28.027625" lon="-65.68868">
        <ele>1147.2</ele>
        <time>2018-08-19T16:22:17Z</time>
      </trkpt>
      <trkpt lat="-28.027505" lon="-65.688705">
        <ele>1146.6</ele>
        <time>2018-08-19T16:22:18Z</time>
      </trkpt>
      <trkpt lat="-28.02737" lon="-65.688725">
        <ele>1146.0</ele>
        <time>2018-08-19T16:22:19Z</time>
      </trkpt>
      <trkpt lat="-28.02726" lon="-65.688765">
        <ele>1145.3</ele>
        <time>2018-08-19T16:22:20Z</time>
      </trkpt>
      <trkpt lat="-28.027135" lon="-65.688805">
        <ele>1144.5</ele>
        <time>2018-08-19T16:22:21Z</time>
      </trkpt>
      <trkpt lat="-28.027005" lon="-65.68884">
        <ele>1143.6</ele>
        <time>2018-08-19T16:22:22Z</time>
      </trkpt>
      <trkpt lat="-28.02688" lon="-65.688865">
        <ele>1142.6</ele>
        <time>2018-08-19T16:22:23Z</time>
      </trkpt>
      <trkpt lat="-28.026755" lon="-65.688905">
        <ele>1141.6</ele>
        <time>2018-08-19T16:22:24Z</time>
      </trkpt>
      <trkpt lat="-28.026625" lon="-65.68895">
        <ele>1140.7</ele>
        <time>2018-08-19T16:22:25Z</time>
      </trkpt>
      <trkpt lat="-28.02649" lon="-65.68899">
        <ele>1139.7</ele>
        <time>2018-08-19T16:22:26Z</time>
      </trkpt>
      <trkpt lat="-28.02636" lon="-65.68903">
        <ele>1138.8</ele>
        <time>2018-08-19T16:22:27Z</time>
      </trkpt>
      <trkpt lat="-28.02622" lon="-65.689065">
        <ele>1137.8</ele>
        <time>2018-08-19T16:22:28Z</time>
      </trkpt>
      <trkpt lat="-28.02608" lon="-65.68908166666667">
        <ele>1136.9</ele>
        <time>2018-08-19T16:22:29Z</time>
      </trkpt>
      <trkpt lat="-28.025935" lon="-65.68912">
        <ele>1136.0</ele>
        <time>2018-08-19T16:22:30Z</time>
      </trkpt>
      <trkpt lat="-28.0258" lon="-65.689145">
        <ele>1135.0</ele>
        <time>2018-08-19T16:22:31Z</time>
      </trkpt>
      <trkpt lat="-28.025675" lon="-65.689155">
        <ele>1134.4</ele>
        <time>2018-08-19T16:22:32Z</time>
      </trkpt>
      <trkpt lat="-28.02554" lon="-65.689165">
        <ele>1134.0</ele>
        <time>2018-08-19T16:22:33Z</time>
      </trkpt>
      <trkpt lat="-28.0254" lon="-65.689155">
        <ele>1133.5</ele>
        <time>2018-08-19T16:22:34Z</time>
      </trkpt>
      <trkpt lat="-28.02526" lon="-65.689145">
        <ele>1132.9</ele>
        <time>2018-08-19T16:22:35Z</time>
      </trkpt>
      <trkpt lat="-28.025135" lon="-65.68913">
        <ele>1132.3</ele>
        <time>2018-08-19T16:22:36Z</time>
      </trkpt>
      <trkpt lat="-28.02501" lon="-65.68912">
        <ele>1131.8</ele>
        <time>2018-08-19T16:22:37Z</time>
      </trkpt>
      <trkpt lat="-28.02489" lon="-65.68907333333334">
        <ele>1131.4</ele>
        <time>2018-08-19T16:22:38Z</time>
      </trkpt>
      <trkpt lat="-28.024775" lon="-65.68907">
        <ele>1130.6</ele>
        <time>2018-08-19T16:22:39Z</time>
      </trkpt>
      <trkpt lat="-28.024655" lon="-65.689035">
        <ele>1129.6</ele>
        <time>2018-08-19T16:22:40Z</time>
      </trkpt>
      <trkpt lat="-28.024535" lon="-65.68899">
        <ele>1128.5</ele>
        <time>2018-08-19T16:22:41Z</time>
      </trkpt>
      <trkpt lat="-28.024435" lon="-65.688975">
        <ele>1127.3</ele>
        <time>2018-08-19T16:22:42Z</time>
      </trkpt>
      <trkpt lat="-28.02433" lon="-65.68893">
        <ele>1126.3</ele>
        <time>2018-08-19T16:22:43Z</time>
      </trkpt>
      <trkpt lat="-28.02423" lon="-65.688885">
        <ele>1125.3</ele>
        <time>2018-08-19T16:22:44Z</time>
      </trkpt>
      <trkpt lat="-28.02414" lon="-65.688845">
        <ele>1124.6</ele>
        <time>2018-08-19T16:22:45Z</time>
      </trkpt>
      <trkpt lat="-28.02405" lon="-65.6888">
        <ele>1124.0</ele>
        <time>2018-08-19T16:22:46Z</time>
      </trkpt>
      <trkpt lat="-28.023965" lon="-65.688755">
        <ele>1123.8</ele>
        <time>2018-08-19T16:22:47Z</time>
      </trkpt>
      <trkpt lat="-28.023885" lon="-65.688705">
        <ele>1123.8</ele>
        <time>2018-08-19T16:22:48Z</time>
      </trkpt>
      <trkpt lat="-28.02381" lon="-65.68867">
        <ele>1123.8</ele>
        <time>2018-08-19T16:22:49Z</time>
      </trkpt>
      <trkpt lat="-28.023755" lon="-65.68863">
        <ele>1123.6</ele>
        <time>2018-08-19T16:22:50Z</time>
      </trkpt>
      <trkpt lat="-28.02369" lon="-65.688585">
        <ele>1123.6</ele>
        <time>2018-08-19T16:22:51Z</time>
      </trkpt>
      <trkpt lat="-28.02362" lon="-65.688535">
        <ele>1123.7</ele>
        <time>2018-08-19T16:22:52Z</time>
      </trkpt>
      <trkpt lat="-28.023515" lon="-65.688455">
        <ele>1123.2</ele>
        <time>2018-08-19T16:22:54Z</time>
      </trkpt>
      <trkpt lat="-28.02341" lon="-65.688405">
        <ele>1122.4</ele>
        <time>2018-08-19T16:22:56Z</time>
      </trkpt>
      <trkpt lat="-28.02331" lon="-65.68834">
        <ele>1121.8</ele>
        <time>2018-08-19T16:22:58Z</time>
      </trkpt>
      <trkpt lat="-28.023205" lon="-65.688275">
        <ele>1121.2</ele>
        <time>2018-08-19T16:23:00Z</time>
      </trkpt>
      <trkpt lat="-28.023115" lon="-65.688225">
        <ele>1120.7</ele>
        <time>2018-08-19T16:23:02Z</time>
      </trkpt>
      <trkpt lat="-28.023015" lon="-65.68816">
        <ele>1120.4</ele>
        <time>2018-08-19T16:23:04Z</time>
      </trkpt>
      <trkpt lat="-28.022925" lon="-65.688095">
        <ele>1120.2</ele>
        <time>2018-08-19T16:23:06Z</time>
      </trkpt>
      <trkpt lat="-28.022825" lon="-65.688045">
        <ele>1120.3</ele>
        <time>2018-08-19T16:23:08Z</time>
      </trkpt>
      <trkpt lat="-28.02273" lon="-65.687995">
        <ele>1120.3</ele>
        <time>2018-08-19T16:23:10Z</time>
      </trkpt>
      <trkpt lat="-28.02263" lon="-65.68792166666667">
        <ele>1119.8</ele>
        <time>2018-08-19T16:23:12Z</time>
      </trkpt>
      <trkpt lat="-28.022515" lon="-65.68787">
        <ele>1120.1</ele>
        <time>2018-08-19T16:23:14Z</time>
      </trkpt>
      <trkpt lat="-28.022395" lon="-65.687805">
        <ele>1120.7</ele>
        <time>2018-08-19T16:23:16Z</time>
      </trkpt>
      <trkpt lat="-28.02226" lon="-65.68774">
        <ele>1121.3</ele>
        <time>2018-08-19T16:23:18Z</time>
      </trkpt>
      <trkpt lat="-28.022135" lon="-65.687695">
        <ele>1120.7</ele>
        <time>2018-08-19T16:23:20Z</time>
      </trkpt>
      <trkpt lat="-28.022065" lon="-65.687655">
        <ele>1120.1</ele>
        <time>2018-08-19T16:23:21Z</time>
      </trkpt>
      <trkpt lat="-28.021995" lon="-65.687645">
        <ele>1119.4</ele>
        <time>2018-08-19T16:23:22Z</time>
      </trkpt>
      <trkpt lat="-28.021915" lon="-65.68761">
        <ele>1118.6</ele>
        <time>2018-08-19T16:23:23Z</time>
      </trkpt>
      <trkpt lat="-28.02184" lon="-65.687595">
        <ele>1117.9</ele>
        <time>2018-08-19T16:23:24Z</time>
      </trkpt>
      <trkpt lat="-28.021755" lon="-65.68755">
        <ele>1117.2</ele>
        <time>2018-08-19T16:23:25Z</time>
      </trkpt>
      <trkpt lat="-28.02167" lon="-65.68755">
        <ele>1116.6</ele>
        <time>2018-08-19T16:23:26Z</time>
      </trkpt>
      <trkpt lat="-28.02158" lon="-65.687515">
        <ele>1115.9</ele>
        <time>2018-08-19T16:23:27Z</time>
      </trkpt>
      <trkpt lat="-28.02149" lon="-65.687505">
        <ele>1115.2</ele>
        <time>2018-08-19T16:23:28Z</time>
      </trkpt>
      <trkpt lat="-28.0214" lon="-65.68747">
        <ele>1114.7</ele>
        <time>2018-08-19T16:23:29Z</time>
      </trkpt>
      <trkpt lat="-28.021305" lon="-65.68747">
        <ele>1114.1</ele>
        <time>2018-08-19T16:23:30Z</time>
      </trkpt>
      <trkpt lat="-28.02121" lon="-65.687465">
        <ele>1113.6</ele>
        <time>2018-08-19T16:23:31Z</time>
      </trkpt>
      <trkpt lat="-28.021115" lon="-65.68745">
        <ele>1113.2</ele>
        <time>2018-08-19T16:23:32Z</time>
      </trkpt>
      <trkpt lat="-28.02102" lon="-65.68743">
        <ele>1112.7</ele>
        <time>2018-08-19T16:23:33Z</time>
      </trkpt>
      <trkpt lat="-28.02092" lon="-65.68743">
        <ele>1112.5</ele>
        <time>2018-08-19T16:23:34Z</time>
      </trkpt>
      <trkpt lat="-28.02082" lon="-65.68743">
        <ele>1112.5</ele>
        <time>2018-08-19T16:23:35Z</time>
      </trkpt>
      <trkpt lat="-28.02073" lon="-65.68742">
        <ele>1112.6</ele>
        <time>2018-08-19T16:23:36Z</time>
      </trkpt>
      <trkpt lat="-28.02063" lon="-65.68742">
        <ele>1112.8</ele>
        <time>2018-08-19T16:23:37Z</time>
      </trkpt>
      <trkpt lat="-28.02054" lon="-65.68742">
        <ele>1113.0</ele>
        <time>2018-08-19T16:23:38Z</time>
      </trkpt>
      <trkpt lat="-28.02045" lon="-65.68742">
        <ele>1113.2</ele>
        <time>2018-08-19T16:23:39Z</time>
      </trkpt>
      <trkpt lat="-28.02036" lon="-65.68742">
        <ele>1113.4</ele>
        <time>2018-08-19T16:23:40Z</time>
      </trkpt>
      <trkpt lat="-28.02027" lon="-65.68742">
        <ele>1113.7</ele>
        <time>2018-08-19T16:23:41Z</time>
      </trkpt>
      <trkpt lat="-28.02018" lon="-65.68742">
        <ele>1114.0</ele>
        <time>2018-08-19T16:23:42Z</time>
      </trkpt>
      <trkpt lat="-28.0201" lon="-65.68743">
        <ele>1113.9</ele>
        <time>2018-08-19T16:23:43Z</time>
      </trkpt>
      <trkpt lat="-28.02002" lon="-65.68743">
        <ele>1113.7</ele>
        <time>2018-08-19T16:23:44Z</time>
      </trkpt>
      <trkpt lat="-28.019945" lon="-65.68743">
        <ele>1113.6</ele>
        <time>2018-08-19T16:23:45Z</time>
      </trkpt>
      <trkpt lat="-28.01987" lon="-65.68745">
        <ele>1113.5</ele>
        <time>2018-08-19T16:23:46Z</time>
      </trkpt>
      <trkpt lat="-28.019755" lon="-65.687455">
        <ele>1114.8</ele>
        <time>2018-08-19T16:23:48Z</time>
      </trkpt>
      <trkpt lat="-28.019635" lon="-65.687455">
        <ele>1116.6</ele>
        <time>2018-08-19T16:23:50Z</time>
      </trkpt>
      <trkpt lat="-28.01952" lon="-65.68746">
        <ele>1118.4</ele>
        <time>2018-08-19T16:23:52Z</time>
      </trkpt>
      <trkpt lat="-28.01941" lon="-65.68746">
        <ele>1119.4</ele>
        <time>2018-08-19T16:23:54Z</time>
      </trkpt>
      <trkpt lat="-28.0193" lon="-65.687465">
        <ele>1119.9</ele>
        <time>2018-08-19T16:23:56Z</time>
      </trkpt>
      <trkpt lat="-28.019225" lon="-65.68746">
        <ele>1120.1</ele>
        <time>2018-08-19T16:23:58Z</time>
      </trkpt>
      <trkpt lat="-28.019145" lon="-65.68746">
        <ele>1120.3</ele>
        <time>2018-08-19T16:24:00Z</time>
      </trkpt>
      <trkpt lat="-28.01906" lon="-65.687455">
        <ele>1120.4</ele>
        <time>2018-08-19T16:24:02Z</time>
      </trkpt>
      <trkpt lat="-28.01897" lon="-65.687455">
        <ele>1120.4</ele>
        <time>2018-08-19T16:24:04Z</time>
      </trkpt>
      <trkpt lat="-28.018885" lon="-65.68745">
        <ele>1120.0</ele>
        <time>2018-08-19T16:24:06Z</time>
      </trkpt>
      <trkpt lat="-28.01881" lon="-65.68745">
        <ele>1118.7</ele>
        <time>2018-08-19T16:24:08Z</time>
      </trkpt>
      <trkpt lat="-28.01872" lon="-65.68743">
        <ele>1118.0</ele>
        <time>2018-08-19T16:24:10Z</time>
      </trkpt>
      <trkpt lat="-28.018625" lon="-65.68743">
        <ele>1118.1</ele>
        <time>2018-08-19T16:24:12Z</time>
      </trkpt>
      <trkpt lat="-28.018545" lon="-65.68741">
        <ele>1118.0</ele>
        <time>2018-08-19T16:24:14Z</time>
      </trkpt>
      <trkpt lat="-28.01847" lon="-65.6874">
        <ele>1117.1</ele>
        <time>2018-08-19T16:24:16Z</time>
      </trkpt>
      <trkpt lat="-28.018395" lon="-65.687385">
        <ele>1116.3</ele>
        <time>2018-08-19T16:24:18Z</time>
      </trkpt>
      <trkpt lat="-28.018315" lon="-65.68737">
        <ele>1115.8</ele>
        <time>2018-08-19T16:24:20Z</time>
      </trkpt>
      <trkpt lat="-28.018235" lon="-65.68732833333334">
        <ele>1115.8</ele>
        <time>2018-08-19T16:24:22Z</time>
      </trkpt>
      <trkpt lat="-28.01816" lon="-65.687325">
        <ele>1116.1</ele>
        <time>2018-08-19T16:24:24Z</time>
      </trkpt>
      <trkpt lat="-28.01809" lon="-65.68731">
        <ele>1116.2</ele>
        <time>2018-08-19T16:24:26Z</time>
      </trkpt>
      <trkpt lat="-28.01802" lon="-65.68729">
        <ele>1115.8</ele>
        <time>2018-08-19T16:24:28Z</time>
      </trkpt>
      <trkpt lat="-28.01794" lon="-65.68727">
        <ele>1115.3</ele>
        <time>2018-08-19T16:24:30Z</time>
      </trkpt>
      <trkpt lat="-28.017855" lon="-65.687245">
        <ele>1114.7</ele>
        <time>2018-08-19T16:24:32Z</time>
      </trkpt>
      <trkpt lat="-28.01776" lon="-65.687205">
        <ele>1114.1</ele>
        <time>2018-08-19T16:24:34Z</time>
      </trkpt>
      <trkpt lat="-28.01767" lon="-65.687185">
        <ele>1113.6</ele>
        <time>2018-08-19T16:24:36Z</time>
      </trkpt>
      <trkpt lat="-28.01756" lon="-65.687145">
        <ele>1113.4</ele>
        <time>2018-08-19T16:24:38Z</time>
      </trkpt>
      <trkpt lat="-28.01745" lon="-65.687095">
        <ele>1113.7</ele>
        <time>2018-08-19T16:24:40Z</time>
      </trkpt>
      <trkpt lat="-28.01735" lon="-65.687045">
        <ele>1113.1</ele>
        <time>2018-08-19T16:24:42Z</time>
      </trkpt>
      <trkpt lat="-28.01724" lon="-65.68698">
        <ele>1112.3</ele>
        <time>2018-08-19T16:24:44Z</time>
      </trkpt>
      <trkpt lat="-28.01712" lon="-65.68693">
        <ele>1111.5</ele>
        <time>2018-08-19T16:24:46Z</time>
      </trkpt>
      <trkpt lat="-28.01699" lon="-65.686865">
        <ele>1110.5</ele>
        <time>2018-08-19T16:24:48Z</time>
      </trkpt>
      <trkpt lat="-28.016915" lon="-65.68683">
        <ele>1110.4</ele>
        <time>2018-08-19T16:24:49Z</time>
      </trkpt>
      <trkpt lat="-28.01684" lon="-65.68679">
        <ele>1110.7</ele>
        <time>2018-08-19T16:24:50Z</time>
      </trkpt>
      <trkpt lat="-28.016765" lon="-65.686755">
        <ele>1111.1</ele>
        <time>2018-08-19T16:24:51Z</time>
      </trkpt>
      <trkpt lat="-28.01669" lon="-65.68671">
        <ele>1111.5</ele>
        <time>2018-08-19T16:24:52Z</time>
      </trkpt>
      <trkpt lat="-28.01661" lon="-65.68667">
        <ele>1111.7</ele>
        <time>2018-08-19T16:24:53Z</time>
      </trkpt>
      <trkpt lat="-28.016535" lon="-65.68664">
        <ele>1111.5</ele>
        <time>2018-08-19T16:24:54Z</time>
      </trkpt>
      <trkpt lat="-28.016465" lon="-65.686605">
        <ele>1111.3</ele>
        <time>2018-08-19T16:24:55Z</time>
      </trkpt>
      <trkpt lat="-28.016395" lon="-65.686565">
        <ele>1111.1</ele>
        <time>2018-08-19T16:24:56Z</time>
      </trkpt>
      <trkpt lat="-28.01631" lon="-65.68653">
        <ele>1110.8</ele>
        <time>2018-08-19T16:24:57Z</time>
      </trkpt>
      <trkpt lat="-28.016235" lon="-65.686485">
        <ele>1110.6</ele>
        <time>2018-08-19T16:24:58Z</time>
      </trkpt>
      <trkpt lat="-28.01616" lon="-65.686475">
        <ele>1110.2</ele>
        <time>2018-08-19T16:24:59Z</time>
      </trkpt>
      <trkpt lat="-28.016075" lon="-65.686445">
        <ele>1109.8</ele>
        <time>2018-08-19T16:25:00Z</time>
      </trkpt>
      <trkpt lat="-28.01599" lon="-65.686415">
        <ele>1109.7</ele>
        <time>2018-08-19T16:25:01Z</time>
      </trkpt>
      <trkpt lat="-28.015905" lon="-65.68639">
        <ele>1109.7</ele>
        <time>2018-08-19T16:25:02Z</time>
      </trkpt>
      <trkpt lat="-28.015815" lon="-65.68637">
        <ele>1109.7</ele>
        <time>2018-08-19T16:25:03Z</time>
      </trkpt>
      <trkpt lat="-28.015725" lon="-65.68634">
        <ele>1109.8</ele>
        <time>2018-08-19T16:25:04Z</time>
      </trkpt>
      <trkpt lat="-28.015635" lon="-65.68634">
        <ele>1109.8</ele>
        <time>2018-08-19T16:25:05Z</time>
      </trkpt>
      <trkpt lat="-28.01555" lon="-65.68633">
        <ele>1109.9</ele>
        <time>2018-08-19T16:25:06Z</time>
      </trkpt>
      <trkpt lat="-28.015465" lon="-65.686325">
        <ele>1109.9</ele>
        <time>2018-08-19T16:25:07Z</time>
      </trkpt>
      <trkpt lat="-28.015375" lon="-65.686325">
        <ele>1109.9</ele>
        <time>2018-08-19T16:25:08Z</time>
      </trkpt>
      <trkpt lat="-28.01529" lon="-65.68633">
        <ele>1110.0</ele>
        <time>2018-08-19T16:25:09Z</time>
      </trkpt>
      <trkpt lat="-28.01521" lon="-65.686335">
        <ele>1110.4</ele>
        <time>2018-08-19T16:25:10Z</time>
      </trkpt>
      <trkpt lat="-28.015135" lon="-65.68634">
        <ele>1111.2</ele>
        <time>2018-08-19T16:25:11Z</time>
      </trkpt>
      <trkpt lat="-28.015065" lon="-65.68634">
        <ele>1111.8</ele>
        <time>2018-08-19T16:25:12Z</time>
      </trkpt>
      <trkpt lat="-28.014985" lon="-65.68634333333333">
        <ele>1112.3</ele>
        <time>2018-08-19T16:25:13Z</time>
      </trkpt>
      <trkpt lat="-28.01491" lon="-65.686385">
        <ele>1112.6</ele>
        <time>2018-08-19T16:25:14Z</time>
      </trkpt>
      <trkpt lat="-28.01483" lon="-65.6864">
        <ele>1112.6</ele>
        <time>2018-08-19T16:25:15Z</time>
      </trkpt>
      <trkpt lat="-28.014755" lon="-65.686415">
        <ele>1112.6</ele>
        <time>2018-08-19T16:25:16Z</time>
      </trkpt>
      <trkpt lat="-28.014685" lon="-65.686435">
        <ele>1112.6</ele>
        <time>2018-08-19T16:25:17Z</time>
      </trkpt>
      <trkpt lat="-28.014615" lon="-65.686465">
        <ele>1112.5</ele>
        <time>2018-08-19T16:25:18Z</time>
      </trkpt>
      <trkpt lat="-28.01449" lon="-65.68651">
        <ele>1112.1</ele>
        <time>2018-08-19T16:25:20Z</time>
      </trkpt>
      <trkpt lat="-28.01436" lon="-65.686565">
        <ele>1111.4</ele>
        <time>2018-08-19T16:25:22Z</time>
      </trkpt>
      <trkpt lat="-28.014235" lon="-65.686615">
        <ele>1110.8</ele>
        <time>2018-08-19T16:25:24Z</time>
      </trkpt>
      <trkpt lat="-28.01413" lon="-65.68666">
        <ele>1110.6</ele>
        <time>2018-08-19T16:25:26Z</time>
      </trkpt>
      <trkpt lat="-28.01402" lon="-65.68671">
        <ele>1110.8</ele>
        <time>2018-08-19T16:25:28Z</time>
      </trkpt>
      <trkpt lat="-28.013915" lon="-65.686755">
        <ele>1111.0</ele>
        <time>2018-08-19T16:25:30Z</time>
      </trkpt>
      <trkpt lat="-28.01383" lon="-65.68682">
        <ele>1111.2</ele>
        <time>2018-08-19T16:25:32Z</time>
      </trkpt>
      <trkpt lat="-28.01375" lon="-65.68687">
        <ele>1111.4</ele>
        <time>2018-08-19T16:25:34Z</time>
      </trkpt>
      <trkpt lat="-28.013685" lon="-65.686895">
        <ele>1111.4</ele>
        <time>2018-08-19T16:25:36Z</time>
      </trkpt>
      <trkpt lat="-28.01362" lon="-65.686935">
        <ele>1111.5</ele>
        <time>2018-08-19T16:25:38Z</time>
      </trkpt>
      <trkpt lat="-28.01353" lon="-65.687">
        <ele>1111.6</ele>
        <time>2018-08-19T16:25:41Z</time>
      </trkpt>
      <trkpt lat="-28.01344" lon="-65.687055">
        <ele>1111.7</ele>
        <time>2018-08-19T16:25:44Z</time>
      </trkpt>
      <trkpt lat="-28.01335" lon="-65.68711">
        <ele>1111.8</ele>
        <time>2018-08-19T16:25:47Z</time>
      </trkpt>
      <trkpt lat="-28.01327" lon="-65.68715">
        <ele>1112.0</ele>
        <time>2018-08-19T16:25:50Z</time>
      </trkpt>
      <trkpt lat="-28.01319" lon="-65.687195">
        <ele>1112.1</ele>
        <time>2018-08-19T16:25:53Z</time>
      </trkpt>
      <trkpt lat="-28.013115" lon="-65.687245">
        <ele>1112.3</ele>
        <time>2018-08-19T16:25:56Z</time>
      </trkpt>
      <trkpt lat="-28.01305" lon="-65.687285">
        <ele>1112.5</ele>
        <time>2018-08-19T16:25:59Z</time>
      </trkpt>
      <trkpt lat="-28.012975" lon="-65.68732">
        <ele>1112.7</ele>
        <time>2018-08-19T16:26:02Z</time>
      </trkpt>
      <trkpt lat="-28.01289" lon="-65.687365">
        <ele>1112.9</ele>
        <time>2018-08-19T16:26:06Z</time>
      </trkpt>
      <trkpt lat="-28.012815" lon="-65.68741">
        <ele>1113.2</ele>
        <time>2018-08-19T16:26:10Z</time>
      </trkpt>
      <trkpt lat="-28.012735" lon="-65.68745">
        <ele>1113.5</ele>
        <time>2018-08-19T16:26:14Z</time>
      </trkpt>
      <trkpt lat="-28.012645" lon="-65.68747">
        <ele>1113.7</ele>
        <time>2018-08-19T16:26:18Z</time>
      </trkpt>
      <trkpt lat="-28.01256" lon="-65.687515">
        <ele>1113.9</ele>
        <time>2018-08-19T16:26:22Z</time>
      </trkpt>
      <trkpt lat="-28.01249" lon="-65.68755">
        <ele>1114.1</ele>
        <time>2018-08-19T16:26:25Z</time>
      </trkpt>
      <trkpt lat="-28.012405" lon="-65.687595">
        <ele>1114.2</ele>
        <time>2018-08-19T16:26:28Z</time>
      </trkpt>
      <trkpt lat="-28.01233" lon="-65.68763">
        <ele>1114.4</ele>
        <time>2018-08-19T16:26:31Z</time>
      </trkpt>
      <trkpt lat="-28.012255" lon="-65.687655">
        <ele>1114.6</ele>
        <time>2018-08-19T16:26:34Z</time>
      </trkpt>
      <trkpt lat="-28.01218" lon="-65.687695">
        <ele>1114.7</ele>
        <time>2018-08-19T16:26:37Z</time>
      </trkpt>
      <trkpt lat="-28.01211" lon="-65.68772">
        <ele>1114.8</ele>
        <time>2018-08-19T16:26:40Z</time>
      </trkpt>
      <trkpt lat="-28.01202" lon="-65.68776">
        <ele>1114.8</ele>
        <time>2018-08-19T16:26:43Z</time>
      </trkpt>
      <trkpt lat="-28.01192" lon="-65.68778">
        <ele>1114.9</ele>
        <time>2018-08-19T16:26:46Z</time>
      </trkpt>
      <trkpt lat="-28.011835" lon="-65.68782">
        <ele>1114.9</ele>
        <time>2018-08-19T16:26:49Z</time>
      </trkpt>
      <trkpt lat="-28.01175" lon="-65.687835">
        <ele>1115.0</ele>
        <time>2018-08-19T16:26:52Z</time>
      </trkpt>
      <trkpt lat="-28.01165" lon="-65.68786">
        <ele>1115.1</ele>
        <time>2018-08-19T16:26:55Z</time>
      </trkpt>
      <trkpt lat="-28.011555" lon="-65.68788">
        <ele>1115.2</ele>
        <time>2018-08-19T16:26:58Z</time>
      </trkpt>
      <trkpt lat="-28.01146" lon="-65.68788">
        <ele>1115.3</ele>
        <time>2018-08-19T16:27:01Z</time>
      </trkpt>
      <trkpt lat="-28.01137" lon="-65.687915">
        <ele>1115.4</ele>
        <time>2018-08-19T16:27:04Z</time>
      </trkpt>
      <trkpt lat="-28.01128" lon="-65.68792">
        <ele>1115.5</ele>
        <time>2018-08-19T16:27:07Z</time>
      </trkpt>
      <trkpt lat="-28.01118" lon="-65.687955">
        <ele>1116.4</ele>
        <time>2018-08-19T16:27:10Z</time>
      </trkpt>
      <trkpt lat="-28.011075" lon="-65.687965">
        <ele>1116.6</ele>
        <time>2018-08-19T16:27:13Z</time>
      </trkpt>
      <trkpt lat="-28.01097" lon="-65.687965">
        <ele>1116.7</ele>
        <time>2018-08-19T16:27:16Z</time>
      </trkpt>
      <trkpt lat="-28.01089" lon="-65.687985">
        <ele>1116.8</ele>
        <time>2018-08-19T16:27:18Z</time>
      </trkpt>
      <trkpt lat="-28.010815" lon="-65.687965">
        <ele>1118.3</ele>
        <time>2018-08-19T16:27:20Z</time>
      </trkpt>
      <trkpt lat="-28.01074" lon="-65.687985">
        <ele>1118.8</ele>
        <time>2018-08-19T16:27:22Z</time>
      </trkpt>
      <trkpt lat="-28.010625" lon="-65.687995">
        <ele>1118.7</ele>
        <time>2018-08-19T16:27:25Z</time>
      </trkpt>
      <trkpt lat="-28.010535" lon="-65.688">
        <ele>1118.5</ele>
        <time>2018-08-19T16:27:28Z</time>
      </trkpt>
      <trkpt lat="-28.010465" lon="-65.688">
        <ele>1118.4</ele>
        <time>2018-08-19T16:27:30Z</time>
      </trkpt>
      <trkpt lat="-28.01039" lon="-65.688">
        <ele>1118.4</ele>
        <time>2018-08-19T16:27:32Z</time>
      </trkpt>
      <trkpt lat="-28.010285" lon="-65.68799">
        <ele>1118.4</ele>
        <time>2018-08-19T16:27:35Z</time>
      </trkpt>
      <trkpt lat="-28.01021" lon="-65.687985">
        <ele>1118.5</ele>
        <time>2018-08-19T16:27:37Z</time>
      </trkpt>
      <trkpt lat="-28.010105" lon="-65.687965">
        <ele>1118.6</ele>
        <time>2018-08-19T16:27:40Z</time>
      </trkpt>
      <trkpt lat="-28.01" lon="-65.687965">
        <ele>1118.7</ele>
        <time>2018-08-19T16:27:43Z</time>
      </trkpt>
      <trkpt lat="-28.009895" lon="-65.687965">
        <ele>1118.8</ele>
        <time>2018-08-19T16:27:46Z</time>
      </trkpt>
      <trkpt lat="-28.009795" lon="-65.68796">
        <ele>1118.9</ele>
        <time>2018-08-19T16:27:49Z</time>
      </trkpt>
      <trkpt lat="-28.009705" lon="-65.687955">
        <ele>1119.0</ele>
        <time>2018-08-19T16:27:52Z</time>
      </trkpt>
      <trkpt lat="-28.009605" lon="-65.687945">
        <ele>1119.2</ele>
        <time>2018-08-19T16:27:55Z</time>
      </trkpt>
      <trkpt lat="-28.00952" lon="-65.687945">
        <ele>1119.3</ele>
        <time>2018-08-19T16:27:58Z</time>
      </trkpt>
      <trkpt lat="-28.00943" lon="-65.68792">
        <ele>1119.5</ele>
        <time>2018-08-19T16:28:01Z</time>
      </trkpt>
      <trkpt lat="-28.009345" lon="-65.68792">
        <ele>1119.6</ele>
        <time>2018-08-19T16:28:04Z</time>
      </trkpt>
      <trkpt lat="-28.00926" lon="-65.68792">
        <ele>1119.8</ele>
        <time>2018-08-19T16:28:07Z</time>
      </trkpt>
      <trkpt lat="-28.009185" lon="-65.68792">
        <ele>1119.9</ele>
        <time>2018-08-19T16:28:10Z</time>
      </trkpt>
      <trkpt lat="-28.009105" lon="-65.68792">
        <ele>1120.0</ele>
        <time>2018-08-19T16:28:13Z</time>
      </trkpt>
      <trkpt lat="-28.009035" lon="-65.687915">
        <ele>1120.2</ele>
        <time>2018-08-19T16:28:16Z</time>
      </trkpt>
      <trkpt lat="-28.008955" lon="-65.68791">
        <ele>1120.3</ele>
        <time>2018-08-19T16:28:19Z</time>
      </trkpt>
      <trkpt lat="-28.00888" lon="-65.687905">
        <ele>1120.5</ele>
        <time>2018-08-19T16:28:22Z</time>
      </trkpt>
      <trkpt lat="-28.0088" lon="-65.687905">
        <ele>1120.6</ele>
        <time>2018-08-19T16:28:25Z</time>
      </trkpt>
      <trkpt lat="-28.008725" lon="-65.6879">
        <ele>1120.8</ele>
        <time>2018-08-19T16:28:28Z</time>
      </trkpt>
      <trkpt lat="-28.00864" lon="-65.6879">
        <ele>1120.9</ele>
        <time>2018-08-19T16:28:31Z</time>
      </trkpt>
      <trkpt lat="-28.00856" lon="-65.68788">
        <ele>1121.1</ele>
        <time>2018-08-19T16:28:34Z</time>
      </trkpt>
      <trkpt lat="-28.00848" lon="-65.68788">
        <ele>1121.3</ele>
        <time>2018-08-19T16:28:37Z</time>
      </trkpt>
      <trkpt lat="-28.008395" lon="-65.68788">
        <ele>1121.5</ele>
        <time>2018-08-19T16:28:40Z</time>
      </trkpt>
      <trkpt lat="-28.008325" lon="-65.68788">
        <ele>1121.6</ele>
        <time>2018-08-19T16:28:43Z</time>
      </trkpt>
      <trkpt lat="-28.00825" lon="-65.68788">
        <ele>1121.8</ele>
        <time>2018-08-19T16:28:46Z</time>
      </trkpt>
      <trkpt lat="-28.008155" lon="-65.68787">
        <ele>1122.1</ele>
        <time>2018-08-19T16:28:50Z</time>
      </trkpt>
      <trkpt lat="-28.00806" lon="-65.68786">
        <ele>1122.3</ele>
        <time>2018-08-19T16:28:54Z</time>
      </trkpt>
      <trkpt lat="-28.00798" lon="-65.68786">
        <ele>1122.5</ele>
        <time>2018-08-19T16:28:57Z</time>
      </trkpt>
      <trkpt lat="-28.0079" lon="-65.68786">
        <ele>1122.7</ele>
        <time>2018-08-19T16:29:00Z</time>
      </trkpt>
      <trkpt lat="-28.007825" lon="-65.687855">
        <ele>1122.9</ele>
        <time>2018-08-19T16:29:03Z</time>
      </trkpt>
      <trkpt lat="-28.007755" lon="-65.68785">
        <ele>1123.1</ele>
        <time>2018-08-19T16:29:06Z</time>
      </trkpt>
      <trkpt lat="-28.00767" lon="-65.68785">
        <ele>1123.3</ele>
        <time>2018-08-19T16:29:09Z</time>
      </trkpt>
      <trkpt lat="-28.007585" lon="-65.687835">
        <ele>1123.6</ele>
        <time>2018-08-19T16:29:13Z</time>
      </trkpt>
      <trkpt lat="-28.00751" lon="-65.687835">
        <ele>1123.8</ele>
        <time>2018-08-19T16:29:16Z</time>
      </trkpt>
      <trkpt lat="-28.00741" lon="-65.687835">
        <ele>1124.1</ele>
        <time>2018-08-19T16:29:20Z</time>
      </trkpt>
      <trkpt lat="-28.00733" lon="-65.687835">
        <ele>1124.3</ele>
        <time>2018-08-19T16:29:23Z</time>
      </trkpt>
      <trkpt lat="-28.007255" lon="-65.687835">
        <ele>1124.5</ele>
        <time>2018-08-19T16:29:26Z</time>
      </trkpt>
      <trkpt lat="-28.00718" lon="-65.687835">
        <ele>1124.6</ele>
        <time>2018-08-19T16:29:29Z</time>
      </trkpt>
      <trkpt lat="-28.007095" lon="-65.687855">
        <ele>1125.1</ele>
        <time>2018-08-19T16:29:33Z</time>
      </trkpt>
      <trkpt lat="-28.007005" lon="-65.687855">
        <ele>1125.5</ele>
        <time>2018-08-19T16:29:36Z</time>
      </trkpt>
      <trkpt lat="-28.006925" lon="-65.68786">
        <ele>1125.8</ele>
        <time>2018-08-19T16:29:39Z</time>
      </trkpt>
      <trkpt lat="-28.00683" lon="-65.68786">
        <ele>1126.2</ele>
        <time>2018-08-19T16:29:42Z</time>
      </trkpt>
      <trkpt lat="-28.00675" lon="-65.68787">
        <ele>1126.7</ele>
        <time>2018-08-19T16:29:45Z</time>
      </trkpt>
      <trkpt lat="-28.006645" lon="-65.68788">
        <ele>1127.0</ele>
        <time>2018-08-19T16:29:48Z</time>
      </trkpt>
      <trkpt lat="-28.006555" lon="-65.687905">
        <ele>1127.2</ele>
        <time>2018-08-19T16:29:51Z</time>
      </trkpt>
      <trkpt lat="-28.00646" lon="-65.68792">
        <ele>1127.4</ele>
        <time>2018-08-19T16:29:54Z</time>
      </trkpt>
      <trkpt lat="-28.006355" lon="-65.68792">
        <ele>1127.7</ele>
        <time>2018-08-19T16:29:57Z</time>
      </trkpt>
      <trkpt lat="-28.00628" lon="-65.687955">
        <ele>1128.1</ele>
        <time>2018-08-19T16:30:00Z</time>
      </trkpt>
      <trkpt lat="-28.006185" lon="-65.687965">
        <ele>1128.5</ele>
        <time>2018-08-19T16:30:03Z</time>
      </trkpt>
      <trkpt lat="-28.00609" lon="-65.687995">
        <ele>1128.9</ele>
        <time>2018-08-19T16:30:06Z</time>
      </trkpt>
      <trkpt lat="-28.005995" lon="-65.688005">
        <ele>1129.2</ele>
        <time>2018-08-19T16:30:09Z</time>
      </trkpt>
      <trkpt lat="-28.005905" lon="-65.688045">
        <ele>1129.6</ele>
        <time>2018-08-19T16:30:12Z</time>
      </trkpt>
      <trkpt lat="-28.00583" lon="-65.68805">
        <ele>1130.0</ele>
        <time>2018-08-19T16:30:15Z</time>
      </trkpt>
      <trkpt lat="-28.00574" lon="-65.688085">
        <ele>1130.3</ele>
        <time>2018-08-19T16:30:18Z</time>
      </trkpt>
      <trkpt lat="-28.005655" lon="-65.688095">
        <ele>1130.5</ele>
        <time>2018-08-19T16:30:21Z</time>
      </trkpt>
      <trkpt lat="-28.00556" lon="-65.688135">
        <ele>1130.7</ele>
        <time>2018-08-19T16:30:24Z</time>
      </trkpt>
      <trkpt lat="-28.005485" lon="-65.68816">
        <ele>1130.8</ele>
        <time>2018-08-19T16:30:27Z</time>
      </trkpt>
      <trkpt lat="-28.005405" lon="-65.68819">
        <ele>1131.1</ele>
        <time>2018-08-19T16:30:30Z</time>
      </trkpt>
      <trkpt lat="-28.00532" lon="-65.688225">
        <ele>1131.4</ele>
        <time>2018-08-19T16:30:33Z</time>
      </trkpt>
      <trkpt lat="-28.005225" lon="-65.688255">
        <ele>1131.7</ele>
        <time>2018-08-19T16:30:37Z</time>
      </trkpt>
      <trkpt lat="-28.005155" lon="-65.688275">
        <ele>1132.0</ele>
        <time>2018-08-19T16:30:40Z</time>
      </trkpt>
      <trkpt lat="-28.00508" lon="-65.68831">
        <ele>1132.4</ele>
        <time>2018-08-19T16:30:43Z</time>
      </trkpt>
      <trkpt lat="-28.005005" lon="-65.68834">
        <ele>1132.6</ele>
        <time>2018-08-19T16:30:46Z</time>
      </trkpt>
      <trkpt lat="-28.00493" lon="-65.68836">
        <ele>1132.8</ele>
        <time>2018-08-19T16:30:49Z</time>
      </trkpt>
      <trkpt lat="-28.00486" lon="-65.688385">
        <ele>1133.1</ele>
        <time>2018-08-19T16:30:52Z</time>
      </trkpt>
      <trkpt lat="-28.00478" lon="-65.688415">
        <ele>1133.4</ele>
        <time>2018-08-19T16:30:55Z</time>
      </trkpt>
      <trkpt lat="-28.00471" lon="-65.688435">
        <ele>1133.7</ele>
        <time>2018-08-19T16:30:58Z</time>
      </trkpt>
      <trkpt lat="-28.004625" lon="-65.688455">
        <ele>1134.1</ele>
        <time>2018-08-19T16:31:02Z</time>
      </trkpt>
      <trkpt lat="-28.00454" lon="-65.68849">
        <ele>1134.5</ele>
        <time>2018-08-19T16:31:06Z</time>
      </trkpt>
      <trkpt lat="-28.004465" lon="-65.6885">
        <ele>1134.8</ele>
        <time>2018-08-19T16:31:09Z</time>
      </trkpt>
      <trkpt lat="-28.004375" lon="-65.688535">
        <ele>1135.2</ele>
        <time>2018-08-19T16:31:13Z</time>
      </trkpt>
      <trkpt lat="-28.004295" lon="-65.688565">
        <ele>1135.5</ele>
        <time>2018-08-19T16:31:17Z</time>
      </trkpt>
      <trkpt lat="-28.00421" lon="-65.688595">
        <ele>1135.7</ele>
        <time>2018-08-19T16:31:21Z</time>
      </trkpt>
      <trkpt lat="-28.00412" lon="-65.68863">
        <ele>1135.9</ele>
        <time>2018-08-19T16:31:25Z</time>
      </trkpt>
      <trkpt lat="-28.004035" lon="-65.68864">
        <ele>1136.1</ele>
        <time>2018-08-19T16:31:29Z</time>
      </trkpt>
      <trkpt lat="-28.00396" lon="-65.68868">
        <ele>1136.4</ele>
        <time>2018-08-19T16:31:33Z</time>
      </trkpt>
      <trkpt lat="-28.00388" lon="-65.688705">
        <ele>1136.8</ele>
        <time>2018-08-19T16:31:37Z</time>
      </trkpt>
      <trkpt lat="-28.0038" lon="-65.688725">
        <ele>1137.2</ele>
        <time>2018-08-19T16:31:41Z</time>
      </trkpt>
      <trkpt lat="-28.003715" lon="-65.688765">
        <ele>1137.6</ele>
        <time>2018-08-19T16:31:45Z</time>
      </trkpt>
      <trkpt lat="-28.003625" lon="-65.68879">
        <ele>1137.9</ele>
        <time>2018-08-19T16:31:49Z</time>
      </trkpt>
      <trkpt lat="-28.00354" lon="-65.68882">
        <ele>1138.2</ele>
        <time>2018-08-19T16:31:53Z</time>
      </trkpt>
      <trkpt lat="-28.003445" lon="-65.688845">
        <ele>1138.5</ele>
        <time>2018-08-19T16:31:57Z</time>
      </trkpt>
      <trkpt lat="-28.003365" lon="-65.688865">
        <ele>1138.9</ele>
        <time>2018-08-19T16:32:01Z</time>
      </trkpt>
      <trkpt lat="-28.003275" lon="-65.688905">
        <ele>1139.3</ele>
        <time>2018-08-19T16:32:05Z</time>
      </trkpt>
      <trkpt lat="-28.0032" lon="-65.68893">
        <ele>1139.5</ele>
        <time>2018-08-19T16:32:08Z</time>
      </trkpt>
      <trkpt lat="-28.003115" lon="-65.68895">
        <ele>1139.9</ele>
        <time>2018-08-19T16:32:12Z</time>
      </trkpt>
      <trkpt lat="-28.00304" lon="-65.68899">
        <ele>1140.2</ele>
        <time>2018-08-19T16:32:15Z</time>
      </trkpt>
      <trkpt lat="-28.002955" lon="-65.689015">
        <ele>1140.4</ele>
        <time>2018-08-19T16:32:18Z</time>
      </trkpt>
      <trkpt lat="-28.002865" lon="-65.689035">
        <ele>1140.7</ele>
        <time>2018-08-19T16:32:21Z</time>
      </trkpt>
      <trkpt lat="-28.002785" lon="-65.68907">
        <ele>1140.9</ele>
        <time>2018-08-19T16:32:24Z</time>
      </trkpt>
      <trkpt lat="-28.00271" lon="-65.68907166666666">
        <ele>1141.1</ele>
        <time>2018-08-19T16:32:27Z</time>
      </trkpt>
      <trkpt lat="-28.00263" lon="-65.68912">
        <ele>1141.3</ele>
        <time>2018-08-19T16:32:30Z</time>
      </trkpt>
      <trkpt lat="-28.00254" lon="-65.689145">
        <ele>1141.5</ele>
        <time>2018-08-19T16:32:33Z</time>
      </trkpt>
      <trkpt lat="-28.00245" lon="-65.689175">
        <ele>1141.6</ele>
        <time>2018-08-19T16:32:36Z</time>
      </trkpt>
      <trkpt lat="-28.00238" lon="-65.689205">
        <ele>1141.8</ele>
        <time>2018-08-19T16:32:38Z</time>
      </trkpt>
      <trkpt lat="-28.002285" lon="-65.689215">
        <ele>1142.0</ele>
        <time>2018-08-19T16:32:41Z</time>
      </trkpt>
      <trkpt lat="-28.0022" lon="-65.68926">
        <ele>1142.1</ele>
        <time>2018-08-19T16:32:44Z</time>
      </trkpt>
      <trkpt lat="-28.0021" lon="-65.689295">
        <ele>1142.3</ele>
        <time>2018-08-19T16:32:47Z</time>
      </trkpt>
      <trkpt lat="-28.002005" lon="-65.68929833333334">
        <ele>1142.3</ele>
        <time>2018-08-19T16:32:50Z</time>
      </trkpt>
      <trkpt lat="-28.001905" lon="-65.689355">
        <ele>1142.5</ele>
        <time>2018-08-19T16:32:53Z</time>
      </trkpt>
      <trkpt lat="-28.00181" lon="-65.68938">
        <ele>1142.6</ele>
        <time>2018-08-19T16:32:56Z</time>
      </trkpt>
      <trkpt lat="-28.001745" lon="-65.6894">
        <ele>1142.6</ele>
        <time>2018-08-19T16:32:58Z</time>
      </trkpt>
      <trkpt lat="-28.00167" lon="-65.68944">
        <ele>1142.7</ele>
        <time>2018-08-19T16:33:00Z</time>
      </trkpt>
      <trkpt lat="-28.00157" lon="-65.689465">
        <ele>1142.8</ele>
        <time>2018-08-19T16:33:03Z</time>
      </trkpt>
      <trkpt lat="-28.001465" lon="-65.689485">
        <ele>1142.9</ele>
        <time>2018-08-19T16:33:06Z</time>
      </trkpt>
      <trkpt lat="-28.00137" lon="-65.689525">
        <ele>1143.1</ele>
        <time>2018-08-19T16:33:09Z</time>
      </trkpt>
      <trkpt lat="-28.0013" lon="-65.68955">
        <ele>1143.9</ele>
        <time>2018-08-19T16:33:11Z</time>
      </trkpt>
      <trkpt lat="-28.001225" lon="-65.68957">
        <ele>1144.2</ele>
        <time>2018-08-19T16:33:13Z</time>
      </trkpt>
      <trkpt lat="-28.00115" lon="-65.689595">
        <ele>1144.1</ele>
        <time>2018-08-19T16:33:15Z</time>
      </trkpt>
      <trkpt lat="-28.001075" lon="-65.689615">
        <ele>1144.1</ele>
        <time>2018-08-19T16:33:17Z</time>
      </trkpt>
      <trkpt lat="-28.001" lon="-65.689625">
        <ele>1144.3</ele>
        <time>2018-08-19T16:33:19Z</time>
      </trkpt>
      <trkpt lat="-28.000925" lon="-65.689655">
        <ele>1144.4</ele>
        <time>2018-08-19T16:33:21Z</time>
      </trkpt>
      <trkpt lat="-28.00085" lon="-65.689665">
        <ele>1144.3</ele>
        <time>2018-08-19T16:33:23Z</time>
      </trkpt>
      <trkpt lat="-28.00077" lon="-65.68969">
        <ele>1144.3</ele>
        <time>2018-08-19T16:33:25Z</time>
      </trkpt>
      <trkpt lat="-28.000685" lon="-65.68971">
        <ele>1144.2</ele>
        <time>2018-08-19T16:33:27Z</time>
      </trkpt>
      <trkpt lat="-28.000605" lon="-65.68973">
        <ele>1144.1</ele>
        <time>2018-08-19T16:33:29Z</time>
      </trkpt>
      <trkpt lat="-28.000525" lon="-65.68975">
        <ele>1144.3</ele>
        <time>2018-08-19T16:33:31Z</time>
      </trkpt>
      <trkpt lat="-28.000445" lon="-65.68975">
        <ele>1144.5</ele>
        <time>2018-08-19T16:33:33Z</time>
      </trkpt>
      <trkpt lat="-28.00037" lon="-65.689785">
        <ele>1144.7</ele>
        <time>2018-08-19T16:33:35Z</time>
      </trkpt>
      <trkpt lat="-28.00029" lon="-65.689795">
        <ele>1144.8</ele>
        <time>2018-08-19T16:33:37Z</time>
      </trkpt>
      <trkpt lat="-28.00022" lon="-65.689805">
        <ele>1144.8</ele>
        <time>2018-08-19T16:33:39Z</time>
      </trkpt>
      <trkpt lat="-28.000135" lon="-65.68983">
        <ele>1144.7</ele>
        <time>2018-08-19T16:33:41Z</time>
      </trkpt>
      <trkpt lat="-28.000055" lon="-65.68985">
        <ele>1144.7</ele>
        <time>2018-08-19T16:33:43Z</time>
      </trkpt>
      <trkpt lat="-27.99998" lon="-65.68985">
        <ele>1144.7</ele>
        <time>2018-08-19T16:33:45Z</time>
      </trkpt>
      <trkpt lat="-27.9999" lon="-65.68987">
        <ele>1144.7</ele>
        <time>2018-08-19T16:33:47Z</time>
      </trkpt>
      <trkpt lat="-27.99981" lon="-65.689885">
        <ele>1144.7</ele>
        <time>2018-08-19T16:33:49Z</time>
      </trkpt>
      <trkpt lat="-27.99974" lon="-65.68989">
        <ele>1144.9</ele>
        <time>2018-08-19T16:33:51Z</time>
      </trkpt>
      <trkpt lat="-27.999665" lon="-65.68989">
        <ele>1144.9</ele>
        <time>2018-08-19T16:33:53Z</time>
      </trkpt>
      <trkpt lat="-27.999585" lon="-65.68989">
        <ele>1145.0</ele>
        <time>2018-08-19T16:33:55Z</time>
      </trkpt>
      <trkpt lat="-27.99952" lon="-65.689915">
        <ele>1145.0</ele>
        <time>2018-08-19T16:33:57Z</time>
      </trkpt>
      <trkpt lat="-27.999415" lon="-65.689935">
        <ele>1145.0</ele>
        <time>2018-08-19T16:34:00Z</time>
      </trkpt>
      <trkpt lat="-27.999315" lon="-65.689935">
        <ele>1145.1</ele>
        <time>2018-08-19T16:34:03Z</time>
      </trkpt>
      <trkpt lat="-27.99922" lon="-65.68996">
        <ele>1145.1</ele>
        <time>2018-08-19T16:34:06Z</time>
      </trkpt>
      <trkpt lat="-27.999125" lon="-65.689975">
        <ele>1145.3</ele>
        <time>2018-08-19T16:34:09Z</time>
      </trkpt>
      <trkpt lat="-27.99904" lon="-65.689975">
        <ele>1145.3</ele>
        <time>2018-08-19T16:34:12Z</time>
      </trkpt>
      <trkpt lat="-27.998945" lon="-65.69">
        <ele>1145.3</ele>
        <time>2018-08-19T16:34:15Z</time>
      </trkpt>
      <trkpt lat="-27.99886" lon="-65.69001">
        <ele>1145.4</ele>
        <time>2018-08-19T16:34:18Z</time>
      </trkpt>
      <trkpt lat="-27.99877" lon="-65.690015">
        <ele>1145.6</ele>
        <time>2018-08-19T16:34:21Z</time>
      </trkpt>
      <trkpt lat="-27.99869" lon="-65.69002">
        <ele>1145.7</ele>
        <time>2018-08-19T16:34:24Z</time>
      </trkpt>
      <trkpt lat="-27.9986" lon="-65.69002">
        <ele>1145.9</ele>
        <time>2018-08-19T16:34:27Z</time>
      </trkpt>
      <trkpt lat="-27.99851" lon="-65.69002">
        <ele>1146.0</ele>
        <time>2018-08-19T16:34:30Z</time>
      </trkpt>
      <trkpt lat="-27.998425" lon="-65.69005">
        <ele>1146.3</ele>
        <time>2018-08-19T16:34:33Z</time>
      </trkpt>
      <trkpt lat="-27.998345" lon="-65.690055">
        <ele>1146.4</ele>
        <time>2018-08-19T16:34:36Z</time>
      </trkpt>
      <trkpt lat="-27.998255" lon="-65.690055">
        <ele>1146.5</ele>
        <time>2018-08-19T16:34:39Z</time>
      </trkpt>
      <trkpt lat="-27.998175" lon="-65.690055">
        <ele>1146.7</ele>
        <time>2018-08-19T16:34:42Z</time>
      </trkpt>
      <trkpt lat="-27.998095" lon="-65.69005833333334">
        <ele>1146.8</ele>
        <time>2018-08-19T16:34:45Z</time>
      </trkpt>
      <trkpt lat="-27.99801" lon="-65.690085">
        <ele>1146.9</ele>
        <time>2018-08-19T16:34:48Z</time>
      </trkpt>
      <trkpt lat="-27.99793" lon="-65.6901">
        <ele>1147.1</ele>
        <time>2018-08-19T16:34:51Z</time>
      </trkpt>
      <trkpt lat="-27.99785" lon="-65.690105">
        <ele>1147.3</ele>
        <time>2018-08-19T16:34:54Z</time>
      </trkpt>
      <trkpt lat="-27.99777" lon="-65.690115">
        <ele>1147.4</ele>
        <time>2018-08-19T16:34:57Z</time>
      </trkpt>
      <trkpt lat="-27.997695" lon="-65.690115">
        <ele>1147.6</ele>
        <time>2018-08-19T16:35:00Z</time>
      </trkpt>
      <trkpt lat="-27.997615" lon="-65.69013">
        <ele>1147.8</ele>
        <time>2018-08-19T16:35:03Z</time>
      </trkpt>
      <trkpt lat="-27.99753" lon="-65.69014">
        <ele>1148.0</ele>
        <time>2018-08-19T16:35:06Z</time>
      </trkpt>
      <trkpt lat="-27.99746" lon="-65.69015">
        <ele>1148.1</ele>
        <time>2018-08-19T16:35:09Z</time>
      </trkpt>
      <trkpt lat="-27.99737" lon="-65.69015">
        <ele>1148.3</ele>
        <time>2018-08-19T16:35:12Z</time>
      </trkpt>
      <trkpt lat="-27.997285" lon="-65.69016">
        <ele>1148.4</ele>
        <time>2018-08-19T16:35:15Z</time>
      </trkpt>
      <trkpt lat="-27.9972" lon="-65.69016">
        <ele>1148.7</ele>
        <time>2018-08-19T16:35:18Z</time>
      </trkpt>
      <trkpt lat="-27.997115" lon="-65.690185">
        <ele>1149.0</ele>
        <time>2018-08-19T16:35:21Z</time>
      </trkpt>
      <trkpt lat="-27.997035" lon="-65.690195">
        <ele>1149.2</ele>
        <time>2018-08-19T16:35:24Z</time>
      </trkpt>
      <trkpt lat="-27.99694" lon="-65.6902">
        <ele>1149.5</ele>
        <time>2018-08-19T16:35:27Z</time>
      </trkpt>
      <trkpt lat="-27.996845" lon="-65.6902">
        <ele>1149.7</ele>
        <time>2018-08-19T16:35:30Z</time>
      </trkpt>
      <trkpt lat="-27.996735" lon="-65.6902">
        <ele>1149.9</ele>
        <time>2018-08-19T16:35:33Z</time>
      </trkpt>
      <trkpt lat="-27.99665" lon="-65.690225">
        <ele>1150.1</ele>
        <time>2018-08-19T16:35:36Z</time>
      </trkpt>
      <trkpt lat="-27.996545" lon="-65.69024">
        <ele>1150.3</ele>
        <time>2018-08-19T16:35:39Z</time>
      </trkpt>
      <trkpt lat="-27.996455" lon="-65.690245">
        <ele>1150.5</ele>
        <time>2018-08-19T16:35:42Z</time>
      </trkpt>
      <trkpt lat="-27.996355" lon="-65.690245">
        <ele>1150.7</ele>
        <time>2018-08-19T16:35:45Z</time>
      </trkpt>
      <trkpt lat="-27.99625" lon="-65.69027">
        <ele>1151.0</ele>
        <time>2018-08-19T16:35:48Z</time>
      </trkpt>
      <trkpt lat="-27.996145" lon="-65.69028">
        <ele>1151.2</ele>
        <time>2018-08-19T16:35:51Z</time>
      </trkpt>
      <trkpt lat="-27.996035" lon="-65.69028">
        <ele>1151.4</ele>
        <time>2018-08-19T16:35:54Z</time>
      </trkpt>
      <trkpt lat="-27.995964999999998" lon="-65.69028">
        <ele>1151.5</ele>
        <time>2018-08-19T16:35:56Z</time>
      </trkpt>
      <trkpt lat="-27.995895" lon="-65.69031">
        <ele>1151.6</ele>
        <time>2018-08-19T16:35:58Z</time>
      </trkpt>
      <trkpt lat="-27.99582" lon="-65.69031">
        <ele>1151.7</ele>
        <time>2018-08-19T16:36:00Z</time>
      </trkpt>
      <trkpt lat="-27.995745" lon="-65.690325">
        <ele>1152.3</ele>
        <time>2018-08-19T16:36:02Z</time>
      </trkpt>
      <trkpt lat="-27.99567" lon="-65.69033">
        <ele>1152.7</ele>
        <time>2018-08-19T16:36:04Z</time>
      </trkpt>
      <trkpt lat="-27.995595" lon="-65.69034">
        <ele>1153.6</ele>
        <time>2018-08-19T16:36:06Z</time>
      </trkpt>
      <trkpt lat="-27.995515" lon="-65.69034">
        <ele>1153.7</ele>
        <time>2018-08-19T16:36:08Z</time>
      </trkpt>
      <trkpt lat="-27.995445" lon="-65.690355">
        <ele>1154.0</ele>
        <time>2018-08-19T16:36:10Z</time>
      </trkpt>
      <trkpt lat="-27.99537" lon="-65.690365">
        <ele>1154.0</ele>
        <time>2018-08-19T16:36:12Z</time>
      </trkpt>
      <trkpt lat="-27.995295" lon="-65.690375">
        <ele>1154.1</ele>
        <time>2018-08-19T16:36:14Z</time>
      </trkpt>
      <trkpt lat="-27.99522" lon="-65.690385">
        <ele>1154.4</ele>
        <time>2018-08-19T16:36:16Z</time>
      </trkpt>
      <trkpt lat="-27.995145" lon="-65.690385">
        <ele>1154.8</ele>
        <time>2018-08-19T16:36:18Z</time>
      </trkpt>
      <trkpt lat="-27.99507" lon="-65.690415">
        <ele>1155.1</ele>
        <time>2018-08-19T16:36:20Z</time>
      </trkpt>
      <trkpt lat="-27.99499" lon="-65.690425">
        <ele>1155.4</ele>
        <time>2018-08-19T16:36:22Z</time>
      </trkpt>
      <trkpt lat="-27.994915" lon="-65.690425">
        <ele>1155.7</ele>
        <time>2018-08-19T16:36:24Z</time>
      </trkpt>
      <trkpt lat="-27.99484" lon="-65.690465">
        <ele>1156.2</ele>
        <time>2018-08-19T16:36:26Z</time>
      </trkpt>
      <trkpt lat="-27.994755" lon="-65.69047">
        <ele>1156.4</ele>
        <time>2018-08-19T16:36:28Z</time>
      </trkpt>
      <trkpt lat="-27.994675" lon="-65.690495">
        <ele>1156.5</ele>
        <time>2018-08-19T16:36:30Z</time>
      </trkpt>
      <trkpt lat="-27.99459" lon="-65.69051">
        <ele>1156.2</ele>
        <time>2018-08-19T16:36:32Z</time>
      </trkpt>
      <trkpt lat="-27.994505" lon="-65.69051">
        <ele>1155.8</ele>
        <time>2018-08-19T16:36:34Z</time>
      </trkpt>
      <trkpt lat="-27.994425" lon="-65.69055">
        <ele>1155.4</ele>
        <time>2018-08-19T16:36:36Z</time>
      </trkpt>
      <trkpt lat="-27.99435" lon="-65.690565">
        <ele>1155.2</ele>
        <time>2018-08-19T16:36:38Z</time>
      </trkpt>
      <trkpt lat="-27.994275000000002" lon="-65.6906">
        <ele>1155.4</ele>
        <time>2018-08-19T16:36:40Z</time>
      </trkpt>
      <trkpt lat="-27.994195" lon="-65.69061">
        <ele>1155.3</ele>
        <time>2018-08-19T16:36:42Z</time>
      </trkpt>
      <trkpt lat="-27.99412" lon="-65.690645">
        <ele>1155.2</ele>
        <time>2018-08-19T16:36:44Z</time>
      </trkpt>
      <trkpt lat="-27.994035" lon="-65.69065">
        <ele>1154.9</ele>
        <time>2018-08-19T16:36:46Z</time>
      </trkpt>
      <trkpt lat="-27.993955" lon="-65.690695">
        <ele>1154.8</ele>
        <time>2018-08-19T16:36:48Z</time>
      </trkpt>
      <trkpt lat="-27.993875" lon="-65.69072">
        <ele>1154.9</ele>
        <time>2018-08-19T16:36:50Z</time>
      </trkpt>
      <trkpt lat="-27.99378" lon="-65.690735">
        <ele>1154.8</ele>
        <time>2018-08-19T16:36:52Z</time>
      </trkpt>
      <trkpt lat="-27.99371" lon="-65.69077">
        <ele>1154.1</ele>
        <time>2018-08-19T16:36:54Z</time>
      </trkpt>
      <trkpt lat="-27.99363" lon="-65.69079">
        <ele>1154.2</ele>
        <time>2018-08-19T16:36:56Z</time>
      </trkpt>
      <trkpt lat="-27.993555" lon="-65.69081">
        <ele>1154.8</ele>
        <time>2018-08-19T16:36:58Z</time>
      </trkpt>
      <trkpt lat="-27.993475" lon="-65.690825">
        <ele>1155.3</ele>
        <time>2018-08-19T16:37:00Z</time>
      </trkpt>
      <trkpt lat="-27.993395" lon="-65.690835">
        <ele>1155.2</ele>
        <time>2018-08-19T16:37:02Z</time>
      </trkpt>
      <trkpt lat="-27.993315" lon="-65.690855">
        <ele>1155.1</ele>
        <time>2018-08-19T16:37:04Z</time>
      </trkpt>
      <trkpt lat="-27.99324" lon="-65.690865">
        <ele>1155.2</ele>
        <time>2018-08-19T16:37:06Z</time>
      </trkpt>
      <trkpt lat="-27.993155" lon="-65.69087">
        <ele>1155.6</ele>
        <time>2018-08-19T16:37:08Z</time>
      </trkpt>
      <trkpt lat="-27.99306" lon="-65.690875">
        <ele>1156.8</ele>
        <time>2018-08-19T16:37:10Z</time>
      </trkpt>
      <trkpt lat="-27.992985" lon="-65.690875">
        <ele>1156.9</ele>
        <time>2018-08-19T16:37:12Z</time>
      </trkpt>
      <trkpt lat="-27.992915" lon="-65.690875">
        <ele>1157.0</ele>
        <time>2018-08-19T16:37:14Z</time>
      </trkpt>
      <trkpt lat="-27.992815" lon="-65.690875">
        <ele>1157.2</ele>
        <time>2018-08-19T16:37:17Z</time>
      </trkpt>
      <trkpt lat="-27.992715" lon="-65.690875">
        <ele>1157.2</ele>
        <time>2018-08-19T16:37:20Z</time>
      </trkpt>
      <trkpt lat="-27.99262" lon="-65.690875">
        <ele>1157.4</ele>
        <time>2018-08-19T16:37:23Z</time>
      </trkpt>
      <trkpt lat="-27.99252" lon="-65.690875">
        <ele>1157.5</ele>
        <time>2018-08-19T16:37:26Z</time>
      </trkpt>
      <trkpt lat="-27.992415" lon="-65.690875">
        <ele>1157.7</ele>
        <time>2018-08-19T16:37:29Z</time>
      </trkpt>
      <trkpt lat="-27.99234" lon="-65.690875">
        <ele>1157.8</ele>
        <time>2018-08-19T16:37:32Z</time>
      </trkpt>
      <trkpt lat="-27.99224" lon="-65.690875">
        <ele>1157.9</ele>
        <time>2018-08-19T16:37:35Z</time>
      </trkpt>
      <trkpt lat="-27.99214" lon="-65.690875">
        <ele>1157.9</ele>
        <time>2018-08-19T16:37:38Z</time>
      </trkpt>
      <trkpt lat="-27.99205" lon="-65.690875">
        <ele>1158.0</ele>
        <time>2018-08-19T16:37:41Z</time>
      </trkpt>
      <trkpt lat="-27.99195" lon="-65.690875">
        <ele>1158.2</ele>
        <time>2018-08-19T16:37:44Z</time>
      </trkpt>
      <trkpt lat="-27.99185" lon="-65.690875">
        <ele>1158.4</ele>
        <time>2018-08-19T16:37:47Z</time>
      </trkpt>
      <trkpt lat="-27.99175" lon="-65.69087">
        <ele>1158.5</ele>
        <time>2018-08-19T16:37:50Z</time>
      </trkpt>
      <trkpt lat="-27.991655" lon="-65.69087">
        <ele>1158.6</ele>
        <time>2018-08-19T16:37:53Z</time>
      </trkpt>
      <trkpt lat="-27.99156" lon="-65.690865">
        <ele>1158.8</ele>
        <time>2018-08-19T16:37:56Z</time>
      </trkpt>
      <trkpt lat="-27.99146" lon="-65.690865">
        <ele>1158.9</ele>
        <time>2018-08-19T16:37:59Z</time>
      </trkpt>
      <trkpt lat="-27.99137" lon="-65.69086">
        <ele>1159.0</ele>
        <time>2018-08-19T16:38:02Z</time>
      </trkpt>
      <trkpt lat="-27.99128" lon="-65.69086">
        <ele>1159.1</ele>
        <time>2018-08-19T16:38:05Z</time>
      </trkpt>
      <trkpt lat="-27.991185" lon="-65.690855">
        <ele>1159.1</ele>
        <time>2018-08-19T16:38:08Z</time>
      </trkpt>
      <trkpt lat="-27.99109" lon="-65.690835">
        <ele>1159.3</ele>
        <time>2018-08-19T16:38:11Z</time>
      </trkpt>
      <trkpt lat="-27.990995" lon="-65.690835">
        <ele>1159.5</ele>
        <time>2018-08-19T16:38:14Z</time>
      </trkpt>
      <trkpt lat="-27.99091" lon="-65.690835">
        <ele>1159.5</ele>
        <time>2018-08-19T16:38:17Z</time>
      </trkpt>
      <trkpt lat="-27.99081" lon="-65.690835">
        <ele>1159.4</ele>
        <time>2018-08-19T16:38:20Z</time>
      </trkpt>
      <trkpt lat="-27.99071" lon="-65.690835">
        <ele>1159.3</ele>
        <time>2018-08-19T16:38:23Z</time>
      </trkpt>
      <trkpt lat="-27.99062" lon="-65.690835">
        <ele>1159.3</ele>
        <time>2018-08-19T16:38:26Z</time>
      </trkpt>
      <trkpt lat="-27.99053" lon="-65.690825">
        <ele>1159.5</ele>
        <time>2018-08-19T16:38:29Z</time>
      </trkpt>
      <trkpt lat="-27.99044" lon="-65.690825">
        <ele>1159.7</ele>
        <time>2018-08-19T16:38:32Z</time>
      </trkpt>
      <trkpt lat="-27.99034" lon="-65.690815">
        <ele>1159.9</ele>
        <time>2018-08-19T16:38:35Z</time>
      </trkpt>
      <trkpt lat="-27.99024" lon="-65.690825">
        <ele>1160.0</ele>
        <time>2018-08-19T16:38:38Z</time>
      </trkpt>
      <trkpt lat="-27.990165" lon="-65.690825">
        <ele>1160.0</ele>
        <time>2018-08-19T16:38:40Z</time>
      </trkpt>
      <trkpt lat="-27.99009" lon="-65.690825">
        <ele>1160.1</ele>
        <time>2018-08-19T16:38:42Z</time>
      </trkpt>
      <trkpt lat="-27.98999" lon="-65.690825">
        <ele>1160.2</ele>
        <time>2018-08-19T16:38:45Z</time>
      </trkpt>
      <trkpt lat="-27.989915" lon="-65.690835">
        <ele>1160.3</ele>
        <time>2018-08-19T16:38:47Z</time>
      </trkpt>
      <trkpt lat="-27.98984" lon="-65.690835">
        <ele>1160.3</ele>
        <time>2018-08-19T16:38:49Z</time>
      </trkpt>
      <trkpt lat="-27.989765" lon="-65.690835">
        <ele>1160.8</ele>
        <time>2018-08-19T16:38:51Z</time>
      </trkpt>
      <trkpt lat="-27.98969" lon="-65.690835">
        <ele>1160.9</ele>
        <time>2018-08-19T16:38:53Z</time>
      </trkpt>
      <trkpt lat="-27.98958" lon="-65.690865">
        <ele>1161.0</ele>
        <time>2018-08-19T16:38:56Z</time>
      </trkpt>
      <trkpt lat="-27.98948" lon="-65.690875">
        <ele>1161.0</ele>
        <time>2018-08-19T16:38:59Z</time>
      </trkpt>
      <trkpt lat="-27.989405" lon="-65.690875">
        <ele>1161.3</ele>
        <time>2018-08-19T16:39:01Z</time>
      </trkpt>
      <trkpt lat="-27.98932" lon="-65.69091">
        <ele>1161.5</ele>
        <time>2018-08-19T16:39:03Z</time>
      </trkpt>
      <trkpt lat="-27.989245" lon="-65.69092">
        <ele>1161.6</ele>
        <time>2018-08-19T16:39:05Z</time>
      </trkpt>
      <trkpt lat="-27.989165" lon="-65.69094">
        <ele>1161.8</ele>
        <time>2018-08-19T16:39:07Z</time>
      </trkpt>
      <trkpt lat="-27.989085" lon="-65.69096">
        <ele>1162.1</ele>
        <time>2018-08-19T16:39:09Z</time>
      </trkpt>
      <trkpt lat="-27.98901" lon="-65.69096">
        <ele>1162.3</ele>
        <time>2018-08-19T16:39:11Z</time>
      </trkpt>
      <trkpt lat="-27.98893" lon="-65.691005">
        <ele>1162.5</ele>
        <time>2018-08-19T16:39:13Z</time>
      </trkpt>
      <trkpt lat="-27.98885" lon="-65.691005">
        <ele>1162.7</ele>
        <time>2018-08-19T16:39:15Z</time>
      </trkpt>
      <trkpt lat="-27.98877" lon="-65.69104">
        <ele>1162.7</ele>
        <time>2018-08-19T16:39:17Z</time>
      </trkpt>
      <trkpt lat="-27.98869" lon="-65.691085">
        <ele>1162.7</ele>
        <time>2018-08-19T16:39:19Z</time>
      </trkpt>
      <trkpt lat="-27.98861" lon="-65.691115">
        <ele>1162.5</ele>
        <time>2018-08-19T16:39:21Z</time>
      </trkpt>
      <trkpt lat="-27.988525" lon="-65.691145">
        <ele>1162.3</ele>
        <time>2018-08-19T16:39:23Z</time>
      </trkpt>
      <trkpt lat="-27.98845" lon="-65.691185">
        <ele>1162.2</ele>
        <time>2018-08-19T16:39:25Z</time>
      </trkpt>
      <trkpt lat="-27.98837" lon="-65.69121">
        <ele>1162.2</ele>
        <time>2018-08-19T16:39:27Z</time>
      </trkpt>
      <trkpt lat="-27.988285" lon="-65.69125">
        <ele>1162.2</ele>
        <time>2018-08-19T16:39:29Z</time>
      </trkpt>
      <trkpt lat="-27.988215" lon="-65.691265">
        <ele>1162.2</ele>
        <time>2018-08-19T16:39:31Z</time>
      </trkpt>
      <trkpt lat="-27.988145" lon="-65.691315">
        <ele>1162.1</ele>
        <time>2018-08-19T16:39:33Z</time>
      </trkpt>
      <trkpt lat="-27.98807" lon="-65.69136">
        <ele>1161.1</ele>
        <time>2018-08-19T16:39:35Z</time>
      </trkpt>
      <trkpt lat="-27.98799" lon="-65.691395">
        <ele>1160.2</ele>
        <time>2018-08-19T16:39:37Z</time>
      </trkpt>
      <trkpt lat="-27.98792" lon="-65.69141">
        <ele>1159.5</ele>
        <time>2018-08-19T16:39:39Z</time>
      </trkpt>
      <trkpt lat="-27.98785" lon="-65.691455">
        <ele>1159.6</ele>
        <time>2018-08-19T16:39:41Z</time>
      </trkpt>
      <trkpt lat="-27.98778" lon="-65.69149">
        <ele>1159.6</ele>
        <time>2018-08-19T16:39:43Z</time>
      </trkpt>
      <trkpt lat="-27.98771" lon="-65.69152">
        <ele>1159.7</ele>
        <time>2018-08-19T16:39:45Z</time>
      </trkpt>
      <trkpt lat="-27.98764" lon="-65.69155">
        <ele>1159.9</ele>
        <time>2018-08-19T16:39:47Z</time>
      </trkpt>
      <trkpt lat="-27.98754" lon="-65.691595">
        <ele>1160.0</ele>
        <time>2018-08-19T16:39:50Z</time>
      </trkpt>
      <trkpt lat="-27.987465" lon="-65.691635">
        <ele>1160.2</ele>
        <time>2018-08-19T16:39:52Z</time>
      </trkpt>
      <trkpt lat="-27.987395" lon="-65.69166">
        <ele>1160.3</ele>
        <time>2018-08-19T16:39:54Z</time>
      </trkpt>
      <trkpt lat="-27.987295" lon="-65.691715">
        <ele>1161.0</ele>
        <time>2018-08-19T16:39:57Z</time>
      </trkpt>
      <trkpt lat="-27.987225" lon="-65.691745">
        <ele>1161.8</ele>
        <time>2018-08-19T16:39:59Z</time>
      </trkpt>
      <trkpt lat="-27.987125" lon="-65.69179">
        <ele>1162.0</ele>
        <time>2018-08-19T16:40:02Z</time>
      </trkpt>
      <trkpt lat="-27.987025" lon="-65.69182">
        <ele>1162.3</ele>
        <time>2018-08-19T16:40:05Z</time>
      </trkpt>
      <trkpt lat="-27.986925" lon="-65.69186">
        <ele>1162.6</ele>
        <time>2018-08-19T16:40:08Z</time>
      </trkpt>
      <trkpt lat="-27.98683" lon="-65.691905">
        <ele>1162.9</ele>
        <time>2018-08-19T16:40:11Z</time>
      </trkpt>
      <trkpt lat="-27.986735" lon="-65.691945">
        <ele>1163.2</ele>
        <time>2018-08-19T16:40:14Z</time>
      </trkpt>
      <trkpt lat="-27.98666" lon="-65.69199">
        <ele>1163.4</ele>
        <time>2018-08-19T16:40:16Z</time>
      </trkpt>
      <trkpt lat="-27.986565" lon="-65.692025">
        <ele>1163.9</ele>
        <time>2018-08-19T16:40:19Z</time>
      </trkpt>
      <trkpt lat="-27.98648" lon="-65.692075">
        <ele>1164.0</ele>
        <time>2018-08-19T16:40:22Z</time>
      </trkpt>
      <trkpt lat="-27.986385" lon="-65.69212">
        <ele>1164.2</ele>
        <time>2018-08-19T16:40:25Z</time>
      </trkpt>
      <trkpt lat="-27.9863" lon="-65.692165">
        <ele>1164.4</ele>
        <time>2018-08-19T16:40:28Z</time>
      </trkpt>
      <trkpt lat="-27.98623" lon="-65.692195">
        <ele>1164.5</ele>
        <time>2018-08-19T16:40:30Z</time>
      </trkpt>
      <trkpt lat="-27.98613" lon="-65.692245">
        <ele>1164.7</ele>
        <time>2018-08-19T16:40:33Z</time>
      </trkpt>
      <trkpt lat="-27.98602" lon="-65.69228">
        <ele>1165.0</ele>
        <time>2018-08-19T16:40:36Z</time>
      </trkpt>
      <trkpt lat="-27.98595" lon="-65.69231">
        <ele>1165.2</ele>
        <time>2018-08-19T16:40:38Z</time>
      </trkpt>
      <trkpt lat="-27.985855" lon="-65.692355">
        <ele>1165.5</ele>
        <time>2018-08-19T16:40:41Z</time>
      </trkpt>
      <trkpt lat="-27.98576" lon="-65.692395">
        <ele>1165.8</ele>
        <time>2018-08-19T16:40:44Z</time>
      </trkpt>
      <trkpt lat="-27.985665" lon="-65.69244">
        <ele>1166.1</ele>
        <time>2018-08-19T16:40:47Z</time>
      </trkpt>
      <trkpt lat="-27.98557" lon="-65.69248">
        <ele>1166.4</ele>
        <time>2018-08-19T16:40:50Z</time>
      </trkpt>
      <trkpt lat="-27.98548" lon="-65.692525">
        <ele>1166.5</ele>
        <time>2018-08-19T16:40:53Z</time>
      </trkpt>
      <trkpt lat="-27.98538" lon="-65.69257">
        <ele>1166.7</ele>
        <time>2018-08-19T16:40:56Z</time>
      </trkpt>
      <trkpt lat="-27.985285" lon="-65.69261">
        <ele>1167.0</ele>
        <time>2018-08-19T16:40:59Z</time>
      </trkpt>
      <trkpt lat="-27.98518" lon="-65.692645">
        <ele>1167.2</ele>
        <time>2018-08-19T16:41:02Z</time>
      </trkpt>
      <trkpt lat="-27.98509" lon="-65.692685">
        <ele>1167.4</ele>
        <time>2018-08-19T16:41:05Z</time>
      </trkpt>
      <trkpt lat="-27.985" lon="-65.692705">
        <ele>1167.6</ele>
        <time>2018-08-19T16:41:08Z</time>
      </trkpt>
      <trkpt lat="-27.98491" lon="-65.69275">
        <ele>1167.7</ele>
        <time>2018-08-19T16:41:11Z</time>
      </trkpt>
      <trkpt lat="-27.98482" lon="-65.69278">
        <ele>1167.8</ele>
        <time>2018-08-19T16:41:14Z</time>
      </trkpt>
      <trkpt lat="-27.98472" lon="-65.692805">
        <ele>1168.0</ele>
        <time>2018-08-19T16:41:17Z</time>
      </trkpt>
      <trkpt lat="-27.98461" lon="-65.692805">
        <ele>1168.1</ele>
        <time>2018-08-19T16:41:20Z</time>
      </trkpt>
      <trkpt lat="-27.984535" lon="-65.69283">
        <ele>1168.8</ele>
        <time>2018-08-19T16:41:22Z</time>
      </trkpt>
      <trkpt lat="-27.984465" lon="-65.69284">
        <ele>1169.4</ele>
        <time>2018-08-19T16:41:24Z</time>
      </trkpt>
      <trkpt lat="-27.984385" lon="-65.692845">
        <ele>1170.2</ele>
        <time>2018-08-19T16:41:26Z</time>
      </trkpt>
      <trkpt lat="-27.98431" lon="-65.692845">
        <ele>1170.5</ele>
        <time>2018-08-19T16:41:28Z</time>
      </trkpt>
      <trkpt lat="-27.984225" lon="-65.692845">
        <ele>1170.5</ele>
        <time>2018-08-19T16:41:30Z</time>
      </trkpt>
      <trkpt lat="-27.984135" lon="-65.69287">
        <ele>1170.7</ele>
        <time>2018-08-19T16:41:32Z</time>
      </trkpt>
      <trkpt lat="-27.98404" lon="-65.69287">
        <ele>1170.5</ele>
        <time>2018-08-19T16:41:34Z</time>
      </trkpt>
      <trkpt lat="-27.98394" lon="-65.692845">
        <ele>1170.3</ele>
        <time>2018-08-19T16:41:36Z</time>
      </trkpt>
      <trkpt lat="-27.983825" lon="-65.692845">
        <ele>1169.8</ele>
        <time>2018-08-19T16:41:38Z</time>
      </trkpt>
      <trkpt lat="-27.983705" lon="-65.692845">
        <ele>1169.6</ele>
        <time>2018-08-19T16:41:40Z</time>
      </trkpt>
      <trkpt lat="-27.9836" lon="-65.69284">
        <ele>1169.3</ele>
        <time>2018-08-19T16:41:42Z</time>
      </trkpt>
      <trkpt lat="-27.983515" lon="-65.692825">
        <ele>1169.0</ele>
        <time>2018-08-19T16:41:44Z</time>
      </trkpt>
      <trkpt lat="-27.98342" lon="-65.692805">
        <ele>1168.8</ele>
        <time>2018-08-19T16:41:46Z</time>
      </trkpt>
      <trkpt lat="-27.983325" lon="-65.692785">
        <ele>1168.5</ele>
        <time>2018-08-19T16:41:48Z</time>
      </trkpt>
      <trkpt lat="-27.98322" lon="-65.69276">
        <ele>1167.9</ele>
        <time>2018-08-19T16:41:50Z</time>
      </trkpt>
      <trkpt lat="-27.983125" lon="-65.69273">
        <ele>1167.5</ele>
        <time>2018-08-19T16:41:52Z</time>
      </trkpt>
      <trkpt lat="-27.98302" lon="-65.692695">
        <ele>1166.7</ele>
        <time>2018-08-19T16:41:54Z</time>
      </trkpt>
      <trkpt lat="-27.982925" lon="-65.692665">
        <ele>1166.3</ele>
        <time>2018-08-19T16:41:56Z</time>
      </trkpt>
      <trkpt lat="-27.98283" lon="-65.69262">
        <ele>1166.0</ele>
        <time>2018-08-19T16:41:58Z</time>
      </trkpt>
      <trkpt lat="-27.982745" lon="-65.69258">
        <ele>1166.0</ele>
        <time>2018-08-19T16:42:00Z</time>
      </trkpt>
      <trkpt lat="-27.982665" lon="-65.692555">
        <ele>1166.0</ele>
        <time>2018-08-19T16:42:02Z</time>
      </trkpt>
      <trkpt lat="-27.98258" lon="-65.69252">
        <ele>1165.9</ele>
        <time>2018-08-19T16:42:04Z</time>
      </trkpt>
      <trkpt lat="-27.982495" lon="-65.69248">
        <ele>1165.7</ele>
        <time>2018-08-19T16:42:06Z</time>
      </trkpt>
      <trkpt lat="-27.98241" lon="-65.69244">
        <ele>1165.5</ele>
        <time>2018-08-19T16:42:08Z</time>
      </trkpt>
      <trkpt lat="-27.98232" lon="-65.692395">
        <ele>1165.5</ele>
        <time>2018-08-19T16:42:10Z</time>
      </trkpt>
      <trkpt lat="-27.982225" lon="-65.692355">
        <ele>1165.4</ele>
        <time>2018-08-19T16:42:12Z</time>
      </trkpt>
      <trkpt lat="-27.98214" lon="-65.692325">
        <ele>1165.4</ele>
        <time>2018-08-19T16:42:14Z</time>
      </trkpt>
      <trkpt lat="-27.982055" lon="-65.69229">
        <ele>1165.3</ele>
        <time>2018-08-19T16:42:16Z</time>
      </trkpt>
      <trkpt lat="-27.981975" lon="-65.69225">
        <ele>1165.2</ele>
        <time>2018-08-19T16:42:18Z</time>
      </trkpt>
      <trkpt lat="-27.98189" lon="-65.69221">
        <ele>1165.2</ele>
        <time>2018-08-19T16:42:20Z</time>
      </trkpt>
      <trkpt lat="-27.981805" lon="-65.69217">
        <ele>1165.2</ele>
        <time>2018-08-19T16:42:22Z</time>
      </trkpt>
      <trkpt lat="-27.98172" lon="-65.69213">
        <ele>1165.1</ele>
        <time>2018-08-19T16:42:24Z</time>
      </trkpt>
      <trkpt lat="-27.98163" lon="-65.6921">
        <ele>1165.1</ele>
        <time>2018-08-19T16:42:26Z</time>
      </trkpt>
      <trkpt lat="-27.981545" lon="-65.692055">
        <ele>1165.1</ele>
        <time>2018-08-19T16:42:28Z</time>
      </trkpt>
      <trkpt lat="-27.981455" lon="-65.692025">
        <ele>1165.0</ele>
        <time>2018-08-19T16:42:30Z</time>
      </trkpt>
      <trkpt lat="-27.981365" lon="-65.691985">
        <ele>1165.1</ele>
        <time>2018-08-19T16:42:32Z</time>
      </trkpt>
      <trkpt lat="-27.981275" lon="-65.691945">
        <ele>1165.0</ele>
        <time>2018-08-19T16:42:34Z</time>
      </trkpt>
      <trkpt lat="-27.98119" lon="-65.691905">
        <ele>1165.0</ele>
        <time>2018-08-19T16:42:36Z</time>
      </trkpt>
      <trkpt lat="-27.981095" lon="-65.69186">
        <ele>1165.0</ele>
        <time>2018-08-19T16:42:38Z</time>
      </trkpt>
      <trkpt lat="-27.981015" lon="-65.69182">
        <ele>1165.0</ele>
        <time>2018-08-19T16:42:40Z</time>
      </trkpt>
      <trkpt lat="-27.98093" lon="-65.6918">
        <ele>1165.0</ele>
        <time>2018-08-19T16:42:42Z</time>
      </trkpt>
      <trkpt lat="-27.980845" lon="-65.691775">
        <ele>1165.0</ele>
        <time>2018-08-19T16:42:44Z</time>
      </trkpt>
      <trkpt lat="-27.98076" lon="-65.691745">
        <ele>1165.0</ele>
        <time>2018-08-19T16:42:46Z</time>
      </trkpt>
      <trkpt lat="-27.98068" lon="-65.69172">
        <ele>1165.1</ele>
        <time>2018-08-19T16:42:48Z</time>
      </trkpt>
      <trkpt lat="-27.980595" lon="-65.691705">
        <ele>1165.1</ele>
        <time>2018-08-19T16:42:50Z</time>
      </trkpt>
      <trkpt lat="-27.98052" lon="-65.69168">
        <ele>1165.2</ele>
        <time>2018-08-19T16:42:52Z</time>
      </trkpt>
      <trkpt lat="-27.980435" lon="-65.69167">
        <ele>1165.3</ele>
        <time>2018-08-19T16:42:54Z</time>
      </trkpt>
      <trkpt lat="-27.98035" lon="-65.691635">
        <ele>1165.3</ele>
        <time>2018-08-19T16:42:56Z</time>
      </trkpt>
      <trkpt lat="-27.980265" lon="-65.691635">
        <ele>1165.4</ele>
        <time>2018-08-19T16:42:58Z</time>
      </trkpt>
      <trkpt lat="-27.98019" lon="-65.691635">
        <ele>1165.4</ele>
        <time>2018-08-19T16:43:00Z</time>
      </trkpt>
      <trkpt lat="-27.98011" lon="-65.691625">
        <ele>1165.4</ele>
        <time>2018-08-19T16:43:02Z</time>
      </trkpt>
      <trkpt lat="-27.98001" lon="-65.69162">
        <ele>1165.4</ele>
        <time>2018-08-19T16:43:05Z</time>
      </trkpt>
      <trkpt lat="-27.979915" lon="-65.691615">
        <ele>1165.5</ele>
        <time>2018-08-19T16:43:08Z</time>
      </trkpt>
      <trkpt lat="-27.979824999999998" lon="-65.691595">
        <ele>1165.6</ele>
        <time>2018-08-19T16:43:11Z</time>
      </trkpt>
      <trkpt lat="-27.97974" lon="-65.691615">
        <ele>1165.8</ele>
        <time>2018-08-19T16:43:14Z</time>
      </trkpt>
      <trkpt lat="-27.979635000000002" lon="-65.69163">
        <ele>1166.0</ele>
        <time>2018-08-19T16:43:18Z</time>
      </trkpt>
      <trkpt lat="-27.979555" lon="-65.691635">
        <ele>1166.3</ele>
        <time>2018-08-19T16:43:21Z</time>
      </trkpt>
      <trkpt lat="-27.97947" lon="-65.691635">
        <ele>1166.4</ele>
        <time>2018-08-19T16:43:24Z</time>
      </trkpt>
      <trkpt lat="-27.979385" lon="-65.69166">
        <ele>1166.4</ele>
        <time>2018-08-19T16:43:27Z</time>
      </trkpt>
      <trkpt lat="-27.97928" lon="-65.69167">
        <ele>1166.2</ele>
        <time>2018-08-19T16:43:30Z</time>
      </trkpt>
      <trkpt lat="-27.979215" lon="-65.69168">
        <ele>1166.3</ele>
        <time>2018-08-19T16:43:32Z</time>
      </trkpt>
      <trkpt lat="-27.97911" lon="-65.6917">
        <ele>1166.6</ele>
        <time>2018-08-19T16:43:35Z</time>
      </trkpt>
      <trkpt lat="-27.979015" lon="-65.69172">
        <ele>1166.7</ele>
        <time>2018-08-19T16:43:38Z</time>
      </trkpt>
      <trkpt lat="-27.978915" lon="-65.691755">
        <ele>1164.8</ele>
        <time>2018-08-19T16:43:41Z</time>
      </trkpt>
      <trkpt lat="-27.978835" lon="-65.691775">
        <ele>1161.9</ele>
        <time>2018-08-19T16:43:43Z</time>
      </trkpt>
      <trkpt lat="-27.97876" lon="-65.69181">
        <ele>1160.4</ele>
        <time>2018-08-19T16:43:45Z</time>
      </trkpt>
      <trkpt lat="-27.978655" lon="-65.69185">
        <ele>1160.3</ele>
        <time>2018-08-19T16:43:48Z</time>
      </trkpt>
      <trkpt lat="-27.97859" lon="-65.69186">
        <ele>1160.3</ele>
        <time>2018-08-19T16:43:50Z</time>
      </trkpt>
      <trkpt lat="-27.978485" lon="-65.691905">
        <ele>1159.9</ele>
        <time>2018-08-19T16:43:53Z</time>
      </trkpt>
      <trkpt lat="-27.97839" lon="-65.69197">
        <ele>1159.8</ele>
        <time>2018-08-19T16:43:56Z</time>
      </trkpt>
      <trkpt lat="-27.978325" lon="-65.69199">
        <ele>1159.9</ele>
        <time>2018-08-19T16:43:58Z</time>
      </trkpt>
      <trkpt lat="-27.97824" lon="-65.692025">
        <ele>1160.1</ele>
        <time>2018-08-19T16:44:01Z</time>
      </trkpt>
      <trkpt lat="-27.978175" lon="-65.692075">
        <ele>1160.3</ele>
        <time>2018-08-19T16:44:04Z</time>
      </trkpt>
      <trkpt lat="-27.978105" lon="-65.69211">
        <ele>1160.5</ele>
        <time>2018-08-19T16:44:07Z</time>
      </trkpt>
      <trkpt lat="-27.978015" lon="-65.69215">
        <ele>1160.8</ele>
        <time>2018-08-19T16:44:10Z</time>
      </trkpt>
      <trkpt lat="-27.977915" lon="-65.692205">
        <ele>1161.0</ele>
        <time>2018-08-19T16:44:13Z</time>
      </trkpt>
      <trkpt lat="-27.97785" lon="-65.69225">
        <ele>1162.2</ele>
        <time>2018-08-19T16:44:15Z</time>
      </trkpt>
      <trkpt lat="-27.97777" lon="-65.692295">
        <ele>1162.6</ele>
        <time>2018-08-19T16:44:17Z</time>
      </trkpt>
      <trkpt lat="-27.97769" lon="-65.692335">
        <ele>1164.8</ele>
        <time>2018-08-19T16:44:19Z</time>
      </trkpt>
      <trkpt lat="-27.97762" lon="-65.692385">
        <ele>1166.5</ele>
        <time>2018-08-19T16:44:21Z</time>
      </trkpt>
      <trkpt lat="-27.977555" lon="-65.69242">
        <ele>1166.5</ele>
        <time>2018-08-19T16:44:23Z</time>
      </trkpt>
      <trkpt lat="-27.97747" lon="-65.69247">
        <ele>1166.4</ele>
        <time>2018-08-19T16:44:26Z</time>
      </trkpt>
      <trkpt lat="-27.9774" lon="-65.692505">
        <ele>1166.3</ele>
        <time>2018-08-19T16:44:29Z</time>
      </trkpt>
      <trkpt lat="-27.9773" lon="-65.692555">
        <ele>1166.3</ele>
        <time>2018-08-19T16:44:32Z</time>
      </trkpt>
      <trkpt lat="-27.977235" lon="-65.69258">
        <ele>1166.2</ele>
        <time>2018-08-19T16:44:34Z</time>
      </trkpt>
      <trkpt lat="-27.97715" lon="-65.69262">
        <ele>1166.1</ele>
        <time>2018-08-19T16:44:37Z</time>
      </trkpt>
      <trkpt lat="-27.977065" lon="-65.69269">
        <ele>1165.7</ele>
        <time>2018-08-19T16:44:40Z</time>
      </trkpt>
      <trkpt lat="-27.977" lon="-65.69270666666667">
        <ele>1165.6</ele>
        <time>2018-08-19T16:44:43Z</time>
      </trkpt>
      <trkpt lat="-27.97692" lon="-65.69276">
        <ele>1165.8</ele>
        <time>2018-08-19T16:44:47Z</time>
      </trkpt>
      <trkpt lat="-27.976855" lon="-65.692805">
        <ele>1166.1</ele>
        <time>2018-08-19T16:44:50Z</time>
      </trkpt>
      <trkpt lat="-27.97677" lon="-65.692845">
        <ele>1166.5</ele>
        <time>2018-08-19T16:44:54Z</time>
      </trkpt>
      <trkpt lat="-27.976705" lon="-65.69289">
        <ele>1166.8</ele>
        <time>2018-08-19T16:44:57Z</time>
      </trkpt>
      <trkpt lat="-27.97664" lon="-65.69293">
        <ele>1167.1</ele>
        <time>2018-08-19T16:45:00Z</time>
      </trkpt>
      <trkpt lat="-27.97656" lon="-65.69297">
        <ele>1167.7</ele>
        <time>2018-08-19T16:45:05Z</time>
      </trkpt>
      <trkpt lat="-27.97648" lon="-65.69301">
        <ele>1167.8</ele>
        <time>2018-08-19T16:45:10Z</time>
      </trkpt>
      <trkpt lat="-27.976415" lon="-65.69305">
        <ele>1167.6</ele>
        <time>2018-08-19T16:45:15Z</time>
      </trkpt>
      <trkpt lat="-27.976325" lon="-65.693085">
        <ele>1167.9</ele>
        <time>2018-08-19T16:45:21Z</time>
      </trkpt>
      <trkpt lat="-27.976255" lon="-65.69314">
        <ele>1168.0</ele>
        <time>2018-08-19T16:45:25Z</time>
      </trkpt>
      <trkpt lat="-27.97617" lon="-65.69318">
        <ele>1168.4</ele>
        <time>2018-08-19T16:45:29Z</time>
      </trkpt>
      <trkpt lat="-27.976085" lon="-65.69322">
        <ele>1168.8</ele>
        <time>2018-08-19T16:45:33Z</time>
      </trkpt>
      <trkpt lat="-27.976015" lon="-65.693275">
        <ele>1169.1</ele>
        <time>2018-08-19T16:45:37Z</time>
      </trkpt>
      <trkpt lat="-27.975955" lon="-65.69332">
        <ele>1169.3</ele>
        <time>2018-08-19T16:45:40Z</time>
      </trkpt>
      <trkpt lat="-27.975875" lon="-65.693375">
        <ele>1169.5</ele>
        <time>2018-08-19T16:45:44Z</time>
      </trkpt>
      <trkpt lat="-27.97579" lon="-65.693425">
        <ele>1169.5</ele>
        <time>2018-08-19T16:45:49Z</time>
      </trkpt>
      <trkpt lat="-27.97572" lon="-65.693465">
        <ele>1169.4</ele>
        <time>2018-08-19T16:45:53Z</time>
      </trkpt>
      <trkpt lat="-27.975645" lon="-65.69349">
        <ele>1169.6</ele>
        <time>2018-08-19T16:45:57Z</time>
      </trkpt>
      <trkpt lat="-27.975575" lon="-65.69352">
        <ele>1169.8</ele>
        <time>2018-08-19T16:45:59Z</time>
      </trkpt>
      <trkpt lat="-27.97548" lon="-65.693565">
        <ele>1170.2</ele>
        <time>2018-08-19T16:46:03Z</time>
      </trkpt>
      <trkpt lat="-27.97541" lon="-65.693605">
        <ele>1170.5</ele>
        <time>2018-08-19T16:46:06Z</time>
      </trkpt>
      <trkpt lat="-27.97534" lon="-65.69363">
        <ele>1170.8</ele>
        <time>2018-08-19T16:46:09Z</time>
      </trkpt>
      <trkpt lat="-27.97527" lon="-65.69365">
        <ele>1171.1</ele>
        <time>2018-08-19T16:46:12Z</time>
      </trkpt>
      <trkpt lat="-27.975195" lon="-65.693685">
        <ele>1171.3</ele>
        <time>2018-08-19T16:46:15Z</time>
      </trkpt>
      <trkpt lat="-27.975115" lon="-65.693715">
        <ele>1171.6</ele>
        <time>2018-08-19T16:46:19Z</time>
      </trkpt>
      <trkpt lat="-27.97503" lon="-65.693745">
        <ele>1171.9</ele>
        <time>2018-08-19T16:46:23Z</time>
      </trkpt>
      <trkpt lat="-27.97496" lon="-65.69377">
        <ele>1172.0</ele>
        <time>2018-08-19T16:46:26Z</time>
      </trkpt>
      <trkpt lat="-27.974875" lon="-65.69379">
        <ele>1172.3</ele>
        <time>2018-08-19T16:46:29Z</time>
      </trkpt>
      <trkpt lat="-27.974795" lon="-65.693825">
        <ele>1172.5</ele>
        <time>2018-08-19T16:46:32Z</time>
      </trkpt>
      <trkpt lat="-27.97472" lon="-65.69383">
        <ele>1172.7</ele>
        <time>2018-08-19T16:46:35Z</time>
      </trkpt>
      <trkpt lat="-27.974635" lon="-65.69387">
        <ele>1172.8</ele>
        <time>2018-08-19T16:46:38Z</time>
      </trkpt>
      <trkpt lat="-27.974535" lon="-65.693895">
        <ele>1173.0</ele>
        <time>2018-08-19T16:46:41Z</time>
      </trkpt>
      <trkpt lat="-27.974435" lon="-65.693915">
        <ele>1173.1</ele>
        <time>2018-08-19T16:46:44Z</time>
      </trkpt>
      <trkpt lat="-27.974355" lon="-65.69394">
        <ele>1173.9</ele>
        <time>2018-08-19T16:46:46Z</time>
      </trkpt>
      <trkpt lat="-27.97428" lon="-65.69396">
        <ele>1174.4</ele>
        <time>2018-08-19T16:46:48Z</time>
      </trkpt>
      <trkpt lat="-27.9742" lon="-65.69399">
        <ele>1174.6</ele>
        <time>2018-08-19T16:46:50Z</time>
      </trkpt>
      <trkpt lat="-27.974115" lon="-65.693995">
        <ele>1174.8</ele>
        <time>2018-08-19T16:46:52Z</time>
      </trkpt>
      <trkpt lat="-27.974045" lon="-65.694025">
        <ele>1175.2</ele>
        <time>2018-08-19T16:46:54Z</time>
      </trkpt>
      <trkpt lat="-27.973965" lon="-65.694055">
        <ele>1175.4</ele>
        <time>2018-08-19T16:46:56Z</time>
      </trkpt>
      <trkpt lat="-27.97389" lon="-65.69407">
        <ele>1175.6</ele>
        <time>2018-08-19T16:46:58Z</time>
      </trkpt>
      <trkpt lat="-27.97382" lon="-65.69409">
        <ele>1175.9</ele>
        <time>2018-08-19T16:47:00Z</time>
      </trkpt>
      <trkpt lat="-27.97374" lon="-65.69412">
        <ele>1176.0</ele>
        <time>2018-08-19T16:47:02Z</time>
      </trkpt>
      <trkpt lat="-27.973665" lon="-65.69414">
        <ele>1175.9</ele>
        <time>2018-08-19T16:47:04Z</time>
      </trkpt>
      <trkpt lat="-27.973585" lon="-65.69414">
        <ele>1176.1</ele>
        <time>2018-08-19T16:47:06Z</time>
      </trkpt>
      <trkpt lat="-27.97351" lon="-65.694175">
        <ele>1176.1</ele>
        <time>2018-08-19T16:47:08Z</time>
      </trkpt>
      <trkpt lat="-27.97344" lon="-65.694185">
        <ele>1176.3</ele>
        <time>2018-08-19T16:47:10Z</time>
      </trkpt>
      <trkpt lat="-27.97336" lon="-65.69422">
        <ele>1176.4</ele>
        <time>2018-08-19T16:47:12Z</time>
      </trkpt>
      <trkpt lat="-27.973285" lon="-65.69422">
        <ele>1176.6</ele>
        <time>2018-08-19T16:47:14Z</time>
      </trkpt>
      <trkpt lat="-27.97321" lon="-65.69426">
        <ele>1176.4</ele>
        <time>2018-08-19T16:47:16Z</time>
      </trkpt>
      <trkpt lat="-27.97313" lon="-65.69428">
        <ele>1176.6</ele>
        <time>2018-08-19T16:47:18Z</time>
      </trkpt>
      <trkpt lat="-27.97306" lon="-65.694295">
        <ele>1176.6</ele>
        <time>2018-08-19T16:47:20Z</time>
      </trkpt>
      <trkpt lat="-27.97299" lon="-65.694315">
        <ele>1176.6</ele>
        <time>2018-08-19T16:47:22Z</time>
      </trkpt>
      <trkpt lat="-27.97289" lon="-65.69435">
        <ele>1176.6</ele>
        <time>2018-08-19T16:47:25Z</time>
      </trkpt>
      <trkpt lat="-27.97279" lon="-65.694365">
        <ele>1176.7</ele>
        <time>2018-08-19T16:47:28Z</time>
      </trkpt>
      <trkpt lat="-27.97268" lon="-65.694405">
        <ele>1176.8</ele>
        <time>2018-08-19T16:47:31Z</time>
      </trkpt>
      <trkpt lat="-27.972585" lon="-65.69443">
        <ele>1176.8</ele>
        <time>2018-08-19T16:47:34Z</time>
      </trkpt>
      <trkpt lat="-27.97249" lon="-65.69445">
        <ele>1176.9</ele>
        <time>2018-08-19T16:47:37Z</time>
      </trkpt>
      <trkpt lat="-27.972395" lon="-65.694475">
        <ele>1177.0</ele>
        <time>2018-08-19T16:47:40Z</time>
      </trkpt>
      <trkpt lat="-27.972295" lon="-65.694505">
        <ele>1177.1</ele>
        <time>2018-08-19T16:47:43Z</time>
      </trkpt>
      <trkpt lat="-27.972195" lon="-65.69453">
        <ele>1177.2</ele>
        <time>2018-08-19T16:47:46Z</time>
      </trkpt>
      <trkpt lat="-27.972095" lon="-65.69455">
        <ele>1177.3</ele>
        <time>2018-08-19T16:47:49Z</time>
      </trkpt>
      <trkpt lat="-27.971995" lon="-65.69459">
        <ele>1177.4</ele>
        <time>2018-08-19T16:47:52Z</time>
      </trkpt>
      <trkpt lat="-27.971895" lon="-65.694615">
        <ele>1177.5</ele>
        <time>2018-08-19T16:47:55Z</time>
      </trkpt>
      <trkpt lat="-27.9718" lon="-65.694635">
        <ele>1177.6</ele>
        <time>2018-08-19T16:47:58Z</time>
      </trkpt>
      <trkpt lat="-27.97172" lon="-65.694665">
        <ele>1177.7</ele>
        <time>2018-08-19T16:48:01Z</time>
      </trkpt>
      <trkpt lat="-27.97165" lon="-65.694675">
        <ele>1177.9</ele>
        <time>2018-08-19T16:48:04Z</time>
      </trkpt>
      <trkpt lat="-27.97157" lon="-65.6947">
        <ele>1178.0</ele>
        <time>2018-08-19T16:48:07Z</time>
      </trkpt>
      <trkpt lat="-27.97149" lon="-65.69472">
        <ele>1178.1</ele>
        <time>2018-08-19T16:48:10Z</time>
      </trkpt>
      <trkpt lat="-27.9714" lon="-65.69475">
        <ele>1178.3</ele>
        <time>2018-08-19T16:48:13Z</time>
      </trkpt>
      <trkpt lat="-27.971315" lon="-65.694775">
        <ele>1178.4</ele>
        <time>2018-08-19T16:48:16Z</time>
      </trkpt>
      <trkpt lat="-27.971235" lon="-65.694795">
        <ele>1178.4</ele>
        <time>2018-08-19T16:48:19Z</time>
      </trkpt>
      <trkpt lat="-27.971155" lon="-65.69481">
        <ele>1178.6</ele>
        <time>2018-08-19T16:48:22Z</time>
      </trkpt>
      <trkpt lat="-27.971075" lon="-65.694815">
        <ele>1178.7</ele>
        <time>2018-08-19T16:48:25Z</time>
      </trkpt>
      <trkpt lat="-27.970995" lon="-65.69484">
        <ele>1178.8</ele>
        <time>2018-08-19T16:48:28Z</time>
      </trkpt>
      <trkpt lat="-27.97092" lon="-65.69486">
        <ele>1179.0</ele>
        <time>2018-08-19T16:48:31Z</time>
      </trkpt>
      <trkpt lat="-27.97084" lon="-65.69488">
        <ele>1179.2</ele>
        <time>2018-08-19T16:48:34Z</time>
      </trkpt>
      <trkpt lat="-27.970755" lon="-65.6949">
        <ele>1179.4</ele>
        <time>2018-08-19T16:48:37Z</time>
      </trkpt>
      <trkpt lat="-27.970675" lon="-65.6949">
        <ele>1179.6</ele>
        <time>2018-08-19T16:48:40Z</time>
      </trkpt>
      <trkpt lat="-27.97059" lon="-65.694935">
        <ele>1179.8</ele>
        <time>2018-08-19T16:48:43Z</time>
      </trkpt>
      <trkpt lat="-27.970505" lon="-65.694945">
        <ele>1179.9</ele>
        <time>2018-08-19T16:48:46Z</time>
      </trkpt>
      <trkpt lat="-27.970425" lon="-65.694965">
        <ele>1180.1</ele>
        <time>2018-08-19T16:48:49Z</time>
      </trkpt>
      <trkpt lat="-27.97033" lon="-65.69498">
        <ele>1180.2</ele>
        <time>2018-08-19T16:48:52Z</time>
      </trkpt>
      <trkpt lat="-27.970255" lon="-65.69498166666666">
        <ele>1180.4</ele>
        <time>2018-08-19T16:48:55Z</time>
      </trkpt>
      <trkpt lat="-27.970175" lon="-65.69501">
        <ele>1180.6</ele>
        <time>2018-08-19T16:48:58Z</time>
      </trkpt>
      <trkpt lat="-27.970095" lon="-65.69503">
        <ele>1180.8</ele>
        <time>2018-08-19T16:49:01Z</time>
      </trkpt>
      <trkpt lat="-27.970015" lon="-65.69504">
        <ele>1181.1</ele>
        <time>2018-08-19T16:49:04Z</time>
      </trkpt>
      <trkpt lat="-27.969925" lon="-65.695065">
        <ele>1181.4</ele>
        <time>2018-08-19T16:49:08Z</time>
      </trkpt>
      <trkpt lat="-27.969835" lon="-65.695085">
        <ele>1181.7</ele>
        <time>2018-08-19T16:49:12Z</time>
      </trkpt>
      <trkpt lat="-27.96976" lon="-65.695085">
        <ele>1181.9</ele>
        <time>2018-08-19T16:49:15Z</time>
      </trkpt>
      <trkpt lat="-27.96969" lon="-65.695115">
        <ele>1182.1</ele>
        <time>2018-08-19T16:49:18Z</time>
      </trkpt>
      <trkpt lat="-27.96961" lon="-65.695125">
        <ele>1182.3</ele>
        <time>2018-08-19T16:49:21Z</time>
      </trkpt>
      <trkpt lat="-27.969535" lon="-65.69515">
        <ele>1182.6</ele>
        <time>2018-08-19T16:49:25Z</time>
      </trkpt>
      <trkpt lat="-27.969455" lon="-65.69517">
        <ele>1182.8</ele>
        <time>2018-08-19T16:49:29Z</time>
      </trkpt>
      <trkpt lat="-27.96937" lon="-65.69519">
        <ele>1183.1</ele>
        <time>2018-08-19T16:49:33Z</time>
      </trkpt>
      <trkpt lat="-27.969285" lon="-65.695205">
        <ele>1183.4</ele>
        <time>2018-08-19T16:49:37Z</time>
      </trkpt>
      <trkpt lat="-27.96919" lon="-65.69525">
        <ele>1183.7</ele>
        <time>2018-08-19T16:49:41Z</time>
      </trkpt>
      <trkpt lat="-27.969115" lon="-65.69528">
        <ele>1184.0</ele>
        <time>2018-08-19T16:49:45Z</time>
      </trkpt>
      <trkpt lat="-27.969025" lon="-65.6953">
        <ele>1184.3</ele>
        <time>2018-08-19T16:49:49Z</time>
      </trkpt>
      <trkpt lat="-27.96894" lon="-65.695335">
        <ele>1184.6</ele>
        <time>2018-08-19T16:49:53Z</time>
      </trkpt>
      <trkpt lat="-27.96885" lon="-65.69535">
        <ele>1184.9</ele>
        <time>2018-08-19T16:49:57Z</time>
      </trkpt>
      <trkpt lat="-27.968765" lon="-65.69539">
        <ele>1185.1</ele>
        <time>2018-08-19T16:50:01Z</time>
      </trkpt>
      <trkpt lat="-27.96869" lon="-65.695415">
        <ele>1185.3</ele>
        <time>2018-08-19T16:50:04Z</time>
      </trkpt>
      <trkpt lat="-27.968615" lon="-65.695435">
        <ele>1185.5</ele>
        <time>2018-08-19T16:50:07Z</time>
      </trkpt>
      <trkpt lat="-27.96853" lon="-65.69547">
        <ele>1185.8</ele>
        <time>2018-08-19T16:50:11Z</time>
      </trkpt>
      <trkpt lat="-27.968455" lon="-65.69549">
        <ele>1186.0</ele>
        <time>2018-08-19T16:50:14Z</time>
      </trkpt>
      <trkpt lat="-27.968375" lon="-65.695515">
        <ele>1186.2</ele>
        <time>2018-08-19T16:50:17Z</time>
      </trkpt>
      <trkpt lat="-27.96828" lon="-65.695535">
        <ele>1186.4</ele>
        <time>2018-08-19T16:50:21Z</time>
      </trkpt>
      <trkpt lat="-27.968205" lon="-65.695575">
        <ele>1186.6</ele>
        <time>2018-08-19T16:50:25Z</time>
      </trkpt>
      <trkpt lat="-27.968135" lon="-65.6956">
        <ele>1186.8</ele>
        <time>2018-08-19T16:50:28Z</time>
      </trkpt>
      <trkpt lat="-27.968055" lon="-65.69562">
        <ele>1186.9</ele>
        <time>2018-08-19T16:50:31Z</time>
      </trkpt>
      <trkpt lat="-27.96798" lon="-65.69565">
        <ele>1187.0</ele>
        <time>2018-08-19T16:50:34Z</time>
      </trkpt>
      <trkpt lat="-27.967905000000002" lon="-65.69566">
        <ele>1187.1</ele>
        <time>2018-08-19T16:50:37Z</time>
      </trkpt>
      <trkpt lat="-27.96783" lon="-65.6957">
        <ele>1187.2</ele>
        <time>2018-08-19T16:50:40Z</time>
      </trkpt>
      <trkpt lat="-27.96775" lon="-65.695715">
        <ele>1187.3</ele>
        <time>2018-08-19T16:50:43Z</time>
      </trkpt>
      <trkpt lat="-27.96767" lon="-65.69575">
        <ele>1187.4</ele>
        <time>2018-08-19T16:50:46Z</time>
      </trkpt>
      <trkpt lat="-27.967585" lon="-65.69576">
        <ele>1187.5</ele>
        <time>2018-08-19T16:50:49Z</time>
      </trkpt>
      <trkpt lat="-27.967505" lon="-65.69579">
        <ele>1187.6</ele>
        <time>2018-08-19T16:50:52Z</time>
      </trkpt>
      <trkpt lat="-27.96741" lon="-65.6958">
        <ele>1187.7</ele>
        <time>2018-08-19T16:50:55Z</time>
      </trkpt>
      <trkpt lat="-27.967335" lon="-65.695835">
        <ele>1187.7</ele>
        <time>2018-08-19T16:50:58Z</time>
      </trkpt>
      <trkpt lat="-27.96725" lon="-65.695845">
        <ele>1187.8</ele>
        <time>2018-08-19T16:51:01Z</time>
      </trkpt>
      <trkpt lat="-27.967165" lon="-65.69588">
        <ele>1187.9</ele>
        <time>2018-08-19T16:51:04Z</time>
      </trkpt>
      <trkpt lat="-27.96708" lon="-65.695885">
        <ele>1188.0</ele>
        <time>2018-08-19T16:51:07Z</time>
      </trkpt>
      <trkpt lat="-27.966995" lon="-65.695925">
        <ele>1188.0</ele>
        <time>2018-08-19T16:51:10Z</time>
      </trkpt>
      <trkpt lat="-27.966905" lon="-65.69595">
        <ele>1188.1</ele>
        <time>2018-08-19T16:51:13Z</time>
      </trkpt>
      <trkpt lat="-27.966805" lon="-65.695965">
        <ele>1188.2</ele>
        <time>2018-08-19T16:51:16Z</time>
      </trkpt>
      <trkpt lat="-27.9667" lon="-65.696005">
        <ele>1188.2</ele>
        <time>2018-08-19T16:51:19Z</time>
      </trkpt>
      <trkpt lat="-27.9666" lon="-65.696025">
        <ele>1188.3</ele>
        <time>2018-08-19T16:51:22Z</time>
      </trkpt>
      <trkpt lat="-27.96651" lon="-65.69605">
        <ele>1188.4</ele>
        <time>2018-08-19T16:51:25Z</time>
      </trkpt>
      <trkpt lat="-27.966425" lon="-65.69607">
        <ele>1188.5</ele>
        <time>2018-08-19T16:51:28Z</time>
      </trkpt>
      <trkpt lat="-27.96634" lon="-65.6961">
        <ele>1188.5</ele>
        <time>2018-08-19T16:51:31Z</time>
      </trkpt>
      <trkpt lat="-27.966235" lon="-65.69611">
        <ele>1188.6</ele>
        <time>2018-08-19T16:51:34Z</time>
      </trkpt>
      <trkpt lat="-27.96615" lon="-65.69615">
        <ele>1188.7</ele>
        <time>2018-08-19T16:51:37Z</time>
      </trkpt>
      <trkpt lat="-27.966045" lon="-65.696175">
        <ele>1188.8</ele>
        <time>2018-08-19T16:51:40Z</time>
      </trkpt>
      <trkpt lat="-27.965955" lon="-65.69619">
        <ele>1188.8</ele>
        <time>2018-08-19T16:51:43Z</time>
      </trkpt>
      <trkpt lat="-27.96585" lon="-65.69623">
        <ele>1188.9</ele>
        <time>2018-08-19T16:51:46Z</time>
      </trkpt>
      <trkpt lat="-27.965745" lon="-65.69625">
        <ele>1189.0</ele>
        <time>2018-08-19T16:51:49Z</time>
      </trkpt>
      <trkpt lat="-27.965655" lon="-65.696285">
        <ele>1189.1</ele>
        <time>2018-08-19T16:51:52Z</time>
      </trkpt>
      <trkpt lat="-27.965555" lon="-65.696295">
        <ele>1189.2</ele>
        <time>2018-08-19T16:51:55Z</time>
      </trkpt>
      <trkpt lat="-27.965455" lon="-65.696335">
        <ele>1189.3</ele>
        <time>2018-08-19T16:51:58Z</time>
      </trkpt>
      <trkpt lat="-27.96535" lon="-65.69636">
        <ele>1189.4</ele>
        <time>2018-08-19T16:52:01Z</time>
      </trkpt>
      <trkpt lat="-27.96525" lon="-65.69638">
        <ele>1189.5</ele>
        <time>2018-08-19T16:52:04Z</time>
      </trkpt>
      <trkpt lat="-27.96517" lon="-65.696415">
        <ele>1189.6</ele>
        <time>2018-08-19T16:52:07Z</time>
      </trkpt>
      <trkpt lat="-27.96508" lon="-65.696445">
        <ele>1189.8</ele>
        <time>2018-08-19T16:52:10Z</time>
      </trkpt>
      <trkpt lat="-27.96499" lon="-65.696465">
        <ele>1189.9</ele>
        <time>2018-08-19T16:52:13Z</time>
      </trkpt>
      <trkpt lat="-27.96489" lon="-65.696495">
        <ele>1190.1</ele>
        <time>2018-08-19T16:52:16Z</time>
      </trkpt>
      <trkpt lat="-27.964795" lon="-65.69652">
        <ele>1190.2</ele>
        <time>2018-08-19T16:52:19Z</time>
      </trkpt>
      <trkpt lat="-27.964695" lon="-65.696545">
        <ele>1190.4</ele>
        <time>2018-08-19T16:52:22Z</time>
      </trkpt>
      <trkpt lat="-27.9646" lon="-65.69656">
        <ele>1190.5</ele>
        <time>2018-08-19T16:52:25Z</time>
      </trkpt>
      <trkpt lat="-27.964505" lon="-65.696595">
        <ele>1190.6</ele>
        <time>2018-08-19T16:52:28Z</time>
      </trkpt>
      <trkpt lat="-27.96442" lon="-65.696605">
        <ele>1190.7</ele>
        <time>2018-08-19T16:52:31Z</time>
      </trkpt>
      <trkpt lat="-27.96434" lon="-65.696635">
        <ele>1190.9</ele>
        <time>2018-08-19T16:52:34Z</time>
      </trkpt>
      <trkpt lat="-27.964245" lon="-65.696645">
        <ele>1191.0</ele>
        <time>2018-08-19T16:52:37Z</time>
      </trkpt>
      <trkpt lat="-27.96415" lon="-65.696685">
        <ele>1191.1</ele>
        <time>2018-08-19T16:52:40Z</time>
      </trkpt>
      <trkpt lat="-27.964065" lon="-65.6967">
        <ele>1191.2</ele>
        <time>2018-08-19T16:52:43Z</time>
      </trkpt>
      <trkpt lat="-27.963985" lon="-65.696725">
        <ele>1191.3</ele>
        <time>2018-08-19T16:52:46Z</time>
      </trkpt>
      <trkpt lat="-27.963885" lon="-65.69673666666667">
        <ele>1191.4</ele>
        <time>2018-08-19T16:52:49Z</time>
      </trkpt>
      <trkpt lat="-27.9638" lon="-65.69678">
        <ele>1191.6</ele>
        <time>2018-08-19T16:52:52Z</time>
      </trkpt>
      <trkpt lat="-27.9637" lon="-65.696785">
        <ele>1191.7</ele>
        <time>2018-08-19T16:52:55Z</time>
      </trkpt>
      <trkpt lat="-27.963605" lon="-65.69683">
        <ele>1191.8</ele>
        <time>2018-08-19T16:52:58Z</time>
      </trkpt>
      <trkpt lat="-27.963505" lon="-65.69686">
        <ele>1191.9</ele>
        <time>2018-08-19T16:53:01Z</time>
      </trkpt>
      <trkpt lat="-27.9634" lon="-65.69687">
        <ele>1192.0</ele>
        <time>2018-08-19T16:53:04Z</time>
      </trkpt>
      <trkpt lat="-27.963305" lon="-65.69691">
        <ele>1192.1</ele>
        <time>2018-08-19T16:53:07Z</time>
      </trkpt>
      <trkpt lat="-27.96321" lon="-65.69694">
        <ele>1192.3</ele>
        <time>2018-08-19T16:53:10Z</time>
      </trkpt>
      <trkpt lat="-27.96313" lon="-65.69695">
        <ele>1192.3</ele>
        <time>2018-08-19T16:53:12Z</time>
      </trkpt>
      <trkpt lat="-27.963055" lon="-65.69695333333334">
        <ele>1192.8</ele>
        <time>2018-08-19T16:53:14Z</time>
      </trkpt>
      <trkpt lat="-27.962985" lon="-65.696995">
        <ele>1193.2</ele>
        <time>2018-08-19T16:53:16Z</time>
      </trkpt>
      <trkpt lat="-27.96289" lon="-65.697025">
        <ele>1193.3</ele>
        <time>2018-08-19T16:53:19Z</time>
      </trkpt>
      <trkpt lat="-27.962795" lon="-65.697045">
        <ele>1193.4</ele>
        <time>2018-08-19T16:53:22Z</time>
      </trkpt>
      <trkpt lat="-27.962705" lon="-65.697075">
        <ele>1193.5</ele>
        <time>2018-08-19T16:53:25Z</time>
      </trkpt>
      <trkpt lat="-27.962615" lon="-65.697095">
        <ele>1193.6</ele>
        <time>2018-08-19T16:53:28Z</time>
      </trkpt>
      <trkpt lat="-27.962525" lon="-65.69712">
        <ele>1193.7</ele>
        <time>2018-08-19T16:53:31Z</time>
      </trkpt>
      <trkpt lat="-27.96243" lon="-65.69714">
        <ele>1193.8</ele>
        <time>2018-08-19T16:53:34Z</time>
      </trkpt>
      <trkpt lat="-27.962335" lon="-65.69717">
        <ele>1193.9</ele>
        <time>2018-08-19T16:53:37Z</time>
      </trkpt>
      <trkpt lat="-27.96225" lon="-65.697175">
        <ele>1194.1</ele>
        <time>2018-08-19T16:53:40Z</time>
      </trkpt>
      <trkpt lat="-27.962165" lon="-65.697215">
        <ele>1194.2</ele>
        <time>2018-08-19T16:53:43Z</time>
      </trkpt>
      <trkpt lat="-27.96209" lon="-65.697235">
        <ele>1194.4</ele>
        <time>2018-08-19T16:53:46Z</time>
      </trkpt>
      <trkpt lat="-27.962" lon="-65.69725">
        <ele>1194.5</ele>
        <time>2018-08-19T16:53:50Z</time>
      </trkpt>
      <trkpt lat="-27.961915" lon="-65.69727">
        <ele>1194.7</ele>
        <time>2018-08-19T16:53:53Z</time>
      </trkpt>
      <trkpt lat="-27.961845" lon="-65.69728">
        <ele>1194.8</ele>
        <time>2018-08-19T16:53:56Z</time>
      </trkpt>
      <trkpt lat="-27.961755" lon="-65.69732">
        <ele>1195.0</ele>
        <time>2018-08-19T16:54:00Z</time>
      </trkpt>
      <trkpt lat="-27.96168" lon="-65.697345">
        <ele>1195.1</ele>
        <time>2018-08-19T16:54:03Z</time>
      </trkpt>
      <trkpt lat="-27.961605" lon="-65.697365">
        <ele>1195.3</ele>
        <time>2018-08-19T16:54:06Z</time>
      </trkpt>
      <trkpt lat="-27.9615" lon="-65.697395">
        <ele>1195.4</ele>
        <time>2018-08-19T16:54:10Z</time>
      </trkpt>
      <trkpt lat="-27.96143" lon="-65.697405">
        <ele>1195.5</ele>
        <time>2018-08-19T16:54:13Z</time>
      </trkpt>
      <trkpt lat="-27.96136" lon="-65.69743">
        <ele>1195.6</ele>
        <time>2018-08-19T16:54:16Z</time>
      </trkpt>
      <trkpt lat="-27.96127" lon="-65.69746">
        <ele>1195.7</ele>
        <time>2018-08-19T16:54:20Z</time>
      </trkpt>
      <trkpt lat="-27.96117" lon="-65.697485">
        <ele>1195.8</ele>
        <time>2018-08-19T16:54:23Z</time>
      </trkpt>
      <trkpt lat="-27.961105" lon="-65.697495">
        <ele>1195.8</ele>
        <time>2018-08-19T16:54:25Z</time>
      </trkpt>
      <trkpt lat="-27.961" lon="-65.69753">
        <ele>1195.9</ele>
        <time>2018-08-19T16:54:28Z</time>
      </trkpt>
      <trkpt lat="-27.96093" lon="-65.697545">
        <ele>1195.9</ele>
        <time>2018-08-19T16:54:30Z</time>
      </trkpt>
      <trkpt lat="-27.960855" lon="-65.69754666666667">
        <ele>1195.9</ele>
        <time>2018-08-19T16:54:32Z</time>
      </trkpt>
      <trkpt lat="-27.96078" lon="-65.697585">
        <ele>1196.0</ele>
        <time>2018-08-19T16:54:34Z</time>
      </trkpt>
      <trkpt lat="-27.960715" lon="-65.69759">
        <ele>1196.0</ele>
        <time>2018-08-19T16:54:36Z</time>
      </trkpt>
      <trkpt lat="-27.960635" lon="-65.697625">
        <ele>1196.0</ele>
        <time>2018-08-19T16:54:38Z</time>
      </trkpt>
      <trkpt lat="-27.960565" lon="-65.69763">
        <ele>1196.0</ele>
        <time>2018-08-19T16:54:40Z</time>
      </trkpt>
      <trkpt lat="-27.96049" lon="-65.69767">
        <ele>1195.7</ele>
        <time>2018-08-19T16:54:42Z</time>
      </trkpt>
      <trkpt lat="-27.96041" lon="-65.697685">
        <ele>1195.4</ele>
        <time>2018-08-19T16:54:44Z</time>
      </trkpt>
      <trkpt lat="-27.96034" lon="-65.69771">
        <ele>1195.1</ele>
        <time>2018-08-19T16:54:46Z</time>
      </trkpt>
      <trkpt lat="-27.960265" lon="-65.69773">
        <ele>1195.3</ele>
        <time>2018-08-19T16:54:48Z</time>
      </trkpt>
      <trkpt lat="-27.960185" lon="-65.697755">
        <ele>1195.6</ele>
        <time>2018-08-19T16:54:50Z</time>
      </trkpt>
      <trkpt lat="-27.960085" lon="-65.69777">
        <ele>1195.7</ele>
        <time>2018-08-19T16:54:53Z</time>
      </trkpt>
      <trkpt lat="-27.959995" lon="-65.697805">
        <ele>1195.8</ele>
        <time>2018-08-19T16:54:56Z</time>
      </trkpt>
      <trkpt lat="-27.95991" lon="-65.697835">
        <ele>1195.9</ele>
        <time>2018-08-19T16:54:59Z</time>
      </trkpt>
      <trkpt lat="-27.95982" lon="-65.697855">
        <ele>1196.0</ele>
        <time>2018-08-19T16:55:02Z</time>
      </trkpt>
      <trkpt lat="-27.95972" lon="-65.69788">
        <ele>1196.1</ele>
        <time>2018-08-19T16:55:05Z</time>
      </trkpt>
      <trkpt lat="-27.959615" lon="-65.6979">
        <ele>1196.2</ele>
        <time>2018-08-19T16:55:08Z</time>
      </trkpt>
      <trkpt lat="-27.95954" lon="-65.697925">
        <ele>1196.6</ele>
        <time>2018-08-19T16:55:10Z</time>
      </trkpt>
      <trkpt lat="-27.95947" lon="-65.697935">
        <ele>1196.8</ele>
        <time>2018-08-19T16:55:12Z</time>
      </trkpt>
      <trkpt lat="-27.95939" lon="-65.69793666666666">
        <ele>1196.8</ele>
        <time>2018-08-19T16:55:14Z</time>
      </trkpt>
      <trkpt lat="-27.9593" lon="-65.697985">
        <ele>1196.9</ele>
        <time>2018-08-19T16:55:17Z</time>
      </trkpt>
      <trkpt lat="-27.9592" lon="-65.69802">
        <ele>1197.0</ele>
        <time>2018-08-19T16:55:20Z</time>
      </trkpt>
      <trkpt lat="-27.959135" lon="-65.69803">
        <ele>1197.1</ele>
        <time>2018-08-19T16:55:23Z</time>
      </trkpt>
      <trkpt lat="-27.959045" lon="-65.69804">
        <ele>1197.1</ele>
        <time>2018-08-19T16:55:26Z</time>
      </trkpt>
      <trkpt lat="-27.95895" lon="-65.698075">
        <ele>1197.1</ele>
        <time>2018-08-19T16:55:29Z</time>
      </trkpt>
      <trkpt lat="-27.958849999999998" lon="-65.698105">
        <ele>1197.1</ele>
        <time>2018-08-19T16:55:32Z</time>
      </trkpt>
      <trkpt lat="-27.95875" lon="-65.698125">
        <ele>1197.1</ele>
        <time>2018-08-19T16:55:35Z</time>
      </trkpt>
      <trkpt lat="-27.958655" lon="-65.69815">
        <ele>1197.0</ele>
        <time>2018-08-19T16:55:38Z</time>
      </trkpt>
      <trkpt lat="-27.958565" lon="-65.69816">
        <ele>1197.1</ele>
        <time>2018-08-19T16:55:41Z</time>
      </trkpt>
      <trkpt lat="-27.958475" lon="-65.69819">
        <ele>1197.1</ele>
        <time>2018-08-19T16:55:44Z</time>
      </trkpt>
      <trkpt lat="-27.958385" lon="-65.69822">
        <ele>1197.1</ele>
        <time>2018-08-19T16:55:47Z</time>
      </trkpt>
      <trkpt lat="-27.958295" lon="-65.698245">
        <ele>1197.2</ele>
        <time>2018-08-19T16:55:50Z</time>
      </trkpt>
      <trkpt lat="-27.9582" lon="-65.698265">
        <ele>1197.3</ele>
        <time>2018-08-19T16:55:53Z</time>
      </trkpt>
      <trkpt lat="-27.958115" lon="-65.6983">
        <ele>1197.3</ele>
        <time>2018-08-19T16:55:56Z</time>
      </trkpt>
      <trkpt lat="-27.958025" lon="-65.698305">
        <ele>1197.4</ele>
        <time>2018-08-19T16:55:59Z</time>
      </trkpt>
      <trkpt lat="-27.95795" lon="-65.69834">
        <ele>1197.5</ele>
        <time>2018-08-19T16:56:02Z</time>
      </trkpt>
      <trkpt lat="-27.957864999999998" lon="-65.69835">
        <ele>1197.6</ele>
        <time>2018-08-19T16:56:05Z</time>
      </trkpt>
      <trkpt lat="-27.957785" lon="-65.69838">
        <ele>1197.7</ele>
        <time>2018-08-19T16:56:08Z</time>
      </trkpt>
      <trkpt lat="-27.957715" lon="-65.69839">
        <ele>1197.8</ele>
        <time>2018-08-19T16:56:11Z</time>
      </trkpt>
      <trkpt lat="-27.95762" lon="-65.69843">
        <ele>1197.9</ele>
        <time>2018-08-19T16:56:15Z</time>
      </trkpt>
      <trkpt lat="-27.95755" lon="-65.698445">
        <ele>1198.1</ele>
        <time>2018-08-19T16:56:18Z</time>
      </trkpt>
      <trkpt lat="-27.957475" lon="-65.69847">
        <ele>1198.2</ele>
        <time>2018-08-19T16:56:21Z</time>
      </trkpt>
      <trkpt lat="-27.9574" lon="-65.69849">
        <ele>1198.3</ele>
        <time>2018-08-19T16:56:24Z</time>
      </trkpt>
      <trkpt lat="-27.95733" lon="-65.69851">
        <ele>1198.5</ele>
        <time>2018-08-19T16:56:27Z</time>
      </trkpt>
      <trkpt lat="-27.95724" lon="-65.69853">
        <ele>1198.7</ele>
        <time>2018-08-19T16:56:31Z</time>
      </trkpt>
      <trkpt lat="-27.957145" lon="-65.698555">
        <ele>1198.9</ele>
        <time>2018-08-19T16:56:35Z</time>
      </trkpt>
      <trkpt lat="-27.957075" lon="-65.698575">
        <ele>1199.1</ele>
        <time>2018-08-19T16:56:39Z</time>
      </trkpt>
      <trkpt lat="-27.95699" lon="-65.6986">
        <ele>1199.4</ele>
        <time>2018-08-19T16:56:43Z</time>
      </trkpt>
      <trkpt lat="-27.95692" lon="-65.698615">
        <ele>1199.6</ele>
        <time>2018-08-19T16:56:47Z</time>
      </trkpt>
      <trkpt lat="-27.95684" lon="-65.69864">
        <ele>1199.9</ele>
        <time>2018-08-19T16:56:51Z</time>
      </trkpt>
      <trkpt lat="-27.95676" lon="-65.69866">
        <ele>1200.3</ele>
        <time>2018-08-19T16:56:56Z</time>
      </trkpt>
      <trkpt lat="-27.956690000000002" lon="-65.69867">
        <ele>1200.6</ele>
        <time>2018-08-19T16:57:00Z</time>
      </trkpt>
      <trkpt lat="-27.956615" lon="-65.698695">
        <ele>1201.0</ele>
        <time>2018-08-19T16:57:04Z</time>
      </trkpt>
      <trkpt lat="-27.95654" lon="-65.698705">
        <ele>1201.2</ele>
        <time>2018-08-19T16:57:08Z</time>
      </trkpt>
      <trkpt lat="-27.95646" lon="-65.698745">
        <ele>1201.6</ele>
        <time>2018-08-19T16:57:13Z</time>
      </trkpt>
      <trkpt lat="-27.956375" lon="-65.698755">
        <ele>1202.0</ele>
        <time>2018-08-19T16:57:18Z</time>
      </trkpt>
      <trkpt lat="-27.956295" lon="-65.69878">
        <ele>1202.5</ele>
        <time>2018-08-19T16:57:23Z</time>
      </trkpt>
      <trkpt lat="-27.956215" lon="-65.6988">
        <ele>1203.1</ele>
        <time>2018-08-19T16:57:28Z</time>
      </trkpt>
      <trkpt lat="-27.956145" lon="-65.698825">
        <ele>1203.5</ele>
        <time>2018-08-19T16:57:32Z</time>
      </trkpt>
      <trkpt lat="-27.956055" lon="-65.69884">
        <ele>1204.0</ele>
        <time>2018-08-19T16:57:37Z</time>
      </trkpt>
      <trkpt lat="-27.95597" lon="-65.698875">
        <ele>1204.5</ele>
        <time>2018-08-19T16:57:42Z</time>
      </trkpt>
      <trkpt lat="-27.9559" lon="-65.698885">
        <ele>1204.8</ele>
        <time>2018-08-19T16:57:46Z</time>
      </trkpt>
      <trkpt lat="-27.955815" lon="-65.698915">
        <ele>1205.2</ele>
        <time>2018-08-19T16:57:50Z</time>
      </trkpt>
      <trkpt lat="-27.955745" lon="-65.69892">
        <ele>1205.6</ele>
        <time>2018-08-19T16:57:54Z</time>
      </trkpt>
      <trkpt lat="-27.955665" lon="-65.69895">
        <ele>1205.9</ele>
        <time>2018-08-19T16:57:58Z</time>
      </trkpt>
      <trkpt lat="-27.9556" lon="-65.69897">
        <ele>1206.3</ele>
        <time>2018-08-19T16:58:02Z</time>
      </trkpt>
      <trkpt lat="-27.95552" lon="-65.69898">
        <ele>1206.6</ele>
        <time>2018-08-19T16:58:06Z</time>
      </trkpt>
      <trkpt lat="-27.95544" lon="-65.699005">
        <ele>1207.0</ele>
        <time>2018-08-19T16:58:10Z</time>
      </trkpt>
      <trkpt lat="-27.955365" lon="-65.699005">
        <ele>1207.5</ele>
        <time>2018-08-19T16:58:16Z</time>
      </trkpt>
      <trkpt lat="-27.955375" lon="-65.699015">
        <ele>1207.6</ele>
        <time>2018-08-19T16:58:22Z</time>
      </trkpt>
      <trkpt lat="-27.95536" lon="-65.699025">
        <ele>1207.4</ele>
        <time>2018-08-19T16:58:32Z</time>
      </trkpt>
      <trkpt lat="-27.955365" lon="-65.699025">
        <ele>1207.3</ele>
        <time>2018-08-19T16:58:33Z</time>
      </trkpt>
      <trkpt lat="-27.955345" lon="-65.699005">
        <ele>1207.9</ele>
        <time>2018-08-19T16:58:45Z</time>
      </trkpt>
      <trkpt lat="-27.95534" lon="-65.699005">
        <ele>1208.1</ele>
        <time>2018-08-19T16:58:46Z</time>
      </trkpt>
      <trkpt lat="-27.955325" lon="-65.699025">
        <ele>1208.0</ele>
        <time>2018-08-19T16:58:54Z</time>
      </trkpt>
      <trkpt lat="-27.955325" lon="-65.699025">
        <ele>1207.9</ele>
        <time>2018-08-19T16:58:55Z</time>
      </trkpt>
      <trkpt lat="-27.95535" lon="-65.699025">
        <ele>1207.1</ele>
        <time>2018-08-19T16:59:10Z</time>
      </trkpt>
      <trkpt lat="-27.95535" lon="-65.699025">
        <ele>1207.0</ele>
        <time>2018-08-19T16:59:11Z</time>
      </trkpt>
      <trkpt lat="-27.955375" lon="-65.699065">
        <ele>1206.9</ele>
        <time>2018-08-19T16:59:20Z</time>
      </trkpt>
      <trkpt lat="-27.955375" lon="-65.699065">
        <ele>1206.9</ele>
        <time>2018-08-19T16:59:21Z</time>
      </trkpt>
      <trkpt lat="-27.955385" lon="-65.69909">
        <ele>1206.7</ele>
        <time>2018-08-19T16:59:31Z</time>
      </trkpt>
      <trkpt lat="-27.955385" lon="-65.699065">
        <ele>1206.7</ele>
        <time>2018-08-19T16:59:32Z</time>
      </trkpt>
      <trkpt lat="-27.9554" lon="-65.699065">
        <ele>1206.5</ele>
        <time>2018-08-19T16:59:41Z</time>
      </trkpt>
      <trkpt lat="-27.9554" lon="-65.699065">
        <ele>1206.5</ele>
        <time>2018-08-19T16:59:42Z</time>
      </trkpt>
      <trkpt lat="-27.9554" lon="-65.699055">
        <ele>1206.5</ele>
        <time>2018-08-19T16:59:52Z</time>
      </trkpt>
      <trkpt lat="-27.9554" lon="-65.699055">
        <ele>1206.5</ele>
        <time>2018-08-19T16:59:53Z</time>
      </trkpt>
      <trkpt lat="-27.955395" lon="-65.69898">
        <ele>1206.6</ele>
        <time>2018-08-19T17:00:18Z</time>
      </trkpt>
      <trkpt lat="-27.95539" lon="-65.69898">
        <ele>1206.7</ele>
        <time>2018-08-19T17:00:22Z</time>
      </trkpt>
      <trkpt lat="-27.955375" lon="-65.69898">
        <ele>1207.0</ele>
        <time>2018-08-19T17:00:36Z</time>
      </trkpt>
      <trkpt lat="-27.955375" lon="-65.69898">
        <ele>1207.0</ele>
        <time>2018-08-19T17:00:37Z</time>
      </trkpt>
      <trkpt lat="-27.955365" lon="-65.699005">
        <ele>1207.4</ele>
        <time>2018-08-19T17:00:46Z</time>
      </trkpt>
      <trkpt lat="-27.955365" lon="-65.699015">
        <ele>1207.6</ele>
        <time>2018-08-19T17:00:47Z</time>
      </trkpt>
      <trkpt lat="-27.95533" lon="-65.699005">
        <ele>1207.8</ele>
        <time>2018-08-19T17:00:56Z</time>
      </trkpt>
      <trkpt lat="-27.955325" lon="-65.698995">
        <ele>1207.8</ele>
        <time>2018-08-19T17:00:57Z</time>
      </trkpt>
      <trkpt lat="-27.955325" lon="-65.69898">
        <ele>1208.4</ele>
        <time>2018-08-19T17:01:13Z</time>
      </trkpt>
      <trkpt lat="-27.955325" lon="-65.69898">
        <ele>1208.5</ele>
        <time>2018-08-19T17:01:14Z</time>
      </trkpt>
      <trkpt lat="-27.95536" lon="-65.698995">
        <ele>1209.0</ele>
        <time>2018-08-19T17:01:22Z</time>
      </trkpt>
      <trkpt lat="-27.95536" lon="-65.699005">
        <ele>1209.0</ele>
        <time>2018-08-19T17:01:23Z</time>
      </trkpt>
      <trkpt lat="-27.955325" lon="-65.699025">
        <ele>1208.8</ele>
        <time>2018-08-19T17:01:31Z</time>
      </trkpt>
      <trkpt lat="-27.95532" lon="-65.699025">
        <ele>1208.8</ele>
        <time>2018-08-19T17:01:32Z</time>
      </trkpt>
      <trkpt lat="-27.955325" lon="-65.699015">
        <ele>1208.5</ele>
        <time>2018-08-19T17:01:40Z</time>
      </trkpt>
      <trkpt lat="-27.95533" lon="-65.699015">
        <ele>1208.5</ele>
        <time>2018-08-19T17:01:41Z</time>
      </trkpt>
      <trkpt lat="-27.955365" lon="-65.699025">
        <ele>1208.5</ele>
        <time>2018-08-19T17:01:49Z</time>
      </trkpt>
      <trkpt lat="-27.955365" lon="-65.699025">
        <ele>1208.4</ele>
        <time>2018-08-19T17:01:50Z</time>
      </trkpt>
      <trkpt lat="-27.955285" lon="-65.69906">
        <ele>1208.7</ele>
        <time>2018-08-19T17:02:07Z</time>
      </trkpt>
      <trkpt lat="-27.9552" lon="-65.699065">
        <ele>1208.9</ele>
        <time>2018-08-19T17:02:11Z</time>
      </trkpt>
      <trkpt lat="-27.955105" lon="-65.699105">
        <ele>1209.0</ele>
        <time>2018-08-19T17:02:15Z</time>
      </trkpt>
      <trkpt lat="-27.95502" lon="-65.69913">
        <ele>1209.1</ele>
        <time>2018-08-19T17:02:18Z</time>
      </trkpt>
      <trkpt lat="-27.95493" lon="-65.699145">
        <ele>1209.3</ele>
        <time>2018-08-19T17:02:21Z</time>
      </trkpt>
      <trkpt lat="-27.954845" lon="-65.699175">
        <ele>1209.4</ele>
        <time>2018-08-19T17:02:24Z</time>
      </trkpt>
      <trkpt lat="-27.95476" lon="-65.699205">
        <ele>1209.5</ele>
        <time>2018-08-19T17:02:27Z</time>
      </trkpt>
      <trkpt lat="-27.95466" lon="-65.69923">
        <ele>1209.5</ele>
        <time>2018-08-19T17:02:30Z</time>
      </trkpt>
      <trkpt lat="-27.954585" lon="-65.69925">
        <ele>1209.9</ele>
        <time>2018-08-19T17:02:32Z</time>
      </trkpt>
      <trkpt lat="-27.95449" lon="-65.699275">
        <ele>1210.1</ele>
        <time>2018-08-19T17:02:34Z</time>
      </trkpt>
      <trkpt lat="-27.9544" lon="-65.69929">
        <ele>1210.2</ele>
        <time>2018-08-19T17:02:36Z</time>
      </trkpt>
      <trkpt lat="-27.95431" lon="-65.699325">
        <ele>1210.1</ele>
        <time>2018-08-19T17:02:38Z</time>
      </trkpt>
      <trkpt lat="-27.954215" lon="-65.699335">
        <ele>1210.1</ele>
        <time>2018-08-19T17:02:40Z</time>
      </trkpt>
      <trkpt lat="-27.95411" lon="-65.699375">
        <ele>1210.2</ele>
        <time>2018-08-19T17:02:42Z</time>
      </trkpt>
      <trkpt lat="-27.95402" lon="-65.69937666666667">
        <ele>1210.3</ele>
        <time>2018-08-19T17:02:44Z</time>
      </trkpt>
      <trkpt lat="-27.95393" lon="-65.699415">
        <ele>1210.3</ele>
        <time>2018-08-19T17:02:46Z</time>
      </trkpt>
      <trkpt lat="-27.953845" lon="-65.699445">
        <ele>1210.2</ele>
        <time>2018-08-19T17:02:48Z</time>
      </trkpt>
      <trkpt lat="-27.953755" lon="-65.699465">
        <ele>1210.2</ele>
        <time>2018-08-19T17:02:50Z</time>
      </trkpt>
      <trkpt lat="-27.95366" lon="-65.699475">
        <ele>1210.4</ele>
        <time>2018-08-19T17:02:52Z</time>
      </trkpt>
      <trkpt lat="-27.953585" lon="-65.69951">
        <ele>1210.6</ele>
        <time>2018-08-19T17:02:54Z</time>
      </trkpt>
      <trkpt lat="-27.953505" lon="-65.699515">
        <ele>1210.7</ele>
        <time>2018-08-19T17:02:56Z</time>
      </trkpt>
      <trkpt lat="-27.95343" lon="-65.699555">
        <ele>1210.3</ele>
        <time>2018-08-19T17:02:58Z</time>
      </trkpt>
      <trkpt lat="-27.953355" lon="-65.699585">
        <ele>1209.3</ele>
        <time>2018-08-19T17:03:00Z</time>
      </trkpt>
      <trkpt lat="-27.953265000000002" lon="-65.6996">
        <ele>1209.3</ele>
        <time>2018-08-19T17:03:02Z</time>
      </trkpt>
      <trkpt lat="-27.95317" lon="-65.699625">
        <ele>1209.5</ele>
        <time>2018-08-19T17:03:04Z</time>
      </trkpt>
      <trkpt lat="-27.95309" lon="-65.699655">
        <ele>1209.5</ele>
        <time>2018-08-19T17:03:06Z</time>
      </trkpt>
      <trkpt lat="-27.953015" lon="-65.699675">
        <ele>1209.2</ele>
        <time>2018-08-19T17:03:08Z</time>
      </trkpt>
      <trkpt lat="-27.952925" lon="-65.6997">
        <ele>1208.7</ele>
        <time>2018-08-19T17:03:10Z</time>
      </trkpt>
      <trkpt lat="-27.952835" lon="-65.699725">
        <ele>1208.3</ele>
        <time>2018-08-19T17:03:12Z</time>
      </trkpt>
      <trkpt lat="-27.95274" lon="-65.69974">
        <ele>1208.3</ele>
        <time>2018-08-19T17:03:14Z</time>
      </trkpt>
      <trkpt lat="-27.95265" lon="-65.699765">
        <ele>1208.5</ele>
        <time>2018-08-19T17:03:16Z</time>
      </trkpt>
      <trkpt lat="-27.95256" lon="-65.699785">
        <ele>1209.2</ele>
        <time>2018-08-19T17:03:18Z</time>
      </trkpt>
      <trkpt lat="-27.952475" lon="-65.69982">
        <ele>1209.6</ele>
        <time>2018-08-19T17:03:20Z</time>
      </trkpt>
      <trkpt lat="-27.952385" lon="-65.699825">
        <ele>1209.8</ele>
        <time>2018-08-19T17:03:22Z</time>
      </trkpt>
      <trkpt lat="-27.952305" lon="-65.69986">
        <ele>1210.0</ele>
        <time>2018-08-19T17:03:24Z</time>
      </trkpt>
      <trkpt lat="-27.95222" lon="-65.69989">
        <ele>1210.2</ele>
        <time>2018-08-19T17:03:26Z</time>
      </trkpt>
      <trkpt lat="-27.95214" lon="-65.699905">
        <ele>1210.7</ele>
        <time>2018-08-19T17:03:28Z</time>
      </trkpt>
      <trkpt lat="-27.95206" lon="-65.699935">
        <ele>1211.3</ele>
        <time>2018-08-19T17:03:30Z</time>
      </trkpt>
      <trkpt lat="-27.95197" lon="-65.699955">
        <ele>1211.8</ele>
        <time>2018-08-19T17:03:32Z</time>
      </trkpt>
      <trkpt lat="-27.951875" lon="-65.699965">
        <ele>1212.3</ele>
        <time>2018-08-19T17:03:34Z</time>
      </trkpt>
      <trkpt lat="-27.9518" lon="-65.7">
        <ele>1212.8</ele>
        <time>2018-08-19T17:03:36Z</time>
      </trkpt>
      <trkpt lat="-27.951725" lon="-65.70001">
        <ele>1213.2</ele>
        <time>2018-08-19T17:03:38Z</time>
      </trkpt>
      <trkpt lat="-27.951645" lon="-65.700045">
        <ele>1213.7</ele>
        <time>2018-08-19T17:03:40Z</time>
      </trkpt>
      <trkpt lat="-27.951575" lon="-65.70005">
        <ele>1214.2</ele>
        <time>2018-08-19T17:03:42Z</time>
      </trkpt>
      <trkpt lat="-27.951495" lon="-65.700085">
        <ele>1214.5</ele>
        <time>2018-08-19T17:03:44Z</time>
      </trkpt>
      <trkpt lat="-27.95139" lon="-65.700095">
        <ele>1214.5</ele>
        <time>2018-08-19T17:03:47Z</time>
      </trkpt>
      <trkpt lat="-27.951305" lon="-65.70013">
        <ele>1214.6</ele>
        <time>2018-08-19T17:03:50Z</time>
      </trkpt>
      <trkpt lat="-27.95122" lon="-65.70013166666666">
        <ele>1214.7</ele>
        <time>2018-08-19T17:03:53Z</time>
      </trkpt>
      <trkpt lat="-27.951145" lon="-65.700175">
        <ele>1214.9</ele>
        <time>2018-08-19T17:03:56Z</time>
      </trkpt>
      <trkpt lat="-27.95106" lon="-65.70019">
        <ele>1215.0</ele>
        <time>2018-08-19T17:03:59Z</time>
      </trkpt>
      <trkpt lat="-27.950975" lon="-65.700215">
        <ele>1215.2</ele>
        <time>2018-08-19T17:04:02Z</time>
      </trkpt>
      <trkpt lat="-27.95089" lon="-65.700235">
        <ele>1215.4</ele>
        <time>2018-08-19T17:04:05Z</time>
      </trkpt>
      <trkpt lat="-27.950805" lon="-65.70026">
        <ele>1215.6</ele>
        <time>2018-08-19T17:04:09Z</time>
      </trkpt>
      <trkpt lat="-27.95073" lon="-65.700275">
        <ele>1215.8</ele>
        <time>2018-08-19T17:04:12Z</time>
      </trkpt>
      <trkpt lat="-27.95064" lon="-65.70031">
        <ele>1216.0</ele>
        <time>2018-08-19T17:04:15Z</time>
      </trkpt>
      <trkpt lat="-27.950535" lon="-65.70034">
        <ele>1216.2</ele>
        <time>2018-08-19T17:04:18Z</time>
      </trkpt>
      <trkpt lat="-27.950435" lon="-65.70036">
        <ele>1216.3</ele>
        <time>2018-08-19T17:04:21Z</time>
      </trkpt>
      <trkpt lat="-27.950335" lon="-65.700395">
        <ele>1216.5</ele>
        <time>2018-08-19T17:04:24Z</time>
      </trkpt>
      <trkpt lat="-27.95026" lon="-65.700415">
        <ele>1217.3</ele>
        <time>2018-08-19T17:04:26Z</time>
      </trkpt>
      <trkpt lat="-27.95018" lon="-65.700435">
        <ele>1218.0</ele>
        <time>2018-08-19T17:04:28Z</time>
      </trkpt>
      <trkpt lat="-27.950095" lon="-65.70046">
        <ele>1218.3</ele>
        <time>2018-08-19T17:04:30Z</time>
      </trkpt>
      <trkpt lat="-27.950015" lon="-65.700485">
        <ele>1218.2</ele>
        <time>2018-08-19T17:04:32Z</time>
      </trkpt>
      <trkpt lat="-27.94992" lon="-65.7005">
        <ele>1217.9</ele>
        <time>2018-08-19T17:04:34Z</time>
      </trkpt>
      <trkpt lat="-27.949825" lon="-65.700535">
        <ele>1218.1</ele>
        <time>2018-08-19T17:04:36Z</time>
      </trkpt>
      <trkpt lat="-27.949735" lon="-65.700565">
        <ele>1218.6</ele>
        <time>2018-08-19T17:04:38Z</time>
      </trkpt>
      <trkpt lat="-27.949635" lon="-65.700585">
        <ele>1219.1</ele>
        <time>2018-08-19T17:04:40Z</time>
      </trkpt>
      <trkpt lat="-27.94953" lon="-65.70062">
        <ele>1219.4</ele>
        <time>2018-08-19T17:04:42Z</time>
      </trkpt>
      <trkpt lat="-27.94942" lon="-65.70064">
        <ele>1219.4</ele>
        <time>2018-08-19T17:04:44Z</time>
      </trkpt>
      <trkpt lat="-27.9493" lon="-65.700675">
        <ele>1219.2</ele>
        <time>2018-08-19T17:04:46Z</time>
      </trkpt>
      <trkpt lat="-27.949185" lon="-65.700715">
        <ele>1219.0</ele>
        <time>2018-08-19T17:04:48Z</time>
      </trkpt>
      <trkpt lat="-27.94907" lon="-65.700725">
        <ele>1218.6</ele>
        <time>2018-08-19T17:04:50Z</time>
      </trkpt>
      <trkpt lat="-27.94896" lon="-65.70077">
        <ele>1218.6</ele>
        <time>2018-08-19T17:04:52Z</time>
      </trkpt>
      <trkpt lat="-27.948845" lon="-65.700805">
        <ele>1218.6</ele>
        <time>2018-08-19T17:04:54Z</time>
      </trkpt>
      <trkpt lat="-27.94873" lon="-65.70081">
        <ele>1218.6</ele>
        <time>2018-08-19T17:04:56Z</time>
      </trkpt>
      <trkpt lat="-27.94862" lon="-65.700845">
        <ele>1218.6</ele>
        <time>2018-08-19T17:04:58Z</time>
      </trkpt>
      <trkpt lat="-27.948505" lon="-65.700855">
        <ele>1218.5</ele>
        <time>2018-08-19T17:05:00Z</time>
      </trkpt>
      <trkpt lat="-27.94839" lon="-65.700885">
        <ele>1218.4</ele>
        <time>2018-08-19T17:05:02Z</time>
      </trkpt>
      <trkpt lat="-27.94828" lon="-65.70089">
        <ele>1218.3</ele>
        <time>2018-08-19T17:05:04Z</time>
      </trkpt>
      <trkpt lat="-27.948175" lon="-65.70089166666666">
        <ele>1218.2</ele>
        <time>2018-08-19T17:05:06Z</time>
      </trkpt>
      <trkpt lat="-27.94807" lon="-65.70092">
        <ele>1218.3</ele>
        <time>2018-08-19T17:05:08Z</time>
      </trkpt>
      <trkpt lat="-27.94797" lon="-65.700935">
        <ele>1218.3</ele>
        <time>2018-08-19T17:05:10Z</time>
      </trkpt>
      <trkpt lat="-27.947865" lon="-65.70094">
        <ele>1218.5</ele>
        <time>2018-08-19T17:05:12Z</time>
      </trkpt>
      <trkpt lat="-27.94777" lon="-65.70095">
        <ele>1218.7</ele>
        <time>2018-08-19T17:05:14Z</time>
      </trkpt>
      <trkpt lat="-27.947675" lon="-65.70095">
        <ele>1218.9</ele>
        <time>2018-08-19T17:05:16Z</time>
      </trkpt>
      <trkpt lat="-27.947575" lon="-65.70095">
        <ele>1219.0</ele>
        <time>2018-08-19T17:05:18Z</time>
      </trkpt>
      <trkpt lat="-27.947475" lon="-65.70094">
        <ele>1218.9</ele>
        <time>2018-08-19T17:05:20Z</time>
      </trkpt>
      <trkpt lat="-27.94738" lon="-65.70094">
        <ele>1218.8</ele>
        <time>2018-08-19T17:05:22Z</time>
      </trkpt>
      <trkpt lat="-27.947285" lon="-65.700935">
        <ele>1218.7</ele>
        <time>2018-08-19T17:05:24Z</time>
      </trkpt>
      <trkpt lat="-27.94718" lon="-65.70092">
        <ele>1218.5</ele>
        <time>2018-08-19T17:05:26Z</time>
      </trkpt>
      <trkpt lat="-27.94709" lon="-65.70089333333334">
        <ele>1218.4</ele>
        <time>2018-08-19T17:05:28Z</time>
      </trkpt>
      <trkpt lat="-27.94699" lon="-65.70089">
        <ele>1218.2</ele>
        <time>2018-08-19T17:05:30Z</time>
      </trkpt>
      <trkpt lat="-27.946895" lon="-65.70089">
        <ele>1218.1</ele>
        <time>2018-08-19T17:05:32Z</time>
      </trkpt>
      <trkpt lat="-27.9468" lon="-65.700875">
        <ele>1217.9</ele>
        <time>2018-08-19T17:05:34Z</time>
      </trkpt>
      <trkpt lat="-27.94671" lon="-65.700855">
        <ele>1217.8</ele>
        <time>2018-08-19T17:05:36Z</time>
      </trkpt>
      <trkpt lat="-27.94662" lon="-65.700835">
        <ele>1217.7</ele>
        <time>2018-08-19T17:05:38Z</time>
      </trkpt>
      <trkpt lat="-27.946525" lon="-65.70081">
        <ele>1217.5</ele>
        <time>2018-08-19T17:05:40Z</time>
      </trkpt>
      <trkpt lat="-27.94644" lon="-65.700795">
        <ele>1217.4</ele>
        <time>2018-08-19T17:05:42Z</time>
      </trkpt>
      <trkpt lat="-27.94634" lon="-65.70077">
        <ele>1216.9</ele>
        <time>2018-08-19T17:05:44Z</time>
      </trkpt>
      <trkpt lat="-27.94626" lon="-65.70075">
        <ele>1216.8</ele>
        <time>2018-08-19T17:05:46Z</time>
      </trkpt>
      <trkpt lat="-27.94618" lon="-65.700725">
        <ele>1216.8</ele>
        <time>2018-08-19T17:05:48Z</time>
      </trkpt>
      <trkpt lat="-27.946095" lon="-65.70067833333333">
        <ele>1216.7</ele>
        <time>2018-08-19T17:05:50Z</time>
      </trkpt>
      <trkpt lat="-27.946015" lon="-65.700665">
        <ele>1216.6</ele>
        <time>2018-08-19T17:05:52Z</time>
      </trkpt>
      <trkpt lat="-27.945925" lon="-65.70063">
        <ele>1216.6</ele>
        <time>2018-08-19T17:05:55Z</time>
      </trkpt>
      <trkpt lat="-27.94584" lon="-65.700585">
        <ele>1216.6</ele>
        <time>2018-08-19T17:05:58Z</time>
      </trkpt>
      <trkpt lat="-27.94576" lon="-65.700545">
        <ele>1216.7</ele>
        <time>2018-08-19T17:06:01Z</time>
      </trkpt>
      <trkpt lat="-27.945685" lon="-65.700525">
        <ele>1216.8</ele>
        <time>2018-08-19T17:06:04Z</time>
      </trkpt>
      <trkpt lat="-27.94561" lon="-65.700495">
        <ele>1216.9</ele>
        <time>2018-08-19T17:06:07Z</time>
      </trkpt>
      <trkpt lat="-27.945535" lon="-65.70046">
        <ele>1217.0</ele>
        <time>2018-08-19T17:06:11Z</time>
      </trkpt>
      <trkpt lat="-27.94546" lon="-65.70044">
        <ele>1216.9</ele>
        <time>2018-08-19T17:06:15Z</time>
      </trkpt>
      <trkpt lat="-27.94539" lon="-65.7004">
        <ele>1217.0</ele>
        <time>2018-08-19T17:06:19Z</time>
      </trkpt>
      <trkpt lat="-27.945315" lon="-65.70036">
        <ele>1217.2</ele>
        <time>2018-08-19T17:06:24Z</time>
      </trkpt>
      <trkpt lat="-27.94524" lon="-65.70032">
        <ele>1217.2</ele>
        <time>2018-08-19T17:06:30Z</time>
      </trkpt>
      <trkpt lat="-27.94517" lon="-65.7003">
        <ele>1217.1</ele>
        <time>2018-08-19T17:06:36Z</time>
      </trkpt>
      <trkpt lat="-27.9451" lon="-65.700265">
        <ele>1217.0</ele>
        <time>2018-08-19T17:06:41Z</time>
      </trkpt>
      <trkpt lat="-27.94502" lon="-65.700225">
        <ele>1217.2</ele>
        <time>2018-08-19T17:06:47Z</time>
      </trkpt>
      <trkpt lat="-27.944955" lon="-65.70018">
        <ele>1217.4</ele>
        <time>2018-08-19T17:06:52Z</time>
      </trkpt>
      <trkpt lat="-27.944875" lon="-65.70013">
        <ele>1217.6</ele>
        <time>2018-08-19T17:06:58Z</time>
      </trkpt>
      <trkpt lat="-27.944805" lon="-65.700095">
        <ele>1217.7</ele>
        <time>2018-08-19T17:07:04Z</time>
      </trkpt>
      <trkpt lat="-27.944735" lon="-65.70005">
        <ele>1218.0</ele>
        <time>2018-08-19T17:07:09Z</time>
      </trkpt>
      <trkpt lat="-27.94467" lon="-65.700035">
        <ele>1218.4</ele>
        <time>2018-08-19T17:07:16Z</time>
      </trkpt>
      <trkpt lat="-27.9446" lon="-65.7">
        <ele>1218.7</ele>
        <time>2018-08-19T17:07:21Z</time>
      </trkpt>
      <trkpt lat="-27.94453" lon="-65.699965">
        <ele>1219.0</ele>
        <time>2018-08-19T17:07:27Z</time>
      </trkpt>
      <trkpt lat="-27.94445" lon="-65.699935">
        <ele>1219.5</ele>
        <time>2018-08-19T17:07:32Z</time>
      </trkpt>
      <trkpt lat="-27.944375" lon="-65.69989">
        <ele>1220.3</ele>
        <time>2018-08-19T17:07:38Z</time>
      </trkpt>
      <trkpt lat="-27.944305" lon="-65.69986">
        <ele>1221.2</ele>
        <time>2018-08-19T17:07:43Z</time>
      </trkpt>
      <trkpt lat="-27.944235" lon="-65.699825">
        <ele>1222.0</ele>
        <time>2018-08-19T17:07:50Z</time>
      </trkpt>
      <trkpt lat="-27.944175" lon="-65.699785">
        <ele>1222.4</ele>
        <time>2018-08-19T17:07:56Z</time>
      </trkpt>
      <trkpt lat="-27.944095" lon="-65.69974">
        <ele>1222.8</ele>
        <time>2018-08-19T17:08:02Z</time>
      </trkpt>
      <trkpt lat="-27.944015" lon="-65.6997">
        <ele>1223.4</ele>
        <time>2018-08-19T17:08:09Z</time>
      </trkpt>
      <trkpt lat="-27.943945" lon="-65.699655">
        <ele>1223.8</ele>
        <time>2018-08-19T17:08:14Z</time>
      </trkpt>
      <trkpt lat="-27.943875" lon="-65.699625">
        <ele>1224.4</ele>
        <time>2018-08-19T17:08:20Z</time>
      </trkpt>
      <trkpt lat="-27.9438" lon="-65.69958">
        <ele>1224.8</ele>
        <time>2018-08-19T17:08:26Z</time>
      </trkpt>
      <trkpt lat="-27.943735" lon="-65.69954">
        <ele>1225.1</ele>
        <time>2018-08-19T17:08:31Z</time>
      </trkpt>
      <trkpt lat="-27.943665" lon="-65.69951">
        <ele>1225.5</ele>
        <time>2018-08-19T17:08:36Z</time>
      </trkpt>
      <trkpt lat="-27.943595" lon="-65.699475">
        <ele>1225.9</ele>
        <time>2018-08-19T17:08:41Z</time>
      </trkpt>
      <trkpt lat="-27.94351" lon="-65.69943">
        <ele>1226.4</ele>
        <time>2018-08-19T17:08:47Z</time>
      </trkpt>
      <trkpt lat="-27.94345" lon="-65.69937666666667">
        <ele>1226.9</ele>
        <time>2018-08-19T17:08:52Z</time>
      </trkpt>
      <trkpt lat="-27.943365" lon="-65.699355">
        <ele>1227.5</ele>
        <time>2018-08-19T17:08:58Z</time>
      </trkpt>
      <trkpt lat="-27.943285" lon="-65.699325">
        <ele>1228.0</ele>
        <time>2018-08-19T17:09:04Z</time>
      </trkpt>
      <trkpt lat="-27.943224999999998" lon="-65.699285">
        <ele>1228.5</ele>
        <time>2018-08-19T17:09:08Z</time>
      </trkpt>
      <trkpt lat="-27.94316" lon="-65.69924">
        <ele>1229.1</ele>
        <time>2018-08-19T17:09:14Z</time>
      </trkpt>
      <trkpt lat="-27.943085" lon="-65.699205">
        <ele>1229.6</ele>
        <time>2018-08-19T17:09:18Z</time>
      </trkpt>
      <trkpt lat="-27.94301" lon="-65.699175">
        <ele>1230.3</ele>
        <time>2018-08-19T17:09:23Z</time>
      </trkpt>
      <trkpt lat="-27.94294" lon="-65.699135">
        <ele>1230.9</ele>
        <time>2018-08-19T17:09:29Z</time>
      </trkpt>
      <trkpt lat="-27.94286" lon="-65.69909">
        <ele>1231.4</ele>
        <time>2018-08-19T17:09:35Z</time>
      </trkpt>
      <trkpt lat="-27.9428" lon="-65.699055">
        <ele>1231.8</ele>
        <time>2018-08-19T17:09:39Z</time>
      </trkpt>
      <trkpt lat="-27.942715" lon="-65.699005">
        <ele>1232.2</ele>
        <time>2018-08-19T17:09:44Z</time>
      </trkpt>
      <trkpt lat="-27.942655" lon="-65.69897">
        <ele>1232.6</ele>
        <time>2018-08-19T17:09:48Z</time>
      </trkpt>
      <trkpt lat="-27.94258" lon="-65.69892">
        <ele>1232.9</ele>
        <time>2018-08-19T17:09:53Z</time>
      </trkpt>
      <trkpt lat="-27.94251" lon="-65.698905">
        <ele>1233.2</ele>
        <time>2018-08-19T17:09:57Z</time>
      </trkpt>
      <trkpt lat="-27.942435" lon="-65.698865">
        <ele>1233.4</ele>
        <time>2018-08-19T17:10:01Z</time>
      </trkpt>
      <trkpt lat="-27.942355" lon="-65.698825">
        <ele>1233.5</ele>
        <time>2018-08-19T17:10:05Z</time>
      </trkpt>
      <trkpt lat="-27.94228" lon="-65.69878">
        <ele>1233.8</ele>
        <time>2018-08-19T17:10:10Z</time>
      </trkpt>
      <trkpt lat="-27.942205" lon="-65.69875">
        <ele>1233.9</ele>
        <time>2018-08-19T17:10:14Z</time>
      </trkpt>
      <trkpt lat="-27.942125" lon="-65.698705">
        <ele>1234.3</ele>
        <time>2018-08-19T17:10:19Z</time>
      </trkpt>
      <trkpt lat="-27.942055" lon="-65.69867">
        <ele>1234.5</ele>
        <time>2018-08-19T17:10:22Z</time>
      </trkpt>
      <trkpt lat="-27.94198" lon="-65.698615">
        <ele>1234.7</ele>
        <time>2018-08-19T17:10:27Z</time>
      </trkpt>
      <trkpt lat="-27.941905" lon="-65.698575">
        <ele>1235.1</ele>
        <time>2018-08-19T17:10:32Z</time>
      </trkpt>
      <trkpt lat="-27.94182" lon="-65.69853">
        <ele>1235.2</ele>
        <time>2018-08-19T17:10:36Z</time>
      </trkpt>
      <trkpt lat="-27.94173" lon="-65.69849">
        <ele>1235.3</ele>
        <time>2018-08-19T17:10:39Z</time>
      </trkpt>
      <trkpt lat="-27.94164" lon="-65.698445">
        <ele>1235.4</ele>
        <time>2018-08-19T17:10:42Z</time>
      </trkpt>
      <trkpt lat="-27.941575" lon="-65.69839">
        <ele>1235.5</ele>
        <time>2018-08-19T17:10:44Z</time>
      </trkpt>
      <trkpt lat="-27.941505" lon="-65.698375">
        <ele>1235.6</ele>
        <time>2018-08-19T17:10:46Z</time>
      </trkpt>
      <trkpt lat="-27.941435" lon="-65.69833">
        <ele>1235.7</ele>
        <time>2018-08-19T17:10:48Z</time>
      </trkpt>
      <trkpt lat="-27.941365" lon="-65.6983">
        <ele>1236.0</ele>
        <time>2018-08-19T17:10:50Z</time>
      </trkpt>
      <trkpt lat="-27.94129" lon="-65.698255">
        <ele>1236.3</ele>
        <time>2018-08-19T17:10:52Z</time>
      </trkpt>
      <trkpt lat="-27.941225" lon="-65.69822">
        <ele>1236.6</ele>
        <time>2018-08-19T17:10:54Z</time>
      </trkpt>
      <trkpt lat="-27.94114" lon="-65.69816166666666">
        <ele>1237.0</ele>
        <time>2018-08-19T17:10:57Z</time>
      </trkpt>
      <trkpt lat="-27.941055" lon="-65.698145">
        <ele>1237.3</ele>
        <time>2018-08-19T17:11:00Z</time>
      </trkpt>
      <trkpt lat="-27.940985" lon="-65.698105">
        <ele>1237.6</ele>
        <time>2018-08-19T17:11:02Z</time>
      </trkpt>
      <trkpt lat="-27.9409" lon="-65.698065">
        <ele>1237.9</ele>
        <time>2018-08-19T17:11:05Z</time>
      </trkpt>
      <trkpt lat="-27.940805" lon="-65.69802">
        <ele>1238.2</ele>
        <time>2018-08-19T17:11:08Z</time>
      </trkpt>
      <trkpt lat="-27.940725" lon="-65.697985">
        <ele>1238.6</ele>
        <time>2018-08-19T17:11:11Z</time>
      </trkpt>
      <trkpt lat="-27.940655" lon="-65.697935">
        <ele>1239.1</ele>
        <time>2018-08-19T17:11:14Z</time>
      </trkpt>
      <trkpt lat="-27.94057" lon="-65.69792">
        <ele>1239.7</ele>
        <time>2018-08-19T17:11:17Z</time>
      </trkpt>
      <trkpt lat="-27.940475" lon="-65.697895">
        <ele>1240.2</ele>
        <time>2018-08-19T17:11:20Z</time>
      </trkpt>
      <trkpt lat="-27.94041" lon="-65.697855">
        <ele>1240.6</ele>
        <time>2018-08-19T17:11:23Z</time>
      </trkpt>
      <trkpt lat="-27.940315" lon="-65.69785">
        <ele>1241.1</ele>
        <time>2018-08-19T17:11:26Z</time>
      </trkpt>
      <trkpt lat="-27.94022" lon="-65.697815">
        <ele>1241.6</ele>
        <time>2018-08-19T17:11:29Z</time>
      </trkpt>
      <trkpt lat="-27.94013" lon="-65.697795">
        <ele>1242.0</ele>
        <time>2018-08-19T17:11:32Z</time>
      </trkpt>
      <trkpt lat="-27.940055" lon="-65.69777166666667">
        <ele>1242.2</ele>
        <time>2018-08-19T17:11:34Z</time>
      </trkpt>
      <trkpt lat="-27.93995" lon="-65.69777">
        <ele>1242.3</ele>
        <time>2018-08-19T17:11:37Z</time>
      </trkpt>
      <trkpt lat="-27.939845" lon="-65.69777">
        <ele>1243.1</ele>
        <time>2018-08-19T17:11:40Z</time>
      </trkpt>
      <trkpt lat="-27.93976" lon="-65.697765">
        <ele>1243.4</ele>
        <time>2018-08-19T17:11:42Z</time>
      </trkpt>
      <trkpt lat="-27.939675" lon="-65.697755">
        <ele>1243.3</ele>
        <time>2018-08-19T17:11:44Z</time>
      </trkpt>
      <trkpt lat="-27.939595" lon="-65.69773">
        <ele>1242.9</ele>
        <time>2018-08-19T17:11:46Z</time>
      </trkpt>
      <trkpt lat="-27.93949" lon="-65.69773">
        <ele>1242.2</ele>
        <time>2018-08-19T17:11:48Z</time>
      </trkpt>
      <trkpt lat="-27.93938" lon="-65.69771">
        <ele>1241.9</ele>
        <time>2018-08-19T17:11:50Z</time>
      </trkpt>
      <trkpt lat="-27.93927" lon="-65.697685">
        <ele>1242.1</ele>
        <time>2018-08-19T17:11:52Z</time>
      </trkpt>
      <trkpt lat="-27.939155" lon="-65.69767">
        <ele>1242.7</ele>
        <time>2018-08-19T17:11:54Z</time>
      </trkpt>
      <trkpt lat="-27.939035" lon="-65.697655">
        <ele>1243.2</ele>
        <time>2018-08-19T17:11:56Z</time>
      </trkpt>
      <trkpt lat="-27.93892" lon="-65.69763">
        <ele>1243.6</ele>
        <time>2018-08-19T17:11:58Z</time>
      </trkpt>
      <trkpt lat="-27.938805" lon="-65.69762">
        <ele>1243.7</ele>
        <time>2018-08-19T17:12:00Z</time>
      </trkpt>
      <trkpt lat="-27.938705" lon="-65.69761">
        <ele>1242.8</ele>
        <time>2018-08-19T17:12:02Z</time>
      </trkpt>
      <trkpt lat="-27.938585" lon="-65.69759">
        <ele>1241.5</ele>
        <time>2018-08-19T17:12:04Z</time>
      </trkpt>
      <trkpt lat="-27.93848" lon="-65.69759">
        <ele>1240.8</ele>
        <time>2018-08-19T17:12:06Z</time>
      </trkpt>
      <trkpt lat="-27.93838" lon="-65.69759">
        <ele>1239.6</ele>
        <time>2018-08-19T17:12:08Z</time>
      </trkpt>
      <trkpt lat="-27.938285" lon="-65.69758">
        <ele>1238.6</ele>
        <time>2018-08-19T17:12:10Z</time>
      </trkpt>
      <trkpt lat="-27.93819" lon="-65.69757">
        <ele>1237.7</ele>
        <time>2018-08-19T17:12:12Z</time>
      </trkpt>
      <trkpt lat="-27.938105" lon="-65.697545">
        <ele>1237.3</ele>
        <time>2018-08-19T17:12:14Z</time>
      </trkpt>
      <trkpt lat="-27.93803" lon="-65.697545">
        <ele>1237.9</ele>
        <time>2018-08-19T17:12:16Z</time>
      </trkpt>
      <trkpt lat="-27.937925" lon="-65.69753">
        <ele>1237.9</ele>
        <time>2018-08-19T17:12:19Z</time>
      </trkpt>
      <trkpt lat="-27.937805" lon="-65.697505">
        <ele>1238.0</ele>
        <time>2018-08-19T17:12:22Z</time>
      </trkpt>
      <trkpt lat="-27.937725" lon="-65.697495">
        <ele>1238.2</ele>
        <time>2018-08-19T17:12:24Z</time>
      </trkpt>
      <trkpt lat="-27.93762" lon="-65.697475">
        <ele>1238.5</ele>
        <time>2018-08-19T17:12:27Z</time>
      </trkpt>
      <trkpt lat="-27.937515" lon="-65.69745">
        <ele>1238.8</ele>
        <time>2018-08-19T17:12:30Z</time>
      </trkpt>
      <trkpt lat="-27.937405" lon="-65.69744">
        <ele>1239.1</ele>
        <time>2018-08-19T17:12:33Z</time>
      </trkpt>
      <trkpt lat="-27.937305" lon="-65.697405">
        <ele>1239.5</ele>
        <time>2018-08-19T17:12:36Z</time>
      </trkpt>
      <trkpt lat="-27.937205" lon="-65.697405">
        <ele>1239.8</ele>
        <time>2018-08-19T17:12:39Z</time>
      </trkpt>
      <trkpt lat="-27.937115" lon="-65.6974">
        <ele>1240.1</ele>
        <time>2018-08-19T17:12:42Z</time>
      </trkpt>
      <trkpt lat="-27.937025" lon="-65.69739">
        <ele>1240.4</ele>
        <time>2018-08-19T17:12:45Z</time>
      </trkpt>
      <trkpt lat="-27.936945" lon="-65.697365">
        <ele>1240.7</ele>
        <time>2018-08-19T17:12:48Z</time>
      </trkpt>
      <trkpt lat="-27.93687" lon="-65.697365">
        <ele>1241.0</ele>
        <time>2018-08-19T17:12:51Z</time>
      </trkpt>
      <trkpt lat="-27.93679" lon="-65.697355">
        <ele>1241.3</ele>
        <time>2018-08-19T17:12:54Z</time>
      </trkpt>
      <trkpt lat="-27.93671" lon="-65.697345">
        <ele>1241.6</ele>
        <time>2018-08-19T17:12:57Z</time>
      </trkpt>
      <trkpt lat="-27.936615" lon="-65.69732">
        <ele>1242.1</ele>
        <time>2018-08-19T17:13:01Z</time>
      </trkpt>
      <trkpt lat="-27.93653" lon="-65.69732">
        <ele>1242.4</ele>
        <time>2018-08-19T17:13:04Z</time>
      </trkpt>
      <trkpt lat="-27.936445" lon="-65.69732">
        <ele>1242.8</ele>
        <time>2018-08-19T17:13:08Z</time>
      </trkpt>
      <trkpt lat="-27.936355" lon="-65.69731">
        <ele>1243.3</ele>
        <time>2018-08-19T17:13:13Z</time>
      </trkpt>
      <trkpt lat="-27.93628" lon="-65.6973">
        <ele>1243.8</ele>
        <time>2018-08-19T17:13:18Z</time>
      </trkpt>
      <trkpt lat="-27.93619" lon="-65.69728">
        <ele>1244.4</ele>
        <time>2018-08-19T17:13:23Z</time>
      </trkpt>
      <trkpt lat="-27.936115" lon="-65.69728">
        <ele>1244.8</ele>
        <time>2018-08-19T17:13:28Z</time>
      </trkpt>
      <trkpt lat="-27.93603" lon="-65.69728">
        <ele>1245.7</ele>
        <time>2018-08-19T17:13:35Z</time>
      </trkpt>
      <trkpt lat="-27.93595" lon="-65.69728">
        <ele>1246.4</ele>
        <time>2018-08-19T17:13:41Z</time>
      </trkpt>
      <trkpt lat="-27.93587" lon="-65.69728">
        <ele>1247.0</ele>
        <time>2018-08-19T17:13:47Z</time>
      </trkpt>
      <trkpt lat="-27.935795" lon="-65.6973">
        <ele>1247.6</ele>
        <time>2018-08-19T17:13:52Z</time>
      </trkpt>
      <trkpt lat="-27.935715" lon="-65.697305">
        <ele>1248.3</ele>
        <time>2018-08-19T17:13:58Z</time>
      </trkpt>
      <trkpt lat="-27.93563" lon="-65.697315">
        <ele>1249.0</ele>
        <time>2018-08-19T17:14:04Z</time>
      </trkpt>
      <trkpt lat="-27.935545" lon="-65.69732">
        <ele>1249.6</ele>
        <time>2018-08-19T17:14:10Z</time>
      </trkpt>
      <trkpt lat="-27.935465" lon="-65.69732">
        <ele>1250.2</ele>
        <time>2018-08-19T17:14:16Z</time>
      </trkpt>
      <trkpt lat="-27.935389999999998" lon="-65.69732">
        <ele>1250.8</ele>
        <time>2018-08-19T17:14:22Z</time>
      </trkpt>
      <trkpt lat="-27.93531" lon="-65.69732">
        <ele>1251.4</ele>
        <time>2018-08-19T17:14:28Z</time>
      </trkpt>
      <trkpt lat="-27.935235" lon="-65.697355">
        <ele>1252.1</ele>
        <time>2018-08-19T17:14:34Z</time>
      </trkpt>
      <trkpt lat="-27.93516" lon="-65.697365">
        <ele>1252.8</ele>
        <time>2018-08-19T17:14:40Z</time>
      </trkpt>
      <trkpt lat="-27.93508" lon="-65.697385">
        <ele>1253.4</ele>
        <time>2018-08-19T17:14:46Z</time>
      </trkpt>
      <trkpt lat="-27.935" lon="-65.697405">
        <ele>1253.9</ele>
        <time>2018-08-19T17:14:52Z</time>
      </trkpt>
      <trkpt lat="-27.934925" lon="-65.69743">
        <ele>1254.5</ele>
        <time>2018-08-19T17:14:59Z</time>
      </trkpt>
      <trkpt lat="-27.934855" lon="-65.69745">
        <ele>1255.0</ele>
        <time>2018-08-19T17:15:05Z</time>
      </trkpt>
      <trkpt lat="-27.93477" lon="-65.697475">
        <ele>1255.6</ele>
        <time>2018-08-19T17:15:11Z</time>
      </trkpt>
      <trkpt lat="-27.93469" lon="-65.697485">
        <ele>1256.2</ele>
        <time>2018-08-19T17:15:17Z</time>
      </trkpt>
      <trkpt lat="-27.93461" lon="-65.697525">
        <ele>1256.8</ele>
        <time>2018-08-19T17:15:23Z</time>
      </trkpt>
      <trkpt lat="-27.93455" lon="-65.697545">
        <ele>1257.3</ele>
        <time>2018-08-19T17:15:28Z</time>
      </trkpt>
      <trkpt lat="-27.934475" lon="-65.69757">
        <ele>1258.0</ele>
        <time>2018-08-19T17:15:34Z</time>
      </trkpt>
      <trkpt lat="-27.934405" lon="-65.69759">
        <ele>1258.7</ele>
        <time>2018-08-19T17:15:39Z</time>
      </trkpt>
      <trkpt lat="-27.934325" lon="-65.697625">
        <ele>1259.6</ele>
        <time>2018-08-19T17:15:46Z</time>
      </trkpt>
      <trkpt lat="-27.93425" lon="-65.697655">
        <ele>1260.4</ele>
        <time>2018-08-19T17:15:52Z</time>
      </trkpt>
      <trkpt lat="-27.93417" lon="-65.697685">
        <ele>1261.0</ele>
        <time>2018-08-19T17:15:58Z</time>
      </trkpt>
      <trkpt lat="-27.93409" lon="-65.69772">
        <ele>1261.6</ele>
        <time>2018-08-19T17:16:04Z</time>
      </trkpt>
      <trkpt lat="-27.934025" lon="-65.697765">
        <ele>1262.1</ele>
        <time>2018-08-19T17:16:08Z</time>
      </trkpt>
      <trkpt lat="-27.933955" lon="-65.697795">
        <ele>1262.5</ele>
        <time>2018-08-19T17:16:12Z</time>
      </trkpt>
      <trkpt lat="-27.933885" lon="-65.69784">
        <ele>1263.1</ele>
        <time>2018-08-19T17:16:17Z</time>
      </trkpt>
      <trkpt lat="-27.933815" lon="-65.69788">
        <ele>1263.7</ele>
        <time>2018-08-19T17:16:22Z</time>
      </trkpt>
      <trkpt lat="-27.933745000000002" lon="-65.697925">
        <ele>1264.4</ele>
        <time>2018-08-19T17:16:28Z</time>
      </trkpt>
      <trkpt lat="-27.933675" lon="-65.69793833333334">
        <ele>1265.0</ele>
        <time>2018-08-19T17:16:34Z</time>
      </trkpt>
      <trkpt lat="-27.93361" lon="-65.69801">
        <ele>1265.5</ele>
        <time>2018-08-19T17:16:39Z</time>
      </trkpt>
      <trkpt lat="-27.93354" lon="-65.69804">
        <ele>1266.0</ele>
        <time>2018-08-19T17:16:44Z</time>
      </trkpt>
      <trkpt lat="-27.93347" lon="-65.698105">
        <ele>1266.6</ele>
        <time>2018-08-19T17:16:49Z</time>
      </trkpt>
      <trkpt lat="-27.9334" lon="-65.69816">
        <ele>1267.3</ele>
        <time>2018-08-19T17:16:55Z</time>
      </trkpt>
      <trkpt lat="-27.933325" lon="-65.69821">
        <ele>1267.8</ele>
        <time>2018-08-19T17:17:00Z</time>
      </trkpt>
      <trkpt lat="-27.933265" lon="-65.698265">
        <ele>1268.4</ele>
        <time>2018-08-19T17:17:05Z</time>
      </trkpt>
      <trkpt lat="-27.933195" lon="-65.698305">
        <ele>1269.0</ele>
        <time>2018-08-19T17:17:10Z</time>
      </trkpt>
      <trkpt lat="-27.933125" lon="-65.69838">
        <ele>1269.5</ele>
        <time>2018-08-19T17:17:16Z</time>
      </trkpt>
      <trkpt lat="-27.933055" lon="-65.698425">
        <ele>1270.0</ele>
        <time>2018-08-19T17:17:21Z</time>
      </trkpt>
      <trkpt lat="-27.932995" lon="-65.69848">
        <ele>1270.5</ele>
        <time>2018-08-19T17:17:26Z</time>
      </trkpt>
      <trkpt lat="-27.93293" lon="-65.69853">
        <ele>1270.9</ele>
        <time>2018-08-19T17:17:31Z</time>
      </trkpt>
      <trkpt lat="-27.932855" lon="-65.698595">
        <ele>1271.3</ele>
        <time>2018-08-19T17:17:36Z</time>
      </trkpt>
      <trkpt lat="-27.93278" lon="-65.69864">
        <ele>1271.7</ele>
        <time>2018-08-19T17:17:41Z</time>
      </trkpt>
      <trkpt lat="-27.932725" lon="-65.69867">
        <ele>1271.9</ele>
        <time>2018-08-19T17:17:47Z</time>
      </trkpt>
      <trkpt lat="-27.932665" lon="-65.69874">
        <ele>1272.1</ele>
        <time>2018-08-19T17:17:52Z</time>
      </trkpt>
      <trkpt lat="-27.93259" lon="-65.69879">
        <ele>1272.3</ele>
        <time>2018-08-19T17:17:57Z</time>
      </trkpt>
      <trkpt lat="-27.932535" lon="-65.69884">
        <ele>1272.3</ele>
        <time>2018-08-19T17:18:02Z</time>
      </trkpt>
      <trkpt lat="-27.93247" lon="-65.698885">
        <ele>1272.6</ele>
        <time>2018-08-19T17:18:08Z</time>
      </trkpt>
      <trkpt lat="-27.9324" lon="-65.69895">
        <ele>1273.0</ele>
        <time>2018-08-19T17:18:13Z</time>
      </trkpt>
      <trkpt lat="-27.93235" lon="-65.699005">
        <ele>1273.6</ele>
        <time>2018-08-19T17:18:18Z</time>
      </trkpt>
      <trkpt lat="-27.93228" lon="-65.69906">
        <ele>1274.3</ele>
        <time>2018-08-19T17:18:24Z</time>
      </trkpt>
      <trkpt lat="-27.93221" lon="-65.69911">
        <ele>1275.0</ele>
        <time>2018-08-19T17:18:29Z</time>
      </trkpt>
      <trkpt lat="-27.93214" lon="-65.69914666666666">
        <ele>1275.6</ele>
        <time>2018-08-19T17:18:34Z</time>
      </trkpt>
      <trkpt lat="-27.932085" lon="-65.69922">
        <ele>1276.2</ele>
        <time>2018-08-19T17:18:40Z</time>
      </trkpt>
      <trkpt lat="-27.932015" lon="-65.699275">
        <ele>1276.5</ele>
        <time>2018-08-19T17:18:46Z</time>
      </trkpt>
      <trkpt lat="-27.93195" lon="-65.699315">
        <ele>1276.8</ele>
        <time>2018-08-19T17:18:51Z</time>
      </trkpt>
      <trkpt lat="-27.93188" lon="-65.69937">
        <ele>1277.1</ele>
        <time>2018-08-19T17:18:56Z</time>
      </trkpt>
      <trkpt lat="-27.93181" lon="-65.69942">
        <ele>1277.4</ele>
        <time>2018-08-19T17:19:02Z</time>
      </trkpt>
      <trkpt lat="-27.931745" lon="-65.699465">
        <ele>1277.7</ele>
        <time>2018-08-19T17:19:07Z</time>
      </trkpt>
      <trkpt lat="-27.931675" lon="-65.69951">
        <ele>1278.1</ele>
        <time>2018-08-19T17:19:12Z</time>
      </trkpt>
      <trkpt lat="-27.931595" lon="-65.69955">
        <ele>1278.4</ele>
        <time>2018-08-19T17:19:17Z</time>
      </trkpt>
      <trkpt lat="-27.931515" lon="-65.699585">
        <ele>1278.9</ele>
        <time>2018-08-19T17:19:22Z</time>
      </trkpt>
      <trkpt lat="-27.931445" lon="-65.6996">
        <ele>1279.4</ele>
        <time>2018-08-19T17:19:27Z</time>
      </trkpt>
      <trkpt lat="-27.931375" lon="-65.699655">
        <ele>1279.8</ele>
        <time>2018-08-19T17:19:32Z</time>
      </trkpt>
      <trkpt lat="-27.931295" lon="-65.6997">
        <ele>1280.4</ele>
        <time>2018-08-19T17:19:37Z</time>
      </trkpt>
      <trkpt lat="-27.93122" lon="-65.69973">
        <ele>1280.8</ele>
        <time>2018-08-19T17:19:42Z</time>
      </trkpt>
      <trkpt lat="-27.931145" lon="-65.699775">
        <ele>1281.3</ele>
        <time>2018-08-19T17:19:47Z</time>
      </trkpt>
      <trkpt lat="-27.931075" lon="-65.699805">
        <ele>1281.6</ele>
        <time>2018-08-19T17:19:51Z</time>
      </trkpt>
      <trkpt lat="-27.93099" lon="-65.699825">
        <ele>1282.0</ele>
        <time>2018-08-19T17:19:56Z</time>
      </trkpt>
      <trkpt lat="-27.93091" lon="-65.69987">
        <ele>1282.3</ele>
        <time>2018-08-19T17:20:01Z</time>
      </trkpt>
      <trkpt lat="-27.930825" lon="-65.6999">
        <ele>1282.7</ele>
        <time>2018-08-19T17:20:06Z</time>
      </trkpt>
      <trkpt lat="-27.93075" lon="-65.69990833333334">
        <ele>1283.1</ele>
        <time>2018-08-19T17:20:11Z</time>
      </trkpt>
      <trkpt lat="-27.93067" lon="-65.699955">
        <ele>1283.5</ele>
        <time>2018-08-19T17:20:16Z</time>
      </trkpt>
      <trkpt lat="-27.930585" lon="-65.69998">
        <ele>1283.9</ele>
        <time>2018-08-19T17:20:21Z</time>
      </trkpt>
      <trkpt lat="-27.930509999999998" lon="-65.70001">
        <ele>1284.3</ele>
        <time>2018-08-19T17:20:26Z</time>
      </trkpt>
      <trkpt lat="-27.93043" lon="-65.70004">
        <ele>1284.4</ele>
        <time>2018-08-19T17:20:30Z</time>
      </trkpt>
      <trkpt lat="-27.93035" lon="-65.70005">
        <ele>1284.7</ele>
        <time>2018-08-19T17:20:35Z</time>
      </trkpt>
      <trkpt lat="-27.930275" lon="-65.700085">
        <ele>1285.0</ele>
        <time>2018-08-19T17:20:39Z</time>
      </trkpt>
      <trkpt lat="-27.930255" lon="-65.700095">
        <ele>1285.2</ele>
        <time>2018-08-19T17:20:46Z</time>
      </trkpt>
      <trkpt lat="-27.930255" lon="-65.700095">
        <ele>1285.3</ele>
        <time>2018-08-19T17:20:47Z</time>
      </trkpt>
      <trkpt lat="-27.930255" lon="-65.700075">
        <ele>1285.5</ele>
        <time>2018-08-19T17:20:58Z</time>
      </trkpt>
      <trkpt lat="-27.930265" lon="-65.70005">
        <ele>1285.5</ele>
        <time>2018-08-19T17:20:59Z</time>
      </trkpt>
      <trkpt lat="-27.930245" lon="-65.700095">
        <ele>1285.4</ele>
        <time>2018-08-19T17:21:14Z</time>
      </trkpt>
      <trkpt lat="-27.930245" lon="-65.700095">
        <ele>1285.4</ele>
        <time>2018-08-19T17:21:15Z</time>
      </trkpt>
      <trkpt lat="-27.930225" lon="-65.700125">
        <ele>1285.4</ele>
        <time>2018-08-19T17:21:25Z</time>
      </trkpt>
      <trkpt lat="-27.93023" lon="-65.700125">
        <ele>1285.4</ele>
        <time>2018-08-19T17:21:26Z</time>
      </trkpt>
      <trkpt lat="-27.930255" lon="-65.700125">
        <ele>1285.4</ele>
        <time>2018-08-19T17:21:34Z</time>
      </trkpt>
      <trkpt lat="-27.930245" lon="-65.700125">
        <ele>1285.3</ele>
        <time>2018-08-19T17:21:35Z</time>
      </trkpt>
      <trkpt lat="-27.93023" lon="-65.700095">
        <ele>1285.4</ele>
        <time>2018-08-19T17:21:44Z</time>
      </trkpt>
      <trkpt lat="-27.93023" lon="-65.700095">
        <ele>1285.6</ele>
        <time>2018-08-19T17:21:45Z</time>
      </trkpt>
      <trkpt lat="-27.930245" lon="-65.700095">
        <ele>1286.3</ele>
        <time>2018-08-19T17:21:56Z</time>
      </trkpt>
      <trkpt lat="-27.930245" lon="-65.700095">
        <ele>1286.4</ele>
        <time>2018-08-19T17:21:57Z</time>
      </trkpt>
      <trkpt lat="-27.930235" lon="-65.700075">
        <ele>1287.8</ele>
        <time>2018-08-19T17:22:17Z</time>
      </trkpt>
      <trkpt lat="-27.930235" lon="-65.700075">
        <ele>1287.8</ele>
        <time>2018-08-19T17:22:18Z</time>
      </trkpt>
      <trkpt lat="-27.930255" lon="-65.70009">
        <ele>1287.4</ele>
        <time>2018-08-19T17:22:28Z</time>
      </trkpt>
      <trkpt lat="-27.930255" lon="-65.700095">
        <ele>1287.4</ele>
        <time>2018-08-19T17:22:29Z</time>
      </trkpt>
      <trkpt lat="-27.93023" lon="-65.700115">
        <ele>1287.7</ele>
        <time>2018-08-19T17:22:40Z</time>
      </trkpt>
      <trkpt lat="-27.93023" lon="-65.70012">
        <ele>1287.7</ele>
        <time>2018-08-19T17:22:41Z</time>
      </trkpt>
      <trkpt lat="-27.930245" lon="-65.700095">
        <ele>1288.2</ele>
        <time>2018-08-19T17:22:54Z</time>
      </trkpt>
      <trkpt lat="-27.930245" lon="-65.700095">
        <ele>1288.2</ele>
        <time>2018-08-19T17:22:55Z</time>
      </trkpt>
      <trkpt lat="-27.93022" lon="-65.70012">
        <ele>1288.3</ele>
        <time>2018-08-19T17:23:15Z</time>
      </trkpt>
      <trkpt lat="-27.930215" lon="-65.70012">
        <ele>1288.4</ele>
        <time>2018-08-19T17:23:16Z</time>
      </trkpt>
      <trkpt lat="-27.930205" lon="-65.700115">
        <ele>1289.0</ele>
        <time>2018-08-19T17:23:26Z</time>
      </trkpt>
      <trkpt lat="-27.930205" lon="-65.70012">
        <ele>1289.3</ele>
        <time>2018-08-19T17:23:27Z</time>
      </trkpt>
      <trkpt lat="-27.930205" lon="-65.70012">
        <ele>1289.5</ele>
        <time>2018-08-19T17:23:37Z</time>
      </trkpt>
      <trkpt lat="-27.930205" lon="-65.70012">
        <ele>1289.5</ele>
        <time>2018-08-19T17:23:38Z</time>
      </trkpt>
      <trkpt lat="-27.9302" lon="-65.700125">
        <ele>1290.5</ele>
        <time>2018-08-19T17:23:54Z</time>
      </trkpt>
      <trkpt lat="-27.9302" lon="-65.700125">
        <ele>1290.5</ele>
        <time>2018-08-19T17:23:55Z</time>
      </trkpt>
      <trkpt lat="-27.9302" lon="-65.700115">
        <ele>1291.3</ele>
        <time>2018-08-19T17:24:05Z</time>
      </trkpt>
      <trkpt lat="-27.9302" lon="-65.700095">
        <ele>1291.3</ele>
        <time>2018-08-19T17:24:06Z</time>
      </trkpt>
      <trkpt lat="-27.930245" lon="-65.700115">
        <ele>1291.5</ele>
        <time>2018-08-19T17:24:19Z</time>
      </trkpt>
      <trkpt lat="-27.93024" lon="-65.700115">
        <ele>1291.5</ele>
        <time>2018-08-19T17:24:20Z</time>
      </trkpt>
      <trkpt lat="-27.93023" lon="-65.700095">
        <ele>1291.3</ele>
        <time>2018-08-19T17:24:28Z</time>
      </trkpt>
      <trkpt lat="-27.93023" lon="-65.700095">
        <ele>1291.2</ele>
        <time>2018-08-19T17:24:29Z</time>
      </trkpt>
      <trkpt lat="-27.930135" lon="-65.700125">
        <ele>1290.8</ele>
        <time>2018-08-19T17:24:33Z</time>
      </trkpt>
      <trkpt lat="-27.93005" lon="-65.70013">
        <ele>1290.3</ele>
        <time>2018-08-19T17:24:36Z</time>
      </trkpt>
      <trkpt lat="-27.929975" lon="-65.70013">
        <ele>1289.8</ele>
        <time>2018-08-19T17:24:40Z</time>
      </trkpt>
      <trkpt lat="-27.92989" lon="-65.70017">
        <ele>1289.3</ele>
        <time>2018-08-19T17:24:44Z</time>
      </trkpt>
      <trkpt lat="-27.929815" lon="-65.70019">
        <ele>1288.8</ele>
        <time>2018-08-19T17:24:48Z</time>
      </trkpt>
      <trkpt lat="-27.929735" lon="-65.700225">
        <ele>1288.4</ele>
        <time>2018-08-19T17:24:53Z</time>
      </trkpt>
      <trkpt lat="-27.92966" lon="-65.700275">
        <ele>1288.5</ele>
        <time>2018-08-19T17:24:58Z</time>
      </trkpt>
      <trkpt lat="-27.92958" lon="-65.700315">
        <ele>1288.8</ele>
        <time>2018-08-19T17:25:02Z</time>
      </trkpt>
      <trkpt lat="-27.929505" lon="-65.700345">
        <ele>1289.0</ele>
        <time>2018-08-19T17:25:06Z</time>
      </trkpt>
      <trkpt lat="-27.92943" lon="-65.70036">
        <ele>1289.3</ele>
        <time>2018-08-19T17:25:10Z</time>
      </trkpt>
      <trkpt lat="-27.929355" lon="-65.700405">
        <ele>1289.6</ele>
        <time>2018-08-19T17:25:14Z</time>
      </trkpt>
      <trkpt lat="-27.92927" lon="-65.70045">
        <ele>1289.8</ele>
        <time>2018-08-19T17:25:18Z</time>
      </trkpt>
      <trkpt lat="-27.929195" lon="-65.70049">
        <ele>1290.1</ele>
        <time>2018-08-19T17:25:22Z</time>
      </trkpt>
      <trkpt lat="-27.929105" lon="-65.700535">
        <ele>1290.5</ele>
        <time>2018-08-19T17:25:26Z</time>
      </trkpt>
      <trkpt lat="-27.92903" lon="-65.700585">
        <ele>1290.8</ele>
        <time>2018-08-19T17:25:30Z</time>
      </trkpt>
      <trkpt lat="-27.92897" lon="-65.70063">
        <ele>1290.9</ele>
        <time>2018-08-19T17:25:34Z</time>
      </trkpt>
      <trkpt lat="-27.92889" lon="-65.700675">
        <ele>1291.0</ele>
        <time>2018-08-19T17:25:38Z</time>
      </trkpt>
      <trkpt lat="-27.928835" lon="-65.700725">
        <ele>1291.3</ele>
        <time>2018-08-19T17:25:42Z</time>
      </trkpt>
      <trkpt lat="-27.928765" lon="-65.700795">
        <ele>1291.3</ele>
        <time>2018-08-19T17:25:46Z</time>
      </trkpt>
      <trkpt lat="-27.92869" lon="-65.70085">
        <ele>1291.3</ele>
        <time>2018-08-19T17:25:49Z</time>
      </trkpt>
      <trkpt lat="-27.928615" lon="-65.70089">
        <ele>1291.4</ele>
        <time>2018-08-19T17:25:53Z</time>
      </trkpt>
      <trkpt lat="-27.92856" lon="-65.70095">
        <ele>1291.6</ele>
        <time>2018-08-19T17:25:56Z</time>
      </trkpt>
      <trkpt lat="-27.92849" lon="-65.700995">
        <ele>1291.8</ele>
        <time>2018-08-19T17:25:59Z</time>
      </trkpt>
      <trkpt lat="-27.928425" lon="-65.701035">
        <ele>1292.1</ele>
        <time>2018-08-19T17:26:02Z</time>
      </trkpt>
      <trkpt lat="-27.92837" lon="-65.70111">
        <ele>1292.2</ele>
        <time>2018-08-19T17:26:05Z</time>
      </trkpt>
      <trkpt lat="-27.928305" lon="-65.701175">
        <ele>1292.3</ele>
        <time>2018-08-19T17:26:08Z</time>
      </trkpt>
      <trkpt lat="-27.928235" lon="-65.70125">
        <ele>1292.4</ele>
        <time>2018-08-19T17:26:11Z</time>
      </trkpt>
      <trkpt lat="-27.92819" lon="-65.701305">
        <ele>1292.4</ele>
        <time>2018-08-19T17:26:14Z</time>
      </trkpt>
      <trkpt lat="-27.92813" lon="-65.701385">
        <ele>1292.3</ele>
        <time>2018-08-19T17:26:17Z</time>
      </trkpt>
      <trkpt lat="-27.928069999999998" lon="-65.701445">
        <ele>1292.4</ele>
        <time>2018-08-19T17:26:20Z</time>
      </trkpt>
      <trkpt lat="-27.92801" lon="-65.70148666666667">
        <ele>1292.6</ele>
        <time>2018-08-19T17:26:23Z</time>
      </trkpt>
      <trkpt lat="-27.927955" lon="-65.70157">
        <ele>1292.9</ele>
        <time>2018-08-19T17:26:26Z</time>
      </trkpt>
      <trkpt lat="-27.927895" lon="-65.701645">
        <ele>1293.2</ele>
        <time>2018-08-19T17:26:30Z</time>
      </trkpt>
      <trkpt lat="-27.927835" lon="-65.70171">
        <ele>1293.5</ele>
        <time>2018-08-19T17:26:33Z</time>
      </trkpt>
      <trkpt lat="-27.927785" lon="-65.701785">
        <ele>1293.8</ele>
        <time>2018-08-19T17:26:36Z</time>
      </trkpt>
      <trkpt lat="-27.92773" lon="-65.70184">
        <ele>1294.1</ele>
        <time>2018-08-19T17:26:39Z</time>
      </trkpt>
      <trkpt lat="-27.927665" lon="-65.701935">
        <ele>1294.5</ele>
        <time>2018-08-19T17:26:43Z</time>
      </trkpt>
      <trkpt lat="-27.92761" lon="-65.70202">
        <ele>1294.7</ele>
        <time>2018-08-19T17:26:46Z</time>
      </trkpt>
      <trkpt lat="-27.92755" lon="-65.702095">
        <ele>1295.0</ele>
        <time>2018-08-19T17:26:49Z</time>
      </trkpt>
      <trkpt lat="-27.92749" lon="-65.702175">
        <ele>1295.3</ele>
        <time>2018-08-19T17:26:52Z</time>
      </trkpt>
      <trkpt lat="-27.92744" lon="-65.702235">
        <ele>1295.6</ele>
        <time>2018-08-19T17:26:55Z</time>
      </trkpt>
      <trkpt lat="-27.92737" lon="-65.70229">
        <ele>1295.9</ele>
        <time>2018-08-19T17:26:58Z</time>
      </trkpt>
      <trkpt lat="-27.92732" lon="-65.702365">
        <ele>1296.2</ele>
        <time>2018-08-19T17:27:01Z</time>
      </trkpt>
      <trkpt lat="-27.92727" lon="-65.70242">
        <ele>1296.4</ele>
        <time>2018-08-19T17:27:04Z</time>
      </trkpt>
      <trkpt lat="-27.9272" lon="-65.70247">
        <ele>1296.8</ele>
        <time>2018-08-19T17:27:07Z</time>
      </trkpt>
      <trkpt lat="-27.927135" lon="-65.70255">
        <ele>1297.3</ele>
        <time>2018-08-19T17:27:11Z</time>
      </trkpt>
      <trkpt lat="-27.92708" lon="-65.7026">
        <ele>1297.7</ele>
        <time>2018-08-19T17:27:15Z</time>
      </trkpt>
      <trkpt lat="-27.92702" lon="-65.702645">
        <ele>1298.1</ele>
        <time>2018-08-19T17:27:19Z</time>
      </trkpt>
      <trkpt lat="-27.926945" lon="-65.702695">
        <ele>1298.6</ele>
        <time>2018-08-19T17:27:24Z</time>
      </trkpt>
      <trkpt lat="-27.92687" lon="-65.70277">
        <ele>1299.0</ele>
        <time>2018-08-19T17:27:29Z</time>
      </trkpt>
      <trkpt lat="-27.9268" lon="-65.70282">
        <ele>1299.4</ele>
        <time>2018-08-19T17:27:34Z</time>
      </trkpt>
      <trkpt lat="-27.92673" lon="-65.70286">
        <ele>1299.8</ele>
        <time>2018-08-19T17:27:39Z</time>
      </trkpt>
      <trkpt lat="-27.926655" lon="-65.70292">
        <ele>1300.3</ele>
        <time>2018-08-19T17:27:44Z</time>
      </trkpt>
      <trkpt lat="-27.926575" lon="-65.702965">
        <ele>1300.8</ele>
        <time>2018-08-19T17:27:49Z</time>
      </trkpt>
      <trkpt lat="-27.926505" lon="-65.703005">
        <ele>1301.3</ele>
        <time>2018-08-19T17:27:54Z</time>
      </trkpt>
      <trkpt lat="-27.92643" lon="-65.70305">
        <ele>1301.9</ele>
        <time>2018-08-19T17:28:00Z</time>
      </trkpt>
      <trkpt lat="-27.926365" lon="-65.703085">
        <ele>1302.3</ele>
        <time>2018-08-19T17:28:05Z</time>
      </trkpt>
      <trkpt lat="-27.926295" lon="-65.703135">
        <ele>1302.6</ele>
        <time>2018-08-19T17:28:10Z</time>
      </trkpt>
      <trkpt lat="-27.92622" lon="-65.70317">
        <ele>1302.9</ele>
        <time>2018-08-19T17:28:15Z</time>
      </trkpt>
      <trkpt lat="-27.92615" lon="-65.70319">
        <ele>1303.2</ele>
        <time>2018-08-19T17:28:20Z</time>
      </trkpt>
      <trkpt lat="-27.926075" lon="-65.70323">
        <ele>1303.6</ele>
        <time>2018-08-19T17:28:25Z</time>
      </trkpt>
      <trkpt lat="-27.925995" lon="-65.70327">
        <ele>1304.2</ele>
        <time>2018-08-19T17:28:31Z</time>
      </trkpt>
      <trkpt lat="-27.925925" lon="-65.7033">
        <ele>1304.7</ele>
        <time>2018-08-19T17:28:37Z</time>
      </trkpt>
      <trkpt lat="-27.92584" lon="-65.703315">
        <ele>1305.1</ele>
        <time>2018-08-19T17:28:43Z</time>
      </trkpt>
      <trkpt lat="-27.925765" lon="-65.70334">
        <ele>1305.6</ele>
        <time>2018-08-19T17:28:48Z</time>
      </trkpt>
      <trkpt lat="-27.92569" lon="-65.70337">
        <ele>1306.0</ele>
        <time>2018-08-19T17:28:54Z</time>
      </trkpt>
      <trkpt lat="-27.925615" lon="-65.70339">
        <ele>1306.4</ele>
        <time>2018-08-19T17:28:59Z</time>
      </trkpt>
      <trkpt lat="-27.925545" lon="-65.703405">
        <ele>1306.9</ele>
        <time>2018-08-19T17:29:04Z</time>
      </trkpt>
      <trkpt lat="-27.925465" lon="-65.703415">
        <ele>1307.2</ele>
        <time>2018-08-19T17:29:09Z</time>
      </trkpt>
      <trkpt lat="-27.92539" lon="-65.703415">
        <ele>1307.6</ele>
        <time>2018-08-19T17:29:14Z</time>
      </trkpt>
      <trkpt lat="-27.925315" lon="-65.70345">
        <ele>1307.9</ele>
        <time>2018-08-19T17:29:19Z</time>
      </trkpt>
      <trkpt lat="-27.92524" lon="-65.703455">
        <ele>1308.3</ele>
        <time>2018-08-19T17:29:24Z</time>
      </trkpt>
      <trkpt lat="-27.925159999999998" lon="-65.70348">
        <ele>1308.7</ele>
        <time>2018-08-19T17:29:29Z</time>
      </trkpt>
      <trkpt lat="-27.925075" lon="-65.703495">
        <ele>1309.1</ele>
        <time>2018-08-19T17:29:34Z</time>
      </trkpt>
      <trkpt lat="-27.924985" lon="-65.7035">
        <ele>1309.6</ele>
        <time>2018-08-19T17:29:39Z</time>
      </trkpt>
      <trkpt lat="-27.9249" lon="-65.703525">
        <ele>1310.1</ele>
        <time>2018-08-19T17:29:44Z</time>
      </trkpt>
      <trkpt lat="-27.92483" lon="-65.70354">
        <ele>1310.5</ele>
        <time>2018-08-19T17:29:48Z</time>
      </trkpt>
      <trkpt lat="-27.924745" lon="-65.70354">
        <ele>1311.0</ele>
        <time>2018-08-19T17:29:53Z</time>
      </trkpt>
      <trkpt lat="-27.924655" lon="-65.703565">
        <ele>1311.4</ele>
        <time>2018-08-19T17:29:58Z</time>
      </trkpt>
      <trkpt lat="-27.92458" lon="-65.70358">
        <ele>1311.7</ele>
        <time>2018-08-19T17:30:02Z</time>
      </trkpt>
      <trkpt lat="-27.924495" lon="-65.703595">
        <ele>1312.0</ele>
        <time>2018-08-19T17:30:07Z</time>
      </trkpt>
      <trkpt lat="-27.924415" lon="-65.70361">
        <ele>1312.3</ele>
        <time>2018-08-19T17:30:11Z</time>
      </trkpt>
      <trkpt lat="-27.924345" lon="-65.70362">
        <ele>1312.6</ele>
        <time>2018-08-19T17:30:15Z</time>
      </trkpt>
      <trkpt lat="-27.924275" lon="-65.70364000000001">
        <ele>1312.9</ele>
        <time>2018-08-19T17:30:19Z</time>
      </trkpt>
      <trkpt lat="-27.924205" lon="-65.70364000000001">
        <ele>1313.2</ele>
        <time>2018-08-19T17:30:23Z</time>
      </trkpt>
      <trkpt lat="-27.92413" lon="-65.703665">
        <ele>1313.5</ele>
        <time>2018-08-19T17:30:27Z</time>
      </trkpt>
      <trkpt lat="-27.92406" lon="-65.70368">
        <ele>1313.9</ele>
        <time>2018-08-19T17:30:31Z</time>
      </trkpt>
      <trkpt lat="-27.923985000000002" lon="-65.70368">
        <ele>1314.2</ele>
        <time>2018-08-19T17:30:35Z</time>
      </trkpt>
      <trkpt lat="-27.923895" lon="-65.703715">
        <ele>1314.6</ele>
        <time>2018-08-19T17:30:40Z</time>
      </trkpt>
      <trkpt lat="-27.92382" lon="-65.70372">
        <ele>1315.0</ele>
        <time>2018-08-19T17:30:44Z</time>
      </trkpt>
      <trkpt lat="-27.923745" lon="-65.703725">
        <ele>1315.4</ele>
        <time>2018-08-19T17:30:49Z</time>
      </trkpt>
      <trkpt lat="-27.923655" lon="-65.70375">
        <ele>1315.9</ele>
        <time>2018-08-19T17:30:54Z</time>
      </trkpt>
      <trkpt lat="-27.923575" lon="-65.703765">
        <ele>1316.2</ele>
        <time>2018-08-19T17:30:58Z</time>
      </trkpt>
      <trkpt lat="-27.923495" lon="-65.703765">
        <ele>1316.6</ele>
        <time>2018-08-19T17:31:03Z</time>
      </trkpt>
      <trkpt lat="-27.923415" lon="-65.7038">
        <ele>1317.0</ele>
        <time>2018-08-19T17:31:07Z</time>
      </trkpt>
      <trkpt lat="-27.92333" lon="-65.70381">
        <ele>1317.3</ele>
        <time>2018-08-19T17:31:11Z</time>
      </trkpt>
      <trkpt lat="-27.923255" lon="-65.70383">
        <ele>1317.5</ele>
        <time>2018-08-19T17:31:14Z</time>
      </trkpt>
      <trkpt lat="-27.92317" lon="-65.70384">
        <ele>1317.5</ele>
        <time>2018-08-19T17:31:17Z</time>
      </trkpt>
      <trkpt lat="-27.923085" lon="-65.703845">
        <ele>1317.5</ele>
        <time>2018-08-19T17:31:21Z</time>
      </trkpt>
      <trkpt lat="-27.923005" lon="-65.703875">
        <ele>1317.6</ele>
        <time>2018-08-19T17:31:24Z</time>
      </trkpt>
      <trkpt lat="-27.922925" lon="-65.703905">
        <ele>1317.8</ele>
        <time>2018-08-19T17:31:27Z</time>
      </trkpt>
      <trkpt lat="-27.922835" lon="-65.70393">
        <ele>1318.1</ele>
        <time>2018-08-19T17:31:30Z</time>
      </trkpt>
      <trkpt lat="-27.92274" lon="-65.70395">
        <ele>1318.4</ele>
        <time>2018-08-19T17:31:33Z</time>
      </trkpt>
      <trkpt lat="-27.922645" lon="-65.70399">
        <ele>1318.8</ele>
        <time>2018-08-19T17:31:36Z</time>
      </trkpt>
      <trkpt lat="-27.92255" lon="-65.70403">
        <ele>1319.1</ele>
        <time>2018-08-19T17:31:39Z</time>
      </trkpt>
      <trkpt lat="-27.92247" lon="-65.70406">
        <ele>1319.3</ele>
        <time>2018-08-19T17:31:42Z</time>
      </trkpt>
      <trkpt lat="-27.92238" lon="-65.70407333333333">
        <ele>1319.6</ele>
        <time>2018-08-19T17:31:45Z</time>
      </trkpt>
      <trkpt lat="-27.92231" lon="-65.70412">
        <ele>1320.5</ele>
        <time>2018-08-19T17:31:47Z</time>
      </trkpt>
      <trkpt lat="-27.922235" lon="-65.704145">
        <ele>1321.5</ele>
        <time>2018-08-19T17:31:49Z</time>
      </trkpt>
      <trkpt lat="-27.922155" lon="-65.704175">
        <ele>1322.1</ele>
        <time>2018-08-19T17:31:51Z</time>
      </trkpt>
      <trkpt lat="-27.922075" lon="-65.7042">
        <ele>1322.5</ele>
        <time>2018-08-19T17:31:53Z</time>
      </trkpt>
      <trkpt lat="-27.921995" lon="-65.704215">
        <ele>1322.7</ele>
        <time>2018-08-19T17:31:55Z</time>
      </trkpt>
      <trkpt lat="-27.92192" lon="-65.704255">
        <ele>1322.8</ele>
        <time>2018-08-19T17:31:57Z</time>
      </trkpt>
      <trkpt lat="-27.92184" lon="-65.704285">
        <ele>1322.8</ele>
        <time>2018-08-19T17:31:59Z</time>
      </trkpt>
      <trkpt lat="-27.921755" lon="-65.7043">
        <ele>1322.7</ele>
        <time>2018-08-19T17:32:01Z</time>
      </trkpt>
      <trkpt lat="-27.921685" lon="-65.704345">
        <ele>1322.7</ele>
        <time>2018-08-19T17:32:03Z</time>
      </trkpt>
      <trkpt lat="-27.921605" lon="-65.704375">
        <ele>1322.8</ele>
        <time>2018-08-19T17:32:05Z</time>
      </trkpt>
      <trkpt lat="-27.92153" lon="-65.7044">
        <ele>1322.9</ele>
        <time>2018-08-19T17:32:07Z</time>
      </trkpt>
      <trkpt lat="-27.92145" lon="-65.704425">
        <ele>1322.7</ele>
        <time>2018-08-19T17:32:09Z</time>
      </trkpt>
      <trkpt lat="-27.921365" lon="-65.70444">
        <ele>1322.4</ele>
        <time>2018-08-19T17:32:11Z</time>
      </trkpt>
      <trkpt lat="-27.92128" lon="-65.704485">
        <ele>1322.2</ele>
        <time>2018-08-19T17:32:13Z</time>
      </trkpt>
      <trkpt lat="-27.92119" lon="-65.704525">
        <ele>1322.1</ele>
        <time>2018-08-19T17:32:15Z</time>
      </trkpt>
      <trkpt lat="-27.9211" lon="-65.70456">
        <ele>1322.0</ele>
        <time>2018-08-19T17:32:17Z</time>
      </trkpt>
      <trkpt lat="-27.921" lon="-65.7046">
        <ele>1322.0</ele>
        <time>2018-08-19T17:32:19Z</time>
      </trkpt>
      <trkpt lat="-27.9209" lon="-65.70461666666667">
        <ele>1321.8</ele>
        <time>2018-08-19T17:32:21Z</time>
      </trkpt>
      <trkpt lat="-27.92079" lon="-65.704665">
        <ele>1321.5</ele>
        <time>2018-08-19T17:32:23Z</time>
      </trkpt>
      <trkpt lat="-27.920665" lon="-65.70471">
        <ele>1321.1</ele>
        <time>2018-08-19T17:32:25Z</time>
      </trkpt>
      <trkpt lat="-27.920545" lon="-65.70475">
        <ele>1320.2</ele>
        <time>2018-08-19T17:32:27Z</time>
      </trkpt>
      <trkpt lat="-27.920405" lon="-65.704795">
        <ele>1319.2</ele>
        <time>2018-08-19T17:32:29Z</time>
      </trkpt>
      <trkpt lat="-27.92032" lon="-65.704815">
        <ele>1318.8</ele>
        <time>2018-08-19T17:32:30Z</time>
      </trkpt>
      <trkpt lat="-27.92024" lon="-65.70483">
        <ele>1318.2</ele>
        <time>2018-08-19T17:32:31Z</time>
      </trkpt>
      <trkpt lat="-27.92016" lon="-65.70486">
        <ele>1317.7</ele>
        <time>2018-08-19T17:32:32Z</time>
      </trkpt>
      <trkpt lat="-27.920075" lon="-65.70488">
        <ele>1316.8</ele>
        <time>2018-08-19T17:32:33Z</time>
      </trkpt>
      <trkpt lat="-27.91999" lon="-65.704905">
        <ele>1316.1</ele>
        <time>2018-08-19T17:32:34Z</time>
      </trkpt>
      <trkpt lat="-27.9199" lon="-65.704925">
        <ele>1315.4</ele>
        <time>2018-08-19T17:32:35Z</time>
      </trkpt>
      <trkpt lat="-27.91981" lon="-65.704935">
        <ele>1314.6</ele>
        <time>2018-08-19T17:32:36Z</time>
      </trkpt>
      <trkpt lat="-27.919715" lon="-65.704965">
        <ele>1313.7</ele>
        <time>2018-08-19T17:32:37Z</time>
      </trkpt>
      <trkpt lat="-27.91962" lon="-65.704975">
        <ele>1312.8</ele>
        <time>2018-08-19T17:32:38Z</time>
      </trkpt>
      <trkpt lat="-27.919525" lon="-65.704975">
        <ele>1312.0</ele>
        <time>2018-08-19T17:32:39Z</time>
      </trkpt>
      <trkpt lat="-27.91942" lon="-65.705">
        <ele>1311.4</ele>
        <time>2018-08-19T17:32:40Z</time>
      </trkpt>
      <trkpt lat="-27.91932" lon="-65.705015">
        <ele>1310.9</ele>
        <time>2018-08-19T17:32:41Z</time>
      </trkpt>
      <trkpt lat="-27.919215" lon="-65.70502">
        <ele>1310.3</ele>
        <time>2018-08-19T17:32:42Z</time>
      </trkpt>
      <trkpt lat="-27.919105" lon="-65.70502">
        <ele>1310.0</ele>
        <time>2018-08-19T17:32:43Z</time>
      </trkpt>
      <trkpt lat="-27.91899" lon="-65.70502">
        <ele>1309.8</ele>
        <time>2018-08-19T17:32:44Z</time>
      </trkpt>
      <trkpt lat="-27.918875" lon="-65.70502">
        <ele>1309.4</ele>
        <time>2018-08-19T17:32:45Z</time>
      </trkpt>
      <trkpt lat="-27.91875" lon="-65.70502">
        <ele>1309.1</ele>
        <time>2018-08-19T17:32:46Z</time>
      </trkpt>
      <trkpt lat="-27.918635" lon="-65.70502">
        <ele>1308.6</ele>
        <time>2018-08-19T17:32:47Z</time>
      </trkpt>
      <trkpt lat="-27.918515" lon="-65.705015">
        <ele>1308.0</ele>
        <time>2018-08-19T17:32:48Z</time>
      </trkpt>
      <trkpt lat="-27.918385" lon="-65.70501">
        <ele>1307.3</ele>
        <time>2018-08-19T17:32:49Z</time>
      </trkpt>
      <trkpt lat="-27.91826" lon="-65.70501">
        <ele>1306.4</ele>
        <time>2018-08-19T17:32:50Z</time>
      </trkpt>
      <trkpt lat="-27.91814" lon="-65.705">
        <ele>1305.5</ele>
        <time>2018-08-19T17:32:51Z</time>
      </trkpt>
      <trkpt lat="-27.918015" lon="-65.705">
        <ele>1304.5</ele>
        <time>2018-08-19T17:32:52Z</time>
      </trkpt>
      <trkpt lat="-27.917875" lon="-65.705">
        <ele>1303.3</ele>
        <time>2018-08-19T17:32:53Z</time>
      </trkpt>
      <trkpt lat="-27.91776" lon="-65.705">
        <ele>1302.2</ele>
        <time>2018-08-19T17:32:54Z</time>
      </trkpt>
      <trkpt lat="-27.91764" lon="-65.705">
        <ele>1301.2</ele>
        <time>2018-08-19T17:32:55Z</time>
      </trkpt>
      <trkpt lat="-27.91751" lon="-65.705">
        <ele>1300.4</ele>
        <time>2018-08-19T17:32:56Z</time>
      </trkpt>
      <trkpt lat="-27.917385" lon="-65.705">
        <ele>1299.8</ele>
        <time>2018-08-19T17:32:57Z</time>
      </trkpt>
      <trkpt lat="-27.91726" lon="-65.70501">
        <ele>1298.9</ele>
        <time>2018-08-19T17:32:58Z</time>
      </trkpt>
      <trkpt lat="-27.917135000000002" lon="-65.70502">
        <ele>1298.1</ele>
        <time>2018-08-19T17:32:59Z</time>
      </trkpt>
      <trkpt lat="-27.916995" lon="-65.70502">
        <ele>1297.2</ele>
        <time>2018-08-19T17:33:00Z</time>
      </trkpt>
      <trkpt lat="-27.91686" lon="-65.70505">
        <ele>1296.1</ele>
        <time>2018-08-19T17:33:01Z</time>
      </trkpt>
      <trkpt lat="-27.916735" lon="-65.705055">
        <ele>1295.1</ele>
        <time>2018-08-19T17:33:02Z</time>
      </trkpt>
      <trkpt lat="-27.91663" lon="-65.70506166666667">
        <ele>1294.4</ele>
        <time>2018-08-19T17:33:03Z</time>
      </trkpt>
      <trkpt lat="-27.91651" lon="-65.705105">
        <ele>1293.6</ele>
        <time>2018-08-19T17:33:04Z</time>
      </trkpt>
      <trkpt lat="-27.91638" lon="-65.70513">
        <ele>1292.8</ele>
        <time>2018-08-19T17:33:05Z</time>
      </trkpt>
      <trkpt lat="-27.91626" lon="-65.70516">
        <ele>1292.5</ele>
        <time>2018-08-19T17:33:06Z</time>
      </trkpt>
      <trkpt lat="-27.916155" lon="-65.7052">
        <ele>1292.4</ele>
        <time>2018-08-19T17:33:07Z</time>
      </trkpt>
      <trkpt lat="-27.91605" lon="-65.705245">
        <ele>1292.2</ele>
        <time>2018-08-19T17:33:08Z</time>
      </trkpt>
      <trkpt lat="-27.91595" lon="-65.705285">
        <ele>1291.7</ele>
        <time>2018-08-19T17:33:09Z</time>
      </trkpt>
      <trkpt lat="-27.91586" lon="-65.70533">
        <ele>1291.4</ele>
        <time>2018-08-19T17:33:10Z</time>
      </trkpt>
      <trkpt lat="-27.91576" lon="-65.705375">
        <ele>1291.6</ele>
        <time>2018-08-19T17:33:11Z</time>
      </trkpt>
      <trkpt lat="-27.915655" lon="-65.705425">
        <ele>1291.9</ele>
        <time>2018-08-19T17:33:12Z</time>
      </trkpt>
      <trkpt lat="-27.915575" lon="-65.70547">
        <ele>1291.9</ele>
        <time>2018-08-19T17:33:13Z</time>
      </trkpt>
      <trkpt lat="-27.915485" lon="-65.70551">
        <ele>1292.0</ele>
        <time>2018-08-19T17:33:14Z</time>
      </trkpt>
      <trkpt lat="-27.915395" lon="-65.70558">
        <ele>1291.9</ele>
        <time>2018-08-19T17:33:15Z</time>
      </trkpt>
      <trkpt lat="-27.915315" lon="-65.70563">
        <ele>1292.0</ele>
        <time>2018-08-19T17:33:16Z</time>
      </trkpt>
      <trkpt lat="-27.91525" lon="-65.705675">
        <ele>1292.0</ele>
        <time>2018-08-19T17:33:17Z</time>
      </trkpt>
      <trkpt lat="-27.91517" lon="-65.70573">
        <ele>1292.2</ele>
        <time>2018-08-19T17:33:18Z</time>
      </trkpt>
      <trkpt lat="-27.915105" lon="-65.70578">
        <ele>1292.7</ele>
        <time>2018-08-19T17:33:19Z</time>
      </trkpt>
      <trkpt lat="-27.915045" lon="-65.705815">
        <ele>1292.8</ele>
        <time>2018-08-19T17:33:20Z</time>
      </trkpt>
      <trkpt lat="-27.91498" lon="-65.705875">
        <ele>1292.8</ele>
        <time>2018-08-19T17:33:21Z</time>
      </trkpt>
      <trkpt lat="-27.91486" lon="-65.705955">
        <ele>1292.7</ele>
        <time>2018-08-19T17:33:23Z</time>
      </trkpt>
      <trkpt lat="-27.91474" lon="-65.70604">
        <ele>1292.3</ele>
        <time>2018-08-19T17:33:25Z</time>
      </trkpt>
      <trkpt lat="-27.91467" lon="-65.706085">
        <ele>1292.3</ele>
        <time>2018-08-19T17:33:26Z</time>
      </trkpt>
      <trkpt lat="-27.914615" lon="-65.706135">
        <ele>1292.3</ele>
        <time>2018-08-19T17:33:27Z</time>
      </trkpt>
      <trkpt lat="-27.91455" lon="-65.706185">
        <ele>1292.4</ele>
        <time>2018-08-19T17:33:28Z</time>
      </trkpt>
      <trkpt lat="-27.91448" lon="-65.70623">
        <ele>1292.3</ele>
        <time>2018-08-19T17:33:29Z</time>
      </trkpt>
      <trkpt lat="-27.914425" lon="-65.70627">
        <ele>1292.1</ele>
        <time>2018-08-19T17:33:30Z</time>
      </trkpt>
      <trkpt lat="-27.91431" lon="-65.70636">
        <ele>1291.5</ele>
        <time>2018-08-19T17:33:32Z</time>
      </trkpt>
      <trkpt lat="-27.9142" lon="-65.706445">
        <ele>1291.0</ele>
        <time>2018-08-19T17:33:34Z</time>
      </trkpt>
      <trkpt lat="-27.91408" lon="-65.706535">
        <ele>1290.3</ele>
        <time>2018-08-19T17:33:36Z</time>
      </trkpt>
      <trkpt lat="-27.914015" lon="-65.706575">
        <ele>1290.0</ele>
        <time>2018-08-19T17:33:37Z</time>
      </trkpt>
      <trkpt lat="-27.91395" lon="-65.70662">
        <ele>1289.7</ele>
        <time>2018-08-19T17:33:38Z</time>
      </trkpt>
      <trkpt lat="-27.91389" lon="-65.70667">
        <ele>1289.2</ele>
        <time>2018-08-19T17:33:39Z</time>
      </trkpt>
      <trkpt lat="-27.913825" lon="-65.706715">
        <ele>1288.8</ele>
        <time>2018-08-19T17:33:40Z</time>
      </trkpt>
      <trkpt lat="-27.91376" lon="-65.706765">
        <ele>1288.7</ele>
        <time>2018-08-19T17:33:41Z</time>
      </trkpt>
      <trkpt lat="-27.913685" lon="-65.70680166666666">
        <ele>1289.1</ele>
        <time>2018-08-19T17:33:42Z</time>
      </trkpt>
      <trkpt lat="-27.913615" lon="-65.706875">
        <ele>1289.6</ele>
        <time>2018-08-19T17:33:43Z</time>
      </trkpt>
      <trkpt lat="-27.913545" lon="-65.70693">
        <ele>1289.8</ele>
        <time>2018-08-19T17:33:44Z</time>
      </trkpt>
      <trkpt lat="-27.913475" lon="-65.706985">
        <ele>1290.0</ele>
        <time>2018-08-19T17:33:45Z</time>
      </trkpt>
      <trkpt lat="-27.913405" lon="-65.707025">
        <ele>1290.1</ele>
        <time>2018-08-19T17:33:46Z</time>
      </trkpt>
      <trkpt lat="-27.91334" lon="-65.707085">
        <ele>1290.1</ele>
        <time>2018-08-19T17:33:47Z</time>
      </trkpt>
      <trkpt lat="-27.913265" lon="-65.70713">
        <ele>1290.1</ele>
        <time>2018-08-19T17:33:48Z</time>
      </trkpt>
      <trkpt lat="-27.9132" lon="-65.70717">
        <ele>1290.2</ele>
        <time>2018-08-19T17:33:49Z</time>
      </trkpt>
      <trkpt lat="-27.91313" lon="-65.707235">
        <ele>1289.7</ele>
        <time>2018-08-19T17:33:50Z</time>
      </trkpt>
      <trkpt lat="-27.91307" lon="-65.70728">
        <ele>1289.3</ele>
        <time>2018-08-19T17:33:51Z</time>
      </trkpt>
      <trkpt lat="-27.91301" lon="-65.707325">
        <ele>1289.1</ele>
        <time>2018-08-19T17:33:52Z</time>
      </trkpt>
      <trkpt lat="-27.91294" lon="-65.707355">
        <ele>1289.2</ele>
        <time>2018-08-19T17:33:53Z</time>
      </trkpt>
      <trkpt lat="-27.91283" lon="-65.70744">
        <ele>1289.2</ele>
        <time>2018-08-19T17:33:55Z</time>
      </trkpt>
      <trkpt lat="-27.912715" lon="-65.707525">
        <ele>1289.6</ele>
        <time>2018-08-19T17:33:57Z</time>
      </trkpt>
      <trkpt lat="-27.912605" lon="-65.707605">
        <ele>1290.2</ele>
        <time>2018-08-19T17:33:59Z</time>
      </trkpt>
      <trkpt lat="-27.912505" lon="-65.707665">
        <ele>1289.9</ele>
        <time>2018-08-19T17:34:01Z</time>
      </trkpt>
      <trkpt lat="-27.91242" lon="-65.707745">
        <ele>1289.2</ele>
        <time>2018-08-19T17:34:03Z</time>
      </trkpt>
      <trkpt lat="-27.91234" lon="-65.70779166666667">
        <ele>1289.0</ele>
        <time>2018-08-19T17:34:05Z</time>
      </trkpt>
      <trkpt lat="-27.91226" lon="-65.70788">
        <ele>1289.3</ele>
        <time>2018-08-19T17:34:07Z</time>
      </trkpt>
      <trkpt lat="-27.91219" lon="-65.70793">
        <ele>1289.3</ele>
        <time>2018-08-19T17:34:09Z</time>
      </trkpt>
      <trkpt lat="-27.912115" lon="-65.70801">
        <ele>1289.2</ele>
        <time>2018-08-19T17:34:11Z</time>
      </trkpt>
      <trkpt lat="-27.912045" lon="-65.708095">
        <ele>1288.9</ele>
        <time>2018-08-19T17:34:13Z</time>
      </trkpt>
      <trkpt lat="-27.91198" lon="-65.708155">
        <ele>1289.0</ele>
        <time>2018-08-19T17:34:15Z</time>
      </trkpt>
      <trkpt lat="-27.91192" lon="-65.70824">
        <ele>1289.2</ele>
        <time>2018-08-19T17:34:17Z</time>
      </trkpt>
      <trkpt lat="-27.911865" lon="-65.70833">
        <ele>1289.6</ele>
        <time>2018-08-19T17:34:19Z</time>
      </trkpt>
      <trkpt lat="-27.91181" lon="-65.708405">
        <ele>1289.6</ele>
        <time>2018-08-19T17:34:21Z</time>
      </trkpt>
      <trkpt lat="-27.911755" lon="-65.708465">
        <ele>1289.6</ele>
        <time>2018-08-19T17:34:23Z</time>
      </trkpt>
      <trkpt lat="-27.9117" lon="-65.708555">
        <ele>1290.4</ele>
        <time>2018-08-19T17:34:25Z</time>
      </trkpt>
      <trkpt lat="-27.911645" lon="-65.70863">
        <ele>1291.7</ele>
        <time>2018-08-19T17:34:27Z</time>
      </trkpt>
      <trkpt lat="-27.911585" lon="-65.70869">
        <ele>1292.4</ele>
        <time>2018-08-19T17:34:30Z</time>
      </trkpt>
      <trkpt lat="-27.911515" lon="-65.70877333333334">
        <ele>1292.5</ele>
        <time>2018-08-19T17:34:33Z</time>
      </trkpt>
      <trkpt lat="-27.91147" lon="-65.708855">
        <ele>1292.4</ele>
        <time>2018-08-19T17:34:35Z</time>
      </trkpt>
      <trkpt lat="-27.91141" lon="-65.70894">
        <ele>1292.3</ele>
        <time>2018-08-19T17:34:38Z</time>
      </trkpt>
      <trkpt lat="-27.911355" lon="-65.709025">
        <ele>1292.2</ele>
        <time>2018-08-19T17:34:41Z</time>
      </trkpt>
      <trkpt lat="-27.91129" lon="-65.7091">
        <ele>1292.3</ele>
        <time>2018-08-19T17:34:44Z</time>
      </trkpt>
      <trkpt lat="-27.91123" lon="-65.709165">
        <ele>1292.4</ele>
        <time>2018-08-19T17:34:47Z</time>
      </trkpt>
      <trkpt lat="-27.91116" lon="-65.70922666666667">
        <ele>1292.2</ele>
        <time>2018-08-19T17:34:51Z</time>
      </trkpt>
      <trkpt lat="-27.91111" lon="-65.709305">
        <ele>1292.2</ele>
        <time>2018-08-19T17:34:53Z</time>
      </trkpt>
      <trkpt lat="-27.91104" lon="-65.709365">
        <ele>1291.9</ele>
        <time>2018-08-19T17:34:56Z</time>
      </trkpt>
      <trkpt lat="-27.91097" lon="-65.70941">
        <ele>1291.6</ele>
        <time>2018-08-19T17:34:59Z</time>
      </trkpt>
      <trkpt lat="-27.9109" lon="-65.70950500000001">
        <ele>1291.3</ele>
        <time>2018-08-19T17:35:02Z</time>
      </trkpt>
      <trkpt lat="-27.910845" lon="-65.709585">
        <ele>1290.9</ele>
        <time>2018-08-19T17:35:05Z</time>
      </trkpt>
      <trkpt lat="-27.91079" lon="-65.70966">
        <ele>1290.6</ele>
        <time>2018-08-19T17:35:08Z</time>
      </trkpt>
      <trkpt lat="-27.91073" lon="-65.709755">
        <ele>1290.4</ele>
        <time>2018-08-19T17:35:11Z</time>
      </trkpt>
      <trkpt lat="-27.910705" lon="-65.70983">
        <ele>1290.6</ele>
        <time>2018-08-19T17:35:13Z</time>
      </trkpt>
      <trkpt lat="-27.910645" lon="-65.709925">
        <ele>1291.3</ele>
        <time>2018-08-19T17:35:16Z</time>
      </trkpt>
      <trkpt lat="-27.9106" lon="-65.70998">
        <ele>1292.9</ele>
        <time>2018-08-19T17:35:18Z</time>
      </trkpt>
      <trkpt lat="-27.91054" lon="-65.710065">
        <ele>1293.2</ele>
        <time>2018-08-19T17:35:20Z</time>
      </trkpt>
      <trkpt lat="-27.9105" lon="-65.710125">
        <ele>1293.7</ele>
        <time>2018-08-19T17:35:22Z</time>
      </trkpt>
      <trkpt lat="-27.910445" lon="-65.710205">
        <ele>1293.9</ele>
        <time>2018-08-19T17:35:24Z</time>
      </trkpt>
      <trkpt lat="-27.910385" lon="-65.71029">
        <ele>1293.5</ele>
        <time>2018-08-19T17:35:26Z</time>
      </trkpt>
      <trkpt lat="-27.910315" lon="-65.710385">
        <ele>1294.3</ele>
        <time>2018-08-19T17:35:28Z</time>
      </trkpt>
      <trkpt lat="-27.910245" lon="-65.71048">
        <ele>1294.4</ele>
        <time>2018-08-19T17:35:30Z</time>
      </trkpt>
      <trkpt lat="-27.910175" lon="-65.710565">
        <ele>1293.6</ele>
        <time>2018-08-19T17:35:32Z</time>
      </trkpt>
      <trkpt lat="-27.9101" lon="-65.71066">
        <ele>1293.0</ele>
        <time>2018-08-19T17:35:34Z</time>
      </trkpt>
      <trkpt lat="-27.910004999999998" lon="-65.71074">
        <ele>1292.3</ele>
        <time>2018-08-19T17:35:36Z</time>
      </trkpt>
      <trkpt lat="-27.9099" lon="-65.710845">
        <ele>1291.2</ele>
        <time>2018-08-19T17:35:38Z</time>
      </trkpt>
      <trkpt lat="-27.90985" lon="-65.71091">
        <ele>1291.0</ele>
        <time>2018-08-19T17:35:39Z</time>
      </trkpt>
      <trkpt lat="-27.909785" lon="-65.710965">
        <ele>1290.7</ele>
        <time>2018-08-19T17:35:40Z</time>
      </trkpt>
      <trkpt lat="-27.909725" lon="-65.711025">
        <ele>1290.4</ele>
        <time>2018-08-19T17:35:41Z</time>
      </trkpt>
      <trkpt lat="-27.90966" lon="-65.71107">
        <ele>1290.4</ele>
        <time>2018-08-19T17:35:42Z</time>
      </trkpt>
      <trkpt lat="-27.909595" lon="-65.71111">
        <ele>1290.2</ele>
        <time>2018-08-19T17:35:43Z</time>
      </trkpt>
      <trkpt lat="-27.90952" lon="-65.711185">
        <ele>1290.2</ele>
        <time>2018-08-19T17:35:44Z</time>
      </trkpt>
      <trkpt lat="-27.90946" lon="-65.71123">
        <ele>1289.6</ele>
        <time>2018-08-19T17:35:45Z</time>
      </trkpt>
      <trkpt lat="-27.909385" lon="-65.711285">
        <ele>1288.5</ele>
        <time>2018-08-19T17:35:46Z</time>
      </trkpt>
      <trkpt lat="-27.90931" lon="-65.711335">
        <ele>1287.3</ele>
        <time>2018-08-19T17:35:47Z</time>
      </trkpt>
      <trkpt lat="-27.909235" lon="-65.71138">
        <ele>1286.4</ele>
        <time>2018-08-19T17:35:48Z</time>
      </trkpt>
      <trkpt lat="-27.909155" lon="-65.711455">
        <ele>1285.6</ele>
        <time>2018-08-19T17:35:49Z</time>
      </trkpt>
      <trkpt lat="-27.90908" lon="-65.71151">
        <ele>1285.2</ele>
        <time>2018-08-19T17:35:50Z</time>
      </trkpt>
      <trkpt lat="-27.90899" lon="-65.711575">
        <ele>1284.6</ele>
        <time>2018-08-19T17:35:51Z</time>
      </trkpt>
      <trkpt lat="-27.908915" lon="-65.71163">
        <ele>1284.1</ele>
        <time>2018-08-19T17:35:52Z</time>
      </trkpt>
      <trkpt lat="-27.908835" lon="-65.71168">
        <ele>1283.9</ele>
        <time>2018-08-19T17:35:53Z</time>
      </trkpt>
      <trkpt lat="-27.90876" lon="-65.711725">
        <ele>1283.8</ele>
        <time>2018-08-19T17:35:54Z</time>
      </trkpt>
      <trkpt lat="-27.908685" lon="-65.711785">
        <ele>1283.9</ele>
        <time>2018-08-19T17:35:55Z</time>
      </trkpt>
      <trkpt lat="-27.908605" lon="-65.71183">
        <ele>1284.2</ele>
        <time>2018-08-19T17:35:56Z</time>
      </trkpt>
      <trkpt lat="-27.90853" lon="-65.71187">
        <ele>1284.4</ele>
        <time>2018-08-19T17:35:57Z</time>
      </trkpt>
      <trkpt lat="-27.90845" lon="-65.711915">
        <ele>1284.6</ele>
        <time>2018-08-19T17:35:58Z</time>
      </trkpt>
      <trkpt lat="-27.90837" lon="-65.71195">
        <ele>1284.7</ele>
        <time>2018-08-19T17:35:59Z</time>
      </trkpt>
      <trkpt lat="-27.9083" lon="-65.71201">
        <ele>1284.8</ele>
        <time>2018-08-19T17:36:00Z</time>
      </trkpt>
      <trkpt lat="-27.90823" lon="-65.712045">
        <ele>1284.8</ele>
        <time>2018-08-19T17:36:01Z</time>
      </trkpt>
      <trkpt lat="-27.908155" lon="-65.712075">
        <ele>1284.1</ele>
        <time>2018-08-19T17:36:02Z</time>
      </trkpt>
      <trkpt lat="-27.908085" lon="-65.712095">
        <ele>1283.3</ele>
        <time>2018-08-19T17:36:03Z</time>
      </trkpt>
      <trkpt lat="-27.907965" lon="-65.71214">
        <ele>1281.9</ele>
        <time>2018-08-19T17:36:05Z</time>
      </trkpt>
      <trkpt lat="-27.90785" lon="-65.71218">
        <ele>1281.5</ele>
        <time>2018-08-19T17:36:07Z</time>
      </trkpt>
      <trkpt lat="-27.907725" lon="-65.712235">
        <ele>1281.5</ele>
        <time>2018-08-19T17:36:09Z</time>
      </trkpt>
      <trkpt lat="-27.907625" lon="-65.71226">
        <ele>1281.8</ele>
        <time>2018-08-19T17:36:11Z</time>
      </trkpt>
      <trkpt lat="-27.90754" lon="-65.71228">
        <ele>1282.7</ele>
        <time>2018-08-19T17:36:13Z</time>
      </trkpt>
      <trkpt lat="-27.90746" lon="-65.7123">
        <ele>1284.1</ele>
        <time>2018-08-19T17:36:15Z</time>
      </trkpt>
      <trkpt lat="-27.907375000000002" lon="-65.712315">
        <ele>1285.2</ele>
        <time>2018-08-19T17:36:17Z</time>
      </trkpt>
      <trkpt lat="-27.907305" lon="-65.71232">
        <ele>1285.6</ele>
        <time>2018-08-19T17:36:19Z</time>
      </trkpt>
      <trkpt lat="-27.907205" lon="-65.71232">
        <ele>1285.7</ele>
        <time>2018-08-19T17:36:22Z</time>
      </trkpt>
      <trkpt lat="-27.90711" lon="-65.71232">
        <ele>1285.6</ele>
        <time>2018-08-19T17:36:25Z</time>
      </trkpt>
      <trkpt lat="-27.907035" lon="-65.71232">
        <ele>1285.7</ele>
        <time>2018-08-19T17:36:27Z</time>
      </trkpt>
      <trkpt lat="-27.90694" lon="-65.71232">
        <ele>1285.6</ele>
        <time>2018-08-19T17:36:31Z</time>
      </trkpt>
      <trkpt lat="-27.906855" lon="-65.71232">
        <ele>1285.5</ele>
        <time>2018-08-19T17:36:35Z</time>
      </trkpt>
      <trkpt lat="-27.90677" lon="-65.71232">
        <ele>1285.4</ele>
        <time>2018-08-19T17:36:39Z</time>
      </trkpt>
      <trkpt lat="-27.906685" lon="-65.71232">
        <ele>1285.3</ele>
        <time>2018-08-19T17:36:43Z</time>
      </trkpt>
      <trkpt lat="-27.906595" lon="-65.71232">
        <ele>1284.9</ele>
        <time>2018-08-19T17:36:48Z</time>
      </trkpt>
      <trkpt lat="-27.906525" lon="-65.712315">
        <ele>1284.6</ele>
        <time>2018-08-19T17:36:53Z</time>
      </trkpt>
      <trkpt lat="-27.90645" lon="-65.7123">
        <ele>1284.4</ele>
        <time>2018-08-19T17:36:57Z</time>
      </trkpt>
      <trkpt lat="-27.90637" lon="-65.71228">
        <ele>1284.2</ele>
        <time>2018-08-19T17:37:02Z</time>
      </trkpt>
      <trkpt lat="-27.90629" lon="-65.71227">
        <ele>1284.5</ele>
        <time>2018-08-19T17:37:08Z</time>
      </trkpt>
      <trkpt lat="-27.90622" lon="-65.712235">
        <ele>1285.1</ele>
        <time>2018-08-19T17:37:14Z</time>
      </trkpt>
      <trkpt lat="-27.906145" lon="-65.712225">
        <ele>1285.4</ele>
        <time>2018-08-19T17:37:19Z</time>
      </trkpt>
      <trkpt lat="-27.90607" lon="-65.71218">
        <ele>1285.8</ele>
        <time>2018-08-19T17:37:25Z</time>
      </trkpt>
      <trkpt lat="-27.90601" lon="-65.71214">
        <ele>1286.5</ele>
        <time>2018-08-19T17:37:31Z</time>
      </trkpt>
      <trkpt lat="-27.905935" lon="-65.71212">
        <ele>1287.2</ele>
        <time>2018-08-19T17:37:37Z</time>
      </trkpt>
      <trkpt lat="-27.905865" lon="-65.712095">
        <ele>1287.8</ele>
        <time>2018-08-19T17:37:44Z</time>
      </trkpt>
      <trkpt lat="-27.90577" lon="-65.712095">
        <ele>1288.3</ele>
        <time>2018-08-19T17:37:49Z</time>
      </trkpt>
      <trkpt lat="-27.90577" lon="-65.712095">
        <ele>1288.4</ele>
        <time>2018-08-19T17:37:56Z</time>
      </trkpt>
      <trkpt lat="-27.905685" lon="-65.712095">
        <ele>1288.4</ele>
        <time>2018-08-19T17:37:58Z</time>
      </trkpt>
      <trkpt lat="-27.90561" lon="-65.71208">
        <ele>1288.4</ele>
        <time>2018-08-19T17:38:05Z</time>
      </trkpt>
      <trkpt lat="-27.905545" lon="-65.712045">
        <ele>1288.5</ele>
        <time>2018-08-19T17:38:11Z</time>
      </trkpt>
      <trkpt lat="-27.905475" lon="-65.712">
        <ele>1288.5</ele>
        <time>2018-08-19T17:38:18Z</time>
      </trkpt>
      <trkpt lat="-27.905405000000002" lon="-65.71195">
        <ele>1288.6</ele>
        <time>2018-08-19T17:38:24Z</time>
      </trkpt>
      <trkpt lat="-27.90533" lon="-65.711935">
        <ele>1288.9</ele>
        <time>2018-08-19T17:38:31Z</time>
      </trkpt>
      <trkpt lat="-27.905255" lon="-65.711895">
        <ele>1289.1</ele>
        <time>2018-08-19T17:38:38Z</time>
      </trkpt>
      <trkpt lat="-27.90519" lon="-65.711855">
        <ele>1289.2</ele>
        <time>2018-08-19T17:38:45Z</time>
      </trkpt>
      <trkpt lat="-27.90512" lon="-65.71182">
        <ele>1289.6</ele>
        <time>2018-08-19T17:38:51Z</time>
      </trkpt>
      <trkpt lat="-27.905045" lon="-65.711775">
        <ele>1290.1</ele>
        <time>2018-08-19T17:38:58Z</time>
      </trkpt>
      <trkpt lat="-27.904995" lon="-65.711725">
        <ele>1290.3</ele>
        <time>2018-08-19T17:39:04Z</time>
      </trkpt>
      <trkpt lat="-27.904935000000002" lon="-65.71169">
        <ele>1290.9</ele>
        <time>2018-08-19T17:39:10Z</time>
      </trkpt>
      <trkpt lat="-27.90486" lon="-65.711645">
        <ele>1291.8</ele>
        <time>2018-08-19T17:39:16Z</time>
      </trkpt>
      <trkpt lat="-27.904795" lon="-65.711595">
        <ele>1292.6</ele>
        <time>2018-08-19T17:39:22Z</time>
      </trkpt>
      <trkpt lat="-27.904725" lon="-65.71155">
        <ele>1293.6</ele>
        <time>2018-08-19T17:39:29Z</time>
      </trkpt>
      <trkpt lat="-27.90465" lon="-65.71151">
        <ele>1294.4</ele>
        <time>2018-08-19T17:39:36Z</time>
      </trkpt>
      <trkpt lat="-27.904585" lon="-65.71146">
        <ele>1295.2</ele>
        <time>2018-08-19T17:39:42Z</time>
      </trkpt>
      <trkpt lat="-27.904515" lon="-65.71142">
        <ele>1295.8</ele>
        <time>2018-08-19T17:39:48Z</time>
      </trkpt>
      <trkpt lat="-27.90444" lon="-65.71138">
        <ele>1296.4</ele>
        <time>2018-08-19T17:39:55Z</time>
      </trkpt>
      <trkpt lat="-27.904385" lon="-65.711335">
        <ele>1296.4</ele>
        <time>2018-08-19T17:40:02Z</time>
      </trkpt>
      <trkpt lat="-27.904335" lon="-65.711325">
        <ele>1296.3</ele>
        <time>2018-08-19T17:40:09Z</time>
      </trkpt>
      <trkpt lat="-27.904265" lon="-65.711285">
        <ele>1296.4</ele>
        <time>2018-08-19T17:40:14Z</time>
      </trkpt>
      <trkpt lat="-27.904205" lon="-65.71124">
        <ele>1296.7</ele>
        <time>2018-08-19T17:40:20Z</time>
      </trkpt>
      <trkpt lat="-27.904145" lon="-65.711195">
        <ele>1296.7</ele>
        <time>2018-08-19T17:40:27Z</time>
      </trkpt>
      <trkpt lat="-27.904075" lon="-65.711155">
        <ele>1297.0</ele>
        <time>2018-08-19T17:40:34Z</time>
      </trkpt>
      <trkpt lat="-27.904005" lon="-65.71111">
        <ele>1297.8</ele>
        <time>2018-08-19T17:40:41Z</time>
      </trkpt>
      <trkpt lat="-27.903935" lon="-65.71107">
        <ele>1298.5</ele>
        <time>2018-08-19T17:40:48Z</time>
      </trkpt>
      <trkpt lat="-27.90387" lon="-65.711045">
        <ele>1299.1</ele>
        <time>2018-08-19T17:40:54Z</time>
      </trkpt>
      <trkpt lat="-27.903795" lon="-65.711005">
        <ele>1299.7</ele>
        <time>2018-08-19T17:41:01Z</time>
      </trkpt>
      <trkpt lat="-27.90373" lon="-65.710965">
        <ele>1300.1</ele>
        <time>2018-08-19T17:41:07Z</time>
      </trkpt>
      <trkpt lat="-27.903645" lon="-65.71095">
        <ele>1300.4</ele>
        <time>2018-08-19T17:41:12Z</time>
      </trkpt>
      <trkpt lat="-27.90362" lon="-65.71093">
        <ele>1300.8</ele>
        <time>2018-08-19T17:41:19Z</time>
      </trkpt>
      <trkpt lat="-27.90361" lon="-65.71093">
        <ele>1300.9</ele>
        <time>2018-08-19T17:41:22Z</time>
      </trkpt>
      <trkpt lat="-27.903605" lon="-65.710925">
        <ele>1301.0</ele>
        <time>2018-08-19T17:41:35Z</time>
      </trkpt>
      <trkpt lat="-27.903605" lon="-65.71093">
        <ele>1301.0</ele>
        <time>2018-08-19T17:41:36Z</time>
      </trkpt>
      <trkpt lat="-27.90363" lon="-65.710955">
        <ele>1301.2</ele>
        <time>2018-08-19T17:41:45Z</time>
      </trkpt>
      <trkpt lat="-27.90363" lon="-65.710955">
        <ele>1301.2</ele>
        <time>2018-08-19T17:41:46Z</time>
      </trkpt>
      <trkpt lat="-27.90359" lon="-65.71093">
        <ele>1301.2</ele>
        <time>2018-08-19T17:41:54Z</time>
      </trkpt>
      <trkpt lat="-27.903595" lon="-65.71093">
        <ele>1301.2</ele>
        <time>2018-08-19T17:41:55Z</time>
      </trkpt>
      <trkpt lat="-27.90361" lon="-65.71095">
        <ele>1301.3</ele>
        <time>2018-08-19T17:42:05Z</time>
      </trkpt>
      <trkpt lat="-27.90361" lon="-65.71093">
        <ele>1301.3</ele>
        <time>2018-08-19T17:42:06Z</time>
      </trkpt>
      <trkpt lat="-27.903605" lon="-65.710965">
        <ele>1301.7</ele>
        <time>2018-08-19T17:42:16Z</time>
      </trkpt>
      <trkpt lat="-27.903605" lon="-65.710965">
        <ele>1301.9</ele>
        <time>2018-08-19T17:42:17Z</time>
      </trkpt>
      <trkpt lat="-27.90361" lon="-65.710965">
        <ele>1301.8</ele>
        <time>2018-08-19T17:42:28Z</time>
      </trkpt>
      <trkpt lat="-27.90362" lon="-65.710965">
        <ele>1301.8</ele>
        <time>2018-08-19T17:42:29Z</time>
      </trkpt>
      <trkpt lat="-27.903625" lon="-65.710955">
        <ele>1302.6</ele>
        <time>2018-08-19T17:42:37Z</time>
      </trkpt>
      <trkpt lat="-27.903625" lon="-65.710955">
        <ele>1302.6</ele>
        <time>2018-08-19T17:42:38Z</time>
      </trkpt>
      <trkpt lat="-27.903625" lon="-65.710955">
        <ele>1302.4</ele>
        <time>2018-08-19T17:42:48Z</time>
      </trkpt>
      <trkpt lat="-27.903625" lon="-65.710955">
        <ele>1302.4</ele>
        <time>2018-08-19T17:42:49Z</time>
      </trkpt>
      <trkpt lat="-27.903585" lon="-65.71095">
        <ele>1302.0</ele>
        <time>2018-08-19T17:43:03Z</time>
      </trkpt>
      <trkpt lat="-27.903495" lon="-65.71091">
        <ele>1302.2</ele>
        <time>2018-08-19T17:43:08Z</time>
      </trkpt>
      <trkpt lat="-27.90343" lon="-65.710845">
        <ele>1302.4</ele>
        <time>2018-08-19T17:43:13Z</time>
      </trkpt>
      <trkpt lat="-27.903365" lon="-65.710825">
        <ele>1302.5</ele>
        <time>2018-08-19T17:43:18Z</time>
      </trkpt>
      <trkpt lat="-27.90328" lon="-65.71079">
        <ele>1302.7</ele>
        <time>2018-08-19T17:43:23Z</time>
      </trkpt>
      <trkpt lat="-27.903195" lon="-65.71074">
        <ele>1302.9</ele>
        <time>2018-08-19T17:43:28Z</time>
      </trkpt>
      <trkpt lat="-27.903125" lon="-65.71073">
        <ele>1303.3</ele>
        <time>2018-08-19T17:43:33Z</time>
      </trkpt>
      <trkpt lat="-27.903055" lon="-65.7107">
        <ele>1303.6</ele>
        <time>2018-08-19T17:43:38Z</time>
      </trkpt>
      <trkpt lat="-27.90298" lon="-65.71066">
        <ele>1304.2</ele>
        <time>2018-08-19T17:43:44Z</time>
      </trkpt>
      <trkpt lat="-27.90289" lon="-65.71065">
        <ele>1304.9</ele>
        <time>2018-08-19T17:43:50Z</time>
      </trkpt>
      <trkpt lat="-27.902815" lon="-65.71061">
        <ele>1305.6</ele>
        <time>2018-08-19T17:43:56Z</time>
      </trkpt>
      <trkpt lat="-27.902735" lon="-65.7106">
        <ele>1306.3</ele>
        <time>2018-08-19T17:44:02Z</time>
      </trkpt>
      <trkpt lat="-27.90266" lon="-65.710575">
        <ele>1307.0</ele>
        <time>2018-08-19T17:44:08Z</time>
      </trkpt>
      <trkpt lat="-27.902585" lon="-65.710565">
        <ele>1307.5</ele>
        <time>2018-08-19T17:44:14Z</time>
      </trkpt>
      <trkpt lat="-27.902505" lon="-65.710555">
        <ele>1308.0</ele>
        <time>2018-08-19T17:44:20Z</time>
      </trkpt>
      <trkpt lat="-27.90242" lon="-65.71052666666667">
        <ele>1308.4</ele>
        <time>2018-08-19T17:44:26Z</time>
      </trkpt>
      <trkpt lat="-27.902345" lon="-65.710525">
        <ele>1308.7</ele>
        <time>2018-08-19T17:44:31Z</time>
      </trkpt>
      <trkpt lat="-27.90227" lon="-65.710525">
        <ele>1308.9</ele>
        <time>2018-08-19T17:44:36Z</time>
      </trkpt>
      <trkpt lat="-27.90219" lon="-65.710525">
        <ele>1309.2</ele>
        <time>2018-08-19T17:44:41Z</time>
      </trkpt>
      <trkpt lat="-27.902115" lon="-65.710525">
        <ele>1309.2</ele>
        <time>2018-08-19T17:44:46Z</time>
      </trkpt>
      <trkpt lat="-27.90204" lon="-65.710525">
        <ele>1309.3</ele>
        <time>2018-08-19T17:44:51Z</time>
      </trkpt>
      <trkpt lat="-27.90195" lon="-65.710525">
        <ele>1309.3</ele>
        <time>2018-08-19T17:44:56Z</time>
      </trkpt>
      <trkpt lat="-27.901865" lon="-65.710515">
        <ele>1309.2</ele>
        <time>2018-08-19T17:45:00Z</time>
      </trkpt>
      <trkpt lat="-27.901795" lon="-65.710515">
        <ele>1309.0</ele>
        <time>2018-08-19T17:45:04Z</time>
      </trkpt>
      <trkpt lat="-27.901705" lon="-65.71051">
        <ele>1308.9</ele>
        <time>2018-08-19T17:45:09Z</time>
      </trkpt>
      <trkpt lat="-27.90162" lon="-65.710515">
        <ele>1308.7</ele>
        <time>2018-08-19T17:45:14Z</time>
      </trkpt>
      <trkpt lat="-27.901535" lon="-65.710515">
        <ele>1308.6</ele>
        <time>2018-08-19T17:45:19Z</time>
      </trkpt>
      <trkpt lat="-27.901465" lon="-65.710525">
        <ele>1308.6</ele>
        <time>2018-08-19T17:45:23Z</time>
      </trkpt>
      <trkpt lat="-27.90139" lon="-65.710525">
        <ele>1308.5</ele>
        <time>2018-08-19T17:45:27Z</time>
      </trkpt>
      <trkpt lat="-27.901295" lon="-65.710565">
        <ele>1308.6</ele>
        <time>2018-08-19T17:45:32Z</time>
      </trkpt>
      <trkpt lat="-27.901225" lon="-65.710575">
        <ele>1308.5</ele>
        <time>2018-08-19T17:45:36Z</time>
      </trkpt>
      <trkpt lat="-27.901155" lon="-65.71059">
        <ele>1308.4</ele>
        <time>2018-08-19T17:45:40Z</time>
      </trkpt>
      <trkpt lat="-27.901085" lon="-65.71061">
        <ele>1308.4</ele>
        <time>2018-08-19T17:45:43Z</time>
      </trkpt>
      <trkpt lat="-27.900985" lon="-65.710645">
        <ele>1308.3</ele>
        <time>2018-08-19T17:45:47Z</time>
      </trkpt>
      <trkpt lat="-27.90092" lon="-65.710685">
        <ele>1308.6</ele>
        <time>2018-08-19T17:45:51Z</time>
      </trkpt>
      <trkpt lat="-27.90084" lon="-65.71074">
        <ele>1309.2</ele>
        <time>2018-08-19T17:45:55Z</time>
      </trkpt>
      <trkpt lat="-27.90076" lon="-65.710785">
        <ele>1309.7</ele>
        <time>2018-08-19T17:45:58Z</time>
      </trkpt>
      <trkpt lat="-27.900675" lon="-65.710835">
        <ele>1310.2</ele>
        <time>2018-08-19T17:46:01Z</time>
      </trkpt>
      <trkpt lat="-27.900595" lon="-65.710885">
        <ele>1310.7</ele>
        <time>2018-08-19T17:46:04Z</time>
      </trkpt>
      <trkpt lat="-27.90052" lon="-65.710955">
        <ele>1311.4</ele>
        <time>2018-08-19T17:46:07Z</time>
      </trkpt>
      <trkpt lat="-27.90045" lon="-65.711005">
        <ele>1311.8</ele>
        <time>2018-08-19T17:46:10Z</time>
      </trkpt>
      <trkpt lat="-27.900385" lon="-65.71106">
        <ele>1312.3</ele>
        <time>2018-08-19T17:46:13Z</time>
      </trkpt>
      <trkpt lat="-27.90031" lon="-65.71111">
        <ele>1312.6</ele>
        <time>2018-08-19T17:46:16Z</time>
      </trkpt>
      <trkpt lat="-27.90024" lon="-65.711155">
        <ele>1313.0</ele>
        <time>2018-08-19T17:46:20Z</time>
      </trkpt>
      <trkpt lat="-27.900205" lon="-65.711155">
        <ele>1313.2</ele>
        <time>2018-08-19T17:46:27Z</time>
      </trkpt>
      <trkpt lat="-27.9002" lon="-65.711155">
        <ele>1313.2</ele>
        <time>2018-08-19T17:46:29Z</time>
      </trkpt>
      <trkpt lat="-27.90019" lon="-65.711135">
        <ele>1313.1</ele>
        <time>2018-08-19T17:46:39Z</time>
      </trkpt>
      <trkpt lat="-27.90019" lon="-65.71111">
        <ele>1313.4</ele>
        <time>2018-08-19T17:46:43Z</time>
      </trkpt>
      <trkpt lat="-27.90018" lon="-65.71111">
        <ele>1314.4</ele>
        <time>2018-08-19T17:46:54Z</time>
      </trkpt>
      <trkpt lat="-27.90018" lon="-65.71111">
        <ele>1314.4</ele>
        <time>2018-08-19T17:46:55Z</time>
      </trkpt>
      <trkpt lat="-27.900185" lon="-65.711145">
        <ele>1315.0</ele>
        <time>2018-08-19T17:47:05Z</time>
      </trkpt>
      <trkpt lat="-27.900185" lon="-65.711145">
        <ele>1315.0</ele>
        <time>2018-08-19T17:47:06Z</time>
      </trkpt>
      <trkpt lat="-27.90016" lon="-65.71115">
        <ele>1315.9</ele>
        <time>2018-08-19T17:47:21Z</time>
      </trkpt>
      <trkpt lat="-27.900155" lon="-65.711145">
        <ele>1315.9</ele>
        <time>2018-08-19T17:47:22Z</time>
      </trkpt>
      <trkpt lat="-27.90012" lon="-65.711235">
        <ele>1315.5</ele>
        <time>2018-08-19T17:47:54Z</time>
      </trkpt>
      <trkpt lat="-27.90005" lon="-65.711295">
        <ele>1315.4</ele>
        <time>2018-08-19T17:47:58Z</time>
      </trkpt>
      <trkpt lat="-27.89998" lon="-65.71137">
        <ele>1315.4</ele>
        <time>2018-08-19T17:48:01Z</time>
      </trkpt>
      <trkpt lat="-27.89993" lon="-65.71142">
        <ele>1315.4</ele>
        <time>2018-08-19T17:48:04Z</time>
      </trkpt>
      <trkpt lat="-27.899875" lon="-65.7115">
        <ele>1315.3</ele>
        <time>2018-08-19T17:48:07Z</time>
      </trkpt>
      <trkpt lat="-27.89982" lon="-65.711585">
        <ele>1315.2</ele>
        <time>2018-08-19T17:48:10Z</time>
      </trkpt>
      <trkpt lat="-27.899755" lon="-65.71167">
        <ele>1315.2</ele>
        <time>2018-08-19T17:48:13Z</time>
      </trkpt>
      <trkpt lat="-27.899715" lon="-65.711775">
        <ele>1315.6</ele>
        <time>2018-08-19T17:48:16Z</time>
      </trkpt>
      <trkpt lat="-27.899665" lon="-65.711865">
        <ele>1316.2</ele>
        <time>2018-08-19T17:48:18Z</time>
      </trkpt>
      <trkpt lat="-27.899615" lon="-65.71195">
        <ele>1316.3</ele>
        <time>2018-08-19T17:48:20Z</time>
      </trkpt>
      <trkpt lat="-27.899555" lon="-65.712045">
        <ele>1316.3</ele>
        <time>2018-08-19T17:48:22Z</time>
      </trkpt>
      <trkpt lat="-27.899505" lon="-65.71214">
        <ele>1316.0</ele>
        <time>2018-08-19T17:48:24Z</time>
      </trkpt>
      <trkpt lat="-27.899445" lon="-65.71226">
        <ele>1315.6</ele>
        <time>2018-08-19T17:48:26Z</time>
      </trkpt>
      <trkpt lat="-27.899395" lon="-65.712365">
        <ele>1315.6</ele>
        <time>2018-08-19T17:48:28Z</time>
      </trkpt>
      <trkpt lat="-27.899345" lon="-65.712475">
        <ele>1316.1</ele>
        <time>2018-08-19T17:48:30Z</time>
      </trkpt>
      <trkpt lat="-27.899285" lon="-65.71259">
        <ele>1316.7</ele>
        <time>2018-08-19T17:48:32Z</time>
      </trkpt>
      <trkpt lat="-27.899235" lon="-65.71271">
        <ele>1316.7</ele>
        <time>2018-08-19T17:48:34Z</time>
      </trkpt>
      <trkpt lat="-27.899185" lon="-65.712855">
        <ele>1317.5</ele>
        <time>2018-08-19T17:48:36Z</time>
      </trkpt>
      <trkpt lat="-27.899135" lon="-65.712995">
        <ele>1318.9</ele>
        <time>2018-08-19T17:48:38Z</time>
      </trkpt>
      <trkpt lat="-27.8991" lon="-65.713145">
        <ele>1319.3</ele>
        <time>2018-08-19T17:48:40Z</time>
      </trkpt>
      <trkpt lat="-27.899075" lon="-65.71322">
        <ele>1319.1</ele>
        <time>2018-08-19T17:48:41Z</time>
      </trkpt>
      <trkpt lat="-27.89906" lon="-65.7133">
        <ele>1318.6</ele>
        <time>2018-08-19T17:48:42Z</time>
      </trkpt>
      <trkpt lat="-27.89902" lon="-65.713435">
        <ele>1318.2</ele>
        <time>2018-08-19T17:48:44Z</time>
      </trkpt>
      <trkpt lat="-27.89898" lon="-65.713605">
        <ele>1317.8</ele>
        <time>2018-08-19T17:48:46Z</time>
      </trkpt>
      <trkpt lat="-27.898945" lon="-65.713695">
        <ele>1317.6</ele>
        <time>2018-08-19T17:48:47Z</time>
      </trkpt>
      <trkpt lat="-27.89894" lon="-65.71377">
        <ele>1317.1</ele>
        <time>2018-08-19T17:48:48Z</time>
      </trkpt>
      <trkpt lat="-27.89892" lon="-65.713865">
        <ele>1316.7</ele>
        <time>2018-08-19T17:48:49Z</time>
      </trkpt>
      <trkpt lat="-27.8989" lon="-65.713965">
        <ele>1316.5</ele>
        <time>2018-08-19T17:48:50Z</time>
      </trkpt>
      <trkpt lat="-27.898875" lon="-65.714065">
        <ele>1316.1</ele>
        <time>2018-08-19T17:48:51Z</time>
      </trkpt>
      <trkpt lat="-27.89886" lon="-65.71415">
        <ele>1315.9</ele>
        <time>2018-08-19T17:48:52Z</time>
      </trkpt>
      <trkpt lat="-27.89884" lon="-65.71425">
        <ele>1315.7</ele>
        <time>2018-08-19T17:48:53Z</time>
      </trkpt>
      <trkpt lat="-27.89882" lon="-65.714355">
        <ele>1315.4</ele>
        <time>2018-08-19T17:48:54Z</time>
      </trkpt>
      <trkpt lat="-27.898795" lon="-65.714455">
        <ele>1315.0</ele>
        <time>2018-08-19T17:48:55Z</time>
      </trkpt>
      <trkpt lat="-27.89877" lon="-65.71456">
        <ele>1314.4</ele>
        <time>2018-08-19T17:48:56Z</time>
      </trkpt>
      <trkpt lat="-27.89875" lon="-65.71467">
        <ele>1313.6</ele>
        <time>2018-08-19T17:48:57Z</time>
      </trkpt>
      <trkpt lat="-27.89873" lon="-65.714775">
        <ele>1312.6</ele>
        <time>2018-08-19T17:48:58Z</time>
      </trkpt>
      <trkpt lat="-27.89871" lon="-65.71487">
        <ele>1311.6</ele>
        <time>2018-08-19T17:48:59Z</time>
      </trkpt>
      <trkpt lat="-27.898685" lon="-65.715">
        <ele>1310.4</ele>
        <time>2018-08-19T17:49:00Z</time>
      </trkpt>
      <trkpt lat="-27.89867" lon="-65.715115">
        <ele>1309.1</ele>
        <time>2018-08-19T17:49:01Z</time>
      </trkpt>
      <trkpt lat="-27.89865" lon="-65.715235">
        <ele>1307.9</ele>
        <time>2018-08-19T17:49:02Z</time>
      </trkpt>
      <trkpt lat="-27.898635" lon="-65.715355">
        <ele>1306.9</ele>
        <time>2018-08-19T17:49:03Z</time>
      </trkpt>
      <trkpt lat="-27.898615" lon="-65.71547">
        <ele>1306.0</ele>
        <time>2018-08-19T17:49:04Z</time>
      </trkpt>
      <trkpt lat="-27.898595" lon="-65.715585">
        <ele>1305.0</ele>
        <time>2018-08-19T17:49:05Z</time>
      </trkpt>
      <trkpt lat="-27.89857" lon="-65.71571">
        <ele>1304.3</ele>
        <time>2018-08-19T17:49:06Z</time>
      </trkpt>
      <trkpt lat="-27.898555" lon="-65.71581">
        <ele>1303.7</ele>
        <time>2018-08-19T17:49:07Z</time>
      </trkpt>
      <trkpt lat="-27.89853" lon="-65.71595">
        <ele>1303.1</ele>
        <time>2018-08-19T17:49:08Z</time>
      </trkpt>
      <trkpt lat="-27.89851" lon="-65.71607">
        <ele>1302.9</ele>
        <time>2018-08-19T17:49:09Z</time>
      </trkpt>
      <trkpt lat="-27.89849" lon="-65.716195">
        <ele>1302.1</ele>
        <time>2018-08-19T17:49:10Z</time>
      </trkpt>
      <trkpt lat="-27.89846" lon="-65.716305">
        <ele>1301.5</ele>
        <time>2018-08-19T17:49:11Z</time>
      </trkpt>
      <trkpt lat="-27.898435" lon="-65.716425">
        <ele>1301.0</ele>
        <time>2018-08-19T17:49:12Z</time>
      </trkpt>
      <trkpt lat="-27.8984" lon="-65.716565">
        <ele>1300.7</ele>
        <time>2018-08-19T17:49:13Z</time>
      </trkpt>
      <trkpt lat="-27.89836" lon="-65.716695">
        <ele>1300.6</ele>
        <time>2018-08-19T17:49:14Z</time>
      </trkpt>
      <trkpt lat="-27.898315" lon="-65.716795">
        <ele>1300.6</ele>
        <time>2018-08-19T17:49:15Z</time>
      </trkpt>
      <trkpt lat="-27.89828" lon="-65.716915">
        <ele>1299.6</ele>
        <time>2018-08-19T17:49:16Z</time>
      </trkpt>
      <trkpt lat="-27.89823" lon="-65.717045">
        <ele>1298.7</ele>
        <time>2018-08-19T17:49:17Z</time>
      </trkpt>
      <trkpt lat="-27.898175" lon="-65.71716">
        <ele>1298.5</ele>
        <time>2018-08-19T17:49:18Z</time>
      </trkpt>
      <trkpt lat="-27.898115" lon="-65.717285">
        <ele>1298.2</ele>
        <time>2018-08-19T17:49:19Z</time>
      </trkpt>
      <trkpt lat="-27.898055" lon="-65.717405">
        <ele>1297.7</ele>
        <time>2018-08-19T17:49:20Z</time>
      </trkpt>
      <trkpt lat="-27.89799" lon="-65.717505">
        <ele>1297.3</ele>
        <time>2018-08-19T17:49:21Z</time>
      </trkpt>
      <trkpt lat="-27.897925" lon="-65.7176">
        <ele>1296.8</ele>
        <time>2018-08-19T17:49:22Z</time>
      </trkpt>
      <trkpt lat="-27.897865" lon="-65.71771">
        <ele>1295.9</ele>
        <time>2018-08-19T17:49:23Z</time>
      </trkpt>
      <trkpt lat="-27.897795" lon="-65.717805">
        <ele>1294.9</ele>
        <time>2018-08-19T17:49:24Z</time>
      </trkpt>
      <trkpt lat="-27.897725" lon="-65.71791">
        <ele>1294.1</ele>
        <time>2018-08-19T17:49:25Z</time>
      </trkpt>
      <trkpt lat="-27.89765" lon="-65.718005">
        <ele>1293.4</ele>
        <time>2018-08-19T17:49:26Z</time>
      </trkpt>
      <trkpt lat="-27.89757" lon="-65.71809">
        <ele>1292.8</ele>
        <time>2018-08-19T17:49:27Z</time>
      </trkpt>
      <trkpt lat="-27.897495" lon="-65.71818">
        <ele>1292.3</ele>
        <time>2018-08-19T17:49:28Z</time>
      </trkpt>
      <trkpt lat="-27.897405" lon="-65.718265">
        <ele>1291.8</ele>
        <time>2018-08-19T17:49:29Z</time>
      </trkpt>
      <trkpt lat="-27.89733" lon="-65.71835">
        <ele>1291.3</ele>
        <time>2018-08-19T17:49:30Z</time>
      </trkpt>
      <trkpt lat="-27.89724" lon="-65.718425">
        <ele>1290.8</ele>
        <time>2018-08-19T17:49:31Z</time>
      </trkpt>
      <trkpt lat="-27.89716" lon="-65.7185">
        <ele>1290.5</ele>
        <time>2018-08-19T17:49:32Z</time>
      </trkpt>
      <trkpt lat="-27.89708" lon="-65.718565">
        <ele>1289.5</ele>
        <time>2018-08-19T17:49:33Z</time>
      </trkpt>
      <trkpt lat="-27.89699" lon="-65.71862">
        <ele>1288.3</ele>
        <time>2018-08-19T17:49:34Z</time>
      </trkpt>
      <trkpt lat="-27.896895" lon="-65.718705">
        <ele>1287.4</ele>
        <time>2018-08-19T17:49:35Z</time>
      </trkpt>
      <trkpt lat="-27.89679" lon="-65.718765">
        <ele>1286.3</ele>
        <time>2018-08-19T17:49:36Z</time>
      </trkpt>
      <trkpt lat="-27.89671" lon="-65.71885">
        <ele>1284.6</ele>
        <time>2018-08-19T17:49:37Z</time>
      </trkpt>
      <trkpt lat="-27.89661" lon="-65.718905">
        <ele>1282.6</ele>
        <time>2018-08-19T17:49:38Z</time>
      </trkpt>
      <trkpt lat="-27.89651" lon="-65.71899">
        <ele>1281.0</ele>
        <time>2018-08-19T17:49:39Z</time>
      </trkpt>
      <trkpt lat="-27.89642" lon="-65.719055">
        <ele>1278.7</ele>
        <time>2018-08-19T17:49:40Z</time>
      </trkpt>
      <trkpt lat="-27.89632" lon="-65.71912">
        <ele>1276.3</ele>
        <time>2018-08-19T17:49:41Z</time>
      </trkpt>
      <trkpt lat="-27.89622" lon="-65.7192">
        <ele>1273.9</ele>
        <time>2018-08-19T17:49:42Z</time>
      </trkpt>
      <trkpt lat="-27.8961" lon="-65.719285">
        <ele>1272.4</ele>
        <time>2018-08-19T17:49:43Z</time>
      </trkpt>
      <trkpt lat="-27.895985" lon="-65.719345">
        <ele>1271.6</ele>
        <time>2018-08-19T17:49:44Z</time>
      </trkpt>
      <trkpt lat="-27.895885" lon="-65.71943">
        <ele>1270.6</ele>
        <time>2018-08-19T17:49:45Z</time>
      </trkpt>
      <trkpt lat="-27.895785" lon="-65.719515">
        <ele>1269.5</ele>
        <time>2018-08-19T17:49:46Z</time>
      </trkpt>
      <trkpt lat="-27.895675" lon="-65.719595">
        <ele>1268.4</ele>
        <time>2018-08-19T17:49:47Z</time>
      </trkpt>
      <trkpt lat="-27.895565" lon="-65.71968">
        <ele>1267.8</ele>
        <time>2018-08-19T17:49:48Z</time>
      </trkpt>
      <trkpt lat="-27.895455" lon="-65.719775">
        <ele>1267.6</ele>
        <time>2018-08-19T17:49:49Z</time>
      </trkpt>
      <trkpt lat="-27.89535" lon="-65.71988">
        <ele>1268.2</ele>
        <time>2018-08-19T17:49:50Z</time>
      </trkpt>
      <trkpt lat="-27.895245" lon="-65.719975">
        <ele>1269.4</ele>
        <time>2018-08-19T17:49:51Z</time>
      </trkpt>
      <trkpt lat="-27.89516" lon="-65.72006">
        <ele>1270.2</ele>
        <time>2018-08-19T17:49:52Z</time>
      </trkpt>
      <trkpt lat="-27.895075" lon="-65.72018">
        <ele>1270.6</ele>
        <time>2018-08-19T17:49:53Z</time>
      </trkpt>
      <trkpt lat="-27.894995" lon="-65.72028">
        <ele>1271.1</ele>
        <time>2018-08-19T17:49:54Z</time>
      </trkpt>
      <trkpt lat="-27.89493" lon="-65.720365">
        <ele>1270.9</ele>
        <time>2018-08-19T17:49:55Z</time>
      </trkpt>
      <trkpt lat="-27.894865" lon="-65.72046">
        <ele>1270.2</ele>
        <time>2018-08-19T17:49:56Z</time>
      </trkpt>
      <trkpt lat="-27.894815" lon="-65.72055">
        <ele>1269.0</ele>
        <time>2018-08-19T17:49:57Z</time>
      </trkpt>
      <trkpt lat="-27.894755" lon="-65.72065">
        <ele>1267.7</ele>
        <time>2018-08-19T17:49:58Z</time>
      </trkpt>
      <trkpt lat="-27.894695" lon="-65.72077">
        <ele>1266.5</ele>
        <time>2018-08-19T17:49:59Z</time>
      </trkpt>
      <trkpt lat="-27.89464" lon="-65.72089">
        <ele>1265.4</ele>
        <time>2018-08-19T17:50:00Z</time>
      </trkpt>
      <trkpt lat="-27.89459" lon="-65.721005">
        <ele>1264.5</ele>
        <time>2018-08-19T17:50:01Z</time>
      </trkpt>
      <trkpt lat="-27.89454" lon="-65.721135">
        <ele>1263.6</ele>
        <time>2018-08-19T17:50:02Z</time>
      </trkpt>
      <trkpt lat="-27.894485" lon="-65.72127">
        <ele>1262.8</ele>
        <time>2018-08-19T17:50:03Z</time>
      </trkpt>
      <trkpt lat="-27.89444" lon="-65.7214">
        <ele>1262.0</ele>
        <time>2018-08-19T17:50:04Z</time>
      </trkpt>
      <trkpt lat="-27.89439" lon="-65.72154">
        <ele>1261.5</ele>
        <time>2018-08-19T17:50:05Z</time>
      </trkpt>
      <trkpt lat="-27.89434" lon="-65.72168">
        <ele>1261.2</ele>
        <time>2018-08-19T17:50:06Z</time>
      </trkpt>
      <trkpt lat="-27.894285" lon="-65.721805">
        <ele>1261.0</ele>
        <time>2018-08-19T17:50:07Z</time>
      </trkpt>
      <trkpt lat="-27.894245" lon="-65.72194">
        <ele>1260.7</ele>
        <time>2018-08-19T17:50:08Z</time>
      </trkpt>
      <trkpt lat="-27.894205" lon="-65.722055">
        <ele>1260.3</ele>
        <time>2018-08-19T17:50:09Z</time>
      </trkpt>
      <trkpt lat="-27.894165" lon="-65.72217">
        <ele>1259.8</ele>
        <time>2018-08-19T17:50:10Z</time>
      </trkpt>
      <trkpt lat="-27.894125" lon="-65.7223">
        <ele>1259.4</ele>
        <time>2018-08-19T17:50:11Z</time>
      </trkpt>
      <trkpt lat="-27.894085" lon="-65.72242">
        <ele>1259.1</ele>
        <time>2018-08-19T17:50:12Z</time>
      </trkpt>
      <trkpt lat="-27.89404" lon="-65.722525">
        <ele>1258.8</ele>
        <time>2018-08-19T17:50:13Z</time>
      </trkpt>
      <trkpt lat="-27.893995" lon="-65.722655">
        <ele>1258.6</ele>
        <time>2018-08-19T17:50:14Z</time>
      </trkpt>
      <trkpt lat="-27.893945" lon="-65.72277">
        <ele>1258.5</ele>
        <time>2018-08-19T17:50:15Z</time>
      </trkpt>
      <trkpt lat="-27.8939" lon="-65.72287">
        <ele>1258.4</ele>
        <time>2018-08-19T17:50:16Z</time>
      </trkpt>
      <trkpt lat="-27.893855" lon="-65.72297">
        <ele>1258.3</ele>
        <time>2018-08-19T17:50:17Z</time>
      </trkpt>
      <trkpt lat="-27.893805" lon="-65.72306">
        <ele>1258.0</ele>
        <time>2018-08-19T17:50:18Z</time>
      </trkpt>
      <trkpt lat="-27.893755" lon="-65.72315">
        <ele>1257.7</ele>
        <time>2018-08-19T17:50:19Z</time>
      </trkpt>
      <trkpt lat="-27.89371" lon="-65.72324">
        <ele>1257.3</ele>
        <time>2018-08-19T17:50:20Z</time>
      </trkpt>
      <trkpt lat="-27.893655" lon="-65.72332">
        <ele>1256.9</ele>
        <time>2018-08-19T17:50:21Z</time>
      </trkpt>
      <trkpt lat="-27.893605" lon="-65.723405">
        <ele>1256.4</ele>
        <time>2018-08-19T17:50:22Z</time>
      </trkpt>
      <trkpt lat="-27.89355" lon="-65.723505">
        <ele>1256.0</ele>
        <time>2018-08-19T17:50:23Z</time>
      </trkpt>
      <trkpt lat="-27.89349" lon="-65.723595">
        <ele>1255.7</ele>
        <time>2018-08-19T17:50:24Z</time>
      </trkpt>
      <trkpt lat="-27.893435" lon="-65.72368">
        <ele>1255.5</ele>
        <time>2018-08-19T17:50:25Z</time>
      </trkpt>
      <trkpt lat="-27.893375" lon="-65.72376">
        <ele>1255.3</ele>
        <time>2018-08-19T17:50:26Z</time>
      </trkpt>
      <trkpt lat="-27.89331" lon="-65.723845">
        <ele>1255.3</ele>
        <time>2018-08-19T17:50:27Z</time>
      </trkpt>
      <trkpt lat="-27.893255" lon="-65.723915">
        <ele>1255.4</ele>
        <time>2018-08-19T17:50:28Z</time>
      </trkpt>
      <trkpt lat="-27.89319" lon="-65.72399">
        <ele>1255.4</ele>
        <time>2018-08-19T17:50:29Z</time>
      </trkpt>
      <trkpt lat="-27.89314" lon="-65.724055">
        <ele>1255.5</ele>
        <time>2018-08-19T17:50:30Z</time>
      </trkpt>
      <trkpt lat="-27.893085" lon="-65.72412">
        <ele>1255.4</ele>
        <time>2018-08-19T17:50:31Z</time>
      </trkpt>
      <trkpt lat="-27.893025" lon="-65.724185">
        <ele>1255.4</ele>
        <time>2018-08-19T17:50:32Z</time>
      </trkpt>
      <trkpt lat="-27.892965" lon="-65.724225">
        <ele>1255.3</ele>
        <time>2018-08-19T17:50:33Z</time>
      </trkpt>
      <trkpt lat="-27.89291" lon="-65.724305">
        <ele>1255.1</ele>
        <time>2018-08-19T17:50:34Z</time>
      </trkpt>
      <trkpt lat="-27.892845" lon="-65.724365">
        <ele>1255.0</ele>
        <time>2018-08-19T17:50:35Z</time>
      </trkpt>
      <trkpt lat="-27.892785" lon="-65.72441">
        <ele>1254.7</ele>
        <time>2018-08-19T17:50:36Z</time>
      </trkpt>
      <trkpt lat="-27.892715" lon="-65.724495">
        <ele>1254.5</ele>
        <time>2018-08-19T17:50:37Z</time>
      </trkpt>
      <trkpt lat="-27.892645" lon="-65.72456">
        <ele>1254.3</ele>
        <time>2018-08-19T17:50:38Z</time>
      </trkpt>
      <trkpt lat="-27.892585" lon="-65.724615">
        <ele>1254.0</ele>
        <time>2018-08-19T17:50:39Z</time>
      </trkpt>
      <trkpt lat="-27.892515" lon="-65.724675">
        <ele>1253.3</ele>
        <time>2018-08-19T17:50:40Z</time>
      </trkpt>
      <trkpt lat="-27.892454999999998" lon="-65.724745">
        <ele>1252.7</ele>
        <time>2018-08-19T17:50:41Z</time>
      </trkpt>
      <trkpt lat="-27.892385" lon="-65.724805">
        <ele>1252.3</ele>
        <time>2018-08-19T17:50:42Z</time>
      </trkpt>
      <trkpt lat="-27.892315" lon="-65.72488">
        <ele>1251.6</ele>
        <time>2018-08-19T17:50:43Z</time>
      </trkpt>
      <trkpt lat="-27.89224" lon="-65.724945">
        <ele>1250.7</ele>
        <time>2018-08-19T17:50:44Z</time>
      </trkpt>
      <trkpt lat="-27.89217" lon="-65.72501">
        <ele>1249.6</ele>
        <time>2018-08-19T17:50:45Z</time>
      </trkpt>
      <trkpt lat="-27.892115" lon="-65.725075">
        <ele>1248.6</ele>
        <time>2018-08-19T17:50:46Z</time>
      </trkpt>
      <trkpt lat="-27.892045" lon="-65.725125">
        <ele>1248.1</ele>
        <time>2018-08-19T17:50:47Z</time>
      </trkpt>
      <trkpt lat="-27.89198" lon="-65.725205">
        <ele>1247.5</ele>
        <time>2018-08-19T17:50:48Z</time>
      </trkpt>
      <trkpt lat="-27.89192" lon="-65.725255">
        <ele>1246.6</ele>
        <time>2018-08-19T17:50:49Z</time>
      </trkpt>
      <trkpt lat="-27.891855" lon="-65.72533">
        <ele>1245.6</ele>
        <time>2018-08-19T17:50:50Z</time>
      </trkpt>
      <trkpt lat="-27.89179" lon="-65.725385">
        <ele>1244.9</ele>
        <time>2018-08-19T17:50:51Z</time>
      </trkpt>
      <trkpt lat="-27.89172" lon="-65.725435">
        <ele>1244.6</ele>
        <time>2018-08-19T17:50:52Z</time>
      </trkpt>
      <trkpt lat="-27.89166" lon="-65.72551">
        <ele>1244.6</ele>
        <time>2018-08-19T17:50:53Z</time>
      </trkpt>
      <trkpt lat="-27.891595" lon="-65.725575">
        <ele>1244.6</ele>
        <time>2018-08-19T17:50:54Z</time>
      </trkpt>
      <trkpt lat="-27.89153" lon="-65.72564">
        <ele>1244.5</ele>
        <time>2018-08-19T17:50:55Z</time>
      </trkpt>
      <trkpt lat="-27.891445" lon="-65.725705">
        <ele>1244.5</ele>
        <time>2018-08-19T17:50:56Z</time>
      </trkpt>
      <trkpt lat="-27.891315" lon="-65.725835">
        <ele>1243.5</ele>
        <time>2018-08-19T17:50:58Z</time>
      </trkpt>
      <trkpt lat="-27.89123" lon="-65.725925">
        <ele>1243.3</ele>
        <time>2018-08-19T17:50:59Z</time>
      </trkpt>
      <trkpt lat="-27.89116" lon="-65.72597">
        <ele>1242.9</ele>
        <time>2018-08-19T17:51:00Z</time>
      </trkpt>
      <trkpt lat="-27.891065" lon="-65.72606">
        <ele>1242.4</ele>
        <time>2018-08-19T17:51:01Z</time>
      </trkpt>
      <trkpt lat="-27.89099" lon="-65.72615">
        <ele>1242.2</ele>
        <time>2018-08-19T17:51:02Z</time>
      </trkpt>
      <trkpt lat="-27.890915" lon="-65.72622">
        <ele>1241.8</ele>
        <time>2018-08-19T17:51:03Z</time>
      </trkpt>
      <trkpt lat="-27.89083" lon="-65.726305">
        <ele>1241.4</ele>
        <time>2018-08-19T17:51:04Z</time>
      </trkpt>
      <trkpt lat="-27.890755" lon="-65.72638">
        <ele>1241.1</ele>
        <time>2018-08-19T17:51:05Z</time>
      </trkpt>
      <trkpt lat="-27.89067" lon="-65.72646">
        <ele>1241.0</ele>
        <time>2018-08-19T17:51:06Z</time>
      </trkpt>
      <trkpt lat="-27.89059" lon="-65.726545">
        <ele>1240.8</ele>
        <time>2018-08-19T17:51:07Z</time>
      </trkpt>
      <trkpt lat="-27.89052" lon="-65.726605">
        <ele>1240.6</ele>
        <time>2018-08-19T17:51:08Z</time>
      </trkpt>
      <trkpt lat="-27.89044" lon="-65.726685">
        <ele>1239.9</ele>
        <time>2018-08-19T17:51:09Z</time>
      </trkpt>
      <trkpt lat="-27.89038" lon="-65.72673">
        <ele>1239.0</ele>
        <time>2018-08-19T17:51:10Z</time>
      </trkpt>
      <trkpt lat="-27.89032" lon="-65.72682">
        <ele>1238.3</ele>
        <time>2018-08-19T17:51:11Z</time>
      </trkpt>
      <trkpt lat="-27.89025" lon="-65.726905">
        <ele>1237.8</ele>
        <time>2018-08-19T17:51:12Z</time>
      </trkpt>
      <trkpt lat="-27.89019" lon="-65.72698">
        <ele>1237.4</ele>
        <time>2018-08-19T17:51:13Z</time>
      </trkpt>
      <trkpt lat="-27.89013" lon="-65.727045">
        <ele>1237.3</ele>
        <time>2018-08-19T17:51:14Z</time>
      </trkpt>
      <trkpt lat="-27.89008" lon="-65.72712">
        <ele>1237.0</ele>
        <time>2018-08-19T17:51:15Z</time>
      </trkpt>
      <trkpt lat="-27.889995" lon="-65.727255">
        <ele>1236.4</ele>
        <time>2018-08-19T17:51:17Z</time>
      </trkpt>
      <trkpt lat="-27.88994" lon="-65.72732">
        <ele>1236.8</ele>
        <time>2018-08-19T17:51:18Z</time>
      </trkpt>
      <trkpt lat="-27.88989" lon="-65.727405">
        <ele>1237.3</ele>
        <time>2018-08-19T17:51:19Z</time>
      </trkpt>
      <trkpt lat="-27.889855" lon="-65.727475">
        <ele>1237.7</ele>
        <time>2018-08-19T17:51:20Z</time>
      </trkpt>
      <trkpt lat="-27.889785" lon="-65.72758">
        <ele>1238.2</ele>
        <time>2018-08-19T17:51:22Z</time>
      </trkpt>
      <trkpt lat="-27.88974" lon="-65.727675">
        <ele>1236.2</ele>
        <time>2018-08-19T17:51:25Z</time>
      </trkpt>
      <trkpt lat="-27.889705" lon="-65.72777">
        <ele>1235.8</ele>
        <time>2018-08-19T17:51:27Z</time>
      </trkpt>
      <trkpt lat="-27.889665" lon="-65.72788">
        <ele>1235.0</ele>
        <time>2018-08-19T17:51:30Z</time>
      </trkpt>
      <trkpt lat="-27.88963" lon="-65.72794">
        <ele>1234.4</ele>
        <time>2018-08-19T17:51:32Z</time>
      </trkpt>
      <trkpt lat="-27.889595" lon="-65.72806">
        <ele>1233.6</ele>
        <time>2018-08-19T17:51:35Z</time>
      </trkpt>
      <trkpt lat="-27.88956" lon="-65.728165">
        <ele>1233.0</ele>
        <time>2018-08-19T17:51:38Z</time>
      </trkpt>
      <trkpt lat="-27.889525" lon="-65.72824666666666">
        <ele>1232.4</ele>
        <time>2018-08-19T17:51:41Z</time>
      </trkpt>
      <trkpt lat="-27.889499999999998" lon="-65.72834">
        <ele>1232.0</ele>
        <time>2018-08-19T17:51:43Z</time>
      </trkpt>
      <trkpt lat="-27.889475" lon="-65.728425">
        <ele>1229.8</ele>
        <time>2018-08-19T17:51:45Z</time>
      </trkpt>
      <trkpt lat="-27.88945" lon="-65.72851">
        <ele>1227.0</ele>
        <time>2018-08-19T17:51:47Z</time>
      </trkpt>
      <trkpt lat="-27.88943" lon="-65.728605">
        <ele>1225.3</ele>
        <time>2018-08-19T17:51:49Z</time>
      </trkpt>
      <trkpt lat="-27.889405" lon="-65.7287">
        <ele>1224.1</ele>
        <time>2018-08-19T17:51:51Z</time>
      </trkpt>
      <trkpt lat="-27.88937" lon="-65.7288">
        <ele>1224.7</ele>
        <time>2018-08-19T17:51:53Z</time>
      </trkpt>
      <trkpt lat="-27.88935" lon="-65.72891">
        <ele>1226.2</ele>
        <time>2018-08-19T17:51:55Z</time>
      </trkpt>
      <trkpt lat="-27.889325" lon="-65.729015">
        <ele>1228.5</ele>
        <time>2018-08-19T17:51:57Z</time>
      </trkpt>
      <trkpt lat="-27.889305" lon="-65.72913">
        <ele>1230.3</ele>
        <time>2018-08-19T17:51:59Z</time>
      </trkpt>
      <trkpt lat="-27.889285" lon="-65.72923166666666">
        <ele>1231.2</ele>
        <time>2018-08-19T17:52:01Z</time>
      </trkpt>
      <trkpt lat="-27.889285" lon="-65.72936">
        <ele>1231.8</ele>
        <time>2018-08-19T17:52:03Z</time>
      </trkpt>
      <trkpt lat="-27.88928" lon="-65.729445">
        <ele>1232.1</ele>
        <time>2018-08-19T17:52:05Z</time>
      </trkpt>
      <trkpt lat="-27.88928" lon="-65.72956">
        <ele>1232.3</ele>
        <time>2018-08-19T17:52:08Z</time>
      </trkpt>
      <trkpt lat="-27.889195" lon="-65.7296">
        <ele>1232.1</ele>
        <time>2018-08-19T17:52:12Z</time>
      </trkpt>
      <trkpt lat="-27.889075" lon="-65.72956">
        <ele>1231.0</ele>
        <time>2018-08-19T17:52:14Z</time>
      </trkpt>
      <trkpt lat="-27.888955" lon="-65.72955">
        <ele>1229.6</ele>
        <time>2018-08-19T17:52:16Z</time>
      </trkpt>
      <trkpt lat="-27.888815" lon="-65.729485">
        <ele>1227.9</ele>
        <time>2018-08-19T17:52:18Z</time>
      </trkpt>
      <trkpt lat="-27.88875" lon="-65.72945">
        <ele>1227.3</ele>
        <time>2018-08-19T17:52:19Z</time>
      </trkpt>
      <trkpt lat="-27.88868" lon="-65.72941">
        <ele>1226.3</ele>
        <time>2018-08-19T17:52:20Z</time>
      </trkpt>
      <trkpt lat="-27.888605" lon="-65.72937">
        <ele>1225.1</ele>
        <time>2018-08-19T17:52:21Z</time>
      </trkpt>
      <trkpt lat="-27.88849" lon="-65.72929">
        <ele>1224.3</ele>
        <time>2018-08-19T17:52:23Z</time>
      </trkpt>
      <trkpt lat="-27.888415" lon="-65.729195">
        <ele>1222.4</ele>
        <time>2018-08-19T17:52:25Z</time>
      </trkpt>
      <trkpt lat="-27.888335" lon="-65.729065">
        <ele>1221.5</ele>
        <time>2018-08-19T17:52:27Z</time>
      </trkpt>
      <trkpt lat="-27.88829" lon="-65.729005">
        <ele>1220.9</ele>
        <time>2018-08-19T17:52:28Z</time>
      </trkpt>
      <trkpt lat="-27.88822" lon="-65.728885">
        <ele>1221.1</ele>
        <time>2018-08-19T17:52:30Z</time>
      </trkpt>
      <trkpt lat="-27.88816" lon="-65.7288">
        <ele>1221.7</ele>
        <time>2018-08-19T17:52:32Z</time>
      </trkpt>
      <trkpt lat="-27.888085" lon="-65.72879">
        <ele>1220.3</ele>
        <time>2018-08-19T17:52:35Z</time>
      </trkpt>
      <trkpt lat="-27.888" lon="-65.7288">
        <ele>1217.2</ele>
        <time>2018-08-19T17:52:37Z</time>
      </trkpt>
      <trkpt lat="-27.88792" lon="-65.728835">
        <ele>1216.3</ele>
        <time>2018-08-19T17:52:39Z</time>
      </trkpt>
      <trkpt lat="-27.887845" lon="-65.728825">
        <ele>1216.1</ele>
        <time>2018-08-19T17:52:41Z</time>
      </trkpt>
      <trkpt lat="-27.887765" lon="-65.7288">
        <ele>1215.5</ele>
        <time>2018-08-19T17:52:44Z</time>
      </trkpt>
      <trkpt lat="-27.88768" lon="-65.728755">
        <ele>1215.0</ele>
        <time>2018-08-19T17:52:47Z</time>
      </trkpt>
      <trkpt lat="-27.88761" lon="-65.72870166666667">
        <ele>1214.7</ele>
        <time>2018-08-19T17:52:50Z</time>
      </trkpt>
      <trkpt lat="-27.887535" lon="-65.72868">
        <ele>1214.3</ele>
        <time>2018-08-19T17:52:54Z</time>
      </trkpt>
      <trkpt lat="-27.88745" lon="-65.728615">
        <ele>1214.2</ele>
        <time>2018-08-19T17:52:57Z</time>
      </trkpt>
      <trkpt lat="-27.887375" lon="-65.728575">
        <ele>1214.1</ele>
        <time>2018-08-19T17:52:59Z</time>
      </trkpt>
      <trkpt lat="-27.88728" lon="-65.72853">
        <ele>1214.0</ele>
        <time>2018-08-19T17:53:02Z</time>
      </trkpt>
      <trkpt lat="-27.887175" lon="-65.72847333333333">
        <ele>1213.9</ele>
        <time>2018-08-19T17:53:05Z</time>
      </trkpt>
      <trkpt lat="-27.887105" lon="-65.728465">
        <ele>1213.9</ele>
        <time>2018-08-19T17:53:07Z</time>
      </trkpt>
      <trkpt lat="-27.88702" lon="-65.72843">
        <ele>1213.9</ele>
        <time>2018-08-19T17:53:10Z</time>
      </trkpt>
      <trkpt lat="-27.886935" lon="-65.72839">
        <ele>1213.9</ele>
        <time>2018-08-19T17:53:12Z</time>
      </trkpt>
      <trkpt lat="-27.886855" lon="-65.728385">
        <ele>1213.8</ele>
        <time>2018-08-19T17:53:14Z</time>
      </trkpt>
      <trkpt lat="-27.88677" lon="-65.72835">
        <ele>1212.4</ele>
        <time>2018-08-19T17:53:16Z</time>
      </trkpt>
      <trkpt lat="-27.88667" lon="-65.72833">
        <ele>1211.6</ele>
        <time>2018-08-19T17:53:19Z</time>
      </trkpt>
      <trkpt lat="-27.88656" lon="-65.728305">
        <ele>1210.8</ele>
        <time>2018-08-19T17:53:22Z</time>
      </trkpt>
      <trkpt lat="-27.886445" lon="-65.728275">
        <ele>1210.2</ele>
        <time>2018-08-19T17:53:24Z</time>
      </trkpt>
      <trkpt lat="-27.886345" lon="-65.728245">
        <ele>1210.5</ele>
        <time>2018-08-19T17:53:26Z</time>
      </trkpt>
      <trkpt lat="-27.886255" lon="-65.72823">
        <ele>1211.1</ele>
        <time>2018-08-19T17:53:28Z</time>
      </trkpt>
      <trkpt lat="-27.88616" lon="-65.7282">
        <ele>1211.9</ele>
        <time>2018-08-19T17:53:30Z</time>
      </trkpt>
      <trkpt lat="-27.88606" lon="-65.728165">
        <ele>1212.9</ele>
        <time>2018-08-19T17:53:32Z</time>
      </trkpt>
      <trkpt lat="-27.88598" lon="-65.72816">
        <ele>1214.2</ele>
        <time>2018-08-19T17:53:34Z</time>
      </trkpt>
      <trkpt lat="-27.88589" lon="-65.728125">
        <ele>1214.5</ele>
        <time>2018-08-19T17:53:36Z</time>
      </trkpt>
      <trkpt lat="-27.8858" lon="-65.728105">
        <ele>1214.2</ele>
        <time>2018-08-19T17:53:38Z</time>
      </trkpt>
      <trkpt lat="-27.885705" lon="-65.72808">
        <ele>1213.1</ele>
        <time>2018-08-19T17:53:40Z</time>
      </trkpt>
      <trkpt lat="-27.885585" lon="-65.728065">
        <ele>1212.7</ele>
        <time>2018-08-19T17:53:43Z</time>
      </trkpt>
      <trkpt lat="-27.885495" lon="-65.72803">
        <ele>1214.4</ele>
        <time>2018-08-19T17:53:45Z</time>
      </trkpt>
      <trkpt lat="-27.885405" lon="-65.72802">
        <ele>1215.9</ele>
        <time>2018-08-19T17:53:47Z</time>
      </trkpt>
      <trkpt lat="-27.8853" lon="-65.727985">
        <ele>1218.8</ele>
        <time>2018-08-19T17:53:49Z</time>
      </trkpt>
      <trkpt lat="-27.885195" lon="-65.72798">
        <ele>1221.8</ele>
        <time>2018-08-19T17:53:51Z</time>
      </trkpt>
      <trkpt lat="-27.885105" lon="-65.727965">
        <ele>1223.9</ele>
        <time>2018-08-19T17:53:53Z</time>
      </trkpt>
      <trkpt lat="-27.885015" lon="-65.72794">
        <ele>1224.1</ele>
        <time>2018-08-19T17:53:55Z</time>
      </trkpt>
      <trkpt lat="-27.88493" lon="-65.72794">
        <ele>1223.3</ele>
        <time>2018-08-19T17:53:57Z</time>
      </trkpt>
      <trkpt lat="-27.884845" lon="-65.72794">
        <ele>1221.3</ele>
        <time>2018-08-19T17:53:59Z</time>
      </trkpt>
      <trkpt lat="-27.884765" lon="-65.72794">
        <ele>1219.1</ele>
        <time>2018-08-19T17:54:01Z</time>
      </trkpt>
      <trkpt lat="-27.88467" lon="-65.72794">
        <ele>1216.5</ele>
        <time>2018-08-19T17:54:03Z</time>
      </trkpt>
      <trkpt lat="-27.884585" lon="-65.72794">
        <ele>1214.4</ele>
        <time>2018-08-19T17:54:05Z</time>
      </trkpt>
      <trkpt lat="-27.8845" lon="-65.72794">
        <ele>1212.2</ele>
        <time>2018-08-19T17:54:07Z</time>
      </trkpt>
      <trkpt lat="-27.884425" lon="-65.72794">
        <ele>1211.6</ele>
        <time>2018-08-19T17:54:09Z</time>
      </trkpt>
      <trkpt lat="-27.884345" lon="-65.72794">
        <ele>1211.6</ele>
        <time>2018-08-19T17:54:11Z</time>
      </trkpt>
      <trkpt lat="-27.88427" lon="-65.72794">
        <ele>1211.6</ele>
        <time>2018-08-19T17:54:13Z</time>
      </trkpt>
      <trkpt lat="-27.884165" lon="-65.72794">
        <ele>1211.3</ele>
        <time>2018-08-19T17:54:16Z</time>
      </trkpt>
      <trkpt lat="-27.884065" lon="-65.72794">
        <ele>1211.2</ele>
        <time>2018-08-19T17:54:19Z</time>
      </trkpt>
      <trkpt lat="-27.883995" lon="-65.727965">
        <ele>1211.5</ele>
        <time>2018-08-19T17:54:21Z</time>
      </trkpt>
      <trkpt lat="-27.883905" lon="-65.727965">
        <ele>1211.8</ele>
        <time>2018-08-19T17:54:25Z</time>
      </trkpt>
      <trkpt lat="-27.883815" lon="-65.727965">
        <ele>1211.7</ele>
        <time>2018-08-19T17:54:28Z</time>
      </trkpt>
      <trkpt lat="-27.88371" lon="-65.727965">
        <ele>1211.5</ele>
        <time>2018-08-19T17:54:31Z</time>
      </trkpt>
      <trkpt lat="-27.883615" lon="-65.72794">
        <ele>1211.6</ele>
        <time>2018-08-19T17:54:34Z</time>
      </trkpt>
      <trkpt lat="-27.88354" lon="-65.72794">
        <ele>1211.7</ele>
        <time>2018-08-19T17:54:37Z</time>
      </trkpt>
      <trkpt lat="-27.88345" lon="-65.727965">
        <ele>1211.6</ele>
        <time>2018-08-19T17:54:40Z</time>
      </trkpt>
      <trkpt lat="-27.883375" lon="-65.727965">
        <ele>1211.5</ele>
        <time>2018-08-19T17:54:43Z</time>
      </trkpt>
      <trkpt lat="-27.883295" lon="-65.727965">
        <ele>1211.4</ele>
        <time>2018-08-19T17:54:46Z</time>
      </trkpt>
      <trkpt lat="-27.88322" lon="-65.727975">
        <ele>1211.2</ele>
        <time>2018-08-19T17:54:49Z</time>
      </trkpt>
      <trkpt lat="-27.883135" lon="-65.727965">
        <ele>1211.0</ele>
        <time>2018-08-19T17:54:52Z</time>
      </trkpt>
      <trkpt lat="-27.883045" lon="-65.727965">
        <ele>1210.7</ele>
        <time>2018-08-19T17:54:55Z</time>
      </trkpt>
      <trkpt lat="-27.882945" lon="-65.72794">
        <ele>1210.5</ele>
        <time>2018-08-19T17:54:58Z</time>
      </trkpt>
      <trkpt lat="-27.882875" lon="-65.72794">
        <ele>1210.3</ele>
        <time>2018-08-19T17:55:00Z</time>
      </trkpt>
      <trkpt lat="-27.882785" lon="-65.72792">
        <ele>1210.0</ele>
        <time>2018-08-19T17:55:03Z</time>
      </trkpt>
      <trkpt lat="-27.8827" lon="-65.72788">
        <ele>1209.8</ele>
        <time>2018-08-19T17:55:06Z</time>
      </trkpt>
      <trkpt lat="-27.88268" lon="-65.727785">
        <ele>1209.5</ele>
        <time>2018-08-19T17:55:09Z</time>
      </trkpt>
      <trkpt lat="-27.882665" lon="-65.727675">
        <ele>1209.3</ele>
        <time>2018-08-19T17:55:12Z</time>
      </trkpt>
      <trkpt lat="-27.882665" lon="-65.72758">
        <ele>1209.2</ele>
        <time>2018-08-19T17:55:16Z</time>
      </trkpt>
      <trkpt lat="-27.882675" lon="-65.727485">
        <ele>1209.0</ele>
        <time>2018-08-19T17:55:20Z</time>
      </trkpt>
      <trkpt lat="-27.882675" lon="-65.7274">
        <ele>1209.0</ele>
        <time>2018-08-19T17:55:24Z</time>
      </trkpt>
      <trkpt lat="-27.88268" lon="-65.72731">
        <ele>1208.8</ele>
        <time>2018-08-19T17:55:28Z</time>
      </trkpt>
      <trkpt lat="-27.88268" lon="-65.727225">
        <ele>1208.6</ele>
        <time>2018-08-19T17:55:32Z</time>
      </trkpt>
      <trkpt lat="-27.88269" lon="-65.72712">
        <ele>1208.5</ele>
        <time>2018-08-19T17:55:36Z</time>
      </trkpt>
      <trkpt lat="-27.88271" lon="-65.72703">
        <ele>1209.1</ele>
        <time>2018-08-19T17:55:40Z</time>
      </trkpt>
      <trkpt lat="-27.882725" lon="-65.72701">
        <ele>1209.7</ele>
        <time>2018-08-19T17:55:47Z</time>
      </trkpt>
      <trkpt lat="-27.882725" lon="-65.72701">
        <ele>1209.7</ele>
        <time>2018-08-19T17:55:49Z</time>
      </trkpt>
      <trkpt lat="-27.882765" lon="-65.72698">
        <ele>1212.9</ele>
        <time>2018-08-19T17:57:34Z</time>
      </trkpt>
      <trkpt lat="-27.88277" lon="-65.72698">
        <ele>1212.9</ele>
        <time>2018-08-19T17:57:35Z</time>
      </trkpt>
      <trkpt lat="-27.882765" lon="-65.727">
        <ele>1213.2</ele>
        <time>2018-08-19T17:57:46Z</time>
      </trkpt>
      <trkpt lat="-27.882735" lon="-65.726995">
        <ele>1213.0</ele>
        <time>2018-08-19T17:57:52Z</time>
      </trkpt>
      <trkpt lat="-27.882735" lon="-65.72698">
        <ele>1213.1</ele>
        <time>2018-08-19T17:58:05Z</time>
      </trkpt>
      <trkpt lat="-27.88273" lon="-65.726955">
        <ele>1213.1</ele>
        <time>2018-08-19T17:58:06Z</time>
      </trkpt>
      <trkpt lat="-27.88272" lon="-65.72698">
        <ele>1213.1</ele>
        <time>2018-08-19T17:58:16Z</time>
      </trkpt>
      <trkpt lat="-27.882715" lon="-65.72698">
        <ele>1213.1</ele>
        <time>2018-08-19T17:58:17Z</time>
      </trkpt>
      <trkpt lat="-27.882715" lon="-65.726945">
        <ele>1212.3</ele>
        <time>2018-08-19T17:58:28Z</time>
      </trkpt>
      <trkpt lat="-27.88271" lon="-65.726935">
        <ele>1212.2</ele>
        <time>2018-08-19T17:58:29Z</time>
      </trkpt>
      <trkpt lat="-27.882755" lon="-65.72695666666667">
        <ele>1211.9</ele>
        <time>2018-08-19T17:58:38Z</time>
      </trkpt>
      <trkpt lat="-27.882765" lon="-65.727">
        <ele>1211.7</ele>
        <time>2018-08-19T17:58:42Z</time>
      </trkpt>
      <trkpt lat="-27.88277" lon="-65.72701">
        <ele>1211.4</ele>
        <time>2018-08-19T17:59:04Z</time>
      </trkpt>
      <trkpt lat="-27.88277" lon="-65.727025">
        <ele>1211.4</ele>
        <time>2018-08-19T17:59:05Z</time>
      </trkpt>
      <trkpt lat="-27.88278" lon="-65.72703">
        <ele>1211.3</ele>
        <time>2018-08-19T17:59:22Z</time>
      </trkpt>
      <trkpt lat="-27.88278" lon="-65.72703">
        <ele>1211.3</ele>
        <time>2018-08-19T17:59:23Z</time>
      </trkpt>
      <trkpt lat="-27.882765" lon="-65.72701">
        <ele>1211.6</ele>
        <time>2018-08-19T17:59:33Z</time>
      </trkpt>
      <trkpt lat="-27.882765" lon="-65.72701">
        <ele>1211.6</ele>
        <time>2018-08-19T17:59:34Z</time>
      </trkpt>
      <trkpt lat="-27.882755" lon="-65.727">
        <ele>1212.1</ele>
        <time>2018-08-19T17:59:46Z</time>
      </trkpt>
      <trkpt lat="-27.882755" lon="-65.727">
        <ele>1212.2</ele>
        <time>2018-08-19T17:59:47Z</time>
      </trkpt>
      <trkpt lat="-27.882735" lon="-65.72701">
        <ele>1213.4</ele>
        <time>2018-08-19T18:00:12Z</time>
      </trkpt>
      <trkpt lat="-27.882735" lon="-65.72701">
        <ele>1213.5</ele>
        <time>2018-08-19T18:00:13Z</time>
      </trkpt>
      <trkpt lat="-27.882745" lon="-65.72699">
        <ele>1214.1</ele>
        <time>2018-08-19T18:00:25Z</time>
      </trkpt>
      <trkpt lat="-27.882745" lon="-65.72698">
        <ele>1214.1</ele>
        <time>2018-08-19T18:00:26Z</time>
      </trkpt>
      <trkpt lat="-27.882735" lon="-65.726955">
        <ele>1214.6</ele>
        <time>2018-08-19T18:00:36Z</time>
      </trkpt>
      <trkpt lat="-27.882735" lon="-65.726955">
        <ele>1214.6</ele>
        <time>2018-08-19T18:00:37Z</time>
      </trkpt>
      <trkpt lat="-27.882725" lon="-65.726995">
        <ele>1215.2</ele>
        <time>2018-08-19T18:00:49Z</time>
      </trkpt>
      <trkpt lat="-27.88272" lon="-65.726995">
        <ele>1215.2</ele>
        <time>2018-08-19T18:00:50Z</time>
      </trkpt>
      <trkpt lat="-27.88271" lon="-65.72701">
        <ele>1215.7</ele>
        <time>2018-08-19T18:01:00Z</time>
      </trkpt>
      <trkpt lat="-27.88271" lon="-65.72701">
        <ele>1215.7</ele>
        <time>2018-08-19T18:01:01Z</time>
      </trkpt>
      <trkpt lat="-27.88273" lon="-65.727">
        <ele>1216.2</ele>
        <time>2018-08-19T18:01:13Z</time>
      </trkpt>
      <trkpt lat="-27.882735" lon="-65.727">
        <ele>1216.2</ele>
        <time>2018-08-19T18:01:14Z</time>
      </trkpt>
      <trkpt lat="-27.882755" lon="-65.726995">
        <ele>1216.8</ele>
        <time>2018-08-19T18:01:27Z</time>
      </trkpt>
      <trkpt lat="-27.882755" lon="-65.726995">
        <ele>1216.8</ele>
        <time>2018-08-19T18:01:28Z</time>
      </trkpt>
      <trkpt lat="-27.88276" lon="-65.72698">
        <ele>1218.7</ele>
        <time>2018-08-19T18:01:42Z</time>
      </trkpt>
      <trkpt lat="-27.882755" lon="-65.72698">
        <ele>1219.4</ele>
        <time>2018-08-19T18:01:44Z</time>
      </trkpt>
      <trkpt lat="-27.88273" lon="-65.726995">
        <ele>1219.9</ele>
        <time>2018-08-19T18:01:53Z</time>
      </trkpt>
      <trkpt lat="-27.882735" lon="-65.726995">
        <ele>1219.9</ele>
        <time>2018-08-19T18:01:54Z</time>
      </trkpt>
      <trkpt lat="-27.882785" lon="-65.727035">
        <ele>1219.6</ele>
        <time>2018-08-19T18:02:02Z</time>
      </trkpt>
      <trkpt lat="-27.882785" lon="-65.727035">
        <ele>1219.5</ele>
        <time>2018-08-19T18:02:08Z</time>
      </trkpt>
      <trkpt lat="-27.882855" lon="-65.72705500000001">
        <ele>1221.3</ele>
        <time>2018-08-19T18:10:15Z</time>
      </trkpt>
      <trkpt lat="-27.88294" lon="-65.72705500000001">
        <ele>1219.3</ele>
        <time>2018-08-19T18:10:22Z</time>
      </trkpt>
      <trkpt lat="-27.882955" lon="-65.72705500000001">
        <ele>1217.6</ele>
        <time>2018-08-19T18:10:29Z</time>
      </trkpt>
      <trkpt lat="-27.882915" lon="-65.727">
        <ele>1207.4</ele>
        <time>2018-08-19T18:44:04Z</time>
      </trkpt>
      <trkpt lat="-27.882905" lon="-65.72701">
        <ele>1207.5</ele>
        <time>2018-08-19T18:44:11Z</time>
      </trkpt>
      <trkpt lat="-27.882905" lon="-65.72701">
        <ele>1207.5</ele>
        <time>2018-08-19T18:44:13Z</time>
      </trkpt>
      <trkpt lat="-27.882925" lon="-65.727">
        <ele>1207.9</ele>
        <time>2018-08-19T18:44:37Z</time>
      </trkpt>
      <trkpt lat="-27.882925" lon="-65.727">
        <ele>1207.9</ele>
        <time>2018-08-19T18:44:38Z</time>
      </trkpt>
      <trkpt lat="-27.882955" lon="-65.72701">
        <ele>1207.8</ele>
        <time>2018-08-19T18:44:51Z</time>
      </trkpt>
      <trkpt lat="-27.88298" lon="-65.72701">
        <ele>1207.7</ele>
        <time>2018-08-19T18:44:58Z</time>
      </trkpt>
      <trkpt lat="-27.882985" lon="-65.72703">
        <ele>1207.3</ele>
        <time>2018-08-19T18:45:01Z</time>
      </trkpt>
      <trkpt lat="-27.882995" lon="-65.72703">
        <ele>1210.1</ele>
        <time>2018-08-19T18:45:19Z</time>
      </trkpt>
      <trkpt lat="-27.882995" lon="-65.72703">
        <ele>1210.5</ele>
        <time>2018-08-19T18:45:20Z</time>
      </trkpt>
      <trkpt lat="-27.88299" lon="-65.72703">
        <ele>1211.9</ele>
        <time>2018-08-19T18:45:29Z</time>
      </trkpt>
      <trkpt lat="-27.88299" lon="-65.72703">
        <ele>1211.9</ele>
        <time>2018-08-19T18:45:30Z</time>
      </trkpt>
      <trkpt lat="-27.88299" lon="-65.727035">
        <ele>1212.4</ele>
        <time>2018-08-19T18:45:43Z</time>
      </trkpt>
      <trkpt lat="-27.88299" lon="-65.727035">
        <ele>1212.4</ele>
        <time>2018-08-19T18:45:44Z</time>
      </trkpt>
      <trkpt lat="-27.882985" lon="-65.727075">
        <ele>1212.7</ele>
        <time>2018-08-19T18:46:08Z</time>
      </trkpt>
      <trkpt lat="-27.882985" lon="-65.727075">
        <ele>1212.8</ele>
        <time>2018-08-19T18:46:09Z</time>
      </trkpt>
      <trkpt lat="-27.88298" lon="-65.72705500000001">
        <ele>1210.1</ele>
        <time>2018-08-19T18:46:59Z</time>
      </trkpt>
      <trkpt lat="-27.88298" lon="-65.72705500000001">
        <ele>1210.0</ele>
        <time>2018-08-19T18:47:00Z</time>
      </trkpt>
      <trkpt lat="-27.882995" lon="-65.72698">
        <ele>1208.9</ele>
        <time>2018-08-19T18:47:11Z</time>
      </trkpt>
      <trkpt lat="-27.882995" lon="-65.72698">
        <ele>1208.7</ele>
        <time>2018-08-19T18:47:16Z</time>
      </trkpt>
      <trkpt lat="-27.88296" lon="-65.72699">
        <ele>1210.9</ele>
        <time>2018-08-19T18:48:45Z</time>
      </trkpt>
      <trkpt lat="-27.88296" lon="-65.72699">
        <ele>1211.0</ele>
        <time>2018-08-19T18:48:47Z</time>
      </trkpt>
      <trkpt lat="-27.882915" lon="-65.72701">
        <ele>1209.7</ele>
        <time>2018-08-19T18:49:25Z</time>
      </trkpt>
      <trkpt lat="-27.882845" lon="-65.72703">
        <ele>1208.9</ele>
        <time>2018-08-19T18:49:31Z</time>
      </trkpt>
      <trkpt lat="-27.88284" lon="-65.72703">
        <ele>1208.7</ele>
        <time>2018-08-19T18:49:35Z</time>
      </trkpt>
      <trkpt lat="-27.882875" lon="-65.72708">
        <ele>1207.7</ele>
        <time>2018-08-19T18:49:53Z</time>
      </trkpt>
      <trkpt lat="-27.88288" lon="-65.72709">
        <ele>1206.9</ele>
        <time>2018-08-19T18:49:57Z</time>
      </trkpt>
      <trkpt lat="-27.88288" lon="-65.72705500000001">
        <ele>1205.5</ele>
        <time>2018-08-19T18:50:07Z</time>
      </trkpt>
      <trkpt lat="-27.88288" lon="-65.72705500000001">
        <ele>1205.5</ele>
        <time>2018-08-19T18:50:08Z</time>
      </trkpt>
      <trkpt lat="-27.882955" lon="-65.727095">
        <ele>1207.3</ele>
        <time>2018-08-19T18:50:35Z</time>
      </trkpt>
      <trkpt lat="-27.88303" lon="-65.72714">
        <ele>1208.2</ele>
        <time>2018-08-19T18:50:38Z</time>
      </trkpt>
      <trkpt lat="-27.88303" lon="-65.72714">
        <ele>1208.6</ele>
        <time>2018-08-19T18:50:45Z</time>
      </trkpt>
      <trkpt lat="-27.88303" lon="-65.727135">
        <ele>1208.4</ele>
        <time>2018-08-19T18:50:50Z</time>
      </trkpt>
      <trkpt lat="-27.88308" lon="-65.727095">
        <ele>1208.2</ele>
        <time>2018-08-19T18:51:11Z</time>
      </trkpt>
      <trkpt lat="-27.88308" lon="-65.727095">
        <ele>1208.2</ele>
        <time>2018-08-19T18:51:13Z</time>
      </trkpt>
      <trkpt lat="-27.88311" lon="-65.727095">
        <ele>1207.9</ele>
        <time>2018-08-19T18:51:22Z</time>
      </trkpt>
      <trkpt lat="-27.88311" lon="-65.727095">
        <ele>1207.9</ele>
        <time>2018-08-19T18:51:24Z</time>
      </trkpt>
      <trkpt lat="-27.88308" lon="-65.727095">
        <ele>1208.8</ele>
        <time>2018-08-19T18:51:44Z</time>
      </trkpt>
      <trkpt lat="-27.88308" lon="-65.727095">
        <ele>1208.9</ele>
        <time>2018-08-19T18:51:46Z</time>
      </trkpt>
      <trkpt lat="-27.88307" lon="-65.727075">
        <ele>1207.8</ele>
        <time>2018-08-19T18:52:00Z</time>
      </trkpt>
      <trkpt lat="-27.88307" lon="-65.727075">
        <ele>1207.8</ele>
        <time>2018-08-19T18:52:01Z</time>
      </trkpt>
      <trkpt lat="-27.883055" lon="-65.727075">
        <ele>1209.0</ele>
        <time>2018-08-19T18:53:11Z</time>
      </trkpt>
      <trkpt lat="-27.883055" lon="-65.727075">
        <ele>1209.0</ele>
        <time>2018-08-19T18:53:12Z</time>
      </trkpt>
      <trkpt lat="-27.883045" lon="-65.72705500000001">
        <ele>1208.3</ele>
        <time>2018-08-19T18:53:22Z</time>
      </trkpt>
      <trkpt lat="-27.883045" lon="-65.72703">
        <ele>1208.4</ele>
        <time>2018-08-19T18:53:29Z</time>
      </trkpt>
      <trkpt lat="-27.883035" lon="-65.72703">
        <ele>1208.5</ele>
        <time>2018-08-19T18:53:30Z</time>
      </trkpt>
      <trkpt lat="-27.883065" lon="-65.72703">
        <ele>1207.6</ele>
        <time>2018-08-19T18:53:43Z</time>
      </trkpt>
      <trkpt lat="-27.883055" lon="-65.72703">
        <ele>1206.4</ele>
        <time>2018-08-19T18:53:50Z</time>
      </trkpt>
      <trkpt lat="-27.88303" lon="-65.72701">
        <ele>1206.9</ele>
        <time>2018-08-19T18:54:07Z</time>
      </trkpt>
      <trkpt lat="-27.88303" lon="-65.72701">
        <ele>1206.9</ele>
        <time>2018-08-19T18:54:08Z</time>
      </trkpt>
      <trkpt lat="-27.88299" lon="-65.727">
        <ele>1206.8</ele>
        <time>2018-08-19T18:54:22Z</time>
      </trkpt>
      <trkpt lat="-27.88299" lon="-65.727">
        <ele>1206.6</ele>
        <time>2018-08-19T18:54:23Z</time>
      </trkpt>
      <trkpt lat="-27.88298" lon="-65.72701">
        <ele>1205.5</ele>
        <time>2018-08-19T18:54:35Z</time>
      </trkpt>
      <trkpt lat="-27.88298" lon="-65.72701">
        <ele>1205.5</ele>
        <time>2018-08-19T18:54:36Z</time>
      </trkpt>
      <trkpt lat="-27.882955" lon="-65.72701">
        <ele>1205.5</ele>
        <time>2018-08-19T18:55:22Z</time>
      </trkpt>
      <trkpt lat="-27.88295" lon="-65.72701">
        <ele>1205.5</ele>
        <time>2018-08-19T18:55:25Z</time>
      </trkpt>
      <trkpt lat="-27.882925" lon="-65.72698">
        <ele>1205.9</ele>
        <time>2018-08-19T18:55:38Z</time>
      </trkpt>
      <trkpt lat="-27.882925" lon="-65.72698">
        <ele>1206.2</ele>
        <time>2018-08-19T18:55:42Z</time>
      </trkpt>
      <trkpt lat="-27.882915" lon="-65.726995">
        <ele>1207.1</ele>
        <time>2018-08-19T18:55:59Z</time>
      </trkpt>
      <trkpt lat="-27.882925" lon="-65.727">
        <ele>1207.3</ele>
        <time>2018-08-19T18:56:00Z</time>
      </trkpt>
      <trkpt lat="-27.882945" lon="-65.727">
        <ele>1208.2</ele>
        <time>2018-08-19T18:56:20Z</time>
      </trkpt>
      <trkpt lat="-27.882945" lon="-65.727">
        <ele>1208.3</ele>
        <time>2018-08-19T18:56:21Z</time>
      </trkpt>
      <trkpt lat="-27.882935" lon="-65.72701">
        <ele>1210.3</ele>
        <time>2018-08-19T18:56:55Z</time>
      </trkpt>
      <trkpt lat="-27.882935" lon="-65.72701">
        <ele>1210.3</ele>
        <time>2018-08-19T18:56:56Z</time>
      </trkpt>
      <trkpt lat="-27.88289" lon="-65.727035">
        <ele>1208.3</ele>
        <time>2018-08-19T18:57:43Z</time>
      </trkpt>
      <trkpt lat="-27.88289" lon="-65.727035">
        <ele>1208.8</ele>
        <time>2018-08-19T18:57:50Z</time>
      </trkpt>
      <trkpt lat="-27.88291" lon="-65.727025">
        <ele>1209.6</ele>
        <time>2018-08-19T18:58:10Z</time>
      </trkpt>
      <trkpt lat="-27.88291" lon="-65.727025">
        <ele>1209.6</ele>
        <time>2018-08-19T18:58:11Z</time>
      </trkpt>
      <trkpt lat="-27.88289" lon="-65.72701">
        <ele>1210.6</ele>
        <time>2018-08-19T18:58:53Z</time>
      </trkpt>
      <trkpt lat="-27.88289" lon="-65.72701">
        <ele>1210.3</ele>
        <time>2018-08-19T18:58:58Z</time>
      </trkpt>
      <trkpt lat="-27.882885" lon="-65.72699">
        <ele>1210.2</ele>
        <time>2018-08-19T18:59:08Z</time>
      </trkpt>
      <trkpt lat="-27.882885" lon="-65.72699">
        <ele>1210.2</ele>
        <time>2018-08-19T18:59:09Z</time>
      </trkpt>
      <trkpt lat="-27.88291" lon="-65.72698">
        <ele>1209.8</ele>
        <time>2018-08-19T18:59:45Z</time>
      </trkpt>
      <trkpt lat="-27.88291" lon="-65.72698">
        <ele>1209.8</ele>
        <time>2018-08-19T18:59:46Z</time>
      </trkpt>
      <trkpt lat="-27.88287" lon="-65.72695666666667">
        <ele>1209.9</ele>
        <time>2018-08-19T19:00:05Z</time>
      </trkpt>
      <trkpt lat="-27.882855" lon="-65.726955">
        <ele>1209.9</ele>
        <time>2018-08-19T19:00:12Z</time>
      </trkpt>
      <trkpt lat="-27.88287" lon="-65.726955">
        <ele>1209.8</ele>
        <time>2018-08-19T19:00:19Z</time>
      </trkpt>
      <trkpt lat="-27.88287" lon="-65.726955">
        <ele>1209.8</ele>
        <time>2018-08-19T19:00:22Z</time>
      </trkpt>
      <trkpt lat="-27.882855" lon="-65.726955">
        <ele>1209.4</ele>
        <time>2018-08-19T19:00:55Z</time>
      </trkpt>
      <trkpt lat="-27.882855" lon="-65.726955">
        <ele>1209.4</ele>
        <time>2018-08-19T19:00:56Z</time>
      </trkpt>
      <trkpt lat="-27.88287" lon="-65.726955">
        <ele>1208.0</ele>
        <time>2018-08-19T19:01:42Z</time>
      </trkpt>
      <trkpt lat="-27.88287" lon="-65.726955">
        <ele>1208.0</ele>
        <time>2018-08-19T19:01:43Z</time>
      </trkpt>
      <trkpt lat="-27.882865" lon="-65.726955">
        <ele>1206.8</ele>
        <time>2018-08-19T19:01:55Z</time>
      </trkpt>
      <trkpt lat="-27.882865" lon="-65.726955">
        <ele>1206.8</ele>
        <time>2018-08-19T19:01:56Z</time>
      </trkpt>
      <trkpt lat="-27.882875" lon="-65.726945">
        <ele>1206.3</ele>
        <time>2018-08-19T19:03:10Z</time>
      </trkpt>
      <trkpt lat="-27.882875" lon="-65.726945">
        <ele>1206.6</ele>
        <time>2018-08-19T19:03:14Z</time>
      </trkpt>
      <trkpt lat="-27.882885" lon="-65.72695">
        <ele>1205.6</ele>
        <time>2018-08-19T19:04:49Z</time>
      </trkpt>
      <trkpt lat="-27.882885" lon="-65.72695">
        <ele>1205.6</ele>
        <time>2018-08-19T19:04:50Z</time>
      </trkpt>
      <trkpt lat="-27.88287" lon="-65.726935">
        <ele>1207.0</ele>
        <time>2018-08-19T19:06:19Z</time>
      </trkpt>
      <trkpt lat="-27.88287" lon="-65.726935">
        <ele>1207.2</ele>
        <time>2018-08-19T19:06:20Z</time>
      </trkpt>
      <trkpt lat="-27.88288" lon="-65.726955">
        <ele>1206.9</ele>
        <time>2018-08-19T19:06:47Z</time>
      </trkpt>
      <trkpt lat="-27.88288" lon="-65.726955">
        <ele>1206.8</ele>
        <time>2018-08-19T19:06:49Z</time>
      </trkpt>
      <trkpt lat="-27.88288" lon="-65.72698">
        <ele>1207.1</ele>
        <time>2018-08-19T19:07:15Z</time>
      </trkpt>
      <trkpt lat="-27.88288" lon="-65.72698">
        <ele>1207.2</ele>
        <time>2018-08-19T19:07:16Z</time>
      </trkpt>
      <trkpt lat="-27.882875" lon="-65.726955">
        <ele>1207.1</ele>
        <time>2018-08-19T19:08:20Z</time>
      </trkpt>
      <trkpt lat="-27.882875" lon="-65.726955">
        <ele>1207.2</ele>
        <time>2018-08-19T19:08:21Z</time>
      </trkpt>
      <trkpt lat="-27.882865" lon="-65.726955">
        <ele>1207.5</ele>
        <time>2018-08-19T19:08:32Z</time>
      </trkpt>
      <trkpt lat="-27.882865" lon="-65.726955">
        <ele>1207.5</ele>
        <time>2018-08-19T19:08:33Z</time>
      </trkpt>
      <trkpt lat="-27.88288" lon="-65.726955">
        <ele>1207.2</ele>
        <time>2018-08-19T19:08:45Z</time>
      </trkpt>
      <trkpt lat="-27.88288" lon="-65.726955">
        <ele>1207.2</ele>
        <time>2018-08-19T19:08:46Z</time>
      </trkpt>
      <trkpt lat="-27.88288" lon="-65.72699">
        <ele>1205.8</ele>
        <time>2018-08-19T19:09:21Z</time>
      </trkpt>
      <trkpt lat="-27.882875" lon="-65.72699">
        <ele>1205.5</ele>
        <time>2018-08-19T19:09:22Z</time>
      </trkpt>
      <trkpt lat="-27.882865" lon="-65.727">
        <ele>1207.2</ele>
        <time>2018-08-19T19:10:22Z</time>
      </trkpt>
      <trkpt lat="-27.882865" lon="-65.727">
        <ele>1207.2</ele>
        <time>2018-08-19T19:10:23Z</time>
      </trkpt>
      <trkpt lat="-27.882855" lon="-65.726995">
        <ele>1207.7</ele>
        <time>2018-08-19T19:11:11Z</time>
      </trkpt>
      <trkpt lat="-27.882855" lon="-65.726995">
        <ele>1207.7</ele>
        <time>2018-08-19T19:11:12Z</time>
      </trkpt>
      <trkpt lat="-27.88287" lon="-65.726995">
        <ele>1207.3</ele>
        <time>2018-08-19T19:12:18Z</time>
      </trkpt>
      <trkpt lat="-27.88287" lon="-65.726995">
        <ele>1207.3</ele>
        <time>2018-08-19T19:12:19Z</time>
      </trkpt>
      <trkpt lat="-27.88288" lon="-65.726995">
        <ele>1207.7</ele>
        <time>2018-08-19T19:12:35Z</time>
      </trkpt>
      <trkpt lat="-27.88288" lon="-65.726995">
        <ele>1207.7</ele>
        <time>2018-08-19T19:12:36Z</time>
      </trkpt>
      <trkpt lat="-27.88289" lon="-65.72701">
        <ele>1208.1</ele>
        <time>2018-08-19T19:13:10Z</time>
      </trkpt>
      <trkpt lat="-27.88289" lon="-65.72701">
        <ele>1208.1</ele>
        <time>2018-08-19T19:13:11Z</time>
      </trkpt>
      <trkpt lat="-27.882905" lon="-65.727025">
        <ele>1205.7</ele>
        <time>2018-08-19T19:14:22Z</time>
      </trkpt>
      <trkpt lat="-27.882905" lon="-65.727025">
        <ele>1205.7</ele>
        <time>2018-08-19T19:14:23Z</time>
      </trkpt>
      <trkpt lat="-27.882915" lon="-65.727">
        <ele>1207.5</ele>
        <time>2018-08-19T19:15:31Z</time>
      </trkpt>
      <trkpt lat="-27.882915" lon="-65.727">
        <ele>1207.6</ele>
        <time>2018-08-19T19:15:32Z</time>
      </trkpt>
      <trkpt lat="-27.88289" lon="-65.72701">
        <ele>1208.0</ele>
        <time>2018-08-19T19:15:43Z</time>
      </trkpt>
      <trkpt lat="-27.88289" lon="-65.72701">
        <ele>1208.1</ele>
        <time>2018-08-19T19:15:45Z</time>
      </trkpt>
      <trkpt lat="-27.882805" lon="-65.727">
        <ele>1207.7</ele>
        <time>2018-08-19T19:25:19Z</time>
      </trkpt>
      <trkpt lat="-27.882795" lon="-65.726995">
        <ele>1208.7</ele>
        <time>2018-08-19T19:25:26Z</time>
      </trkpt>
      <trkpt lat="-27.882785" lon="-65.727">
        <ele>1209.3</ele>
        <time>2018-08-19T19:25:28Z</time>
      </trkpt>
      <trkpt lat="-27.882745" lon="-65.727035">
        <ele>1210.9</ele>
        <time>2018-08-19T19:25:37Z</time>
      </trkpt>
      <trkpt lat="-27.882725" lon="-65.727075">
        <ele>1211.6</ele>
        <time>2018-08-19T19:25:44Z</time>
      </trkpt>
      <trkpt lat="-27.882725" lon="-65.727075">
        <ele>1211.7</ele>
        <time>2018-08-19T19:25:47Z</time>
      </trkpt>
      <trkpt lat="-27.882715" lon="-65.72714">
        <ele>1212.8</ele>
        <time>2018-08-19T19:25:56Z</time>
      </trkpt>
      <trkpt lat="-27.882715" lon="-65.72714">
        <ele>1212.8</ele>
        <time>2018-08-19T19:26:01Z</time>
      </trkpt>
      <trkpt lat="-27.8827" lon="-65.72718">
        <ele>1213.4</ele>
        <time>2018-08-19T19:26:17Z</time>
      </trkpt>
      <trkpt lat="-27.8827" lon="-65.727205">
        <ele>1213.4</ele>
        <time>2018-08-19T19:26:18Z</time>
      </trkpt>
      <trkpt lat="-27.882695" lon="-65.727225">
        <ele>1213.4</ele>
        <time>2018-08-19T19:26:28Z</time>
      </trkpt>
      <trkpt lat="-27.882695" lon="-65.727225">
        <ele>1213.4</ele>
        <time>2018-08-19T19:26:29Z</time>
      </trkpt>
      <trkpt lat="-27.88272" lon="-65.72722">
        <ele>1213.4</ele>
        <time>2018-08-19T19:26:40Z</time>
      </trkpt>
      <trkpt lat="-27.882725" lon="-65.72722">
        <ele>1213.4</ele>
        <time>2018-08-19T19:26:41Z</time>
      </trkpt>
      <trkpt lat="-27.88271" lon="-65.727205">
        <ele>1213.6</ele>
        <time>2018-08-19T19:26:54Z</time>
      </trkpt>
      <trkpt lat="-27.88271" lon="-65.727205">
        <ele>1213.6</ele>
        <time>2018-08-19T19:26:55Z</time>
      </trkpt>
      <trkpt lat="-27.882725" lon="-65.727215">
        <ele>1213.6</ele>
        <time>2018-08-19T19:27:06Z</time>
      </trkpt>
      <trkpt lat="-27.88273" lon="-65.727215">
        <ele>1213.6</ele>
        <time>2018-08-19T19:27:07Z</time>
      </trkpt>
      <trkpt lat="-27.88273" lon="-65.72729">
        <ele>1213.0</ele>
        <time>2018-08-19T19:27:15Z</time>
      </trkpt>
      <trkpt lat="-27.8827" lon="-65.727365">
        <ele>1213.0</ele>
        <time>2018-08-19T19:27:18Z</time>
      </trkpt>
      <trkpt lat="-27.88268" lon="-65.72747">
        <ele>1213.1</ele>
        <time>2018-08-19T19:27:21Z</time>
      </trkpt>
      <trkpt lat="-27.882665" lon="-65.72756">
        <ele>1213.2</ele>
        <time>2018-08-19T19:27:24Z</time>
      </trkpt>
      <trkpt lat="-27.882655" lon="-65.727665">
        <ele>1213.3</ele>
        <time>2018-08-19T19:27:28Z</time>
      </trkpt>
      <trkpt lat="-27.882655" lon="-65.727755">
        <ele>1213.4</ele>
        <time>2018-08-19T19:27:31Z</time>
      </trkpt>
      <trkpt lat="-27.88268" lon="-65.72784">
        <ele>1213.7</ele>
        <time>2018-08-19T19:27:35Z</time>
      </trkpt>
      <trkpt lat="-27.88277" lon="-65.727855">
        <ele>1213.7</ele>
        <time>2018-08-19T19:27:40Z</time>
      </trkpt>
      <trkpt lat="-27.882845" lon="-65.72788">
        <ele>1213.6</ele>
        <time>2018-08-19T19:27:43Z</time>
      </trkpt>
      <trkpt lat="-27.88292" lon="-65.7279">
        <ele>1213.6</ele>
        <time>2018-08-19T19:27:46Z</time>
      </trkpt>
      <trkpt lat="-27.882995" lon="-65.72793">
        <ele>1213.6</ele>
        <time>2018-08-19T19:27:49Z</time>
      </trkpt>
      <trkpt lat="-27.88307" lon="-65.72794">
        <ele>1213.6</ele>
        <time>2018-08-19T19:27:52Z</time>
      </trkpt>
      <trkpt lat="-27.88316" lon="-65.72794">
        <ele>1213.6</ele>
        <time>2018-08-19T19:27:55Z</time>
      </trkpt>
      <trkpt lat="-27.883235" lon="-65.72794">
        <ele>1213.7</ele>
        <time>2018-08-19T19:27:58Z</time>
      </trkpt>
      <trkpt lat="-27.88333" lon="-65.72794">
        <ele>1213.8</ele>
        <time>2018-08-19T19:28:02Z</time>
      </trkpt>
      <trkpt lat="-27.883415" lon="-65.72794">
        <ele>1213.8</ele>
        <time>2018-08-19T19:28:05Z</time>
      </trkpt>
      <trkpt lat="-27.883495" lon="-65.72794">
        <ele>1213.9</ele>
        <time>2018-08-19T19:28:08Z</time>
      </trkpt>
      <trkpt lat="-27.883585" lon="-65.72794">
        <ele>1214.0</ele>
        <time>2018-08-19T19:28:11Z</time>
      </trkpt>
      <trkpt lat="-27.88365" lon="-65.72794">
        <ele>1214.2</ele>
        <time>2018-08-19T19:28:14Z</time>
      </trkpt>
      <trkpt lat="-27.88374" lon="-65.72794">
        <ele>1214.4</ele>
        <time>2018-08-19T19:28:17Z</time>
      </trkpt>
      <trkpt lat="-27.88382" lon="-65.72794">
        <ele>1214.5</ele>
        <time>2018-08-19T19:28:20Z</time>
      </trkpt>
      <trkpt lat="-27.883895" lon="-65.72794">
        <ele>1214.6</ele>
        <time>2018-08-19T19:28:23Z</time>
      </trkpt>
      <trkpt lat="-27.88398" lon="-65.72794">
        <ele>1214.8</ele>
        <time>2018-08-19T19:28:26Z</time>
      </trkpt>
      <trkpt lat="-27.884075" lon="-65.72794">
        <ele>1214.9</ele>
        <time>2018-08-19T19:28:29Z</time>
      </trkpt>
      <trkpt lat="-27.884155" lon="-65.72794">
        <ele>1215.1</ele>
        <time>2018-08-19T19:28:32Z</time>
      </trkpt>
      <trkpt lat="-27.884245" lon="-65.72794">
        <ele>1215.2</ele>
        <time>2018-08-19T19:28:35Z</time>
      </trkpt>
      <trkpt lat="-27.884335" lon="-65.727935">
        <ele>1215.2</ele>
        <time>2018-08-19T19:28:38Z</time>
      </trkpt>
      <trkpt lat="-27.88441" lon="-65.72793">
        <ele>1215.2</ele>
        <time>2018-08-19T19:28:41Z</time>
      </trkpt>
      <trkpt lat="-27.884495" lon="-65.72793">
        <ele>1215.2</ele>
        <time>2018-08-19T19:28:44Z</time>
      </trkpt>
      <trkpt lat="-27.884585" lon="-65.727935">
        <ele>1215.3</ele>
        <time>2018-08-19T19:28:48Z</time>
      </trkpt>
      <trkpt lat="-27.88466" lon="-65.72794">
        <ele>1215.3</ele>
        <time>2018-08-19T19:28:51Z</time>
      </trkpt>
      <trkpt lat="-27.88474" lon="-65.72794">
        <ele>1215.3</ele>
        <time>2018-08-19T19:28:55Z</time>
      </trkpt>
      <trkpt lat="-27.884815" lon="-65.727965">
        <ele>1215.3</ele>
        <time>2018-08-19T19:28:58Z</time>
      </trkpt>
      <trkpt lat="-27.884895" lon="-65.727965">
        <ele>1215.4</ele>
        <time>2018-08-19T19:29:01Z</time>
      </trkpt>
      <trkpt lat="-27.88498" lon="-65.727965">
        <ele>1215.6</ele>
        <time>2018-08-19T19:29:04Z</time>
      </trkpt>
      <trkpt lat="-27.88505" lon="-65.727965">
        <ele>1215.6</ele>
        <time>2018-08-19T19:29:07Z</time>
      </trkpt>
      <trkpt lat="-27.885135" lon="-65.727975">
        <ele>1215.8</ele>
        <time>2018-08-19T19:29:10Z</time>
      </trkpt>
      <trkpt lat="-27.88523" lon="-65.727985">
        <ele>1215.9</ele>
        <time>2018-08-19T19:29:14Z</time>
      </trkpt>
      <trkpt lat="-27.885325" lon="-65.727985">
        <ele>1216.1</ele>
        <time>2018-08-19T19:29:18Z</time>
      </trkpt>
      <trkpt lat="-27.885405" lon="-65.72803">
        <ele>1216.2</ele>
        <time>2018-08-19T19:29:21Z</time>
      </trkpt>
      <trkpt lat="-27.885485" lon="-65.72803166666667">
        <ele>1216.2</ele>
        <time>2018-08-19T19:29:24Z</time>
      </trkpt>
      <trkpt lat="-27.88556" lon="-65.728065">
        <ele>1216.2</ele>
        <time>2018-08-19T19:29:27Z</time>
      </trkpt>
      <trkpt lat="-27.88564" lon="-65.72808">
        <ele>1216.2</ele>
        <time>2018-08-19T19:29:30Z</time>
      </trkpt>
      <trkpt lat="-27.885715" lon="-65.72808">
        <ele>1216.2</ele>
        <time>2018-08-19T19:29:33Z</time>
      </trkpt>
      <trkpt lat="-27.885785" lon="-65.728115">
        <ele>1216.3</ele>
        <time>2018-08-19T19:29:36Z</time>
      </trkpt>
      <trkpt lat="-27.88588" lon="-65.728125">
        <ele>1216.4</ele>
        <time>2018-08-19T19:29:40Z</time>
      </trkpt>
      <trkpt lat="-27.88595" lon="-65.728155">
        <ele>1216.6</ele>
        <time>2018-08-19T19:29:43Z</time>
      </trkpt>
      <trkpt lat="-27.886035" lon="-65.728165">
        <ele>1216.6</ele>
        <time>2018-08-19T19:29:47Z</time>
      </trkpt>
      <trkpt lat="-27.88613" lon="-65.72821">
        <ele>1216.7</ele>
        <time>2018-08-19T19:29:51Z</time>
      </trkpt>
      <trkpt lat="-27.886225" lon="-65.728235">
        <ele>1216.5</ele>
        <time>2018-08-19T19:29:55Z</time>
      </trkpt>
      <trkpt lat="-27.886305" lon="-65.728245">
        <ele>1216.4</ele>
        <time>2018-08-19T19:29:58Z</time>
      </trkpt>
      <trkpt lat="-27.88638" lon="-65.72824833333334">
        <ele>1216.3</ele>
        <time>2018-08-19T19:30:01Z</time>
      </trkpt>
      <trkpt lat="-27.88647" lon="-65.728285">
        <ele>1216.2</ele>
        <time>2018-08-19T19:30:04Z</time>
      </trkpt>
      <trkpt lat="-27.886555" lon="-65.728295">
        <ele>1216.3</ele>
        <time>2018-08-19T19:30:07Z</time>
      </trkpt>
      <trkpt lat="-27.886625" lon="-65.728305">
        <ele>1216.4</ele>
        <time>2018-08-19T19:30:10Z</time>
      </trkpt>
      <trkpt lat="-27.88671" lon="-65.72833">
        <ele>1216.5</ele>
        <time>2018-08-19T19:30:14Z</time>
      </trkpt>
      <trkpt lat="-27.886795" lon="-65.72835">
        <ele>1216.5</ele>
        <time>2018-08-19T19:30:18Z</time>
      </trkpt>
      <trkpt lat="-27.886875" lon="-65.72835">
        <ele>1216.6</ele>
        <time>2018-08-19T19:30:21Z</time>
      </trkpt>
      <trkpt lat="-27.886955" lon="-65.728385">
        <ele>1216.6</ele>
        <time>2018-08-19T19:30:24Z</time>
      </trkpt>
      <trkpt lat="-27.88703" lon="-65.72839">
        <ele>1216.6</ele>
        <time>2018-08-19T19:30:27Z</time>
      </trkpt>
      <trkpt lat="-27.88711" lon="-65.728435">
        <ele>1216.7</ele>
        <time>2018-08-19T19:30:30Z</time>
      </trkpt>
      <trkpt lat="-27.887185" lon="-65.72847">
        <ele>1216.9</ele>
        <time>2018-08-19T19:30:33Z</time>
      </trkpt>
      <trkpt lat="-27.887255" lon="-65.72851">
        <ele>1217.1</ele>
        <time>2018-08-19T19:30:36Z</time>
      </trkpt>
      <trkpt lat="-27.887315" lon="-65.728545">
        <ele>1217.4</ele>
        <time>2018-08-19T19:30:39Z</time>
      </trkpt>
      <trkpt lat="-27.887385" lon="-65.7286">
        <ele>1217.4</ele>
        <time>2018-08-19T19:30:42Z</time>
      </trkpt>
      <trkpt lat="-27.887455" lon="-65.728655">
        <ele>1217.5</ele>
        <time>2018-08-19T19:30:45Z</time>
      </trkpt>
      <trkpt lat="-27.88754" lon="-65.7287">
        <ele>1217.4</ele>
        <time>2018-08-19T19:30:49Z</time>
      </trkpt>
      <trkpt lat="-27.887605" lon="-65.728735">
        <ele>1217.0</ele>
        <time>2018-08-19T19:30:52Z</time>
      </trkpt>
      <trkpt lat="-27.88769" lon="-65.728775">
        <ele>1216.8</ele>
        <time>2018-08-19T19:30:56Z</time>
      </trkpt>
      <trkpt lat="-27.88777" lon="-65.7288">
        <ele>1216.8</ele>
        <time>2018-08-19T19:30:59Z</time>
      </trkpt>
      <trkpt lat="-27.88787" lon="-65.72879">
        <ele>1216.9</ele>
        <time>2018-08-19T19:31:02Z</time>
      </trkpt>
      <trkpt lat="-27.887945" lon="-65.72878">
        <ele>1217.0</ele>
        <time>2018-08-19T19:31:04Z</time>
      </trkpt>
      <trkpt lat="-27.88802" lon="-65.72878">
        <ele>1217.0</ele>
        <time>2018-08-19T19:31:06Z</time>
      </trkpt>
      <trkpt lat="-27.88811" lon="-65.72882">
        <ele>1217.0</ele>
        <time>2018-08-19T19:31:09Z</time>
      </trkpt>
      <trkpt lat="-27.88818" lon="-65.728875">
        <ele>1217.0</ele>
        <time>2018-08-19T19:31:12Z</time>
      </trkpt>
      <trkpt lat="-27.888245" lon="-65.72895">
        <ele>1217.1</ele>
        <time>2018-08-19T19:31:15Z</time>
      </trkpt>
      <trkpt lat="-27.888295" lon="-65.72902500000001">
        <ele>1217.1</ele>
        <time>2018-08-19T19:31:18Z</time>
      </trkpt>
      <trkpt lat="-27.88835" lon="-65.72911">
        <ele>1217.2</ele>
        <time>2018-08-19T19:31:21Z</time>
      </trkpt>
      <trkpt lat="-27.888415" lon="-65.72919">
        <ele>1217.2</ele>
        <time>2018-08-19T19:31:24Z</time>
      </trkpt>
      <trkpt lat="-27.888475" lon="-65.72923">
        <ele>1217.2</ele>
        <time>2018-08-19T19:31:27Z</time>
      </trkpt>
      <trkpt lat="-27.88855" lon="-65.72929">
        <ele>1217.2</ele>
        <time>2018-08-19T19:31:31Z</time>
      </trkpt>
      <trkpt lat="-27.88863" lon="-65.729335">
        <ele>1217.3</ele>
        <time>2018-08-19T19:31:36Z</time>
      </trkpt>
      <trkpt lat="-27.888695" lon="-65.7294">
        <ele>1217.1</ele>
        <time>2018-08-19T19:31:40Z</time>
      </trkpt>
      <trkpt lat="-27.888775" lon="-65.72944">
        <ele>1217.1</ele>
        <time>2018-08-19T19:31:43Z</time>
      </trkpt>
      <trkpt lat="-27.888845" lon="-65.729485">
        <ele>1217.3</ele>
        <time>2018-08-19T19:31:47Z</time>
      </trkpt>
      <trkpt lat="-27.88892" lon="-65.72954">
        <ele>1217.8</ele>
        <time>2018-08-19T19:31:52Z</time>
      </trkpt>
      <trkpt lat="-27.88899" lon="-65.72956">
        <ele>1218.0</ele>
        <time>2018-08-19T19:31:56Z</time>
      </trkpt>
      <trkpt lat="-27.889085" lon="-65.7296">
        <ele>1218.3</ele>
        <time>2018-08-19T19:32:00Z</time>
      </trkpt>
      <trkpt lat="-27.889165" lon="-65.7296">
        <ele>1218.7</ele>
        <time>2018-08-19T19:32:04Z</time>
      </trkpt>
      <trkpt lat="-27.88924" lon="-65.729645">
        <ele>1219.3</ele>
        <time>2018-08-19T19:32:10Z</time>
      </trkpt>
      <trkpt lat="-27.889285" lon="-65.729685">
        <ele>1219.9</ele>
        <time>2018-08-19T19:32:17Z</time>
      </trkpt>
      <trkpt lat="-27.889305" lon="-65.729785">
        <ele>1220.5</ele>
        <time>2018-08-19T19:32:22Z</time>
      </trkpt>
      <trkpt lat="-27.889305" lon="-65.729895">
        <ele>1220.9</ele>
        <time>2018-08-19T19:32:26Z</time>
      </trkpt>
      <trkpt lat="-27.889305" lon="-65.72998">
        <ele>1221.2</ele>
        <time>2018-08-19T19:32:30Z</time>
      </trkpt>
      <trkpt lat="-27.889315" lon="-65.73005">
        <ele>1221.6</ele>
        <time>2018-08-19T19:32:34Z</time>
      </trkpt>
      <trkpt lat="-27.889315" lon="-65.730175">
        <ele>1222.0</ele>
        <time>2018-08-19T19:32:38Z</time>
      </trkpt>
      <trkpt lat="-27.889310000000002" lon="-65.730275">
        <ele>1222.2</ele>
        <time>2018-08-19T19:32:41Z</time>
      </trkpt>
      <trkpt lat="-27.889310000000002" lon="-65.73036">
        <ele>1222.5</ele>
        <time>2018-08-19T19:32:44Z</time>
      </trkpt>
      <trkpt lat="-27.889305" lon="-65.73044">
        <ele>1222.7</ele>
        <time>2018-08-19T19:32:47Z</time>
      </trkpt>
      <trkpt lat="-27.8893" lon="-65.730545">
        <ele>1222.9</ele>
        <time>2018-08-19T19:32:50Z</time>
      </trkpt>
      <trkpt lat="-27.8893" lon="-65.73065">
        <ele>1223.1</ele>
        <time>2018-08-19T19:32:53Z</time>
      </trkpt>
      <trkpt lat="-27.8893" lon="-65.730745">
        <ele>1223.3</ele>
        <time>2018-08-19T19:32:56Z</time>
      </trkpt>
      <trkpt lat="-27.889285" lon="-65.73085">
        <ele>1223.5</ele>
        <time>2018-08-19T19:32:59Z</time>
      </trkpt>
      <trkpt lat="-27.8893" lon="-65.73095">
        <ele>1223.7</ele>
        <time>2018-08-19T19:33:02Z</time>
      </trkpt>
      <trkpt lat="-27.889285" lon="-65.731035">
        <ele>1223.9</ele>
        <time>2018-08-19T19:33:05Z</time>
      </trkpt>
      <trkpt lat="-27.889285" lon="-65.731145">
        <ele>1224.3</ele>
        <time>2018-08-19T19:33:08Z</time>
      </trkpt>
      <trkpt lat="-27.889285" lon="-65.73125">
        <ele>1224.6</ele>
        <time>2018-08-19T19:33:11Z</time>
      </trkpt>
      <trkpt lat="-27.889285" lon="-65.731335">
        <ele>1225.0</ele>
        <time>2018-08-19T19:33:14Z</time>
      </trkpt>
      <trkpt lat="-27.889285" lon="-65.731425">
        <ele>1225.3</ele>
        <time>2018-08-19T19:33:17Z</time>
      </trkpt>
      <trkpt lat="-27.889285" lon="-65.7315">
        <ele>1225.8</ele>
        <time>2018-08-19T19:33:20Z</time>
      </trkpt>
      <trkpt lat="-27.889285" lon="-65.73157">
        <ele>1226.3</ele>
        <time>2018-08-19T19:33:23Z</time>
      </trkpt>
      <trkpt lat="-27.8893" lon="-65.73165666666667">
        <ele>1226.8</ele>
        <time>2018-08-19T19:33:26Z</time>
      </trkpt>
      <trkpt lat="-27.889305" lon="-65.731755">
        <ele>1227.4</ele>
        <time>2018-08-19T19:33:29Z</time>
      </trkpt>
      <trkpt lat="-27.889310000000002" lon="-65.73184">
        <ele>1227.9</ele>
        <time>2018-08-19T19:33:32Z</time>
      </trkpt>
      <trkpt lat="-27.889310000000002" lon="-65.731925">
        <ele>1228.2</ele>
        <time>2018-08-19T19:33:35Z</time>
      </trkpt>
      <trkpt lat="-27.889310000000002" lon="-65.73202">
        <ele>1228.6</ele>
        <time>2018-08-19T19:33:38Z</time>
      </trkpt>
      <trkpt lat="-27.889305" lon="-65.732105">
        <ele>1229.0</ele>
        <time>2018-08-19T19:33:41Z</time>
      </trkpt>
      <trkpt lat="-27.889305" lon="-65.732225">
        <ele>1229.5</ele>
        <time>2018-08-19T19:33:45Z</time>
      </trkpt>
      <trkpt lat="-27.889310000000002" lon="-65.73232">
        <ele>1229.7</ele>
        <time>2018-08-19T19:33:48Z</time>
      </trkpt>
      <trkpt lat="-27.8893" lon="-65.73241">
        <ele>1229.9</ele>
        <time>2018-08-19T19:33:51Z</time>
      </trkpt>
      <trkpt lat="-27.889285" lon="-65.732515">
        <ele>1230.1</ele>
        <time>2018-08-19T19:33:54Z</time>
      </trkpt>
      <trkpt lat="-27.8893" lon="-65.73262">
        <ele>1230.2</ele>
        <time>2018-08-19T19:33:57Z</time>
      </trkpt>
      <trkpt lat="-27.8893" lon="-65.73272">
        <ele>1230.3</ele>
        <time>2018-08-19T19:34:00Z</time>
      </trkpt>
      <trkpt lat="-27.889305" lon="-65.732825">
        <ele>1230.4</ele>
        <time>2018-08-19T19:34:03Z</time>
      </trkpt>
      <trkpt lat="-27.889310000000002" lon="-65.73292000000001">
        <ele>1230.4</ele>
        <time>2018-08-19T19:34:06Z</time>
      </trkpt>
      <trkpt lat="-27.889310000000002" lon="-65.733005">
        <ele>1230.4</ele>
        <time>2018-08-19T19:34:09Z</time>
      </trkpt>
      <trkpt lat="-27.889315" lon="-65.733115">
        <ele>1230.4</ele>
        <time>2018-08-19T19:34:12Z</time>
      </trkpt>
      <trkpt lat="-27.88932" lon="-65.73322">
        <ele>1230.4</ele>
        <time>2018-08-19T19:34:15Z</time>
      </trkpt>
      <trkpt lat="-27.88932" lon="-65.733315">
        <ele>1230.3</ele>
        <time>2018-08-19T19:34:18Z</time>
      </trkpt>
      <trkpt lat="-27.889325" lon="-65.733425">
        <ele>1230.3</ele>
        <time>2018-08-19T19:34:21Z</time>
      </trkpt>
      <trkpt lat="-27.889325" lon="-65.73353">
        <ele>1230.2</ele>
        <time>2018-08-19T19:34:24Z</time>
      </trkpt>
      <trkpt lat="-27.889335" lon="-65.733625">
        <ele>1230.2</ele>
        <time>2018-08-19T19:34:27Z</time>
      </trkpt>
      <trkpt lat="-27.889335" lon="-65.73375">
        <ele>1230.1</ele>
        <time>2018-08-19T19:34:30Z</time>
      </trkpt>
      <trkpt lat="-27.889345" lon="-65.73385">
        <ele>1230.1</ele>
        <time>2018-08-19T19:34:33Z</time>
      </trkpt>
      <trkpt lat="-27.889355" lon="-65.73394333333333">
        <ele>1230.0</ele>
        <time>2018-08-19T19:34:36Z</time>
      </trkpt>
      <trkpt lat="-27.88936" lon="-65.73406">
        <ele>1229.8</ele>
        <time>2018-08-19T19:34:39Z</time>
      </trkpt>
      <trkpt lat="-27.88938" lon="-65.734145">
        <ele>1229.8</ele>
        <time>2018-08-19T19:34:42Z</time>
      </trkpt>
      <trkpt lat="-27.889405" lon="-65.734215">
        <ele>1229.9</ele>
        <time>2018-08-19T19:34:45Z</time>
      </trkpt>
      <trkpt lat="-27.88943" lon="-65.7343">
        <ele>1229.9</ele>
        <time>2018-08-19T19:34:50Z</time>
      </trkpt>
      <trkpt lat="-27.889435" lon="-65.73438">
        <ele>1230.2</ele>
        <time>2018-08-19T19:34:54Z</time>
      </trkpt>
      <trkpt lat="-27.88944" lon="-65.73446">
        <ele>1230.4</ele>
        <time>2018-08-19T19:35:01Z</time>
      </trkpt>
      <trkpt lat="-27.889435" lon="-65.734455">
        <ele>1230.5</ele>
        <time>2018-08-19T19:35:05Z</time>
      </trkpt>
      <trkpt lat="-27.889425" lon="-65.73444">
        <ele>1230.5</ele>
        <time>2018-08-19T19:35:14Z</time>
      </trkpt>
      <trkpt lat="-27.889425" lon="-65.73444">
        <ele>1230.5</ele>
        <time>2018-08-19T19:35:15Z</time>
      </trkpt>
      <trkpt lat="-27.88944" lon="-65.73444">
        <ele>1230.4</ele>
        <time>2018-08-19T19:35:28Z</time>
      </trkpt>
      <trkpt lat="-27.88944" lon="-65.73444">
        <ele>1230.4</ele>
        <time>2018-08-19T19:35:29Z</time>
      </trkpt>
      <trkpt lat="-27.88946" lon="-65.734475">
        <ele>1230.7</ele>
        <time>2018-08-19T19:35:40Z</time>
      </trkpt>
      <trkpt lat="-27.889465" lon="-65.734475">
        <ele>1230.7</ele>
        <time>2018-08-19T19:35:41Z</time>
      </trkpt>
      <trkpt lat="-27.88947" lon="-65.73446">
        <ele>1231.1</ele>
        <time>2018-08-19T19:35:55Z</time>
      </trkpt>
      <trkpt lat="-27.88947" lon="-65.73446">
        <ele>1231.2</ele>
        <time>2018-08-19T19:35:56Z</time>
      </trkpt>
      <trkpt lat="-27.889425" lon="-65.734465">
        <ele>1231.2</ele>
        <time>2018-08-19T19:36:05Z</time>
      </trkpt>
      <trkpt lat="-27.889425" lon="-65.734465">
        <ele>1231.3</ele>
        <time>2018-08-19T19:36:06Z</time>
      </trkpt>
      <trkpt lat="-27.88942" lon="-65.73444">
        <ele>1231.4</ele>
        <time>2018-08-19T19:36:15Z</time>
      </trkpt>
      <trkpt lat="-27.889425" lon="-65.73444">
        <ele>1231.4</ele>
        <time>2018-08-19T19:36:16Z</time>
      </trkpt>
      <trkpt lat="-27.88946" lon="-65.734425">
        <ele>1231.3</ele>
        <time>2018-08-19T19:36:24Z</time>
      </trkpt>
      <trkpt lat="-27.88946" lon="-65.73442">
        <ele>1231.3</ele>
        <time>2018-08-19T19:36:25Z</time>
      </trkpt>
      <trkpt lat="-27.88944" lon="-65.73444">
        <ele>1231.0</ele>
        <time>2018-08-19T19:36:33Z</time>
      </trkpt>
      <trkpt lat="-27.88944" lon="-65.734455">
        <ele>1231.0</ele>
        <time>2018-08-19T19:36:34Z</time>
      </trkpt>
      <trkpt lat="-27.88945" lon="-65.734455">
        <ele>1231.0</ele>
        <time>2018-08-19T19:36:46Z</time>
      </trkpt>
      <trkpt lat="-27.88945" lon="-65.73446">
        <ele>1231.0</ele>
        <time>2018-08-19T19:36:47Z</time>
      </trkpt>
      <trkpt lat="-27.88945" lon="-65.734465">
        <ele>1231.1</ele>
        <time>2018-08-19T19:36:56Z</time>
      </trkpt>
      <trkpt lat="-27.88944" lon="-65.734465">
        <ele>1231.1</ele>
        <time>2018-08-19T19:36:57Z</time>
      </trkpt>
      <trkpt lat="-27.889455" lon="-65.73441">
        <ele>1231.2</ele>
        <time>2018-08-19T19:37:07Z</time>
      </trkpt>
      <trkpt lat="-27.889455" lon="-65.73441">
        <ele>1231.2</ele>
        <time>2018-08-19T19:37:08Z</time>
      </trkpt>
      <trkpt lat="-27.889455" lon="-65.734485">
        <ele>1230.8</ele>
        <time>2018-08-19T19:37:12Z</time>
      </trkpt>
      <trkpt lat="-27.88946" lon="-65.73457">
        <ele>1230.9</ele>
        <time>2018-08-19T19:37:19Z</time>
      </trkpt>
      <trkpt lat="-27.889475" lon="-65.734635">
        <ele>1231.4</ele>
        <time>2018-08-19T19:37:26Z</time>
      </trkpt>
      <trkpt lat="-27.889495" lon="-65.73469">
        <ele>1231.9</ele>
        <time>2018-08-19T19:37:33Z</time>
      </trkpt>
      <trkpt lat="-27.889499999999998" lon="-65.7347">
        <ele>1231.9</ele>
        <time>2018-08-19T19:37:34Z</time>
      </trkpt>
      <trkpt lat="-27.889525" lon="-65.734785">
        <ele>1232.3</ele>
        <time>2018-08-19T19:37:42Z</time>
      </trkpt>
      <trkpt lat="-27.88955" lon="-65.73487">
        <ele>1232.6</ele>
        <time>2018-08-19T19:37:47Z</time>
      </trkpt>
      <trkpt lat="-27.88956" lon="-65.73492833333333">
        <ele>1232.6</ele>
        <time>2018-08-19T19:37:51Z</time>
      </trkpt>
      <trkpt lat="-27.88958" lon="-65.735045">
        <ele>1232.6</ele>
        <time>2018-08-19T19:37:56Z</time>
      </trkpt>
      <trkpt lat="-27.889605" lon="-65.735135">
        <ele>1232.6</ele>
        <time>2018-08-19T19:38:01Z</time>
      </trkpt>
      <trkpt lat="-27.88962" lon="-65.735235">
        <ele>1232.5</ele>
        <time>2018-08-19T19:38:05Z</time>
      </trkpt>
      <trkpt lat="-27.889645" lon="-65.73533">
        <ele>1232.4</ele>
        <time>2018-08-19T19:38:09Z</time>
      </trkpt>
      <trkpt lat="-27.889655" lon="-65.735415">
        <ele>1232.3</ele>
        <time>2018-08-19T19:38:12Z</time>
      </trkpt>
      <trkpt lat="-27.889665" lon="-65.73551">
        <ele>1232.2</ele>
        <time>2018-08-19T19:38:16Z</time>
      </trkpt>
      <trkpt lat="-27.88968" lon="-65.73562">
        <ele>1232.2</ele>
        <time>2018-08-19T19:38:20Z</time>
      </trkpt>
      <trkpt lat="-27.889685" lon="-65.73573">
        <ele>1232.1</ele>
        <time>2018-08-19T19:38:24Z</time>
      </trkpt>
      <trkpt lat="-27.889695" lon="-65.735815">
        <ele>1232.0</ele>
        <time>2018-08-19T19:38:27Z</time>
      </trkpt>
      <trkpt lat="-27.8897" lon="-65.7359">
        <ele>1231.9</ele>
        <time>2018-08-19T19:38:30Z</time>
      </trkpt>
      <trkpt lat="-27.8897" lon="-65.735995">
        <ele>1231.8</ele>
        <time>2018-08-19T19:38:33Z</time>
      </trkpt>
      <trkpt lat="-27.8897" lon="-65.73609">
        <ele>1231.7</ele>
        <time>2018-08-19T19:38:36Z</time>
      </trkpt>
      <trkpt lat="-27.889695" lon="-65.73621">
        <ele>1231.6</ele>
        <time>2018-08-19T19:38:39Z</time>
      </trkpt>
      <trkpt lat="-27.889695" lon="-65.73631">
        <ele>1231.5</ele>
        <time>2018-08-19T19:38:42Z</time>
      </trkpt>
      <trkpt lat="-27.889685" lon="-65.73641">
        <ele>1231.4</ele>
        <time>2018-08-19T19:38:45Z</time>
      </trkpt>
      <trkpt lat="-27.88968" lon="-65.73652">
        <ele>1231.2</ele>
        <time>2018-08-19T19:38:48Z</time>
      </trkpt>
      <trkpt lat="-27.889665" lon="-65.736635">
        <ele>1231.1</ele>
        <time>2018-08-19T19:38:51Z</time>
      </trkpt>
      <trkpt lat="-27.889655" lon="-65.736755">
        <ele>1231.0</ele>
        <time>2018-08-19T19:38:54Z</time>
      </trkpt>
      <trkpt lat="-27.88964" lon="-65.73684">
        <ele>1230.9</ele>
        <time>2018-08-19T19:38:56Z</time>
      </trkpt>
      <trkpt lat="-27.88963" lon="-65.736925">
        <ele>1230.9</ele>
        <time>2018-08-19T19:38:58Z</time>
      </trkpt>
      <trkpt lat="-27.88962" lon="-65.73701">
        <ele>1230.6</ele>
        <time>2018-08-19T19:39:00Z</time>
      </trkpt>
      <trkpt lat="-27.88961" lon="-65.737075">
        <ele>1230.5</ele>
        <time>2018-08-19T19:39:02Z</time>
      </trkpt>
      <trkpt lat="-27.889595" lon="-65.73717">
        <ele>1230.4</ele>
        <time>2018-08-19T19:39:04Z</time>
      </trkpt>
      <trkpt lat="-27.88958" lon="-65.737255">
        <ele>1230.4</ele>
        <time>2018-08-19T19:39:06Z</time>
      </trkpt>
      <trkpt lat="-27.88956" lon="-65.737335">
        <ele>1230.3</ele>
        <time>2018-08-19T19:39:08Z</time>
      </trkpt>
      <trkpt lat="-27.88955" lon="-65.73744">
        <ele>1230.3</ele>
        <time>2018-08-19T19:39:11Z</time>
      </trkpt>
      <trkpt lat="-27.889525" lon="-65.73756">
        <ele>1230.2</ele>
        <time>2018-08-19T19:39:14Z</time>
      </trkpt>
      <trkpt lat="-27.889515" lon="-65.737665">
        <ele>1230.0</ele>
        <time>2018-08-19T19:39:17Z</time>
      </trkpt>
      <trkpt lat="-27.889499999999998" lon="-65.73775">
        <ele>1229.9</ele>
        <time>2018-08-19T19:39:19Z</time>
      </trkpt>
      <trkpt lat="-27.889475" lon="-65.737835">
        <ele>1229.9</ele>
        <time>2018-08-19T19:39:21Z</time>
      </trkpt>
      <trkpt lat="-27.889465" lon="-65.737945">
        <ele>1230.0</ele>
        <time>2018-08-19T19:39:23Z</time>
      </trkpt>
      <trkpt lat="-27.88944" lon="-65.73804">
        <ele>1230.2</ele>
        <time>2018-08-19T19:39:25Z</time>
      </trkpt>
      <trkpt lat="-27.889415" lon="-65.73814">
        <ele>1230.2</ele>
        <time>2018-08-19T19:39:27Z</time>
      </trkpt>
      <trkpt lat="-27.88938" lon="-65.73824">
        <ele>1230.1</ele>
        <time>2018-08-19T19:39:29Z</time>
      </trkpt>
      <trkpt lat="-27.88935" lon="-65.73832166666666">
        <ele>1229.9</ele>
        <time>2018-08-19T19:39:31Z</time>
      </trkpt>
      <trkpt lat="-27.889315" lon="-65.738445">
        <ele>1229.8</ele>
        <time>2018-08-19T19:39:33Z</time>
      </trkpt>
      <trkpt lat="-27.889275" lon="-65.738545">
        <ele>1229.6</ele>
        <time>2018-08-19T19:39:35Z</time>
      </trkpt>
      <trkpt lat="-27.88924" lon="-65.73864">
        <ele>1229.5</ele>
        <time>2018-08-19T19:39:37Z</time>
      </trkpt>
      <trkpt lat="-27.889195" lon="-65.738735">
        <ele>1229.4</ele>
        <time>2018-08-19T19:39:39Z</time>
      </trkpt>
      <trkpt lat="-27.889145" lon="-65.738845">
        <ele>1229.4</ele>
        <time>2018-08-19T19:39:41Z</time>
      </trkpt>
      <trkpt lat="-27.889095" lon="-65.73894">
        <ele>1229.4</ele>
        <time>2018-08-19T19:39:43Z</time>
      </trkpt>
      <trkpt lat="-27.889055" lon="-65.739035">
        <ele>1229.4</ele>
        <time>2018-08-19T19:39:45Z</time>
      </trkpt>
      <trkpt lat="-27.88901" lon="-65.739125">
        <ele>1229.6</ele>
        <time>2018-08-19T19:39:47Z</time>
      </trkpt>
      <trkpt lat="-27.888965" lon="-65.739205">
        <ele>1230.6</ele>
        <time>2018-08-19T19:39:49Z</time>
      </trkpt>
      <trkpt lat="-27.888905" lon="-65.73929">
        <ele>1231.6</ele>
        <time>2018-08-19T19:39:51Z</time>
      </trkpt>
      <trkpt lat="-27.88886" lon="-65.739365">
        <ele>1232.9</ele>
        <time>2018-08-19T19:39:53Z</time>
      </trkpt>
      <trkpt lat="-27.8888" lon="-65.73945">
        <ele>1233.9</ele>
        <time>2018-08-19T19:39:55Z</time>
      </trkpt>
      <trkpt lat="-27.88874" lon="-65.739535">
        <ele>1234.7</ele>
        <time>2018-08-19T19:39:57Z</time>
      </trkpt>
      <trkpt lat="-27.888675" lon="-65.739625">
        <ele>1235.0</ele>
        <time>2018-08-19T19:39:59Z</time>
      </trkpt>
      <trkpt lat="-27.88861" lon="-65.7397">
        <ele>1234.8</ele>
        <time>2018-08-19T19:40:01Z</time>
      </trkpt>
      <trkpt lat="-27.888555" lon="-65.73976">
        <ele>1234.9</ele>
        <time>2018-08-19T19:40:03Z</time>
      </trkpt>
      <trkpt lat="-27.8885" lon="-65.73984">
        <ele>1235.3</ele>
        <time>2018-08-19T19:40:05Z</time>
      </trkpt>
      <trkpt lat="-27.88844" lon="-65.7399">
        <ele>1235.6</ele>
        <time>2018-08-19T19:40:07Z</time>
      </trkpt>
      <trkpt lat="-27.888375" lon="-65.739975">
        <ele>1235.7</ele>
        <time>2018-08-19T19:40:09Z</time>
      </trkpt>
      <trkpt lat="-27.888315" lon="-65.74003">
        <ele>1235.8</ele>
        <time>2018-08-19T19:40:11Z</time>
      </trkpt>
      <trkpt lat="-27.888255" lon="-65.740095">
        <ele>1236.0</ele>
        <time>2018-08-19T19:40:13Z</time>
      </trkpt>
      <trkpt lat="-27.888185" lon="-65.74015">
        <ele>1236.3</ele>
        <time>2018-08-19T19:40:15Z</time>
      </trkpt>
      <trkpt lat="-27.88813" lon="-65.7402">
        <ele>1236.3</ele>
        <time>2018-08-19T19:40:17Z</time>
      </trkpt>
      <trkpt lat="-27.88807" lon="-65.740255">
        <ele>1236.5</ele>
        <time>2018-08-19T19:40:19Z</time>
      </trkpt>
      <trkpt lat="-27.888005" lon="-65.74029">
        <ele>1236.5</ele>
        <time>2018-08-19T19:40:21Z</time>
      </trkpt>
      <trkpt lat="-27.88792" lon="-65.740365">
        <ele>1236.6</ele>
        <time>2018-08-19T19:40:24Z</time>
      </trkpt>
      <trkpt lat="-27.88785" lon="-65.74042">
        <ele>1236.6</ele>
        <time>2018-08-19T19:40:27Z</time>
      </trkpt>
      <trkpt lat="-27.88778" lon="-65.74046">
        <ele>1236.7</ele>
        <time>2018-08-19T19:40:30Z</time>
      </trkpt>
      <trkpt lat="-27.88772" lon="-65.740505">
        <ele>1236.7</ele>
        <time>2018-08-19T19:40:33Z</time>
      </trkpt>
      <trkpt lat="-27.887635" lon="-65.740555">
        <ele>1236.8</ele>
        <time>2018-08-19T19:40:37Z</time>
      </trkpt>
      <trkpt lat="-27.887555" lon="-65.7406">
        <ele>1236.9</ele>
        <time>2018-08-19T19:40:41Z</time>
      </trkpt>
      <trkpt lat="-27.88747" lon="-65.740645">
        <ele>1237.0</ele>
        <time>2018-08-19T19:40:45Z</time>
      </trkpt>
      <trkpt lat="-27.88739" lon="-65.74066">
        <ele>1237.1</ele>
        <time>2018-08-19T19:40:49Z</time>
      </trkpt>
      <trkpt lat="-27.887315" lon="-65.740705">
        <ele>1237.3</ele>
        <time>2018-08-19T19:40:53Z</time>
      </trkpt>
      <trkpt lat="-27.887245" lon="-65.740745">
        <ele>1237.6</ele>
        <time>2018-08-19T19:40:57Z</time>
      </trkpt>
      <trkpt lat="-27.887175" lon="-65.74078">
        <ele>1237.9</ele>
        <time>2018-08-19T19:41:01Z</time>
      </trkpt>
      <trkpt lat="-27.8871" lon="-65.74079">
        <ele>1238.1</ele>
        <time>2018-08-19T19:41:05Z</time>
      </trkpt>
      <trkpt lat="-27.88702" lon="-65.740835">
        <ele>1238.3</ele>
        <time>2018-08-19T19:41:09Z</time>
      </trkpt>
      <trkpt lat="-27.886935" lon="-65.740865">
        <ele>1238.5</ele>
        <time>2018-08-19T19:41:14Z</time>
      </trkpt>
      <trkpt lat="-27.88686" lon="-65.740885">
        <ele>1238.8</ele>
        <time>2018-08-19T19:41:18Z</time>
      </trkpt>
      <trkpt lat="-27.886785" lon="-65.74091">
        <ele>1239.0</ele>
        <time>2018-08-19T19:41:22Z</time>
      </trkpt>
      <trkpt lat="-27.88671" lon="-65.74092">
        <ele>1239.2</ele>
        <time>2018-08-19T19:41:26Z</time>
      </trkpt>
      <trkpt lat="-27.886635" lon="-65.74093">
        <ele>1239.4</ele>
        <time>2018-08-19T19:41:30Z</time>
      </trkpt>
      <trkpt lat="-27.88656" lon="-65.74096">
        <ele>1239.6</ele>
        <time>2018-08-19T19:41:34Z</time>
      </trkpt>
      <trkpt lat="-27.886485" lon="-65.74097">
        <ele>1239.8</ele>
        <time>2018-08-19T19:41:38Z</time>
      </trkpt>
      <trkpt lat="-27.886405" lon="-65.74097">
        <ele>1239.9</ele>
        <time>2018-08-19T19:41:42Z</time>
      </trkpt>
      <trkpt lat="-27.88633" lon="-65.740995">
        <ele>1240.0</ele>
        <time>2018-08-19T19:41:46Z</time>
      </trkpt>
      <trkpt lat="-27.886255" lon="-65.74101">
        <ele>1240.3</ele>
        <time>2018-08-19T19:41:51Z</time>
      </trkpt>
      <trkpt lat="-27.886175" lon="-65.741015">
        <ele>1240.7</ele>
        <time>2018-08-19T19:41:56Z</time>
      </trkpt>
      <trkpt lat="-27.8861" lon="-65.74104">
        <ele>1241.2</ele>
        <time>2018-08-19T19:42:01Z</time>
      </trkpt>
      <trkpt lat="-27.88602" lon="-65.74105">
        <ele>1241.9</ele>
        <time>2018-08-19T19:42:08Z</time>
      </trkpt>
      <trkpt lat="-27.885945" lon="-65.74105">
        <ele>1242.4</ele>
        <time>2018-08-19T19:42:14Z</time>
      </trkpt>
      <trkpt lat="-27.88586" lon="-65.74105166666666">
        <ele>1242.9</ele>
        <time>2018-08-19T19:42:20Z</time>
      </trkpt>
      <trkpt lat="-27.88578" lon="-65.74108">
        <ele>1243.4</ele>
        <time>2018-08-19T19:42:25Z</time>
      </trkpt>
      <trkpt lat="-27.885705" lon="-65.74109">
        <ele>1244.1</ele>
        <time>2018-08-19T19:42:30Z</time>
      </trkpt>
      <trkpt lat="-27.88562" lon="-65.7411">
        <ele>1244.9</ele>
        <time>2018-08-19T19:42:36Z</time>
      </trkpt>
      <trkpt lat="-27.885535" lon="-65.741125">
        <ele>1245.6</ele>
        <time>2018-08-19T19:42:43Z</time>
      </trkpt>
      <trkpt lat="-27.885465" lon="-65.741135">
        <ele>1246.2</ele>
        <time>2018-08-19T19:42:49Z</time>
      </trkpt>
      <trkpt lat="-27.885395" lon="-65.741155">
        <ele>1246.8</ele>
        <time>2018-08-19T19:42:54Z</time>
      </trkpt>
      <trkpt lat="-27.885325" lon="-65.741155">
        <ele>1247.5</ele>
        <time>2018-08-19T19:43:00Z</time>
      </trkpt>
      <trkpt lat="-27.88524" lon="-65.741155">
        <ele>1248.3</ele>
        <time>2018-08-19T19:43:07Z</time>
      </trkpt>
      <trkpt lat="-27.885155" lon="-65.741175">
        <ele>1248.9</ele>
        <time>2018-08-19T19:43:13Z</time>
      </trkpt>
      <trkpt lat="-27.88508" lon="-65.74119">
        <ele>1249.5</ele>
        <time>2018-08-19T19:43:20Z</time>
      </trkpt>
      <trkpt lat="-27.885" lon="-65.741195">
        <ele>1249.9</ele>
        <time>2018-08-19T19:43:26Z</time>
      </trkpt>
      <trkpt lat="-27.884925" lon="-65.741195">
        <ele>1250.2</ele>
        <time>2018-08-19T19:43:30Z</time>
      </trkpt>
      <trkpt lat="-27.88485" lon="-65.741195">
        <ele>1250.5</ele>
        <time>2018-08-19T19:43:35Z</time>
      </trkpt>
      <trkpt lat="-27.88477" lon="-65.741195">
        <ele>1250.9</ele>
        <time>2018-08-19T19:43:40Z</time>
      </trkpt>
      <trkpt lat="-27.884685" lon="-65.74122">
        <ele>1251.5</ele>
        <time>2018-08-19T19:43:45Z</time>
      </trkpt>
      <trkpt lat="-27.88459" lon="-65.74122">
        <ele>1252.1</ele>
        <time>2018-08-19T19:43:50Z</time>
      </trkpt>
      <trkpt lat="-27.884515" lon="-65.74122">
        <ele>1252.6</ele>
        <time>2018-08-19T19:43:54Z</time>
      </trkpt>
      <trkpt lat="-27.884435" lon="-65.741235">
        <ele>1253.1</ele>
        <time>2018-08-19T19:43:59Z</time>
      </trkpt>
      <trkpt lat="-27.88436" lon="-65.74124">
        <ele>1253.6</ele>
        <time>2018-08-19T19:44:03Z</time>
      </trkpt>
      <trkpt lat="-27.88427" lon="-65.741265">
        <ele>1254.2</ele>
        <time>2018-08-19T19:44:08Z</time>
      </trkpt>
      <trkpt lat="-27.884195" lon="-65.74128">
        <ele>1254.7</ele>
        <time>2018-08-19T19:44:12Z</time>
      </trkpt>
      <trkpt lat="-27.884115" lon="-65.741305">
        <ele>1255.1</ele>
        <time>2018-08-19T19:44:16Z</time>
      </trkpt>
      <trkpt lat="-27.88403" lon="-65.741335">
        <ele>1255.5</ele>
        <time>2018-08-19T19:44:20Z</time>
      </trkpt>
      <trkpt lat="-27.88396" lon="-65.74137">
        <ele>1256.0</ele>
        <time>2018-08-19T19:44:24Z</time>
      </trkpt>
      <trkpt lat="-27.883885" lon="-65.74142">
        <ele>1256.5</ele>
        <time>2018-08-19T19:44:28Z</time>
      </trkpt>
      <trkpt lat="-27.883815" lon="-65.741465">
        <ele>1257.0</ele>
        <time>2018-08-19T19:44:32Z</time>
      </trkpt>
      <trkpt lat="-27.88375" lon="-65.74153">
        <ele>1257.6</ele>
        <time>2018-08-19T19:44:36Z</time>
      </trkpt>
      <trkpt lat="-27.883685" lon="-65.74158">
        <ele>1258.0</ele>
        <time>2018-08-19T19:44:40Z</time>
      </trkpt>
      <trkpt lat="-27.883605" lon="-65.741645">
        <ele>1258.5</ele>
        <time>2018-08-19T19:44:44Z</time>
      </trkpt>
      <trkpt lat="-27.88354" lon="-65.74171">
        <ele>1258.8</ele>
        <time>2018-08-19T19:44:48Z</time>
      </trkpt>
      <trkpt lat="-27.88347" lon="-65.741775">
        <ele>1259.1</ele>
        <time>2018-08-19T19:44:52Z</time>
      </trkpt>
      <trkpt lat="-27.88341" lon="-65.74184">
        <ele>1259.2</ele>
        <time>2018-08-19T19:44:55Z</time>
      </trkpt>
      <trkpt lat="-27.88335" lon="-65.741905">
        <ele>1259.3</ele>
        <time>2018-08-19T19:44:58Z</time>
      </trkpt>
      <trkpt lat="-27.883295" lon="-65.741955">
        <ele>1259.4</ele>
        <time>2018-08-19T19:45:01Z</time>
      </trkpt>
      <trkpt lat="-27.883235" lon="-65.74203">
        <ele>1259.4</ele>
        <time>2018-08-19T19:45:04Z</time>
      </trkpt>
      <trkpt lat="-27.883175" lon="-65.742095">
        <ele>1259.4</ele>
        <time>2018-08-19T19:45:07Z</time>
      </trkpt>
      <trkpt lat="-27.883095" lon="-65.74218">
        <ele>1259.5</ele>
        <time>2018-08-19T19:45:10Z</time>
      </trkpt>
      <trkpt lat="-27.883035" lon="-65.742225">
        <ele>1259.5</ele>
        <time>2018-08-19T19:45:12Z</time>
      </trkpt>
      <trkpt lat="-27.88299" lon="-65.7423">
        <ele>1259.5</ele>
        <time>2018-08-19T19:45:14Z</time>
      </trkpt>
      <trkpt lat="-27.882935" lon="-65.742355">
        <ele>1259.6</ele>
        <time>2018-08-19T19:45:16Z</time>
      </trkpt>
      <trkpt lat="-27.882885" lon="-65.742405">
        <ele>1259.6</ele>
        <time>2018-08-19T19:45:18Z</time>
      </trkpt>
      <trkpt lat="-27.882835" lon="-65.742485">
        <ele>1259.7</ele>
        <time>2018-08-19T19:45:20Z</time>
      </trkpt>
      <trkpt lat="-27.882785" lon="-65.742545">
        <ele>1259.7</ele>
        <time>2018-08-19T19:45:22Z</time>
      </trkpt>
      <trkpt lat="-27.882715" lon="-65.74263">
        <ele>1259.7</ele>
        <time>2018-08-19T19:45:25Z</time>
      </trkpt>
      <trkpt lat="-27.882665" lon="-65.742705">
        <ele>1259.7</ele>
        <time>2018-08-19T19:45:27Z</time>
      </trkpt>
      <trkpt lat="-27.882615" lon="-65.74276">
        <ele>1259.7</ele>
        <time>2018-08-19T19:45:29Z</time>
      </trkpt>
      <trkpt lat="-27.882545" lon="-65.742855">
        <ele>1259.9</ele>
        <time>2018-08-19T19:45:32Z</time>
      </trkpt>
      <trkpt lat="-27.88249" lon="-65.742935">
        <ele>1260.0</ele>
        <time>2018-08-19T19:45:34Z</time>
      </trkpt>
      <trkpt lat="-27.88243" lon="-65.743005">
        <ele>1260.1</ele>
        <time>2018-08-19T19:45:36Z</time>
      </trkpt>
      <trkpt lat="-27.88237" lon="-65.74308">
        <ele>1260.0</ele>
        <time>2018-08-19T19:45:38Z</time>
      </trkpt>
      <trkpt lat="-27.8823" lon="-65.743165">
        <ele>1260.0</ele>
        <time>2018-08-19T19:45:40Z</time>
      </trkpt>
      <trkpt lat="-27.88223" lon="-65.743245">
        <ele>1259.9</ele>
        <time>2018-08-19T19:45:42Z</time>
      </trkpt>
      <trkpt lat="-27.88216" lon="-65.743325">
        <ele>1259.7</ele>
        <time>2018-08-19T19:45:44Z</time>
      </trkpt>
      <trkpt lat="-27.882085" lon="-65.74339">
        <ele>1259.5</ele>
        <time>2018-08-19T19:45:46Z</time>
      </trkpt>
      <trkpt lat="-27.88201" lon="-65.743475">
        <ele>1259.4</ele>
        <time>2018-08-19T19:45:48Z</time>
      </trkpt>
      <trkpt lat="-27.88194" lon="-65.743575">
        <ele>1259.3</ele>
        <time>2018-08-19T19:45:50Z</time>
      </trkpt>
      <trkpt lat="-27.88187" lon="-65.74366">
        <ele>1259.2</ele>
        <time>2018-08-19T19:45:52Z</time>
      </trkpt>
      <trkpt lat="-27.881805" lon="-65.74377">
        <ele>1259.1</ele>
        <time>2018-08-19T19:45:54Z</time>
      </trkpt>
      <trkpt lat="-27.88173" lon="-65.743865">
        <ele>1259.0</ele>
        <time>2018-08-19T19:45:56Z</time>
      </trkpt>
      <trkpt lat="-27.88166" lon="-65.74396">
        <ele>1258.8</ele>
        <time>2018-08-19T19:45:58Z</time>
      </trkpt>
      <trkpt lat="-27.881585" lon="-65.744055">
        <ele>1258.6</ele>
        <time>2018-08-19T19:46:00Z</time>
      </trkpt>
      <trkpt lat="-27.88151" lon="-65.74415">
        <ele>1258.3</ele>
        <time>2018-08-19T19:46:02Z</time>
      </trkpt>
      <trkpt lat="-27.88143" lon="-65.74427">
        <ele>1258.0</ele>
        <time>2018-08-19T19:46:04Z</time>
      </trkpt>
      <trkpt lat="-27.88135" lon="-65.744375">
        <ele>1257.6</ele>
        <time>2018-08-19T19:46:06Z</time>
      </trkpt>
      <trkpt lat="-27.881255" lon="-65.744495">
        <ele>1257.0</ele>
        <time>2018-08-19T19:46:08Z</time>
      </trkpt>
      <trkpt lat="-27.88116" lon="-65.7446">
        <ele>1256.3</ele>
        <time>2018-08-19T19:46:10Z</time>
      </trkpt>
      <trkpt lat="-27.88111" lon="-65.74468">
        <ele>1255.9</ele>
        <time>2018-08-19T19:46:11Z</time>
      </trkpt>
      <trkpt lat="-27.881055" lon="-65.74473">
        <ele>1255.3</ele>
        <time>2018-08-19T19:46:12Z</time>
      </trkpt>
      <trkpt lat="-27.881005000000002" lon="-65.744815">
        <ele>1254.8</ele>
        <time>2018-08-19T19:46:13Z</time>
      </trkpt>
      <trkpt lat="-27.880945" lon="-65.74487">
        <ele>1254.1</ele>
        <time>2018-08-19T19:46:14Z</time>
      </trkpt>
      <trkpt lat="-27.880885" lon="-65.744955">
        <ele>1253.5</ele>
        <time>2018-08-19T19:46:15Z</time>
      </trkpt>
      <trkpt lat="-27.88083" lon="-65.745035">
        <ele>1252.8</ele>
        <time>2018-08-19T19:46:16Z</time>
      </trkpt>
      <trkpt lat="-27.880765" lon="-65.745115">
        <ele>1252.3</ele>
        <time>2018-08-19T19:46:17Z</time>
      </trkpt>
      <trkpt lat="-27.880705" lon="-65.74518">
        <ele>1251.7</ele>
        <time>2018-08-19T19:46:18Z</time>
      </trkpt>
      <trkpt lat="-27.880645" lon="-65.745265">
        <ele>1251.3</ele>
        <time>2018-08-19T19:46:19Z</time>
      </trkpt>
      <trkpt lat="-27.880575" lon="-65.74535">
        <ele>1250.9</ele>
        <time>2018-08-19T19:46:20Z</time>
      </trkpt>
      <trkpt lat="-27.88052" lon="-65.745425">
        <ele>1250.6</ele>
        <time>2018-08-19T19:46:21Z</time>
      </trkpt>
      <trkpt lat="-27.88046" lon="-65.7455">
        <ele>1250.3</ele>
        <time>2018-08-19T19:46:22Z</time>
      </trkpt>
      <trkpt lat="-27.8804" lon="-65.74558">
        <ele>1249.9</ele>
        <time>2018-08-19T19:46:23Z</time>
      </trkpt>
      <trkpt lat="-27.88034" lon="-65.745655">
        <ele>1249.4</ele>
        <time>2018-08-19T19:46:24Z</time>
      </trkpt>
      <trkpt lat="-27.88028" lon="-65.745715">
        <ele>1249.0</ele>
        <time>2018-08-19T19:46:25Z</time>
      </trkpt>
      <trkpt lat="-27.880225" lon="-65.7458">
        <ele>1248.7</ele>
        <time>2018-08-19T19:46:26Z</time>
      </trkpt>
      <trkpt lat="-27.88017" lon="-65.745875">
        <ele>1248.5</ele>
        <time>2018-08-19T19:46:27Z</time>
      </trkpt>
      <trkpt lat="-27.880115" lon="-65.74594">
        <ele>1248.3</ele>
        <time>2018-08-19T19:46:28Z</time>
      </trkpt>
      <trkpt lat="-27.88006" lon="-65.746025">
        <ele>1248.3</ele>
        <time>2018-08-19T19:46:29Z</time>
      </trkpt>
      <trkpt lat="-27.880005" lon="-65.7461">
        <ele>1248.5</ele>
        <time>2018-08-19T19:46:30Z</time>
      </trkpt>
      <trkpt lat="-27.879955" lon="-65.746165">
        <ele>1248.6</ele>
        <time>2018-08-19T19:46:31Z</time>
      </trkpt>
      <trkpt lat="-27.8799" lon="-65.74625">
        <ele>1248.9</ele>
        <time>2018-08-19T19:46:32Z</time>
      </trkpt>
      <trkpt lat="-27.87985" lon="-65.746335">
        <ele>1249.0</ele>
        <time>2018-08-19T19:46:33Z</time>
      </trkpt>
      <trkpt lat="-27.87981" lon="-65.746415">
        <ele>1248.8</ele>
        <time>2018-08-19T19:46:34Z</time>
      </trkpt>
      <trkpt lat="-27.87977" lon="-65.746485">
        <ele>1248.9</ele>
        <time>2018-08-19T19:46:35Z</time>
      </trkpt>
      <trkpt lat="-27.87973" lon="-65.74657">
        <ele>1248.8</ele>
        <time>2018-08-19T19:46:36Z</time>
      </trkpt>
      <trkpt lat="-27.879695" lon="-65.74665">
        <ele>1249.1</ele>
        <time>2018-08-19T19:46:37Z</time>
      </trkpt>
      <trkpt lat="-27.87966" lon="-65.74673">
        <ele>1249.3</ele>
        <time>2018-08-19T19:46:38Z</time>
      </trkpt>
      <trkpt lat="-27.879635" lon="-65.74681">
        <ele>1249.4</ele>
        <time>2018-08-19T19:46:39Z</time>
      </trkpt>
      <trkpt lat="-27.87961" lon="-65.74688">
        <ele>1249.4</ele>
        <time>2018-08-19T19:46:40Z</time>
      </trkpt>
      <trkpt lat="-27.87959" lon="-65.74696">
        <ele>1249.4</ele>
        <time>2018-08-19T19:46:41Z</time>
      </trkpt>
      <trkpt lat="-27.879555" lon="-65.747105">
        <ele>1248.9</ele>
        <time>2018-08-19T19:46:43Z</time>
      </trkpt>
      <trkpt lat="-27.87954" lon="-65.747225">
        <ele>1248.8</ele>
        <time>2018-08-19T19:46:45Z</time>
      </trkpt>
      <trkpt lat="-27.87952" lon="-65.74733">
        <ele>1248.4</ele>
        <time>2018-08-19T19:46:47Z</time>
      </trkpt>
      <trkpt lat="-27.87951" lon="-65.747455">
        <ele>1248.2</ele>
        <time>2018-08-19T19:46:49Z</time>
      </trkpt>
      <trkpt lat="-27.879495" lon="-65.747555">
        <ele>1248.3</ele>
        <time>2018-08-19T19:46:51Z</time>
      </trkpt>
      <trkpt lat="-27.879485" lon="-65.747685">
        <ele>1250.3</ele>
        <time>2018-08-19T19:46:54Z</time>
      </trkpt>
      <trkpt lat="-27.879475" lon="-65.74778">
        <ele>1251.5</ele>
        <time>2018-08-19T19:46:56Z</time>
      </trkpt>
      <trkpt lat="-27.879475" lon="-65.747865">
        <ele>1252.1</ele>
        <time>2018-08-19T19:46:58Z</time>
      </trkpt>
      <trkpt lat="-27.879465" lon="-65.747975">
        <ele>1252.7</ele>
        <time>2018-08-19T19:47:00Z</time>
      </trkpt>
      <trkpt lat="-27.87946" lon="-65.748075">
        <ele>1253.5</ele>
        <time>2018-08-19T19:47:02Z</time>
      </trkpt>
      <trkpt lat="-27.879455" lon="-65.74816">
        <ele>1253.9</ele>
        <time>2018-08-19T19:47:04Z</time>
      </trkpt>
      <trkpt lat="-27.87945" lon="-65.748255">
        <ele>1253.8</ele>
        <time>2018-08-19T19:47:06Z</time>
      </trkpt>
      <trkpt lat="-27.879445" lon="-65.74835">
        <ele>1253.7</ele>
        <time>2018-08-19T19:47:08Z</time>
      </trkpt>
      <trkpt lat="-27.879435" lon="-65.74844">
        <ele>1253.8</ele>
        <time>2018-08-19T19:47:10Z</time>
      </trkpt>
      <trkpt lat="-27.879435" lon="-65.748565">
        <ele>1253.9</ele>
        <time>2018-08-19T19:47:13Z</time>
      </trkpt>
      <trkpt lat="-27.879425" lon="-65.748665">
        <ele>1254.1</ele>
        <time>2018-08-19T19:47:15Z</time>
      </trkpt>
      <trkpt lat="-27.879415" lon="-65.74875">
        <ele>1254.0</ele>
        <time>2018-08-19T19:47:17Z</time>
      </trkpt>
      <trkpt lat="-27.8794" lon="-65.74885">
        <ele>1254.0</ele>
        <time>2018-08-19T19:47:20Z</time>
      </trkpt>
      <trkpt lat="-27.87939" lon="-65.74898">
        <ele>1254.1</ele>
        <time>2018-08-19T19:47:23Z</time>
      </trkpt>
      <trkpt lat="-27.879385" lon="-65.749075">
        <ele>1254.1</ele>
        <time>2018-08-19T19:47:26Z</time>
      </trkpt>
      <trkpt lat="-27.879375" lon="-65.74916">
        <ele>1254.2</ele>
        <time>2018-08-19T19:47:28Z</time>
      </trkpt>
      <trkpt lat="-27.879365" lon="-65.74926">
        <ele>1254.2</ele>
        <time>2018-08-19T19:47:30Z</time>
      </trkpt>
      <trkpt lat="-27.879345" lon="-65.749345">
        <ele>1254.2</ele>
        <time>2018-08-19T19:47:32Z</time>
      </trkpt>
      <trkpt lat="-27.879315" lon="-65.74946">
        <ele>1254.1</ele>
        <time>2018-08-19T19:47:35Z</time>
      </trkpt>
      <trkpt lat="-27.879265" lon="-65.74955">
        <ele>1253.8</ele>
        <time>2018-08-19T19:47:38Z</time>
      </trkpt>
      <trkpt lat="-27.87921" lon="-65.749645">
        <ele>1253.6</ele>
        <time>2018-08-19T19:47:41Z</time>
      </trkpt>
      <trkpt lat="-27.879155" lon="-65.74972">
        <ele>1253.3</ele>
        <time>2018-08-19T19:47:44Z</time>
      </trkpt>
      <trkpt lat="-27.879095" lon="-65.749785">
        <ele>1253.2</ele>
        <time>2018-08-19T19:47:47Z</time>
      </trkpt>
      <trkpt lat="-27.87902" lon="-65.749835">
        <ele>1253.0</ele>
        <time>2018-08-19T19:47:51Z</time>
      </trkpt>
      <trkpt lat="-27.87895" lon="-65.74988">
        <ele>1253.0</ele>
        <time>2018-08-19T19:47:54Z</time>
      </trkpt>
      <trkpt lat="-27.878885" lon="-65.74992166666667">
        <ele>1253.2</ele>
        <time>2018-08-19T19:47:57Z</time>
      </trkpt>
      <trkpt lat="-27.87881" lon="-65.74999">
        <ele>1253.4</ele>
        <time>2018-08-19T19:48:00Z</time>
      </trkpt>
      <trkpt lat="-27.87874" lon="-65.75002">
        <ele>1253.6</ele>
        <time>2018-08-19T19:48:03Z</time>
      </trkpt>
      <trkpt lat="-27.878655" lon="-65.75006">
        <ele>1253.9</ele>
        <time>2018-08-19T19:48:07Z</time>
      </trkpt>
      <trkpt lat="-27.87857" lon="-65.750105">
        <ele>1254.3</ele>
        <time>2018-08-19T19:48:11Z</time>
      </trkpt>
      <trkpt lat="-27.87849" lon="-65.750145">
        <ele>1254.8</ele>
        <time>2018-08-19T19:48:15Z</time>
      </trkpt>
      <trkpt lat="-27.87841" lon="-65.750185">
        <ele>1255.3</ele>
        <time>2018-08-19T19:48:19Z</time>
      </trkpt>
      <trkpt lat="-27.87833" lon="-65.75022">
        <ele>1255.7</ele>
        <time>2018-08-19T19:48:23Z</time>
      </trkpt>
      <trkpt lat="-27.878245" lon="-65.750245">
        <ele>1256.3</ele>
        <time>2018-08-19T19:48:27Z</time>
      </trkpt>
      <trkpt lat="-27.878155" lon="-65.750275">
        <ele>1256.8</ele>
        <time>2018-08-19T19:48:31Z</time>
      </trkpt>
      <trkpt lat="-27.87807" lon="-65.750285">
        <ele>1257.2</ele>
        <time>2018-08-19T19:48:35Z</time>
      </trkpt>
      <trkpt lat="-27.877995" lon="-65.75033">
        <ele>1257.7</ele>
        <time>2018-08-19T19:48:39Z</time>
      </trkpt>
      <trkpt lat="-27.87791" lon="-65.750355">
        <ele>1258.1</ele>
        <time>2018-08-19T19:48:44Z</time>
      </trkpt>
      <trkpt lat="-27.87783" lon="-65.75037">
        <ele>1258.5</ele>
        <time>2018-08-19T19:48:47Z</time>
      </trkpt>
      <trkpt lat="-27.877755" lon="-65.75037">
        <ele>1258.8</ele>
        <time>2018-08-19T19:48:51Z</time>
      </trkpt>
      <trkpt lat="-27.877665" lon="-65.750395">
        <ele>1259.2</ele>
        <time>2018-08-19T19:48:56Z</time>
      </trkpt>
      <trkpt lat="-27.877585" lon="-65.75041">
        <ele>1259.4</ele>
        <time>2018-08-19T19:49:01Z</time>
      </trkpt>
      <trkpt lat="-27.877505" lon="-65.750415">
        <ele>1259.7</ele>
        <time>2018-08-19T19:49:06Z</time>
      </trkpt>
      <trkpt lat="-27.877425" lon="-65.750415">
        <ele>1259.9</ele>
        <time>2018-08-19T19:49:11Z</time>
      </trkpt>
      <trkpt lat="-27.877345" lon="-65.750425">
        <ele>1260.1</ele>
        <time>2018-08-19T19:49:16Z</time>
      </trkpt>
      <trkpt lat="-27.877265" lon="-65.750425">
        <ele>1260.5</ele>
        <time>2018-08-19T19:49:21Z</time>
      </trkpt>
      <trkpt lat="-27.87718" lon="-65.750445">
        <ele>1260.9</ele>
        <time>2018-08-19T19:49:26Z</time>
      </trkpt>
      <trkpt lat="-27.877085" lon="-65.75045">
        <ele>1261.6</ele>
        <time>2018-08-19T19:49:32Z</time>
      </trkpt>
      <trkpt lat="-27.877015" lon="-65.75046">
        <ele>1261.9</ele>
        <time>2018-08-19T19:49:36Z</time>
      </trkpt>
      <trkpt lat="-27.876935" lon="-65.75047">
        <ele>1262.3</ele>
        <time>2018-08-19T19:49:41Z</time>
      </trkpt>
      <trkpt lat="-27.87685" lon="-65.75047">
        <ele>1262.7</ele>
        <time>2018-08-19T19:49:46Z</time>
      </trkpt>
      <trkpt lat="-27.87678" lon="-65.75047">
        <ele>1263.5</ele>
        <time>2018-08-19T19:49:51Z</time>
      </trkpt>
      <trkpt lat="-27.876695" lon="-65.75047">
        <ele>1264.6</ele>
        <time>2018-08-19T19:49:57Z</time>
      </trkpt>
      <trkpt lat="-27.87662" lon="-65.75049">
        <ele>1264.8</ele>
        <time>2018-08-19T19:50:01Z</time>
      </trkpt>
      <trkpt lat="-27.87654" lon="-65.7505">
        <ele>1264.9</ele>
        <time>2018-08-19T19:50:06Z</time>
      </trkpt>
      <trkpt lat="-27.876455" lon="-65.7505">
        <ele>1265.4</ele>
        <time>2018-08-19T19:50:11Z</time>
      </trkpt>
      <trkpt lat="-27.876375" lon="-65.7505">
        <ele>1266.2</ele>
        <time>2018-08-19T19:50:16Z</time>
      </trkpt>
      <trkpt lat="-27.87629" lon="-65.75051">
        <ele>1266.6</ele>
        <time>2018-08-19T19:50:20Z</time>
      </trkpt>
      <trkpt lat="-27.87622" lon="-65.75051">
        <ele>1266.9</ele>
        <time>2018-08-19T19:50:24Z</time>
      </trkpt>
      <trkpt lat="-27.87614" lon="-65.75051">
        <ele>1267.1</ele>
        <time>2018-08-19T19:50:28Z</time>
      </trkpt>
      <trkpt lat="-27.876065" lon="-65.75051">
        <ele>1267.3</ele>
        <time>2018-08-19T19:50:32Z</time>
      </trkpt>
      <trkpt lat="-27.875985" lon="-65.75051">
        <ele>1267.7</ele>
        <time>2018-08-19T19:50:37Z</time>
      </trkpt>
      <trkpt lat="-27.87589" lon="-65.750535">
        <ele>1268.0</ele>
        <time>2018-08-19T19:50:42Z</time>
      </trkpt>
      <trkpt lat="-27.8758" lon="-65.750545">
        <ele>1268.3</ele>
        <time>2018-08-19T19:50:46Z</time>
      </trkpt>
      <trkpt lat="-27.87572" lon="-65.750555">
        <ele>1268.6</ele>
        <time>2018-08-19T19:50:50Z</time>
      </trkpt>
      <trkpt lat="-27.875645" lon="-65.750555">
        <ele>1268.9</ele>
        <time>2018-08-19T19:50:54Z</time>
      </trkpt>
      <trkpt lat="-27.875565" lon="-65.750585">
        <ele>1269.0</ele>
        <time>2018-08-19T19:50:58Z</time>
      </trkpt>
      <trkpt lat="-27.87548" lon="-65.750595">
        <ele>1269.2</ele>
        <time>2018-08-19T19:51:03Z</time>
      </trkpt>
      <trkpt lat="-27.87541" lon="-65.75062">
        <ele>1269.5</ele>
        <time>2018-08-19T19:51:08Z</time>
      </trkpt>
      <trkpt lat="-27.875325" lon="-65.75066">
        <ele>1269.8</ele>
        <time>2018-08-19T19:51:13Z</time>
      </trkpt>
      <trkpt lat="-27.875245" lon="-65.750675">
        <ele>1270.3</ele>
        <time>2018-08-19T19:51:18Z</time>
      </trkpt>
      <trkpt lat="-27.875155" lon="-65.750715">
        <ele>1270.8</ele>
        <time>2018-08-19T19:51:23Z</time>
      </trkpt>
      <trkpt lat="-27.87508" lon="-65.75075">
        <ele>1271.3</ele>
        <time>2018-08-19T19:51:28Z</time>
      </trkpt>
      <trkpt lat="-27.87501" lon="-65.75078">
        <ele>1271.6</ele>
        <time>2018-08-19T19:51:32Z</time>
      </trkpt>
      <trkpt lat="-27.87494" lon="-65.75081">
        <ele>1272.0</ele>
        <time>2018-08-19T19:51:36Z</time>
      </trkpt>
      <trkpt lat="-27.874865" lon="-65.75082">
        <ele>1272.2</ele>
        <time>2018-08-19T19:51:40Z</time>
      </trkpt>
      <trkpt lat="-27.874785" lon="-65.750865">
        <ele>1272.4</ele>
        <time>2018-08-19T19:51:44Z</time>
      </trkpt>
      <trkpt lat="-27.874725" lon="-65.7509">
        <ele>1272.5</ele>
        <time>2018-08-19T19:51:48Z</time>
      </trkpt>
      <trkpt lat="-27.874655" lon="-65.75094">
        <ele>1272.8</ele>
        <time>2018-08-19T19:51:52Z</time>
      </trkpt>
      <trkpt lat="-27.87457" lon="-65.75096">
        <ele>1273.2</ele>
        <time>2018-08-19T19:51:56Z</time>
      </trkpt>
      <trkpt lat="-27.874485" lon="-65.751005">
        <ele>1273.5</ele>
        <time>2018-08-19T19:52:00Z</time>
      </trkpt>
      <trkpt lat="-27.874405" lon="-65.751045">
        <ele>1273.6</ele>
        <time>2018-08-19T19:52:04Z</time>
      </trkpt>
      <trkpt lat="-27.87434" lon="-65.751085">
        <ele>1273.9</ele>
        <time>2018-08-19T19:52:08Z</time>
      </trkpt>
      <trkpt lat="-27.874265" lon="-65.75113">
        <ele>1274.2</ele>
        <time>2018-08-19T19:52:12Z</time>
      </trkpt>
      <trkpt lat="-27.87418" lon="-65.751175">
        <ele>1274.6</ele>
        <time>2018-08-19T19:52:16Z</time>
      </trkpt>
      <trkpt lat="-27.874105" lon="-65.75122">
        <ele>1275.0</ele>
        <time>2018-08-19T19:52:20Z</time>
      </trkpt>
      <trkpt lat="-27.874045" lon="-65.75127">
        <ele>1275.2</ele>
        <time>2018-08-19T19:52:23Z</time>
      </trkpt>
      <trkpt lat="-27.873965" lon="-65.751315">
        <ele>1275.5</ele>
        <time>2018-08-19T19:52:27Z</time>
      </trkpt>
      <trkpt lat="-27.8739" lon="-65.751355">
        <ele>1275.7</ele>
        <time>2018-08-19T19:52:30Z</time>
      </trkpt>
      <trkpt lat="-27.873835" lon="-65.75141">
        <ele>1275.8</ele>
        <time>2018-08-19T19:52:33Z</time>
      </trkpt>
      <trkpt lat="-27.87377" lon="-65.751445">
        <ele>1276.0</ele>
        <time>2018-08-19T19:52:36Z</time>
      </trkpt>
      <trkpt lat="-27.8737" lon="-65.751495">
        <ele>1276.3</ele>
        <time>2018-08-19T19:52:39Z</time>
      </trkpt>
      <trkpt lat="-27.87364" lon="-65.75156">
        <ele>1276.6</ele>
        <time>2018-08-19T19:52:42Z</time>
      </trkpt>
      <trkpt lat="-27.873575" lon="-65.751605">
        <ele>1276.8</ele>
        <time>2018-08-19T19:52:45Z</time>
      </trkpt>
      <trkpt lat="-27.873505" lon="-65.751655">
        <ele>1277.1</ele>
        <time>2018-08-19T19:52:48Z</time>
      </trkpt>
      <trkpt lat="-27.87344" lon="-65.751705">
        <ele>1277.3</ele>
        <time>2018-08-19T19:52:51Z</time>
      </trkpt>
      <trkpt lat="-27.87337" lon="-65.751755">
        <ele>1277.6</ele>
        <time>2018-08-19T19:52:54Z</time>
      </trkpt>
      <trkpt lat="-27.8733" lon="-65.751805">
        <ele>1277.8</ele>
        <time>2018-08-19T19:52:57Z</time>
      </trkpt>
      <trkpt lat="-27.87324" lon="-65.75185">
        <ele>1278.0</ele>
        <time>2018-08-19T19:53:00Z</time>
      </trkpt>
      <trkpt lat="-27.873175" lon="-65.75188833333333">
        <ele>1278.2</ele>
        <time>2018-08-19T19:53:03Z</time>
      </trkpt>
      <trkpt lat="-27.87311" lon="-65.75196">
        <ele>1278.4</ele>
        <time>2018-08-19T19:53:06Z</time>
      </trkpt>
      <trkpt lat="-27.87305" lon="-65.752025">
        <ele>1278.7</ele>
        <time>2018-08-19T19:53:09Z</time>
      </trkpt>
      <trkpt lat="-27.87299" lon="-65.752075">
        <ele>1278.9</ele>
        <time>2018-08-19T19:53:12Z</time>
      </trkpt>
      <trkpt lat="-27.87293" lon="-65.75214">
        <ele>1279.2</ele>
        <time>2018-08-19T19:53:15Z</time>
      </trkpt>
      <trkpt lat="-27.87287" lon="-65.752195">
        <ele>1279.5</ele>
        <time>2018-08-19T19:53:18Z</time>
      </trkpt>
      <trkpt lat="-27.872815" lon="-65.752255">
        <ele>1279.8</ele>
        <time>2018-08-19T19:53:21Z</time>
      </trkpt>
      <trkpt lat="-27.872745" lon="-65.75234">
        <ele>1280.2</ele>
        <time>2018-08-19T19:53:25Z</time>
      </trkpt>
      <trkpt lat="-27.87269" lon="-65.75241">
        <ele>1280.4</ele>
        <time>2018-08-19T19:53:28Z</time>
      </trkpt>
      <trkpt lat="-27.87264" lon="-65.75248">
        <ele>1280.5</ele>
        <time>2018-08-19T19:53:31Z</time>
      </trkpt>
      <trkpt lat="-27.87259" lon="-65.752555">
        <ele>1280.6</ele>
        <time>2018-08-19T19:53:34Z</time>
      </trkpt>
      <trkpt lat="-27.87254" lon="-65.75264">
        <ele>1280.7</ele>
        <time>2018-08-19T19:53:37Z</time>
      </trkpt>
      <trkpt lat="-27.872495" lon="-65.75273">
        <ele>1280.7</ele>
        <time>2018-08-19T19:53:40Z</time>
      </trkpt>
      <trkpt lat="-27.87245" lon="-65.752825">
        <ele>1280.7</ele>
        <time>2018-08-19T19:53:43Z</time>
      </trkpt>
      <trkpt lat="-27.8724" lon="-65.75293">
        <ele>1280.7</ele>
        <time>2018-08-19T19:53:46Z</time>
      </trkpt>
      <trkpt lat="-27.872375" lon="-65.753015">
        <ele>1280.9</ele>
        <time>2018-08-19T19:53:49Z</time>
      </trkpt>
      <trkpt lat="-27.87235" lon="-65.7531">
        <ele>1281.1</ele>
        <time>2018-08-19T19:53:52Z</time>
      </trkpt>
      <trkpt lat="-27.872335" lon="-65.7532">
        <ele>1281.3</ele>
        <time>2018-08-19T19:53:55Z</time>
      </trkpt>
      <trkpt lat="-27.872315" lon="-65.753285">
        <ele>1281.7</ele>
        <time>2018-08-19T19:53:58Z</time>
      </trkpt>
      <trkpt lat="-27.87231" lon="-65.75337">
        <ele>1281.9</ele>
        <time>2018-08-19T19:54:01Z</time>
      </trkpt>
      <trkpt lat="-27.8723" lon="-65.75346">
        <ele>1282.1</ele>
        <time>2018-08-19T19:54:04Z</time>
      </trkpt>
      <trkpt lat="-27.872295" lon="-65.75355">
        <ele>1282.5</ele>
        <time>2018-08-19T19:54:08Z</time>
      </trkpt>
      <trkpt lat="-27.87228" lon="-65.75366">
        <ele>1282.8</ele>
        <time>2018-08-19T19:54:12Z</time>
      </trkpt>
      <trkpt lat="-27.872275" lon="-65.753755">
        <ele>1283.0</ele>
        <time>2018-08-19T19:54:16Z</time>
      </trkpt>
      <trkpt lat="-27.87226" lon="-65.753845">
        <ele>1283.3</ele>
        <time>2018-08-19T19:54:20Z</time>
      </trkpt>
      <trkpt lat="-27.872245" lon="-65.75394">
        <ele>1283.6</ele>
        <time>2018-08-19T19:54:25Z</time>
      </trkpt>
      <trkpt lat="-27.87223" lon="-65.754025">
        <ele>1283.8</ele>
        <time>2018-08-19T19:54:29Z</time>
      </trkpt>
      <trkpt lat="-27.8722" lon="-65.754125">
        <ele>1284.1</ele>
        <time>2018-08-19T19:54:34Z</time>
      </trkpt>
      <trkpt lat="-27.872195" lon="-65.75422">
        <ele>1284.3</ele>
        <time>2018-08-19T19:54:39Z</time>
      </trkpt>
      <trkpt lat="-27.872185" lon="-65.75431">
        <ele>1284.6</ele>
        <time>2018-08-19T19:54:43Z</time>
      </trkpt>
      <trkpt lat="-27.87216" lon="-65.75439">
        <ele>1284.7</ele>
        <time>2018-08-19T19:54:47Z</time>
      </trkpt>
      <trkpt lat="-27.872145" lon="-65.75449">
        <ele>1284.8</ele>
        <time>2018-08-19T19:54:52Z</time>
      </trkpt>
      <trkpt lat="-27.872125" lon="-65.75458">
        <ele>1285.0</ele>
        <time>2018-08-19T19:54:56Z</time>
      </trkpt>
      <trkpt lat="-27.8721" lon="-65.75469">
        <ele>1285.1</ele>
        <time>2018-08-19T19:55:00Z</time>
      </trkpt>
      <trkpt lat="-27.87207" lon="-65.75476">
        <ele>1285.3</ele>
        <time>2018-08-19T19:55:03Z</time>
      </trkpt>
      <trkpt lat="-27.872035" lon="-65.75484">
        <ele>1286.0</ele>
        <time>2018-08-19T19:55:07Z</time>
      </trkpt>
      <trkpt lat="-27.872" lon="-65.754935">
        <ele>1286.5</ele>
        <time>2018-08-19T19:55:10Z</time>
      </trkpt>
      <trkpt lat="-27.871955" lon="-65.75503">
        <ele>1287.0</ele>
        <time>2018-08-19T19:55:14Z</time>
      </trkpt>
      <trkpt lat="-27.87191" lon="-65.755105">
        <ele>1287.3</ele>
        <time>2018-08-19T19:55:17Z</time>
      </trkpt>
      <trkpt lat="-27.87186" lon="-65.75517">
        <ele>1287.6</ele>
        <time>2018-08-19T19:55:20Z</time>
      </trkpt>
      <trkpt lat="-27.87181" lon="-65.755245">
        <ele>1287.9</ele>
        <time>2018-08-19T19:55:23Z</time>
      </trkpt>
      <trkpt lat="-27.871745" lon="-65.75532">
        <ele>1288.2</ele>
        <time>2018-08-19T19:55:26Z</time>
      </trkpt>
      <trkpt lat="-27.87169" lon="-65.755385">
        <ele>1288.4</ele>
        <time>2018-08-19T19:55:29Z</time>
      </trkpt>
      <trkpt lat="-27.87163" lon="-65.75546">
        <ele>1288.5</ele>
        <time>2018-08-19T19:55:32Z</time>
      </trkpt>
      <trkpt lat="-27.871565" lon="-65.75552">
        <ele>1288.6</ele>
        <time>2018-08-19T19:55:35Z</time>
      </trkpt>
      <trkpt lat="-27.871505" lon="-65.7556">
        <ele>1288.7</ele>
        <time>2018-08-19T19:55:38Z</time>
      </trkpt>
      <trkpt lat="-27.87144" lon="-65.75566">
        <ele>1288.7</ele>
        <time>2018-08-19T19:55:41Z</time>
      </trkpt>
      <trkpt lat="-27.871365" lon="-65.755705">
        <ele>1288.7</ele>
        <time>2018-08-19T19:55:44Z</time>
      </trkpt>
      <trkpt lat="-27.87129" lon="-65.75577">
        <ele>1288.7</ele>
        <time>2018-08-19T19:55:47Z</time>
      </trkpt>
      <trkpt lat="-27.87121" lon="-65.755825">
        <ele>1288.7</ele>
        <time>2018-08-19T19:55:50Z</time>
      </trkpt>
      <trkpt lat="-27.871135" lon="-65.755875">
        <ele>1288.7</ele>
        <time>2018-08-19T19:55:53Z</time>
      </trkpt>
      <trkpt lat="-27.87106" lon="-65.75593">
        <ele>1288.7</ele>
        <time>2018-08-19T19:55:56Z</time>
      </trkpt>
      <trkpt lat="-27.870985" lon="-65.75597">
        <ele>1288.9</ele>
        <time>2018-08-19T19:55:59Z</time>
      </trkpt>
      <trkpt lat="-27.87091" lon="-65.756015">
        <ele>1289.1</ele>
        <time>2018-08-19T19:56:02Z</time>
      </trkpt>
      <trkpt lat="-27.870835" lon="-65.756055">
        <ele>1289.3</ele>
        <time>2018-08-19T19:56:05Z</time>
      </trkpt>
      <trkpt lat="-27.87076" lon="-65.75611">
        <ele>1289.5</ele>
        <time>2018-08-19T19:56:08Z</time>
      </trkpt>
      <trkpt lat="-27.870685" lon="-65.756175">
        <ele>1289.6</ele>
        <time>2018-08-19T19:56:11Z</time>
      </trkpt>
      <trkpt lat="-27.870605" lon="-65.75622">
        <ele>1289.7</ele>
        <time>2018-08-19T19:56:14Z</time>
      </trkpt>
      <trkpt lat="-27.87053" lon="-65.756275">
        <ele>1289.8</ele>
        <time>2018-08-19T19:56:17Z</time>
      </trkpt>
      <trkpt lat="-27.870455" lon="-65.756325">
        <ele>1289.9</ele>
        <time>2018-08-19T19:56:20Z</time>
      </trkpt>
      <trkpt lat="-27.87038" lon="-65.75638000000001">
        <ele>1290.0</ele>
        <time>2018-08-19T19:56:23Z</time>
      </trkpt>
      <trkpt lat="-27.8703" lon="-65.75642">
        <ele>1290.2</ele>
        <time>2018-08-19T19:56:26Z</time>
      </trkpt>
      <trkpt lat="-27.870215" lon="-65.756465">
        <ele>1290.5</ele>
        <time>2018-08-19T19:56:29Z</time>
      </trkpt>
      <trkpt lat="-27.87013" lon="-65.756545">
        <ele>1290.9</ele>
        <time>2018-08-19T19:56:32Z</time>
      </trkpt>
      <trkpt lat="-27.87005" lon="-65.756585">
        <ele>1291.2</ele>
        <time>2018-08-19T19:56:35Z</time>
      </trkpt>
      <trkpt lat="-27.869985" lon="-65.756635">
        <ele>1291.6</ele>
        <time>2018-08-19T19:56:38Z</time>
      </trkpt>
      <trkpt lat="-27.869905" lon="-65.75669">
        <ele>1291.9</ele>
        <time>2018-08-19T19:56:41Z</time>
      </trkpt>
      <trkpt lat="-27.869825" lon="-65.756755">
        <ele>1292.1</ele>
        <time>2018-08-19T19:56:44Z</time>
      </trkpt>
      <trkpt lat="-27.86975" lon="-65.756805">
        <ele>1292.2</ele>
        <time>2018-08-19T19:56:47Z</time>
      </trkpt>
      <trkpt lat="-27.86968" lon="-65.756855">
        <ele>1292.4</ele>
        <time>2018-08-19T19:56:50Z</time>
      </trkpt>
      <trkpt lat="-27.869605" lon="-65.756905">
        <ele>1292.5</ele>
        <time>2018-08-19T19:56:53Z</time>
      </trkpt>
      <trkpt lat="-27.86954" lon="-65.756945">
        <ele>1292.6</ele>
        <time>2018-08-19T19:56:56Z</time>
      </trkpt>
      <trkpt lat="-27.86946" lon="-65.757">
        <ele>1292.8</ele>
        <time>2018-08-19T19:57:00Z</time>
      </trkpt>
      <trkpt lat="-27.869395" lon="-65.75704">
        <ele>1293.0</ele>
        <time>2018-08-19T19:57:03Z</time>
      </trkpt>
      <trkpt lat="-27.869325" lon="-65.757095">
        <ele>1293.0</ele>
        <time>2018-08-19T19:57:06Z</time>
      </trkpt>
      <trkpt lat="-27.869255" lon="-65.75714">
        <ele>1293.1</ele>
        <time>2018-08-19T19:57:10Z</time>
      </trkpt>
      <trkpt lat="-27.86918" lon="-65.75718">
        <ele>1293.4</ele>
        <time>2018-08-19T19:57:14Z</time>
      </trkpt>
      <trkpt lat="-27.8691" lon="-65.757245">
        <ele>1293.7</ele>
        <time>2018-08-19T19:57:18Z</time>
      </trkpt>
      <trkpt lat="-27.869015" lon="-65.7573">
        <ele>1294.0</ele>
        <time>2018-08-19T19:57:22Z</time>
      </trkpt>
      <trkpt lat="-27.868955" lon="-65.757345">
        <ele>1294.3</ele>
        <time>2018-08-19T19:57:26Z</time>
      </trkpt>
      <trkpt lat="-27.868875" lon="-65.757395">
        <ele>1294.6</ele>
        <time>2018-08-19T19:57:30Z</time>
      </trkpt>
      <trkpt lat="-27.868805000000002" lon="-65.75745">
        <ele>1295.0</ele>
        <time>2018-08-19T19:57:35Z</time>
      </trkpt>
      <trkpt lat="-27.868735" lon="-65.75749">
        <ele>1295.4</ele>
        <time>2018-08-19T19:57:40Z</time>
      </trkpt>
      <trkpt lat="-27.86866" lon="-65.757555">
        <ele>1295.7</ele>
        <time>2018-08-19T19:57:45Z</time>
      </trkpt>
      <trkpt lat="-27.8686" lon="-65.7576">
        <ele>1295.9</ele>
        <time>2018-08-19T19:57:49Z</time>
      </trkpt>
      <trkpt lat="-27.86853" lon="-65.757645">
        <ele>1296.1</ele>
        <time>2018-08-19T19:57:53Z</time>
      </trkpt>
      <trkpt lat="-27.868465" lon="-65.757705">
        <ele>1296.5</ele>
        <time>2018-08-19T19:57:59Z</time>
      </trkpt>
      <trkpt lat="-27.868405" lon="-65.75776">
        <ele>1296.9</ele>
        <time>2018-08-19T19:58:04Z</time>
      </trkpt>
      <trkpt lat="-27.86834" lon="-65.757795">
        <ele>1297.1</ele>
        <time>2018-08-19T19:58:08Z</time>
      </trkpt>
      <trkpt lat="-27.86828" lon="-65.75787">
        <ele>1297.3</ele>
        <time>2018-08-19T19:58:12Z</time>
      </trkpt>
      <trkpt lat="-27.868215" lon="-65.75793">
        <ele>1297.7</ele>
        <time>2018-08-19T19:58:16Z</time>
      </trkpt>
      <trkpt lat="-27.868145" lon="-65.757985">
        <ele>1298.1</ele>
        <time>2018-08-19T19:58:20Z</time>
      </trkpt>
      <trkpt lat="-27.86808" lon="-65.75805">
        <ele>1298.5</ele>
        <time>2018-08-19T19:58:24Z</time>
      </trkpt>
      <trkpt lat="-27.868009999999998" lon="-65.758115">
        <ele>1298.9</ele>
        <time>2018-08-19T19:58:28Z</time>
      </trkpt>
      <trkpt lat="-27.867955" lon="-65.758165">
        <ele>1299.0</ele>
        <time>2018-08-19T19:58:31Z</time>
      </trkpt>
      <trkpt lat="-27.8679" lon="-65.758235">
        <ele>1299.1</ele>
        <time>2018-08-19T19:58:34Z</time>
      </trkpt>
      <trkpt lat="-27.86784" lon="-65.758325">
        <ele>1299.1</ele>
        <time>2018-08-19T19:58:38Z</time>
      </trkpt>
      <trkpt lat="-27.86779" lon="-65.75839">
        <ele>1299.1</ele>
        <time>2018-08-19T19:58:41Z</time>
      </trkpt>
      <trkpt lat="-27.867735" lon="-65.7585">
        <ele>1299.2</ele>
        <time>2018-08-19T19:58:44Z</time>
      </trkpt>
      <trkpt lat="-27.8677" lon="-65.75855833333334">
        <ele>1299.4</ele>
        <time>2018-08-19T19:58:46Z</time>
      </trkpt>
      <trkpt lat="-27.867675" lon="-65.75866">
        <ele>1300.0</ele>
        <time>2018-08-19T19:58:48Z</time>
      </trkpt>
      <trkpt lat="-27.86765" lon="-65.75874">
        <ele>1300.7</ele>
        <time>2018-08-19T19:58:50Z</time>
      </trkpt>
      <trkpt lat="-27.867625" lon="-65.75882">
        <ele>1300.4</ele>
        <time>2018-08-19T19:58:52Z</time>
      </trkpt>
      <trkpt lat="-27.8676" lon="-65.758905">
        <ele>1299.9</ele>
        <time>2018-08-19T19:58:54Z</time>
      </trkpt>
      <trkpt lat="-27.867575" lon="-65.75899">
        <ele>1299.2</ele>
        <time>2018-08-19T19:58:56Z</time>
      </trkpt>
      <trkpt lat="-27.867545" lon="-65.759065">
        <ele>1298.7</ele>
        <time>2018-08-19T19:58:58Z</time>
      </trkpt>
      <trkpt lat="-27.86753" lon="-65.75915">
        <ele>1298.3</ele>
        <time>2018-08-19T19:59:00Z</time>
      </trkpt>
      <trkpt lat="-27.8675" lon="-65.759235">
        <ele>1299.1</ele>
        <time>2018-08-19T19:59:02Z</time>
      </trkpt>
      <trkpt lat="-27.867475" lon="-65.759355">
        <ele>1299.9</ele>
        <time>2018-08-19T19:59:04Z</time>
      </trkpt>
      <trkpt lat="-27.867445" lon="-65.75946">
        <ele>1300.1</ele>
        <time>2018-08-19T19:59:06Z</time>
      </trkpt>
      <trkpt lat="-27.86742" lon="-65.75957">
        <ele>1300.7</ele>
        <time>2018-08-19T19:59:08Z</time>
      </trkpt>
      <trkpt lat="-27.8674" lon="-65.759675">
        <ele>1302.1</ele>
        <time>2018-08-19T19:59:10Z</time>
      </trkpt>
      <trkpt lat="-27.867375" lon="-65.75976666666666">
        <ele>1303.0</ele>
        <time>2018-08-19T19:59:12Z</time>
      </trkpt>
      <trkpt lat="-27.867355" lon="-65.75989">
        <ele>1303.6</ele>
        <time>2018-08-19T19:59:14Z</time>
      </trkpt>
      <trkpt lat="-27.867335" lon="-65.759995">
        <ele>1304.0</ele>
        <time>2018-08-19T19:59:16Z</time>
      </trkpt>
      <trkpt lat="-27.86731" lon="-65.760095">
        <ele>1304.0</ele>
        <time>2018-08-19T19:59:18Z</time>
      </trkpt>
      <trkpt lat="-27.867285" lon="-65.760205">
        <ele>1303.0</ele>
        <time>2018-08-19T19:59:20Z</time>
      </trkpt>
      <trkpt lat="-27.867265" lon="-65.7603">
        <ele>1301.6</ele>
        <time>2018-08-19T19:59:22Z</time>
      </trkpt>
      <trkpt lat="-27.867235" lon="-65.760385">
        <ele>1300.4</ele>
        <time>2018-08-19T19:59:24Z</time>
      </trkpt>
      <trkpt lat="-27.867215" lon="-65.760485">
        <ele>1299.7</ele>
        <time>2018-08-19T19:59:26Z</time>
      </trkpt>
      <trkpt lat="-27.867185" lon="-65.760585">
        <ele>1299.1</ele>
        <time>2018-08-19T19:59:28Z</time>
      </trkpt>
      <trkpt lat="-27.867155" lon="-65.76067">
        <ele>1298.0</ele>
        <time>2018-08-19T19:59:30Z</time>
      </trkpt>
      <trkpt lat="-27.86712" lon="-65.76078">
        <ele>1297.3</ele>
        <time>2018-08-19T19:59:32Z</time>
      </trkpt>
      <trkpt lat="-27.867095" lon="-65.76088">
        <ele>1296.4</ele>
        <time>2018-08-19T19:59:34Z</time>
      </trkpt>
      <trkpt lat="-27.86706" lon="-65.76098">
        <ele>1295.6</ele>
        <time>2018-08-19T19:59:36Z</time>
      </trkpt>
      <trkpt lat="-27.86702" lon="-65.76108">
        <ele>1295.1</ele>
        <time>2018-08-19T19:59:38Z</time>
      </trkpt>
      <trkpt lat="-27.866975" lon="-65.761195">
        <ele>1294.8</ele>
        <time>2018-08-19T19:59:40Z</time>
      </trkpt>
      <trkpt lat="-27.866925" lon="-65.761295">
        <ele>1294.7</ele>
        <time>2018-08-19T19:59:42Z</time>
      </trkpt>
      <trkpt lat="-27.86687" lon="-65.76139">
        <ele>1294.5</ele>
        <time>2018-08-19T19:59:44Z</time>
      </trkpt>
      <trkpt lat="-27.866805" lon="-65.761495">
        <ele>1294.3</ele>
        <time>2018-08-19T19:59:46Z</time>
      </trkpt>
      <trkpt lat="-27.86674" lon="-65.76156">
        <ele>1294.0</ele>
        <time>2018-08-19T19:59:48Z</time>
      </trkpt>
      <trkpt lat="-27.866665" lon="-65.761615">
        <ele>1293.7</ele>
        <time>2018-08-19T19:59:50Z</time>
      </trkpt>
      <trkpt lat="-27.866615" lon="-65.761655">
        <ele>1293.5</ele>
        <time>2018-08-19T19:59:52Z</time>
      </trkpt>
      <trkpt lat="-27.866545" lon="-65.7617">
        <ele>1294.1</ele>
        <time>2018-08-19T19:59:54Z</time>
      </trkpt>
      <trkpt lat="-27.866475" lon="-65.761735">
        <ele>1294.7</ele>
        <time>2018-08-19T19:59:56Z</time>
      </trkpt>
      <trkpt lat="-27.8664" lon="-65.76178">
        <ele>1295.8</ele>
        <time>2018-08-19T19:59:58Z</time>
      </trkpt>
      <trkpt lat="-27.866325" lon="-65.76181">
        <ele>1296.2</ele>
        <time>2018-08-19T20:00:00Z</time>
      </trkpt>
      <trkpt lat="-27.86625" lon="-65.76182">
        <ele>1296.5</ele>
        <time>2018-08-19T20:00:02Z</time>
      </trkpt>
      <trkpt lat="-27.86617" lon="-65.76184">
        <ele>1296.9</ele>
        <time>2018-08-19T20:00:04Z</time>
      </trkpt>
      <trkpt lat="-27.866095" lon="-65.76188">
        <ele>1297.1</ele>
        <time>2018-08-19T20:00:06Z</time>
      </trkpt>
      <trkpt lat="-27.86602" lon="-65.761905">
        <ele>1297.2</ele>
        <time>2018-08-19T20:00:08Z</time>
      </trkpt>
      <trkpt lat="-27.86592" lon="-65.761945">
        <ele>1297.3</ele>
        <time>2018-08-19T20:00:11Z</time>
      </trkpt>
      <trkpt lat="-27.865835" lon="-65.761965">
        <ele>1297.4</ele>
        <time>2018-08-19T20:00:14Z</time>
      </trkpt>
      <trkpt lat="-27.86575" lon="-65.76199">
        <ele>1297.4</ele>
        <time>2018-08-19T20:00:17Z</time>
      </trkpt>
      <trkpt lat="-27.86566" lon="-65.76201">
        <ele>1297.5</ele>
        <time>2018-08-19T20:00:20Z</time>
      </trkpt>
      <trkpt lat="-27.865565" lon="-65.76202">
        <ele>1297.7</ele>
        <time>2018-08-19T20:00:23Z</time>
      </trkpt>
      <trkpt lat="-27.86547" lon="-65.76202">
        <ele>1297.9</ele>
        <time>2018-08-19T20:00:26Z</time>
      </trkpt>
      <trkpt lat="-27.865375" lon="-65.76202">
        <ele>1298.1</ele>
        <time>2018-08-19T20:00:29Z</time>
      </trkpt>
      <trkpt lat="-27.865275" lon="-65.76202">
        <ele>1298.4</ele>
        <time>2018-08-19T20:00:32Z</time>
      </trkpt>
      <trkpt lat="-27.86518" lon="-65.76202">
        <ele>1298.6</ele>
        <time>2018-08-19T20:00:35Z</time>
      </trkpt>
      <trkpt lat="-27.865075" lon="-65.76201">
        <ele>1298.8</ele>
        <time>2018-08-19T20:00:38Z</time>
      </trkpt>
      <trkpt lat="-27.86498" lon="-65.762">
        <ele>1299.0</ele>
        <time>2018-08-19T20:00:41Z</time>
      </trkpt>
      <trkpt lat="-27.864875" lon="-65.761965">
        <ele>1299.2</ele>
        <time>2018-08-19T20:00:44Z</time>
      </trkpt>
      <trkpt lat="-27.864805" lon="-65.761965">
        <ele>1299.3</ele>
        <time>2018-08-19T20:00:46Z</time>
      </trkpt>
      <trkpt lat="-27.86473" lon="-65.761965">
        <ele>1300.0</ele>
        <time>2018-08-19T20:00:48Z</time>
      </trkpt>
      <trkpt lat="-27.864625" lon="-65.761955">
        <ele>1300.1</ele>
        <time>2018-08-19T20:00:51Z</time>
      </trkpt>
      <trkpt lat="-27.864525" lon="-65.761925">
        <ele>1300.3</ele>
        <time>2018-08-19T20:00:54Z</time>
      </trkpt>
      <trkpt lat="-27.864445" lon="-65.761925">
        <ele>1300.4</ele>
        <time>2018-08-19T20:00:56Z</time>
      </trkpt>
      <trkpt lat="-27.864365" lon="-65.761925">
        <ele>1301.6</ele>
        <time>2018-08-19T20:00:58Z</time>
      </trkpt>
      <trkpt lat="-27.864295" lon="-65.761925">
        <ele>1302.5</ele>
        <time>2018-08-19T20:01:00Z</time>
      </trkpt>
      <trkpt lat="-27.86421" lon="-65.761925">
        <ele>1302.7</ele>
        <time>2018-08-19T20:01:02Z</time>
      </trkpt>
      <trkpt lat="-27.864114999999998" lon="-65.761945">
        <ele>1302.7</ele>
        <time>2018-08-19T20:01:04Z</time>
      </trkpt>
      <trkpt lat="-27.86404" lon="-65.761965">
        <ele>1302.6</ele>
        <time>2018-08-19T20:01:06Z</time>
      </trkpt>
      <trkpt lat="-27.863965" lon="-65.76201">
        <ele>1302.1</ele>
        <time>2018-08-19T20:01:08Z</time>
      </trkpt>
      <trkpt lat="-27.863895" lon="-65.762055">
        <ele>1302.0</ele>
        <time>2018-08-19T20:01:10Z</time>
      </trkpt>
      <trkpt lat="-27.86383" lon="-65.762105">
        <ele>1301.8</ele>
        <time>2018-08-19T20:01:12Z</time>
      </trkpt>
      <trkpt lat="-27.863775" lon="-65.76218">
        <ele>1301.8</ele>
        <time>2018-08-19T20:01:14Z</time>
      </trkpt>
      <trkpt lat="-27.86371" lon="-65.762235">
        <ele>1301.8</ele>
        <time>2018-08-19T20:01:16Z</time>
      </trkpt>
      <trkpt lat="-27.863675" lon="-65.76231">
        <ele>1302.2</ele>
        <time>2018-08-19T20:01:18Z</time>
      </trkpt>
      <trkpt lat="-27.86362" lon="-65.762375">
        <ele>1301.8</ele>
        <time>2018-08-19T20:01:20Z</time>
      </trkpt>
      <trkpt lat="-27.86356" lon="-65.762455">
        <ele>1300.6</ele>
        <time>2018-08-19T20:01:22Z</time>
      </trkpt>
      <trkpt lat="-27.863505" lon="-65.76250166666667">
        <ele>1299.2</ele>
        <time>2018-08-19T20:01:24Z</time>
      </trkpt>
      <trkpt lat="-27.86346" lon="-65.76258">
        <ele>1299.1</ele>
        <time>2018-08-19T20:01:26Z</time>
      </trkpt>
      <trkpt lat="-27.863410000000002" lon="-65.76264">
        <ele>1299.0</ele>
        <time>2018-08-19T20:01:28Z</time>
      </trkpt>
      <trkpt lat="-27.86337" lon="-65.762715">
        <ele>1298.9</ele>
        <time>2018-08-19T20:01:30Z</time>
      </trkpt>
      <trkpt lat="-27.86333" lon="-65.76278">
        <ele>1298.8</ele>
        <time>2018-08-19T20:01:32Z</time>
      </trkpt>
      <trkpt lat="-27.86329" lon="-65.76286">
        <ele>1298.8</ele>
        <time>2018-08-19T20:01:34Z</time>
      </trkpt>
      <trkpt lat="-27.863245" lon="-65.76295">
        <ele>1298.8</ele>
        <time>2018-08-19T20:01:37Z</time>
      </trkpt>
      <trkpt lat="-27.8632" lon="-65.76305">
        <ele>1298.9</ele>
        <time>2018-08-19T20:01:40Z</time>
      </trkpt>
      <trkpt lat="-27.863175" lon="-65.763135">
        <ele>1299.1</ele>
        <time>2018-08-19T20:01:42Z</time>
      </trkpt>
      <trkpt lat="-27.863145" lon="-65.763255">
        <ele>1299.3</ele>
        <time>2018-08-19T20:01:45Z</time>
      </trkpt>
      <trkpt lat="-27.863105" lon="-65.76336">
        <ele>1299.5</ele>
        <time>2018-08-19T20:01:48Z</time>
      </trkpt>
      <trkpt lat="-27.863085" lon="-65.76347">
        <ele>1299.7</ele>
        <time>2018-08-19T20:01:51Z</time>
      </trkpt>
      <trkpt lat="-27.86305" lon="-65.763575">
        <ele>1299.9</ele>
        <time>2018-08-19T20:01:54Z</time>
      </trkpt>
      <trkpt lat="-27.863015" lon="-65.76367">
        <ele>1300.0</ele>
        <time>2018-08-19T20:01:57Z</time>
      </trkpt>
      <trkpt lat="-27.86298" lon="-65.763785">
        <ele>1300.1</ele>
        <time>2018-08-19T20:02:00Z</time>
      </trkpt>
      <trkpt lat="-27.86295" lon="-65.76385">
        <ele>1300.2</ele>
        <time>2018-08-19T20:02:03Z</time>
      </trkpt>
      <trkpt lat="-27.862915" lon="-65.76396">
        <ele>1300.2</ele>
        <time>2018-08-19T20:02:06Z</time>
      </trkpt>
      <trkpt lat="-27.86288" lon="-65.764035">
        <ele>1300.3</ele>
        <time>2018-08-19T20:02:09Z</time>
      </trkpt>
      <trkpt lat="-27.862845" lon="-65.76412">
        <ele>1300.5</ele>
        <time>2018-08-19T20:02:12Z</time>
      </trkpt>
      <trkpt lat="-27.86281" lon="-65.764205">
        <ele>1300.6</ele>
        <time>2018-08-19T20:02:16Z</time>
      </trkpt>
      <trkpt lat="-27.862775" lon="-65.764325">
        <ele>1300.7</ele>
        <time>2018-08-19T20:02:20Z</time>
      </trkpt>
      <trkpt lat="-27.86276" lon="-65.764425">
        <ele>1301.0</ele>
        <time>2018-08-19T20:02:24Z</time>
      </trkpt>
      <trkpt lat="-27.862755" lon="-65.76451">
        <ele>1301.2</ele>
        <time>2018-08-19T20:02:27Z</time>
      </trkpt>
      <trkpt lat="-27.862755" lon="-65.76461">
        <ele>1301.3</ele>
        <time>2018-08-19T20:02:30Z</time>
      </trkpt>
      <trkpt lat="-27.862765" lon="-65.76475">
        <ele>1301.7</ele>
        <time>2018-08-19T20:02:33Z</time>
      </trkpt>
      <trkpt lat="-27.862775" lon="-65.76486">
        <ele>1301.8</ele>
        <time>2018-08-19T20:02:36Z</time>
      </trkpt>
      <trkpt lat="-27.862795" lon="-65.764975">
        <ele>1302.1</ele>
        <time>2018-08-19T20:02:39Z</time>
      </trkpt>
      <trkpt lat="-27.862785" lon="-65.765085">
        <ele>1302.3</ele>
        <time>2018-08-19T20:02:42Z</time>
      </trkpt>
      <trkpt lat="-27.86274" lon="-65.76517">
        <ele>1302.3</ele>
        <time>2018-08-19T20:02:45Z</time>
      </trkpt>
      <trkpt lat="-27.86267" lon="-65.76522">
        <ele>1302.2</ele>
        <time>2018-08-19T20:02:48Z</time>
      </trkpt>
      <trkpt lat="-27.862585" lon="-65.765235">
        <ele>1302.2</ele>
        <time>2018-08-19T20:02:51Z</time>
      </trkpt>
      <trkpt lat="-27.86251" lon="-65.765235">
        <ele>1302.3</ele>
        <time>2018-08-19T20:02:54Z</time>
      </trkpt>
      <trkpt lat="-27.86242" lon="-65.76523833333333">
        <ele>1302.6</ele>
        <time>2018-08-19T20:02:58Z</time>
      </trkpt>
      <trkpt lat="-27.86235" lon="-65.7653">
        <ele>1302.9</ele>
        <time>2018-08-19T20:03:02Z</time>
      </trkpt>
      <trkpt lat="-27.86229" lon="-65.76537">
        <ele>1303.4</ele>
        <time>2018-08-19T20:03:07Z</time>
      </trkpt>
      <trkpt lat="-27.86224" lon="-65.765445">
        <ele>1303.7</ele>
        <time>2018-08-19T20:03:11Z</time>
      </trkpt>
      <trkpt lat="-27.862195" lon="-65.76551">
        <ele>1304.3</ele>
        <time>2018-08-19T20:03:16Z</time>
      </trkpt>
      <trkpt lat="-27.862145" lon="-65.76558">
        <ele>1304.8</ele>
        <time>2018-08-19T20:03:21Z</time>
      </trkpt>
      <trkpt lat="-27.862085" lon="-65.76564">
        <ele>1305.2</ele>
        <time>2018-08-19T20:03:26Z</time>
      </trkpt>
      <trkpt lat="-27.862015" lon="-65.765705">
        <ele>1306.1</ele>
        <time>2018-08-19T20:03:32Z</time>
      </trkpt>
      <trkpt lat="-27.86195" lon="-65.76576">
        <ele>1306.8</ele>
        <time>2018-08-19T20:03:38Z</time>
      </trkpt>
      <trkpt lat="-27.861885" lon="-65.765805">
        <ele>1307.4</ele>
        <time>2018-08-19T20:03:44Z</time>
      </trkpt>
      <trkpt lat="-27.861815" lon="-65.765855">
        <ele>1307.9</ele>
        <time>2018-08-19T20:03:50Z</time>
      </trkpt>
      <trkpt lat="-27.861755" lon="-65.76589">
        <ele>1308.4</ele>
        <time>2018-08-19T20:03:56Z</time>
      </trkpt>
      <trkpt lat="-27.861685" lon="-65.76593">
        <ele>1309.0</ele>
        <time>2018-08-19T20:04:03Z</time>
      </trkpt>
      <trkpt lat="-27.861615" lon="-65.765975">
        <ele>1309.4</ele>
        <time>2018-08-19T20:04:10Z</time>
      </trkpt>
      <trkpt lat="-27.86155" lon="-65.766005">
        <ele>1309.9</ele>
        <time>2018-08-19T20:04:16Z</time>
      </trkpt>
      <trkpt lat="-27.861475" lon="-65.766045">
        <ele>1310.4</ele>
        <time>2018-08-19T20:04:23Z</time>
      </trkpt>
      <trkpt lat="-27.8614" lon="-65.76609">
        <ele>1310.9</ele>
        <time>2018-08-19T20:04:30Z</time>
      </trkpt>
      <trkpt lat="-27.861325" lon="-65.76613">
        <ele>1311.5</ele>
        <time>2018-08-19T20:04:37Z</time>
      </trkpt>
      <trkpt lat="-27.861255" lon="-65.766175">
        <ele>1312.0</ele>
        <time>2018-08-19T20:04:44Z</time>
      </trkpt>
      <trkpt lat="-27.861185" lon="-65.76621">
        <ele>1312.4</ele>
        <time>2018-08-19T20:04:51Z</time>
      </trkpt>
      <trkpt lat="-27.861135" lon="-65.76622333333333">
        <ele>1312.9</ele>
        <time>2018-08-19T20:04:58Z</time>
      </trkpt>
      <trkpt lat="-27.861065" lon="-65.76627">
        <ele>1313.6</ele>
        <time>2018-08-19T20:05:05Z</time>
      </trkpt>
      <trkpt lat="-27.861005" lon="-65.766315">
        <ele>1314.2</ele>
        <time>2018-08-19T20:05:12Z</time>
      </trkpt>
      <trkpt lat="-27.860945" lon="-65.766355">
        <ele>1314.7</ele>
        <time>2018-08-19T20:05:19Z</time>
      </trkpt>
      <trkpt lat="-27.860875" lon="-65.766395">
        <ele>1315.3</ele>
        <time>2018-08-19T20:05:26Z</time>
      </trkpt>
      <trkpt lat="-27.860805" lon="-65.766435">
        <ele>1315.5</ele>
        <time>2018-08-19T20:05:32Z</time>
      </trkpt>
      <trkpt lat="-27.860745" lon="-65.76648">
        <ele>1315.9</ele>
        <time>2018-08-19T20:05:39Z</time>
      </trkpt>
      <trkpt lat="-27.860685" lon="-65.76652">
        <ele>1316.5</ele>
        <time>2018-08-19T20:05:46Z</time>
      </trkpt>
      <trkpt lat="-27.860615" lon="-65.76657">
        <ele>1317.2</ele>
        <time>2018-08-19T20:05:53Z</time>
      </trkpt>
      <trkpt lat="-27.860555" lon="-65.766615">
        <ele>1317.8</ele>
        <time>2018-08-19T20:05:59Z</time>
      </trkpt>
      <trkpt lat="-27.860485" lon="-65.76666">
        <ele>1318.4</ele>
        <time>2018-08-19T20:06:06Z</time>
      </trkpt>
      <trkpt lat="-27.860425" lon="-65.76672">
        <ele>1318.8</ele>
        <time>2018-08-19T20:06:12Z</time>
      </trkpt>
      <trkpt lat="-27.860365" lon="-65.766785">
        <ele>1319.2</ele>
        <time>2018-08-19T20:06:18Z</time>
      </trkpt>
      <trkpt lat="-27.860305" lon="-65.766845">
        <ele>1319.5</ele>
        <time>2018-08-19T20:06:24Z</time>
      </trkpt>
      <trkpt lat="-27.860255" lon="-65.76689">
        <ele>1319.8</ele>
        <time>2018-08-19T20:06:30Z</time>
      </trkpt>
      <trkpt lat="-27.86021" lon="-65.76697">
        <ele>1320.0</ele>
        <time>2018-08-19T20:06:36Z</time>
      </trkpt>
      <trkpt lat="-27.86015" lon="-65.76703">
        <ele>1320.3</ele>
        <time>2018-08-19T20:06:42Z</time>
      </trkpt>
      <trkpt lat="-27.860105" lon="-65.767115">
        <ele>1320.5</ele>
        <time>2018-08-19T20:06:48Z</time>
      </trkpt>
      <trkpt lat="-27.860065" lon="-65.76719">
        <ele>1320.7</ele>
        <time>2018-08-19T20:06:53Z</time>
      </trkpt>
      <trkpt lat="-27.86003" lon="-65.767255">
        <ele>1321.1</ele>
        <time>2018-08-19T20:06:58Z</time>
      </trkpt>
      <trkpt lat="-27.85999" lon="-65.76734">
        <ele>1321.8</ele>
        <time>2018-08-19T20:07:05Z</time>
      </trkpt>
      <trkpt lat="-27.85995" lon="-65.76742">
        <ele>1322.2</ele>
        <time>2018-08-19T20:07:11Z</time>
      </trkpt>
      <trkpt lat="-27.85991" lon="-65.767495">
        <ele>1322.6</ele>
        <time>2018-08-19T20:07:16Z</time>
      </trkpt>
      <trkpt lat="-27.85987" lon="-65.767565">
        <ele>1323.1</ele>
        <time>2018-08-19T20:07:23Z</time>
      </trkpt>
      <trkpt lat="-27.85988" lon="-65.76756">
        <ele>1323.1</ele>
        <time>2018-08-19T20:07:28Z</time>
      </trkpt>
      <trkpt lat="-27.859845" lon="-65.767565">
        <ele>1323.8</ele>
        <time>2018-08-19T20:07:51Z</time>
      </trkpt>
      <trkpt lat="-27.859845" lon="-65.767565">
        <ele>1324.0</ele>
        <time>2018-08-19T20:07:52Z</time>
      </trkpt>
      <trkpt lat="-27.859865" lon="-65.767565">
        <ele>1324.5</ele>
        <time>2018-08-19T20:08:05Z</time>
      </trkpt>
      <trkpt lat="-27.859865" lon="-65.767565">
        <ele>1324.5</ele>
        <time>2018-08-19T20:08:06Z</time>
      </trkpt>
      <trkpt lat="-27.859865" lon="-65.767565">
        <ele>1324.8</ele>
        <time>2018-08-19T20:08:28Z</time>
      </trkpt>
      <trkpt lat="-27.859855" lon="-65.767565">
        <ele>1324.8</ele>
        <time>2018-08-19T20:08:29Z</time>
      </trkpt>
      <trkpt lat="-27.859845" lon="-65.767565">
        <ele>1325.1</ele>
        <time>2018-08-19T20:08:43Z</time>
      </trkpt>
      <trkpt lat="-27.859855" lon="-65.767565">
        <ele>1325.1</ele>
        <time>2018-08-19T20:08:44Z</time>
      </trkpt>
      <trkpt lat="-27.859865" lon="-65.767565">
        <ele>1325.0</ele>
        <time>2018-08-19T20:08:53Z</time>
      </trkpt>
      <trkpt lat="-27.859865" lon="-65.767565">
        <ele>1325.0</ele>
        <time>2018-08-19T20:08:54Z</time>
      </trkpt>
      <trkpt lat="-27.859855" lon="-65.76759">
        <ele>1325.6</ele>
        <time>2018-08-19T20:09:17Z</time>
      </trkpt>
      <trkpt lat="-27.859855" lon="-65.76759">
        <ele>1325.7</ele>
        <time>2018-08-19T20:09:18Z</time>
      </trkpt>
      <trkpt lat="-27.85983" lon="-65.767675">
        <ele>1326.1</ele>
        <time>2018-08-19T20:09:23Z</time>
      </trkpt>
      <trkpt lat="-27.859805" lon="-65.76775">
        <ele>1326.5</ele>
        <time>2018-08-19T20:09:27Z</time>
      </trkpt>
      <trkpt lat="-27.85977" lon="-65.767835">
        <ele>1326.9</ele>
        <time>2018-08-19T20:09:31Z</time>
      </trkpt>
      <trkpt lat="-27.85972" lon="-65.76793">
        <ele>1327.3</ele>
        <time>2018-08-19T20:09:35Z</time>
      </trkpt>
      <trkpt lat="-27.859665" lon="-65.768015">
        <ele>1327.8</ele>
        <time>2018-08-19T20:09:39Z</time>
      </trkpt>
      <trkpt lat="-27.85963" lon="-65.768095">
        <ele>1328.2</ele>
        <time>2018-08-19T20:09:43Z</time>
      </trkpt>
      <trkpt lat="-27.85958" lon="-65.768175">
        <ele>1328.6</ele>
        <time>2018-08-19T20:09:47Z</time>
      </trkpt>
      <trkpt lat="-27.85954" lon="-65.768255">
        <ele>1328.9</ele>
        <time>2018-08-19T20:09:51Z</time>
      </trkpt>
      <trkpt lat="-27.859485" lon="-65.768325">
        <ele>1329.2</ele>
        <time>2018-08-19T20:09:54Z</time>
      </trkpt>
      <trkpt lat="-27.85943" lon="-65.76839">
        <ele>1329.5</ele>
        <time>2018-08-19T20:09:57Z</time>
      </trkpt>
      <trkpt lat="-27.85938" lon="-65.768455">
        <ele>1329.7</ele>
        <time>2018-08-19T20:10:00Z</time>
      </trkpt>
      <trkpt lat="-27.85932" lon="-65.76851">
        <ele>1330.0</ele>
        <time>2018-08-19T20:10:03Z</time>
      </trkpt>
      <trkpt lat="-27.85925" lon="-65.76859">
        <ele>1330.1</ele>
        <time>2018-08-19T20:10:07Z</time>
      </trkpt>
      <trkpt lat="-27.859195" lon="-65.768635">
        <ele>1330.1</ele>
        <time>2018-08-19T20:10:10Z</time>
      </trkpt>
      <trkpt lat="-27.859125" lon="-65.768715">
        <ele>1330.1</ele>
        <time>2018-08-19T20:10:13Z</time>
      </trkpt>
      <trkpt lat="-27.85905" lon="-65.768775">
        <ele>1330.1</ele>
        <time>2018-08-19T20:10:16Z</time>
      </trkpt>
      <trkpt lat="-27.858975" lon="-65.76882">
        <ele>1330.2</ele>
        <time>2018-08-19T20:10:19Z</time>
      </trkpt>
      <trkpt lat="-27.858915" lon="-65.76886">
        <ele>1330.2</ele>
        <time>2018-08-19T20:10:22Z</time>
      </trkpt>
      <trkpt lat="-27.858835" lon="-65.7689">
        <ele>1330.4</ele>
        <time>2018-08-19T20:10:25Z</time>
      </trkpt>
      <trkpt lat="-27.85875" lon="-65.768915">
        <ele>1330.7</ele>
        <time>2018-08-19T20:10:28Z</time>
      </trkpt>
      <trkpt lat="-27.85867" lon="-65.76894">
        <ele>1330.9</ele>
        <time>2018-08-19T20:10:31Z</time>
      </trkpt>
      <trkpt lat="-27.858575" lon="-65.76896">
        <ele>1331.1</ele>
        <time>2018-08-19T20:10:34Z</time>
      </trkpt>
      <trkpt lat="-27.858485" lon="-65.76896">
        <ele>1331.4</ele>
        <time>2018-08-19T20:10:37Z</time>
      </trkpt>
      <trkpt lat="-27.8584" lon="-65.768985">
        <ele>1331.6</ele>
        <time>2018-08-19T20:10:40Z</time>
      </trkpt>
      <trkpt lat="-27.85831" lon="-65.769">
        <ele>1331.8</ele>
        <time>2018-08-19T20:10:43Z</time>
      </trkpt>
      <trkpt lat="-27.858215" lon="-65.769">
        <ele>1331.9</ele>
        <time>2018-08-19T20:10:46Z</time>
      </trkpt>
      <trkpt lat="-27.85811" lon="-65.769035">
        <ele>1332.0</ele>
        <time>2018-08-19T20:10:49Z</time>
      </trkpt>
      <trkpt lat="-27.858015" lon="-65.769045">
        <ele>1332.0</ele>
        <time>2018-08-19T20:10:52Z</time>
      </trkpt>
      <trkpt lat="-27.857915" lon="-65.769075">
        <ele>1332.1</ele>
        <time>2018-08-19T20:10:55Z</time>
      </trkpt>
      <trkpt lat="-27.857815" lon="-65.769085">
        <ele>1332.1</ele>
        <time>2018-08-19T20:10:58Z</time>
      </trkpt>
      <trkpt lat="-27.85772" lon="-65.76912">
        <ele>1332.1</ele>
        <time>2018-08-19T20:11:01Z</time>
      </trkpt>
      <trkpt lat="-27.857625" lon="-65.76913">
        <ele>1332.1</ele>
        <time>2018-08-19T20:11:04Z</time>
      </trkpt>
      <trkpt lat="-27.857525" lon="-65.769155">
        <ele>1332.1</ele>
        <time>2018-08-19T20:11:07Z</time>
      </trkpt>
      <trkpt lat="-27.85742" lon="-65.769165">
        <ele>1332.2</ele>
        <time>2018-08-19T20:11:10Z</time>
      </trkpt>
      <trkpt lat="-27.857325" lon="-65.76917166666667">
        <ele>1332.3</ele>
        <time>2018-08-19T20:11:13Z</time>
      </trkpt>
      <trkpt lat="-27.857225" lon="-65.76921">
        <ele>1332.4</ele>
        <time>2018-08-19T20:11:16Z</time>
      </trkpt>
      <trkpt lat="-27.857135" lon="-65.769225">
        <ele>1332.5</ele>
        <time>2018-08-19T20:11:19Z</time>
      </trkpt>
      <trkpt lat="-27.857035" lon="-65.76925">
        <ele>1332.5</ele>
        <time>2018-08-19T20:11:22Z</time>
      </trkpt>
      <trkpt lat="-27.856935" lon="-65.76927">
        <ele>1332.5</ele>
        <time>2018-08-19T20:11:25Z</time>
      </trkpt>
      <trkpt lat="-27.85684" lon="-65.769305">
        <ele>1332.5</ele>
        <time>2018-08-19T20:11:28Z</time>
      </trkpt>
      <trkpt lat="-27.856745" lon="-65.76931">
        <ele>1332.4</ele>
        <time>2018-08-19T20:11:31Z</time>
      </trkpt>
      <trkpt lat="-27.85665" lon="-65.769345">
        <ele>1332.3</ele>
        <time>2018-08-19T20:11:34Z</time>
      </trkpt>
      <trkpt lat="-27.85655" lon="-65.769355">
        <ele>1332.2</ele>
        <time>2018-08-19T20:11:37Z</time>
      </trkpt>
      <trkpt lat="-27.856455" lon="-65.76939">
        <ele>1332.2</ele>
        <time>2018-08-19T20:11:40Z</time>
      </trkpt>
      <trkpt lat="-27.85636" lon="-65.76939">
        <ele>1332.1</ele>
        <time>2018-08-19T20:11:43Z</time>
      </trkpt>
      <trkpt lat="-27.856265" lon="-65.769435">
        <ele>1331.9</ele>
        <time>2018-08-19T20:11:46Z</time>
      </trkpt>
      <trkpt lat="-27.85617" lon="-65.76945">
        <ele>1331.8</ele>
        <time>2018-08-19T20:11:49Z</time>
      </trkpt>
      <trkpt lat="-27.856085" lon="-65.769485">
        <ele>1331.7</ele>
        <time>2018-08-19T20:11:52Z</time>
      </trkpt>
      <trkpt lat="-27.856005" lon="-65.76953">
        <ele>1331.7</ele>
        <time>2018-08-19T20:11:55Z</time>
      </trkpt>
      <trkpt lat="-27.855935" lon="-65.76958">
        <ele>1331.6</ele>
        <time>2018-08-19T20:11:58Z</time>
      </trkpt>
      <trkpt lat="-27.855865" lon="-65.76962">
        <ele>1331.5</ele>
        <time>2018-08-19T20:12:01Z</time>
      </trkpt>
      <trkpt lat="-27.855795" lon="-65.769675">
        <ele>1331.2</ele>
        <time>2018-08-19T20:12:04Z</time>
      </trkpt>
      <trkpt lat="-27.85574" lon="-65.76972">
        <ele>1331.0</ele>
        <time>2018-08-19T20:12:07Z</time>
      </trkpt>
      <trkpt lat="-27.85568" lon="-65.769795">
        <ele>1330.8</ele>
        <time>2018-08-19T20:12:11Z</time>
      </trkpt>
      <trkpt lat="-27.855625" lon="-65.769845">
        <ele>1330.9</ele>
        <time>2018-08-19T20:12:15Z</time>
      </trkpt>
      <trkpt lat="-27.855585" lon="-65.769935">
        <ele>1331.3</ele>
        <time>2018-08-19T20:12:19Z</time>
      </trkpt>
      <trkpt lat="-27.85555" lon="-65.76998666666667">
        <ele>1331.6</ele>
        <time>2018-08-19T20:12:23Z</time>
      </trkpt>
      <trkpt lat="-27.8555" lon="-65.770095">
        <ele>1332.1</ele>
        <time>2018-08-19T20:12:28Z</time>
      </trkpt>
      <trkpt lat="-27.855475" lon="-65.77015166666666">
        <ele>1332.4</ele>
        <time>2018-08-19T20:12:32Z</time>
      </trkpt>
      <trkpt lat="-27.855445" lon="-65.770255">
        <ele>1332.8</ele>
        <time>2018-08-19T20:12:37Z</time>
      </trkpt>
      <trkpt lat="-27.85541" lon="-65.77034">
        <ele>1333.3</ele>
        <time>2018-08-19T20:12:42Z</time>
      </trkpt>
      <trkpt lat="-27.85539" lon="-65.77042">
        <ele>1333.6</ele>
        <time>2018-08-19T20:12:47Z</time>
      </trkpt>
      <trkpt lat="-27.855365" lon="-65.7705">
        <ele>1334.0</ele>
        <time>2018-08-19T20:12:52Z</time>
      </trkpt>
      <trkpt lat="-27.855339999999998" lon="-65.770565">
        <ele>1334.2</ele>
        <time>2018-08-19T20:12:57Z</time>
      </trkpt>
      <trkpt lat="-27.85531" lon="-65.77066">
        <ele>1334.3</ele>
        <time>2018-08-19T20:13:02Z</time>
      </trkpt>
      <trkpt lat="-27.855285" lon="-65.770745">
        <ele>1334.4</ele>
        <time>2018-08-19T20:13:08Z</time>
      </trkpt>
      <trkpt lat="-27.85525" lon="-65.77083">
        <ele>1334.6</ele>
        <time>2018-08-19T20:13:14Z</time>
      </trkpt>
      <trkpt lat="-27.855225" lon="-65.77093">
        <ele>1334.8</ele>
        <time>2018-08-19T20:13:20Z</time>
      </trkpt>
      <trkpt lat="-27.85519" lon="-65.771005">
        <ele>1335.1</ele>
        <time>2018-08-19T20:13:26Z</time>
      </trkpt>
      <trkpt lat="-27.855155" lon="-65.77108">
        <ele>1335.5</ele>
        <time>2018-08-19T20:13:32Z</time>
      </trkpt>
      <trkpt lat="-27.855135" lon="-65.771165">
        <ele>1335.9</ele>
        <time>2018-08-19T20:13:39Z</time>
      </trkpt>
      <trkpt lat="-27.8551" lon="-65.77124">
        <ele>1336.3</ele>
        <time>2018-08-19T20:13:45Z</time>
      </trkpt>
      <trkpt lat="-27.855065" lon="-65.771325">
        <ele>1336.9</ele>
        <time>2018-08-19T20:13:52Z</time>
      </trkpt>
      <trkpt lat="-27.855" lon="-65.77139">
        <ele>1337.2</ele>
        <time>2018-08-19T20:13:59Z</time>
      </trkpt>
      <trkpt lat="-27.854965" lon="-65.771465">
        <ele>1338.2</ele>
        <time>2018-08-19T20:14:04Z</time>
      </trkpt>
      <trkpt lat="-27.85492" lon="-65.77153">
        <ele>1339.3</ele>
        <time>2018-08-19T20:14:11Z</time>
      </trkpt>
      <trkpt lat="-27.85488" lon="-65.77159">
        <ele>1340.1</ele>
        <time>2018-08-19T20:14:17Z</time>
      </trkpt>
      <trkpt lat="-27.85483" lon="-65.771665">
        <ele>1341.3</ele>
        <time>2018-08-19T20:14:24Z</time>
      </trkpt>
      <trkpt lat="-27.85477" lon="-65.77172">
        <ele>1341.9</ele>
        <time>2018-08-19T20:14:31Z</time>
      </trkpt>
      <trkpt lat="-27.854705" lon="-65.77177">
        <ele>1342.7</ele>
        <time>2018-08-19T20:14:38Z</time>
      </trkpt>
      <trkpt lat="-27.854635000000002" lon="-65.77181">
        <ele>1343.3</ele>
        <time>2018-08-19T20:14:44Z</time>
      </trkpt>
      <trkpt lat="-27.854565" lon="-65.77185">
        <ele>1343.9</ele>
        <time>2018-08-19T20:14:50Z</time>
      </trkpt>
      <trkpt lat="-27.854485" lon="-65.77187">
        <ele>1345.0</ele>
        <time>2018-08-19T20:14:57Z</time>
      </trkpt>
      <trkpt lat="-27.854415" lon="-65.771895">
        <ele>1345.9</ele>
        <time>2018-08-19T20:15:03Z</time>
      </trkpt>
      <trkpt lat="-27.854325" lon="-65.771915">
        <ele>1347.0</ele>
        <time>2018-08-19T20:15:10Z</time>
      </trkpt>
      <trkpt lat="-27.85426" lon="-65.771945">
        <ele>1347.7</ele>
        <time>2018-08-19T20:15:15Z</time>
      </trkpt>
      <trkpt lat="-27.85418" lon="-65.771955">
        <ele>1348.4</ele>
        <time>2018-08-19T20:15:21Z</time>
      </trkpt>
      <trkpt lat="-27.8541" lon="-65.771995">
        <ele>1349.1</ele>
        <time>2018-08-19T20:15:27Z</time>
      </trkpt>
      <trkpt lat="-27.854015" lon="-65.77202">
        <ele>1350.1</ele>
        <time>2018-08-19T20:15:34Z</time>
      </trkpt>
      <trkpt lat="-27.853935" lon="-65.77204">
        <ele>1351.0</ele>
        <time>2018-08-19T20:15:40Z</time>
      </trkpt>
      <trkpt lat="-27.85386" lon="-65.77208">
        <ele>1351.7</ele>
        <time>2018-08-19T20:15:46Z</time>
      </trkpt>
      <trkpt lat="-27.85379" lon="-65.77211">
        <ele>1352.3</ele>
        <time>2018-08-19T20:15:51Z</time>
      </trkpt>
      <trkpt lat="-27.85372" lon="-65.77212">
        <ele>1352.7</ele>
        <time>2018-08-19T20:15:55Z</time>
      </trkpt>
      <trkpt lat="-27.853655" lon="-65.77217">
        <ele>1353.2</ele>
        <time>2018-08-19T20:16:00Z</time>
      </trkpt>
      <trkpt lat="-27.85359" lon="-65.772205">
        <ele>1353.6</ele>
        <time>2018-08-19T20:16:05Z</time>
      </trkpt>
      <trkpt lat="-27.85352" lon="-65.772255">
        <ele>1353.8</ele>
        <time>2018-08-19T20:16:10Z</time>
      </trkpt>
      <trkpt lat="-27.85346" lon="-65.7723">
        <ele>1353.7</ele>
        <time>2018-08-19T20:16:15Z</time>
      </trkpt>
      <trkpt lat="-27.8534" lon="-65.772345">
        <ele>1353.6</ele>
        <time>2018-08-19T20:16:20Z</time>
      </trkpt>
      <trkpt lat="-27.85334" lon="-65.772405">
        <ele>1353.6</ele>
        <time>2018-08-19T20:16:25Z</time>
      </trkpt>
      <trkpt lat="-27.85329" lon="-65.77247">
        <ele>1353.8</ele>
        <time>2018-08-19T20:16:30Z</time>
      </trkpt>
      <trkpt lat="-27.85323" lon="-65.772525">
        <ele>1354.3</ele>
        <time>2018-08-19T20:16:35Z</time>
      </trkpt>
      <trkpt lat="-27.853175" lon="-65.772575">
        <ele>1354.8</ele>
        <time>2018-08-19T20:16:39Z</time>
      </trkpt>
      <trkpt lat="-27.85313" lon="-65.772655">
        <ele>1355.2</ele>
        <time>2018-08-19T20:16:43Z</time>
      </trkpt>
      <trkpt lat="-27.85308" lon="-65.772715">
        <ele>1355.6</ele>
        <time>2018-08-19T20:16:48Z</time>
      </trkpt>
      <trkpt lat="-27.85303" lon="-65.7728">
        <ele>1356.0</ele>
        <time>2018-08-19T20:16:53Z</time>
      </trkpt>
      <trkpt lat="-27.85298" lon="-65.77288">
        <ele>1356.4</ele>
        <time>2018-08-19T20:16:58Z</time>
      </trkpt>
      <trkpt lat="-27.852935" lon="-65.772965">
        <ele>1356.7</ele>
        <time>2018-08-19T20:17:03Z</time>
      </trkpt>
      <trkpt lat="-27.85289" lon="-65.773025">
        <ele>1356.8</ele>
        <time>2018-08-19T20:17:07Z</time>
      </trkpt>
      <trkpt lat="-27.852855" lon="-65.773105">
        <ele>1357.0</ele>
        <time>2018-08-19T20:17:11Z</time>
      </trkpt>
      <trkpt lat="-27.852805" lon="-65.773165">
        <ele>1356.9</ele>
        <time>2018-08-19T20:17:15Z</time>
      </trkpt>
      <trkpt lat="-27.85277" lon="-65.77324">
        <ele>1356.6</ele>
        <time>2018-08-19T20:17:19Z</time>
      </trkpt>
      <trkpt lat="-27.852725" lon="-65.773315">
        <ele>1356.3</ele>
        <time>2018-08-19T20:17:23Z</time>
      </trkpt>
      <trkpt lat="-27.852675" lon="-65.77339">
        <ele>1355.8</ele>
        <time>2018-08-19T20:17:28Z</time>
      </trkpt>
      <trkpt lat="-27.852635" lon="-65.773475">
        <ele>1355.5</ele>
        <time>2018-08-19T20:17:32Z</time>
      </trkpt>
      <trkpt lat="-27.85258" lon="-65.77355">
        <ele>1355.4</ele>
        <time>2018-08-19T20:17:37Z</time>
      </trkpt>
      <trkpt lat="-27.852535" lon="-65.773615">
        <ele>1355.4</ele>
        <time>2018-08-19T20:17:40Z</time>
      </trkpt>
      <trkpt lat="-27.852495" lon="-65.773695">
        <ele>1355.4</ele>
        <time>2018-08-19T20:17:43Z</time>
      </trkpt>
      <trkpt lat="-27.85246" lon="-65.773785">
        <ele>1355.9</ele>
        <time>2018-08-19T20:17:47Z</time>
      </trkpt>
      <trkpt lat="-27.852425" lon="-65.773865">
        <ele>1356.4</ele>
        <time>2018-08-19T20:17:51Z</time>
      </trkpt>
      <trkpt lat="-27.85238" lon="-65.773925">
        <ele>1357.0</ele>
        <time>2018-08-19T20:17:55Z</time>
      </trkpt>
      <trkpt lat="-27.85233" lon="-65.77401">
        <ele>1357.4</ele>
        <time>2018-08-19T20:17:59Z</time>
      </trkpt>
      <trkpt lat="-27.85227" lon="-65.77409166666666">
        <ele>1357.9</ele>
        <time>2018-08-19T20:18:03Z</time>
      </trkpt>
      <trkpt lat="-27.85222" lon="-65.774175">
        <ele>1358.4</ele>
        <time>2018-08-19T20:18:07Z</time>
      </trkpt>
      <trkpt lat="-27.852155" lon="-65.774235">
        <ele>1359.2</ele>
        <time>2018-08-19T20:18:12Z</time>
      </trkpt>
      <trkpt lat="-27.85211" lon="-65.77431">
        <ele>1359.7</ele>
        <time>2018-08-19T20:18:15Z</time>
      </trkpt>
      <trkpt lat="-27.852045" lon="-65.77436">
        <ele>1360.3</ele>
        <time>2018-08-19T20:18:19Z</time>
      </trkpt>
      <trkpt lat="-27.85199" lon="-65.77442">
        <ele>1360.8</ele>
        <time>2018-08-19T20:18:23Z</time>
      </trkpt>
      <trkpt lat="-27.85193" lon="-65.774485">
        <ele>1361.0</ele>
        <time>2018-08-19T20:18:27Z</time>
      </trkpt>
      <trkpt lat="-27.851855" lon="-65.774545">
        <ele>1361.1</ele>
        <time>2018-08-19T20:18:31Z</time>
      </trkpt>
      <trkpt lat="-27.851775" lon="-65.7746">
        <ele>1361.3</ele>
        <time>2018-08-19T20:18:35Z</time>
      </trkpt>
      <trkpt lat="-27.8517" lon="-65.774645">
        <ele>1361.3</ele>
        <time>2018-08-19T20:18:39Z</time>
      </trkpt>
      <trkpt lat="-27.85163" lon="-65.77471">
        <ele>1361.5</ele>
        <time>2018-08-19T20:18:43Z</time>
      </trkpt>
      <trkpt lat="-27.85156" lon="-65.77477">
        <ele>1361.8</ele>
        <time>2018-08-19T20:18:47Z</time>
      </trkpt>
      <trkpt lat="-27.851495" lon="-65.774825">
        <ele>1362.0</ele>
        <time>2018-08-19T20:18:51Z</time>
      </trkpt>
      <trkpt lat="-27.851425" lon="-65.77486166666667">
        <ele>1362.3</ele>
        <time>2018-08-19T20:18:55Z</time>
      </trkpt>
      <trkpt lat="-27.851355" lon="-65.774935">
        <ele>1362.8</ele>
        <time>2018-08-19T20:18:59Z</time>
      </trkpt>
      <trkpt lat="-27.8513" lon="-65.77499">
        <ele>1363.3</ele>
        <time>2018-08-19T20:19:03Z</time>
      </trkpt>
      <trkpt lat="-27.85123" lon="-65.775065">
        <ele>1363.6</ele>
        <time>2018-08-19T20:19:07Z</time>
      </trkpt>
      <trkpt lat="-27.851165" lon="-65.775125">
        <ele>1363.8</ele>
        <time>2018-08-19T20:19:11Z</time>
      </trkpt>
      <trkpt lat="-27.851105" lon="-65.77517">
        <ele>1364.3</ele>
        <time>2018-08-19T20:19:16Z</time>
      </trkpt>
      <trkpt lat="-27.851045" lon="-65.775245">
        <ele>1365.1</ele>
        <time>2018-08-19T20:19:22Z</time>
      </trkpt>
      <trkpt lat="-27.85098" lon="-65.7753">
        <ele>1365.9</ele>
        <time>2018-08-19T20:19:26Z</time>
      </trkpt>
      <trkpt lat="-27.850935" lon="-65.775375">
        <ele>1366.7</ele>
        <time>2018-08-19T20:19:30Z</time>
      </trkpt>
      <trkpt lat="-27.850885" lon="-65.775445">
        <ele>1367.3</ele>
        <time>2018-08-19T20:19:34Z</time>
      </trkpt>
      <trkpt lat="-27.85083" lon="-65.775515">
        <ele>1367.9</ele>
        <time>2018-08-19T20:19:39Z</time>
      </trkpt>
      <trkpt lat="-27.85078" lon="-65.775575">
        <ele>1368.4</ele>
        <time>2018-08-19T20:19:44Z</time>
      </trkpt>
      <trkpt lat="-27.850715" lon="-65.77565">
        <ele>1369.0</ele>
        <time>2018-08-19T20:19:49Z</time>
      </trkpt>
      <trkpt lat="-27.85066" lon="-65.775715">
        <ele>1369.4</ele>
        <time>2018-08-19T20:19:54Z</time>
      </trkpt>
      <trkpt lat="-27.85061" lon="-65.77578">
        <ele>1369.8</ele>
        <time>2018-08-19T20:19:59Z</time>
      </trkpt>
      <trkpt lat="-27.850555" lon="-65.775835">
        <ele>1369.9</ele>
        <time>2018-08-19T20:20:03Z</time>
      </trkpt>
      <trkpt lat="-27.85049" lon="-65.775895">
        <ele>1369.7</ele>
        <time>2018-08-19T20:20:08Z</time>
      </trkpt>
      <trkpt lat="-27.85043" lon="-65.775975">
        <ele>1369.3</ele>
        <time>2018-08-19T20:20:13Z</time>
      </trkpt>
      <trkpt lat="-27.85037" lon="-65.776025">
        <ele>1368.8</ele>
        <time>2018-08-19T20:20:18Z</time>
      </trkpt>
      <trkpt lat="-27.850315" lon="-65.77611">
        <ele>1368.5</ele>
        <time>2018-08-19T20:20:23Z</time>
      </trkpt>
      <trkpt lat="-27.85025" lon="-65.776165">
        <ele>1368.6</ele>
        <time>2018-08-19T20:20:29Z</time>
      </trkpt>
      <trkpt lat="-27.850175" lon="-65.776205">
        <ele>1369.0</ele>
        <time>2018-08-19T20:20:34Z</time>
      </trkpt>
      <trkpt lat="-27.85011" lon="-65.77625">
        <ele>1369.4</ele>
        <time>2018-08-19T20:20:39Z</time>
      </trkpt>
      <trkpt lat="-27.85004" lon="-65.776285">
        <ele>1369.8</ele>
        <time>2018-08-19T20:20:44Z</time>
      </trkpt>
      <trkpt lat="-27.84997" lon="-65.776345">
        <ele>1370.0</ele>
        <time>2018-08-19T20:20:49Z</time>
      </trkpt>
      <trkpt lat="-27.8499" lon="-65.77638">
        <ele>1370.2</ele>
        <time>2018-08-19T20:20:55Z</time>
      </trkpt>
      <trkpt lat="-27.849825" lon="-65.77639">
        <ele>1370.4</ele>
        <time>2018-08-19T20:21:00Z</time>
      </trkpt>
      <trkpt lat="-27.849755000000002" lon="-65.776425">
        <ele>1370.8</ele>
        <time>2018-08-19T20:21:05Z</time>
      </trkpt>
      <trkpt lat="-27.84968" lon="-65.776455">
        <ele>1371.3</ele>
        <time>2018-08-19T20:21:10Z</time>
      </trkpt>
      <trkpt lat="-27.849605" lon="-65.776475">
        <ele>1371.7</ele>
        <time>2018-08-19T20:21:15Z</time>
      </trkpt>
      <trkpt lat="-27.849525" lon="-65.776505">
        <ele>1371.7</ele>
        <time>2018-08-19T20:21:20Z</time>
      </trkpt>
      <trkpt lat="-27.849455" lon="-65.776515">
        <ele>1372.3</ele>
        <time>2018-08-19T20:21:26Z</time>
      </trkpt>
      <trkpt lat="-27.849375" lon="-65.77654">
        <ele>1373.1</ele>
        <time>2018-08-19T20:21:33Z</time>
      </trkpt>
      <trkpt lat="-27.849295" lon="-65.77656">
        <ele>1373.8</ele>
        <time>2018-08-19T20:21:39Z</time>
      </trkpt>
      <trkpt lat="-27.84922" lon="-65.77657">
        <ele>1374.4</ele>
        <time>2018-08-19T20:21:44Z</time>
      </trkpt>
      <trkpt lat="-27.84914" lon="-65.776595">
        <ele>1375.1</ele>
        <time>2018-08-19T20:21:50Z</time>
      </trkpt>
      <trkpt lat="-27.849065" lon="-65.776615">
        <ele>1375.7</ele>
        <time>2018-08-19T20:21:55Z</time>
      </trkpt>
      <trkpt lat="-27.848975" lon="-65.776645">
        <ele>1376.4</ele>
        <time>2018-08-19T20:22:01Z</time>
      </trkpt>
      <trkpt lat="-27.8489" lon="-65.776655">
        <ele>1377.0</ele>
        <time>2018-08-19T20:22:07Z</time>
      </trkpt>
      <trkpt lat="-27.84883" lon="-65.77668">
        <ele>1377.5</ele>
        <time>2018-08-19T20:22:13Z</time>
      </trkpt>
      <trkpt lat="-27.848765" lon="-65.776695">
        <ele>1377.9</ele>
        <time>2018-08-19T20:22:18Z</time>
      </trkpt>
      <trkpt lat="-27.848685" lon="-65.77672">
        <ele>1378.4</ele>
        <time>2018-08-19T20:22:24Z</time>
      </trkpt>
      <trkpt lat="-27.848605" lon="-65.77674">
        <ele>1378.7</ele>
        <time>2018-08-19T20:22:30Z</time>
      </trkpt>
      <trkpt lat="-27.84853" lon="-65.776765">
        <ele>1379.1</ele>
        <time>2018-08-19T20:22:36Z</time>
      </trkpt>
      <trkpt lat="-27.84845" lon="-65.776785">
        <ele>1379.6</ele>
        <time>2018-08-19T20:22:42Z</time>
      </trkpt>
      <trkpt lat="-27.848365" lon="-65.776795">
        <ele>1380.0</ele>
        <time>2018-08-19T20:22:47Z</time>
      </trkpt>
      <trkpt lat="-27.848305" lon="-65.77682">
        <ele>1380.5</ele>
        <time>2018-08-19T20:22:53Z</time>
      </trkpt>
      <trkpt lat="-27.848225" lon="-65.77686">
        <ele>1381.0</ele>
        <time>2018-08-19T20:22:59Z</time>
      </trkpt>
      <trkpt lat="-27.848155" lon="-65.77688">
        <ele>1381.6</ele>
        <time>2018-08-19T20:23:05Z</time>
      </trkpt>
      <trkpt lat="-27.848085" lon="-65.77688">
        <ele>1382.1</ele>
        <time>2018-08-19T20:23:11Z</time>
      </trkpt>
      <trkpt lat="-27.84801" lon="-65.77692">
        <ele>1382.5</ele>
        <time>2018-08-19T20:23:17Z</time>
      </trkpt>
      <trkpt lat="-27.84793" lon="-65.776925">
        <ele>1383.1</ele>
        <time>2018-08-19T20:23:24Z</time>
      </trkpt>
      <trkpt lat="-27.847845" lon="-65.776965">
        <ele>1383.6</ele>
        <time>2018-08-19T20:23:31Z</time>
      </trkpt>
      <trkpt lat="-27.847775" lon="-65.776965">
        <ele>1384.0</ele>
        <time>2018-08-19T20:23:38Z</time>
      </trkpt>
      <trkpt lat="-27.84769" lon="-65.77701">
        <ele>1384.4</ele>
        <time>2018-08-19T20:23:45Z</time>
      </trkpt>
      <trkpt lat="-27.84762" lon="-65.777035">
        <ele>1385.1</ele>
        <time>2018-08-19T20:23:52Z</time>
      </trkpt>
      <trkpt lat="-27.847555" lon="-65.777045">
        <ele>1385.6</ele>
        <time>2018-08-19T20:23:58Z</time>
      </trkpt>
      <trkpt lat="-27.847475" lon="-65.77709">
        <ele>1386.3</ele>
        <time>2018-08-19T20:24:04Z</time>
      </trkpt>
      <trkpt lat="-27.8474" lon="-65.777105">
        <ele>1387.1</ele>
        <time>2018-08-19T20:24:10Z</time>
      </trkpt>
      <trkpt lat="-27.84732" lon="-65.77715">
        <ele>1387.9</ele>
        <time>2018-08-19T20:24:17Z</time>
      </trkpt>
      <trkpt lat="-27.847255" lon="-65.77719">
        <ele>1388.5</ele>
        <time>2018-08-19T20:24:23Z</time>
      </trkpt>
      <trkpt lat="-27.84719" lon="-65.777235">
        <ele>1388.6</ele>
        <time>2018-08-19T20:24:28Z</time>
      </trkpt>
      <trkpt lat="-27.84712" lon="-65.7773">
        <ele>1388.5</ele>
        <time>2018-08-19T20:24:34Z</time>
      </trkpt>
      <trkpt lat="-27.84706" lon="-65.777345">
        <ele>1388.5</ele>
        <time>2018-08-19T20:24:40Z</time>
      </trkpt>
      <trkpt lat="-27.846995" lon="-65.777405">
        <ele>1388.6</ele>
        <time>2018-08-19T20:24:45Z</time>
      </trkpt>
      <trkpt lat="-27.84693" lon="-65.77746">
        <ele>1388.8</ele>
        <time>2018-08-19T20:24:51Z</time>
      </trkpt>
      <trkpt lat="-27.846875" lon="-65.777525">
        <ele>1389.0</ele>
        <time>2018-08-19T20:24:57Z</time>
      </trkpt>
      <trkpt lat="-27.846825" lon="-65.77759">
        <ele>1389.2</ele>
        <time>2018-08-19T20:25:02Z</time>
      </trkpt>
      <trkpt lat="-27.84677" lon="-65.777665">
        <ele>1389.5</ele>
        <time>2018-08-19T20:25:08Z</time>
      </trkpt>
      <trkpt lat="-27.84672" lon="-65.777725">
        <ele>1389.7</ele>
        <time>2018-08-19T20:25:13Z</time>
      </trkpt>
      <trkpt lat="-27.84667" lon="-65.777825">
        <ele>1389.9</ele>
        <time>2018-08-19T20:25:18Z</time>
      </trkpt>
      <trkpt lat="-27.846625" lon="-65.77789">
        <ele>1390.0</ele>
        <time>2018-08-19T20:25:23Z</time>
      </trkpt>
      <trkpt lat="-27.846585" lon="-65.77795">
        <ele>1390.2</ele>
        <time>2018-08-19T20:25:28Z</time>
      </trkpt>
      <trkpt lat="-27.846545" lon="-65.77803">
        <ele>1390.2</ele>
        <time>2018-08-19T20:25:33Z</time>
      </trkpt>
      <trkpt lat="-27.846515" lon="-65.778125">
        <ele>1390.3</ele>
        <time>2018-08-19T20:25:38Z</time>
      </trkpt>
      <trkpt lat="-27.84646" lon="-65.7782">
        <ele>1391.1</ele>
        <time>2018-08-19T20:25:44Z</time>
      </trkpt>
      <trkpt lat="-27.84642" lon="-65.778255">
        <ele>1391.7</ele>
        <time>2018-08-19T20:25:48Z</time>
      </trkpt>
      <trkpt lat="-27.84636" lon="-65.77834">
        <ele>1392.3</ele>
        <time>2018-08-19T20:25:53Z</time>
      </trkpt>
      <trkpt lat="-27.846325" lon="-65.778425">
        <ele>1392.6</ele>
        <time>2018-08-19T20:25:57Z</time>
      </trkpt>
      <trkpt lat="-27.84629" lon="-65.77848666666667">
        <ele>1393.1</ele>
        <time>2018-08-19T20:26:03Z</time>
      </trkpt>
      <trkpt lat="-27.846245" lon="-65.778575">
        <ele>1393.5</ele>
        <time>2018-08-19T20:26:08Z</time>
      </trkpt>
      <trkpt lat="-27.846195" lon="-65.77865">
        <ele>1393.6</ele>
        <time>2018-08-19T20:26:13Z</time>
      </trkpt>
      <trkpt lat="-27.846135" lon="-65.77871">
        <ele>1394.0</ele>
        <time>2018-08-19T20:26:18Z</time>
      </trkpt>
      <trkpt lat="-27.84608" lon="-65.77879">
        <ele>1394.0</ele>
        <time>2018-08-19T20:26:23Z</time>
      </trkpt>
      <trkpt lat="-27.84602" lon="-65.77885">
        <ele>1394.1</ele>
        <time>2018-08-19T20:26:28Z</time>
      </trkpt>
      <trkpt lat="-27.84596" lon="-65.77892">
        <ele>1394.1</ele>
        <time>2018-08-19T20:26:33Z</time>
      </trkpt>
      <trkpt lat="-27.845895" lon="-65.778975">
        <ele>1394.1</ele>
        <time>2018-08-19T20:26:38Z</time>
      </trkpt>
      <trkpt lat="-27.845825" lon="-65.779015">
        <ele>1394.4</ele>
        <time>2018-08-19T20:26:44Z</time>
      </trkpt>
      <trkpt lat="-27.845755" lon="-65.779065">
        <ele>1394.8</ele>
        <time>2018-08-19T20:26:48Z</time>
      </trkpt>
      <trkpt lat="-27.845685" lon="-65.7791">
        <ele>1395.2</ele>
        <time>2018-08-19T20:26:52Z</time>
      </trkpt>
      <trkpt lat="-27.84562" lon="-65.77914">
        <ele>1395.6</ele>
        <time>2018-08-19T20:26:56Z</time>
      </trkpt>
      <trkpt lat="-27.84554" lon="-65.77916">
        <ele>1396.4</ele>
        <time>2018-08-19T20:27:01Z</time>
      </trkpt>
      <trkpt lat="-27.84546" lon="-65.7792">
        <ele>1397.3</ele>
        <time>2018-08-19T20:27:05Z</time>
      </trkpt>
      <trkpt lat="-27.84539" lon="-65.779225">
        <ele>1398.0</ele>
        <time>2018-08-19T20:27:09Z</time>
      </trkpt>
      <trkpt lat="-27.84532" lon="-65.77924">
        <ele>1398.5</ele>
        <time>2018-08-19T20:27:13Z</time>
      </trkpt>
      <trkpt lat="-27.84525" lon="-65.77929">
        <ele>1398.9</ele>
        <time>2018-08-19T20:27:17Z</time>
      </trkpt>
      <trkpt lat="-27.84518" lon="-65.779315">
        <ele>1399.1</ele>
        <time>2018-08-19T20:27:21Z</time>
      </trkpt>
      <trkpt lat="-27.845105" lon="-65.779345">
        <ele>1399.2</ele>
        <time>2018-08-19T20:27:25Z</time>
      </trkpt>
      <trkpt lat="-27.845035" lon="-65.77938">
        <ele>1399.1</ele>
        <time>2018-08-19T20:27:29Z</time>
      </trkpt>
      <trkpt lat="-27.84496" lon="-65.779385">
        <ele>1398.9</ele>
        <time>2018-08-19T20:27:33Z</time>
      </trkpt>
      <trkpt lat="-27.84488" lon="-65.77943">
        <ele>1398.7</ele>
        <time>2018-08-19T20:27:38Z</time>
      </trkpt>
      <trkpt lat="-27.844805" lon="-65.77946">
        <ele>1398.7</ele>
        <time>2018-08-19T20:27:42Z</time>
      </trkpt>
      <trkpt lat="-27.844735" lon="-65.77947">
        <ele>1398.6</ele>
        <time>2018-08-19T20:27:46Z</time>
      </trkpt>
      <trkpt lat="-27.844655" lon="-65.779505">
        <ele>1398.6</ele>
        <time>2018-08-19T20:27:50Z</time>
      </trkpt>
      <trkpt lat="-27.84458" lon="-65.779525">
        <ele>1398.5</ele>
        <time>2018-08-19T20:27:54Z</time>
      </trkpt>
      <trkpt lat="-27.84451" lon="-65.77954">
        <ele>1398.4</ele>
        <time>2018-08-19T20:27:58Z</time>
      </trkpt>
      <trkpt lat="-27.844425" lon="-65.77956">
        <ele>1398.2</ele>
        <time>2018-08-19T20:28:02Z</time>
      </trkpt>
      <trkpt lat="-27.844355" lon="-65.77956">
        <ele>1398.4</ele>
        <time>2018-08-19T20:28:07Z</time>
      </trkpt>
      <trkpt lat="-27.844275" lon="-65.77957">
        <ele>1399.0</ele>
        <time>2018-08-19T20:28:12Z</time>
      </trkpt>
      <trkpt lat="-27.844195" lon="-65.77959">
        <ele>1399.6</ele>
        <time>2018-08-19T20:28:17Z</time>
      </trkpt>
      <trkpt lat="-27.84412" lon="-65.77959">
        <ele>1400.2</ele>
        <time>2018-08-19T20:28:22Z</time>
      </trkpt>
      <trkpt lat="-27.84404" lon="-65.779605">
        <ele>1401.1</ele>
        <time>2018-08-19T20:28:28Z</time>
      </trkpt>
      <trkpt lat="-27.84397" lon="-65.77961">
        <ele>1401.8</ele>
        <time>2018-08-19T20:28:33Z</time>
      </trkpt>
      <trkpt lat="-27.843885" lon="-65.77961">
        <ele>1402.6</ele>
        <time>2018-08-19T20:28:39Z</time>
      </trkpt>
      <trkpt lat="-27.84381" lon="-65.779635">
        <ele>1403.2</ele>
        <time>2018-08-19T20:28:43Z</time>
      </trkpt>
      <trkpt lat="-27.84373" lon="-65.779645">
        <ele>1404.0</ele>
        <time>2018-08-19T20:28:49Z</time>
      </trkpt>
      <trkpt lat="-27.843645" lon="-65.779655">
        <ele>1404.8</ele>
        <time>2018-08-19T20:28:55Z</time>
      </trkpt>
      <trkpt lat="-27.84357" lon="-65.77968">
        <ele>1405.3</ele>
        <time>2018-08-19T20:29:00Z</time>
      </trkpt>
      <trkpt lat="-27.84349" lon="-65.77969">
        <ele>1405.8</ele>
        <time>2018-08-19T20:29:05Z</time>
      </trkpt>
      <trkpt lat="-27.843405" lon="-65.779695">
        <ele>1406.4</ele>
        <time>2018-08-19T20:29:11Z</time>
      </trkpt>
      <trkpt lat="-27.843335" lon="-65.77972">
        <ele>1406.8</ele>
        <time>2018-08-19T20:29:15Z</time>
      </trkpt>
      <trkpt lat="-27.84325" lon="-65.77975">
        <ele>1407.1</ele>
        <time>2018-08-19T20:29:20Z</time>
      </trkpt>
      <trkpt lat="-27.84317" lon="-65.77977">
        <ele>1407.5</ele>
        <time>2018-08-19T20:29:25Z</time>
      </trkpt>
      <trkpt lat="-27.8431" lon="-65.77979500000001">
        <ele>1407.9</ele>
        <time>2018-08-19T20:29:31Z</time>
      </trkpt>
      <trkpt lat="-27.84302" lon="-65.779825">
        <ele>1408.3</ele>
        <time>2018-08-19T20:29:37Z</time>
      </trkpt>
      <trkpt lat="-27.84294" lon="-65.77986">
        <ele>1408.6</ele>
        <time>2018-08-19T20:29:42Z</time>
      </trkpt>
      <trkpt lat="-27.842875" lon="-65.7799">
        <ele>1409.0</ele>
        <time>2018-08-19T20:29:47Z</time>
      </trkpt>
      <trkpt lat="-27.8428" lon="-65.77992">
        <ele>1409.5</ele>
        <time>2018-08-19T20:29:53Z</time>
      </trkpt>
      <trkpt lat="-27.84273" lon="-65.779965">
        <ele>1409.9</ele>
        <time>2018-08-19T20:29:59Z</time>
      </trkpt>
      <trkpt lat="-27.842675" lon="-65.78003">
        <ele>1410.0</ele>
        <time>2018-08-19T20:30:05Z</time>
      </trkpt>
      <trkpt lat="-27.84261" lon="-65.780075">
        <ele>1410.1</ele>
        <time>2018-08-19T20:30:11Z</time>
      </trkpt>
      <trkpt lat="-27.842555" lon="-65.78014">
        <ele>1410.2</ele>
        <time>2018-08-19T20:30:18Z</time>
      </trkpt>
      <trkpt lat="-27.842495" lon="-65.78019">
        <ele>1410.4</ele>
        <time>2018-08-19T20:30:24Z</time>
      </trkpt>
      <trkpt lat="-27.84244" lon="-65.78027">
        <ele>1410.6</ele>
        <time>2018-08-19T20:30:31Z</time>
      </trkpt>
      <trkpt lat="-27.842385" lon="-65.78033">
        <ele>1410.8</ele>
        <time>2018-08-19T20:30:38Z</time>
      </trkpt>
      <trkpt lat="-27.842345" lon="-65.780415">
        <ele>1411.2</ele>
        <time>2018-08-19T20:30:45Z</time>
      </trkpt>
      <trkpt lat="-27.842295" lon="-65.78049">
        <ele>1412.3</ele>
        <time>2018-08-19T20:30:52Z</time>
      </trkpt>
      <trkpt lat="-27.84225" lon="-65.780555">
        <ele>1413.1</ele>
        <time>2018-08-19T20:30:59Z</time>
      </trkpt>
      <trkpt lat="-27.84221" lon="-65.78063">
        <ele>1413.9</ele>
        <time>2018-08-19T20:31:05Z</time>
      </trkpt>
      <trkpt lat="-27.842175" lon="-65.780705">
        <ele>1414.6</ele>
        <time>2018-08-19T20:31:10Z</time>
      </trkpt>
      <trkpt lat="-27.842135" lon="-65.78077">
        <ele>1415.0</ele>
        <time>2018-08-19T20:31:16Z</time>
      </trkpt>
      <trkpt lat="-27.84209" lon="-65.780865">
        <ele>1415.4</ele>
        <time>2018-08-19T20:31:21Z</time>
      </trkpt>
      <trkpt lat="-27.842035" lon="-65.78094">
        <ele>1415.8</ele>
        <time>2018-08-19T20:31:27Z</time>
      </trkpt>
      <trkpt lat="-27.841985" lon="-65.780985">
        <ele>1416.0</ele>
        <time>2018-08-19T20:31:32Z</time>
      </trkpt>
      <trkpt lat="-27.841935" lon="-65.78106">
        <ele>1416.1</ele>
        <time>2018-08-19T20:31:37Z</time>
      </trkpt>
      <trkpt lat="-27.841875" lon="-65.78112">
        <ele>1416.4</ele>
        <time>2018-08-19T20:31:43Z</time>
      </trkpt>
      <trkpt lat="-27.841815" lon="-65.781175">
        <ele>1417.0</ele>
        <time>2018-08-19T20:31:49Z</time>
      </trkpt>
      <trkpt lat="-27.841755" lon="-65.78121">
        <ele>1417.9</ele>
        <time>2018-08-19T20:31:55Z</time>
      </trkpt>
      <trkpt lat="-27.84169" lon="-65.78126">
        <ele>1419.0</ele>
        <time>2018-08-19T20:32:02Z</time>
      </trkpt>
      <trkpt lat="-27.841615" lon="-65.781295">
        <ele>1420.2</ele>
        <time>2018-08-19T20:32:09Z</time>
      </trkpt>
      <trkpt lat="-27.841545" lon="-65.781315">
        <ele>1421.1</ele>
        <time>2018-08-19T20:32:15Z</time>
      </trkpt>
      <trkpt lat="-27.84147" lon="-65.781355">
        <ele>1422.1</ele>
        <time>2018-08-19T20:32:22Z</time>
      </trkpt>
      <trkpt lat="-27.841395" lon="-65.78135666666667">
        <ele>1422.9</ele>
        <time>2018-08-19T20:32:28Z</time>
      </trkpt>
      <trkpt lat="-27.841315" lon="-65.781395">
        <ele>1423.6</ele>
        <time>2018-08-19T20:32:35Z</time>
      </trkpt>
      <trkpt lat="-27.841235" lon="-65.7814">
        <ele>1424.3</ele>
        <time>2018-08-19T20:32:41Z</time>
      </trkpt>
      <trkpt lat="-27.84116" lon="-65.78143">
        <ele>1424.7</ele>
        <time>2018-08-19T20:32:46Z</time>
      </trkpt>
      <trkpt lat="-27.84109" lon="-65.78144">
        <ele>1425.1</ele>
        <time>2018-08-19T20:32:52Z</time>
      </trkpt>
      <trkpt lat="-27.841005" lon="-65.781475">
        <ele>1425.4</ele>
        <time>2018-08-19T20:32:58Z</time>
      </trkpt>
      <trkpt lat="-27.840925" lon="-65.781485">
        <ele>1426.1</ele>
        <time>2018-08-19T20:33:05Z</time>
      </trkpt>
      <trkpt lat="-27.840845" lon="-65.781495">
        <ele>1427.1</ele>
        <time>2018-08-19T20:33:11Z</time>
      </trkpt>
      <trkpt lat="-27.84076" lon="-65.78152">
        <ele>1428.1</ele>
        <time>2018-08-19T20:33:18Z</time>
      </trkpt>
      <trkpt lat="-27.840695" lon="-65.78153">
        <ele>1429.0</ele>
        <time>2018-08-19T20:33:24Z</time>
      </trkpt>
      <trkpt lat="-27.84062" lon="-65.78154">
        <ele>1429.7</ele>
        <time>2018-08-19T20:33:29Z</time>
      </trkpt>
      <trkpt lat="-27.840545" lon="-65.78157">
        <ele>1430.3</ele>
        <time>2018-08-19T20:33:34Z</time>
      </trkpt>
      <trkpt lat="-27.84047" lon="-65.78158">
        <ele>1430.8</ele>
        <time>2018-08-19T20:33:38Z</time>
      </trkpt>
      <trkpt lat="-27.84039" lon="-65.781605">
        <ele>1431.3</ele>
        <time>2018-08-19T20:33:43Z</time>
      </trkpt>
      <trkpt lat="-27.84031" lon="-65.781625">
        <ele>1431.8</ele>
        <time>2018-08-19T20:33:46Z</time>
      </trkpt>
      <trkpt lat="-27.840225" lon="-65.78165">
        <ele>1432.4</ele>
        <time>2018-08-19T20:33:50Z</time>
      </trkpt>
      <trkpt lat="-27.840145" lon="-65.781665">
        <ele>1433.0</ele>
        <time>2018-08-19T20:33:55Z</time>
      </trkpt>
      <trkpt lat="-27.84007" lon="-65.78169">
        <ele>1433.5</ele>
        <time>2018-08-19T20:33:59Z</time>
      </trkpt>
      <trkpt lat="-27.84" lon="-65.78171">
        <ele>1433.7</ele>
        <time>2018-08-19T20:34:03Z</time>
      </trkpt>
      <trkpt lat="-27.83992" lon="-65.78172">
        <ele>1434.1</ele>
        <time>2018-08-19T20:34:07Z</time>
      </trkpt>
      <trkpt lat="-27.83984" lon="-65.781735">
        <ele>1434.5</ele>
        <time>2018-08-19T20:34:11Z</time>
      </trkpt>
      <trkpt lat="-27.83976" lon="-65.781755">
        <ele>1434.9</ele>
        <time>2018-08-19T20:34:15Z</time>
      </trkpt>
      <trkpt lat="-27.839685" lon="-65.78176500000001">
        <ele>1435.2</ele>
        <time>2018-08-19T20:34:19Z</time>
      </trkpt>
      <trkpt lat="-27.8396" lon="-65.781795">
        <ele>1435.4</ele>
        <time>2018-08-19T20:34:23Z</time>
      </trkpt>
      <trkpt lat="-27.83952" lon="-65.781805">
        <ele>1435.4</ele>
        <time>2018-08-19T20:34:27Z</time>
      </trkpt>
      <trkpt lat="-27.83944" lon="-65.78184">
        <ele>1435.5</ele>
        <time>2018-08-19T20:34:33Z</time>
      </trkpt>
      <trkpt lat="-27.83936" lon="-65.78185">
        <ele>1435.4</ele>
        <time>2018-08-19T20:34:37Z</time>
      </trkpt>
      <trkpt lat="-27.839275" lon="-65.78188">
        <ele>1435.3</ele>
        <time>2018-08-19T20:34:42Z</time>
      </trkpt>
      <trkpt lat="-27.839199999999998" lon="-65.78189">
        <ele>1435.1</ele>
        <time>2018-08-19T20:34:46Z</time>
      </trkpt>
      <trkpt lat="-27.839115" lon="-65.78193">
        <ele>1434.9</ele>
        <time>2018-08-19T20:34:50Z</time>
      </trkpt>
      <trkpt lat="-27.839025" lon="-65.781935">
        <ele>1435.0</ele>
        <time>2018-08-19T20:34:53Z</time>
      </trkpt>
      <trkpt lat="-27.83893" lon="-65.78197">
        <ele>1435.2</ele>
        <time>2018-08-19T20:34:56Z</time>
      </trkpt>
      <trkpt lat="-27.838835" lon="-65.78202">
        <ele>1435.3</ele>
        <time>2018-08-19T20:34:59Z</time>
      </trkpt>
      <trkpt lat="-27.838745" lon="-65.782055">
        <ele>1435.2</ele>
        <time>2018-08-19T20:35:02Z</time>
      </trkpt>
      <trkpt lat="-27.83866" lon="-65.782095">
        <ele>1435.2</ele>
        <time>2018-08-19T20:35:05Z</time>
      </trkpt>
      <trkpt lat="-27.838565" lon="-65.782115">
        <ele>1435.1</ele>
        <time>2018-08-19T20:35:08Z</time>
      </trkpt>
      <trkpt lat="-27.83849" lon="-65.78216">
        <ele>1435.0</ele>
        <time>2018-08-19T20:35:11Z</time>
      </trkpt>
      <trkpt lat="-27.8384" lon="-65.78219833333333">
        <ele>1434.9</ele>
        <time>2018-08-19T20:35:14Z</time>
      </trkpt>
      <trkpt lat="-27.838345" lon="-65.78227">
        <ele>1433.9</ele>
        <time>2018-08-19T20:35:16Z</time>
      </trkpt>
      <trkpt lat="-27.838285" lon="-65.78234">
        <ele>1433.4</ele>
        <time>2018-08-19T20:35:18Z</time>
      </trkpt>
      <trkpt lat="-27.83824" lon="-65.782415">
        <ele>1433.3</ele>
        <time>2018-08-19T20:35:20Z</time>
      </trkpt>
      <trkpt lat="-27.838195" lon="-65.782525">
        <ele>1433.0</ele>
        <time>2018-08-19T20:35:23Z</time>
      </trkpt>
      <trkpt lat="-27.838175" lon="-65.78263">
        <ele>1432.8</ele>
        <time>2018-08-19T20:35:26Z</time>
      </trkpt>
      <trkpt lat="-27.838165" lon="-65.782695">
        <ele>1432.8</ele>
        <time>2018-08-19T20:35:28Z</time>
      </trkpt>
      <trkpt lat="-27.83815" lon="-65.78279">
        <ele>1433.1</ele>
        <time>2018-08-19T20:35:31Z</time>
      </trkpt>
      <trkpt lat="-27.83813" lon="-65.78286">
        <ele>1433.8</ele>
        <time>2018-08-19T20:35:38Z</time>
      </trkpt>
      <trkpt lat="-27.838125" lon="-65.78286">
        <ele>1433.9</ele>
        <time>2018-08-19T20:35:40Z</time>
      </trkpt>
      <trkpt lat="-27.838135" lon="-65.782855">
        <ele>1433.3</ele>
        <time>2018-08-19T20:35:53Z</time>
      </trkpt>
      <trkpt lat="-27.838135" lon="-65.782855">
        <ele>1433.3</ele>
        <time>2018-08-19T20:35:54Z</time>
      </trkpt>
      <trkpt lat="-27.838135" lon="-65.782835">
        <ele>1433.3</ele>
        <time>2018-08-19T20:36:05Z</time>
      </trkpt>
      <trkpt lat="-27.838135" lon="-65.782835">
        <ele>1433.3</ele>
        <time>2018-08-19T20:36:06Z</time>
      </trkpt>
      <trkpt lat="-27.83816" lon="-65.782835">
        <ele>1433.1</ele>
        <time>2018-08-19T20:36:19Z</time>
      </trkpt>
      <trkpt lat="-27.838155" lon="-65.782835">
        <ele>1433.1</ele>
        <time>2018-08-19T20:36:20Z</time>
      </trkpt>
      <trkpt lat="-27.838135" lon="-65.782855">
        <ele>1432.8</ele>
        <time>2018-08-19T20:36:32Z</time>
      </trkpt>
      <trkpt lat="-27.83813" lon="-65.782855">
        <ele>1432.8</ele>
        <time>2018-08-19T20:36:33Z</time>
      </trkpt>
      <trkpt lat="-27.838135" lon="-65.782855">
        <ele>1432.7</ele>
        <time>2018-08-19T20:36:41Z</time>
      </trkpt>
      <trkpt lat="-27.838135" lon="-65.782855">
        <ele>1432.7</ele>
        <time>2018-08-19T20:36:42Z</time>
      </trkpt>
      <trkpt lat="-27.838135" lon="-65.782825">
        <ele>1432.8</ele>
        <time>2018-08-19T20:36:52Z</time>
      </trkpt>
      <trkpt lat="-27.838135" lon="-65.782825">
        <ele>1432.8</ele>
        <time>2018-08-19T20:36:53Z</time>
      </trkpt>
      <trkpt lat="-27.83813" lon="-65.782815">
        <ele>1432.4</ele>
        <time>2018-08-19T20:37:04Z</time>
      </trkpt>
      <trkpt lat="-27.83813" lon="-65.782815">
        <ele>1432.4</ele>
        <time>2018-08-19T20:37:05Z</time>
      </trkpt>
      <trkpt lat="-27.83813" lon="-65.782825">
        <ele>1431.9</ele>
        <time>2018-08-19T20:37:14Z</time>
      </trkpt>
      <trkpt lat="-27.83813" lon="-65.782825">
        <ele>1431.9</ele>
        <time>2018-08-19T20:37:15Z</time>
      </trkpt>
      <trkpt lat="-27.83813" lon="-65.78287">
        <ele>1431.4</ele>
        <time>2018-08-19T20:37:27Z</time>
      </trkpt>
      <trkpt lat="-27.838135" lon="-65.782875">
        <ele>1431.4</ele>
        <time>2018-08-19T20:37:28Z</time>
      </trkpt>
      <trkpt lat="-27.83815" lon="-65.78286">
        <ele>1431.6</ele>
        <time>2018-08-19T20:37:48Z</time>
      </trkpt>
      <trkpt lat="-27.83815" lon="-65.78286">
        <ele>1431.6</ele>
        <time>2018-08-19T20:37:49Z</time>
      </trkpt>
      <trkpt lat="-27.838135" lon="-65.782835">
        <ele>1431.7</ele>
        <time>2018-08-19T20:38:12Z</time>
      </trkpt>
      <trkpt lat="-27.83813" lon="-65.782835">
        <ele>1431.8</ele>
        <time>2018-08-19T20:38:15Z</time>
      </trkpt>
      <trkpt lat="-27.83813" lon="-65.782835">
        <ele>1432.1</ele>
        <time>2018-08-19T20:38:26Z</time>
      </trkpt>
      <trkpt lat="-27.83813" lon="-65.782835">
        <ele>1432.2</ele>
        <time>2018-08-19T20:38:27Z</time>
      </trkpt>
      <trkpt lat="-27.83816" lon="-65.78287">
        <ele>1431.2</ele>
        <time>2018-08-19T20:38:46Z</time>
      </trkpt>
      <trkpt lat="-27.838155" lon="-65.78287">
        <ele>1431.0</ele>
        <time>2018-08-19T20:38:47Z</time>
      </trkpt>
      <trkpt lat="-27.838135" lon="-65.782875">
        <ele>1431.0</ele>
        <time>2018-08-19T20:38:57Z</time>
      </trkpt>
      <trkpt lat="-27.838135" lon="-65.782875">
        <ele>1431.0</ele>
        <time>2018-08-19T20:38:58Z</time>
      </trkpt>
      <trkpt lat="-27.83816" lon="-65.782865">
        <ele>1430.1</ele>
        <time>2018-08-19T20:39:21Z</time>
      </trkpt>
      <trkpt lat="-27.838165" lon="-65.782865">
        <ele>1430.1</ele>
        <time>2018-08-19T20:39:22Z</time>
      </trkpt>
      <trkpt lat="-27.838165" lon="-65.782835">
        <ele>1430.8</ele>
        <time>2018-08-19T20:39:32Z</time>
      </trkpt>
      <trkpt lat="-27.83816" lon="-65.782835">
        <ele>1430.9</ele>
        <time>2018-08-19T20:39:33Z</time>
      </trkpt>
      <trkpt lat="-27.838135" lon="-65.782825">
        <ele>1431.6</ele>
        <time>2018-08-19T20:39:41Z</time>
      </trkpt>
      <trkpt lat="-27.83813" lon="-65.782825">
        <ele>1431.9</ele>
        <time>2018-08-19T20:39:42Z</time>
      </trkpt>
      <trkpt lat="-27.838135" lon="-65.78279">
        <ele>1434.3</ele>
        <time>2018-08-19T20:39:51Z</time>
      </trkpt>
      <trkpt lat="-27.838135" lon="-65.78279">
        <ele>1434.6</ele>
        <time>2018-08-19T20:39:52Z</time>
      </trkpt>
      <trkpt lat="-27.838135" lon="-65.78279">
        <ele>1435.1</ele>
        <time>2018-08-19T20:40:00Z</time>
      </trkpt>
      <trkpt lat="-27.838135" lon="-65.78279">
        <ele>1435.1</ele>
        <time>2018-08-19T20:40:01Z</time>
      </trkpt>
      <trkpt lat="-27.838155" lon="-65.78279">
        <ele>1435.9</ele>
        <time>2018-08-19T20:40:20Z</time>
      </trkpt>
      <trkpt lat="-27.838155" lon="-65.78279">
        <ele>1435.9</ele>
        <time>2018-08-19T20:40:20Z</time>
      </trkpt>
      <trkpt lat="-27.83816" lon="-65.78279">
        <ele>1436.0</ele>
        <time>2018-08-19T20:40:29Z</time>
      </trkpt>
      <trkpt lat="-27.838155" lon="-65.782815">
        <ele>1436.0</ele>
        <time>2018-08-19T20:40:30Z</time>
      </trkpt>
      <trkpt lat="-27.838175" lon="-65.782825">
        <ele>1436.1</ele>
        <time>2018-08-19T20:40:39Z</time>
      </trkpt>
      <trkpt lat="-27.838175" lon="-65.782825">
        <ele>1436.0</ele>
        <time>2018-08-19T20:40:40Z</time>
      </trkpt>
      <trkpt lat="-27.83816" lon="-65.782815">
        <ele>1435.9</ele>
        <time>2018-08-19T20:40:50Z</time>
      </trkpt>
      <trkpt lat="-27.83816" lon="-65.78279">
        <ele>1436.1</ele>
        <time>2018-08-19T20:40:51Z</time>
      </trkpt>
      <trkpt lat="-27.83816" lon="-65.782835">
        <ele>1437.3</ele>
        <time>2018-08-19T20:41:06Z</time>
      </trkpt>
      <trkpt lat="-27.838155" lon="-65.782835">
        <ele>1437.3</ele>
        <time>2018-08-19T20:41:07Z</time>
      </trkpt>
      <trkpt lat="-27.83816" lon="-65.78287">
        <ele>1437.0</ele>
        <time>2018-08-19T20:41:15Z</time>
      </trkpt>
      <trkpt lat="-27.83816" lon="-65.782865">
        <ele>1436.9</ele>
        <time>2018-08-19T20:41:16Z</time>
      </trkpt>
      <trkpt lat="-27.838175" lon="-65.78286">
        <ele>1436.6</ele>
        <time>2018-08-19T20:41:37Z</time>
      </trkpt>
      <trkpt lat="-27.83817" lon="-65.78286">
        <ele>1436.6</ele>
        <time>2018-08-19T20:41:38Z</time>
      </trkpt>
      <trkpt lat="-27.838175" lon="-65.782875">
        <ele>1436.2</ele>
        <time>2018-08-19T20:41:49Z</time>
      </trkpt>
      <trkpt lat="-27.838175" lon="-65.78287">
        <ele>1436.2</ele>
        <time>2018-08-19T20:41:50Z</time>
      </trkpt>
      <trkpt lat="-27.838165" lon="-65.782855">
        <ele>1436.3</ele>
        <time>2018-08-19T20:41:59Z</time>
      </trkpt>
      <trkpt lat="-27.83816" lon="-65.782855">
        <ele>1436.3</ele>
        <time>2018-08-19T20:42:02Z</time>
      </trkpt>
      <trkpt lat="-27.83817" lon="-65.782865">
        <ele>1436.4</ele>
        <time>2018-08-19T20:42:13Z</time>
      </trkpt>
      <trkpt lat="-27.838165" lon="-65.78287">
        <ele>1436.5</ele>
        <time>2018-08-19T20:42:14Z</time>
      </trkpt>
      <trkpt lat="-27.83816" lon="-65.782865">
        <ele>1436.8</ele>
        <time>2018-08-19T20:42:23Z</time>
      </trkpt>
      <trkpt lat="-27.83816" lon="-65.782865">
        <ele>1436.8</ele>
        <time>2018-08-19T20:42:24Z</time>
      </trkpt>
      <trkpt lat="-27.83817" lon="-65.782875">
        <ele>1437.1</ele>
        <time>2018-08-19T20:42:33Z</time>
      </trkpt>
      <trkpt lat="-27.83817" lon="-65.782875">
        <ele>1437.1</ele>
        <time>2018-08-19T20:42:34Z</time>
      </trkpt>
      <trkpt lat="-27.8382" lon="-65.78286">
        <ele>1436.8</ele>
        <time>2018-08-19T20:42:45Z</time>
      </trkpt>
      <trkpt lat="-27.8382" lon="-65.78286">
        <ele>1436.8</ele>
        <time>2018-08-19T20:42:46Z</time>
      </trkpt>
      <trkpt lat="-27.838215" lon="-65.782835">
        <ele>1436.5</ele>
        <time>2018-08-19T20:42:56Z</time>
      </trkpt>
      <trkpt lat="-27.838215" lon="-65.782835">
        <ele>1436.4</ele>
        <time>2018-08-19T20:42:57Z</time>
      </trkpt>
      <trkpt lat="-27.838195" lon="-65.782875">
        <ele>1435.9</ele>
        <time>2018-08-19T20:43:08Z</time>
      </trkpt>
      <trkpt lat="-27.8382" lon="-65.782875">
        <ele>1435.9</ele>
        <time>2018-08-19T20:43:09Z</time>
      </trkpt>
      <trkpt lat="-27.838205" lon="-65.782945">
        <ele>1435.1</ele>
        <time>2018-08-19T20:43:17Z</time>
      </trkpt>
      <trkpt lat="-27.838205" lon="-65.78292">
        <ele>1434.8</ele>
        <time>2018-08-19T20:43:19Z</time>
      </trkpt>
      <trkpt lat="-27.838185" lon="-65.782875">
        <ele>1435.1</ele>
        <time>2018-08-19T20:43:26Z</time>
      </trkpt>
      <trkpt lat="-27.838185" lon="-65.78287">
        <ele>1435.1</ele>
        <time>2018-08-19T20:43:29Z</time>
      </trkpt>
      <trkpt lat="-27.83817" lon="-65.78286">
        <ele>1435.0</ele>
        <time>2018-08-19T20:43:37Z</time>
      </trkpt>
      <trkpt lat="-27.838175" lon="-65.782865">
        <ele>1435.0</ele>
        <time>2018-08-19T20:43:38Z</time>
      </trkpt>
      <trkpt lat="-27.83815" lon="-65.7829">
        <ele>1435.0</ele>
        <time>2018-08-19T20:43:46Z</time>
      </trkpt>
      <trkpt lat="-27.83815" lon="-65.782875">
        <ele>1435.0</ele>
        <time>2018-08-19T20:43:47Z</time>
      </trkpt>
      <trkpt lat="-27.838135" lon="-65.78287">
        <ele>1435.3</ele>
        <time>2018-08-19T20:43:55Z</time>
      </trkpt>
      <trkpt lat="-27.838135" lon="-65.78287">
        <ele>1435.3</ele>
        <time>2018-08-19T20:43:56Z</time>
      </trkpt>
      <trkpt lat="-27.83817" lon="-65.782875">
        <ele>1435.2</ele>
        <time>2018-08-19T20:44:07Z</time>
      </trkpt>
      <trkpt lat="-27.83817" lon="-65.782875">
        <ele>1435.1</ele>
        <time>2018-08-19T20:44:08Z</time>
      </trkpt>
      <trkpt lat="-27.838155" lon="-65.782865">
        <ele>1435.0</ele>
        <time>2018-08-19T20:44:19Z</time>
      </trkpt>
      <trkpt lat="-27.83815" lon="-65.782865">
        <ele>1435.0</ele>
        <time>2018-08-19T20:44:20Z</time>
      </trkpt>
      <trkpt lat="-27.838135" lon="-65.78286">
        <ele>1435.0</ele>
        <time>2018-08-19T20:44:32Z</time>
      </trkpt>
      <trkpt lat="-27.83813" lon="-65.78286">
        <ele>1435.0</ele>
        <time>2018-08-19T20:44:33Z</time>
      </trkpt>
      <trkpt lat="-27.838125" lon="-65.782835">
        <ele>1435.2</ele>
        <time>2018-08-19T20:44:41Z</time>
      </trkpt>
      <trkpt lat="-27.83813" lon="-65.782835">
        <ele>1435.2</ele>
        <time>2018-08-19T20:44:42Z</time>
      </trkpt>
      <trkpt lat="-27.838135" lon="-65.78286">
        <ele>1434.7</ele>
        <time>2018-08-19T20:44:57Z</time>
      </trkpt>
      <trkpt lat="-27.838135" lon="-65.782865">
        <ele>1434.7</ele>
        <time>2018-08-19T20:44:58Z</time>
      </trkpt>
      <trkpt lat="-27.83815" lon="-65.782875">
        <ele>1434.4</ele>
        <time>2018-08-19T20:45:09Z</time>
      </trkpt>
      <trkpt lat="-27.838135" lon="-65.782875">
        <ele>1434.4</ele>
        <time>2018-08-19T20:45:10Z</time>
      </trkpt>
      <trkpt lat="-27.838135" lon="-65.782875">
        <ele>1434.0</ele>
        <time>2018-08-19T20:45:24Z</time>
      </trkpt>
      <trkpt lat="-27.838135" lon="-65.782875">
        <ele>1434.0</ele>
        <time>2018-08-19T20:45:25Z</time>
      </trkpt>
      <trkpt lat="-27.838135" lon="-65.78286">
        <ele>1433.9</ele>
        <time>2018-08-19T20:45:37Z</time>
      </trkpt>
      <trkpt lat="-27.838135" lon="-65.78286">
        <ele>1433.9</ele>
        <time>2018-08-19T20:45:38Z</time>
      </trkpt>
      <trkpt lat="-27.83813" lon="-65.78287">
        <ele>1433.8</ele>
        <time>2018-08-19T20:45:47Z</time>
      </trkpt>
      <trkpt lat="-27.83813" lon="-65.78287">
        <ele>1433.8</ele>
        <time>2018-08-19T20:45:48Z</time>
      </trkpt>
      <trkpt lat="-27.838135" lon="-65.782875">
        <ele>1433.7</ele>
        <time>2018-08-19T20:45:57Z</time>
      </trkpt>
      <trkpt lat="-27.83813" lon="-65.782875">
        <ele>1433.7</ele>
        <time>2018-08-19T20:45:58Z</time>
      </trkpt>
      <trkpt lat="-27.838155" lon="-65.782875">
        <ele>1433.5</ele>
        <time>2018-08-19T20:46:17Z</time>
      </trkpt>
      <trkpt lat="-27.838155" lon="-65.782875">
        <ele>1433.5</ele>
        <time>2018-08-19T20:46:18Z</time>
      </trkpt>
      <trkpt lat="-27.8381" lon="-65.782875">
        <ele>1432.9</ele>
        <time>2018-08-19T20:46:26Z</time>
      </trkpt>
      <trkpt lat="-27.838135" lon="-65.782875">
        <ele>1432.8</ele>
        <time>2018-08-19T20:46:33Z</time>
      </trkpt>
      <trkpt lat="-27.838135" lon="-65.78287">
        <ele>1432.8</ele>
        <time>2018-08-19T20:46:36Z</time>
      </trkpt>
      <trkpt lat="-27.83813" lon="-65.78286">
        <ele>1432.8</ele>
        <time>2018-08-19T20:46:51Z</time>
      </trkpt>
      <trkpt lat="-27.838135" lon="-65.782855">
        <ele>1432.8</ele>
        <time>2018-08-19T20:46:52Z</time>
      </trkpt>
      <trkpt lat="-27.83816" lon="-65.782835">
        <ele>1432.8</ele>
        <time>2018-08-19T20:47:01Z</time>
      </trkpt>
      <trkpt lat="-27.838165" lon="-65.782835">
        <ele>1432.8</ele>
        <time>2018-08-19T20:47:02Z</time>
      </trkpt>
      <trkpt lat="-27.83816" lon="-65.78286">
        <ele>1432.9</ele>
        <time>2018-08-19T20:47:17Z</time>
      </trkpt>
      <trkpt lat="-27.838155" lon="-65.78286">
        <ele>1432.9</ele>
        <time>2018-08-19T20:47:18Z</time>
      </trkpt>
      <trkpt lat="-27.838125" lon="-65.78286">
        <ele>1433.3</ele>
        <time>2018-08-19T20:47:27Z</time>
      </trkpt>
      <trkpt lat="-27.838125" lon="-65.78286">
        <ele>1433.3</ele>
        <time>2018-08-19T20:47:28Z</time>
      </trkpt>
      <trkpt lat="-27.83815" lon="-65.782875">
        <ele>1433.3</ele>
        <time>2018-08-19T20:47:37Z</time>
      </trkpt>
      <trkpt lat="-27.838155" lon="-65.782875">
        <ele>1433.3</ele>
        <time>2018-08-19T20:47:38Z</time>
      </trkpt>
      <trkpt lat="-27.83815" lon="-65.78291">
        <ele>1433.1</ele>
        <time>2018-08-19T20:47:47Z</time>
      </trkpt>
      <trkpt lat="-27.83815" lon="-65.78291">
        <ele>1433.1</ele>
        <time>2018-08-19T20:47:48Z</time>
      </trkpt>
      <trkpt lat="-27.83813" lon="-65.782875">
        <ele>1433.1</ele>
        <time>2018-08-19T20:47:59Z</time>
      </trkpt>
      <trkpt lat="-27.83813" lon="-65.782875">
        <ele>1433.1</ele>
        <time>2018-08-19T20:48:00Z</time>
      </trkpt>
      <trkpt lat="-27.838155" lon="-65.782875">
        <ele>1433.1</ele>
        <time>2018-08-19T20:48:14Z</time>
      </trkpt>
      <trkpt lat="-27.838155" lon="-65.782875">
        <ele>1433.1</ele>
        <time>2018-08-19T20:48:15Z</time>
      </trkpt>
      <trkpt lat="-27.838155" lon="-65.782855">
        <ele>1433.2</ele>
        <time>2018-08-19T20:48:25Z</time>
      </trkpt>
      <trkpt lat="-27.838155" lon="-65.782855">
        <ele>1433.2</ele>
        <time>2018-08-19T20:48:27Z</time>
      </trkpt>
      <trkpt lat="-27.838155" lon="-65.782835">
        <ele>1432.9</ele>
        <time>2018-08-19T20:48:38Z</time>
      </trkpt>
      <trkpt lat="-27.838155" lon="-65.782835">
        <ele>1432.9</ele>
        <time>2018-08-19T20:48:39Z</time>
      </trkpt>
      <trkpt lat="-27.838135" lon="-65.782835">
        <ele>1432.0</ele>
        <time>2018-08-19T20:49:05Z</time>
      </trkpt>
      <trkpt lat="-27.838135" lon="-65.782855">
        <ele>1432.0</ele>
        <time>2018-08-19T20:49:06Z</time>
      </trkpt>
      <trkpt lat="-27.838165" lon="-65.782855">
        <ele>1431.5</ele>
        <time>2018-08-19T20:49:16Z</time>
      </trkpt>
      <trkpt lat="-27.838165" lon="-65.782835">
        <ele>1431.5</ele>
        <time>2018-08-19T20:49:17Z</time>
      </trkpt>
      <trkpt lat="-27.83815" lon="-65.782835">
        <ele>1431.8</ele>
        <time>2018-08-19T20:49:26Z</time>
      </trkpt>
      <trkpt lat="-27.83815" lon="-65.782835">
        <ele>1431.9</ele>
        <time>2018-08-19T20:49:27Z</time>
      </trkpt>
      <trkpt lat="-27.838155" lon="-65.782835">
        <ele>1432.0</ele>
        <time>2018-08-19T20:49:39Z</time>
      </trkpt>
      <trkpt lat="-27.838155" lon="-65.782835">
        <ele>1432.1</ele>
        <time>2018-08-19T20:49:40Z</time>
      </trkpt>
      <trkpt lat="-27.83816" lon="-65.78286">
        <ele>1432.5</ele>
        <time>2018-08-19T20:49:52Z</time>
      </trkpt>
      <trkpt lat="-27.838165" lon="-65.782865">
        <ele>1432.5</ele>
        <time>2018-08-19T20:49:53Z</time>
      </trkpt>
      <trkpt lat="-27.838155" lon="-65.782875">
        <ele>1432.5</ele>
        <time>2018-08-19T20:50:01Z</time>
      </trkpt>
      <trkpt lat="-27.838155" lon="-65.782875">
        <ele>1432.5</ele>
        <time>2018-08-19T20:50:02Z</time>
      </trkpt>
      <trkpt lat="-27.838135" lon="-65.7829">
        <ele>1432.1</ele>
        <time>2018-08-19T20:50:14Z</time>
      </trkpt>
      <trkpt lat="-27.838135" lon="-65.7829">
        <ele>1432.1</ele>
        <time>2018-08-19T20:50:15Z</time>
      </trkpt>
      <trkpt lat="-27.838135" lon="-65.78286">
        <ele>1432.0</ele>
        <time>2018-08-19T20:50:26Z</time>
      </trkpt>
      <trkpt lat="-27.838135" lon="-65.78286">
        <ele>1432.2</ele>
        <time>2018-08-19T20:50:27Z</time>
      </trkpt>
      <trkpt lat="-27.838135" lon="-65.782855">
        <ele>1432.8</ele>
        <time>2018-08-19T20:50:39Z</time>
      </trkpt>
      <trkpt lat="-27.838135" lon="-65.782855">
        <ele>1432.8</ele>
        <time>2018-08-19T20:50:40Z</time>
      </trkpt>
      <trkpt lat="-27.838135" lon="-65.782875">
        <ele>1432.3</ele>
        <time>2018-08-19T20:50:48Z</time>
      </trkpt>
      <trkpt lat="-27.838135" lon="-65.782875">
        <ele>1432.3</ele>
        <time>2018-08-19T20:50:49Z</time>
      </trkpt>
      <trkpt lat="-27.838175" lon="-65.782835">
        <ele>1432.2</ele>
        <time>2018-08-19T20:50:59Z</time>
      </trkpt>
      <trkpt lat="-27.838175" lon="-65.782825">
        <ele>1432.1</ele>
        <time>2018-08-19T20:51:03Z</time>
      </trkpt>
      <trkpt lat="-27.838165" lon="-65.782835">
        <ele>1431.9</ele>
        <time>2018-08-19T20:51:13Z</time>
      </trkpt>
      <trkpt lat="-27.83816" lon="-65.782835">
        <ele>1431.9</ele>
        <time>2018-08-19T20:51:14Z</time>
      </trkpt>
      <trkpt lat="-27.83815" lon="-65.782855">
        <ele>1431.7</ele>
        <time>2018-08-19T20:51:23Z</time>
      </trkpt>
      <trkpt lat="-27.838135" lon="-65.782855">
        <ele>1431.7</ele>
        <time>2018-08-19T20:51:24Z</time>
      </trkpt>
      <trkpt lat="-27.838135" lon="-65.782855">
        <ele>1431.8</ele>
        <time>2018-08-19T20:51:34Z</time>
      </trkpt>
      <trkpt lat="-27.838135" lon="-65.782835">
        <ele>1431.8</ele>
        <time>2018-08-19T20:51:35Z</time>
      </trkpt>
      <trkpt lat="-27.83811" lon="-65.782835">
        <ele>1433.1</ele>
        <time>2018-08-19T20:52:02Z</time>
      </trkpt>
      <trkpt lat="-27.83811" lon="-65.782835">
        <ele>1433.1</ele>
        <time>2018-08-19T20:52:03Z</time>
      </trkpt>
      <trkpt lat="-27.838135" lon="-65.782835">
        <ele>1433.0</ele>
        <time>2018-08-19T20:52:20Z</time>
      </trkpt>
      <trkpt lat="-27.838135" lon="-65.782835">
        <ele>1433.0</ele>
        <time>2018-08-19T20:52:21Z</time>
      </trkpt>
      <trkpt lat="-27.838115" lon="-65.782835">
        <ele>1432.3</ele>
        <time>2018-08-19T20:52:31Z</time>
      </trkpt>
      <trkpt lat="-27.838115" lon="-65.782835">
        <ele>1432.2</ele>
        <time>2018-08-19T20:52:32Z</time>
      </trkpt>
      <trkpt lat="-27.838135" lon="-65.782875">
        <ele>1431.1</ele>
        <time>2018-08-19T20:52:46Z</time>
      </trkpt>
      <trkpt lat="-27.838135" lon="-65.782875">
        <ele>1431.1</ele>
        <time>2018-08-19T20:52:47Z</time>
      </trkpt>
      <trkpt lat="-27.838135" lon="-65.782875">
        <ele>1431.0</ele>
        <time>2018-08-19T20:52:56Z</time>
      </trkpt>
      <trkpt lat="-27.838135" lon="-65.782875">
        <ele>1431.0</ele>
        <time>2018-08-19T20:52:57Z</time>
      </trkpt>
      <trkpt lat="-27.83815" lon="-65.782865">
        <ele>1431.2</ele>
        <time>2018-08-19T20:53:09Z</time>
      </trkpt>
      <trkpt lat="-27.83815" lon="-65.782865">
        <ele>1431.2</ele>
        <time>2018-08-19T20:53:10Z</time>
      </trkpt>
      <trkpt lat="-27.838135" lon="-65.782875">
        <ele>1430.6</ele>
        <time>2018-08-19T20:53:22Z</time>
      </trkpt>
      <trkpt lat="-27.838135" lon="-65.782875">
        <ele>1430.6</ele>
        <time>2018-08-19T20:53:23Z</time>
      </trkpt>
      <trkpt lat="-27.838135" lon="-65.782875">
        <ele>1429.9</ele>
        <time>2018-08-19T20:53:32Z</time>
      </trkpt>
      <trkpt lat="-27.838135" lon="-65.782875">
        <ele>1429.9</ele>
        <time>2018-08-19T20:53:33Z</time>
      </trkpt>
      <trkpt lat="-27.838135" lon="-65.782875">
        <ele>1429.9</ele>
        <time>2018-08-19T20:53:43Z</time>
      </trkpt>
      <trkpt lat="-27.838135" lon="-65.782875">
        <ele>1429.9</ele>
        <time>2018-08-19T20:53:44Z</time>
      </trkpt>
      <trkpt lat="-27.83815" lon="-65.782865">
        <ele>1429.3</ele>
        <time>2018-08-19T20:53:59Z</time>
      </trkpt>
      <trkpt lat="-27.83815" lon="-65.782865">
        <ele>1429.3</ele>
        <time>2018-08-19T20:54:00Z</time>
      </trkpt>
      <trkpt lat="-27.838135" lon="-65.782835">
        <ele>1429.0</ele>
        <time>2018-08-19T20:54:13Z</time>
      </trkpt>
      <trkpt lat="-27.838135" lon="-65.782835">
        <ele>1429.0</ele>
        <time>2018-08-19T20:54:14Z</time>
      </trkpt>
      <trkpt lat="-27.838135" lon="-65.782835">
        <ele>1428.8</ele>
        <time>2018-08-19T20:54:24Z</time>
      </trkpt>
      <trkpt lat="-27.83813" lon="-65.782825">
        <ele>1428.8</ele>
        <time>2018-08-19T20:54:25Z</time>
      </trkpt>
      <trkpt lat="-27.838125" lon="-65.782835">
        <ele>1428.6</ele>
        <time>2018-08-19T20:54:34Z</time>
      </trkpt>
      <trkpt lat="-27.83813" lon="-65.782835">
        <ele>1428.6</ele>
        <time>2018-08-19T20:54:35Z</time>
      </trkpt>
      <trkpt lat="-27.838135" lon="-65.782875">
        <ele>1428.5</ele>
        <time>2018-08-19T20:54:44Z</time>
      </trkpt>
      <trkpt lat="-27.838135" lon="-65.782875">
        <ele>1428.5</ele>
        <time>2018-08-19T20:54:45Z</time>
      </trkpt>
      <trkpt lat="-27.838135" lon="-65.7829">
        <ele>1428.6</ele>
        <time>2018-08-19T20:54:54Z</time>
      </trkpt>
      <trkpt lat="-27.838135" lon="-65.7829">
        <ele>1428.6</ele>
        <time>2018-08-19T20:54:55Z</time>
      </trkpt>
      <trkpt lat="-27.838155" lon="-65.782875">
        <ele>1428.5</ele>
        <time>2018-08-19T20:55:03Z</time>
      </trkpt>
      <trkpt lat="-27.838155" lon="-65.782875">
        <ele>1428.5</ele>
        <time>2018-08-19T20:55:04Z</time>
      </trkpt>
      <trkpt lat="-27.838155" lon="-65.782875">
        <ele>1428.2</ele>
        <time>2018-08-19T20:55:16Z</time>
      </trkpt>
      <trkpt lat="-27.838155" lon="-65.782875">
        <ele>1428.2</ele>
        <time>2018-08-19T20:55:17Z</time>
      </trkpt>
      <trkpt lat="-27.838175" lon="-65.782875">
        <ele>1428.0</ele>
        <time>2018-08-19T20:55:28Z</time>
      </trkpt>
      <trkpt lat="-27.838175" lon="-65.782875">
        <ele>1428.0</ele>
        <time>2018-08-19T20:55:29Z</time>
      </trkpt>
      <trkpt lat="-27.83816" lon="-65.782875">
        <ele>1427.5</ele>
        <time>2018-08-19T20:55:45Z</time>
      </trkpt>
      <trkpt lat="-27.838165" lon="-65.782875">
        <ele>1427.5</ele>
        <time>2018-08-19T20:55:46Z</time>
      </trkpt>
      <trkpt lat="-27.83815" lon="-65.78287">
        <ele>1427.0</ele>
        <time>2018-08-19T20:55:56Z</time>
      </trkpt>
      <trkpt lat="-27.838135" lon="-65.78287">
        <ele>1427.0</ele>
        <time>2018-08-19T20:55:57Z</time>
      </trkpt>
      <trkpt lat="-27.83815" lon="-65.782865">
        <ele>1427.0</ele>
        <time>2018-08-19T20:56:06Z</time>
      </trkpt>
      <trkpt lat="-27.83815" lon="-65.782865">
        <ele>1427.1</ele>
        <time>2018-08-19T20:56:07Z</time>
      </trkpt>
      <trkpt lat="-27.838135" lon="-65.782875">
        <ele>1427.2</ele>
        <time>2018-08-19T20:56:24Z</time>
      </trkpt>
      <trkpt lat="-27.83813" lon="-65.782875">
        <ele>1427.2</ele>
        <time>2018-08-19T20:56:25Z</time>
      </trkpt>
      <trkpt lat="-27.838155" lon="-65.782855">
        <ele>1427.3</ele>
        <time>2018-08-19T20:56:36Z</time>
      </trkpt>
      <trkpt lat="-27.838155" lon="-65.782855">
        <ele>1427.2</ele>
        <time>2018-08-19T20:56:37Z</time>
      </trkpt>
      <trkpt lat="-27.838135" lon="-65.782875">
        <ele>1427.8</ele>
        <time>2018-08-19T20:56:55Z</time>
      </trkpt>
      <trkpt lat="-27.838135" lon="-65.782955">
        <ele>1428.2</ele>
        <time>2018-08-19T20:57:01Z</time>
      </trkpt>
      <trkpt lat="-27.838135" lon="-65.78305">
        <ele>1428.7</ele>
        <time>2018-08-19T20:57:08Z</time>
      </trkpt>
      <trkpt lat="-27.838125" lon="-65.7831">
        <ele>1430.3</ele>
        <time>2018-08-19T20:57:15Z</time>
      </trkpt>
      <trkpt lat="-27.83812" lon="-65.78318">
        <ele>1431.5</ele>
        <time>2018-08-19T20:57:22Z</time>
      </trkpt>
      <trkpt lat="-27.838095" lon="-65.783265">
        <ele>1432.5</ele>
        <time>2018-08-19T20:57:29Z</time>
      </trkpt>
      <trkpt lat="-27.838095" lon="-65.78335">
        <ele>1433.3</ele>
        <time>2018-08-19T20:57:35Z</time>
      </trkpt>
      <trkpt lat="-27.838065" lon="-65.78341">
        <ele>1433.8</ele>
        <time>2018-08-19T20:57:40Z</time>
      </trkpt>
      <trkpt lat="-27.838045" lon="-65.78351">
        <ele>1434.0</ele>
        <time>2018-08-19T20:57:44Z</time>
      </trkpt>
      <trkpt lat="-27.838015" lon="-65.783595">
        <ele>1434.1</ele>
        <time>2018-08-19T20:57:49Z</time>
      </trkpt>
      <trkpt lat="-27.837985" lon="-65.78369">
        <ele>1434.2</ele>
        <time>2018-08-19T20:57:53Z</time>
      </trkpt>
      <trkpt lat="-27.83795" lon="-65.783775">
        <ele>1434.3</ele>
        <time>2018-08-19T20:57:58Z</time>
      </trkpt>
      <trkpt lat="-27.83793" lon="-65.78386">
        <ele>1434.4</ele>
        <time>2018-08-19T20:58:02Z</time>
      </trkpt>
      <trkpt lat="-27.837905" lon="-65.78394">
        <ele>1434.5</ele>
        <time>2018-08-19T20:58:07Z</time>
      </trkpt>
      <trkpt lat="-27.837865" lon="-65.784025">
        <ele>1434.7</ele>
        <time>2018-08-19T20:58:12Z</time>
      </trkpt>
      <trkpt lat="-27.837835" lon="-65.784085">
        <ele>1434.7</ele>
        <time>2018-08-19T20:58:17Z</time>
      </trkpt>
      <trkpt lat="-27.837805" lon="-65.784165">
        <ele>1435.0</ele>
        <time>2018-08-19T20:58:22Z</time>
      </trkpt>
      <trkpt lat="-27.83777" lon="-65.78426">
        <ele>1435.1</ele>
        <time>2018-08-19T20:58:27Z</time>
      </trkpt>
      <trkpt lat="-27.83772" lon="-65.784345">
        <ele>1435.1</ele>
        <time>2018-08-19T20:58:33Z</time>
      </trkpt>
      <trkpt lat="-27.8377" lon="-65.78442">
        <ele>1435.2</ele>
        <time>2018-08-19T20:58:39Z</time>
      </trkpt>
      <trkpt lat="-27.83768" lon="-65.784495">
        <ele>1435.4</ele>
        <time>2018-08-19T20:58:44Z</time>
      </trkpt>
      <trkpt lat="-27.83765" lon="-65.78458">
        <ele>1435.5</ele>
        <time>2018-08-19T20:58:49Z</time>
      </trkpt>
      <trkpt lat="-27.837615" lon="-65.784665">
        <ele>1435.9</ele>
        <time>2018-08-19T20:58:56Z</time>
      </trkpt>
      <trkpt lat="-27.83758" lon="-65.784745">
        <ele>1436.2</ele>
        <time>2018-08-19T20:59:01Z</time>
      </trkpt>
      <trkpt lat="-27.837555000000002" lon="-65.784825">
        <ele>1436.6</ele>
        <time>2018-08-19T20:59:06Z</time>
      </trkpt>
      <trkpt lat="-27.837525" lon="-65.78489">
        <ele>1437.4</ele>
        <time>2018-08-19T20:59:12Z</time>
      </trkpt>
      <trkpt lat="-27.83747" lon="-65.784975">
        <ele>1438.0</ele>
        <time>2018-08-19T20:59:18Z</time>
      </trkpt>
      <trkpt lat="-27.837415" lon="-65.78503">
        <ele>1438.3</ele>
        <time>2018-08-19T20:59:23Z</time>
      </trkpt>
      <trkpt lat="-27.83734" lon="-65.78507">
        <ele>1438.3</ele>
        <time>2018-08-19T20:59:29Z</time>
      </trkpt>
      <trkpt lat="-27.83727" lon="-65.78507">
        <ele>1438.6</ele>
        <time>2018-08-19T20:59:36Z</time>
      </trkpt>
      <trkpt lat="-27.83719" lon="-65.78502">
        <ele>1439.4</ele>
        <time>2018-08-19T20:59:41Z</time>
      </trkpt>
      <trkpt lat="-27.83714" lon="-65.784965">
        <ele>1440.5</ele>
        <time>2018-08-19T20:59:46Z</time>
      </trkpt>
      <trkpt lat="-27.83709" lon="-65.78489">
        <ele>1441.1</ele>
        <time>2018-08-19T20:59:53Z</time>
      </trkpt>
      <trkpt lat="-27.837035" lon="-65.78484">
        <ele>1442.0</ele>
        <time>2018-08-19T20:59:59Z</time>
      </trkpt>
      <trkpt lat="-27.836985" lon="-65.78476">
        <ele>1443.3</ele>
        <time>2018-08-19T21:00:04Z</time>
      </trkpt>
      <trkpt lat="-27.836915" lon="-65.78471">
        <ele>1445.1</ele>
        <time>2018-08-19T21:00:10Z</time>
      </trkpt>
      <trkpt lat="-27.83684" lon="-65.78469">
        <ele>1446.8</ele>
        <time>2018-08-19T21:00:17Z</time>
      </trkpt>
      <trkpt lat="-27.836765" lon="-65.784665">
        <ele>1446.9</ele>
        <time>2018-08-19T21:00:21Z</time>
      </trkpt>
      <trkpt lat="-27.836685" lon="-65.78466">
        <ele>1446.7</ele>
        <time>2018-08-19T21:00:26Z</time>
      </trkpt>
      <trkpt lat="-27.836605" lon="-65.784655">
        <ele>1446.5</ele>
        <time>2018-08-19T21:00:31Z</time>
      </trkpt>
      <trkpt lat="-27.83653" lon="-65.78466">
        <ele>1446.3</ele>
        <time>2018-08-19T21:00:35Z</time>
      </trkpt>
      <trkpt lat="-27.83644" lon="-65.784665">
        <ele>1446.1</ele>
        <time>2018-08-19T21:00:39Z</time>
      </trkpt>
      <trkpt lat="-27.836375" lon="-65.7847">
        <ele>1446.0</ele>
        <time>2018-08-19T21:00:43Z</time>
      </trkpt>
      <trkpt lat="-27.836285" lon="-65.78475">
        <ele>1446.0</ele>
        <time>2018-08-19T21:00:47Z</time>
      </trkpt>
      <trkpt lat="-27.836215" lon="-65.784795">
        <ele>1446.1</ele>
        <time>2018-08-19T21:00:50Z</time>
      </trkpt>
      <trkpt lat="-27.836165" lon="-65.784845">
        <ele>1446.3</ele>
        <time>2018-08-19T21:00:53Z</time>
      </trkpt>
      <trkpt lat="-27.836105" lon="-65.784925">
        <ele>1446.7</ele>
        <time>2018-08-19T21:00:57Z</time>
      </trkpt>
      <trkpt lat="-27.83605" lon="-65.78503">
        <ele>1447.6</ele>
        <time>2018-08-19T21:01:01Z</time>
      </trkpt>
      <trkpt lat="-27.83601" lon="-65.785115">
        <ele>1448.3</ele>
        <time>2018-08-19T21:01:04Z</time>
      </trkpt>
      <trkpt lat="-27.83598" lon="-65.7852">
        <ele>1449.1</ele>
        <time>2018-08-19T21:01:08Z</time>
      </trkpt>
      <trkpt lat="-27.83597" lon="-65.78529">
        <ele>1449.4</ele>
        <time>2018-08-19T21:01:12Z</time>
      </trkpt>
      <trkpt lat="-27.835965" lon="-65.78538">
        <ele>1449.8</ele>
        <time>2018-08-19T21:01:15Z</time>
      </trkpt>
      <trkpt lat="-27.835965" lon="-65.78548">
        <ele>1450.4</ele>
        <time>2018-08-19T21:01:18Z</time>
      </trkpt>
      <trkpt lat="-27.83596" lon="-65.785565">
        <ele>1452.5</ele>
        <time>2018-08-19T21:01:21Z</time>
      </trkpt>
      <trkpt lat="-27.835955" lon="-65.785695">
        <ele>1452.8</ele>
        <time>2018-08-19T21:01:24Z</time>
      </trkpt>
      <trkpt lat="-27.83594" lon="-65.78579">
        <ele>1453.4</ele>
        <time>2018-08-19T21:01:27Z</time>
      </trkpt>
      <trkpt lat="-27.83593" lon="-65.78591">
        <ele>1453.9</ele>
        <time>2018-08-19T21:01:30Z</time>
      </trkpt>
      <trkpt lat="-27.83589" lon="-65.786005">
        <ele>1454.5</ele>
        <time>2018-08-19T21:01:33Z</time>
      </trkpt>
      <trkpt lat="-27.835825" lon="-65.78609">
        <ele>1455.0</ele>
        <time>2018-08-19T21:01:36Z</time>
      </trkpt>
      <trkpt lat="-27.83575" lon="-65.78613">
        <ele>1455.5</ele>
        <time>2018-08-19T21:01:40Z</time>
      </trkpt>
      <trkpt lat="-27.835665" lon="-65.786135">
        <ele>1455.6</ele>
        <time>2018-08-19T21:01:44Z</time>
      </trkpt>
      <trkpt lat="-27.835595" lon="-65.7861">
        <ele>1455.3</ele>
        <time>2018-08-19T21:01:47Z</time>
      </trkpt>
      <trkpt lat="-27.835515" lon="-65.786055">
        <ele>1455.1</ele>
        <time>2018-08-19T21:01:50Z</time>
      </trkpt>
      <trkpt lat="-27.835445" lon="-65.785985">
        <ele>1455.0</ele>
        <time>2018-08-19T21:01:53Z</time>
      </trkpt>
      <trkpt lat="-27.83539" lon="-65.78591">
        <ele>1454.7</ele>
        <time>2018-08-19T21:01:56Z</time>
      </trkpt>
      <trkpt lat="-27.835325" lon="-65.785865">
        <ele>1454.4</ele>
        <time>2018-08-19T21:02:00Z</time>
      </trkpt>
      <trkpt lat="-27.835255" lon="-65.78579">
        <ele>1454.5</ele>
        <time>2018-08-19T21:02:05Z</time>
      </trkpt>
      <trkpt lat="-27.835165" lon="-65.785745">
        <ele>1454.6</ele>
        <time>2018-08-19T21:02:07Z</time>
      </trkpt>
      <trkpt lat="-27.835075" lon="-65.785745">
        <ele>1454.5</ele>
        <time>2018-08-19T21:02:11Z</time>
      </trkpt>
      <trkpt lat="-27.834995" lon="-65.785745">
        <ele>1454.5</ele>
        <time>2018-08-19T21:02:15Z</time>
      </trkpt>
      <trkpt lat="-27.83492" lon="-65.78577">
        <ele>1454.4</ele>
        <time>2018-08-19T21:02:18Z</time>
      </trkpt>
      <trkpt lat="-27.83485" lon="-65.78583">
        <ele>1454.2</ele>
        <time>2018-08-19T21:02:22Z</time>
      </trkpt>
      <trkpt lat="-27.834795" lon="-65.785875">
        <ele>1454.3</ele>
        <time>2018-08-19T21:02:26Z</time>
      </trkpt>
      <trkpt lat="-27.834745" lon="-65.78597">
        <ele>1454.6</ele>
        <time>2018-08-19T21:02:31Z</time>
      </trkpt>
      <trkpt lat="-27.83471" lon="-65.786055">
        <ele>1455.2</ele>
        <time>2018-08-19T21:02:35Z</time>
      </trkpt>
      <trkpt lat="-27.83468" lon="-65.786135">
        <ele>1455.8</ele>
        <time>2018-08-19T21:02:39Z</time>
      </trkpt>
      <trkpt lat="-27.83466" lon="-65.78623">
        <ele>1456.3</ele>
        <time>2018-08-19T21:02:43Z</time>
      </trkpt>
      <trkpt lat="-27.834635" lon="-65.78632">
        <ele>1456.8</ele>
        <time>2018-08-19T21:02:47Z</time>
      </trkpt>
      <trkpt lat="-27.834615" lon="-65.78641">
        <ele>1457.4</ele>
        <time>2018-08-19T21:02:51Z</time>
      </trkpt>
      <trkpt lat="-27.83459" lon="-65.7865">
        <ele>1457.8</ele>
        <time>2018-08-19T21:02:55Z</time>
      </trkpt>
      <trkpt lat="-27.83456" lon="-65.78659">
        <ele>1458.3</ele>
        <time>2018-08-19T21:02:59Z</time>
      </trkpt>
      <trkpt lat="-27.83453" lon="-65.78667">
        <ele>1458.7</ele>
        <time>2018-08-19T21:03:03Z</time>
      </trkpt>
      <trkpt lat="-27.83447" lon="-65.78673">
        <ele>1458.9</ele>
        <time>2018-08-19T21:03:07Z</time>
      </trkpt>
      <trkpt lat="-27.834415" lon="-65.786805">
        <ele>1459.0</ele>
        <time>2018-08-19T21:03:12Z</time>
      </trkpt>
      <trkpt lat="-27.834365" lon="-65.78685">
        <ele>1459.2</ele>
        <time>2018-08-19T21:03:19Z</time>
      </trkpt>
      <trkpt lat="-27.834295" lon="-65.78684">
        <ele>1459.1</ele>
        <time>2018-08-19T21:03:26Z</time>
      </trkpt>
      <trkpt lat="-27.834215" lon="-65.786815">
        <ele>1458.7</ele>
        <time>2018-08-19T21:03:30Z</time>
      </trkpt>
      <trkpt lat="-27.83415" lon="-65.786775">
        <ele>1458.4</ele>
        <time>2018-08-19T21:03:35Z</time>
      </trkpt>
      <trkpt lat="-27.834075" lon="-65.78673">
        <ele>1458.5</ele>
        <time>2018-08-19T21:03:41Z</time>
      </trkpt>
      <trkpt lat="-27.833995" lon="-65.78672">
        <ele>1458.6</ele>
        <time>2018-08-19T21:03:45Z</time>
      </trkpt>
      <trkpt lat="-27.833925" lon="-65.786715">
        <ele>1458.7</ele>
        <time>2018-08-19T21:03:49Z</time>
      </trkpt>
      <trkpt lat="-27.83384" lon="-65.78673">
        <ele>1458.7</ele>
        <time>2018-08-19T21:03:54Z</time>
      </trkpt>
      <trkpt lat="-27.83376" lon="-65.78673">
        <ele>1458.7</ele>
        <time>2018-08-19T21:03:59Z</time>
      </trkpt>
      <trkpt lat="-27.83369" lon="-65.786775">
        <ele>1458.9</ele>
        <time>2018-08-19T21:04:04Z</time>
      </trkpt>
      <trkpt lat="-27.83361" lon="-65.786815">
        <ele>1459.2</ele>
        <time>2018-08-19T21:04:09Z</time>
      </trkpt>
      <trkpt lat="-27.833545" lon="-65.78686">
        <ele>1459.3</ele>
        <time>2018-08-19T21:04:13Z</time>
      </trkpt>
      <trkpt lat="-27.833485" lon="-65.786925">
        <ele>1459.3</ele>
        <time>2018-08-19T21:04:18Z</time>
      </trkpt>
      <trkpt lat="-27.833425" lon="-65.78698">
        <ele>1459.3</ele>
        <time>2018-08-19T21:04:23Z</time>
      </trkpt>
      <trkpt lat="-27.833365" lon="-65.78704">
        <ele>1459.4</ele>
        <time>2018-08-19T21:04:28Z</time>
      </trkpt>
      <trkpt lat="-27.833315" lon="-65.787105">
        <ele>1459.5</ele>
        <time>2018-08-19T21:04:33Z</time>
      </trkpt>
      <trkpt lat="-27.83326" lon="-65.78718">
        <ele>1460.0</ele>
        <time>2018-08-19T21:04:39Z</time>
      </trkpt>
      <trkpt lat="-27.83321" lon="-65.787245">
        <ele>1460.7</ele>
        <time>2018-08-19T21:04:44Z</time>
      </trkpt>
      <trkpt lat="-27.833165" lon="-65.787305">
        <ele>1461.6</ele>
        <time>2018-08-19T21:04:49Z</time>
      </trkpt>
      <trkpt lat="-27.833115" lon="-65.78735">
        <ele>1462.5</ele>
        <time>2018-08-19T21:04:54Z</time>
      </trkpt>
      <trkpt lat="-27.83306" lon="-65.78743">
        <ele>1463.3</ele>
        <time>2018-08-19T21:04:59Z</time>
      </trkpt>
      <trkpt lat="-27.83301" lon="-65.78749">
        <ele>1464.3</ele>
        <time>2018-08-19T21:05:05Z</time>
      </trkpt>
      <trkpt lat="-27.832945" lon="-65.787555">
        <ele>1465.0</ele>
        <time>2018-08-19T21:05:10Z</time>
      </trkpt>
      <trkpt lat="-27.83288" lon="-65.78762">
        <ele>1465.5</ele>
        <time>2018-08-19T21:05:16Z</time>
      </trkpt>
      <trkpt lat="-27.832805" lon="-65.787655">
        <ele>1466.1</ele>
        <time>2018-08-19T21:05:22Z</time>
      </trkpt>
      <trkpt lat="-27.832725" lon="-65.7877">
        <ele>1466.5</ele>
        <time>2018-08-19T21:05:28Z</time>
      </trkpt>
      <trkpt lat="-27.832655" lon="-65.787715">
        <ele>1466.7</ele>
        <time>2018-08-19T21:05:33Z</time>
      </trkpt>
      <trkpt lat="-27.83259" lon="-65.78776">
        <ele>1466.8</ele>
        <time>2018-08-19T21:05:38Z</time>
      </trkpt>
      <trkpt lat="-27.832515" lon="-65.7878">
        <ele>1467.3</ele>
        <time>2018-08-19T21:05:43Z</time>
      </trkpt>
      <trkpt lat="-27.832435" lon="-65.787835">
        <ele>1467.9</ele>
        <time>2018-08-19T21:05:48Z</time>
      </trkpt>
      <trkpt lat="-27.832365" lon="-65.787845">
        <ele>1468.4</ele>
        <time>2018-08-19T21:05:52Z</time>
      </trkpt>
      <trkpt lat="-27.8323" lon="-65.78788166666666">
        <ele>1468.8</ele>
        <time>2018-08-19T21:05:56Z</time>
      </trkpt>
      <trkpt lat="-27.832225" lon="-65.78793">
        <ele>1468.8</ele>
        <time>2018-08-19T21:06:00Z</time>
      </trkpt>
      <trkpt lat="-27.83215" lon="-65.787975">
        <ele>1469.1</ele>
        <time>2018-08-19T21:06:05Z</time>
      </trkpt>
      <trkpt lat="-27.832075" lon="-65.788005">
        <ele>1469.6</ele>
        <time>2018-08-19T21:06:09Z</time>
      </trkpt>
      <trkpt lat="-27.832" lon="-65.788025">
        <ele>1470.1</ele>
        <time>2018-08-19T21:06:13Z</time>
      </trkpt>
      <trkpt lat="-27.83192" lon="-65.78807">
        <ele>1471.0</ele>
        <time>2018-08-19T21:06:20Z</time>
      </trkpt>
      <trkpt lat="-27.831879999999998" lon="-65.78807">
        <ele>1471.7</ele>
        <time>2018-08-19T21:06:27Z</time>
      </trkpt>
      <trkpt lat="-27.831879999999998" lon="-65.78807">
        <ele>1471.8</ele>
        <time>2018-08-19T21:06:29Z</time>
      </trkpt>
      <trkpt lat="-27.831875" lon="-65.78807">
        <ele>1472.6</ele>
        <time>2018-08-19T21:06:45Z</time>
      </trkpt>
      <trkpt lat="-27.83187" lon="-65.78809">
        <ele>1472.6</ele>
        <time>2018-08-19T21:06:46Z</time>
      </trkpt>
      <trkpt lat="-27.831795" lon="-65.788135">
        <ele>1472.7</ele>
        <time>2018-08-19T21:06:51Z</time>
      </trkpt>
      <trkpt lat="-27.831725" lon="-65.788165">
        <ele>1472.9</ele>
        <time>2018-08-19T21:06:55Z</time>
      </trkpt>
      <trkpt lat="-27.83164" lon="-65.78821">
        <ele>1473.2</ele>
        <time>2018-08-19T21:06:59Z</time>
      </trkpt>
      <trkpt lat="-27.831565" lon="-65.78825">
        <ele>1473.5</ele>
        <time>2018-08-19T21:07:03Z</time>
      </trkpt>
      <trkpt lat="-27.83148" lon="-65.788295">
        <ele>1473.8</ele>
        <time>2018-08-19T21:07:07Z</time>
      </trkpt>
      <trkpt lat="-27.831405" lon="-65.788335">
        <ele>1473.7</ele>
        <time>2018-08-19T21:07:11Z</time>
      </trkpt>
      <trkpt lat="-27.831325" lon="-65.78839">
        <ele>1473.3</ele>
        <time>2018-08-19T21:07:15Z</time>
      </trkpt>
      <trkpt lat="-27.83124" lon="-65.788435">
        <ele>1472.8</ele>
        <time>2018-08-19T21:07:19Z</time>
      </trkpt>
      <trkpt lat="-27.831185" lon="-65.788475">
        <ele>1472.4</ele>
        <time>2018-08-19T21:07:22Z</time>
      </trkpt>
      <trkpt lat="-27.83111" lon="-65.78851">
        <ele>1472.1</ele>
        <time>2018-08-19T21:07:25Z</time>
      </trkpt>
      <trkpt lat="-27.831035" lon="-65.78854">
        <ele>1472.0</ele>
        <time>2018-08-19T21:07:28Z</time>
      </trkpt>
      <trkpt lat="-27.83096" lon="-65.78856">
        <ele>1472.2</ele>
        <time>2018-08-19T21:07:31Z</time>
      </trkpt>
      <trkpt lat="-27.83089" lon="-65.788585">
        <ele>1472.5</ele>
        <time>2018-08-19T21:07:34Z</time>
      </trkpt>
      <trkpt lat="-27.830815" lon="-65.788605">
        <ele>1472.7</ele>
        <time>2018-08-19T21:07:37Z</time>
      </trkpt>
      <trkpt lat="-27.83073" lon="-65.78865166666667">
        <ele>1473.1</ele>
        <time>2018-08-19T21:07:41Z</time>
      </trkpt>
      <trkpt lat="-27.830635" lon="-65.788715">
        <ele>1473.2</ele>
        <time>2018-08-19T21:07:45Z</time>
      </trkpt>
      <trkpt lat="-27.830575" lon="-65.788745">
        <ele>1473.5</ele>
        <time>2018-08-19T21:07:48Z</time>
      </trkpt>
      <trkpt lat="-27.830505" lon="-65.78878">
        <ele>1473.6</ele>
        <time>2018-08-19T21:07:51Z</time>
      </trkpt>
      <trkpt lat="-27.830424999999998" lon="-65.78883">
        <ele>1473.6</ele>
        <time>2018-08-19T21:07:55Z</time>
      </trkpt>
      <trkpt lat="-27.83035" lon="-65.78886">
        <ele>1473.6</ele>
        <time>2018-08-19T21:07:58Z</time>
      </trkpt>
      <trkpt lat="-27.830255" lon="-65.788905">
        <ele>1473.5</ele>
        <time>2018-08-19T21:08:02Z</time>
      </trkpt>
      <trkpt lat="-27.83018" lon="-65.78894">
        <ele>1473.4</ele>
        <time>2018-08-19T21:08:06Z</time>
      </trkpt>
      <trkpt lat="-27.830095" lon="-65.78897">
        <ele>1473.3</ele>
        <time>2018-08-19T21:08:10Z</time>
      </trkpt>
      <trkpt lat="-27.830015" lon="-65.78901">
        <ele>1473.3</ele>
        <time>2018-08-19T21:08:14Z</time>
      </trkpt>
      <trkpt lat="-27.829935" lon="-65.789055">
        <ele>1473.2</ele>
        <time>2018-08-19T21:08:18Z</time>
      </trkpt>
      <trkpt lat="-27.82986" lon="-65.78909">
        <ele>1473.1</ele>
        <time>2018-08-19T21:08:22Z</time>
      </trkpt>
      <trkpt lat="-27.82979" lon="-65.78914">
        <ele>1473.2</ele>
        <time>2018-08-19T21:08:26Z</time>
      </trkpt>
      <trkpt lat="-27.829715" lon="-65.789185">
        <ele>1473.2</ele>
        <time>2018-08-19T21:08:30Z</time>
      </trkpt>
      <trkpt lat="-27.82964" lon="-65.78923">
        <ele>1473.3</ele>
        <time>2018-08-19T21:08:35Z</time>
      </trkpt>
      <trkpt lat="-27.829555" lon="-65.78926">
        <ele>1473.4</ele>
        <time>2018-08-19T21:08:40Z</time>
      </trkpt>
      <trkpt lat="-27.829475" lon="-65.789305">
        <ele>1473.5</ele>
        <time>2018-08-19T21:08:45Z</time>
      </trkpt>
      <trkpt lat="-27.829405" lon="-65.78932">
        <ele>1473.6</ele>
        <time>2018-08-19T21:08:49Z</time>
      </trkpt>
      <trkpt lat="-27.829335" lon="-65.789375">
        <ele>1473.7</ele>
        <time>2018-08-19T21:08:53Z</time>
      </trkpt>
      <trkpt lat="-27.82926" lon="-65.78941">
        <ele>1473.7</ele>
        <time>2018-08-19T21:08:57Z</time>
      </trkpt>
      <trkpt lat="-27.82919" lon="-65.78944">
        <ele>1473.8</ele>
        <time>2018-08-19T21:09:01Z</time>
      </trkpt>
      <trkpt lat="-27.82912" lon="-65.78946">
        <ele>1474.0</ele>
        <time>2018-08-19T21:09:05Z</time>
      </trkpt>
      <trkpt lat="-27.829045" lon="-65.789505">
        <ele>1474.2</ele>
        <time>2018-08-19T21:09:09Z</time>
      </trkpt>
      <trkpt lat="-27.828969999999998" lon="-65.789545">
        <ele>1474.6</ele>
        <time>2018-08-19T21:09:14Z</time>
      </trkpt>
      <trkpt lat="-27.828895" lon="-65.78957">
        <ele>1475.3</ele>
        <time>2018-08-19T21:09:18Z</time>
      </trkpt>
      <trkpt lat="-27.82882" lon="-65.78962">
        <ele>1475.9</ele>
        <time>2018-08-19T21:09:23Z</time>
      </trkpt>
      <trkpt lat="-27.82876" lon="-65.789675">
        <ele>1476.2</ele>
        <time>2018-08-19T21:09:28Z</time>
      </trkpt>
      <trkpt lat="-27.828705" lon="-65.78973">
        <ele>1476.1</ele>
        <time>2018-08-19T21:09:32Z</time>
      </trkpt>
      <trkpt lat="-27.82866" lon="-65.789815">
        <ele>1476.4</ele>
        <time>2018-08-19T21:09:36Z</time>
      </trkpt>
      <trkpt lat="-27.82862" lon="-65.78989">
        <ele>1476.8</ele>
        <time>2018-08-19T21:09:39Z</time>
      </trkpt>
      <trkpt lat="-27.82859" lon="-65.789955">
        <ele>1477.5</ele>
        <time>2018-08-19T21:09:43Z</time>
      </trkpt>
      <trkpt lat="-27.828585" lon="-65.79004">
        <ele>1478.3</ele>
        <time>2018-08-19T21:09:47Z</time>
      </trkpt>
      <trkpt lat="-27.828585" lon="-65.790135">
        <ele>1479.2</ele>
        <time>2018-08-19T21:09:51Z</time>
      </trkpt>
      <trkpt lat="-27.82863" lon="-65.790135">
        <ele>1480.6</ele>
        <time>2018-08-19T21:09:58Z</time>
      </trkpt>
      <trkpt lat="-27.82863" lon="-65.790135">
        <ele>1481.2</ele>
        <time>2018-08-19T21:10:03Z</time>
      </trkpt>
      <trkpt lat="-27.82865" lon="-65.790135">
        <ele>1483.3</ele>
        <time>2018-08-19T21:10:23Z</time>
      </trkpt>
      <trkpt lat="-27.828645" lon="-65.790135">
        <ele>1483.3</ele>
        <time>2018-08-19T21:10:24Z</time>
      </trkpt>
      <trkpt lat="-27.828645" lon="-65.790125">
        <ele>1484.0</ele>
        <time>2018-08-19T21:10:40Z</time>
      </trkpt>
      <trkpt lat="-27.82864" lon="-65.790125">
        <ele>1484.0</ele>
        <time>2018-08-19T21:10:41Z</time>
      </trkpt>
      <trkpt lat="-27.82868" lon="-65.79022">
        <ele>1484.1</ele>
        <time>2018-08-19T21:10:46Z</time>
      </trkpt>
      <trkpt lat="-27.828715" lon="-65.790305">
        <ele>1484.2</ele>
        <time>2018-08-19T21:10:50Z</time>
      </trkpt>
      <trkpt lat="-27.828785" lon="-65.79035">
        <ele>1484.6</ele>
        <time>2018-08-19T21:10:54Z</time>
      </trkpt>
      <trkpt lat="-27.828865" lon="-65.790385">
        <ele>1485.0</ele>
        <time>2018-08-19T21:11:00Z</time>
      </trkpt>
      <trkpt lat="-27.82892" lon="-65.790445">
        <ele>1485.2</ele>
        <time>2018-08-19T21:11:04Z</time>
      </trkpt>
      <trkpt lat="-27.828985" lon="-65.790485">
        <ele>1485.2</ele>
        <time>2018-08-19T21:11:07Z</time>
      </trkpt>
      <trkpt lat="-27.829045" lon="-65.79053">
        <ele>1485.2</ele>
        <time>2018-08-19T21:11:10Z</time>
      </trkpt>
      <trkpt lat="-27.82914" lon="-65.7906">
        <ele>1485.2</ele>
        <time>2018-08-19T21:11:13Z</time>
      </trkpt>
      <trkpt lat="-27.82921" lon="-65.790625">
        <ele>1485.4</ele>
        <time>2018-08-19T21:11:15Z</time>
      </trkpt>
      <trkpt lat="-27.829285" lon="-65.790695">
        <ele>1484.5</ele>
        <time>2018-08-19T21:11:17Z</time>
      </trkpt>
      <trkpt lat="-27.82937" lon="-65.79075">
        <ele>1484.1</ele>
        <time>2018-08-19T21:11:19Z</time>
      </trkpt>
      <trkpt lat="-27.82946" lon="-65.7908">
        <ele>1484.4</ele>
        <time>2018-08-19T21:11:21Z</time>
      </trkpt>
      <trkpt lat="-27.829555" lon="-65.790875">
        <ele>1484.6</ele>
        <time>2018-08-19T21:11:23Z</time>
      </trkpt>
      <trkpt lat="-27.82965" lon="-65.79094">
        <ele>1485.1</ele>
        <time>2018-08-19T21:11:25Z</time>
      </trkpt>
      <trkpt lat="-27.829755" lon="-65.791025">
        <ele>1485.6</ele>
        <time>2018-08-19T21:11:27Z</time>
      </trkpt>
      <trkpt lat="-27.82986" lon="-65.79112">
        <ele>1485.3</ele>
        <time>2018-08-19T21:11:29Z</time>
      </trkpt>
      <trkpt lat="-27.829975" lon="-65.791205">
        <ele>1484.7</ele>
        <time>2018-08-19T21:11:31Z</time>
      </trkpt>
      <trkpt lat="-27.830065" lon="-65.79125">
        <ele>1484.2</ele>
        <time>2018-08-19T21:11:33Z</time>
      </trkpt>
      <trkpt lat="-27.830175" lon="-65.791335">
        <ele>1484.0</ele>
        <time>2018-08-19T21:11:35Z</time>
      </trkpt>
      <trkpt lat="-27.830255" lon="-65.79138">
        <ele>1484.8</ele>
        <time>2018-08-19T21:11:37Z</time>
      </trkpt>
      <trkpt lat="-27.83035" lon="-65.791425">
        <ele>1485.6</ele>
        <time>2018-08-19T21:11:39Z</time>
      </trkpt>
      <trkpt lat="-27.83042" lon="-65.791475">
        <ele>1485.8</ele>
        <time>2018-08-19T21:11:42Z</time>
      </trkpt>
      <trkpt lat="-27.830485" lon="-65.79154">
        <ele>1485.9</ele>
        <time>2018-08-19T21:11:45Z</time>
      </trkpt>
      <trkpt lat="-27.83056" lon="-65.791605">
        <ele>1486.1</ele>
        <time>2018-08-19T21:11:51Z</time>
      </trkpt>
      <trkpt lat="-27.830635" lon="-65.791655">
        <ele>1486.1</ele>
        <time>2018-08-19T21:11:55Z</time>
      </trkpt>
      <trkpt lat="-27.830705000000002" lon="-65.7917">
        <ele>1485.8</ele>
        <time>2018-08-19T21:11:58Z</time>
      </trkpt>
      <trkpt lat="-27.830775" lon="-65.791775">
        <ele>1485.5</ele>
        <time>2018-08-19T21:12:02Z</time>
      </trkpt>
      <trkpt lat="-27.83084" lon="-65.79182166666666">
        <ele>1485.3</ele>
        <time>2018-08-19T21:12:06Z</time>
      </trkpt>
      <trkpt lat="-27.830895" lon="-65.791905">
        <ele>1485.2</ele>
        <time>2018-08-19T21:12:10Z</time>
      </trkpt>
      <trkpt lat="-27.830945" lon="-65.791965">
        <ele>1485.3</ele>
        <time>2018-08-19T21:12:15Z</time>
      </trkpt>
      <trkpt lat="-27.830995" lon="-65.792045">
        <ele>1485.4</ele>
        <time>2018-08-19T21:12:19Z</time>
      </trkpt>
      <trkpt lat="-27.83104" lon="-65.792125">
        <ele>1485.7</ele>
        <time>2018-08-19T21:12:23Z</time>
      </trkpt>
      <trkpt lat="-27.83108" lon="-65.79219">
        <ele>1485.9</ele>
        <time>2018-08-19T21:12:27Z</time>
      </trkpt>
      <trkpt lat="-27.831125" lon="-65.792275">
        <ele>1486.0</ele>
        <time>2018-08-19T21:12:32Z</time>
      </trkpt>
      <trkpt lat="-27.831165" lon="-65.792345">
        <ele>1486.5</ele>
        <time>2018-08-19T21:12:37Z</time>
      </trkpt>
      <trkpt lat="-27.831215" lon="-65.792415">
        <ele>1486.8</ele>
        <time>2018-08-19T21:12:42Z</time>
      </trkpt>
      <trkpt lat="-27.831275" lon="-65.79248">
        <ele>1487.0</ele>
        <time>2018-08-19T21:12:47Z</time>
      </trkpt>
      <trkpt lat="-27.831315" lon="-65.792545">
        <ele>1486.9</ele>
        <time>2018-08-19T21:12:51Z</time>
      </trkpt>
      <trkpt lat="-27.831355" lon="-65.79263">
        <ele>1486.7</ele>
        <time>2018-08-19T21:12:55Z</time>
      </trkpt>
      <trkpt lat="-27.831395" lon="-65.792705">
        <ele>1486.6</ele>
        <time>2018-08-19T21:13:00Z</time>
      </trkpt>
      <trkpt lat="-27.83145" lon="-65.79277">
        <ele>1486.3</ele>
        <time>2018-08-19T21:13:04Z</time>
      </trkpt>
      <trkpt lat="-27.831505" lon="-65.792855">
        <ele>1485.8</ele>
        <time>2018-08-19T21:13:09Z</time>
      </trkpt>
      <trkpt lat="-27.831565" lon="-65.79291">
        <ele>1485.3</ele>
        <time>2018-08-19T21:13:13Z</time>
      </trkpt>
      <trkpt lat="-27.83161" lon="-65.792995">
        <ele>1484.9</ele>
        <time>2018-08-19T21:13:17Z</time>
      </trkpt>
      <trkpt lat="-27.83162" lon="-65.79309">
        <ele>1484.6</ele>
        <time>2018-08-19T21:13:21Z</time>
      </trkpt>
      <trkpt lat="-27.83166" lon="-65.79317">
        <ele>1484.6</ele>
        <time>2018-08-19T21:13:25Z</time>
      </trkpt>
      <trkpt lat="-27.831695" lon="-65.793255">
        <ele>1484.7</ele>
        <time>2018-08-19T21:13:28Z</time>
      </trkpt>
      <trkpt lat="-27.831705" lon="-65.79334">
        <ele>1484.8</ele>
        <time>2018-08-19T21:13:31Z</time>
      </trkpt>
      <trkpt lat="-27.831715" lon="-65.793425">
        <ele>1484.9</ele>
        <time>2018-08-19T21:13:34Z</time>
      </trkpt>
      <trkpt lat="-27.831705" lon="-65.79352">
        <ele>1485.2</ele>
        <time>2018-08-19T21:13:37Z</time>
      </trkpt>
      <trkpt lat="-27.831695" lon="-65.793625">
        <ele>1485.4</ele>
        <time>2018-08-19T21:13:41Z</time>
      </trkpt>
      <trkpt lat="-27.83166" lon="-65.79371">
        <ele>1485.5</ele>
        <time>2018-08-19T21:13:45Z</time>
      </trkpt>
      <trkpt lat="-27.831605" lon="-65.793785">
        <ele>1485.4</ele>
        <time>2018-08-19T21:13:49Z</time>
      </trkpt>
      <trkpt lat="-27.831545" lon="-65.793835">
        <ele>1485.2</ele>
        <time>2018-08-19T21:13:52Z</time>
      </trkpt>
      <trkpt lat="-27.83148" lon="-65.793875">
        <ele>1485.1</ele>
        <time>2018-08-19T21:13:55Z</time>
      </trkpt>
      <trkpt lat="-27.831409999999998" lon="-65.793915">
        <ele>1485.0</ele>
        <time>2018-08-19T21:13:58Z</time>
      </trkpt>
      <trkpt lat="-27.83134" lon="-65.793935">
        <ele>1484.9</ele>
        <time>2018-08-19T21:14:01Z</time>
      </trkpt>
      <trkpt lat="-27.831265" lon="-65.79397">
        <ele>1484.8</ele>
        <time>2018-08-19T21:14:04Z</time>
      </trkpt>
      <trkpt lat="-27.83118" lon="-65.79398">
        <ele>1484.7</ele>
        <time>2018-08-19T21:14:08Z</time>
      </trkpt>
      <trkpt lat="-27.83109" lon="-65.794">
        <ele>1484.6</ele>
        <time>2018-08-19T21:14:12Z</time>
      </trkpt>
      <trkpt lat="-27.831015" lon="-65.794">
        <ele>1484.7</ele>
        <time>2018-08-19T21:14:15Z</time>
      </trkpt>
      <trkpt lat="-27.83094" lon="-65.794">
        <ele>1484.7</ele>
        <time>2018-08-19T21:14:18Z</time>
      </trkpt>
      <trkpt lat="-27.830855" lon="-65.794">
        <ele>1484.8</ele>
        <time>2018-08-19T21:14:21Z</time>
      </trkpt>
      <trkpt lat="-27.83077" lon="-65.79398">
        <ele>1485.2</ele>
        <time>2018-08-19T21:14:25Z</time>
      </trkpt>
      <trkpt lat="-27.830695" lon="-65.793935">
        <ele>1485.4</ele>
        <time>2018-08-19T21:14:28Z</time>
      </trkpt>
      <trkpt lat="-27.83063" lon="-65.793925">
        <ele>1485.6</ele>
        <time>2018-08-19T21:14:31Z</time>
      </trkpt>
      <trkpt lat="-27.83053" lon="-65.793875">
        <ele>1485.9</ele>
        <time>2018-08-19T21:14:35Z</time>
      </trkpt>
      <trkpt lat="-27.830465" lon="-65.79382">
        <ele>1486.2</ele>
        <time>2018-08-19T21:14:39Z</time>
      </trkpt>
      <trkpt lat="-27.830405" lon="-65.793755">
        <ele>1486.4</ele>
        <time>2018-08-19T21:14:42Z</time>
      </trkpt>
      <trkpt lat="-27.83035" lon="-65.79371">
        <ele>1486.6</ele>
        <time>2018-08-19T21:14:46Z</time>
      </trkpt>
      <trkpt lat="-27.830295" lon="-65.79364">
        <ele>1486.8</ele>
        <time>2018-08-19T21:14:49Z</time>
      </trkpt>
      <trkpt lat="-27.830245" lon="-65.793565">
        <ele>1487.1</ele>
        <time>2018-08-19T21:14:53Z</time>
      </trkpt>
      <trkpt lat="-27.830185" lon="-65.79351">
        <ele>1487.1</ele>
        <time>2018-08-19T21:14:58Z</time>
      </trkpt>
      <trkpt lat="-27.830135" lon="-65.793445">
        <ele>1486.9</ele>
        <time>2018-08-19T21:15:03Z</time>
      </trkpt>
      <trkpt lat="-27.830055" lon="-65.7934">
        <ele>1486.8</ele>
        <time>2018-08-19T21:15:08Z</time>
      </trkpt>
      <trkpt lat="-27.82998" lon="-65.79339">
        <ele>1486.9</ele>
        <time>2018-08-19T21:15:12Z</time>
      </trkpt>
      <trkpt lat="-27.82991" lon="-65.79339">
        <ele>1487.1</ele>
        <time>2018-08-19T21:15:16Z</time>
      </trkpt>
      <trkpt lat="-27.829835" lon="-65.7934">
        <ele>1487.3</ele>
        <time>2018-08-19T21:15:20Z</time>
      </trkpt>
      <trkpt lat="-27.82977" lon="-65.79347">
        <ele>1487.4</ele>
        <time>2018-08-19T21:15:24Z</time>
      </trkpt>
      <trkpt lat="-27.829720000000002" lon="-65.79353">
        <ele>1487.5</ele>
        <time>2018-08-19T21:15:27Z</time>
      </trkpt>
      <trkpt lat="-27.82968" lon="-65.793595">
        <ele>1487.6</ele>
        <time>2018-08-19T21:15:30Z</time>
      </trkpt>
      <trkpt lat="-27.82963" lon="-65.79367">
        <ele>1487.6</ele>
        <time>2018-08-19T21:15:34Z</time>
      </trkpt>
      <trkpt lat="-27.82958" lon="-65.793755">
        <ele>1487.8</ele>
        <time>2018-08-19T21:15:38Z</time>
      </trkpt>
      <trkpt lat="-27.829535" lon="-65.79384">
        <ele>1487.8</ele>
        <time>2018-08-19T21:15:42Z</time>
      </trkpt>
      <trkpt lat="-27.82946" lon="-65.793915">
        <ele>1487.8</ele>
        <time>2018-08-19T21:15:46Z</time>
      </trkpt>
      <trkpt lat="-27.829415" lon="-65.79396">
        <ele>1487.7</ele>
        <time>2018-08-19T21:15:49Z</time>
      </trkpt>
      <trkpt lat="-27.829335" lon="-65.794">
        <ele>1487.7</ele>
        <time>2018-08-19T21:15:53Z</time>
      </trkpt>
      <trkpt lat="-27.829250000000002" lon="-65.794">
        <ele>1487.8</ele>
        <time>2018-08-19T21:15:58Z</time>
      </trkpt>
      <trkpt lat="-27.829235" lon="-65.794">
        <ele>1487.9</ele>
        <time>2018-08-19T21:16:05Z</time>
      </trkpt>
      <trkpt lat="-27.829235" lon="-65.79398">
        <ele>1488.5</ele>
        <time>2018-08-19T21:16:40Z</time>
      </trkpt>
      <trkpt lat="-27.829235" lon="-65.79398">
        <ele>1488.5</ele>
        <time>2018-08-19T21:16:41Z</time>
      </trkpt>
      <trkpt lat="-27.829235" lon="-65.79397">
        <ele>1488.4</ele>
        <time>2018-08-19T21:16:51Z</time>
      </trkpt>
      <trkpt lat="-27.829235" lon="-65.79397">
        <ele>1488.3</ele>
        <time>2018-08-19T21:16:52Z</time>
      </trkpt>
      <trkpt lat="-27.82923" lon="-65.79398">
        <ele>1487.8</ele>
        <time>2018-08-19T21:17:03Z</time>
      </trkpt>
      <trkpt lat="-27.829225" lon="-65.79398">
        <ele>1487.8</ele>
        <time>2018-08-19T21:17:03Z</time>
      </trkpt>
      <trkpt lat="-27.82921" lon="-65.79398">
        <ele>1488.3</ele>
        <time>2018-08-19T21:17:13Z</time>
      </trkpt>
      <trkpt lat="-27.8292" lon="-65.79397">
        <ele>1488.7</ele>
        <time>2018-08-19T21:17:14Z</time>
      </trkpt>
      <trkpt lat="-27.82923" lon="-65.79396">
        <ele>1490.6</ele>
        <time>2018-08-19T21:17:23Z</time>
      </trkpt>
      <trkpt lat="-27.829225" lon="-65.79396">
        <ele>1490.6</ele>
        <time>2018-08-19T21:17:25Z</time>
      </trkpt>
      <trkpt lat="-27.8292" lon="-65.79398">
        <ele>1491.4</ele>
        <time>2018-08-19T21:17:46Z</time>
      </trkpt>
      <trkpt lat="-27.8292" lon="-65.79398">
        <ele>1491.2</ele>
        <time>2018-08-19T21:17:47Z</time>
      </trkpt>
      <trkpt lat="-27.8292" lon="-65.79398">
        <ele>1491.4</ele>
        <time>2018-08-19T21:17:58Z</time>
      </trkpt>
      <trkpt lat="-27.8292" lon="-65.79398">
        <ele>1491.4</ele>
        <time>2018-08-19T21:17:59Z</time>
      </trkpt>
      <trkpt lat="-27.82922" lon="-65.79398">
        <ele>1491.5</ele>
        <time>2018-08-19T21:18:07Z</time>
      </trkpt>
      <trkpt lat="-27.82922" lon="-65.79398">
        <ele>1491.5</ele>
        <time>2018-08-19T21:18:08Z</time>
      </trkpt>
      <trkpt lat="-27.8292" lon="-65.79397">
        <ele>1491.3</ele>
        <time>2018-08-19T21:18:17Z</time>
      </trkpt>
      <trkpt lat="-27.8292" lon="-65.79397">
        <ele>1491.2</ele>
        <time>2018-08-19T21:18:18Z</time>
      </trkpt>
      <trkpt lat="-27.829215" lon="-65.79398">
        <ele>1490.6</ele>
        <time>2018-08-19T21:18:30Z</time>
      </trkpt>
      <trkpt lat="-27.829215" lon="-65.79398">
        <ele>1490.6</ele>
        <time>2018-08-19T21:18:31Z</time>
      </trkpt>
      <trkpt lat="-27.82922" lon="-65.794">
        <ele>1489.9</ele>
        <time>2018-08-19T21:18:43Z</time>
      </trkpt>
      <trkpt lat="-27.829215" lon="-65.794">
        <ele>1489.9</ele>
        <time>2018-08-19T21:18:44Z</time>
      </trkpt>
      <trkpt lat="-27.829235" lon="-65.793975">
        <ele>1489.3</ele>
        <time>2018-08-19T21:18:54Z</time>
      </trkpt>
      <trkpt lat="-27.829245" lon="-65.793975">
        <ele>1489.3</ele>
        <time>2018-08-19T21:18:55Z</time>
      </trkpt>
      <trkpt lat="-27.829235" lon="-65.794">
        <ele>1488.8</ele>
        <time>2018-08-19T21:19:08Z</time>
      </trkpt>
      <trkpt lat="-27.829235" lon="-65.79398">
        <ele>1488.8</ele>
        <time>2018-08-19T21:19:09Z</time>
      </trkpt>
      <trkpt lat="-27.82921" lon="-65.79398">
        <ele>1488.6</ele>
        <time>2018-08-19T21:19:18Z</time>
      </trkpt>
      <trkpt lat="-27.8292" lon="-65.79398">
        <ele>1488.6</ele>
        <time>2018-08-19T21:19:19Z</time>
      </trkpt>
      <trkpt lat="-27.8292" lon="-65.79398">
        <ele>1488.9</ele>
        <time>2018-08-19T21:19:28Z</time>
      </trkpt>
      <trkpt lat="-27.8292" lon="-65.79398">
        <ele>1488.9</ele>
        <time>2018-08-19T21:19:29Z</time>
      </trkpt>
      <trkpt lat="-27.8292" lon="-65.794">
        <ele>1487.7</ele>
        <time>2018-08-19T21:19:43Z</time>
      </trkpt>
      <trkpt lat="-27.8292" lon="-65.794">
        <ele>1487.8</ele>
        <time>2018-08-19T21:19:44Z</time>
      </trkpt>
      <trkpt lat="-27.829195" lon="-65.79401">
        <ele>1487.4</ele>
        <time>2018-08-19T21:19:55Z</time>
      </trkpt>
      <trkpt lat="-27.829195" lon="-65.79401">
        <ele>1487.4</ele>
        <time>2018-08-19T21:19:56Z</time>
      </trkpt>
      <trkpt lat="-27.8292" lon="-65.794015">
        <ele>1487.3</ele>
        <time>2018-08-19T21:20:08Z</time>
      </trkpt>
      <trkpt lat="-27.829195" lon="-65.79401">
        <ele>1487.3</ele>
        <time>2018-08-19T21:20:09Z</time>
      </trkpt>
      <trkpt lat="-27.829195" lon="-65.794">
        <ele>1487.4</ele>
        <time>2018-08-19T21:20:19Z</time>
      </trkpt>
      <trkpt lat="-27.82919" lon="-65.79398">
        <ele>1487.4</ele>
        <time>2018-08-19T21:20:20Z</time>
      </trkpt>
      <trkpt lat="-27.82913" lon="-65.794005">
        <ele>1487.6</ele>
        <time>2018-08-19T21:20:28Z</time>
      </trkpt>
      <trkpt lat="-27.829055" lon="-65.794005">
        <ele>1487.6</ele>
        <time>2018-08-19T21:20:33Z</time>
      </trkpt>
      <trkpt lat="-27.828975" lon="-65.794">
        <ele>1487.6</ele>
        <time>2018-08-19T21:20:37Z</time>
      </trkpt>
      <trkpt lat="-27.828895" lon="-65.79398">
        <ele>1487.7</ele>
        <time>2018-08-19T21:20:40Z</time>
      </trkpt>
      <trkpt lat="-27.828815" lon="-65.79398">
        <ele>1487.8</ele>
        <time>2018-08-19T21:20:44Z</time>
      </trkpt>
      <trkpt lat="-27.82874" lon="-65.793975">
        <ele>1488.0</ele>
        <time>2018-08-19T21:20:47Z</time>
      </trkpt>
      <trkpt lat="-27.828665" lon="-65.79396">
        <ele>1488.2</ele>
        <time>2018-08-19T21:20:50Z</time>
      </trkpt>
      <trkpt lat="-27.82859" lon="-65.79396">
        <ele>1488.2</ele>
        <time>2018-08-19T21:20:53Z</time>
      </trkpt>
      <trkpt lat="-27.828495" lon="-65.793935">
        <ele>1488.3</ele>
        <time>2018-08-19T21:20:56Z</time>
      </trkpt>
      <trkpt lat="-27.828415" lon="-65.793935">
        <ele>1488.3</ele>
        <time>2018-08-19T21:20:59Z</time>
      </trkpt>
      <trkpt lat="-27.828335" lon="-65.79393">
        <ele>1488.3</ele>
        <time>2018-08-19T21:21:01Z</time>
      </trkpt>
      <trkpt lat="-27.82825" lon="-65.793915">
        <ele>1488.3</ele>
        <time>2018-08-19T21:21:04Z</time>
      </trkpt>
      <trkpt lat="-27.82816" lon="-65.793885">
        <ele>1488.5</ele>
        <time>2018-08-19T21:21:07Z</time>
      </trkpt>
      <trkpt lat="-27.82807" lon="-65.79385">
        <ele>1488.8</ele>
        <time>2018-08-19T21:21:10Z</time>
      </trkpt>
      <trkpt lat="-27.828005" lon="-65.79379">
        <ele>1489.1</ele>
        <time>2018-08-19T21:21:13Z</time>
      </trkpt>
      <trkpt lat="-27.827945" lon="-65.793735">
        <ele>1489.3</ele>
        <time>2018-08-19T21:21:16Z</time>
      </trkpt>
      <trkpt lat="-27.82787" lon="-65.79367">
        <ele>1489.5</ele>
        <time>2018-08-19T21:21:19Z</time>
      </trkpt>
      <trkpt lat="-27.827795000000002" lon="-65.793605">
        <ele>1489.7</ele>
        <time>2018-08-19T21:21:22Z</time>
      </trkpt>
      <trkpt lat="-27.827715" lon="-65.793555">
        <ele>1489.8</ele>
        <time>2018-08-19T21:21:25Z</time>
      </trkpt>
      <trkpt lat="-27.827625" lon="-65.79353">
        <ele>1489.9</ele>
        <time>2018-08-19T21:21:28Z</time>
      </trkpt>
      <trkpt lat="-27.82753" lon="-65.79353">
        <ele>1490.1</ele>
        <time>2018-08-19T21:21:31Z</time>
      </trkpt>
      <trkpt lat="-27.82744" lon="-65.79356">
        <ele>1490.1</ele>
        <time>2018-08-19T21:21:34Z</time>
      </trkpt>
      <trkpt lat="-27.827365" lon="-65.793595">
        <ele>1490.3</ele>
        <time>2018-08-19T21:21:37Z</time>
      </trkpt>
      <trkpt lat="-27.8273" lon="-65.79367">
        <ele>1490.5</ele>
        <time>2018-08-19T21:21:40Z</time>
      </trkpt>
      <trkpt lat="-27.82726" lon="-65.793745">
        <ele>1490.7</ele>
        <time>2018-08-19T21:21:42Z</time>
      </trkpt>
      <trkpt lat="-27.827225" lon="-65.79382">
        <ele>1490.9</ele>
        <time>2018-08-19T21:21:44Z</time>
      </trkpt>
      <trkpt lat="-27.82719" lon="-65.793925">
        <ele>1491.3</ele>
        <time>2018-08-19T21:21:47Z</time>
      </trkpt>
      <trkpt lat="-27.827145" lon="-65.79402">
        <ele>1493.7</ele>
        <time>2018-08-19T21:21:50Z</time>
      </trkpt>
      <trkpt lat="-27.82711" lon="-65.79412">
        <ele>1495.4</ele>
        <time>2018-08-19T21:21:52Z</time>
      </trkpt>
      <trkpt lat="-27.82707" lon="-65.794205">
        <ele>1496.6</ele>
        <time>2018-08-19T21:21:54Z</time>
      </trkpt>
      <trkpt lat="-27.826995" lon="-65.79429">
        <ele>1497.4</ele>
        <time>2018-08-19T21:21:57Z</time>
      </trkpt>
      <trkpt lat="-27.8269" lon="-65.794345">
        <ele>1497.6</ele>
        <time>2018-08-19T21:22:00Z</time>
      </trkpt>
      <trkpt lat="-27.826825" lon="-65.794345">
        <ele>1497.6</ele>
        <time>2018-08-19T21:22:02Z</time>
      </trkpt>
      <trkpt lat="-27.826745" lon="-65.794345">
        <ele>1497.6</ele>
        <time>2018-08-19T21:22:04Z</time>
      </trkpt>
      <trkpt lat="-27.82668" lon="-65.794325">
        <ele>1497.5</ele>
        <time>2018-08-19T21:22:06Z</time>
      </trkpt>
      <trkpt lat="-27.82658" lon="-65.79429">
        <ele>1497.4</ele>
        <time>2018-08-19T21:22:09Z</time>
      </trkpt>
      <trkpt lat="-27.826485" lon="-65.79427">
        <ele>1497.4</ele>
        <time>2018-08-19T21:22:12Z</time>
      </trkpt>
      <trkpt lat="-27.82641" lon="-65.794245">
        <ele>1497.4</ele>
        <time>2018-08-19T21:22:15Z</time>
      </trkpt>
      <trkpt lat="-27.82633" lon="-65.79423">
        <ele>1497.4</ele>
        <time>2018-08-19T21:22:19Z</time>
      </trkpt>
      <trkpt lat="-27.82623" lon="-65.794245">
        <ele>1497.3</ele>
        <time>2018-08-19T21:22:23Z</time>
      </trkpt>
      <trkpt lat="-27.826155" lon="-65.79429">
        <ele>1496.6</ele>
        <time>2018-08-19T21:22:25Z</time>
      </trkpt>
      <trkpt lat="-27.82609" lon="-65.794345">
        <ele>1495.8</ele>
        <time>2018-08-19T21:22:27Z</time>
      </trkpt>
      <trkpt lat="-27.826035" lon="-65.79441">
        <ele>1495.7</ele>
        <time>2018-08-19T21:22:29Z</time>
      </trkpt>
      <trkpt lat="-27.825995" lon="-65.794505">
        <ele>1496.0</ele>
        <time>2018-08-19T21:22:31Z</time>
      </trkpt>
      <trkpt lat="-27.82597" lon="-65.79459">
        <ele>1496.6</ele>
        <time>2018-08-19T21:22:33Z</time>
      </trkpt>
      <trkpt lat="-27.82596" lon="-65.794675">
        <ele>1496.6</ele>
        <time>2018-08-19T21:22:35Z</time>
      </trkpt>
      <trkpt lat="-27.825975" lon="-65.79477666666666">
        <ele>1496.7</ele>
        <time>2018-08-19T21:22:38Z</time>
      </trkpt>
      <trkpt lat="-27.82602" lon="-65.7949">
        <ele>1496.6</ele>
        <time>2018-08-19T21:22:41Z</time>
      </trkpt>
      <trkpt lat="-27.82609" lon="-65.794965">
        <ele>1496.4</ele>
        <time>2018-08-19T21:22:44Z</time>
      </trkpt>
      <trkpt lat="-27.826165" lon="-65.795005">
        <ele>1496.4</ele>
        <time>2018-08-19T21:22:48Z</time>
      </trkpt>
      <trkpt lat="-27.826245" lon="-65.79504">
        <ele>1496.5</ele>
        <time>2018-08-19T21:22:51Z</time>
      </trkpt>
      <trkpt lat="-27.826335" lon="-65.79506">
        <ele>1496.6</ele>
        <time>2018-08-19T21:22:54Z</time>
      </trkpt>
      <trkpt lat="-27.826415" lon="-65.79508">
        <ele>1496.6</ele>
        <time>2018-08-19T21:22:57Z</time>
      </trkpt>
      <trkpt lat="-27.826505" lon="-65.795085">
        <ele>1496.7</ele>
        <time>2018-08-19T21:23:02Z</time>
      </trkpt>
      <trkpt lat="-27.82658" lon="-65.795105">
        <ele>1496.7</ele>
        <time>2018-08-19T21:23:05Z</time>
      </trkpt>
      <trkpt lat="-27.82666" lon="-65.795135">
        <ele>1496.6</ele>
        <time>2018-08-19T21:23:08Z</time>
      </trkpt>
      <trkpt lat="-27.82676" lon="-65.795145">
        <ele>1496.3</ele>
        <time>2018-08-19T21:23:11Z</time>
      </trkpt>
      <trkpt lat="-27.826865" lon="-65.79518">
        <ele>1496.1</ele>
        <time>2018-08-19T21:23:14Z</time>
      </trkpt>
      <trkpt lat="-27.826955" lon="-65.79519">
        <ele>1495.8</ele>
        <time>2018-08-19T21:23:17Z</time>
      </trkpt>
      <trkpt lat="-27.82703" lon="-65.79521">
        <ele>1495.6</ele>
        <time>2018-08-19T21:23:19Z</time>
      </trkpt>
      <trkpt lat="-27.827105" lon="-65.795225">
        <ele>1495.0</ele>
        <time>2018-08-19T21:23:21Z</time>
      </trkpt>
      <trkpt lat="-27.82719" lon="-65.795255">
        <ele>1495.0</ele>
        <time>2018-08-19T21:23:23Z</time>
      </trkpt>
      <trkpt lat="-27.82729" lon="-65.79531">
        <ele>1495.8</ele>
        <time>2018-08-19T21:23:25Z</time>
      </trkpt>
      <trkpt lat="-27.82736" lon="-65.795395">
        <ele>1497.8</ele>
        <time>2018-08-19T21:23:27Z</time>
      </trkpt>
      <trkpt lat="-27.827395" lon="-65.7955">
        <ele>1498.8</ele>
        <time>2018-08-19T21:23:30Z</time>
      </trkpt>
      <trkpt lat="-27.827405" lon="-65.795595">
        <ele>1498.8</ele>
        <time>2018-08-19T21:23:32Z</time>
      </trkpt>
      <trkpt lat="-27.827395" lon="-65.79568">
        <ele>1497.8</ele>
        <time>2018-08-19T21:23:34Z</time>
      </trkpt>
      <trkpt lat="-27.827375" lon="-65.79576">
        <ele>1497.4</ele>
        <time>2018-08-19T21:23:36Z</time>
      </trkpt>
      <trkpt lat="-27.82734" lon="-65.79589">
        <ele>1497.4</ele>
        <time>2018-08-19T21:23:39Z</time>
      </trkpt>
      <trkpt lat="-27.827315" lon="-65.79595">
        <ele>1498.0</ele>
        <time>2018-08-19T21:23:41Z</time>
      </trkpt>
      <trkpt lat="-27.8273" lon="-65.79606">
        <ele>1498.0</ele>
        <time>2018-08-19T21:23:43Z</time>
      </trkpt>
      <trkpt lat="-27.8273" lon="-65.79613">
        <ele>1498.0</ele>
        <time>2018-08-19T21:23:45Z</time>
      </trkpt>
      <trkpt lat="-27.8273" lon="-65.796215">
        <ele>1497.9</ele>
        <time>2018-08-19T21:23:47Z</time>
      </trkpt>
      <trkpt lat="-27.827335" lon="-65.796315">
        <ele>1497.8</ele>
        <time>2018-08-19T21:23:50Z</time>
      </trkpt>
      <trkpt lat="-27.827385" lon="-65.7964">
        <ele>1497.7</ele>
        <time>2018-08-19T21:23:53Z</time>
      </trkpt>
      <trkpt lat="-27.827465" lon="-65.796485">
        <ele>1497.7</ele>
        <time>2018-08-19T21:23:56Z</time>
      </trkpt>
      <trkpt lat="-27.827565" lon="-65.79652">
        <ele>1498.5</ele>
        <time>2018-08-19T21:23:59Z</time>
      </trkpt>
      <trkpt lat="-27.827655" lon="-65.79655">
        <ele>1498.6</ele>
        <time>2018-08-19T21:24:02Z</time>
      </trkpt>
      <trkpt lat="-27.82775" lon="-65.79655">
        <ele>1498.7</ele>
        <time>2018-08-19T21:24:05Z</time>
      </trkpt>
      <trkpt lat="-27.82783" lon="-65.79652166666666">
        <ele>1498.7</ele>
        <time>2018-08-19T21:24:07Z</time>
      </trkpt>
      <trkpt lat="-27.827905" lon="-65.79652">
        <ele>1498.7</ele>
        <time>2018-08-19T21:24:09Z</time>
      </trkpt>
      <trkpt lat="-27.82799" lon="-65.79651">
        <ele>1498.8</ele>
        <time>2018-08-19T21:24:12Z</time>
      </trkpt>
      <trkpt lat="-27.82806" lon="-65.796485">
        <ele>1498.9</ele>
        <time>2018-08-19T21:24:14Z</time>
      </trkpt>
      <trkpt lat="-27.82817" lon="-65.796465">
        <ele>1499.0</ele>
        <time>2018-08-19T21:24:17Z</time>
      </trkpt>
      <trkpt lat="-27.82824" lon="-65.79644">
        <ele>1499.1</ele>
        <time>2018-08-19T21:24:19Z</time>
      </trkpt>
      <trkpt lat="-27.828325" lon="-65.79643">
        <ele>1499.3</ele>
        <time>2018-08-19T21:24:22Z</time>
      </trkpt>
      <trkpt lat="-27.828435" lon="-65.7964">
        <ele>1499.5</ele>
        <time>2018-08-19T21:24:25Z</time>
      </trkpt>
      <trkpt lat="-27.828525" lon="-65.796355">
        <ele>1499.7</ele>
        <time>2018-08-19T21:24:28Z</time>
      </trkpt>
      <trkpt lat="-27.82863" lon="-65.79635">
        <ele>1500.6</ele>
        <time>2018-08-19T21:24:31Z</time>
      </trkpt>
      <trkpt lat="-27.828715" lon="-65.796335">
        <ele>1500.6</ele>
        <time>2018-08-19T21:24:33Z</time>
      </trkpt>
      <trkpt lat="-27.828815" lon="-65.796305">
        <ele>1500.6</ele>
        <time>2018-08-19T21:24:36Z</time>
      </trkpt>
      <trkpt lat="-27.82889" lon="-65.796305">
        <ele>1500.1</ele>
        <time>2018-08-19T21:24:38Z</time>
      </trkpt>
      <trkpt lat="-27.828975" lon="-65.796315">
        <ele>1499.5</ele>
        <time>2018-08-19T21:24:40Z</time>
      </trkpt>
      <trkpt lat="-27.829045" lon="-65.79638">
        <ele>1498.8</ele>
        <time>2018-08-19T21:24:42Z</time>
      </trkpt>
      <trkpt lat="-27.82908" lon="-65.79648">
        <ele>1498.8</ele>
        <time>2018-08-19T21:24:44Z</time>
      </trkpt>
      <trkpt lat="-27.82907" lon="-65.796625">
        <ele>1499.1</ele>
        <time>2018-08-19T21:24:46Z</time>
      </trkpt>
      <trkpt lat="-27.82904" lon="-65.796745">
        <ele>1499.7</ele>
        <time>2018-08-19T21:24:48Z</time>
      </trkpt>
      <trkpt lat="-27.82901" lon="-65.79687">
        <ele>1500.0</ele>
        <time>2018-08-19T21:24:50Z</time>
      </trkpt>
      <trkpt lat="-27.82901" lon="-65.796975">
        <ele>1499.6</ele>
        <time>2018-08-19T21:24:52Z</time>
      </trkpt>
      <trkpt lat="-27.82906" lon="-65.7971">
        <ele>1498.8</ele>
        <time>2018-08-19T21:24:54Z</time>
      </trkpt>
      <trkpt lat="-27.829145" lon="-65.797195">
        <ele>1497.5</ele>
        <time>2018-08-19T21:24:56Z</time>
      </trkpt>
      <trkpt lat="-27.82926" lon="-65.797255">
        <ele>1496.3</ele>
        <time>2018-08-19T21:24:58Z</time>
      </trkpt>
      <trkpt lat="-27.829415" lon="-65.797275">
        <ele>1495.4</ele>
        <time>2018-08-19T21:25:00Z</time>
      </trkpt>
      <trkpt lat="-27.829495" lon="-65.79728">
        <ele>1494.9</ele>
        <time>2018-08-19T21:25:01Z</time>
      </trkpt>
      <trkpt lat="-27.829575" lon="-65.797275">
        <ele>1494.4</ele>
        <time>2018-08-19T21:25:02Z</time>
      </trkpt>
      <trkpt lat="-27.82965" lon="-65.797255">
        <ele>1494.2</ele>
        <time>2018-08-19T21:25:03Z</time>
      </trkpt>
      <trkpt lat="-27.829725" lon="-65.797255">
        <ele>1494.2</ele>
        <time>2018-08-19T21:25:04Z</time>
      </trkpt>
      <trkpt lat="-27.829865" lon="-65.79724">
        <ele>1494.0</ele>
        <time>2018-08-19T21:25:06Z</time>
      </trkpt>
      <trkpt lat="-27.829995" lon="-65.797225">
        <ele>1493.6</ele>
        <time>2018-08-19T21:25:08Z</time>
      </trkpt>
      <trkpt lat="-27.830115" lon="-65.797225">
        <ele>1493.0</ele>
        <time>2018-08-19T21:25:10Z</time>
      </trkpt>
      <trkpt lat="-27.830255" lon="-65.797255">
        <ele>1492.6</ele>
        <time>2018-08-19T21:25:12Z</time>
      </trkpt>
      <trkpt lat="-27.83034" lon="-65.79729">
        <ele>1492.6</ele>
        <time>2018-08-19T21:25:13Z</time>
      </trkpt>
      <trkpt lat="-27.8304" lon="-65.79734">
        <ele>1492.9</ele>
        <time>2018-08-19T21:25:14Z</time>
      </trkpt>
      <trkpt lat="-27.830485" lon="-65.79745">
        <ele>1493.6</ele>
        <time>2018-08-19T21:25:16Z</time>
      </trkpt>
      <trkpt lat="-27.83055" lon="-65.7976">
        <ele>1494.0</ele>
        <time>2018-08-19T21:25:18Z</time>
      </trkpt>
      <trkpt lat="-27.830565" lon="-65.797685">
        <ele>1494.4</ele>
        <time>2018-08-19T21:25:19Z</time>
      </trkpt>
      <trkpt lat="-27.83056" lon="-65.79778">
        <ele>1494.9</ele>
        <time>2018-08-19T21:25:20Z</time>
      </trkpt>
      <trkpt lat="-27.83055" lon="-65.79786">
        <ele>1495.0</ele>
        <time>2018-08-19T21:25:21Z</time>
      </trkpt>
      <trkpt lat="-27.830505" lon="-65.798005">
        <ele>1494.6</ele>
        <time>2018-08-19T21:25:23Z</time>
      </trkpt>
      <trkpt lat="-27.83044" lon="-65.798125">
        <ele>1494.0</ele>
        <time>2018-08-19T21:25:25Z</time>
      </trkpt>
      <trkpt lat="-27.830365" lon="-65.79824">
        <ele>1493.5</ele>
        <time>2018-08-19T21:25:27Z</time>
      </trkpt>
      <trkpt lat="-27.83029" lon="-65.79837">
        <ele>1492.4</ele>
        <time>2018-08-19T21:25:29Z</time>
      </trkpt>
      <trkpt lat="-27.83022" lon="-65.79849">
        <ele>1490.5</ele>
        <time>2018-08-19T21:25:31Z</time>
      </trkpt>
      <trkpt lat="-27.83015" lon="-65.798595">
        <ele>1488.3</ele>
        <time>2018-08-19T21:25:33Z</time>
      </trkpt>
      <trkpt lat="-27.830085" lon="-65.798715">
        <ele>1486.2</ele>
        <time>2018-08-19T21:25:35Z</time>
      </trkpt>
      <trkpt lat="-27.83001" lon="-65.798855">
        <ele>1484.6</ele>
        <time>2018-08-19T21:25:37Z</time>
      </trkpt>
      <trkpt lat="-27.82994" lon="-65.79898">
        <ele>1483.6</ele>
        <time>2018-08-19T21:25:39Z</time>
      </trkpt>
      <trkpt lat="-27.829865" lon="-65.799085">
        <ele>1483.0</ele>
        <time>2018-08-19T21:25:41Z</time>
      </trkpt>
      <trkpt lat="-27.829795" lon="-65.799215">
        <ele>1482.6</ele>
        <time>2018-08-19T21:25:43Z</time>
      </trkpt>
      <trkpt lat="-27.829725" lon="-65.799335">
        <ele>1482.2</ele>
        <time>2018-08-19T21:25:45Z</time>
      </trkpt>
      <trkpt lat="-27.829625" lon="-65.79944">
        <ele>1482.0</ele>
        <time>2018-08-19T21:25:47Z</time>
      </trkpt>
      <trkpt lat="-27.82956" lon="-65.799475">
        <ele>1481.8</ele>
        <time>2018-08-19T21:25:48Z</time>
      </trkpt>
      <trkpt lat="-27.829425" lon="-65.79946">
        <ele>1481.4</ele>
        <time>2018-08-19T21:25:50Z</time>
      </trkpt>
      <trkpt lat="-27.829355" lon="-65.79942">
        <ele>1481.2</ele>
        <time>2018-08-19T21:25:51Z</time>
      </trkpt>
      <trkpt lat="-27.829295" lon="-65.799375">
        <ele>1481.0</ele>
        <time>2018-08-19T21:25:52Z</time>
      </trkpt>
      <trkpt lat="-27.829225" lon="-65.79931">
        <ele>1480.8</ele>
        <time>2018-08-19T21:25:53Z</time>
      </trkpt>
      <trkpt lat="-27.82915" lon="-65.799295">
        <ele>1480.4</ele>
        <time>2018-08-19T21:25:54Z</time>
      </trkpt>
      <trkpt lat="-27.829065" lon="-65.79926">
        <ele>1480.0</ele>
        <time>2018-08-19T21:25:55Z</time>
      </trkpt>
      <trkpt lat="-27.828985" lon="-65.79926">
        <ele>1479.6</ele>
        <time>2018-08-19T21:25:56Z</time>
      </trkpt>
      <trkpt lat="-27.82891" lon="-65.79926">
        <ele>1479.2</ele>
        <time>2018-08-19T21:25:57Z</time>
      </trkpt>
      <trkpt lat="-27.828835" lon="-65.799295">
        <ele>1478.6</ele>
        <time>2018-08-19T21:25:58Z</time>
      </trkpt>
      <trkpt lat="-27.828715" lon="-65.799355">
        <ele>1477.6</ele>
        <time>2018-08-19T21:26:00Z</time>
      </trkpt>
      <trkpt lat="-27.82866" lon="-65.79943">
        <ele>1477.3</ele>
        <time>2018-08-19T21:26:01Z</time>
      </trkpt>
      <trkpt lat="-27.82856" lon="-65.799535">
        <ele>1476.4</ele>
        <time>2018-08-19T21:26:03Z</time>
      </trkpt>
      <trkpt lat="-27.828505" lon="-65.7996">
        <ele>1476.0</ele>
        <time>2018-08-19T21:26:04Z</time>
      </trkpt>
      <trkpt lat="-27.828385" lon="-65.799665">
        <ele>1475.5</ele>
        <time>2018-08-19T21:26:06Z</time>
      </trkpt>
      <trkpt lat="-27.82825" lon="-65.799665">
        <ele>1475.4</ele>
        <time>2018-08-19T21:26:08Z</time>
      </trkpt>
      <trkpt lat="-27.828135" lon="-65.79961">
        <ele>1475.9</ele>
        <time>2018-08-19T21:26:10Z</time>
      </trkpt>
      <trkpt lat="-27.82804" lon="-65.799525">
        <ele>1476.7</ele>
        <time>2018-08-19T21:26:12Z</time>
      </trkpt>
      <trkpt lat="-27.827955" lon="-65.799465">
        <ele>1477.5</ele>
        <time>2018-08-19T21:26:14Z</time>
      </trkpt>
      <trkpt lat="-27.827855" lon="-65.79942">
        <ele>1477.8</ele>
        <time>2018-08-19T21:26:16Z</time>
      </trkpt>
      <trkpt lat="-27.827765" lon="-65.799395">
        <ele>1477.4</ele>
        <time>2018-08-19T21:26:18Z</time>
      </trkpt>
      <trkpt lat="-27.827675" lon="-65.799385">
        <ele>1476.6</ele>
        <time>2018-08-19T21:26:20Z</time>
      </trkpt>
      <trkpt lat="-27.827575" lon="-65.799375">
        <ele>1474.9</ele>
        <time>2018-08-19T21:26:22Z</time>
      </trkpt>
      <trkpt lat="-27.827485" lon="-65.799355">
        <ele>1473.5</ele>
        <time>2018-08-19T21:26:24Z</time>
      </trkpt>
      <trkpt lat="-27.827385" lon="-65.799355">
        <ele>1472.6</ele>
        <time>2018-08-19T21:26:26Z</time>
      </trkpt>
      <trkpt lat="-27.82729" lon="-65.799375">
        <ele>1472.1</ele>
        <time>2018-08-19T21:26:28Z</time>
      </trkpt>
      <trkpt lat="-27.827195" lon="-65.799375">
        <ele>1471.6</ele>
        <time>2018-08-19T21:26:30Z</time>
      </trkpt>
      <trkpt lat="-27.827105" lon="-65.79938">
        <ele>1471.8</ele>
        <time>2018-08-19T21:26:32Z</time>
      </trkpt>
      <trkpt lat="-27.82702" lon="-65.79938">
        <ele>1471.9</ele>
        <time>2018-08-19T21:26:34Z</time>
      </trkpt>
      <trkpt lat="-27.82694" lon="-65.799385">
        <ele>1472.2</ele>
        <time>2018-08-19T21:26:36Z</time>
      </trkpt>
      <trkpt lat="-27.82686" lon="-65.799395">
        <ele>1472.5</ele>
        <time>2018-08-19T21:26:38Z</time>
      </trkpt>
      <trkpt lat="-27.82677" lon="-65.799395">
        <ele>1472.9</ele>
        <time>2018-08-19T21:26:40Z</time>
      </trkpt>
      <trkpt lat="-27.82669" lon="-65.79942">
        <ele>1473.3</ele>
        <time>2018-08-19T21:26:42Z</time>
      </trkpt>
      <trkpt lat="-27.82661" lon="-65.799435">
        <ele>1473.5</ele>
        <time>2018-08-19T21:26:44Z</time>
      </trkpt>
      <trkpt lat="-27.826529999999998" lon="-65.79946">
        <ele>1473.5</ele>
        <time>2018-08-19T21:26:46Z</time>
      </trkpt>
      <trkpt lat="-27.82645" lon="-65.799475">
        <ele>1474.0</ele>
        <time>2018-08-19T21:26:48Z</time>
      </trkpt>
      <trkpt lat="-27.82638" lon="-65.799505">
        <ele>1474.5</ele>
        <time>2018-08-19T21:26:50Z</time>
      </trkpt>
      <trkpt lat="-27.82631" lon="-65.799535">
        <ele>1474.5</ele>
        <time>2018-08-19T21:26:52Z</time>
      </trkpt>
      <trkpt lat="-27.82624" lon="-65.79956">
        <ele>1474.6</ele>
        <time>2018-08-19T21:26:54Z</time>
      </trkpt>
      <trkpt lat="-27.82615" lon="-65.799605">
        <ele>1474.6</ele>
        <time>2018-08-19T21:26:57Z</time>
      </trkpt>
      <trkpt lat="-27.826055" lon="-65.799645">
        <ele>1474.7</ele>
        <time>2018-08-19T21:27:00Z</time>
      </trkpt>
      <trkpt lat="-27.825975" lon="-65.799665">
        <ele>1475.0</ele>
        <time>2018-08-19T21:27:03Z</time>
      </trkpt>
      <trkpt lat="-27.8259" lon="-65.7997">
        <ele>1475.4</ele>
        <time>2018-08-19T21:27:06Z</time>
      </trkpt>
      <trkpt lat="-27.82582" lon="-65.799745">
        <ele>1475.9</ele>
        <time>2018-08-19T21:27:09Z</time>
      </trkpt>
      <trkpt lat="-27.82573" lon="-65.799795">
        <ele>1476.2</ele>
        <time>2018-08-19T21:27:12Z</time>
      </trkpt>
      <trkpt lat="-27.82565" lon="-65.799845">
        <ele>1476.5</ele>
        <time>2018-08-19T21:27:15Z</time>
      </trkpt>
      <trkpt lat="-27.82557" lon="-65.79989">
        <ele>1477.0</ele>
        <time>2018-08-19T21:27:18Z</time>
      </trkpt>
      <trkpt lat="-27.825515" lon="-65.79993">
        <ele>1477.5</ele>
        <time>2018-08-19T21:27:20Z</time>
      </trkpt>
      <trkpt lat="-27.82543" lon="-65.80001">
        <ele>1478.2</ele>
        <time>2018-08-19T21:27:23Z</time>
      </trkpt>
      <trkpt lat="-27.825345" lon="-65.80007">
        <ele>1478.7</ele>
        <time>2018-08-19T21:27:26Z</time>
      </trkpt>
      <trkpt lat="-27.825285" lon="-65.800155">
        <ele>1480.6</ele>
        <time>2018-08-19T21:27:28Z</time>
      </trkpt>
      <trkpt lat="-27.825225" lon="-65.80021">
        <ele>1480.7</ele>
        <time>2018-08-19T21:27:30Z</time>
      </trkpt>
      <trkpt lat="-27.825175" lon="-65.800275">
        <ele>1480.9</ele>
        <time>2018-08-19T21:27:32Z</time>
      </trkpt>
      <trkpt lat="-27.825115" lon="-65.800335">
        <ele>1482.0</ele>
        <time>2018-08-19T21:27:34Z</time>
      </trkpt>
      <trkpt lat="-27.825055" lon="-65.80038">
        <ele>1483.2</ele>
        <time>2018-08-19T21:27:36Z</time>
      </trkpt>
      <trkpt lat="-27.825" lon="-65.80046">
        <ele>1484.0</ele>
        <time>2018-08-19T21:27:38Z</time>
      </trkpt>
      <trkpt lat="-27.824935" lon="-65.800535">
        <ele>1484.5</ele>
        <time>2018-08-19T21:27:40Z</time>
      </trkpt>
      <trkpt lat="-27.82488" lon="-65.800605">
        <ele>1484.3</ele>
        <time>2018-08-19T21:27:42Z</time>
      </trkpt>
      <trkpt lat="-27.824825" lon="-65.800685">
        <ele>1484.1</ele>
        <time>2018-08-19T21:27:44Z</time>
      </trkpt>
      <trkpt lat="-27.82478" lon="-65.80076">
        <ele>1484.6</ele>
        <time>2018-08-19T21:27:46Z</time>
      </trkpt>
      <trkpt lat="-27.824725" lon="-65.80083">
        <ele>1485.2</ele>
        <time>2018-08-19T21:27:48Z</time>
      </trkpt>
      <trkpt lat="-27.82468" lon="-65.80091">
        <ele>1485.5</ele>
        <time>2018-08-19T21:27:50Z</time>
      </trkpt>
      <trkpt lat="-27.82463" lon="-65.80099">
        <ele>1486.8</ele>
        <time>2018-08-19T21:27:52Z</time>
      </trkpt>
      <trkpt lat="-27.824575" lon="-65.801055">
        <ele>1488.0</ele>
        <time>2018-08-19T21:27:54Z</time>
      </trkpt>
      <trkpt lat="-27.824535" lon="-65.80114">
        <ele>1488.9</ele>
        <time>2018-08-19T21:27:56Z</time>
      </trkpt>
      <trkpt lat="-27.82449" lon="-65.80123">
        <ele>1489.4</ele>
        <time>2018-08-19T21:27:58Z</time>
      </trkpt>
      <trkpt lat="-27.82444" lon="-65.801325">
        <ele>1489.4</ele>
        <time>2018-08-19T21:28:01Z</time>
      </trkpt>
      <trkpt lat="-27.824395" lon="-65.8014">
        <ele>1489.5</ele>
        <time>2018-08-19T21:28:05Z</time>
      </trkpt>
      <trkpt lat="-27.824395" lon="-65.8014">
        <ele>1489.4</ele>
        <time>2018-08-19T21:28:12Z</time>
      </trkpt>
      <trkpt lat="-27.824405" lon="-65.80141">
        <ele>1487.3</ele>
        <time>2018-08-19T21:31:17Z</time>
      </trkpt>
      <trkpt lat="-27.824405" lon="-65.80141">
        <ele>1487.3</ele>
        <time>2018-08-19T21:31:18Z</time>
      </trkpt>
      <trkpt lat="-27.82444" lon="-65.8014">
        <ele>1486.9</ele>
        <time>2018-08-19T21:31:39Z</time>
      </trkpt>
      <trkpt lat="-27.82443" lon="-65.8014">
        <ele>1486.9</ele>
        <time>2018-08-19T21:31:42Z</time>
      </trkpt>
      <trkpt lat="-27.82442" lon="-65.80141">
        <ele>1486.3</ele>
        <time>2018-08-19T21:31:51Z</time>
      </trkpt>
      <trkpt lat="-27.82442" lon="-65.80141">
        <ele>1486.3</ele>
        <time>2018-08-19T21:31:52Z</time>
      </trkpt>
      <trkpt lat="-27.82443" lon="-65.80141">
        <ele>1486.0</ele>
        <time>2018-08-19T21:32:05Z</time>
      </trkpt>
      <trkpt lat="-27.82443" lon="-65.80141">
        <ele>1486.0</ele>
        <time>2018-08-19T21:32:06Z</time>
      </trkpt>
      <trkpt lat="-27.824415" lon="-65.80141">
        <ele>1485.3</ele>
        <time>2018-08-19T21:32:20Z</time>
      </trkpt>
      <trkpt lat="-27.824415" lon="-65.80141">
        <ele>1485.3</ele>
        <time>2018-08-19T21:32:21Z</time>
      </trkpt>
      <trkpt lat="-27.824405" lon="-65.80144">
        <ele>1485.2</ele>
        <time>2018-08-19T21:32:30Z</time>
      </trkpt>
      <trkpt lat="-27.824405" lon="-65.801435">
        <ele>1485.2</ele>
        <time>2018-08-19T21:32:31Z</time>
      </trkpt>
      <trkpt lat="-27.824415" lon="-65.80141">
        <ele>1484.7</ele>
        <time>2018-08-19T21:32:39Z</time>
      </trkpt>
      <trkpt lat="-27.82442" lon="-65.80141">
        <ele>1484.7</ele>
        <time>2018-08-19T21:32:40Z</time>
      </trkpt>
      <trkpt lat="-27.82441" lon="-65.80141">
        <ele>1484.4</ele>
        <time>2018-08-19T21:32:57Z</time>
      </trkpt>
      <trkpt lat="-27.824405" lon="-65.80141">
        <ele>1484.4</ele>
        <time>2018-08-19T21:32:58Z</time>
      </trkpt>
      <trkpt lat="-27.824415" lon="-65.80141">
        <ele>1484.2</ele>
        <time>2018-08-19T21:33:13Z</time>
      </trkpt>
      <trkpt lat="-27.824415" lon="-65.80141">
        <ele>1484.1</ele>
        <time>2018-08-19T21:33:14Z</time>
      </trkpt>
      <trkpt lat="-27.824395" lon="-65.80143">
        <ele>1484.1</ele>
        <time>2018-08-19T21:33:22Z</time>
      </trkpt>
      <trkpt lat="-27.824395" lon="-65.801435">
        <ele>1484.1</ele>
        <time>2018-08-19T21:33:23Z</time>
      </trkpt>
      <trkpt lat="-27.824395" lon="-65.80143">
        <ele>1484.1</ele>
        <time>2018-08-19T21:33:33Z</time>
      </trkpt>
      <trkpt lat="-27.824395" lon="-65.80141">
        <ele>1484.1</ele>
        <time>2018-08-19T21:33:34Z</time>
      </trkpt>
      <trkpt lat="-27.824405" lon="-65.80141">
        <ele>1484.0</ele>
        <time>2018-08-19T21:33:43Z</time>
      </trkpt>
      <trkpt lat="-27.82441" lon="-65.80141">
        <ele>1484.0</ele>
        <time>2018-08-19T21:33:44Z</time>
      </trkpt>
      <trkpt lat="-27.82442" lon="-65.8014">
        <ele>1483.7</ele>
        <time>2018-08-19T21:33:52Z</time>
      </trkpt>
      <trkpt lat="-27.82442" lon="-65.8014">
        <ele>1483.7</ele>
        <time>2018-08-19T21:33:53Z</time>
      </trkpt>
      <trkpt lat="-27.824405" lon="-65.80141">
        <ele>1483.5</ele>
        <time>2018-08-19T21:34:06Z</time>
      </trkpt>
      <trkpt lat="-27.824405" lon="-65.80143">
        <ele>1483.5</ele>
        <time>2018-08-19T21:34:07Z</time>
      </trkpt>
      <trkpt lat="-27.824385" lon="-65.80144">
        <ele>1483.5</ele>
        <time>2018-08-19T21:34:15Z</time>
      </trkpt>
      <trkpt lat="-27.824385" lon="-65.801435">
        <ele>1483.5</ele>
        <time>2018-08-19T21:34:16Z</time>
      </trkpt>
      <trkpt lat="-27.824405" lon="-65.80143">
        <ele>1483.5</ele>
        <time>2018-08-19T21:34:26Z</time>
      </trkpt>
      <trkpt lat="-27.824405" lon="-65.80143">
        <ele>1483.4</ele>
        <time>2018-08-19T21:34:27Z</time>
      </trkpt>
      <trkpt lat="-27.82443" lon="-65.80141">
        <ele>1483.2</ele>
        <time>2018-08-19T21:34:41Z</time>
      </trkpt>
      <trkpt lat="-27.82443" lon="-65.80141">
        <ele>1483.2</ele>
        <time>2018-08-19T21:34:43Z</time>
      </trkpt>
      <trkpt lat="-27.82442" lon="-65.80141">
        <ele>1482.9</ele>
        <time>2018-08-19T21:34:53Z</time>
      </trkpt>
      <trkpt lat="-27.82443" lon="-65.80141">
        <ele>1482.9</ele>
        <time>2018-08-19T21:34:54Z</time>
      </trkpt>
      <trkpt lat="-27.824405" lon="-65.80141">
        <ele>1482.9</ele>
        <time>2018-08-19T21:35:04Z</time>
      </trkpt>
      <trkpt lat="-27.824405" lon="-65.80141">
        <ele>1482.9</ele>
        <time>2018-08-19T21:35:05Z</time>
      </trkpt>
      <trkpt lat="-27.824405" lon="-65.80141">
        <ele>1483.2</ele>
        <time>2018-08-19T21:35:23Z</time>
      </trkpt>
      <trkpt lat="-27.82441" lon="-65.80141">
        <ele>1483.2</ele>
        <time>2018-08-19T21:35:24Z</time>
      </trkpt>
      <trkpt lat="-27.824385" lon="-65.80141">
        <ele>1483.2</ele>
        <time>2018-08-19T21:35:35Z</time>
      </trkpt>
      <trkpt lat="-27.824395" lon="-65.80141">
        <ele>1483.2</ele>
        <time>2018-08-19T21:35:36Z</time>
      </trkpt>
      <trkpt lat="-27.824395" lon="-65.80141">
        <ele>1483.1</ele>
        <time>2018-08-19T21:35:58Z</time>
      </trkpt>
      <trkpt lat="-27.824395" lon="-65.80141">
        <ele>1483.1</ele>
        <time>2018-08-19T21:35:59Z</time>
      </trkpt>
      <trkpt lat="-27.82438" lon="-65.80143">
        <ele>1483.1</ele>
        <time>2018-08-19T21:36:08Z</time>
      </trkpt>
      <trkpt lat="-27.824375" lon="-65.801435">
        <ele>1483.1</ele>
        <time>2018-08-19T21:36:09Z</time>
      </trkpt>
      <trkpt lat="-27.82436" lon="-65.801445">
        <ele>1483.0</ele>
        <time>2018-08-19T21:36:17Z</time>
      </trkpt>
      <trkpt lat="-27.824365" lon="-65.801445">
        <ele>1483.0</ele>
        <time>2018-08-19T21:36:18Z</time>
      </trkpt>
      <trkpt lat="-27.82438" lon="-65.801445">
        <ele>1483.0</ele>
        <time>2018-08-19T21:36:26Z</time>
      </trkpt>
      <trkpt lat="-27.82438" lon="-65.801445">
        <ele>1483.0</ele>
        <time>2018-08-19T21:36:27Z</time>
      </trkpt>
      <trkpt lat="-27.824385" lon="-65.80143">
        <ele>1482.6</ele>
        <time>2018-08-19T21:36:40Z</time>
      </trkpt>
      <trkpt lat="-27.824385" lon="-65.80143">
        <ele>1482.5</ele>
        <time>2018-08-19T21:36:41Z</time>
      </trkpt>
      <trkpt lat="-27.824395" lon="-65.80143">
        <ele>1483.2</ele>
        <time>2018-08-19T21:37:05Z</time>
      </trkpt>
      <trkpt lat="-27.824395" lon="-65.80141">
        <ele>1483.2</ele>
        <time>2018-08-19T21:37:06Z</time>
      </trkpt>
      <trkpt lat="-27.82443" lon="-65.801445">
        <ele>1483.2</ele>
        <time>2018-08-19T21:37:19Z</time>
      </trkpt>
      <trkpt lat="-27.82443" lon="-65.80144">
        <ele>1483.2</ele>
        <time>2018-08-19T21:37:20Z</time>
      </trkpt>
      <trkpt lat="-27.824415" lon="-65.801445">
        <ele>1482.8</ele>
        <time>2018-08-19T21:37:28Z</time>
      </trkpt>
      <trkpt lat="-27.824385" lon="-65.80155">
        <ele>1482.5</ele>
        <time>2018-08-19T21:37:33Z</time>
      </trkpt>
      <trkpt lat="-27.824365" lon="-65.80167">
        <ele>1482.2</ele>
        <time>2018-08-19T21:37:36Z</time>
      </trkpt>
      <trkpt lat="-27.824345" lon="-65.801795">
        <ele>1480.2</ele>
        <time>2018-08-19T21:37:39Z</time>
      </trkpt>
      <trkpt lat="-27.82434" lon="-65.80188">
        <ele>1479.5</ele>
        <time>2018-08-19T21:37:41Z</time>
      </trkpt>
      <trkpt lat="-27.824335" lon="-65.80197">
        <ele>1479.6</ele>
        <time>2018-08-19T21:37:43Z</time>
      </trkpt>
      <trkpt lat="-27.824325" lon="-65.802075">
        <ele>1480.1</ele>
        <time>2018-08-19T21:37:45Z</time>
      </trkpt>
      <trkpt lat="-27.82431" lon="-65.80218">
        <ele>1480.4</ele>
        <time>2018-08-19T21:37:47Z</time>
      </trkpt>
      <trkpt lat="-27.824295" lon="-65.80229">
        <ele>1480.1</ele>
        <time>2018-08-19T21:37:49Z</time>
      </trkpt>
      <trkpt lat="-27.82427" lon="-65.802415">
        <ele>1480.1</ele>
        <time>2018-08-19T21:37:51Z</time>
      </trkpt>
      <trkpt lat="-27.82423" lon="-65.802525">
        <ele>1480.1</ele>
        <time>2018-08-19T21:37:53Z</time>
      </trkpt>
      <trkpt lat="-27.82418" lon="-65.802645">
        <ele>1480.0</ele>
        <time>2018-08-19T21:37:55Z</time>
      </trkpt>
      <trkpt lat="-27.82412" lon="-65.80275">
        <ele>1479.6</ele>
        <time>2018-08-19T21:37:57Z</time>
      </trkpt>
      <trkpt lat="-27.82408" lon="-65.80287">
        <ele>1479.3</ele>
        <time>2018-08-19T21:37:59Z</time>
      </trkpt>
      <trkpt lat="-27.82405" lon="-65.802985">
        <ele>1478.5</ele>
        <time>2018-08-19T21:38:01Z</time>
      </trkpt>
      <trkpt lat="-27.82405" lon="-65.803135">
        <ele>1477.5</ele>
        <time>2018-08-19T21:38:03Z</time>
      </trkpt>
      <trkpt lat="-27.824095" lon="-65.803245">
        <ele>1477.1</ele>
        <time>2018-08-19T21:38:05Z</time>
      </trkpt>
      <trkpt lat="-27.824155" lon="-65.803335">
        <ele>1477.4</ele>
        <time>2018-08-19T21:38:07Z</time>
      </trkpt>
      <trkpt lat="-27.824255" lon="-65.803465">
        <ele>1478.9</ele>
        <time>2018-08-19T21:38:09Z</time>
      </trkpt>
      <trkpt lat="-27.824345" lon="-65.80356">
        <ele>1479.6</ele>
        <time>2018-08-19T21:38:11Z</time>
      </trkpt>
      <trkpt lat="-27.82443" lon="-65.80368">
        <ele>1480.1</ele>
        <time>2018-08-19T21:38:13Z</time>
      </trkpt>
      <trkpt lat="-27.82451" lon="-65.803775">
        <ele>1480.6</ele>
        <time>2018-08-19T21:38:15Z</time>
      </trkpt>
      <trkpt lat="-27.824565" lon="-65.80387">
        <ele>1480.9</ele>
        <time>2018-08-19T21:38:17Z</time>
      </trkpt>
      <trkpt lat="-27.824605" lon="-65.803945">
        <ele>1481.1</ele>
        <time>2018-08-19T21:38:19Z</time>
      </trkpt>
      <trkpt lat="-27.824635" lon="-65.804035">
        <ele>1481.4</ele>
        <time>2018-08-19T21:38:22Z</time>
      </trkpt>
      <trkpt lat="-27.82467" lon="-65.80413">
        <ele>1481.7</ele>
        <time>2018-08-19T21:38:25Z</time>
      </trkpt>
      <trkpt lat="-27.824705" lon="-65.804235">
        <ele>1482.1</ele>
        <time>2018-08-19T21:38:29Z</time>
      </trkpt>
      <trkpt lat="-27.82474" lon="-65.80432">
        <ele>1482.5</ele>
        <time>2018-08-19T21:38:33Z</time>
      </trkpt>
      <trkpt lat="-27.824765" lon="-65.8044">
        <ele>1483.0</ele>
        <time>2018-08-19T21:38:37Z</time>
      </trkpt>
      <trkpt lat="-27.82478" lon="-65.804485">
        <ele>1483.6</ele>
        <time>2018-08-19T21:38:41Z</time>
      </trkpt>
      <trkpt lat="-27.8248" lon="-65.80457">
        <ele>1483.9</ele>
        <time>2018-08-19T21:38:44Z</time>
      </trkpt>
      <trkpt lat="-27.824825" lon="-65.804655">
        <ele>1484.6</ele>
        <time>2018-08-19T21:38:49Z</time>
      </trkpt>
      <trkpt lat="-27.824835" lon="-65.804755">
        <ele>1485.2</ele>
        <time>2018-08-19T21:38:54Z</time>
      </trkpt>
      <trkpt lat="-27.82482" lon="-65.804845">
        <ele>1485.6</ele>
        <time>2018-08-19T21:38:59Z</time>
      </trkpt>
      <trkpt lat="-27.8248" lon="-65.804925">
        <ele>1485.4</ele>
        <time>2018-08-19T21:39:03Z</time>
      </trkpt>
      <trkpt lat="-27.824745" lon="-65.804995">
        <ele>1485.9</ele>
        <time>2018-08-19T21:39:10Z</time>
      </trkpt>
      <trkpt lat="-27.824705" lon="-65.805065">
        <ele>1486.4</ele>
        <time>2018-08-19T21:39:16Z</time>
      </trkpt>
      <trkpt lat="-27.824685" lon="-65.80515">
        <ele>1486.7</ele>
        <time>2018-08-19T21:39:21Z</time>
      </trkpt>
      <trkpt lat="-27.824675" lon="-65.805245">
        <ele>1486.8</ele>
        <time>2018-08-19T21:39:26Z</time>
      </trkpt>
      <trkpt lat="-27.824705" lon="-65.80533">
        <ele>1487.1</ele>
        <time>2018-08-19T21:39:31Z</time>
      </trkpt>
      <trkpt lat="-27.82475" lon="-65.80538833333334">
        <ele>1487.8</ele>
        <time>2018-08-19T21:39:36Z</time>
      </trkpt>
      <trkpt lat="-27.8248" lon="-65.80548">
        <ele>1488.6</ele>
        <time>2018-08-19T21:39:41Z</time>
      </trkpt>
      <trkpt lat="-27.824875" lon="-65.80553">
        <ele>1489.0</ele>
        <time>2018-08-19T21:39:46Z</time>
      </trkpt>
      <trkpt lat="-27.82494" lon="-65.805605">
        <ele>1489.2</ele>
        <time>2018-08-19T21:39:50Z</time>
      </trkpt>
      <trkpt lat="-27.82497" lon="-65.805695">
        <ele>1489.5</ele>
        <time>2018-08-19T21:39:54Z</time>
      </trkpt>
      <trkpt lat="-27.82495" lon="-65.80578">
        <ele>1489.7</ele>
        <time>2018-08-19T21:39:58Z</time>
      </trkpt>
      <trkpt lat="-27.824905" lon="-65.805865">
        <ele>1489.8</ele>
        <time>2018-08-19T21:40:01Z</time>
      </trkpt>
      <trkpt lat="-27.824845" lon="-65.80592">
        <ele>1489.8</ele>
        <time>2018-08-19T21:40:04Z</time>
      </trkpt>
      <trkpt lat="-27.824765" lon="-65.80597">
        <ele>1490.0</ele>
        <time>2018-08-19T21:40:08Z</time>
      </trkpt>
      <trkpt lat="-27.82468" lon="-65.806025">
        <ele>1489.9</ele>
        <time>2018-08-19T21:40:11Z</time>
      </trkpt>
      <trkpt lat="-27.82463" lon="-65.8061">
        <ele>1489.7</ele>
        <time>2018-08-19T21:40:14Z</time>
      </trkpt>
      <trkpt lat="-27.824575" lon="-65.806185">
        <ele>1489.6</ele>
        <time>2018-08-19T21:40:17Z</time>
      </trkpt>
      <trkpt lat="-27.824555" lon="-65.806285">
        <ele>1489.7</ele>
        <time>2018-08-19T21:40:20Z</time>
      </trkpt>
      <trkpt lat="-27.824559999999998" lon="-65.80637">
        <ele>1489.8</ele>
        <time>2018-08-19T21:40:23Z</time>
      </trkpt>
      <trkpt lat="-27.824585" lon="-65.806475">
        <ele>1489.9</ele>
        <time>2018-08-19T21:40:26Z</time>
      </trkpt>
      <trkpt lat="-27.82463" lon="-65.80656">
        <ele>1490.0</ele>
        <time>2018-08-19T21:40:29Z</time>
      </trkpt>
      <trkpt lat="-27.824665" lon="-65.806635">
        <ele>1490.2</ele>
        <time>2018-08-19T21:40:31Z</time>
      </trkpt>
      <trkpt lat="-27.824715" lon="-65.80673">
        <ele>1490.5</ele>
        <time>2018-08-19T21:40:34Z</time>
      </trkpt>
      <trkpt lat="-27.82475" lon="-65.806805">
        <ele>1490.8</ele>
        <time>2018-08-19T21:40:36Z</time>
      </trkpt>
      <trkpt lat="-27.824795" lon="-65.80688">
        <ele>1491.0</ele>
        <time>2018-08-19T21:40:39Z</time>
      </trkpt>
      <trkpt lat="-27.824845" lon="-65.806965">
        <ele>1491.3</ele>
        <time>2018-08-19T21:40:42Z</time>
      </trkpt>
      <trkpt lat="-27.824895" lon="-65.80705">
        <ele>1491.6</ele>
        <time>2018-08-19T21:40:45Z</time>
      </trkpt>
      <trkpt lat="-27.82494" lon="-65.80715000000001">
        <ele>1491.9</ele>
        <time>2018-08-19T21:40:48Z</time>
      </trkpt>
      <trkpt lat="-27.82498" lon="-65.807235">
        <ele>1492.1</ele>
        <time>2018-08-19T21:40:51Z</time>
      </trkpt>
      <trkpt lat="-27.825025" lon="-65.807355">
        <ele>1492.2</ele>
        <time>2018-08-19T21:40:54Z</time>
      </trkpt>
      <trkpt lat="-27.82507" lon="-65.80745">
        <ele>1492.4</ele>
        <time>2018-08-19T21:40:57Z</time>
      </trkpt>
      <trkpt lat="-27.825115" lon="-65.8075">
        <ele>1492.5</ele>
        <time>2018-08-19T21:40:59Z</time>
      </trkpt>
      <trkpt lat="-27.82518" lon="-65.80761">
        <ele>1492.6</ele>
        <time>2018-08-19T21:41:02Z</time>
      </trkpt>
      <trkpt lat="-27.82526" lon="-65.807685">
        <ele>1492.8</ele>
        <time>2018-08-19T21:41:05Z</time>
      </trkpt>
      <trkpt lat="-27.82536" lon="-65.807725">
        <ele>1493.0</ele>
        <time>2018-08-19T21:41:08Z</time>
      </trkpt>
      <trkpt lat="-27.82543" lon="-65.80777">
        <ele>1494.2</ele>
        <time>2018-08-19T21:41:10Z</time>
      </trkpt>
      <trkpt lat="-27.825505" lon="-65.80781">
        <ele>1494.9</ele>
        <time>2018-08-19T21:41:12Z</time>
      </trkpt>
      <trkpt lat="-27.82557" lon="-65.80789">
        <ele>1495.4</ele>
        <time>2018-08-19T21:41:14Z</time>
      </trkpt>
      <trkpt lat="-27.82559" lon="-65.80799">
        <ele>1496.5</ele>
        <time>2018-08-19T21:41:16Z</time>
      </trkpt>
      <trkpt lat="-27.825555" lon="-65.80808">
        <ele>1496.1</ele>
        <time>2018-08-19T21:41:18Z</time>
      </trkpt>
      <trkpt lat="-27.825485" lon="-65.808175">
        <ele>1494.4</ele>
        <time>2018-08-19T21:41:20Z</time>
      </trkpt>
      <trkpt lat="-27.825405" lon="-65.80826">
        <ele>1492.8</ele>
        <time>2018-08-19T21:41:22Z</time>
      </trkpt>
      <trkpt lat="-27.825345" lon="-65.808385">
        <ele>1491.3</ele>
        <time>2018-08-19T21:41:24Z</time>
      </trkpt>
      <trkpt lat="-27.82531" lon="-65.808525">
        <ele>1490.1</ele>
        <time>2018-08-19T21:41:26Z</time>
      </trkpt>
      <trkpt lat="-27.825295" lon="-65.80861">
        <ele>1489.3</ele>
        <time>2018-08-19T21:41:27Z</time>
      </trkpt>
      <trkpt lat="-27.825285" lon="-65.808755">
        <ele>1487.4</ele>
        <time>2018-08-19T21:41:29Z</time>
      </trkpt>
      <trkpt lat="-27.825275" lon="-65.808875">
        <ele>1486.1</ele>
        <time>2018-08-19T21:41:31Z</time>
      </trkpt>
      <trkpt lat="-27.82528" lon="-65.809015">
        <ele>1485.3</ele>
        <time>2018-08-19T21:41:33Z</time>
      </trkpt>
      <trkpt lat="-27.82533" lon="-65.80911">
        <ele>1484.1</ele>
        <time>2018-08-19T21:41:35Z</time>
      </trkpt>
      <trkpt lat="-27.82545" lon="-65.809195">
        <ele>1483.1</ele>
        <time>2018-08-19T21:41:37Z</time>
      </trkpt>
      <trkpt lat="-27.825595" lon="-65.809195">
        <ele>1482.8</ele>
        <time>2018-08-19T21:41:39Z</time>
      </trkpt>
      <trkpt lat="-27.825675" lon="-65.809185">
        <ele>1482.9</ele>
        <time>2018-08-19T21:41:40Z</time>
      </trkpt>
      <trkpt lat="-27.82576" lon="-65.80916">
        <ele>1482.8</ele>
        <time>2018-08-19T21:41:41Z</time>
      </trkpt>
      <trkpt lat="-27.82583" lon="-65.80916">
        <ele>1482.6</ele>
        <time>2018-08-19T21:41:42Z</time>
      </trkpt>
      <trkpt lat="-27.8259" lon="-65.80911333333333">
        <ele>1482.2</ele>
        <time>2018-08-19T21:41:43Z</time>
      </trkpt>
      <trkpt lat="-27.825995" lon="-65.8091">
        <ele>1482.0</ele>
        <time>2018-08-19T21:41:44Z</time>
      </trkpt>
      <trkpt lat="-27.82608" lon="-65.809075">
        <ele>1481.9</ele>
        <time>2018-08-19T21:41:45Z</time>
      </trkpt>
      <trkpt lat="-27.826155" lon="-65.809045">
        <ele>1481.9</ele>
        <time>2018-08-19T21:41:46Z</time>
      </trkpt>
      <trkpt lat="-27.82624" lon="-65.80901">
        <ele>1481.7</ele>
        <time>2018-08-19T21:41:47Z</time>
      </trkpt>
      <trkpt lat="-27.826315" lon="-65.80898">
        <ele>1481.4</ele>
        <time>2018-08-19T21:41:48Z</time>
      </trkpt>
      <trkpt lat="-27.82641" lon="-65.808935">
        <ele>1481.2</ele>
        <time>2018-08-19T21:41:49Z</time>
      </trkpt>
      <trkpt lat="-27.82648" lon="-65.80892">
        <ele>1481.1</ele>
        <time>2018-08-19T21:41:50Z</time>
      </trkpt>
      <trkpt lat="-27.826545" lon="-65.808895">
        <ele>1481.0</ele>
        <time>2018-08-19T21:41:51Z</time>
      </trkpt>
      <trkpt lat="-27.82662" lon="-65.80887">
        <ele>1480.8</ele>
        <time>2018-08-19T21:41:52Z</time>
      </trkpt>
      <trkpt lat="-27.82676" lon="-65.80882">
        <ele>1480.3</ele>
        <time>2018-08-19T21:41:54Z</time>
      </trkpt>
      <trkpt lat="-27.82683" lon="-65.808795">
        <ele>1480.1</ele>
        <time>2018-08-19T21:41:55Z</time>
      </trkpt>
      <trkpt lat="-27.826955" lon="-65.808755">
        <ele>1479.7</ele>
        <time>2018-08-19T21:41:57Z</time>
      </trkpt>
      <trkpt lat="-27.827085" lon="-65.80871">
        <ele>1479.1</ele>
        <time>2018-08-19T21:41:59Z</time>
      </trkpt>
      <trkpt lat="-27.827215" lon="-65.80871">
        <ele>1478.5</ele>
        <time>2018-08-19T21:42:01Z</time>
      </trkpt>
      <trkpt lat="-27.82732" lon="-65.808785">
        <ele>1477.8</ele>
        <time>2018-08-19T21:42:03Z</time>
      </trkpt>
      <trkpt lat="-27.827375" lon="-65.80885">
        <ele>1477.1</ele>
        <time>2018-08-19T21:42:04Z</time>
      </trkpt>
      <trkpt lat="-27.827465" lon="-65.80896">
        <ele>1476.8</ele>
        <time>2018-08-19T21:42:06Z</time>
      </trkpt>
      <trkpt lat="-27.82759" lon="-65.80901">
        <ele>1476.8</ele>
        <time>2018-08-19T21:42:08Z</time>
      </trkpt>
      <trkpt lat="-27.82773" lon="-65.80897">
        <ele>1476.1</ele>
        <time>2018-08-19T21:42:10Z</time>
      </trkpt>
      <trkpt lat="-27.82779" lon="-65.808915">
        <ele>1476.2</ele>
        <time>2018-08-19T21:42:11Z</time>
      </trkpt>
      <trkpt lat="-27.82785" lon="-65.80885">
        <ele>1476.0</ele>
        <time>2018-08-19T21:42:12Z</time>
      </trkpt>
      <trkpt lat="-27.8279" lon="-65.808795">
        <ele>1475.7</ele>
        <time>2018-08-19T21:42:13Z</time>
      </trkpt>
      <trkpt lat="-27.828005" lon="-65.80867">
        <ele>1474.7</ele>
        <time>2018-08-19T21:42:15Z</time>
      </trkpt>
      <trkpt lat="-27.82806" lon="-65.808625">
        <ele>1474.0</ele>
        <time>2018-08-19T21:42:16Z</time>
      </trkpt>
      <trkpt lat="-27.82812" lon="-65.808565">
        <ele>1473.3</ele>
        <time>2018-08-19T21:42:17Z</time>
      </trkpt>
      <trkpt lat="-27.82818" lon="-65.80853">
        <ele>1472.8</ele>
        <time>2018-08-19T21:42:18Z</time>
      </trkpt>
      <trkpt lat="-27.82831" lon="-65.808445">
        <ele>1471.9</ele>
        <time>2018-08-19T21:42:20Z</time>
      </trkpt>
      <trkpt lat="-27.82838" lon="-65.8084">
        <ele>1471.9</ele>
        <time>2018-08-19T21:42:21Z</time>
      </trkpt>
      <trkpt lat="-27.82846" lon="-65.80837">
        <ele>1472.0</ele>
        <time>2018-08-19T21:42:22Z</time>
      </trkpt>
      <trkpt lat="-27.82854" lon="-65.80838">
        <ele>1472.5</ele>
        <time>2018-08-19T21:42:23Z</time>
      </trkpt>
      <trkpt lat="-27.828615" lon="-65.8084">
        <ele>1473.0</ele>
        <time>2018-08-19T21:42:24Z</time>
      </trkpt>
      <trkpt lat="-27.82868" lon="-65.808445">
        <ele>1473.6</ele>
        <time>2018-08-19T21:42:25Z</time>
      </trkpt>
      <trkpt lat="-27.828765" lon="-65.808565">
        <ele>1474.3</ele>
        <time>2018-08-19T21:42:27Z</time>
      </trkpt>
      <trkpt lat="-27.82882" lon="-65.80871">
        <ele>1474.3</ele>
        <time>2018-08-19T21:42:29Z</time>
      </trkpt>
      <trkpt lat="-27.828855" lon="-65.80879">
        <ele>1474.0</ele>
        <time>2018-08-19T21:42:30Z</time>
      </trkpt>
      <trkpt lat="-27.828885" lon="-65.80887">
        <ele>1474.0</ele>
        <time>2018-08-19T21:42:31Z</time>
      </trkpt>
      <trkpt lat="-27.828975" lon="-65.80898">
        <ele>1473.3</ele>
        <time>2018-08-19T21:42:33Z</time>
      </trkpt>
      <trkpt lat="-27.829045" lon="-65.80902">
        <ele>1472.7</ele>
        <time>2018-08-19T21:42:34Z</time>
      </trkpt>
      <trkpt lat="-27.82913" lon="-65.809055">
        <ele>1472.2</ele>
        <time>2018-08-19T21:42:35Z</time>
      </trkpt>
      <trkpt lat="-27.82921" lon="-65.809065">
        <ele>1471.7</ele>
        <time>2018-08-19T21:42:36Z</time>
      </trkpt>
      <trkpt lat="-27.829345" lon="-65.809075">
        <ele>1469.5</ele>
        <time>2018-08-19T21:42:38Z</time>
      </trkpt>
      <trkpt lat="-27.829425" lon="-65.8091">
        <ele>1469.1</ele>
        <time>2018-08-19T21:42:39Z</time>
      </trkpt>
      <trkpt lat="-27.82949" lon="-65.809155">
        <ele>1469.0</ele>
        <time>2018-08-19T21:42:40Z</time>
      </trkpt>
      <trkpt lat="-27.829535" lon="-65.80923">
        <ele>1469.0</ele>
        <time>2018-08-19T21:42:41Z</time>
      </trkpt>
      <trkpt lat="-27.829555" lon="-65.80932">
        <ele>1468.9</ele>
        <time>2018-08-19T21:42:42Z</time>
      </trkpt>
      <trkpt lat="-27.82956" lon="-65.80943">
        <ele>1468.8</ele>
        <time>2018-08-19T21:42:43Z</time>
      </trkpt>
      <trkpt lat="-27.82956" lon="-65.809515">
        <ele>1468.4</ele>
        <time>2018-08-19T21:42:44Z</time>
      </trkpt>
      <trkpt lat="-27.829545" lon="-65.809625">
        <ele>1467.8</ele>
        <time>2018-08-19T21:42:45Z</time>
      </trkpt>
      <trkpt lat="-27.829535" lon="-65.80973">
        <ele>1467.1</ele>
        <time>2018-08-19T21:42:46Z</time>
      </trkpt>
      <trkpt lat="-27.829525" lon="-65.809835">
        <ele>1466.5</ele>
        <time>2018-08-19T21:42:47Z</time>
      </trkpt>
      <trkpt lat="-27.8295" lon="-65.809945">
        <ele>1465.7</ele>
        <time>2018-08-19T21:42:48Z</time>
      </trkpt>
      <trkpt lat="-27.82948" lon="-65.81005">
        <ele>1464.9</ele>
        <time>2018-08-19T21:42:49Z</time>
      </trkpt>
      <trkpt lat="-27.82945" lon="-65.810145">
        <ele>1464.2</ele>
        <time>2018-08-19T21:42:50Z</time>
      </trkpt>
      <trkpt lat="-27.82941" lon="-65.810265">
        <ele>1463.6</ele>
        <time>2018-08-19T21:42:51Z</time>
      </trkpt>
      <trkpt lat="-27.82937" lon="-65.81036">
        <ele>1463.1</ele>
        <time>2018-08-19T21:42:52Z</time>
      </trkpt>
      <trkpt lat="-27.82933" lon="-65.810455">
        <ele>1462.5</ele>
        <time>2018-08-19T21:42:53Z</time>
      </trkpt>
      <trkpt lat="-27.82929" lon="-65.81053666666666">
        <ele>1461.6</ele>
        <time>2018-08-19T21:42:54Z</time>
      </trkpt>
      <trkpt lat="-27.829245" lon="-65.810665">
        <ele>1460.0</ele>
        <time>2018-08-19T21:42:55Z</time>
      </trkpt>
      <trkpt lat="-27.8292" lon="-65.810765">
        <ele>1458.1</ele>
        <time>2018-08-19T21:42:56Z</time>
      </trkpt>
      <trkpt lat="-27.829165" lon="-65.810855">
        <ele>1456.2</ele>
        <time>2018-08-19T21:42:57Z</time>
      </trkpt>
      <trkpt lat="-27.82913" lon="-65.810945">
        <ele>1454.2</ele>
        <time>2018-08-19T21:42:58Z</time>
      </trkpt>
      <trkpt lat="-27.829095" lon="-65.811025">
        <ele>1452.8</ele>
        <time>2018-08-19T21:42:59Z</time>
      </trkpt>
      <trkpt lat="-27.829075" lon="-65.811115">
        <ele>1451.6</ele>
        <time>2018-08-19T21:43:00Z</time>
      </trkpt>
      <trkpt lat="-27.829065" lon="-65.811215">
        <ele>1450.7</ele>
        <time>2018-08-19T21:43:01Z</time>
      </trkpt>
      <trkpt lat="-27.829075" lon="-65.811325">
        <ele>1449.6</ele>
        <time>2018-08-19T21:43:02Z</time>
      </trkpt>
      <trkpt lat="-27.829095" lon="-65.811425">
        <ele>1448.3</ele>
        <time>2018-08-19T21:43:03Z</time>
      </trkpt>
      <trkpt lat="-27.82914" lon="-65.811485">
        <ele>1447.4</ele>
        <time>2018-08-19T21:43:04Z</time>
      </trkpt>
      <trkpt lat="-27.829195" lon="-65.81158">
        <ele>1446.7</ele>
        <time>2018-08-19T21:43:05Z</time>
      </trkpt>
      <trkpt lat="-27.829255" lon="-65.811665">
        <ele>1446.2</ele>
        <time>2018-08-19T21:43:06Z</time>
      </trkpt>
      <trkpt lat="-27.82931" lon="-65.81174">
        <ele>1445.8</ele>
        <time>2018-08-19T21:43:07Z</time>
      </trkpt>
      <trkpt lat="-27.82938" lon="-65.811805">
        <ele>1445.4</ele>
        <time>2018-08-19T21:43:08Z</time>
      </trkpt>
      <trkpt lat="-27.82945" lon="-65.81188">
        <ele>1445.1</ele>
        <time>2018-08-19T21:43:09Z</time>
      </trkpt>
      <trkpt lat="-27.82952" lon="-65.811935">
        <ele>1444.7</ele>
        <time>2018-08-19T21:43:10Z</time>
      </trkpt>
      <trkpt lat="-27.82959" lon="-65.812015">
        <ele>1444.2</ele>
        <time>2018-08-19T21:43:11Z</time>
      </trkpt>
      <trkpt lat="-27.82966" lon="-65.81206666666667">
        <ele>1443.7</ele>
        <time>2018-08-19T21:43:12Z</time>
      </trkpt>
      <trkpt lat="-27.829735" lon="-65.81216">
        <ele>1443.1</ele>
        <time>2018-08-19T21:43:13Z</time>
      </trkpt>
      <trkpt lat="-27.829805" lon="-65.812225">
        <ele>1442.6</ele>
        <time>2018-08-19T21:43:14Z</time>
      </trkpt>
      <trkpt lat="-27.829875" lon="-65.81228">
        <ele>1442.1</ele>
        <time>2018-08-19T21:43:15Z</time>
      </trkpt>
      <trkpt lat="-27.829945" lon="-65.81234">
        <ele>1441.6</ele>
        <time>2018-08-19T21:43:16Z</time>
      </trkpt>
      <trkpt lat="-27.830015" lon="-65.812385">
        <ele>1441.2</ele>
        <time>2018-08-19T21:43:17Z</time>
      </trkpt>
      <trkpt lat="-27.830095" lon="-65.812415">
        <ele>1440.7</ele>
        <time>2018-08-19T21:43:18Z</time>
      </trkpt>
      <trkpt lat="-27.830185" lon="-65.812425">
        <ele>1440.3</ele>
        <time>2018-08-19T21:43:19Z</time>
      </trkpt>
      <trkpt lat="-27.83028" lon="-65.812425">
        <ele>1440.0</ele>
        <time>2018-08-19T21:43:20Z</time>
      </trkpt>
      <trkpt lat="-27.830365" lon="-65.812405">
        <ele>1440.0</ele>
        <time>2018-08-19T21:43:21Z</time>
      </trkpt>
      <trkpt lat="-27.83044" lon="-65.812365">
        <ele>1439.9</ele>
        <time>2018-08-19T21:43:22Z</time>
      </trkpt>
      <trkpt lat="-27.830505" lon="-65.81232">
        <ele>1440.0</ele>
        <time>2018-08-19T21:43:23Z</time>
      </trkpt>
      <trkpt lat="-27.830565" lon="-65.812265">
        <ele>1440.2</ele>
        <time>2018-08-19T21:43:24Z</time>
      </trkpt>
      <trkpt lat="-27.830685" lon="-65.81216">
        <ele>1440.4</ele>
        <time>2018-08-19T21:43:26Z</time>
      </trkpt>
      <trkpt lat="-27.830735" lon="-65.8121">
        <ele>1440.4</ele>
        <time>2018-08-19T21:43:27Z</time>
      </trkpt>
      <trkpt lat="-27.83079" lon="-65.812045">
        <ele>1440.4</ele>
        <time>2018-08-19T21:43:28Z</time>
      </trkpt>
      <trkpt lat="-27.830845" lon="-65.811975">
        <ele>1440.3</ele>
        <time>2018-08-19T21:43:29Z</time>
      </trkpt>
      <trkpt lat="-27.83096" lon="-65.81189">
        <ele>1439.8</ele>
        <time>2018-08-19T21:43:31Z</time>
      </trkpt>
      <trkpt lat="-27.8311" lon="-65.81185">
        <ele>1439.5</ele>
        <time>2018-08-19T21:43:33Z</time>
      </trkpt>
      <trkpt lat="-27.83118" lon="-65.81185">
        <ele>1439.7</ele>
        <time>2018-08-19T21:43:34Z</time>
      </trkpt>
      <trkpt lat="-27.831255" lon="-65.81185">
        <ele>1440.2</ele>
        <time>2018-08-19T21:43:35Z</time>
      </trkpt>
      <trkpt lat="-27.831375" lon="-65.811935">
        <ele>1441.0</ele>
        <time>2018-08-19T21:43:37Z</time>
      </trkpt>
      <trkpt lat="-27.83148" lon="-65.81202">
        <ele>1441.7</ele>
        <time>2018-08-19T21:43:39Z</time>
      </trkpt>
      <trkpt lat="-27.83157" lon="-65.812115">
        <ele>1442.9</ele>
        <time>2018-08-19T21:43:41Z</time>
      </trkpt>
      <trkpt lat="-27.83165" lon="-65.8122">
        <ele>1443.3</ele>
        <time>2018-08-19T21:43:43Z</time>
      </trkpt>
      <trkpt lat="-27.83172" lon="-65.81233">
        <ele>1443.5</ele>
        <time>2018-08-19T21:43:45Z</time>
      </trkpt>
      <trkpt lat="-27.83179" lon="-65.812425">
        <ele>1443.1</ele>
        <time>2018-08-19T21:43:47Z</time>
      </trkpt>
      <trkpt lat="-27.83185" lon="-65.812555">
        <ele>1442.7</ele>
        <time>2018-08-19T21:43:49Z</time>
      </trkpt>
      <trkpt lat="-27.831925" lon="-65.812685">
        <ele>1442.2</ele>
        <time>2018-08-19T21:43:51Z</time>
      </trkpt>
      <trkpt lat="-27.83201" lon="-65.812815">
        <ele>1441.7</ele>
        <time>2018-08-19T21:43:53Z</time>
      </trkpt>
      <trkpt lat="-27.832055" lon="-65.812875">
        <ele>1441.5</ele>
        <time>2018-08-19T21:43:54Z</time>
      </trkpt>
      <trkpt lat="-27.8321" lon="-65.812945">
        <ele>1441.4</ele>
        <time>2018-08-19T21:43:55Z</time>
      </trkpt>
      <trkpt lat="-27.832215" lon="-65.81303">
        <ele>1440.6</ele>
        <time>2018-08-19T21:43:57Z</time>
      </trkpt>
      <trkpt lat="-27.832355" lon="-65.81305">
        <ele>1438.2</ele>
        <time>2018-08-19T21:43:59Z</time>
      </trkpt>
      <trkpt lat="-27.832435" lon="-65.81305">
        <ele>1437.0</ele>
        <time>2018-08-19T21:44:00Z</time>
      </trkpt>
      <trkpt lat="-27.832515" lon="-65.81304">
        <ele>1436.0</ele>
        <time>2018-08-19T21:44:01Z</time>
      </trkpt>
      <trkpt lat="-27.8326" lon="-65.813">
        <ele>1435.4</ele>
        <time>2018-08-19T21:44:02Z</time>
      </trkpt>
      <trkpt lat="-27.83267" lon="-65.81292">
        <ele>1435.1</ele>
        <time>2018-08-19T21:44:03Z</time>
      </trkpt>
      <trkpt lat="-27.832725" lon="-65.81286">
        <ele>1434.9</ele>
        <time>2018-08-19T21:44:04Z</time>
      </trkpt>
      <trkpt lat="-27.83276" lon="-65.812775">
        <ele>1434.7</ele>
        <time>2018-08-19T21:44:05Z</time>
      </trkpt>
      <trkpt lat="-27.832795" lon="-65.81269">
        <ele>1434.4</ele>
        <time>2018-08-19T21:44:06Z</time>
      </trkpt>
      <trkpt lat="-27.832825" lon="-65.81259">
        <ele>1434.0</ele>
        <time>2018-08-19T21:44:07Z</time>
      </trkpt>
      <trkpt lat="-27.832835" lon="-65.812495">
        <ele>1433.7</ele>
        <time>2018-08-19T21:44:08Z</time>
      </trkpt>
      <trkpt lat="-27.83286" lon="-65.812385">
        <ele>1433.2</ele>
        <time>2018-08-19T21:44:09Z</time>
      </trkpt>
      <trkpt lat="-27.83287" lon="-65.812275">
        <ele>1432.9</ele>
        <time>2018-08-19T21:44:10Z</time>
      </trkpt>
      <trkpt lat="-27.83288" lon="-65.81215">
        <ele>1432.7</ele>
        <time>2018-08-19T21:44:11Z</time>
      </trkpt>
      <trkpt lat="-27.8329" lon="-65.81202">
        <ele>1432.7</ele>
        <time>2018-08-19T21:44:12Z</time>
      </trkpt>
      <trkpt lat="-27.83291" lon="-65.811935">
        <ele>1433.0</ele>
        <time>2018-08-19T21:44:13Z</time>
      </trkpt>
      <trkpt lat="-27.832925" lon="-65.81183">
        <ele>1433.1</ele>
        <time>2018-08-19T21:44:14Z</time>
      </trkpt>
      <trkpt lat="-27.832935" lon="-65.81174">
        <ele>1433.1</ele>
        <time>2018-08-19T21:44:15Z</time>
      </trkpt>
      <trkpt lat="-27.83294" lon="-65.811645">
        <ele>1433.2</ele>
        <time>2018-08-19T21:44:16Z</time>
      </trkpt>
      <trkpt lat="-27.83295" lon="-65.81155">
        <ele>1433.3</ele>
        <time>2018-08-19T21:44:17Z</time>
      </trkpt>
      <trkpt lat="-27.83295" lon="-65.811465">
        <ele>1433.2</ele>
        <time>2018-08-19T21:44:18Z</time>
      </trkpt>
      <trkpt lat="-27.832965" lon="-65.81137">
        <ele>1433.2</ele>
        <time>2018-08-19T21:44:19Z</time>
      </trkpt>
      <trkpt lat="-27.832975" lon="-65.81129">
        <ele>1433.1</ele>
        <time>2018-08-19T21:44:20Z</time>
      </trkpt>
      <trkpt lat="-27.83298" lon="-65.8112">
        <ele>1432.9</ele>
        <time>2018-08-19T21:44:21Z</time>
      </trkpt>
      <trkpt lat="-27.832985" lon="-65.81112">
        <ele>1432.7</ele>
        <time>2018-08-19T21:44:22Z</time>
      </trkpt>
      <trkpt lat="-27.832995" lon="-65.811035">
        <ele>1432.7</ele>
        <time>2018-08-19T21:44:23Z</time>
      </trkpt>
      <trkpt lat="-27.833005" lon="-65.810865">
        <ele>1432.3</ele>
        <time>2018-08-19T21:44:25Z</time>
      </trkpt>
      <trkpt lat="-27.833015" lon="-65.810725">
        <ele>1431.3</ele>
        <time>2018-08-19T21:44:27Z</time>
      </trkpt>
      <trkpt lat="-27.83302" lon="-65.810585">
        <ele>1430.1</ele>
        <time>2018-08-19T21:44:29Z</time>
      </trkpt>
      <trkpt lat="-27.833035" lon="-65.810445">
        <ele>1429.4</ele>
        <time>2018-08-19T21:44:31Z</time>
      </trkpt>
      <trkpt lat="-27.83305" lon="-65.81031">
        <ele>1428.7</ele>
        <time>2018-08-19T21:44:33Z</time>
      </trkpt>
      <trkpt lat="-27.833085" lon="-65.81018">
        <ele>1427.5</ele>
        <time>2018-08-19T21:44:35Z</time>
      </trkpt>
      <trkpt lat="-27.83314" lon="-65.81005">
        <ele>1426.6</ele>
        <time>2018-08-19T21:44:37Z</time>
      </trkpt>
      <trkpt lat="-27.83323" lon="-65.809965">
        <ele>1426.3</ele>
        <time>2018-08-19T21:44:39Z</time>
      </trkpt>
      <trkpt lat="-27.83333" lon="-65.80988">
        <ele>1426.2</ele>
        <time>2018-08-19T21:44:41Z</time>
      </trkpt>
      <trkpt lat="-27.83344" lon="-65.809835">
        <ele>1426.0</ele>
        <time>2018-08-19T21:44:43Z</time>
      </trkpt>
      <trkpt lat="-27.833545" lon="-65.80978">
        <ele>1426.0</ele>
        <time>2018-08-19T21:44:45Z</time>
      </trkpt>
      <trkpt lat="-27.83366" lon="-65.809765">
        <ele>1426.0</ele>
        <time>2018-08-19T21:44:47Z</time>
      </trkpt>
      <trkpt lat="-27.83378" lon="-65.809765">
        <ele>1425.8</ele>
        <time>2018-08-19T21:44:49Z</time>
      </trkpt>
      <trkpt lat="-27.83391" lon="-65.809835">
        <ele>1425.6</ele>
        <time>2018-08-19T21:44:51Z</time>
      </trkpt>
      <trkpt lat="-27.83397" lon="-65.80988">
        <ele>1425.8</ele>
        <time>2018-08-19T21:44:52Z</time>
      </trkpt>
      <trkpt lat="-27.834025" lon="-65.80996">
        <ele>1426.1</ele>
        <time>2018-08-19T21:44:53Z</time>
      </trkpt>
      <trkpt lat="-27.834065" lon="-65.81003">
        <ele>1426.4</ele>
        <time>2018-08-19T21:44:54Z</time>
      </trkpt>
      <trkpt lat="-27.834105" lon="-65.810095">
        <ele>1426.7</ele>
        <time>2018-08-19T21:44:55Z</time>
      </trkpt>
      <trkpt lat="-27.83415" lon="-65.81018">
        <ele>1427.2</ele>
        <time>2018-08-19T21:44:56Z</time>
      </trkpt>
      <trkpt lat="-27.834195" lon="-65.81027">
        <ele>1427.6</ele>
        <time>2018-08-19T21:44:57Z</time>
      </trkpt>
      <trkpt lat="-27.834235" lon="-65.81036">
        <ele>1427.9</ele>
        <time>2018-08-19T21:44:58Z</time>
      </trkpt>
      <trkpt lat="-27.834275" lon="-65.810445">
        <ele>1428.1</ele>
        <time>2018-08-19T21:44:59Z</time>
      </trkpt>
      <trkpt lat="-27.834315" lon="-65.81053">
        <ele>1428.1</ele>
        <time>2018-08-19T21:45:00Z</time>
      </trkpt>
      <trkpt lat="-27.834365" lon="-65.810615">
        <ele>1427.9</ele>
        <time>2018-08-19T21:45:01Z</time>
      </trkpt>
      <trkpt lat="-27.83441" lon="-65.81068">
        <ele>1427.5</ele>
        <time>2018-08-19T21:45:02Z</time>
      </trkpt>
      <trkpt lat="-27.83445" lon="-65.810765">
        <ele>1427.1</ele>
        <time>2018-08-19T21:45:03Z</time>
      </trkpt>
      <trkpt lat="-27.83449" lon="-65.81084">
        <ele>1426.6</ele>
        <time>2018-08-19T21:45:04Z</time>
      </trkpt>
      <trkpt lat="-27.834535" lon="-65.810905">
        <ele>1426.1</ele>
        <time>2018-08-19T21:45:05Z</time>
      </trkpt>
      <trkpt lat="-27.834600000000002" lon="-65.81095">
        <ele>1425.4</ele>
        <time>2018-08-19T21:45:06Z</time>
      </trkpt>
      <trkpt lat="-27.83467" lon="-65.81099">
        <ele>1424.7</ele>
        <time>2018-08-19T21:45:07Z</time>
      </trkpt>
      <trkpt lat="-27.834745" lon="-65.811025">
        <ele>1423.9</ele>
        <time>2018-08-19T21:45:08Z</time>
      </trkpt>
      <trkpt lat="-27.83484" lon="-65.81099">
        <ele>1422.8</ele>
        <time>2018-08-19T21:45:09Z</time>
      </trkpt>
      <trkpt lat="-27.834905" lon="-65.810945">
        <ele>1421.6</ele>
        <time>2018-08-19T21:45:10Z</time>
      </trkpt>
      <trkpt lat="-27.834975" lon="-65.810865">
        <ele>1420.4</ele>
        <time>2018-08-19T21:45:11Z</time>
      </trkpt>
      <trkpt lat="-27.83503" lon="-65.8108">
        <ele>1419.6</ele>
        <time>2018-08-19T21:45:12Z</time>
      </trkpt>
      <trkpt lat="-27.835085" lon="-65.810705">
        <ele>1418.2</ele>
        <time>2018-08-19T21:45:13Z</time>
      </trkpt>
      <trkpt lat="-27.83512" lon="-65.81062">
        <ele>1416.7</ele>
        <time>2018-08-19T21:45:14Z</time>
      </trkpt>
      <trkpt lat="-27.835155" lon="-65.810535">
        <ele>1415.7</ele>
        <time>2018-08-19T21:45:15Z</time>
      </trkpt>
      <trkpt lat="-27.83522" lon="-65.810415">
        <ele>1415.0</ele>
        <time>2018-08-19T21:45:17Z</time>
      </trkpt>
      <trkpt lat="-27.8353" lon="-65.81036">
        <ele>1414.8</ele>
        <time>2018-08-19T21:45:19Z</time>
      </trkpt>
      <trkpt lat="-27.83542" lon="-65.81031166666666">
        <ele>1414.1</ele>
        <time>2018-08-19T21:45:21Z</time>
      </trkpt>
      <trkpt lat="-27.83552" lon="-65.81034">
        <ele>1413.5</ele>
        <time>2018-08-19T21:45:23Z</time>
      </trkpt>
      <trkpt lat="-27.8356" lon="-65.81037">
        <ele>1412.6</ele>
        <time>2018-08-19T21:45:25Z</time>
      </trkpt>
      <trkpt lat="-27.8357" lon="-65.810415">
        <ele>1411.8</ele>
        <time>2018-08-19T21:45:27Z</time>
      </trkpt>
      <trkpt lat="-27.835835" lon="-65.810445">
        <ele>1411.4</ele>
        <time>2018-08-19T21:45:29Z</time>
      </trkpt>
      <trkpt lat="-27.835905" lon="-65.810415">
        <ele>1411.2</ele>
        <time>2018-08-19T21:45:30Z</time>
      </trkpt>
      <trkpt lat="-27.836025" lon="-65.81037">
        <ele>1410.8</ele>
        <time>2018-08-19T21:45:32Z</time>
      </trkpt>
      <trkpt lat="-27.836095" lon="-65.81031666666667">
        <ele>1410.6</ele>
        <time>2018-08-19T21:45:33Z</time>
      </trkpt>
      <trkpt lat="-27.836205" lon="-65.810275">
        <ele>1409.6</ele>
        <time>2018-08-19T21:45:35Z</time>
      </trkpt>
      <trkpt lat="-27.83635" lon="-65.810265">
        <ele>1409.2</ele>
        <time>2018-08-19T21:45:37Z</time>
      </trkpt>
      <trkpt lat="-27.836475" lon="-65.810265">
        <ele>1409.3</ele>
        <time>2018-08-19T21:45:39Z</time>
      </trkpt>
      <trkpt lat="-27.836545" lon="-65.81027">
        <ele>1409.1</ele>
        <time>2018-08-19T21:45:40Z</time>
      </trkpt>
      <trkpt lat="-27.83668" lon="-65.8103">
        <ele>1408.5</ele>
        <time>2018-08-19T21:45:42Z</time>
      </trkpt>
      <trkpt lat="-27.83675" lon="-65.81034">
        <ele>1408.1</ele>
        <time>2018-08-19T21:45:43Z</time>
      </trkpt>
      <trkpt lat="-27.83682" lon="-65.81037">
        <ele>1407.9</ele>
        <time>2018-08-19T21:45:44Z</time>
      </trkpt>
      <trkpt lat="-27.83694" lon="-65.81045">
        <ele>1407.3</ele>
        <time>2018-08-19T21:45:46Z</time>
      </trkpt>
      <trkpt lat="-27.837055" lon="-65.810535">
        <ele>1406.8</ele>
        <time>2018-08-19T21:45:48Z</time>
      </trkpt>
      <trkpt lat="-27.83715" lon="-65.81064">
        <ele>1405.6</ele>
        <time>2018-08-19T21:45:50Z</time>
      </trkpt>
      <trkpt lat="-27.83719" lon="-65.810715">
        <ele>1405.1</ele>
        <time>2018-08-19T21:45:51Z</time>
      </trkpt>
      <trkpt lat="-27.837255" lon="-65.810855">
        <ele>1404.7</ele>
        <time>2018-08-19T21:45:53Z</time>
      </trkpt>
      <trkpt lat="-27.837285" lon="-65.81099">
        <ele>1405.3</ele>
        <time>2018-08-19T21:45:55Z</time>
      </trkpt>
      <trkpt lat="-27.8373" lon="-65.81113">
        <ele>1405.9</ele>
        <time>2018-08-19T21:45:57Z</time>
      </trkpt>
      <trkpt lat="-27.837315" lon="-65.81128">
        <ele>1406.8</ele>
        <time>2018-08-19T21:45:59Z</time>
      </trkpt>
      <trkpt lat="-27.837325" lon="-65.8114">
        <ele>1408.3</ele>
        <time>2018-08-19T21:46:01Z</time>
      </trkpt>
      <trkpt lat="-27.83733" lon="-65.811515">
        <ele>1409.8</ele>
        <time>2018-08-19T21:46:03Z</time>
      </trkpt>
      <trkpt lat="-27.83734" lon="-65.811605">
        <ele>1409.9</ele>
        <time>2018-08-19T21:46:05Z</time>
      </trkpt>
      <trkpt lat="-27.83734" lon="-65.81171">
        <ele>1410.1</ele>
        <time>2018-08-19T21:46:08Z</time>
      </trkpt>
      <trkpt lat="-27.83736" lon="-65.81183">
        <ele>1410.4</ele>
        <time>2018-08-19T21:46:11Z</time>
      </trkpt>
      <trkpt lat="-27.837375" lon="-65.811935">
        <ele>1410.6</ele>
        <time>2018-08-19T21:46:14Z</time>
      </trkpt>
      <trkpt lat="-27.83741" lon="-65.81202">
        <ele>1410.6</ele>
        <time>2018-08-19T21:46:17Z</time>
      </trkpt>
      <trkpt lat="-27.837455" lon="-65.812115">
        <ele>1410.4</ele>
        <time>2018-08-19T21:46:20Z</time>
      </trkpt>
      <trkpt lat="-27.837515" lon="-65.8122">
        <ele>1410.3</ele>
        <time>2018-08-19T21:46:23Z</time>
      </trkpt>
      <trkpt lat="-27.83758" lon="-65.81228">
        <ele>1410.3</ele>
        <time>2018-08-19T21:46:26Z</time>
      </trkpt>
      <trkpt lat="-27.83765" lon="-65.81233">
        <ele>1410.1</ele>
        <time>2018-08-19T21:46:29Z</time>
      </trkpt>
      <trkpt lat="-27.837744999999998" lon="-65.812375">
        <ele>1409.7</ele>
        <time>2018-08-19T21:46:32Z</time>
      </trkpt>
      <trkpt lat="-27.837815" lon="-65.812415">
        <ele>1409.6</ele>
        <time>2018-08-19T21:46:34Z</time>
      </trkpt>
      <trkpt lat="-27.83792" lon="-65.812465">
        <ele>1409.5</ele>
        <time>2018-08-19T21:46:37Z</time>
      </trkpt>
      <trkpt lat="-27.837995" lon="-65.812495">
        <ele>1409.6</ele>
        <time>2018-08-19T21:46:39Z</time>
      </trkpt>
      <trkpt lat="-27.83809" lon="-65.812505">
        <ele>1409.7</ele>
        <time>2018-08-19T21:46:42Z</time>
      </trkpt>
      <trkpt lat="-27.838175" lon="-65.812555">
        <ele>1409.7</ele>
        <time>2018-08-19T21:46:45Z</time>
      </trkpt>
      <trkpt lat="-27.838265" lon="-65.8126">
        <ele>1409.9</ele>
        <time>2018-08-19T21:46:48Z</time>
      </trkpt>
      <trkpt lat="-27.838345" lon="-65.812645">
        <ele>1410.1</ele>
        <time>2018-08-19T21:46:51Z</time>
      </trkpt>
      <trkpt lat="-27.83841" lon="-65.81269">
        <ele>1410.2</ele>
        <time>2018-08-19T21:46:54Z</time>
      </trkpt>
      <trkpt lat="-27.838495" lon="-65.812735">
        <ele>1410.2</ele>
        <time>2018-08-19T21:46:57Z</time>
      </trkpt>
      <trkpt lat="-27.838565" lon="-65.81277">
        <ele>1410.1</ele>
        <time>2018-08-19T21:46:59Z</time>
      </trkpt>
      <trkpt lat="-27.838635" lon="-65.812805">
        <ele>1410.1</ele>
        <time>2018-08-19T21:47:01Z</time>
      </trkpt>
      <trkpt lat="-27.838705" lon="-65.812835">
        <ele>1410.4</ele>
        <time>2018-08-19T21:47:03Z</time>
      </trkpt>
      <trkpt lat="-27.83879" lon="-65.81287">
        <ele>1410.9</ele>
        <time>2018-08-19T21:47:05Z</time>
      </trkpt>
      <trkpt lat="-27.838875" lon="-65.81291">
        <ele>1411.1</ele>
        <time>2018-08-19T21:47:07Z</time>
      </trkpt>
      <trkpt lat="-27.838955" lon="-65.812945">
        <ele>1411.0</ele>
        <time>2018-08-19T21:47:09Z</time>
      </trkpt>
      <trkpt lat="-27.83904" lon="-65.812985">
        <ele>1410.8</ele>
        <time>2018-08-19T21:47:11Z</time>
      </trkpt>
      <trkpt lat="-27.839115" lon="-65.81304">
        <ele>1411.0</ele>
        <time>2018-08-19T21:47:13Z</time>
      </trkpt>
      <trkpt lat="-27.839195" lon="-65.813095">
        <ele>1411.1</ele>
        <time>2018-08-19T21:47:15Z</time>
      </trkpt>
      <trkpt lat="-27.839275" lon="-65.813145">
        <ele>1410.8</ele>
        <time>2018-08-19T21:47:17Z</time>
      </trkpt>
      <trkpt lat="-27.83935" lon="-65.813185">
        <ele>1410.1</ele>
        <time>2018-08-19T21:47:19Z</time>
      </trkpt>
      <trkpt lat="-27.83942" lon="-65.813255">
        <ele>1408.6</ele>
        <time>2018-08-19T21:47:21Z</time>
      </trkpt>
      <trkpt lat="-27.839495" lon="-65.813315">
        <ele>1407.4</ele>
        <time>2018-08-19T21:47:23Z</time>
      </trkpt>
      <trkpt lat="-27.839575" lon="-65.81337">
        <ele>1407.1</ele>
        <time>2018-08-19T21:47:25Z</time>
      </trkpt>
      <trkpt lat="-27.839655" lon="-65.81345">
        <ele>1407.3</ele>
        <time>2018-08-19T21:47:27Z</time>
      </trkpt>
      <trkpt lat="-27.839705" lon="-65.81355">
        <ele>1407.2</ele>
        <time>2018-08-19T21:47:29Z</time>
      </trkpt>
      <trkpt lat="-27.83972" lon="-65.81366">
        <ele>1407.2</ele>
        <time>2018-08-19T21:47:31Z</time>
      </trkpt>
      <trkpt lat="-27.83971" lon="-65.813765">
        <ele>1407.0</ele>
        <time>2018-08-19T21:47:33Z</time>
      </trkpt>
      <trkpt lat="-27.83969" lon="-65.81386">
        <ele>1406.8</ele>
        <time>2018-08-19T21:47:35Z</time>
      </trkpt>
      <trkpt lat="-27.839675" lon="-65.813985">
        <ele>1406.5</ele>
        <time>2018-08-19T21:47:37Z</time>
      </trkpt>
      <trkpt lat="-27.83967" lon="-65.81411">
        <ele>1405.8</ele>
        <time>2018-08-19T21:47:39Z</time>
      </trkpt>
      <trkpt lat="-27.83969" lon="-65.814215">
        <ele>1405.2</ele>
        <time>2018-08-19T21:47:41Z</time>
      </trkpt>
      <trkpt lat="-27.83974" lon="-65.81428">
        <ele>1405.2</ele>
        <time>2018-08-19T21:47:43Z</time>
      </trkpt>
      <trkpt lat="-27.8398" lon="-65.814355">
        <ele>1404.7</ele>
        <time>2018-08-19T21:47:45Z</time>
      </trkpt>
      <trkpt lat="-27.839875" lon="-65.81443">
        <ele>1403.7</ele>
        <time>2018-08-19T21:47:47Z</time>
      </trkpt>
      <trkpt lat="-27.839955" lon="-65.81447">
        <ele>1402.1</ele>
        <time>2018-08-19T21:47:49Z</time>
      </trkpt>
      <trkpt lat="-27.84007" lon="-65.814515">
        <ele>1400.9</ele>
        <time>2018-08-19T21:47:51Z</time>
      </trkpt>
      <trkpt lat="-27.840165" lon="-65.81452">
        <ele>1399.9</ele>
        <time>2018-08-19T21:47:53Z</time>
      </trkpt>
      <trkpt lat="-27.84026" lon="-65.814475">
        <ele>1399.8</ele>
        <time>2018-08-19T21:47:55Z</time>
      </trkpt>
      <trkpt lat="-27.840365" lon="-65.814395">
        <ele>1400.2</ele>
        <time>2018-08-19T21:47:57Z</time>
      </trkpt>
      <trkpt lat="-27.84041" lon="-65.81431">
        <ele>1401.1</ele>
        <time>2018-08-19T21:47:59Z</time>
      </trkpt>
      <trkpt lat="-27.840445" lon="-65.814195">
        <ele>1402.2</ele>
        <time>2018-08-19T21:48:01Z</time>
      </trkpt>
      <trkpt lat="-27.840475" lon="-65.81407">
        <ele>1403.3</ele>
        <time>2018-08-19T21:48:03Z</time>
      </trkpt>
      <trkpt lat="-27.84051" lon="-65.813935">
        <ele>1403.6</ele>
        <time>2018-08-19T21:48:05Z</time>
      </trkpt>
      <trkpt lat="-27.840535" lon="-65.813795">
        <ele>1403.0</ele>
        <time>2018-08-19T21:48:07Z</time>
      </trkpt>
      <trkpt lat="-27.84058" lon="-65.813635">
        <ele>1402.2</ele>
        <time>2018-08-19T21:48:09Z</time>
      </trkpt>
      <trkpt lat="-27.840605" lon="-65.813475">
        <ele>1401.3</ele>
        <time>2018-08-19T21:48:11Z</time>
      </trkpt>
      <trkpt lat="-27.840625" lon="-65.81337">
        <ele>1400.9</ele>
        <time>2018-08-19T21:48:12Z</time>
      </trkpt>
      <trkpt lat="-27.84064" lon="-65.81326833333334">
        <ele>1400.5</ele>
        <time>2018-08-19T21:48:13Z</time>
      </trkpt>
      <trkpt lat="-27.84065" lon="-65.813185">
        <ele>1400.2</ele>
        <time>2018-08-19T21:48:14Z</time>
      </trkpt>
      <trkpt lat="-27.84066" lon="-65.8131">
        <ele>1399.9</ele>
        <time>2018-08-19T21:48:15Z</time>
      </trkpt>
      <trkpt lat="-27.840665" lon="-65.812995">
        <ele>1399.6</ele>
        <time>2018-08-19T21:48:16Z</time>
      </trkpt>
      <trkpt lat="-27.84067" lon="-65.812875">
        <ele>1399.4</ele>
        <time>2018-08-19T21:48:17Z</time>
      </trkpt>
      <trkpt lat="-27.84067" lon="-65.81279">
        <ele>1399.1</ele>
        <time>2018-08-19T21:48:18Z</time>
      </trkpt>
      <trkpt lat="-27.840665" lon="-65.81269">
        <ele>1399.0</ele>
        <time>2018-08-19T21:48:19Z</time>
      </trkpt>
      <trkpt lat="-27.840665" lon="-65.812585">
        <ele>1398.9</ele>
        <time>2018-08-19T21:48:20Z</time>
      </trkpt>
      <trkpt lat="-27.84066" lon="-65.81249">
        <ele>1398.8</ele>
        <time>2018-08-19T21:48:21Z</time>
      </trkpt>
      <trkpt lat="-27.84066" lon="-65.812385">
        <ele>1398.4</ele>
        <time>2018-08-19T21:48:22Z</time>
      </trkpt>
      <trkpt lat="-27.84066" lon="-65.81228">
        <ele>1397.8</ele>
        <time>2018-08-19T21:48:23Z</time>
      </trkpt>
      <trkpt lat="-27.84067" lon="-65.8122">
        <ele>1397.1</ele>
        <time>2018-08-19T21:48:24Z</time>
      </trkpt>
      <trkpt lat="-27.8407" lon="-65.81214">
        <ele>1396.4</ele>
        <time>2018-08-19T21:48:25Z</time>
      </trkpt>
      <trkpt lat="-27.840725" lon="-65.812055">
        <ele>1395.7</ele>
        <time>2018-08-19T21:48:26Z</time>
      </trkpt>
      <trkpt lat="-27.840795" lon="-65.811975">
        <ele>1395.1</ele>
        <time>2018-08-19T21:48:27Z</time>
      </trkpt>
      <trkpt lat="-27.840865" lon="-65.811955">
        <ele>1394.9</ele>
        <time>2018-08-19T21:48:28Z</time>
      </trkpt>
      <trkpt lat="-27.84094" lon="-65.811935">
        <ele>1395.0</ele>
        <time>2018-08-19T21:48:29Z</time>
      </trkpt>
      <trkpt lat="-27.84102" lon="-65.811935">
        <ele>1394.9</ele>
        <time>2018-08-19T21:48:30Z</time>
      </trkpt>
      <trkpt lat="-27.84109" lon="-65.811935">
        <ele>1394.6</ele>
        <time>2018-08-19T21:48:31Z</time>
      </trkpt>
      <trkpt lat="-27.841169999999998" lon="-65.811975">
        <ele>1394.2</ele>
        <time>2018-08-19T21:48:32Z</time>
      </trkpt>
      <trkpt lat="-27.84128" lon="-65.812065">
        <ele>1393.3</ele>
        <time>2018-08-19T21:48:34Z</time>
      </trkpt>
      <trkpt lat="-27.84133" lon="-65.812115">
        <ele>1392.9</ele>
        <time>2018-08-19T21:48:35Z</time>
      </trkpt>
      <trkpt lat="-27.841385" lon="-65.812195">
        <ele>1392.7</ele>
        <time>2018-08-19T21:48:36Z</time>
      </trkpt>
      <trkpt lat="-27.84143" lon="-65.812245">
        <ele>1392.7</ele>
        <time>2018-08-19T21:48:37Z</time>
      </trkpt>
      <trkpt lat="-27.84147" lon="-65.81233">
        <ele>1392.8</ele>
        <time>2018-08-19T21:48:38Z</time>
      </trkpt>
      <trkpt lat="-27.841555" lon="-65.81246">
        <ele>1392.6</ele>
        <time>2018-08-19T21:48:40Z</time>
      </trkpt>
      <trkpt lat="-27.841625" lon="-65.81259">
        <ele>1392.1</ele>
        <time>2018-08-19T21:48:43Z</time>
      </trkpt>
      <trkpt lat="-27.8417" lon="-65.81272">
        <ele>1391.5</ele>
        <time>2018-08-19T21:48:44Z</time>
      </trkpt>
      <trkpt lat="-27.84178" lon="-65.812855">
        <ele>1391.3</ele>
        <time>2018-08-19T21:48:46Z</time>
      </trkpt>
      <trkpt lat="-27.84185" lon="-65.812985">
        <ele>1391.2</ele>
        <time>2018-08-19T21:48:48Z</time>
      </trkpt>
      <trkpt lat="-27.841925" lon="-65.8131">
        <ele>1391.2</ele>
        <time>2018-08-19T21:48:50Z</time>
      </trkpt>
      <trkpt lat="-27.84202" lon="-65.81321">
        <ele>1391.4</ele>
        <time>2018-08-19T21:48:52Z</time>
      </trkpt>
      <trkpt lat="-27.842115" lon="-65.813265">
        <ele>1391.4</ele>
        <time>2018-08-19T21:48:54Z</time>
      </trkpt>
      <trkpt lat="-27.84223" lon="-65.81334">
        <ele>1391.2</ele>
        <time>2018-08-19T21:48:56Z</time>
      </trkpt>
      <trkpt lat="-27.842365" lon="-65.81337">
        <ele>1390.5</ele>
        <time>2018-08-19T21:48:58Z</time>
      </trkpt>
      <trkpt lat="-27.842485" lon="-65.81341">
        <ele>1389.8</ele>
        <time>2018-08-19T21:49:00Z</time>
      </trkpt>
      <trkpt lat="-27.8426" lon="-65.813435">
        <ele>1389.8</ele>
        <time>2018-08-19T21:49:02Z</time>
      </trkpt>
      <trkpt lat="-27.84272" lon="-65.813455">
        <ele>1389.7</ele>
        <time>2018-08-19T21:49:04Z</time>
      </trkpt>
      <trkpt lat="-27.84285" lon="-65.81349">
        <ele>1389.4</ele>
        <time>2018-08-19T21:49:06Z</time>
      </trkpt>
      <trkpt lat="-27.842985" lon="-65.813535">
        <ele>1388.9</ele>
        <time>2018-08-19T21:49:08Z</time>
      </trkpt>
      <trkpt lat="-27.84311" lon="-65.81355">
        <ele>1388.4</ele>
        <time>2018-08-19T21:49:10Z</time>
      </trkpt>
      <trkpt lat="-27.84325" lon="-65.813575">
        <ele>1387.5</ele>
        <time>2018-08-19T21:49:12Z</time>
      </trkpt>
      <trkpt lat="-27.843325" lon="-65.81355">
        <ele>1386.8</ele>
        <time>2018-08-19T21:49:13Z</time>
      </trkpt>
      <trkpt lat="-27.8434" lon="-65.81354">
        <ele>1386.1</ele>
        <time>2018-08-19T21:49:14Z</time>
      </trkpt>
      <trkpt lat="-27.843465" lon="-65.81349">
        <ele>1385.6</ele>
        <time>2018-08-19T21:49:15Z</time>
      </trkpt>
      <trkpt lat="-27.843525" lon="-65.813435">
        <ele>1385.4</ele>
        <time>2018-08-19T21:49:16Z</time>
      </trkpt>
      <trkpt lat="-27.84358" lon="-65.81336">
        <ele>1385.1</ele>
        <time>2018-08-19T21:49:17Z</time>
      </trkpt>
      <trkpt lat="-27.843625" lon="-65.813295">
        <ele>1384.9</ele>
        <time>2018-08-19T21:49:18Z</time>
      </trkpt>
      <trkpt lat="-27.84367" lon="-65.81321">
        <ele>1384.6</ele>
        <time>2018-08-19T21:49:19Z</time>
      </trkpt>
      <trkpt lat="-27.843715" lon="-65.813135">
        <ele>1384.3</ele>
        <time>2018-08-19T21:49:20Z</time>
      </trkpt>
      <trkpt lat="-27.84375" lon="-65.81305">
        <ele>1384.1</ele>
        <time>2018-08-19T21:49:21Z</time>
      </trkpt>
      <trkpt lat="-27.843805" lon="-65.81296">
        <ele>1383.8</ele>
        <time>2018-08-19T21:49:22Z</time>
      </trkpt>
      <trkpt lat="-27.84385" lon="-65.8129">
        <ele>1383.4</ele>
        <time>2018-08-19T21:49:23Z</time>
      </trkpt>
      <trkpt lat="-27.843890000000002" lon="-65.812825">
        <ele>1383.1</ele>
        <time>2018-08-19T21:49:24Z</time>
      </trkpt>
      <trkpt lat="-27.84394" lon="-65.812735">
        <ele>1382.4</ele>
        <time>2018-08-19T21:49:25Z</time>
      </trkpt>
      <trkpt lat="-27.84405" lon="-65.812675">
        <ele>1380.5</ele>
        <time>2018-08-19T21:49:27Z</time>
      </trkpt>
      <trkpt lat="-27.844195" lon="-65.812685">
        <ele>1379.6</ele>
        <time>2018-08-19T21:49:29Z</time>
      </trkpt>
      <trkpt lat="-27.844285" lon="-65.812775">
        <ele>1378.8</ele>
        <time>2018-08-19T21:49:31Z</time>
      </trkpt>
      <trkpt lat="-27.84433" lon="-65.8129">
        <ele>1378.3</ele>
        <time>2018-08-19T21:49:33Z</time>
      </trkpt>
      <trkpt lat="-27.844355" lon="-65.813035">
        <ele>1378.6</ele>
        <time>2018-08-19T21:49:35Z</time>
      </trkpt>
      <trkpt lat="-27.84437" lon="-65.813145">
        <ele>1378.8</ele>
        <time>2018-08-19T21:49:37Z</time>
      </trkpt>
      <trkpt lat="-27.84438" lon="-65.813255">
        <ele>1378.6</ele>
        <time>2018-08-19T21:49:39Z</time>
      </trkpt>
      <trkpt lat="-27.844385" lon="-65.81336">
        <ele>1378.4</ele>
        <time>2018-08-19T21:49:41Z</time>
      </trkpt>
      <trkpt lat="-27.84439" lon="-65.813475">
        <ele>1378.3</ele>
        <time>2018-08-19T21:49:43Z</time>
      </trkpt>
      <trkpt lat="-27.8444" lon="-65.813585">
        <ele>1378.4</ele>
        <time>2018-08-19T21:49:45Z</time>
      </trkpt>
      <trkpt lat="-27.8444" lon="-65.8137">
        <ele>1378.4</ele>
        <time>2018-08-19T21:49:47Z</time>
      </trkpt>
      <trkpt lat="-27.8444" lon="-65.8138">
        <ele>1378.2</ele>
        <time>2018-08-19T21:49:49Z</time>
      </trkpt>
      <trkpt lat="-27.8444" lon="-65.813905">
        <ele>1378.1</ele>
        <time>2018-08-19T21:49:51Z</time>
      </trkpt>
      <trkpt lat="-27.844405" lon="-65.81399">
        <ele>1378.0</ele>
        <time>2018-08-19T21:49:53Z</time>
      </trkpt>
      <trkpt lat="-27.84441" lon="-65.814085">
        <ele>1378.0</ele>
        <time>2018-08-19T21:49:55Z</time>
      </trkpt>
      <trkpt lat="-27.84441" lon="-65.81417">
        <ele>1377.9</ele>
        <time>2018-08-19T21:49:57Z</time>
      </trkpt>
      <trkpt lat="-27.84444" lon="-65.81428">
        <ele>1377.9</ele>
        <time>2018-08-19T21:50:00Z</time>
      </trkpt>
      <trkpt lat="-27.844485" lon="-65.814345">
        <ele>1378.0</ele>
        <time>2018-08-19T21:50:02Z</time>
      </trkpt>
      <trkpt lat="-27.84459" lon="-65.814395">
        <ele>1378.3</ele>
        <time>2018-08-19T21:50:05Z</time>
      </trkpt>
      <trkpt lat="-27.844665" lon="-65.814395">
        <ele>1377.7</ele>
        <time>2018-08-19T21:50:07Z</time>
      </trkpt>
      <trkpt lat="-27.844755" lon="-65.81438">
        <ele>1377.2</ele>
        <time>2018-08-19T21:50:09Z</time>
      </trkpt>
      <trkpt lat="-27.84484" lon="-65.814325">
        <ele>1377.6</ele>
        <time>2018-08-19T21:50:11Z</time>
      </trkpt>
      <trkpt lat="-27.84491" lon="-65.81425">
        <ele>1377.9</ele>
        <time>2018-08-19T21:50:13Z</time>
      </trkpt>
      <trkpt lat="-27.84496" lon="-65.81417">
        <ele>1378.2</ele>
        <time>2018-08-19T21:50:15Z</time>
      </trkpt>
      <trkpt lat="-27.845025" lon="-65.814085">
        <ele>1378.4</ele>
        <time>2018-08-19T21:50:17Z</time>
      </trkpt>
      <trkpt lat="-27.84508" lon="-65.81399">
        <ele>1378.4</ele>
        <time>2018-08-19T21:50:19Z</time>
      </trkpt>
      <trkpt lat="-27.84515" lon="-65.813895">
        <ele>1378.1</ele>
        <time>2018-08-19T21:50:21Z</time>
      </trkpt>
      <trkpt lat="-27.845215" lon="-65.81379">
        <ele>1377.7</ele>
        <time>2018-08-19T21:50:23Z</time>
      </trkpt>
      <trkpt lat="-27.84532" lon="-65.81368">
        <ele>1377.1</ele>
        <time>2018-08-19T21:50:25Z</time>
      </trkpt>
      <trkpt lat="-27.845395" lon="-65.81367">
        <ele>1376.6</ele>
        <time>2018-08-19T21:50:26Z</time>
      </trkpt>
      <trkpt lat="-27.845475" lon="-65.81366">
        <ele>1376.0</ele>
        <time>2018-08-19T21:50:27Z</time>
      </trkpt>
      <trkpt lat="-27.84556" lon="-65.81368">
        <ele>1375.7</ele>
        <time>2018-08-19T21:50:28Z</time>
      </trkpt>
      <trkpt lat="-27.845625" lon="-65.81372">
        <ele>1375.1</ele>
        <time>2018-08-19T21:50:29Z</time>
      </trkpt>
      <trkpt lat="-27.845705" lon="-65.813845">
        <ele>1373.7</ele>
        <time>2018-08-19T21:50:31Z</time>
      </trkpt>
      <trkpt lat="-27.845745" lon="-65.81393">
        <ele>1373.2</ele>
        <time>2018-08-19T21:50:32Z</time>
      </trkpt>
      <trkpt lat="-27.845775" lon="-65.814015">
        <ele>1372.9</ele>
        <time>2018-08-19T21:50:33Z</time>
      </trkpt>
      <trkpt lat="-27.845805" lon="-65.814085">
        <ele>1372.7</ele>
        <time>2018-08-19T21:50:34Z</time>
      </trkpt>
      <trkpt lat="-27.84583" lon="-65.81417">
        <ele>1372.5</ele>
        <time>2018-08-19T21:50:35Z</time>
      </trkpt>
      <trkpt lat="-27.845865" lon="-65.81428">
        <ele>1372.3</ele>
        <time>2018-08-19T21:50:36Z</time>
      </trkpt>
      <trkpt lat="-27.845895" lon="-65.81438">
        <ele>1372.4</ele>
        <time>2018-08-19T21:50:37Z</time>
      </trkpt>
      <trkpt lat="-27.84592" lon="-65.814475">
        <ele>1372.4</ele>
        <time>2018-08-19T21:50:38Z</time>
      </trkpt>
      <trkpt lat="-27.845945" lon="-65.81456">
        <ele>1372.7</ele>
        <time>2018-08-19T21:50:39Z</time>
      </trkpt>
      <trkpt lat="-27.84597" lon="-65.814645">
        <ele>1372.9</ele>
        <time>2018-08-19T21:50:40Z</time>
      </trkpt>
      <trkpt lat="-27.845995" lon="-65.81473">
        <ele>1373.1</ele>
        <time>2018-08-19T21:50:41Z</time>
      </trkpt>
      <trkpt lat="-27.84603" lon="-65.814805">
        <ele>1373.1</ele>
        <time>2018-08-19T21:50:42Z</time>
      </trkpt>
      <trkpt lat="-27.846065" lon="-65.81489">
        <ele>1373.0</ele>
        <time>2018-08-19T21:50:43Z</time>
      </trkpt>
      <trkpt lat="-27.84612" lon="-65.814955">
        <ele>1372.5</ele>
        <time>2018-08-19T21:50:44Z</time>
      </trkpt>
      <trkpt lat="-27.84617" lon="-65.81501">
        <ele>1372.1</ele>
        <time>2018-08-19T21:50:45Z</time>
      </trkpt>
      <trkpt lat="-27.846245" lon="-65.81506">
        <ele>1371.2</ele>
        <time>2018-08-19T21:50:46Z</time>
      </trkpt>
      <trkpt lat="-27.846325" lon="-65.815095">
        <ele>1370.5</ele>
        <time>2018-08-19T21:50:47Z</time>
      </trkpt>
      <trkpt lat="-27.84642" lon="-65.815115">
        <ele>1369.7</ele>
        <time>2018-08-19T21:50:48Z</time>
      </trkpt>
      <trkpt lat="-27.846515" lon="-65.81514">
        <ele>1369.4</ele>
        <time>2018-08-19T21:50:49Z</time>
      </trkpt>
      <trkpt lat="-27.84661" lon="-65.81515">
        <ele>1369.0</ele>
        <time>2018-08-19T21:50:50Z</time>
      </trkpt>
      <trkpt lat="-27.846705" lon="-65.81515">
        <ele>1368.4</ele>
        <time>2018-08-19T21:50:51Z</time>
      </trkpt>
      <trkpt lat="-27.846805" lon="-65.81514">
        <ele>1367.9</ele>
        <time>2018-08-19T21:50:52Z</time>
      </trkpt>
      <trkpt lat="-27.846905" lon="-65.815135">
        <ele>1367.5</ele>
        <time>2018-08-19T21:50:53Z</time>
      </trkpt>
      <trkpt lat="-27.847005" lon="-65.815115">
        <ele>1367.1</ele>
        <time>2018-08-19T21:50:54Z</time>
      </trkpt>
      <trkpt lat="-27.84711" lon="-65.815115">
        <ele>1366.7</ele>
        <time>2018-08-19T21:50:55Z</time>
      </trkpt>
      <trkpt lat="-27.847215" lon="-65.815105">
        <ele>1366.1</ele>
        <time>2018-08-19T21:50:56Z</time>
      </trkpt>
      <trkpt lat="-27.84731" lon="-65.815085">
        <ele>1365.4</ele>
        <time>2018-08-19T21:50:57Z</time>
      </trkpt>
      <trkpt lat="-27.847405" lon="-65.81507">
        <ele>1364.6</ele>
        <time>2018-08-19T21:50:58Z</time>
      </trkpt>
      <trkpt lat="-27.847495" lon="-65.81507">
        <ele>1363.8</ele>
        <time>2018-08-19T21:50:59Z</time>
      </trkpt>
      <trkpt lat="-27.847585" lon="-65.81506">
        <ele>1363.1</ele>
        <time>2018-08-19T21:51:00Z</time>
      </trkpt>
      <trkpt lat="-27.84767" lon="-65.815055">
        <ele>1362.4</ele>
        <time>2018-08-19T21:51:01Z</time>
      </trkpt>
      <trkpt lat="-27.847755" lon="-65.815055">
        <ele>1361.8</ele>
        <time>2018-08-19T21:51:02Z</time>
      </trkpt>
      <trkpt lat="-27.847825" lon="-65.81507">
        <ele>1361.0</ele>
        <time>2018-08-19T21:51:03Z</time>
      </trkpt>
      <trkpt lat="-27.8479" lon="-65.815095">
        <ele>1360.2</ele>
        <time>2018-08-19T21:51:04Z</time>
      </trkpt>
      <trkpt lat="-27.847975" lon="-65.815115">
        <ele>1359.6</ele>
        <time>2018-08-19T21:51:05Z</time>
      </trkpt>
      <trkpt lat="-27.848025" lon="-65.81518">
        <ele>1358.9</ele>
        <time>2018-08-19T21:51:06Z</time>
      </trkpt>
      <trkpt lat="-27.848085" lon="-65.815235">
        <ele>1358.3</ele>
        <time>2018-08-19T21:51:07Z</time>
      </trkpt>
      <trkpt lat="-27.84812" lon="-65.81531">
        <ele>1357.6</ele>
        <time>2018-08-19T21:51:08Z</time>
      </trkpt>
      <trkpt lat="-27.84815" lon="-65.815455">
        <ele>1357.1</ele>
        <time>2018-08-19T21:51:10Z</time>
      </trkpt>
      <trkpt lat="-27.848135" lon="-65.8156">
        <ele>1357.1</ele>
        <time>2018-08-19T21:51:12Z</time>
      </trkpt>
      <trkpt lat="-27.8481" lon="-65.815745">
        <ele>1357.1</ele>
        <time>2018-08-19T21:51:14Z</time>
      </trkpt>
      <trkpt lat="-27.84805" lon="-65.81587">
        <ele>1357.0</ele>
        <time>2018-08-19T21:51:16Z</time>
      </trkpt>
      <trkpt lat="-27.84799" lon="-65.816005">
        <ele>1356.5</ele>
        <time>2018-08-19T21:51:18Z</time>
      </trkpt>
      <trkpt lat="-27.847925" lon="-65.81613">
        <ele>1355.5</ele>
        <time>2018-08-19T21:51:20Z</time>
      </trkpt>
      <trkpt lat="-27.847865" lon="-65.81625">
        <ele>1354.6</ele>
        <time>2018-08-19T21:51:22Z</time>
      </trkpt>
      <trkpt lat="-27.84783" lon="-65.816325">
        <ele>1354.0</ele>
        <time>2018-08-19T21:51:23Z</time>
      </trkpt>
      <trkpt lat="-27.84776" lon="-65.816445">
        <ele>1353.0</ele>
        <time>2018-08-19T21:51:25Z</time>
      </trkpt>
      <trkpt lat="-27.847725" lon="-65.81654">
        <ele>1352.5</ele>
        <time>2018-08-19T21:51:26Z</time>
      </trkpt>
      <trkpt lat="-27.847665" lon="-65.816675">
        <ele>1351.4</ele>
        <time>2018-08-19T21:51:28Z</time>
      </trkpt>
      <trkpt lat="-27.84763" lon="-65.816765">
        <ele>1350.7</ele>
        <time>2018-08-19T21:51:29Z</time>
      </trkpt>
      <trkpt lat="-27.8476" lon="-65.816855">
        <ele>1350.0</ele>
        <time>2018-08-19T21:51:30Z</time>
      </trkpt>
      <trkpt lat="-27.84757" lon="-65.816945">
        <ele>1349.4</ele>
        <time>2018-08-19T21:51:31Z</time>
      </trkpt>
      <trkpt lat="-27.84756" lon="-65.81704">
        <ele>1348.8</ele>
        <time>2018-08-19T21:51:32Z</time>
      </trkpt>
      <trkpt lat="-27.84756" lon="-65.817125">
        <ele>1348.2</ele>
        <time>2018-08-19T21:51:33Z</time>
      </trkpt>
      <trkpt lat="-27.847565" lon="-65.817235">
        <ele>1347.7</ele>
        <time>2018-08-19T21:51:34Z</time>
      </trkpt>
      <trkpt lat="-27.84759" lon="-65.81733">
        <ele>1347.2</ele>
        <time>2018-08-19T21:51:35Z</time>
      </trkpt>
      <trkpt lat="-27.84762" lon="-65.81743">
        <ele>1346.7</ele>
        <time>2018-08-19T21:51:36Z</time>
      </trkpt>
      <trkpt lat="-27.847645" lon="-65.817535">
        <ele>1347.0</ele>
        <time>2018-08-19T21:51:37Z</time>
      </trkpt>
      <trkpt lat="-27.847705" lon="-65.81762">
        <ele>1347.3</ele>
        <time>2018-08-19T21:51:38Z</time>
      </trkpt>
      <trkpt lat="-27.84776" lon="-65.817715">
        <ele>1347.3</ele>
        <time>2018-08-19T21:51:39Z</time>
      </trkpt>
      <trkpt lat="-27.847835" lon="-65.8178">
        <ele>1347.4</ele>
        <time>2018-08-19T21:51:40Z</time>
      </trkpt>
      <trkpt lat="-27.8479" lon="-65.817885">
        <ele>1347.1</ele>
        <time>2018-08-19T21:51:41Z</time>
      </trkpt>
      <trkpt lat="-27.84797" lon="-65.817975">
        <ele>1346.9</ele>
        <time>2018-08-19T21:51:42Z</time>
      </trkpt>
      <trkpt lat="-27.848045" lon="-65.81807">
        <ele>1346.7</ele>
        <time>2018-08-19T21:51:43Z</time>
      </trkpt>
      <trkpt lat="-27.84812" lon="-65.818175">
        <ele>1346.3</ele>
        <time>2018-08-19T21:51:44Z</time>
      </trkpt>
      <trkpt lat="-27.84818" lon="-65.81825">
        <ele>1345.9</ele>
        <time>2018-08-19T21:51:45Z</time>
      </trkpt>
      <trkpt lat="-27.848255" lon="-65.818335">
        <ele>1345.4</ele>
        <time>2018-08-19T21:51:46Z</time>
      </trkpt>
      <trkpt lat="-27.848325" lon="-65.818415">
        <ele>1344.8</ele>
        <time>2018-08-19T21:51:47Z</time>
      </trkpt>
      <trkpt lat="-27.848395" lon="-65.81852">
        <ele>1344.0</ele>
        <time>2018-08-19T21:51:48Z</time>
      </trkpt>
      <trkpt lat="-27.848465" lon="-65.818605">
        <ele>1343.2</ele>
        <time>2018-08-19T21:51:49Z</time>
      </trkpt>
      <trkpt lat="-27.84854" lon="-65.81869">
        <ele>1342.1</ele>
        <time>2018-08-19T21:51:50Z</time>
      </trkpt>
      <trkpt lat="-27.848605" lon="-65.818785">
        <ele>1341.0</ele>
        <time>2018-08-19T21:51:51Z</time>
      </trkpt>
      <trkpt lat="-27.84869" lon="-65.81887">
        <ele>1339.9</ele>
        <time>2018-08-19T21:51:52Z</time>
      </trkpt>
      <trkpt lat="-27.848765" lon="-65.81895">
        <ele>1339.2</ele>
        <time>2018-08-19T21:51:53Z</time>
      </trkpt>
      <trkpt lat="-27.84885" lon="-65.819055">
        <ele>1338.5</ele>
        <time>2018-08-19T21:51:54Z</time>
      </trkpt>
      <trkpt lat="-27.84893" lon="-65.81914">
        <ele>1337.9</ele>
        <time>2018-08-19T21:51:55Z</time>
      </trkpt>
      <trkpt lat="-27.84901" lon="-65.819235">
        <ele>1337.0</ele>
        <time>2018-08-19T21:51:56Z</time>
      </trkpt>
      <trkpt lat="-27.84909" lon="-65.819345">
        <ele>1335.9</ele>
        <time>2018-08-19T21:51:57Z</time>
      </trkpt>
      <trkpt lat="-27.849165" lon="-65.81943">
        <ele>1335.0</ele>
        <time>2018-08-19T21:51:58Z</time>
      </trkpt>
      <trkpt lat="-27.849235" lon="-65.819505">
        <ele>1334.2</ele>
        <time>2018-08-19T21:51:59Z</time>
      </trkpt>
      <trkpt lat="-27.8493" lon="-65.81959">
        <ele>1333.4</ele>
        <time>2018-08-19T21:52:00Z</time>
      </trkpt>
      <trkpt lat="-27.849365" lon="-65.81967">
        <ele>1332.6</ele>
        <time>2018-08-19T21:52:01Z</time>
      </trkpt>
      <trkpt lat="-27.84942" lon="-65.81975">
        <ele>1331.9</ele>
        <time>2018-08-19T21:52:02Z</time>
      </trkpt>
      <trkpt lat="-27.849455" lon="-65.81984">
        <ele>1331.2</ele>
        <time>2018-08-19T21:52:03Z</time>
      </trkpt>
      <trkpt lat="-27.84948" lon="-65.819935">
        <ele>1330.4</ele>
        <time>2018-08-19T21:52:04Z</time>
      </trkpt>
      <trkpt lat="-27.84948" lon="-65.82004">
        <ele>1329.7</ele>
        <time>2018-08-19T21:52:05Z</time>
      </trkpt>
      <trkpt lat="-27.84947" lon="-65.820145">
        <ele>1328.8</ele>
        <time>2018-08-19T21:52:06Z</time>
      </trkpt>
      <trkpt lat="-27.849445" lon="-65.820245">
        <ele>1328.5</ele>
        <time>2018-08-19T21:52:07Z</time>
      </trkpt>
      <trkpt lat="-27.84941" lon="-65.82034">
        <ele>1328.1</ele>
        <time>2018-08-19T21:52:08Z</time>
      </trkpt>
      <trkpt lat="-27.849375" lon="-65.820435">
        <ele>1327.8</ele>
        <time>2018-08-19T21:52:09Z</time>
      </trkpt>
      <trkpt lat="-27.84931" lon="-65.820575">
        <ele>1327.3</ele>
        <time>2018-08-19T21:52:11Z</time>
      </trkpt>
      <trkpt lat="-27.84927" lon="-65.820655">
        <ele>1327.3</ele>
        <time>2018-08-19T21:52:12Z</time>
      </trkpt>
      <trkpt lat="-27.84919" lon="-65.82078">
        <ele>1327.2</ele>
        <time>2018-08-19T21:52:14Z</time>
      </trkpt>
      <trkpt lat="-27.84915" lon="-65.82084">
        <ele>1327.1</ele>
        <time>2018-08-19T21:52:15Z</time>
      </trkpt>
      <trkpt lat="-27.8491" lon="-65.82092">
        <ele>1327.1</ele>
        <time>2018-08-19T21:52:16Z</time>
      </trkpt>
      <trkpt lat="-27.84905" lon="-65.82098">
        <ele>1327.1</ele>
        <time>2018-08-19T21:52:17Z</time>
      </trkpt>
      <trkpt lat="-27.849" lon="-65.821065">
        <ele>1326.9</ele>
        <time>2018-08-19T21:52:18Z</time>
      </trkpt>
      <trkpt lat="-27.84895" lon="-65.82114">
        <ele>1326.7</ele>
        <time>2018-08-19T21:52:19Z</time>
      </trkpt>
      <trkpt lat="-27.8489" lon="-65.821205">
        <ele>1326.4</ele>
        <time>2018-08-19T21:52:20Z</time>
      </trkpt>
      <trkpt lat="-27.848855" lon="-65.82129">
        <ele>1326.0</ele>
        <time>2018-08-19T21:52:21Z</time>
      </trkpt>
      <trkpt lat="-27.84881" lon="-65.821375">
        <ele>1325.6</ele>
        <time>2018-08-19T21:52:22Z</time>
      </trkpt>
      <trkpt lat="-27.84876" lon="-65.821475">
        <ele>1325.4</ele>
        <time>2018-08-19T21:52:23Z</time>
      </trkpt>
      <trkpt lat="-27.848705" lon="-65.82156">
        <ele>1325.4</ele>
        <time>2018-08-19T21:52:24Z</time>
      </trkpt>
      <trkpt lat="-27.848655" lon="-65.82167">
        <ele>1325.3</ele>
        <time>2018-08-19T21:52:25Z</time>
      </trkpt>
      <trkpt lat="-27.848605" lon="-65.821765">
        <ele>1325.0</ele>
        <time>2018-08-19T21:52:26Z</time>
      </trkpt>
      <trkpt lat="-27.848555" lon="-65.821865">
        <ele>1324.6</ele>
        <time>2018-08-19T21:52:27Z</time>
      </trkpt>
      <trkpt lat="-27.84851" lon="-65.821965">
        <ele>1324.2</ele>
        <time>2018-08-19T21:52:28Z</time>
      </trkpt>
      <trkpt lat="-27.84845" lon="-65.822075">
        <ele>1323.6</ele>
        <time>2018-08-19T21:52:29Z</time>
      </trkpt>
      <trkpt lat="-27.848405" lon="-65.82218">
        <ele>1322.8</ele>
        <time>2018-08-19T21:52:30Z</time>
      </trkpt>
      <trkpt lat="-27.84836" lon="-65.822275">
        <ele>1322.0</ele>
        <time>2018-08-19T21:52:31Z</time>
      </trkpt>
      <trkpt lat="-27.84831" lon="-65.822385">
        <ele>1321.3</ele>
        <time>2018-08-19T21:52:32Z</time>
      </trkpt>
      <trkpt lat="-27.84826" lon="-65.822485">
        <ele>1320.6</ele>
        <time>2018-08-19T21:52:33Z</time>
      </trkpt>
      <trkpt lat="-27.848215" lon="-65.82258">
        <ele>1320.0</ele>
        <time>2018-08-19T21:52:34Z</time>
      </trkpt>
      <trkpt lat="-27.848175" lon="-65.822665">
        <ele>1319.4</ele>
        <time>2018-08-19T21:52:35Z</time>
      </trkpt>
      <trkpt lat="-27.848105" lon="-65.82281">
        <ele>1318.6</ele>
        <time>2018-08-19T21:52:37Z</time>
      </trkpt>
      <trkpt lat="-27.848085" lon="-65.82289166666666">
        <ele>1317.8</ele>
        <time>2018-08-19T21:52:38Z</time>
      </trkpt>
      <trkpt lat="-27.848085" lon="-65.822995">
        <ele>1316.7</ele>
        <time>2018-08-19T21:52:39Z</time>
      </trkpt>
      <trkpt lat="-27.848105" lon="-65.823105">
        <ele>1315.6</ele>
        <time>2018-08-19T21:52:40Z</time>
      </trkpt>
      <trkpt lat="-27.84814" lon="-65.82319">
        <ele>1314.8</ele>
        <time>2018-08-19T21:52:41Z</time>
      </trkpt>
      <trkpt lat="-27.84819" lon="-65.82326">
        <ele>1314.4</ele>
        <time>2018-08-19T21:52:42Z</time>
      </trkpt>
      <trkpt lat="-27.848255" lon="-65.823335">
        <ele>1313.7</ele>
        <time>2018-08-19T21:52:43Z</time>
      </trkpt>
      <trkpt lat="-27.84835" lon="-65.82339">
        <ele>1313.1</ele>
        <time>2018-08-19T21:52:44Z</time>
      </trkpt>
      <trkpt lat="-27.848435" lon="-65.823425">
        <ele>1312.3</ele>
        <time>2018-08-19T21:52:45Z</time>
      </trkpt>
      <trkpt lat="-27.84852" lon="-65.823435">
        <ele>1311.5</ele>
        <time>2018-08-19T21:52:46Z</time>
      </trkpt>
      <trkpt lat="-27.848595" lon="-65.823445">
        <ele>1310.8</ele>
        <time>2018-08-19T21:52:47Z</time>
      </trkpt>
      <trkpt lat="-27.848685" lon="-65.823465">
        <ele>1309.9</ele>
        <time>2018-08-19T21:52:48Z</time>
      </trkpt>
      <trkpt lat="-27.84878" lon="-65.82348">
        <ele>1308.7</ele>
        <time>2018-08-19T21:52:49Z</time>
      </trkpt>
      <trkpt lat="-27.848875" lon="-65.823485">
        <ele>1307.5</ele>
        <time>2018-08-19T21:52:50Z</time>
      </trkpt>
      <trkpt lat="-27.84897" lon="-65.823485">
        <ele>1306.5</ele>
        <time>2018-08-19T21:52:51Z</time>
      </trkpt>
      <trkpt lat="-27.84905" lon="-65.823485">
        <ele>1305.8</ele>
        <time>2018-08-19T21:52:52Z</time>
      </trkpt>
      <trkpt lat="-27.849125" lon="-65.823485">
        <ele>1305.6</ele>
        <time>2018-08-19T21:52:53Z</time>
      </trkpt>
      <trkpt lat="-27.84921" lon="-65.823485">
        <ele>1305.6</ele>
        <time>2018-08-19T21:52:54Z</time>
      </trkpt>
      <trkpt lat="-27.849295" lon="-65.823485">
        <ele>1305.8</ele>
        <time>2018-08-19T21:52:55Z</time>
      </trkpt>
      <trkpt lat="-27.849375" lon="-65.823485">
        <ele>1305.9</ele>
        <time>2018-08-19T21:52:56Z</time>
      </trkpt>
      <trkpt lat="-27.84945" lon="-65.823485">
        <ele>1305.9</ele>
        <time>2018-08-19T21:52:57Z</time>
      </trkpt>
      <trkpt lat="-27.849525" lon="-65.823485">
        <ele>1305.8</ele>
        <time>2018-08-19T21:52:58Z</time>
      </trkpt>
      <trkpt lat="-27.8496" lon="-65.823485">
        <ele>1305.6</ele>
        <time>2018-08-19T21:52:59Z</time>
      </trkpt>
      <trkpt lat="-27.849675" lon="-65.823485">
        <ele>1305.5</ele>
        <time>2018-08-19T21:53:00Z</time>
      </trkpt>
      <trkpt lat="-27.849755000000002" lon="-65.82351">
        <ele>1305.4</ele>
        <time>2018-08-19T21:53:01Z</time>
      </trkpt>
      <trkpt lat="-27.849885" lon="-65.82351">
        <ele>1305.2</ele>
        <time>2018-08-19T21:53:03Z</time>
      </trkpt>
      <trkpt lat="-27.85003" lon="-65.82352">
        <ele>1305.3</ele>
        <time>2018-08-19T21:53:05Z</time>
      </trkpt>
      <trkpt lat="-27.850165" lon="-65.82353">
        <ele>1305.7</ele>
        <time>2018-08-19T21:53:07Z</time>
      </trkpt>
      <trkpt lat="-27.85029" lon="-65.82353">
        <ele>1306.4</ele>
        <time>2018-08-19T21:53:09Z</time>
      </trkpt>
      <trkpt lat="-27.850415" lon="-65.82355">
        <ele>1306.4</ele>
        <time>2018-08-19T21:53:11Z</time>
      </trkpt>
      <trkpt lat="-27.85054" lon="-65.823565">
        <ele>1305.9</ele>
        <time>2018-08-19T21:53:13Z</time>
      </trkpt>
      <trkpt lat="-27.85061" lon="-65.82357">
        <ele>1305.5</ele>
        <time>2018-08-19T21:53:14Z</time>
      </trkpt>
      <trkpt lat="-27.8507" lon="-65.82357">
        <ele>1305.3</ele>
        <time>2018-08-19T21:53:15Z</time>
      </trkpt>
      <trkpt lat="-27.85078" lon="-65.82357">
        <ele>1305.1</ele>
        <time>2018-08-19T21:53:16Z</time>
      </trkpt>
      <trkpt lat="-27.850855" lon="-65.82357166666667">
        <ele>1304.5</ele>
        <time>2018-08-19T21:53:17Z</time>
      </trkpt>
      <trkpt lat="-27.850935" lon="-65.823595">
        <ele>1304.1</ele>
        <time>2018-08-19T21:53:18Z</time>
      </trkpt>
      <trkpt lat="-27.851015" lon="-65.823595">
        <ele>1303.8</ele>
        <time>2018-08-19T21:53:19Z</time>
      </trkpt>
      <trkpt lat="-27.85109" lon="-65.823595">
        <ele>1303.5</ele>
        <time>2018-08-19T21:53:20Z</time>
      </trkpt>
      <trkpt lat="-27.85117" lon="-65.823605">
        <ele>1303.4</ele>
        <time>2018-08-19T21:53:21Z</time>
      </trkpt>
      <trkpt lat="-27.851245" lon="-65.823605">
        <ele>1303.2</ele>
        <time>2018-08-19T21:53:22Z</time>
      </trkpt>
      <trkpt lat="-27.85132" lon="-65.82361">
        <ele>1303.1</ele>
        <time>2018-08-19T21:53:23Z</time>
      </trkpt>
      <trkpt lat="-27.8514" lon="-65.823615">
        <ele>1302.8</ele>
        <time>2018-08-19T21:53:24Z</time>
      </trkpt>
      <trkpt lat="-27.851475" lon="-65.823615">
        <ele>1302.5</ele>
        <time>2018-08-19T21:53:25Z</time>
      </trkpt>
      <trkpt lat="-27.851615" lon="-65.823625">
        <ele>1302.4</ele>
        <time>2018-08-19T21:53:27Z</time>
      </trkpt>
      <trkpt lat="-27.85169" lon="-65.823625">
        <ele>1302.4</ele>
        <time>2018-08-19T21:53:28Z</time>
      </trkpt>
      <trkpt lat="-27.851815" lon="-65.82365">
        <ele>1302.0</ele>
        <time>2018-08-19T21:53:30Z</time>
      </trkpt>
      <trkpt lat="-27.85196" lon="-65.82367">
        <ele>1301.4</ele>
        <time>2018-08-19T21:53:32Z</time>
      </trkpt>
      <trkpt lat="-27.852045" lon="-65.82367">
        <ele>1301.2</ele>
        <time>2018-08-19T21:53:33Z</time>
      </trkpt>
      <trkpt lat="-27.85213" lon="-65.82367">
        <ele>1301.0</ele>
        <time>2018-08-19T21:53:34Z</time>
      </trkpt>
      <trkpt lat="-27.852215" lon="-65.82369">
        <ele>1300.9</ele>
        <time>2018-08-19T21:53:35Z</time>
      </trkpt>
      <trkpt lat="-27.8523" lon="-65.82369">
        <ele>1301.0</ele>
        <time>2018-08-19T21:53:36Z</time>
      </trkpt>
      <trkpt lat="-27.852384999999998" lon="-65.823695">
        <ele>1300.9</ele>
        <time>2018-08-19T21:53:37Z</time>
      </trkpt>
      <trkpt lat="-27.85248" lon="-65.8237">
        <ele>1300.6</ele>
        <time>2018-08-19T21:53:38Z</time>
      </trkpt>
      <trkpt lat="-27.85257" lon="-65.823705">
        <ele>1300.2</ele>
        <time>2018-08-19T21:53:39Z</time>
      </trkpt>
      <trkpt lat="-27.852665000000002" lon="-65.82371">
        <ele>1299.5</ele>
        <time>2018-08-19T21:53:40Z</time>
      </trkpt>
      <trkpt lat="-27.85277" lon="-65.823735">
        <ele>1298.9</ele>
        <time>2018-08-19T21:53:41Z</time>
      </trkpt>
      <trkpt lat="-27.85286" lon="-65.823755">
        <ele>1298.1</ele>
        <time>2018-08-19T21:53:42Z</time>
      </trkpt>
      <trkpt lat="-27.85295" lon="-65.823795">
        <ele>1297.4</ele>
        <time>2018-08-19T21:53:43Z</time>
      </trkpt>
      <trkpt lat="-27.85303" lon="-65.823875">
        <ele>1296.7</ele>
        <time>2018-08-19T21:53:44Z</time>
      </trkpt>
      <trkpt lat="-27.853105" lon="-65.82396">
        <ele>1295.9</ele>
        <time>2018-08-19T21:53:45Z</time>
      </trkpt>
      <trkpt lat="-27.853165" lon="-65.82402">
        <ele>1295.2</ele>
        <time>2018-08-19T21:53:46Z</time>
      </trkpt>
      <trkpt lat="-27.85322" lon="-65.8241">
        <ele>1294.5</ele>
        <time>2018-08-19T21:53:47Z</time>
      </trkpt>
      <trkpt lat="-27.853275" lon="-65.824205">
        <ele>1293.9</ele>
        <time>2018-08-19T21:53:48Z</time>
      </trkpt>
      <trkpt lat="-27.853325" lon="-65.82431">
        <ele>1293.2</ele>
        <time>2018-08-19T21:53:49Z</time>
      </trkpt>
      <trkpt lat="-27.853375" lon="-65.82441">
        <ele>1292.6</ele>
        <time>2018-08-19T21:53:50Z</time>
      </trkpt>
      <trkpt lat="-27.85343" lon="-65.824515">
        <ele>1292.1</ele>
        <time>2018-08-19T21:53:51Z</time>
      </trkpt>
      <trkpt lat="-27.85348" lon="-65.82461">
        <ele>1291.7</ele>
        <time>2018-08-19T21:53:52Z</time>
      </trkpt>
      <trkpt lat="-27.85352" lon="-65.824695">
        <ele>1291.4</ele>
        <time>2018-08-19T21:53:53Z</time>
      </trkpt>
      <trkpt lat="-27.853565" lon="-65.82478">
        <ele>1291.3</ele>
        <time>2018-08-19T21:53:54Z</time>
      </trkpt>
      <trkpt lat="-27.85361" lon="-65.82489">
        <ele>1291.2</ele>
        <time>2018-08-19T21:53:55Z</time>
      </trkpt>
      <trkpt lat="-27.853645" lon="-65.824965">
        <ele>1291.3</ele>
        <time>2018-08-19T21:53:56Z</time>
      </trkpt>
      <trkpt lat="-27.853685" lon="-65.82505">
        <ele>1291.4</ele>
        <time>2018-08-19T21:53:57Z</time>
      </trkpt>
      <trkpt lat="-27.85372" lon="-65.82513">
        <ele>1291.5</ele>
        <time>2018-08-19T21:53:58Z</time>
      </trkpt>
      <trkpt lat="-27.853755" lon="-65.82519">
        <ele>1291.6</ele>
        <time>2018-08-19T21:53:59Z</time>
      </trkpt>
      <trkpt lat="-27.853825" lon="-65.82534">
        <ele>1291.4</ele>
        <time>2018-08-19T21:54:01Z</time>
      </trkpt>
      <trkpt lat="-27.853885" lon="-65.825455">
        <ele>1291.4</ele>
        <time>2018-08-19T21:54:03Z</time>
      </trkpt>
      <trkpt lat="-27.853935" lon="-65.825575">
        <ele>1291.9</ele>
        <time>2018-08-19T21:54:05Z</time>
      </trkpt>
      <trkpt lat="-27.85398" lon="-65.82568">
        <ele>1293.0</ele>
        <time>2018-08-19T21:54:07Z</time>
      </trkpt>
      <trkpt lat="-27.854025" lon="-65.825765">
        <ele>1294.3</ele>
        <time>2018-08-19T21:54:09Z</time>
      </trkpt>
      <trkpt lat="-27.85405" lon="-65.825885">
        <ele>1294.4</ele>
        <time>2018-08-19T21:54:11Z</time>
      </trkpt>
      <trkpt lat="-27.85407" lon="-65.82598">
        <ele>1294.3</ele>
        <time>2018-08-19T21:54:13Z</time>
      </trkpt>
      <trkpt lat="-27.85407" lon="-65.82607">
        <ele>1294.2</ele>
        <time>2018-08-19T21:54:15Z</time>
      </trkpt>
      <trkpt lat="-27.85405" lon="-65.826195">
        <ele>1294.0</ele>
        <time>2018-08-19T21:54:17Z</time>
      </trkpt>
      <trkpt lat="-27.854015" lon="-65.8263">
        <ele>1293.4</ele>
        <time>2018-08-19T21:54:19Z</time>
      </trkpt>
      <trkpt lat="-27.85398" lon="-65.8264">
        <ele>1292.8</ele>
        <time>2018-08-19T21:54:21Z</time>
      </trkpt>
      <trkpt lat="-27.85393" lon="-65.82651">
        <ele>1291.9</ele>
        <time>2018-08-19T21:54:23Z</time>
      </trkpt>
      <trkpt lat="-27.853875" lon="-65.8266">
        <ele>1291.0</ele>
        <time>2018-08-19T21:54:25Z</time>
      </trkpt>
      <trkpt lat="-27.85381" lon="-65.82669">
        <ele>1290.4</ele>
        <time>2018-08-19T21:54:27Z</time>
      </trkpt>
      <trkpt lat="-27.853745" lon="-65.826775">
        <ele>1290.0</ele>
        <time>2018-08-19T21:54:29Z</time>
      </trkpt>
      <trkpt lat="-27.853695" lon="-65.82686">
        <ele>1289.7</ele>
        <time>2018-08-19T21:54:31Z</time>
      </trkpt>
      <trkpt lat="-27.853645" lon="-65.826925">
        <ele>1290.1</ele>
        <time>2018-08-19T21:54:33Z</time>
      </trkpt>
      <trkpt lat="-27.853595" lon="-65.82702">
        <ele>1291.1</ele>
        <time>2018-08-19T21:54:35Z</time>
      </trkpt>
      <trkpt lat="-27.853555" lon="-65.827115">
        <ele>1291.7</ele>
        <time>2018-08-19T21:54:38Z</time>
      </trkpt>
      <trkpt lat="-27.85353" lon="-65.8272">
        <ele>1291.7</ele>
        <time>2018-08-19T21:54:40Z</time>
      </trkpt>
      <trkpt lat="-27.85352" lon="-65.82731">
        <ele>1291.7</ele>
        <time>2018-08-19T21:54:42Z</time>
      </trkpt>
      <trkpt lat="-27.853515" lon="-65.82741">
        <ele>1291.8</ele>
        <time>2018-08-19T21:54:44Z</time>
      </trkpt>
      <trkpt lat="-27.853515" lon="-65.827495">
        <ele>1291.9</ele>
        <time>2018-08-19T21:54:46Z</time>
      </trkpt>
      <trkpt lat="-27.85353" lon="-65.827585">
        <ele>1291.8</ele>
        <time>2018-08-19T21:54:48Z</time>
      </trkpt>
      <trkpt lat="-27.85356" lon="-65.827685">
        <ele>1291.9</ele>
        <time>2018-08-19T21:54:50Z</time>
      </trkpt>
      <trkpt lat="-27.8536" lon="-65.82777">
        <ele>1291.6</ele>
        <time>2018-08-19T21:54:52Z</time>
      </trkpt>
      <trkpt lat="-27.853665" lon="-65.827845">
        <ele>1291.0</ele>
        <time>2018-08-19T21:54:54Z</time>
      </trkpt>
      <trkpt lat="-27.853745" lon="-65.82792">
        <ele>1290.5</ele>
        <time>2018-08-19T21:54:56Z</time>
      </trkpt>
      <trkpt lat="-27.853805" lon="-65.82796">
        <ele>1290.5</ele>
        <time>2018-08-19T21:54:58Z</time>
      </trkpt>
      <trkpt lat="-27.85386" lon="-65.828005">
        <ele>1290.3</ele>
        <time>2018-08-19T21:55:00Z</time>
      </trkpt>
      <trkpt lat="-27.853935" lon="-65.82807">
        <ele>1290.2</ele>
        <time>2018-08-19T21:55:02Z</time>
      </trkpt>
      <trkpt lat="-27.854015" lon="-65.8281">
        <ele>1290.3</ele>
        <time>2018-08-19T21:55:04Z</time>
      </trkpt>
      <trkpt lat="-27.85411" lon="-65.828145">
        <ele>1290.8</ele>
        <time>2018-08-19T21:55:06Z</time>
      </trkpt>
      <trkpt lat="-27.8542" lon="-65.82821">
        <ele>1291.3</ele>
        <time>2018-08-19T21:55:08Z</time>
      </trkpt>
      <trkpt lat="-27.854295" lon="-65.82826">
        <ele>1291.8</ele>
        <time>2018-08-19T21:55:10Z</time>
      </trkpt>
      <trkpt lat="-27.854385" lon="-65.82831">
        <ele>1291.8</ele>
        <time>2018-08-19T21:55:12Z</time>
      </trkpt>
      <trkpt lat="-27.854465" lon="-65.82836">
        <ele>1292.2</ele>
        <time>2018-08-19T21:55:14Z</time>
      </trkpt>
      <trkpt lat="-27.854545" lon="-65.8284">
        <ele>1292.8</ele>
        <time>2018-08-19T21:55:16Z</time>
      </trkpt>
      <trkpt lat="-27.85463" lon="-65.828435">
        <ele>1293.2</ele>
        <time>2018-08-19T21:55:18Z</time>
      </trkpt>
      <trkpt lat="-27.85472" lon="-65.82845">
        <ele>1293.3</ele>
        <time>2018-08-19T21:55:20Z</time>
      </trkpt>
      <trkpt lat="-27.85481" lon="-65.828455">
        <ele>1293.3</ele>
        <time>2018-08-19T21:55:22Z</time>
      </trkpt>
      <trkpt lat="-27.85491" lon="-65.82841">
        <ele>1293.0</ele>
        <time>2018-08-19T21:55:24Z</time>
      </trkpt>
      <trkpt lat="-27.85501" lon="-65.82837">
        <ele>1293.0</ele>
        <time>2018-08-19T21:55:26Z</time>
      </trkpt>
      <trkpt lat="-27.855075" lon="-65.828325">
        <ele>1292.7</ele>
        <time>2018-08-19T21:55:28Z</time>
      </trkpt>
      <trkpt lat="-27.855155" lon="-65.82823">
        <ele>1292.5</ele>
        <time>2018-08-19T21:55:30Z</time>
      </trkpt>
      <trkpt lat="-27.855205" lon="-65.828125">
        <ele>1292.3</ele>
        <time>2018-08-19T21:55:32Z</time>
      </trkpt>
      <trkpt lat="-27.85524" lon="-65.828005">
        <ele>1292.2</ele>
        <time>2018-08-19T21:55:34Z</time>
      </trkpt>
      <trkpt lat="-27.855265" lon="-65.82789">
        <ele>1292.6</ele>
        <time>2018-08-19T21:55:36Z</time>
      </trkpt>
      <trkpt lat="-27.85529" lon="-65.827775">
        <ele>1293.0</ele>
        <time>2018-08-19T21:55:38Z</time>
      </trkpt>
      <trkpt lat="-27.8553" lon="-65.82765">
        <ele>1293.2</ele>
        <time>2018-08-19T21:55:40Z</time>
      </trkpt>
      <trkpt lat="-27.85531" lon="-65.827565">
        <ele>1293.2</ele>
        <time>2018-08-19T21:55:42Z</time>
      </trkpt>
      <trkpt lat="-27.855325" lon="-65.827465">
        <ele>1293.3</ele>
        <time>2018-08-19T21:55:44Z</time>
      </trkpt>
      <trkpt lat="-27.855335" lon="-65.82734">
        <ele>1293.5</ele>
        <time>2018-08-19T21:55:46Z</time>
      </trkpt>
      <trkpt lat="-27.855345" lon="-65.827245">
        <ele>1293.7</ele>
        <time>2018-08-19T21:55:48Z</time>
      </trkpt>
      <trkpt lat="-27.855355" lon="-65.82714">
        <ele>1293.9</ele>
        <time>2018-08-19T21:55:50Z</time>
      </trkpt>
      <trkpt lat="-27.855365" lon="-65.82702">
        <ele>1294.0</ele>
        <time>2018-08-19T21:55:52Z</time>
      </trkpt>
      <trkpt lat="-27.855375" lon="-65.826925">
        <ele>1294.5</ele>
        <time>2018-08-19T21:55:54Z</time>
      </trkpt>
      <trkpt lat="-27.85539" lon="-65.826825">
        <ele>1294.3</ele>
        <time>2018-08-19T21:55:56Z</time>
      </trkpt>
      <trkpt lat="-27.855405" lon="-65.82674">
        <ele>1293.9</ele>
        <time>2018-08-19T21:55:58Z</time>
      </trkpt>
      <trkpt lat="-27.855435" lon="-65.826655">
        <ele>1293.5</ele>
        <time>2018-08-19T21:56:00Z</time>
      </trkpt>
      <trkpt lat="-27.855485" lon="-65.82658">
        <ele>1293.1</ele>
        <time>2018-08-19T21:56:02Z</time>
      </trkpt>
      <trkpt lat="-27.85555" lon="-65.82651">
        <ele>1292.9</ele>
        <time>2018-08-19T21:56:04Z</time>
      </trkpt>
      <trkpt lat="-27.85564" lon="-65.82644">
        <ele>1292.9</ele>
        <time>2018-08-19T21:56:06Z</time>
      </trkpt>
      <trkpt lat="-27.85576" lon="-65.8264">
        <ele>1293.1</ele>
        <time>2018-08-19T21:56:08Z</time>
      </trkpt>
      <trkpt lat="-27.855865" lon="-65.8264">
        <ele>1293.2</ele>
        <time>2018-08-19T21:56:10Z</time>
      </trkpt>
      <trkpt lat="-27.85598" lon="-65.82644">
        <ele>1293.3</ele>
        <time>2018-08-19T21:56:12Z</time>
      </trkpt>
      <trkpt lat="-27.85607" lon="-65.826515">
        <ele>1293.2</ele>
        <time>2018-08-19T21:56:14Z</time>
      </trkpt>
      <trkpt lat="-27.856175" lon="-65.8266">
        <ele>1293.0</ele>
        <time>2018-08-19T21:56:16Z</time>
      </trkpt>
      <trkpt lat="-27.85625" lon="-65.82671">
        <ele>1292.5</ele>
        <time>2018-08-19T21:56:18Z</time>
      </trkpt>
      <trkpt lat="-27.856295" lon="-65.82683">
        <ele>1292.4</ele>
        <time>2018-08-19T21:56:20Z</time>
      </trkpt>
      <trkpt lat="-27.85633" lon="-65.826915">
        <ele>1292.3</ele>
        <time>2018-08-19T21:56:21Z</time>
      </trkpt>
      <trkpt lat="-27.856365" lon="-65.826975">
        <ele>1292.1</ele>
        <time>2018-08-19T21:56:22Z</time>
      </trkpt>
      <trkpt lat="-27.856395" lon="-65.827055">
        <ele>1291.9</ele>
        <time>2018-08-19T21:56:23Z</time>
      </trkpt>
      <trkpt lat="-27.85643" lon="-65.82715">
        <ele>1291.7</ele>
        <time>2018-08-19T21:56:24Z</time>
      </trkpt>
      <trkpt lat="-27.856465" lon="-65.82724">
        <ele>1291.1</ele>
        <time>2018-08-19T21:56:25Z</time>
      </trkpt>
      <trkpt lat="-27.856505" lon="-65.827325">
        <ele>1290.4</ele>
        <time>2018-08-19T21:56:26Z</time>
      </trkpt>
      <trkpt lat="-27.856545" lon="-65.82741">
        <ele>1289.5</ele>
        <time>2018-08-19T21:56:27Z</time>
      </trkpt>
      <trkpt lat="-27.85658" lon="-65.8275">
        <ele>1288.5</ele>
        <time>2018-08-19T21:56:28Z</time>
      </trkpt>
      <trkpt lat="-27.85662" lon="-65.82759">
        <ele>1287.4</ele>
        <time>2018-08-19T21:56:29Z</time>
      </trkpt>
      <trkpt lat="-27.856665" lon="-65.827685">
        <ele>1286.6</ele>
        <time>2018-08-19T21:56:30Z</time>
      </trkpt>
      <trkpt lat="-27.8567" lon="-65.827775">
        <ele>1285.8</ele>
        <time>2018-08-19T21:56:31Z</time>
      </trkpt>
      <trkpt lat="-27.85674" lon="-65.827865">
        <ele>1285.0</ele>
        <time>2018-08-19T21:56:32Z</time>
      </trkpt>
      <trkpt lat="-27.856775" lon="-65.82796">
        <ele>1284.3</ele>
        <time>2018-08-19T21:56:33Z</time>
      </trkpt>
      <trkpt lat="-27.856815" lon="-65.82804">
        <ele>1283.6</ele>
        <time>2018-08-19T21:56:34Z</time>
      </trkpt>
      <trkpt lat="-27.856855" lon="-65.828135">
        <ele>1282.9</ele>
        <time>2018-08-19T21:56:35Z</time>
      </trkpt>
      <trkpt lat="-27.85689" lon="-65.82823">
        <ele>1282.1</ele>
        <time>2018-08-19T21:56:36Z</time>
      </trkpt>
      <trkpt lat="-27.856935" lon="-65.828325">
        <ele>1281.4</ele>
        <time>2018-08-19T21:56:37Z</time>
      </trkpt>
      <trkpt lat="-27.85697" lon="-65.82841">
        <ele>1280.7</ele>
        <time>2018-08-19T21:56:38Z</time>
      </trkpt>
      <trkpt lat="-27.857005" lon="-65.828495">
        <ele>1280.4</ele>
        <time>2018-08-19T21:56:39Z</time>
      </trkpt>
      <trkpt lat="-27.857045" lon="-65.828575">
        <ele>1280.3</ele>
        <time>2018-08-19T21:56:40Z</time>
      </trkpt>
      <trkpt lat="-27.85708" lon="-65.82866">
        <ele>1279.9</ele>
        <time>2018-08-19T21:56:41Z</time>
      </trkpt>
      <trkpt lat="-27.85712" lon="-65.828745">
        <ele>1279.3</ele>
        <time>2018-08-19T21:56:42Z</time>
      </trkpt>
      <trkpt lat="-27.857155" lon="-65.82883">
        <ele>1278.9</ele>
        <time>2018-08-19T21:56:43Z</time>
      </trkpt>
      <trkpt lat="-27.857195" lon="-65.828925">
        <ele>1278.6</ele>
        <time>2018-08-19T21:56:44Z</time>
      </trkpt>
      <trkpt lat="-27.857235" lon="-65.82899">
        <ele>1278.4</ele>
        <time>2018-08-19T21:56:45Z</time>
      </trkpt>
      <trkpt lat="-27.85727" lon="-65.829085">
        <ele>1278.5</ele>
        <time>2018-08-19T21:56:46Z</time>
      </trkpt>
      <trkpt lat="-27.857315" lon="-65.82917">
        <ele>1278.6</ele>
        <time>2018-08-19T21:56:47Z</time>
      </trkpt>
      <trkpt lat="-27.85736" lon="-65.829255">
        <ele>1278.6</ele>
        <time>2018-08-19T21:56:48Z</time>
      </trkpt>
      <trkpt lat="-27.8574" lon="-65.829355">
        <ele>1278.3</ele>
        <time>2018-08-19T21:56:49Z</time>
      </trkpt>
      <trkpt lat="-27.857435" lon="-65.82944">
        <ele>1277.9</ele>
        <time>2018-08-19T21:56:50Z</time>
      </trkpt>
      <trkpt lat="-27.85746" lon="-65.829535">
        <ele>1277.2</ele>
        <time>2018-08-19T21:56:51Z</time>
      </trkpt>
      <trkpt lat="-27.85749" lon="-65.82962">
        <ele>1276.4</ele>
        <time>2018-08-19T21:56:52Z</time>
      </trkpt>
      <trkpt lat="-27.857505" lon="-65.82973">
        <ele>1275.8</ele>
        <time>2018-08-19T21:56:53Z</time>
      </trkpt>
      <trkpt lat="-27.857505" lon="-65.829835">
        <ele>1275.0</ele>
        <time>2018-08-19T21:56:54Z</time>
      </trkpt>
      <trkpt lat="-27.85749" lon="-65.829955">
        <ele>1274.1</ele>
        <time>2018-08-19T21:56:55Z</time>
      </trkpt>
      <trkpt lat="-27.857455" lon="-65.83007">
        <ele>1273.3</ele>
        <time>2018-08-19T21:56:56Z</time>
      </trkpt>
      <trkpt lat="-27.85741" lon="-65.830155">
        <ele>1272.8</ele>
        <time>2018-08-19T21:56:57Z</time>
      </trkpt>
      <trkpt lat="-27.85735" lon="-65.83028">
        <ele>1272.2</ele>
        <time>2018-08-19T21:56:58Z</time>
      </trkpt>
      <trkpt lat="-27.85728" lon="-65.83034">
        <ele>1271.5</ele>
        <time>2018-08-19T21:56:59Z</time>
      </trkpt>
      <trkpt lat="-27.857215" lon="-65.830415">
        <ele>1270.5</ele>
        <time>2018-08-19T21:57:00Z</time>
      </trkpt>
      <trkpt lat="-27.857155" lon="-65.830465">
        <ele>1269.2</ele>
        <time>2018-08-19T21:57:01Z</time>
      </trkpt>
      <trkpt lat="-27.85708" lon="-65.83052">
        <ele>1267.5</ele>
        <time>2018-08-19T21:57:02Z</time>
      </trkpt>
      <trkpt lat="-27.85702" lon="-65.83059">
        <ele>1265.8</ele>
        <time>2018-08-19T21:57:03Z</time>
      </trkpt>
      <trkpt lat="-27.85697" lon="-65.83065">
        <ele>1264.3</ele>
        <time>2018-08-19T21:57:04Z</time>
      </trkpt>
      <trkpt lat="-27.85692" lon="-65.830735">
        <ele>1263.6</ele>
        <time>2018-08-19T21:57:05Z</time>
      </trkpt>
      <trkpt lat="-27.85689" lon="-65.830845">
        <ele>1262.8</ele>
        <time>2018-08-19T21:57:06Z</time>
      </trkpt>
      <trkpt lat="-27.856885" lon="-65.83094">
        <ele>1262.2</ele>
        <time>2018-08-19T21:57:07Z</time>
      </trkpt>
      <trkpt lat="-27.8569" lon="-65.831035">
        <ele>1261.9</ele>
        <time>2018-08-19T21:57:08Z</time>
      </trkpt>
      <trkpt lat="-27.856935" lon="-65.8311">
        <ele>1261.5</ele>
        <time>2018-08-19T21:57:09Z</time>
      </trkpt>
      <trkpt lat="-27.856985" lon="-65.831185">
        <ele>1261.3</ele>
        <time>2018-08-19T21:57:10Z</time>
      </trkpt>
      <trkpt lat="-27.857045" lon="-65.831225">
        <ele>1261.3</ele>
        <time>2018-08-19T21:57:11Z</time>
      </trkpt>
      <trkpt lat="-27.857125" lon="-65.8313">
        <ele>1261.2</ele>
        <time>2018-08-19T21:57:12Z</time>
      </trkpt>
      <trkpt lat="-27.857195" lon="-65.83135">
        <ele>1261.1</ele>
        <time>2018-08-19T21:57:13Z</time>
      </trkpt>
      <trkpt lat="-27.85728" lon="-65.83139">
        <ele>1261.0</ele>
        <time>2018-08-19T21:57:14Z</time>
      </trkpt>
      <trkpt lat="-27.85736" lon="-65.831435">
        <ele>1260.6</ele>
        <time>2018-08-19T21:57:15Z</time>
      </trkpt>
      <trkpt lat="-27.85744" lon="-65.83145">
        <ele>1260.4</ele>
        <time>2018-08-19T21:57:16Z</time>
      </trkpt>
      <trkpt lat="-27.857535" lon="-65.831505">
        <ele>1260.0</ele>
        <time>2018-08-19T21:57:17Z</time>
      </trkpt>
      <trkpt lat="-27.85761" lon="-65.83154">
        <ele>1259.5</ele>
        <time>2018-08-19T21:57:18Z</time>
      </trkpt>
      <trkpt lat="-27.857705" lon="-65.831575">
        <ele>1259.0</ele>
        <time>2018-08-19T21:57:19Z</time>
      </trkpt>
      <trkpt lat="-27.857785" lon="-65.83159">
        <ele>1258.6</ele>
        <time>2018-08-19T21:57:20Z</time>
      </trkpt>
      <trkpt lat="-27.857865" lon="-65.831635">
        <ele>1258.2</ele>
        <time>2018-08-19T21:57:21Z</time>
      </trkpt>
      <trkpt lat="-27.857955" lon="-65.831675">
        <ele>1258.0</ele>
        <time>2018-08-19T21:57:22Z</time>
      </trkpt>
      <trkpt lat="-27.85804" lon="-65.8317">
        <ele>1258.0</ele>
        <time>2018-08-19T21:57:23Z</time>
      </trkpt>
      <trkpt lat="-27.858125" lon="-65.83172">
        <ele>1258.0</ele>
        <time>2018-08-19T21:57:24Z</time>
      </trkpt>
      <trkpt lat="-27.858205" lon="-65.831755">
        <ele>1258.1</ele>
        <time>2018-08-19T21:57:25Z</time>
      </trkpt>
      <trkpt lat="-27.85828" lon="-65.831795">
        <ele>1258.1</ele>
        <time>2018-08-19T21:57:26Z</time>
      </trkpt>
      <trkpt lat="-27.858355" lon="-65.83183">
        <ele>1258.1</ele>
        <time>2018-08-19T21:57:27Z</time>
      </trkpt>
      <trkpt lat="-27.858425" lon="-65.83186">
        <ele>1258.1</ele>
        <time>2018-08-19T21:57:28Z</time>
      </trkpt>
      <trkpt lat="-27.85849" lon="-65.831885">
        <ele>1258.0</ele>
        <time>2018-08-19T21:57:29Z</time>
      </trkpt>
      <trkpt lat="-27.858625" lon="-65.83194">
        <ele>1257.8</ele>
        <time>2018-08-19T21:57:31Z</time>
      </trkpt>
      <trkpt lat="-27.858745" lon="-65.83198">
        <ele>1257.8</ele>
        <time>2018-08-19T21:57:33Z</time>
      </trkpt>
      <trkpt lat="-27.85886" lon="-65.83203">
        <ele>1257.8</ele>
        <time>2018-08-19T21:57:35Z</time>
      </trkpt>
      <trkpt lat="-27.858975" lon="-65.832085">
        <ele>1257.8</ele>
        <time>2018-08-19T21:57:37Z</time>
      </trkpt>
      <trkpt lat="-27.859095" lon="-65.832125">
        <ele>1257.7</ele>
        <time>2018-08-19T21:57:39Z</time>
      </trkpt>
      <trkpt lat="-27.859205" lon="-65.83217">
        <ele>1257.7</ele>
        <time>2018-08-19T21:57:41Z</time>
      </trkpt>
      <trkpt lat="-27.85932" lon="-65.83221">
        <ele>1257.7</ele>
        <time>2018-08-19T21:57:43Z</time>
      </trkpt>
      <trkpt lat="-27.85944" lon="-65.832265">
        <ele>1257.6</ele>
        <time>2018-08-19T21:57:45Z</time>
      </trkpt>
      <trkpt lat="-27.859545" lon="-65.83231">
        <ele>1257.8</ele>
        <time>2018-08-19T21:57:47Z</time>
      </trkpt>
      <trkpt lat="-27.859665" lon="-65.83235">
        <ele>1257.7</ele>
        <time>2018-08-19T21:57:49Z</time>
      </trkpt>
      <trkpt lat="-27.85977" lon="-65.832395">
        <ele>1257.6</ele>
        <time>2018-08-19T21:57:51Z</time>
      </trkpt>
      <trkpt lat="-27.859885" lon="-65.832435">
        <ele>1257.2</ele>
        <time>2018-08-19T21:57:53Z</time>
      </trkpt>
      <trkpt lat="-27.859995" lon="-65.83249">
        <ele>1256.9</ele>
        <time>2018-08-19T21:57:55Z</time>
      </trkpt>
      <trkpt lat="-27.8601" lon="-65.83253500000001">
        <ele>1256.6</ele>
        <time>2018-08-19T21:57:57Z</time>
      </trkpt>
      <trkpt lat="-27.8602" lon="-65.832575">
        <ele>1256.2</ele>
        <time>2018-08-19T21:57:59Z</time>
      </trkpt>
      <trkpt lat="-27.860295" lon="-65.83264">
        <ele>1255.6</ele>
        <time>2018-08-19T21:58:01Z</time>
      </trkpt>
      <trkpt lat="-27.860395" lon="-65.832725">
        <ele>1255.2</ele>
        <time>2018-08-19T21:58:03Z</time>
      </trkpt>
      <trkpt lat="-27.86046" lon="-65.832815">
        <ele>1254.6</ele>
        <time>2018-08-19T21:58:05Z</time>
      </trkpt>
      <trkpt lat="-27.86052" lon="-65.832955">
        <ele>1254.2</ele>
        <time>2018-08-19T21:58:07Z</time>
      </trkpt>
      <trkpt lat="-27.860525" lon="-65.83307">
        <ele>1254.5</ele>
        <time>2018-08-19T21:58:09Z</time>
      </trkpt>
      <trkpt lat="-27.860485" lon="-65.833195">
        <ele>1254.6</ele>
        <time>2018-08-19T21:58:11Z</time>
      </trkpt>
      <trkpt lat="-27.860395" lon="-65.83333">
        <ele>1254.3</ele>
        <time>2018-08-19T21:58:13Z</time>
      </trkpt>
      <trkpt lat="-27.8603" lon="-65.833415">
        <ele>1254.3</ele>
        <time>2018-08-19T21:58:15Z</time>
      </trkpt>
      <trkpt lat="-27.86021" lon="-65.83349">
        <ele>1254.6</ele>
        <time>2018-08-19T21:58:17Z</time>
      </trkpt>
      <trkpt lat="-27.860105" lon="-65.83356">
        <ele>1254.1</ele>
        <time>2018-08-19T21:58:19Z</time>
      </trkpt>
      <trkpt lat="-27.859995" lon="-65.83364">
        <ele>1252.9</ele>
        <time>2018-08-19T21:58:21Z</time>
      </trkpt>
      <trkpt lat="-27.859885" lon="-65.83371">
        <ele>1251.8</ele>
        <time>2018-08-19T21:58:23Z</time>
      </trkpt>
      <trkpt lat="-27.85977" lon="-65.833785">
        <ele>1251.1</ele>
        <time>2018-08-19T21:58:25Z</time>
      </trkpt>
      <trkpt lat="-27.859655" lon="-65.83386">
        <ele>1250.9</ele>
        <time>2018-08-19T21:58:27Z</time>
      </trkpt>
      <trkpt lat="-27.85954" lon="-65.83394">
        <ele>1250.8</ele>
        <time>2018-08-19T21:58:29Z</time>
      </trkpt>
      <trkpt lat="-27.859425" lon="-65.834025">
        <ele>1250.7</ele>
        <time>2018-08-19T21:58:31Z</time>
      </trkpt>
      <trkpt lat="-27.85932" lon="-65.83412">
        <ele>1250.4</ele>
        <time>2018-08-19T21:58:33Z</time>
      </trkpt>
      <trkpt lat="-27.859225" lon="-65.83422">
        <ele>1250.0</ele>
        <time>2018-08-19T21:58:35Z</time>
      </trkpt>
      <trkpt lat="-27.85914" lon="-65.834345">
        <ele>1249.9</ele>
        <time>2018-08-19T21:58:37Z</time>
      </trkpt>
      <trkpt lat="-27.85908" lon="-65.83448">
        <ele>1250.1</ele>
        <time>2018-08-19T21:58:39Z</time>
      </trkpt>
      <trkpt lat="-27.859045000000002" lon="-65.83462">
        <ele>1249.8</ele>
        <time>2018-08-19T21:58:41Z</time>
      </trkpt>
      <trkpt lat="-27.85904" lon="-65.83475">
        <ele>1249.5</ele>
        <time>2018-08-19T21:58:43Z</time>
      </trkpt>
      <trkpt lat="-27.85906" lon="-65.834855">
        <ele>1248.9</ele>
        <time>2018-08-19T21:58:45Z</time>
      </trkpt>
      <trkpt lat="-27.859105" lon="-65.83501">
        <ele>1248.5</ele>
        <time>2018-08-19T21:58:47Z</time>
      </trkpt>
      <trkpt lat="-27.859175" lon="-65.835125">
        <ele>1248.2</ele>
        <time>2018-08-19T21:58:49Z</time>
      </trkpt>
      <trkpt lat="-27.859265" lon="-65.835265">
        <ele>1247.9</ele>
        <time>2018-08-19T21:58:51Z</time>
      </trkpt>
      <trkpt lat="-27.85935" lon="-65.835375">
        <ele>1247.3</ele>
        <time>2018-08-19T21:58:53Z</time>
      </trkpt>
      <trkpt lat="-27.85944" lon="-65.835465">
        <ele>1246.6</ele>
        <time>2018-08-19T21:58:55Z</time>
      </trkpt>
      <trkpt lat="-27.859535" lon="-65.835555">
        <ele>1245.8</ele>
        <time>2018-08-19T21:58:57Z</time>
      </trkpt>
      <trkpt lat="-27.85962" lon="-65.83564">
        <ele>1244.8</ele>
        <time>2018-08-19T21:58:59Z</time>
      </trkpt>
      <trkpt lat="-27.859695" lon="-65.835695">
        <ele>1244.2</ele>
        <time>2018-08-19T21:59:01Z</time>
      </trkpt>
      <trkpt lat="-27.859765" lon="-65.83578">
        <ele>1243.9</ele>
        <time>2018-08-19T21:59:03Z</time>
      </trkpt>
      <trkpt lat="-27.859845" lon="-65.835865">
        <ele>1244.0</ele>
        <time>2018-08-19T21:59:05Z</time>
      </trkpt>
      <trkpt lat="-27.859925" lon="-65.83595">
        <ele>1244.4</ele>
        <time>2018-08-19T21:59:07Z</time>
      </trkpt>
      <trkpt lat="-27.86" lon="-65.836025">
        <ele>1244.7</ele>
        <time>2018-08-19T21:59:09Z</time>
      </trkpt>
      <trkpt lat="-27.86008" lon="-65.836135">
        <ele>1245.1</ele>
        <time>2018-08-19T21:59:12Z</time>
      </trkpt>
      <trkpt lat="-27.86016" lon="-65.836225">
        <ele>1245.5</ele>
        <time>2018-08-19T21:59:13Z</time>
      </trkpt>
      <trkpt lat="-27.860235" lon="-65.836315">
        <ele>1245.7</ele>
        <time>2018-08-19T21:59:15Z</time>
      </trkpt>
      <trkpt lat="-27.8603" lon="-65.836375">
        <ele>1245.6</ele>
        <time>2018-08-19T21:59:17Z</time>
      </trkpt>
      <trkpt lat="-27.860375" lon="-65.836465">
        <ele>1245.3</ele>
        <time>2018-08-19T21:59:19Z</time>
      </trkpt>
      <trkpt lat="-27.860455" lon="-65.83656">
        <ele>1244.9</ele>
        <time>2018-08-19T21:59:21Z</time>
      </trkpt>
      <trkpt lat="-27.86053" lon="-65.836645">
        <ele>1244.5</ele>
        <time>2018-08-19T21:59:23Z</time>
      </trkpt>
      <trkpt lat="-27.860625" lon="-65.836755">
        <ele>1244.1</ele>
        <time>2018-08-19T21:59:25Z</time>
      </trkpt>
      <trkpt lat="-27.860705" lon="-65.83685">
        <ele>1243.6</ele>
        <time>2018-08-19T21:59:27Z</time>
      </trkpt>
      <trkpt lat="-27.86079" lon="-65.83695">
        <ele>1243.3</ele>
        <time>2018-08-19T21:59:29Z</time>
      </trkpt>
      <trkpt lat="-27.86086" lon="-65.83705">
        <ele>1243.4</ele>
        <time>2018-08-19T21:59:31Z</time>
      </trkpt>
      <trkpt lat="-27.86092" lon="-65.837135">
        <ele>1243.5</ele>
        <time>2018-08-19T21:59:33Z</time>
      </trkpt>
      <trkpt lat="-27.860975" lon="-65.837255">
        <ele>1243.3</ele>
        <time>2018-08-19T21:59:35Z</time>
      </trkpt>
      <trkpt lat="-27.86103" lon="-65.837355">
        <ele>1242.5</ele>
        <time>2018-08-19T21:59:37Z</time>
      </trkpt>
      <trkpt lat="-27.861065" lon="-65.83745">
        <ele>1242.0</ele>
        <time>2018-08-19T21:59:39Z</time>
      </trkpt>
      <trkpt lat="-27.86109" lon="-65.837545">
        <ele>1242.2</ele>
        <time>2018-08-19T21:59:41Z</time>
      </trkpt>
      <trkpt lat="-27.8611" lon="-65.83766">
        <ele>1242.8</ele>
        <time>2018-08-19T21:59:43Z</time>
      </trkpt>
      <trkpt lat="-27.861115" lon="-65.83777">
        <ele>1243.0</ele>
        <time>2018-08-19T21:59:45Z</time>
      </trkpt>
      <trkpt lat="-27.86112" lon="-65.837875">
        <ele>1242.8</ele>
        <time>2018-08-19T21:59:47Z</time>
      </trkpt>
      <trkpt lat="-27.86112" lon="-65.837985">
        <ele>1241.9</ele>
        <time>2018-08-19T21:59:49Z</time>
      </trkpt>
      <trkpt lat="-27.86111" lon="-65.83808">
        <ele>1241.2</ele>
        <time>2018-08-19T21:59:51Z</time>
      </trkpt>
      <trkpt lat="-27.8611" lon="-65.838195">
        <ele>1240.9</ele>
        <time>2018-08-19T21:59:53Z</time>
      </trkpt>
      <trkpt lat="-27.86109" lon="-65.838305">
        <ele>1240.6</ele>
        <time>2018-08-19T21:59:55Z</time>
      </trkpt>
      <trkpt lat="-27.861065" lon="-65.838415">
        <ele>1240.5</ele>
        <time>2018-08-19T21:59:57Z</time>
      </trkpt>
      <trkpt lat="-27.861045" lon="-65.83853">
        <ele>1240.5</ele>
        <time>2018-08-19T21:59:59Z</time>
      </trkpt>
      <trkpt lat="-27.86102" lon="-65.83865">
        <ele>1239.9</ele>
        <time>2018-08-19T22:00:01Z</time>
      </trkpt>
      <trkpt lat="-27.860995" lon="-65.838755">
        <ele>1239.3</ele>
        <time>2018-08-19T22:00:03Z</time>
      </trkpt>
      <trkpt lat="-27.860970000000002" lon="-65.838875">
        <ele>1238.5</ele>
        <time>2018-08-19T22:00:05Z</time>
      </trkpt>
      <trkpt lat="-27.860945" lon="-65.83898">
        <ele>1238.0</ele>
        <time>2018-08-19T22:00:07Z</time>
      </trkpt>
      <trkpt lat="-27.860935" lon="-65.839095">
        <ele>1238.4</ele>
        <time>2018-08-19T22:00:09Z</time>
      </trkpt>
      <trkpt lat="-27.86092" lon="-65.839205">
        <ele>1238.7</ele>
        <time>2018-08-19T22:00:11Z</time>
      </trkpt>
      <trkpt lat="-27.8609" lon="-65.83929">
        <ele>1238.9</ele>
        <time>2018-08-19T22:00:13Z</time>
      </trkpt>
      <trkpt lat="-27.860885" lon="-65.839375">
        <ele>1239.4</ele>
        <time>2018-08-19T22:00:15Z</time>
      </trkpt>
      <trkpt lat="-27.860875" lon="-65.83947">
        <ele>1239.6</ele>
        <time>2018-08-19T22:00:17Z</time>
      </trkpt>
      <trkpt lat="-27.860865" lon="-65.839555">
        <ele>1239.7</ele>
        <time>2018-08-19T22:00:19Z</time>
      </trkpt>
      <trkpt lat="-27.86085" lon="-65.839675">
        <ele>1239.8</ele>
        <time>2018-08-19T22:00:22Z</time>
      </trkpt>
      <trkpt lat="-27.86084" lon="-65.839775">
        <ele>1239.9</ele>
        <time>2018-08-19T22:00:25Z</time>
      </trkpt>
      <trkpt lat="-27.86083" lon="-65.83986">
        <ele>1240.2</ele>
        <time>2018-08-19T22:00:29Z</time>
      </trkpt>
      <trkpt lat="-27.860815" lon="-65.839955">
        <ele>1240.4</ele>
        <time>2018-08-19T22:00:31Z</time>
      </trkpt>
      <trkpt lat="-27.860805" lon="-65.84005">
        <ele>1240.7</ele>
        <time>2018-08-19T22:00:35Z</time>
      </trkpt>
      <trkpt lat="-27.860795" lon="-65.840145">
        <ele>1241.2</ele>
        <time>2018-08-19T22:00:40Z</time>
      </trkpt>
      <trkpt lat="-27.86079" lon="-65.84023">
        <ele>1241.7</ele>
        <time>2018-08-19T22:00:45Z</time>
      </trkpt>
      <trkpt lat="-27.86078" lon="-65.840315">
        <ele>1242.1</ele>
        <time>2018-08-19T22:00:49Z</time>
      </trkpt>
      <trkpt lat="-27.86077" lon="-65.840405">
        <ele>1242.6</ele>
        <time>2018-08-19T22:00:53Z</time>
      </trkpt>
      <trkpt lat="-27.860755" lon="-65.8405">
        <ele>1243.1</ele>
        <time>2018-08-19T22:00:57Z</time>
      </trkpt>
      <trkpt lat="-27.860745" lon="-65.84061">
        <ele>1243.5</ele>
        <time>2018-08-19T22:01:01Z</time>
      </trkpt>
      <trkpt lat="-27.86072" lon="-65.840705">
        <ele>1244.0</ele>
        <time>2018-08-19T22:01:05Z</time>
      </trkpt>
      <trkpt lat="-27.86071" lon="-65.8408">
        <ele>1244.4</ele>
        <time>2018-08-19T22:01:09Z</time>
      </trkpt>
      <trkpt lat="-27.8607" lon="-65.84089">
        <ele>1244.9</ele>
        <time>2018-08-19T22:01:13Z</time>
      </trkpt>
      <trkpt lat="-27.860685" lon="-65.840975">
        <ele>1245.3</ele>
        <time>2018-08-19T22:01:17Z</time>
      </trkpt>
      <trkpt lat="-27.860675" lon="-65.841065">
        <ele>1245.7</ele>
        <time>2018-08-19T22:01:21Z</time>
      </trkpt>
      <trkpt lat="-27.86066" lon="-65.841155">
        <ele>1246.0</ele>
        <time>2018-08-19T22:01:25Z</time>
      </trkpt>
      <trkpt lat="-27.86064" lon="-65.84126">
        <ele>1246.3</ele>
        <time>2018-08-19T22:01:29Z</time>
      </trkpt>
      <trkpt lat="-27.860625" lon="-65.841345">
        <ele>1246.6</ele>
        <time>2018-08-19T22:01:33Z</time>
      </trkpt>
      <trkpt lat="-27.860605" lon="-65.841455">
        <ele>1246.9</ele>
        <time>2018-08-19T22:01:37Z</time>
      </trkpt>
      <trkpt lat="-27.8606" lon="-65.841525">
        <ele>1247.2</ele>
        <time>2018-08-19T22:01:40Z</time>
      </trkpt>
      <trkpt lat="-27.86059" lon="-65.841605">
        <ele>1247.4</ele>
        <time>2018-08-19T22:01:43Z</time>
      </trkpt>
      <trkpt lat="-27.860565" lon="-65.84171">
        <ele>1247.6</ele>
        <time>2018-08-19T22:01:47Z</time>
      </trkpt>
      <trkpt lat="-27.86056" lon="-65.841815">
        <ele>1247.9</ele>
        <time>2018-08-19T22:01:51Z</time>
      </trkpt>
      <trkpt lat="-27.86054" lon="-65.841915">
        <ele>1248.1</ele>
        <time>2018-08-19T22:01:54Z</time>
      </trkpt>
      <trkpt lat="-27.86052" lon="-65.84201">
        <ele>1248.2</ele>
        <time>2018-08-19T22:01:57Z</time>
      </trkpt>
      <trkpt lat="-27.860505" lon="-65.842105">
        <ele>1248.2</ele>
        <time>2018-08-19T22:02:00Z</time>
      </trkpt>
      <trkpt lat="-27.860485" lon="-65.84219">
        <ele>1248.2</ele>
        <time>2018-08-19T22:02:02Z</time>
      </trkpt>
      <trkpt lat="-27.86047" lon="-65.84227">
        <ele>1248.2</ele>
        <time>2018-08-19T22:02:04Z</time>
      </trkpt>
      <trkpt lat="-27.86045" lon="-65.842375">
        <ele>1248.1</ele>
        <time>2018-08-19T22:02:07Z</time>
      </trkpt>
      <trkpt lat="-27.86044" lon="-65.842495">
        <ele>1248.1</ele>
        <time>2018-08-19T22:02:10Z</time>
      </trkpt>
      <trkpt lat="-27.860435" lon="-65.84258">
        <ele>1248.1</ele>
        <time>2018-08-19T22:02:12Z</time>
      </trkpt>
      <trkpt lat="-27.860415" lon="-65.842665">
        <ele>1247.8</ele>
        <time>2018-08-19T22:02:14Z</time>
      </trkpt>
      <trkpt lat="-27.860405" lon="-65.842735">
        <ele>1247.4</ele>
        <time>2018-08-19T22:02:16Z</time>
      </trkpt>
      <trkpt lat="-27.860395" lon="-65.842845">
        <ele>1247.2</ele>
        <time>2018-08-19T22:02:18Z</time>
      </trkpt>
      <trkpt lat="-27.860375" lon="-65.842945">
        <ele>1247.0</ele>
        <time>2018-08-19T22:02:20Z</time>
      </trkpt>
      <trkpt lat="-27.860365" lon="-65.84304">
        <ele>1246.8</ele>
        <time>2018-08-19T22:02:22Z</time>
      </trkpt>
      <trkpt lat="-27.86035" lon="-65.843135">
        <ele>1246.6</ele>
        <time>2018-08-19T22:02:24Z</time>
      </trkpt>
      <trkpt lat="-27.860335" lon="-65.84323">
        <ele>1246.5</ele>
        <time>2018-08-19T22:02:26Z</time>
      </trkpt>
      <trkpt lat="-27.86032" lon="-65.843315">
        <ele>1246.3</ele>
        <time>2018-08-19T22:02:28Z</time>
      </trkpt>
      <trkpt lat="-27.860305" lon="-65.843435">
        <ele>1246.3</ele>
        <time>2018-08-19T22:02:30Z</time>
      </trkpt>
      <trkpt lat="-27.860295" lon="-65.843535">
        <ele>1246.7</ele>
        <time>2018-08-19T22:02:32Z</time>
      </trkpt>
      <trkpt lat="-27.86027" lon="-65.843635">
        <ele>1247.1</ele>
        <time>2018-08-19T22:02:34Z</time>
      </trkpt>
      <trkpt lat="-27.86026" lon="-65.84372">
        <ele>1247.1</ele>
        <time>2018-08-19T22:02:36Z</time>
      </trkpt>
      <trkpt lat="-27.860245" lon="-65.84383">
        <ele>1246.8</ele>
        <time>2018-08-19T22:02:38Z</time>
      </trkpt>
      <trkpt lat="-27.860225" lon="-65.843925">
        <ele>1246.4</ele>
        <time>2018-08-19T22:02:40Z</time>
      </trkpt>
      <trkpt lat="-27.86021" lon="-65.84401">
        <ele>1246.1</ele>
        <time>2018-08-19T22:02:42Z</time>
      </trkpt>
      <trkpt lat="-27.86019" lon="-65.8441">
        <ele>1245.9</ele>
        <time>2018-08-19T22:02:44Z</time>
      </trkpt>
      <trkpt lat="-27.86018" lon="-65.84417">
        <ele>1245.9</ele>
        <time>2018-08-19T22:02:46Z</time>
      </trkpt>
      <trkpt lat="-27.86017" lon="-65.844255">
        <ele>1245.9</ele>
        <time>2018-08-19T22:02:48Z</time>
      </trkpt>
      <trkpt lat="-27.86015" lon="-65.844345">
        <ele>1246.0</ele>
        <time>2018-08-19T22:02:50Z</time>
      </trkpt>
      <trkpt lat="-27.86014" lon="-65.84444">
        <ele>1246.1</ele>
        <time>2018-08-19T22:02:52Z</time>
      </trkpt>
      <trkpt lat="-27.860115" lon="-65.84456">
        <ele>1246.1</ele>
        <time>2018-08-19T22:02:55Z</time>
      </trkpt>
      <trkpt lat="-27.86011" lon="-65.844645">
        <ele>1246.2</ele>
        <time>2018-08-19T22:02:57Z</time>
      </trkpt>
      <trkpt lat="-27.86009" lon="-65.84473">
        <ele>1246.4</ele>
        <time>2018-08-19T22:02:59Z</time>
      </trkpt>
      <trkpt lat="-27.860075" lon="-65.844835">
        <ele>1246.7</ele>
        <time>2018-08-19T22:03:02Z</time>
      </trkpt>
      <trkpt lat="-27.86008" lon="-65.84493">
        <ele>1247.1</ele>
        <time>2018-08-19T22:03:06Z</time>
      </trkpt>
      <trkpt lat="-27.860065" lon="-65.845015">
        <ele>1247.4</ele>
        <time>2018-08-19T22:03:10Z</time>
      </trkpt>
      <trkpt lat="-27.860055" lon="-65.845115">
        <ele>1247.6</ele>
        <time>2018-08-19T22:03:14Z</time>
      </trkpt>
      <trkpt lat="-27.860035" lon="-65.8452">
        <ele>1247.7</ele>
        <time>2018-08-19T22:03:18Z</time>
      </trkpt>
      <trkpt lat="-27.860025" lon="-65.84532">
        <ele>1247.8</ele>
        <time>2018-08-19T22:03:22Z</time>
      </trkpt>
      <trkpt lat="-27.86001" lon="-65.845415">
        <ele>1247.9</ele>
        <time>2018-08-19T22:03:26Z</time>
      </trkpt>
      <trkpt lat="-27.85998" lon="-65.84551">
        <ele>1247.9</ele>
        <time>2018-08-19T22:03:30Z</time>
      </trkpt>
      <trkpt lat="-27.85996" lon="-65.845605">
        <ele>1248.0</ele>
        <time>2018-08-19T22:03:33Z</time>
      </trkpt>
      <trkpt lat="-27.859935" lon="-65.84569">
        <ele>1248.1</ele>
        <time>2018-08-19T22:03:36Z</time>
      </trkpt>
      <trkpt lat="-27.859905" lon="-65.8458">
        <ele>1248.2</ele>
        <time>2018-08-19T22:03:40Z</time>
      </trkpt>
      <trkpt lat="-27.859875" lon="-65.845875">
        <ele>1248.2</ele>
        <time>2018-08-19T22:03:43Z</time>
      </trkpt>
      <trkpt lat="-27.85984" lon="-65.84596">
        <ele>1248.4</ele>
        <time>2018-08-19T22:03:46Z</time>
      </trkpt>
      <trkpt lat="-27.859805" lon="-65.84604">
        <ele>1248.7</ele>
        <time>2018-08-19T22:03:49Z</time>
      </trkpt>
      <trkpt lat="-27.859765" lon="-65.84612">
        <ele>1249.2</ele>
        <time>2018-08-19T22:03:53Z</time>
      </trkpt>
      <trkpt lat="-27.859725" lon="-65.846185">
        <ele>1249.6</ele>
        <time>2018-08-19T22:03:57Z</time>
      </trkpt>
      <trkpt lat="-27.859665" lon="-65.84627">
        <ele>1250.1</ele>
        <time>2018-08-19T22:04:01Z</time>
      </trkpt>
      <trkpt lat="-27.85962" lon="-65.846365">
        <ele>1250.3</ele>
        <time>2018-08-19T22:04:03Z</time>
      </trkpt>
      <trkpt lat="-27.859565" lon="-65.84645">
        <ele>1250.9</ele>
        <time>2018-08-19T22:04:07Z</time>
      </trkpt>
      <trkpt lat="-27.85951" lon="-65.84653">
        <ele>1251.1</ele>
        <time>2018-08-19T22:04:09Z</time>
      </trkpt>
      <trkpt lat="-27.859465" lon="-65.846605">
        <ele>1251.3</ele>
        <time>2018-08-19T22:04:11Z</time>
      </trkpt>
      <trkpt lat="-27.859415" lon="-65.846675">
        <ele>1253.2</ele>
        <time>2018-08-19T22:04:13Z</time>
      </trkpt>
      <trkpt lat="-27.859365" lon="-65.846755">
        <ele>1254.5</ele>
        <time>2018-08-19T22:04:15Z</time>
      </trkpt>
      <trkpt lat="-27.859315" lon="-65.84683">
        <ele>1255.4</ele>
        <time>2018-08-19T22:04:17Z</time>
      </trkpt>
      <trkpt lat="-27.859265" lon="-65.8469">
        <ele>1255.9</ele>
        <time>2018-08-19T22:04:19Z</time>
      </trkpt>
      <trkpt lat="-27.859205" lon="-65.846985">
        <ele>1256.2</ele>
        <time>2018-08-19T22:04:21Z</time>
      </trkpt>
      <trkpt lat="-27.85916" lon="-65.84706">
        <ele>1256.1</ele>
        <time>2018-08-19T22:04:23Z</time>
      </trkpt>
      <trkpt lat="-27.85911" lon="-65.847125">
        <ele>1255.9</ele>
        <time>2018-08-19T22:04:25Z</time>
      </trkpt>
      <trkpt lat="-27.85905" lon="-65.847235">
        <ele>1255.6</ele>
        <time>2018-08-19T22:04:27Z</time>
      </trkpt>
      <trkpt lat="-27.858975" lon="-65.84734">
        <ele>1255.3</ele>
        <time>2018-08-19T22:04:29Z</time>
      </trkpt>
      <trkpt lat="-27.858915" lon="-65.847435">
        <ele>1255.2</ele>
        <time>2018-08-19T22:04:31Z</time>
      </trkpt>
      <trkpt lat="-27.85885" lon="-65.84751666666666">
        <ele>1254.9</ele>
        <time>2018-08-19T22:04:33Z</time>
      </trkpt>
      <trkpt lat="-27.85878" lon="-65.84764">
        <ele>1254.5</ele>
        <time>2018-08-19T22:04:35Z</time>
      </trkpt>
      <trkpt lat="-27.858715" lon="-65.847735">
        <ele>1254.5</ele>
        <time>2018-08-19T22:04:37Z</time>
      </trkpt>
      <trkpt lat="-27.858635" lon="-65.847845">
        <ele>1254.2</ele>
        <time>2018-08-19T22:04:39Z</time>
      </trkpt>
      <trkpt lat="-27.85858" lon="-65.84795">
        <ele>1254.0</ele>
        <time>2018-08-19T22:04:41Z</time>
      </trkpt>
      <trkpt lat="-27.858505" lon="-65.84807">
        <ele>1253.6</ele>
        <time>2018-08-19T22:04:43Z</time>
      </trkpt>
      <trkpt lat="-27.85842" lon="-65.848195">
        <ele>1252.6</ele>
        <time>2018-08-19T22:04:45Z</time>
      </trkpt>
      <trkpt lat="-27.858335" lon="-65.848315">
        <ele>1251.6</ele>
        <time>2018-08-19T22:04:47Z</time>
      </trkpt>
      <trkpt lat="-27.858255" lon="-65.84842">
        <ele>1251.0</ele>
        <time>2018-08-19T22:04:49Z</time>
      </trkpt>
      <trkpt lat="-27.85817" lon="-65.84856">
        <ele>1250.3</ele>
        <time>2018-08-19T22:04:51Z</time>
      </trkpt>
      <trkpt lat="-27.858125" lon="-65.848635">
        <ele>1249.9</ele>
        <time>2018-08-19T22:04:52Z</time>
      </trkpt>
      <trkpt lat="-27.858075" lon="-65.84869">
        <ele>1249.6</ele>
        <time>2018-08-19T22:04:53Z</time>
      </trkpt>
      <trkpt lat="-27.85804" lon="-65.848775">
        <ele>1249.5</ele>
        <time>2018-08-19T22:04:54Z</time>
      </trkpt>
      <trkpt lat="-27.85799" lon="-65.848855">
        <ele>1249.2</ele>
        <time>2018-08-19T22:04:55Z</time>
      </trkpt>
      <trkpt lat="-27.857955" lon="-65.848935">
        <ele>1248.8</ele>
        <time>2018-08-19T22:04:56Z</time>
      </trkpt>
      <trkpt lat="-27.85792" lon="-65.84901">
        <ele>1248.3</ele>
        <time>2018-08-19T22:04:57Z</time>
      </trkpt>
      <trkpt lat="-27.857885" lon="-65.849095">
        <ele>1247.8</ele>
        <time>2018-08-19T22:04:58Z</time>
      </trkpt>
      <trkpt lat="-27.85785" lon="-65.84918">
        <ele>1247.3</ele>
        <time>2018-08-19T22:04:59Z</time>
      </trkpt>
      <trkpt lat="-27.857825" lon="-65.84929">
        <ele>1246.8</ele>
        <time>2018-08-19T22:05:00Z</time>
      </trkpt>
      <trkpt lat="-27.8578" lon="-65.84939">
        <ele>1246.4</ele>
        <time>2018-08-19T22:05:01Z</time>
      </trkpt>
      <trkpt lat="-27.857775" lon="-65.849485">
        <ele>1245.9</ele>
        <time>2018-08-19T22:05:02Z</time>
      </trkpt>
      <trkpt lat="-27.85776" lon="-65.84959">
        <ele>1245.5</ele>
        <time>2018-08-19T22:05:03Z</time>
      </trkpt>
      <trkpt lat="-27.857745" lon="-65.849715">
        <ele>1245.0</ele>
        <time>2018-08-19T22:05:04Z</time>
      </trkpt>
      <trkpt lat="-27.85774" lon="-65.849815">
        <ele>1244.4</ele>
        <time>2018-08-19T22:05:05Z</time>
      </trkpt>
      <trkpt lat="-27.85775" lon="-65.84993">
        <ele>1243.7</ele>
        <time>2018-08-19T22:05:06Z</time>
      </trkpt>
      <trkpt lat="-27.85775" lon="-65.85004">
        <ele>1243.0</ele>
        <time>2018-08-19T22:05:08Z</time>
      </trkpt>
      <trkpt lat="-27.857755" lon="-65.850165">
        <ele>1242.4</ele>
        <time>2018-08-19T22:05:08Z</time>
      </trkpt>
      <trkpt lat="-27.85776" lon="-65.850295">
        <ele>1241.9</ele>
        <time>2018-08-19T22:05:09Z</time>
      </trkpt>
      <trkpt lat="-27.857765" lon="-65.850415">
        <ele>1241.2</ele>
        <time>2018-08-19T22:05:10Z</time>
      </trkpt>
      <trkpt lat="-27.857775" lon="-65.850545">
        <ele>1240.7</ele>
        <time>2018-08-19T22:05:11Z</time>
      </trkpt>
      <trkpt lat="-27.857785" lon="-65.85066">
        <ele>1240.2</ele>
        <time>2018-08-19T22:05:12Z</time>
      </trkpt>
      <trkpt lat="-27.85779" lon="-65.850775">
        <ele>1239.7</ele>
        <time>2018-08-19T22:05:13Z</time>
      </trkpt>
      <trkpt lat="-27.8578" lon="-65.850885">
        <ele>1239.2</ele>
        <time>2018-08-19T22:05:14Z</time>
      </trkpt>
      <trkpt lat="-27.8578" lon="-65.85098">
        <ele>1238.5</ele>
        <time>2018-08-19T22:05:15Z</time>
      </trkpt>
      <trkpt lat="-27.85782" lon="-65.851065">
        <ele>1237.8</ele>
        <time>2018-08-19T22:05:16Z</time>
      </trkpt>
      <trkpt lat="-27.857825" lon="-65.851185">
        <ele>1237.1</ele>
        <time>2018-08-19T22:05:17Z</time>
      </trkpt>
      <trkpt lat="-27.857835" lon="-65.85128">
        <ele>1236.6</ele>
        <time>2018-08-19T22:05:18Z</time>
      </trkpt>
      <trkpt lat="-27.85784" lon="-65.851375">
        <ele>1235.9</ele>
        <time>2018-08-19T22:05:19Z</time>
      </trkpt>
      <trkpt lat="-27.85784" lon="-65.851455">
        <ele>1235.4</ele>
        <time>2018-08-19T22:05:20Z</time>
      </trkpt>
      <trkpt lat="-27.85784" lon="-65.85155">
        <ele>1235.0</ele>
        <time>2018-08-19T22:05:21Z</time>
      </trkpt>
      <trkpt lat="-27.85785" lon="-65.851635">
        <ele>1234.7</ele>
        <time>2018-08-19T22:05:22Z</time>
      </trkpt>
      <trkpt lat="-27.85786" lon="-65.851785">
        <ele>1234.5</ele>
        <time>2018-08-19T22:05:24Z</time>
      </trkpt>
      <trkpt lat="-27.85787" lon="-65.85191">
        <ele>1234.5</ele>
        <time>2018-08-19T22:05:26Z</time>
      </trkpt>
      <trkpt lat="-27.857875" lon="-65.85201">
        <ele>1234.7</ele>
        <time>2018-08-19T22:05:28Z</time>
      </trkpt>
      <trkpt lat="-27.857885" lon="-65.852115">
        <ele>1234.8</ele>
        <time>2018-08-19T22:05:30Z</time>
      </trkpt>
      <trkpt lat="-27.8579" lon="-65.852215">
        <ele>1234.8</ele>
        <time>2018-08-19T22:05:33Z</time>
      </trkpt>
      <trkpt lat="-27.85793" lon="-65.85232">
        <ele>1234.9</ele>
        <time>2018-08-19T22:05:36Z</time>
      </trkpt>
      <trkpt lat="-27.857975" lon="-65.852405">
        <ele>1234.9</ele>
        <time>2018-08-19T22:05:39Z</time>
      </trkpt>
      <trkpt lat="-27.85803" lon="-65.85249">
        <ele>1235.0</ele>
        <time>2018-08-19T22:05:42Z</time>
      </trkpt>
      <trkpt lat="-27.85811" lon="-65.85258">
        <ele>1235.1</ele>
        <time>2018-08-19T22:05:45Z</time>
      </trkpt>
      <trkpt lat="-27.858165" lon="-65.85263">
        <ele>1235.3</ele>
        <time>2018-08-19T22:05:47Z</time>
      </trkpt>
      <trkpt lat="-27.85824" lon="-65.852695">
        <ele>1235.4</ele>
        <time>2018-08-19T22:05:50Z</time>
      </trkpt>
      <trkpt lat="-27.858335" lon="-65.852725">
        <ele>1235.4</ele>
        <time>2018-08-19T22:05:53Z</time>
      </trkpt>
      <trkpt lat="-27.858405" lon="-65.85276">
        <ele>1235.5</ele>
        <time>2018-08-19T22:05:55Z</time>
      </trkpt>
      <trkpt lat="-27.85851" lon="-65.85279">
        <ele>1235.6</ele>
        <time>2018-08-19T22:05:59Z</time>
      </trkpt>
      <trkpt lat="-27.858595" lon="-65.85281">
        <ele>1235.8</ele>
        <time>2018-08-19T22:06:01Z</time>
      </trkpt>
      <trkpt lat="-27.85869" lon="-65.85281">
        <ele>1236.0</ele>
        <time>2018-08-19T22:06:04Z</time>
      </trkpt>
      <trkpt lat="-27.858785" lon="-65.85281">
        <ele>1236.2</ele>
        <time>2018-08-19T22:06:08Z</time>
      </trkpt>
      <trkpt lat="-27.85886" lon="-65.85281">
        <ele>1236.4</ele>
        <time>2018-08-19T22:06:11Z</time>
      </trkpt>
      <trkpt lat="-27.85894" lon="-65.85281">
        <ele>1236.5</ele>
        <time>2018-08-19T22:06:15Z</time>
      </trkpt>
      <trkpt lat="-27.859025" lon="-65.852805">
        <ele>1236.8</ele>
        <time>2018-08-19T22:06:18Z</time>
      </trkpt>
      <trkpt lat="-27.85912" lon="-65.8528">
        <ele>1237.0</ele>
        <time>2018-08-19T22:06:22Z</time>
      </trkpt>
      <trkpt lat="-27.859195" lon="-65.852795">
        <ele>1237.3</ele>
        <time>2018-08-19T22:06:25Z</time>
      </trkpt>
      <trkpt lat="-27.859285" lon="-65.85279">
        <ele>1237.6</ele>
        <time>2018-08-19T22:06:29Z</time>
      </trkpt>
      <trkpt lat="-27.859375" lon="-65.85277">
        <ele>1237.8</ele>
        <time>2018-08-19T22:06:33Z</time>
      </trkpt>
      <trkpt lat="-27.859465" lon="-65.85277">
        <ele>1238.1</ele>
        <time>2018-08-19T22:06:37Z</time>
      </trkpt>
      <trkpt lat="-27.85956" lon="-65.85277">
        <ele>1238.3</ele>
        <time>2018-08-19T22:06:41Z</time>
      </trkpt>
      <trkpt lat="-27.859655" lon="-65.85276">
        <ele>1238.6</ele>
        <time>2018-08-19T22:06:45Z</time>
      </trkpt>
      <trkpt lat="-27.859735" lon="-65.85276">
        <ele>1238.8</ele>
        <time>2018-08-19T22:06:48Z</time>
      </trkpt>
      <trkpt lat="-27.85983" lon="-65.85275">
        <ele>1239.1</ele>
        <time>2018-08-19T22:06:52Z</time>
      </trkpt>
      <trkpt lat="-27.85991" lon="-65.85275">
        <ele>1239.3</ele>
        <time>2018-08-19T22:06:56Z</time>
      </trkpt>
      <trkpt lat="-27.86" lon="-65.852745">
        <ele>1239.5</ele>
        <time>2018-08-19T22:06:58Z</time>
      </trkpt>
      <trkpt lat="-27.86008" lon="-65.85274">
        <ele>1239.7</ele>
        <time>2018-08-19T22:07:01Z</time>
      </trkpt>
      <trkpt lat="-27.86017" lon="-65.852725">
        <ele>1239.9</ele>
        <time>2018-08-19T22:07:05Z</time>
      </trkpt>
      <trkpt lat="-27.860265" lon="-65.852725">
        <ele>1240.1</ele>
        <time>2018-08-19T22:07:09Z</time>
      </trkpt>
      <trkpt lat="-27.86034" lon="-65.852715">
        <ele>1240.3</ele>
        <time>2018-08-19T22:07:12Z</time>
      </trkpt>
      <trkpt lat="-27.860425" lon="-65.85271">
        <ele>1240.4</ele>
        <time>2018-08-19T22:07:15Z</time>
      </trkpt>
      <trkpt lat="-27.86051" lon="-65.852705">
        <ele>1240.5</ele>
        <time>2018-08-19T22:07:18Z</time>
      </trkpt>
      <trkpt lat="-27.86059" lon="-65.852705">
        <ele>1240.7</ele>
        <time>2018-08-19T22:07:21Z</time>
      </trkpt>
      <trkpt lat="-27.860675" lon="-65.852705">
        <ele>1240.7</ele>
        <time>2018-08-19T22:07:24Z</time>
      </trkpt>
      <trkpt lat="-27.860755" lon="-65.852695">
        <ele>1240.8</ele>
        <time>2018-08-19T22:07:28Z</time>
      </trkpt>
      <trkpt lat="-27.86084" lon="-65.85267">
        <ele>1240.8</ele>
        <time>2018-08-19T22:07:30Z</time>
      </trkpt>
      <trkpt lat="-27.86094" lon="-65.85267">
        <ele>1240.9</ele>
        <time>2018-08-19T22:07:33Z</time>
      </trkpt>
      <trkpt lat="-27.86102" lon="-65.85267">
        <ele>1240.9</ele>
        <time>2018-08-19T22:07:36Z</time>
      </trkpt>
      <trkpt lat="-27.8611" lon="-65.85267">
        <ele>1240.9</ele>
        <time>2018-08-19T22:07:39Z</time>
      </trkpt>
      <trkpt lat="-27.861185" lon="-65.85267">
        <ele>1241.0</ele>
        <time>2018-08-19T22:07:42Z</time>
      </trkpt>
      <trkpt lat="-27.86128" lon="-65.85266">
        <ele>1241.1</ele>
        <time>2018-08-19T22:07:45Z</time>
      </trkpt>
      <trkpt lat="-27.861365" lon="-65.85265">
        <ele>1241.1</ele>
        <time>2018-08-19T22:07:48Z</time>
      </trkpt>
      <trkpt lat="-27.861445" lon="-65.85265">
        <ele>1241.1</ele>
        <time>2018-08-19T22:07:50Z</time>
      </trkpt>
      <trkpt lat="-27.86154" lon="-65.85263">
        <ele>1241.1</ele>
        <time>2018-08-19T22:07:53Z</time>
      </trkpt>
      <trkpt lat="-27.861635" lon="-65.85263">
        <ele>1241.2</ele>
        <time>2018-08-19T22:07:56Z</time>
      </trkpt>
      <trkpt lat="-27.86172" lon="-65.85263">
        <ele>1241.2</ele>
        <time>2018-08-19T22:08:00Z</time>
      </trkpt>
      <trkpt lat="-27.86181" lon="-65.85262">
        <ele>1241.1</ele>
        <time>2018-08-19T22:08:03Z</time>
      </trkpt>
      <trkpt lat="-27.861895" lon="-65.85261">
        <ele>1241.1</ele>
        <time>2018-08-19T22:08:06Z</time>
      </trkpt>
      <trkpt lat="-27.86199" lon="-65.85261">
        <ele>1241.1</ele>
        <time>2018-08-19T22:08:09Z</time>
      </trkpt>
      <trkpt lat="-27.862085" lon="-65.85261">
        <ele>1241.1</ele>
        <time>2018-08-19T22:08:12Z</time>
      </trkpt>
      <trkpt lat="-27.86218" lon="-65.852585">
        <ele>1241.2</ele>
        <time>2018-08-19T22:08:15Z</time>
      </trkpt>
      <trkpt lat="-27.86226" lon="-65.852585">
        <ele>1241.2</ele>
        <time>2018-08-19T22:08:18Z</time>
      </trkpt>
      <trkpt lat="-27.86235" lon="-65.852585">
        <ele>1241.3</ele>
        <time>2018-08-19T22:08:21Z</time>
      </trkpt>
      <trkpt lat="-27.862455" lon="-65.852585">
        <ele>1241.3</ele>
        <time>2018-08-19T22:08:24Z</time>
      </trkpt>
      <trkpt lat="-27.862535" lon="-65.852585">
        <ele>1241.3</ele>
        <time>2018-08-19T22:08:27Z</time>
      </trkpt>
      <trkpt lat="-27.862645" lon="-65.85258">
        <ele>1241.4</ele>
        <time>2018-08-19T22:08:30Z</time>
      </trkpt>
      <trkpt lat="-27.86274" lon="-65.852575">
        <ele>1241.4</ele>
        <time>2018-08-19T22:08:33Z</time>
      </trkpt>
      <trkpt lat="-27.862835" lon="-65.85257">
        <ele>1241.4</ele>
        <time>2018-08-19T22:08:36Z</time>
      </trkpt>
      <trkpt lat="-27.86293" lon="-65.852565">
        <ele>1241.4</ele>
        <time>2018-08-19T22:08:39Z</time>
      </trkpt>
      <trkpt lat="-27.86302" lon="-65.852545">
        <ele>1241.5</ele>
        <time>2018-08-19T22:08:43Z</time>
      </trkpt>
      <trkpt lat="-27.863105" lon="-65.852545">
        <ele>1241.6</ele>
        <time>2018-08-19T22:08:45Z</time>
      </trkpt>
      <trkpt lat="-27.86319" lon="-65.852545">
        <ele>1241.6</ele>
        <time>2018-08-19T22:08:48Z</time>
      </trkpt>
      <trkpt lat="-27.86328" lon="-65.852535">
        <ele>1241.7</ele>
        <time>2018-08-19T22:08:51Z</time>
      </trkpt>
      <trkpt lat="-27.863365" lon="-65.852535">
        <ele>1241.9</ele>
        <time>2018-08-19T22:08:54Z</time>
      </trkpt>
      <trkpt lat="-27.86345" lon="-65.852525">
        <ele>1242.0</ele>
        <time>2018-08-19T22:08:57Z</time>
      </trkpt>
      <trkpt lat="-27.86354" lon="-65.852525">
        <ele>1242.1</ele>
        <time>2018-08-19T22:09:00Z</time>
      </trkpt>
      <trkpt lat="-27.863625" lon="-65.852515">
        <ele>1242.2</ele>
        <time>2018-08-19T22:09:03Z</time>
      </trkpt>
      <trkpt lat="-27.86371" lon="-65.852515">
        <ele>1242.3</ele>
        <time>2018-08-19T22:09:06Z</time>
      </trkpt>
      <trkpt lat="-27.863795" lon="-65.8525">
        <ele>1242.4</ele>
        <time>2018-08-19T22:09:10Z</time>
      </trkpt>
      <trkpt lat="-27.863885" lon="-65.8525">
        <ele>1242.5</ele>
        <time>2018-08-19T22:09:12Z</time>
      </trkpt>
      <trkpt lat="-27.863975" lon="-65.8525">
        <ele>1242.6</ele>
        <time>2018-08-19T22:09:15Z</time>
      </trkpt>
      <trkpt lat="-27.864065" lon="-65.85249">
        <ele>1242.7</ele>
        <time>2018-08-19T22:09:18Z</time>
      </trkpt>
      <trkpt lat="-27.86414" lon="-65.852485">
        <ele>1242.9</ele>
        <time>2018-08-19T22:09:21Z</time>
      </trkpt>
      <trkpt lat="-27.86421" lon="-65.85248">
        <ele>1242.9</ele>
        <time>2018-08-19T22:09:24Z</time>
      </trkpt>
      <trkpt lat="-27.86429" lon="-65.852485">
        <ele>1243.1</ele>
        <time>2018-08-19T22:09:27Z</time>
      </trkpt>
      <trkpt lat="-27.86438" lon="-65.85248">
        <ele>1243.2</ele>
        <time>2018-08-19T22:09:30Z</time>
      </trkpt>
      <trkpt lat="-27.864465" lon="-65.85247">
        <ele>1243.3</ele>
        <time>2018-08-19T22:09:34Z</time>
      </trkpt>
      <trkpt lat="-27.864555" lon="-65.85244333333333">
        <ele>1243.5</ele>
        <time>2018-08-19T22:09:38Z</time>
      </trkpt>
      <trkpt lat="-27.864625" lon="-65.85244166666666">
        <ele>1243.6</ele>
        <time>2018-08-19T22:09:41Z</time>
      </trkpt>
      <trkpt lat="-27.86471" lon="-65.85244">
        <ele>1243.7</ele>
        <time>2018-08-19T22:09:44Z</time>
      </trkpt>
      <trkpt lat="-27.86478" lon="-65.85244">
        <ele>1243.9</ele>
        <time>2018-08-19T22:09:47Z</time>
      </trkpt>
      <trkpt lat="-27.86487" lon="-65.85244">
        <ele>1244.0</ele>
        <time>2018-08-19T22:09:51Z</time>
      </trkpt>
      <trkpt lat="-27.86496" lon="-65.85244">
        <ele>1244.1</ele>
        <time>2018-08-19T22:09:55Z</time>
      </trkpt>
      <trkpt lat="-27.86505" lon="-65.85244">
        <ele>1244.3</ele>
        <time>2018-08-19T22:09:59Z</time>
      </trkpt>
      <trkpt lat="-27.865115" lon="-65.85247">
        <ele>1244.6</ele>
        <time>2018-08-19T22:10:06Z</time>
      </trkpt>
      <trkpt lat="-27.865115" lon="-65.85247">
        <ele>1244.6</ele>
        <time>2018-08-19T22:10:10Z</time>
      </trkpt>
      <trkpt lat="-27.86515" lon="-65.85244166666666">
        <ele>1245.0</ele>
        <time>2018-08-19T22:10:30Z</time>
      </trkpt>
      <trkpt lat="-27.86515" lon="-65.85244166666666">
        <ele>1245.0</ele>
        <time>2018-08-19T22:10:31Z</time>
      </trkpt>
      <trkpt lat="-27.865125" lon="-65.85247">
        <ele>1244.8</ele>
        <time>2018-08-19T22:10:43Z</time>
      </trkpt>
      <trkpt lat="-27.865125" lon="-65.85247">
        <ele>1244.8</ele>
        <time>2018-08-19T22:10:44Z</time>
      </trkpt>
      <trkpt lat="-27.865115" lon="-65.85247">
        <ele>1244.7</ele>
        <time>2018-08-19T22:10:55Z</time>
      </trkpt>
      <trkpt lat="-27.865115" lon="-65.85247">
        <ele>1244.7</ele>
        <time>2018-08-19T22:10:55Z</time>
      </trkpt>
      <trkpt lat="-27.865115" lon="-65.85244">
        <ele>1244.5</ele>
        <time>2018-08-19T22:11:06Z</time>
      </trkpt>
      <trkpt lat="-27.865125" lon="-65.85244166666666">
        <ele>1244.5</ele>
        <time>2018-08-19T22:11:07Z</time>
      </trkpt>
      <trkpt lat="-27.865125" lon="-65.85244666666667">
        <ele>1245.0</ele>
        <time>2018-08-19T22:11:17Z</time>
      </trkpt>
      <trkpt lat="-27.865135" lon="-65.85244333333333">
        <ele>1245.0</ele>
        <time>2018-08-19T22:11:18Z</time>
      </trkpt>
      <trkpt lat="-27.865125" lon="-65.85244666666667">
        <ele>1245.5</ele>
        <time>2018-08-19T22:11:38Z</time>
      </trkpt>
      <trkpt lat="-27.865125" lon="-65.85244666666667">
        <ele>1245.5</ele>
        <time>2018-08-19T22:11:39Z</time>
      </trkpt>
      <trkpt lat="-27.865125" lon="-65.85244">
        <ele>1245.3</ele>
        <time>2018-08-19T22:11:48Z</time>
      </trkpt>
      <trkpt lat="-27.865115" lon="-65.85244">
        <ele>1245.3</ele>
        <time>2018-08-19T22:11:48Z</time>
      </trkpt>
      <trkpt lat="-27.865115" lon="-65.85247">
        <ele>1245.2</ele>
        <time>2018-08-19T22:11:57Z</time>
      </trkpt>
      <trkpt lat="-27.865115" lon="-65.85247">
        <ele>1245.2</ele>
        <time>2018-08-19T22:11:57Z</time>
      </trkpt>
      <trkpt lat="-27.865215" lon="-65.85244333333333">
        <ele>1244.9</ele>
        <time>2018-08-19T22:12:09Z</time>
      </trkpt>
      <trkpt lat="-27.865305" lon="-65.85244333333333">
        <ele>1244.8</ele>
        <time>2018-08-19T22:12:12Z</time>
      </trkpt>
      <trkpt lat="-27.865380000000002" lon="-65.85244166666666">
        <ele>1244.9</ele>
        <time>2018-08-19T22:12:13Z</time>
      </trkpt>
      <trkpt lat="-27.86547" lon="-65.85244">
        <ele>1245.1</ele>
        <time>2018-08-19T22:12:17Z</time>
      </trkpt>
      <trkpt lat="-27.86556" lon="-65.85244">
        <ele>1245.3</ele>
        <time>2018-08-19T22:12:20Z</time>
      </trkpt>
      <trkpt lat="-27.86566" lon="-65.85244">
        <ele>1245.3</ele>
        <time>2018-08-19T22:12:23Z</time>
      </trkpt>
      <trkpt lat="-27.865765" lon="-65.85244">
        <ele>1245.3</ele>
        <time>2018-08-19T22:12:25Z</time>
      </trkpt>
      <trkpt lat="-27.865865" lon="-65.85244">
        <ele>1245.4</ele>
        <time>2018-08-19T22:12:28Z</time>
      </trkpt>
      <trkpt lat="-27.865955" lon="-65.85244">
        <ele>1245.5</ele>
        <time>2018-08-19T22:12:31Z</time>
      </trkpt>
      <trkpt lat="-27.866055" lon="-65.85244">
        <ele>1245.7</ele>
        <time>2018-08-19T22:12:34Z</time>
      </trkpt>
      <trkpt lat="-27.866145" lon="-65.85244">
        <ele>1245.8</ele>
        <time>2018-08-19T22:12:37Z</time>
      </trkpt>
      <trkpt lat="-27.86624" lon="-65.85244">
        <ele>1246.0</ele>
        <time>2018-08-19T22:12:40Z</time>
      </trkpt>
      <trkpt lat="-27.866335" lon="-65.85244">
        <ele>1246.1</ele>
        <time>2018-08-19T22:12:43Z</time>
      </trkpt>
      <trkpt lat="-27.866425" lon="-65.85244">
        <ele>1246.2</ele>
        <time>2018-08-19T22:12:46Z</time>
      </trkpt>
      <trkpt lat="-27.866525" lon="-65.85244">
        <ele>1246.4</ele>
        <time>2018-08-19T22:12:49Z</time>
      </trkpt>
      <trkpt lat="-27.86662" lon="-65.85244">
        <ele>1246.5</ele>
        <time>2018-08-19T22:12:52Z</time>
      </trkpt>
      <trkpt lat="-27.866705" lon="-65.85244">
        <ele>1246.6</ele>
        <time>2018-08-19T22:12:55Z</time>
      </trkpt>
      <trkpt lat="-27.866805" lon="-65.85244">
        <ele>1246.8</ele>
        <time>2018-08-19T22:12:59Z</time>
      </trkpt>
      <trkpt lat="-27.866895" lon="-65.85244">
        <ele>1246.9</ele>
        <time>2018-08-19T22:13:01Z</time>
      </trkpt>
      <trkpt lat="-27.866985" lon="-65.85244">
        <ele>1247.0</ele>
        <time>2018-08-19T22:13:04Z</time>
      </trkpt>
      <trkpt lat="-27.867075" lon="-65.852435">
        <ele>1247.2</ele>
        <time>2018-08-19T22:13:07Z</time>
      </trkpt>
      <trkpt lat="-27.867165" lon="-65.852435">
        <ele>1247.3</ele>
        <time>2018-08-19T22:13:10Z</time>
      </trkpt>
      <trkpt lat="-27.86726" lon="-65.852435">
        <ele>1247.4</ele>
        <time>2018-08-19T22:13:13Z</time>
      </trkpt>
      <trkpt lat="-27.867345" lon="-65.852435">
        <ele>1247.6</ele>
        <time>2018-08-19T22:13:16Z</time>
      </trkpt>
      <trkpt lat="-27.867435" lon="-65.852435">
        <ele>1247.7</ele>
        <time>2018-08-19T22:13:19Z</time>
      </trkpt>
      <trkpt lat="-27.86753" lon="-65.852435">
        <ele>1247.8</ele>
        <time>2018-08-19T22:13:23Z</time>
      </trkpt>
      <trkpt lat="-27.86763" lon="-65.852435">
        <ele>1248.0</ele>
        <time>2018-08-19T22:13:26Z</time>
      </trkpt>
      <trkpt lat="-27.86772" lon="-65.852435">
        <ele>1248.1</ele>
        <time>2018-08-19T22:13:28Z</time>
      </trkpt>
      <trkpt lat="-27.867805" lon="-65.85243">
        <ele>1248.3</ele>
        <time>2018-08-19T22:13:31Z</time>
      </trkpt>
      <trkpt lat="-27.8679" lon="-65.85243">
        <ele>1248.4</ele>
        <time>2018-08-19T22:13:34Z</time>
      </trkpt>
      <trkpt lat="-27.867985" lon="-65.85244">
        <ele>1248.6</ele>
        <time>2018-08-19T22:13:37Z</time>
      </trkpt>
      <trkpt lat="-27.868065" lon="-65.85244">
        <ele>1248.7</ele>
        <time>2018-08-19T22:13:40Z</time>
      </trkpt>
      <trkpt lat="-27.86815" lon="-65.85244">
        <ele>1248.9</ele>
        <time>2018-08-19T22:13:43Z</time>
      </trkpt>
      <trkpt lat="-27.868245" lon="-65.85244">
        <ele>1249.0</ele>
        <time>2018-08-19T22:13:46Z</time>
      </trkpt>
      <trkpt lat="-27.86833" lon="-65.85244">
        <ele>1249.2</ele>
        <time>2018-08-19T22:13:49Z</time>
      </trkpt>
      <trkpt lat="-27.86842" lon="-65.85247">
        <ele>1249.3</ele>
        <time>2018-08-19T22:13:52Z</time>
      </trkpt>
      <trkpt lat="-27.868505" lon="-65.85249">
        <ele>1249.4</ele>
        <time>2018-08-19T22:13:55Z</time>
      </trkpt>
      <trkpt lat="-27.868585" lon="-65.852515">
        <ele>1249.6</ele>
        <time>2018-08-19T22:13:58Z</time>
      </trkpt>
      <trkpt lat="-27.86867" lon="-65.852545">
        <ele>1249.8</ele>
        <time>2018-08-19T22:14:01Z</time>
      </trkpt>
      <trkpt lat="-27.868755" lon="-65.852575">
        <ele>1250.0</ele>
        <time>2018-08-19T22:14:05Z</time>
      </trkpt>
      <trkpt lat="-27.868825" lon="-65.85261">
        <ele>1250.2</ele>
        <time>2018-08-19T22:14:07Z</time>
      </trkpt>
      <trkpt lat="-27.86891" lon="-65.852655">
        <ele>1250.4</ele>
        <time>2018-08-19T22:14:11Z</time>
      </trkpt>
      <trkpt lat="-27.868994999999998" lon="-65.852695">
        <ele>1250.7</ele>
        <time>2018-08-19T22:14:13Z</time>
      </trkpt>
      <trkpt lat="-27.869065" lon="-65.852745">
        <ele>1250.9</ele>
        <time>2018-08-19T22:14:16Z</time>
      </trkpt>
      <trkpt lat="-27.86913" lon="-65.85279">
        <ele>1251.0</ele>
        <time>2018-08-19T22:14:19Z</time>
      </trkpt>
      <trkpt lat="-27.8692" lon="-65.85281">
        <ele>1251.2</ele>
        <time>2018-08-19T22:14:22Z</time>
      </trkpt>
      <trkpt lat="-27.86927" lon="-65.852875">
        <ele>1251.4</ele>
        <time>2018-08-19T22:14:25Z</time>
      </trkpt>
      <trkpt lat="-27.869345" lon="-65.85292">
        <ele>1251.6</ele>
        <time>2018-08-19T22:14:28Z</time>
      </trkpt>
      <trkpt lat="-27.86941" lon="-65.85297">
        <ele>1251.8</ele>
        <time>2018-08-19T22:14:31Z</time>
      </trkpt>
      <trkpt lat="-27.86948" lon="-65.853015">
        <ele>1252.0</ele>
        <time>2018-08-19T22:14:35Z</time>
      </trkpt>
      <trkpt lat="-27.869545" lon="-65.85306">
        <ele>1252.3</ele>
        <time>2018-08-19T22:14:38Z</time>
      </trkpt>
      <trkpt lat="-27.86962" lon="-65.85311">
        <ele>1252.5</ele>
        <time>2018-08-19T22:14:40Z</time>
      </trkpt>
      <trkpt lat="-27.86969" lon="-65.853145">
        <ele>1252.8</ele>
        <time>2018-08-19T22:14:44Z</time>
      </trkpt>
      <trkpt lat="-27.86976" lon="-65.85319">
        <ele>1253.0</ele>
        <time>2018-08-19T22:14:47Z</time>
      </trkpt>
      <trkpt lat="-27.86985" lon="-65.85323">
        <ele>1253.2</ele>
        <time>2018-08-19T22:14:51Z</time>
      </trkpt>
      <trkpt lat="-27.86993" lon="-65.85326">
        <ele>1253.4</ele>
        <time>2018-08-19T22:14:53Z</time>
      </trkpt>
      <trkpt lat="-27.87" lon="-65.853305">
        <ele>1253.6</ele>
        <time>2018-08-19T22:14:56Z</time>
      </trkpt>
      <trkpt lat="-27.870075" lon="-65.85333">
        <ele>1253.8</ele>
        <time>2018-08-19T22:14:59Z</time>
      </trkpt>
      <trkpt lat="-27.870155" lon="-65.853345">
        <ele>1253.9</ele>
        <time>2018-08-19T22:15:02Z</time>
      </trkpt>
      <trkpt lat="-27.87025" lon="-65.85337">
        <ele>1254.0</ele>
        <time>2018-08-19T22:15:05Z</time>
      </trkpt>
      <trkpt lat="-27.870355" lon="-65.85339">
        <ele>1254.1</ele>
        <time>2018-08-19T22:15:08Z</time>
      </trkpt>
      <trkpt lat="-27.87043" lon="-65.85339">
        <ele>1254.7</ele>
        <time>2018-08-19T22:15:11Z</time>
      </trkpt>
      <trkpt lat="-27.8705" lon="-65.853415">
        <ele>1255.0</ele>
        <time>2018-08-19T22:15:13Z</time>
      </trkpt>
      <trkpt lat="-27.87058" lon="-65.853425">
        <ele>1255.0</ele>
        <time>2018-08-19T22:15:14Z</time>
      </trkpt>
      <trkpt lat="-27.870675" lon="-65.853425">
        <ele>1255.1</ele>
        <time>2018-08-19T22:15:17Z</time>
      </trkpt>
      <trkpt lat="-27.870775" lon="-65.853465">
        <ele>1255.1</ele>
        <time>2018-08-19T22:15:20Z</time>
      </trkpt>
      <trkpt lat="-27.87087" lon="-65.853485">
        <ele>1255.2</ele>
        <time>2018-08-19T22:15:23Z</time>
      </trkpt>
      <trkpt lat="-27.87098" lon="-65.8535">
        <ele>1255.2</ele>
        <time>2018-08-19T22:15:26Z</time>
      </trkpt>
      <trkpt lat="-27.871085" lon="-65.85352">
        <ele>1255.3</ele>
        <time>2018-08-19T22:15:29Z</time>
      </trkpt>
      <trkpt lat="-27.871175" lon="-65.85353">
        <ele>1255.3</ele>
        <time>2018-08-19T22:15:32Z</time>
      </trkpt>
      <trkpt lat="-27.87129" lon="-65.85355">
        <ele>1255.4</ele>
        <time>2018-08-19T22:15:36Z</time>
      </trkpt>
      <trkpt lat="-27.871375" lon="-65.853565">
        <ele>1255.6</ele>
        <time>2018-08-19T22:15:38Z</time>
      </trkpt>
      <trkpt lat="-27.87147" lon="-65.85357">
        <ele>1255.6</ele>
        <time>2018-08-19T22:15:41Z</time>
      </trkpt>
      <trkpt lat="-27.871555" lon="-65.853595">
        <ele>1255.8</ele>
        <time>2018-08-19T22:15:45Z</time>
      </trkpt>
      <trkpt lat="-27.87165" lon="-65.853615">
        <ele>1255.9</ele>
        <time>2018-08-19T22:15:47Z</time>
      </trkpt>
      <trkpt lat="-27.871745" lon="-65.853615">
        <ele>1256.0</ele>
        <time>2018-08-19T22:15:50Z</time>
      </trkpt>
      <trkpt lat="-27.871845" lon="-65.85364">
        <ele>1256.2</ele>
        <time>2018-08-19T22:15:53Z</time>
      </trkpt>
      <trkpt lat="-27.871935" lon="-65.853655">
        <ele>1256.3</ele>
        <time>2018-08-19T22:15:57Z</time>
      </trkpt>
      <trkpt lat="-27.87202" lon="-65.853655">
        <ele>1256.4</ele>
        <time>2018-08-19T22:15:59Z</time>
      </trkpt>
      <trkpt lat="-27.87211" lon="-65.85368">
        <ele>1256.6</ele>
        <time>2018-08-19T22:16:03Z</time>
      </trkpt>
      <trkpt lat="-27.87219" lon="-65.85369">
        <ele>1256.7</ele>
        <time>2018-08-19T22:16:06Z</time>
      </trkpt>
      <trkpt lat="-27.87227" lon="-65.8537">
        <ele>1256.8</ele>
        <time>2018-08-19T22:16:08Z</time>
      </trkpt>
      <trkpt lat="-27.872345" lon="-65.85371">
        <ele>1256.9</ele>
        <time>2018-08-19T22:16:11Z</time>
      </trkpt>
      <trkpt lat="-27.872419999999998" lon="-65.85373">
        <ele>1257.0</ele>
        <time>2018-08-19T22:16:14Z</time>
      </trkpt>
      <trkpt lat="-27.8725" lon="-65.853745">
        <ele>1257.2</ele>
        <time>2018-08-19T22:16:18Z</time>
      </trkpt>
      <trkpt lat="-27.872575" lon="-65.853755">
        <ele>1257.3</ele>
        <time>2018-08-19T22:16:21Z</time>
      </trkpt>
      <trkpt lat="-27.87266" lon="-65.85378">
        <ele>1257.4</ele>
        <time>2018-08-19T22:16:23Z</time>
      </trkpt>
      <trkpt lat="-27.87274" lon="-65.853795">
        <ele>1257.6</ele>
        <time>2018-08-19T22:16:27Z</time>
      </trkpt>
      <trkpt lat="-27.872805" lon="-65.85383">
        <ele>1257.7</ele>
        <time>2018-08-19T22:16:30Z</time>
      </trkpt>
      <trkpt lat="-27.87288" lon="-65.85386">
        <ele>1257.8</ele>
        <time>2018-08-19T22:16:32Z</time>
      </trkpt>
      <trkpt lat="-27.872955" lon="-65.85388">
        <ele>1258.0</ele>
        <time>2018-08-19T22:16:36Z</time>
      </trkpt>
      <trkpt lat="-27.87304" lon="-65.853935">
        <ele>1258.0</ele>
        <time>2018-08-19T22:16:40Z</time>
      </trkpt>
      <trkpt lat="-27.87311" lon="-65.85397">
        <ele>1258.0</ele>
        <time>2018-08-19T22:16:43Z</time>
      </trkpt>
      <trkpt lat="-27.873185" lon="-65.854005">
        <ele>1258.1</ele>
        <time>2018-08-19T22:16:46Z</time>
      </trkpt>
      <trkpt lat="-27.87325" lon="-65.85402">
        <ele>1258.2</ele>
        <time>2018-08-19T22:16:50Z</time>
      </trkpt>
      <trkpt lat="-27.87332" lon="-65.854065">
        <ele>1258.3</ele>
        <time>2018-08-19T22:16:52Z</time>
      </trkpt>
      <trkpt lat="-27.873385" lon="-65.854105">
        <ele>1258.4</ele>
        <time>2018-08-19T22:16:55Z</time>
      </trkpt>
      <trkpt lat="-27.873465" lon="-65.854145">
        <ele>1258.5</ele>
        <time>2018-08-19T22:16:58Z</time>
      </trkpt>
      <trkpt lat="-27.873535" lon="-65.854175">
        <ele>1258.7</ele>
        <time>2018-08-19T22:17:01Z</time>
      </trkpt>
      <trkpt lat="-27.8736" lon="-65.85418833333334">
        <ele>1258.9</ele>
        <time>2018-08-19T22:17:04Z</time>
      </trkpt>
      <trkpt lat="-27.87367" lon="-65.854245">
        <ele>1259.0</ele>
        <time>2018-08-19T22:17:08Z</time>
      </trkpt>
      <trkpt lat="-27.87375" lon="-65.85428">
        <ele>1259.2</ele>
        <time>2018-08-19T22:17:12Z</time>
      </trkpt>
      <trkpt lat="-27.87383" lon="-65.854315">
        <ele>1259.4</ele>
        <time>2018-08-19T22:17:15Z</time>
      </trkpt>
      <trkpt lat="-27.873905" lon="-65.854355">
        <ele>1259.5</ele>
        <time>2018-08-19T22:17:20Z</time>
      </trkpt>
      <trkpt lat="-27.87397" lon="-65.854375">
        <ele>1259.7</ele>
        <time>2018-08-19T22:17:23Z</time>
      </trkpt>
      <trkpt lat="-27.87404" lon="-65.85441">
        <ele>1259.9</ele>
        <time>2018-08-19T22:17:28Z</time>
      </trkpt>
      <trkpt lat="-27.87411" lon="-65.854455">
        <ele>1260.0</ele>
        <time>2018-08-19T22:17:32Z</time>
      </trkpt>
      <trkpt lat="-27.87418" lon="-65.854495">
        <ele>1260.3</ele>
        <time>2018-08-19T22:17:36Z</time>
      </trkpt>
      <trkpt lat="-27.87425" lon="-65.854515">
        <ele>1260.4</ele>
        <time>2018-08-19T22:17:39Z</time>
      </trkpt>
      <trkpt lat="-27.874335" lon="-65.854555">
        <ele>1260.6</ele>
        <time>2018-08-19T22:17:44Z</time>
      </trkpt>
      <trkpt lat="-27.874405" lon="-65.8546">
        <ele>1260.7</ele>
        <time>2018-08-19T22:17:48Z</time>
      </trkpt>
      <trkpt lat="-27.874475" lon="-65.85464">
        <ele>1260.8</ele>
        <time>2018-08-19T22:17:51Z</time>
      </trkpt>
      <trkpt lat="-27.874545" lon="-65.85468">
        <ele>1260.9</ele>
        <time>2018-08-19T22:17:54Z</time>
      </trkpt>
      <trkpt lat="-27.874615" lon="-65.85472">
        <ele>1261.0</ele>
        <time>2018-08-19T22:17:58Z</time>
      </trkpt>
      <trkpt lat="-27.87468" lon="-65.85474">
        <ele>1261.1</ele>
        <time>2018-08-19T22:18:00Z</time>
      </trkpt>
      <trkpt lat="-27.87476" lon="-65.85478">
        <ele>1261.3</ele>
        <time>2018-08-19T22:18:05Z</time>
      </trkpt>
      <trkpt lat="-27.87485" lon="-65.854825">
        <ele>1261.5</ele>
        <time>2018-08-19T22:18:09Z</time>
      </trkpt>
      <trkpt lat="-27.874915" lon="-65.854865">
        <ele>1261.7</ele>
        <time>2018-08-19T22:18:12Z</time>
      </trkpt>
      <trkpt lat="-27.875" lon="-65.85491">
        <ele>1261.9</ele>
        <time>2018-08-19T22:18:16Z</time>
      </trkpt>
      <trkpt lat="-27.87507" lon="-65.854945">
        <ele>1262.2</ele>
        <time>2018-08-19T22:18:20Z</time>
      </trkpt>
      <trkpt lat="-27.875145" lon="-65.85495833333333">
        <ele>1262.4</ele>
        <time>2018-08-19T22:18:24Z</time>
      </trkpt>
      <trkpt lat="-27.87522" lon="-65.855005">
        <ele>1262.6</ele>
        <time>2018-08-19T22:18:28Z</time>
      </trkpt>
      <trkpt lat="-27.87529" lon="-65.85505">
        <ele>1262.9</ele>
        <time>2018-08-19T22:18:32Z</time>
      </trkpt>
      <trkpt lat="-27.875355" lon="-65.855085">
        <ele>1263.1</ele>
        <time>2018-08-19T22:18:36Z</time>
      </trkpt>
      <trkpt lat="-27.875425" lon="-65.855125">
        <ele>1263.4</ele>
        <time>2018-08-19T22:18:39Z</time>
      </trkpt>
      <trkpt lat="-27.875505" lon="-65.855155">
        <ele>1263.7</ele>
        <time>2018-08-19T22:18:44Z</time>
      </trkpt>
      <trkpt lat="-27.87557" lon="-65.85517">
        <ele>1264.1</ele>
        <time>2018-08-19T22:18:48Z</time>
      </trkpt>
      <trkpt lat="-27.87564" lon="-65.85522">
        <ele>1264.5</ele>
        <time>2018-08-19T22:18:52Z</time>
      </trkpt>
      <trkpt lat="-27.875715" lon="-65.855255">
        <ele>1264.9</ele>
        <time>2018-08-19T22:18:57Z</time>
      </trkpt>
      <trkpt lat="-27.875785" lon="-65.855295">
        <ele>1265.2</ele>
        <time>2018-08-19T22:19:02Z</time>
      </trkpt>
      <trkpt lat="-27.875865" lon="-65.855315">
        <ele>1265.6</ele>
        <time>2018-08-19T22:19:07Z</time>
      </trkpt>
      <trkpt lat="-27.875935" lon="-65.85536">
        <ele>1266.0</ele>
        <time>2018-08-19T22:19:12Z</time>
      </trkpt>
      <trkpt lat="-27.87601" lon="-65.855395">
        <ele>1266.4</ele>
        <time>2018-08-19T22:19:17Z</time>
      </trkpt>
      <trkpt lat="-27.876085" lon="-65.855445">
        <ele>1266.9</ele>
        <time>2018-08-19T22:19:23Z</time>
      </trkpt>
      <trkpt lat="-27.87616" lon="-65.85549">
        <ele>1267.5</ele>
        <time>2018-08-19T22:19:28Z</time>
      </trkpt>
      <trkpt lat="-27.87623" lon="-65.85552">
        <ele>1268.0</ele>
        <time>2018-08-19T22:19:33Z</time>
      </trkpt>
      <trkpt lat="-27.87629" lon="-65.85554">
        <ele>1268.3</ele>
        <time>2018-08-19T22:19:37Z</time>
      </trkpt>
      <trkpt lat="-27.876375" lon="-65.855585">
        <ele>1268.7</ele>
        <time>2018-08-19T22:19:42Z</time>
      </trkpt>
      <trkpt lat="-27.876455" lon="-65.855625">
        <ele>1269.1</ele>
        <time>2018-08-19T22:19:47Z</time>
      </trkpt>
      <trkpt lat="-27.876535" lon="-65.85567">
        <ele>1269.5</ele>
        <time>2018-08-19T22:19:52Z</time>
      </trkpt>
      <trkpt lat="-27.8766" lon="-65.855705">
        <ele>1269.9</ele>
        <time>2018-08-19T22:19:55Z</time>
      </trkpt>
      <trkpt lat="-27.87667" lon="-65.855725">
        <ele>1270.2</ele>
        <time>2018-08-19T22:20:00Z</time>
      </trkpt>
      <trkpt lat="-27.87674" lon="-65.855765">
        <ele>1270.5</ele>
        <time>2018-08-19T22:20:04Z</time>
      </trkpt>
      <trkpt lat="-27.87681" lon="-65.855805">
        <ele>1270.8</ele>
        <time>2018-08-19T22:20:08Z</time>
      </trkpt>
      <trkpt lat="-27.87689" lon="-65.85584">
        <ele>1271.1</ele>
        <time>2018-08-19T22:20:13Z</time>
      </trkpt>
      <trkpt lat="-27.876965" lon="-65.855885">
        <ele>1271.4</ele>
        <time>2018-08-19T22:20:18Z</time>
      </trkpt>
      <trkpt lat="-27.877045" lon="-65.855925">
        <ele>1271.6</ele>
        <time>2018-08-19T22:20:23Z</time>
      </trkpt>
      <trkpt lat="-27.877110000000002" lon="-65.85595">
        <ele>1271.9</ele>
        <time>2018-08-19T22:20:27Z</time>
      </trkpt>
      <trkpt lat="-27.87717" lon="-65.85599">
        <ele>1272.3</ele>
        <time>2018-08-19T22:20:31Z</time>
      </trkpt>
      <trkpt lat="-27.87724" lon="-65.85606">
        <ele>1272.8</ele>
        <time>2018-08-19T22:20:36Z</time>
      </trkpt>
      <trkpt lat="-27.877315" lon="-65.85612">
        <ele>1273.3</ele>
        <time>2018-08-19T22:20:41Z</time>
      </trkpt>
      <trkpt lat="-27.87738" lon="-65.856185">
        <ele>1273.7</ele>
        <time>2018-08-19T22:20:46Z</time>
      </trkpt>
      <trkpt lat="-27.87744" lon="-65.85625">
        <ele>1274.0</ele>
        <time>2018-08-19T22:20:50Z</time>
      </trkpt>
      <trkpt lat="-27.877505" lon="-65.8563">
        <ele>1274.2</ele>
        <time>2018-08-19T22:20:54Z</time>
      </trkpt>
      <trkpt lat="-27.87756" lon="-65.856365">
        <ele>1274.6</ele>
        <time>2018-08-19T22:20:58Z</time>
      </trkpt>
      <trkpt lat="-27.87762" lon="-65.85644">
        <ele>1275.0</ele>
        <time>2018-08-19T22:21:03Z</time>
      </trkpt>
      <trkpt lat="-27.877665" lon="-65.856505">
        <ele>1275.4</ele>
        <time>2018-08-19T22:21:07Z</time>
      </trkpt>
      <trkpt lat="-27.87772" lon="-65.85657">
        <ele>1275.8</ele>
        <time>2018-08-19T22:21:11Z</time>
      </trkpt>
      <trkpt lat="-27.87777" lon="-65.856635">
        <ele>1276.3</ele>
        <time>2018-08-19T22:21:15Z</time>
      </trkpt>
      <trkpt lat="-27.87782" lon="-65.85671">
        <ele>1276.7</ele>
        <time>2018-08-19T22:21:19Z</time>
      </trkpt>
      <trkpt lat="-27.877865" lon="-65.856785">
        <ele>1276.9</ele>
        <time>2018-08-19T22:21:23Z</time>
      </trkpt>
      <trkpt lat="-27.87792" lon="-65.85687">
        <ele>1277.2</ele>
        <time>2018-08-19T22:21:27Z</time>
      </trkpt>
      <trkpt lat="-27.877965" lon="-65.856955">
        <ele>1277.5</ele>
        <time>2018-08-19T22:21:31Z</time>
      </trkpt>
      <trkpt lat="-27.87801" lon="-65.85702">
        <ele>1277.7</ele>
        <time>2018-08-19T22:21:34Z</time>
      </trkpt>
      <trkpt lat="-27.87805" lon="-65.8571">
        <ele>1278.1</ele>
        <time>2018-08-19T22:21:37Z</time>
      </trkpt>
      <trkpt lat="-27.878085" lon="-65.85717">
        <ele>1278.5</ele>
        <time>2018-08-19T22:21:40Z</time>
      </trkpt>
      <trkpt lat="-27.878135" lon="-65.857265">
        <ele>1279.0</ele>
        <time>2018-08-19T22:21:44Z</time>
      </trkpt>
      <trkpt lat="-27.87818" lon="-65.85733">
        <ele>1279.4</ele>
        <time>2018-08-19T22:21:48Z</time>
      </trkpt>
      <trkpt lat="-27.878225" lon="-65.857425">
        <ele>1279.6</ele>
        <time>2018-08-19T22:21:52Z</time>
      </trkpt>
      <trkpt lat="-27.87826" lon="-65.85751">
        <ele>1279.6</ele>
        <time>2018-08-19T22:21:56Z</time>
      </trkpt>
      <trkpt lat="-27.8783" lon="-65.85758">
        <ele>1279.5</ele>
        <time>2018-08-19T22:21:59Z</time>
      </trkpt>
      <trkpt lat="-27.878355" lon="-65.857675">
        <ele>1279.4</ele>
        <time>2018-08-19T22:22:02Z</time>
      </trkpt>
      <trkpt lat="-27.878395" lon="-65.857735">
        <ele>1279.3</ele>
        <time>2018-08-19T22:22:04Z</time>
      </trkpt>
      <trkpt lat="-27.87845" lon="-65.857855">
        <ele>1278.6</ele>
        <time>2018-08-19T22:22:07Z</time>
      </trkpt>
      <trkpt lat="-27.87849" lon="-65.85792000000001">
        <ele>1278.5</ele>
        <time>2018-08-19T22:22:09Z</time>
      </trkpt>
      <trkpt lat="-27.878535" lon="-65.858005">
        <ele>1278.4</ele>
        <time>2018-08-19T22:22:11Z</time>
      </trkpt>
      <trkpt lat="-27.87857" lon="-65.85808">
        <ele>1278.4</ele>
        <time>2018-08-19T22:22:13Z</time>
      </trkpt>
      <trkpt lat="-27.87862" lon="-65.858165">
        <ele>1278.1</ele>
        <time>2018-08-19T22:22:16Z</time>
      </trkpt>
      <trkpt lat="-27.87866" lon="-65.85823">
        <ele>1278.0</ele>
        <time>2018-08-19T22:22:18Z</time>
      </trkpt>
      <trkpt lat="-27.878705" lon="-65.858315">
        <ele>1276.5</ele>
        <time>2018-08-19T22:22:20Z</time>
      </trkpt>
      <trkpt lat="-27.87874" lon="-65.85838">
        <ele>1276.4</ele>
        <time>2018-08-19T22:22:22Z</time>
      </trkpt>
      <trkpt lat="-27.878795" lon="-65.858485">
        <ele>1274.4</ele>
        <time>2018-08-19T22:22:25Z</time>
      </trkpt>
      <trkpt lat="-27.87884" lon="-65.858565">
        <ele>1273.5</ele>
        <time>2018-08-19T22:22:27Z</time>
      </trkpt>
      <trkpt lat="-27.87888" lon="-65.858635">
        <ele>1272.7</ele>
        <time>2018-08-19T22:22:29Z</time>
      </trkpt>
      <trkpt lat="-27.878915" lon="-65.85872">
        <ele>1272.0</ele>
        <time>2018-08-19T22:22:31Z</time>
      </trkpt>
      <trkpt lat="-27.878965" lon="-65.858805">
        <ele>1272.0</ele>
        <time>2018-08-19T22:22:33Z</time>
      </trkpt>
      <trkpt lat="-27.87901" lon="-65.858895">
        <ele>1272.1</ele>
        <time>2018-08-19T22:22:35Z</time>
      </trkpt>
      <trkpt lat="-27.879055" lon="-65.858985">
        <ele>1271.9</ele>
        <time>2018-08-19T22:22:37Z</time>
      </trkpt>
      <trkpt lat="-27.879095" lon="-65.859055">
        <ele>1271.2</ele>
        <time>2018-08-19T22:22:39Z</time>
      </trkpt>
      <trkpt lat="-27.87914" lon="-65.85914">
        <ele>1270.6</ele>
        <time>2018-08-19T22:22:41Z</time>
      </trkpt>
      <trkpt lat="-27.87919" lon="-65.859215">
        <ele>1270.1</ele>
        <time>2018-08-19T22:22:43Z</time>
      </trkpt>
      <trkpt lat="-27.87924" lon="-65.85932">
        <ele>1269.7</ele>
        <time>2018-08-19T22:22:45Z</time>
      </trkpt>
      <trkpt lat="-27.879285" lon="-65.85941">
        <ele>1269.1</ele>
        <time>2018-08-19T22:22:47Z</time>
      </trkpt>
      <trkpt lat="-27.87933" lon="-65.85948">
        <ele>1268.8</ele>
        <time>2018-08-19T22:22:49Z</time>
      </trkpt>
      <trkpt lat="-27.87938" lon="-65.859565">
        <ele>1268.4</ele>
        <time>2018-08-19T22:22:51Z</time>
      </trkpt>
      <trkpt lat="-27.879435" lon="-65.859665">
        <ele>1268.2</ele>
        <time>2018-08-19T22:22:53Z</time>
      </trkpt>
      <trkpt lat="-27.879475" lon="-65.85975">
        <ele>1269.0</ele>
        <time>2018-08-19T22:22:55Z</time>
      </trkpt>
      <trkpt lat="-27.87952" lon="-65.859845">
        <ele>1269.9</ele>
        <time>2018-08-19T22:22:57Z</time>
      </trkpt>
      <trkpt lat="-27.879575" lon="-65.85993">
        <ele>1270.9</ele>
        <time>2018-08-19T22:22:59Z</time>
      </trkpt>
      <trkpt lat="-27.879625" lon="-65.86004">
        <ele>1271.3</ele>
        <time>2018-08-19T22:23:01Z</time>
      </trkpt>
      <trkpt lat="-27.879675" lon="-65.860125">
        <ele>1271.2</ele>
        <time>2018-08-19T22:23:03Z</time>
      </trkpt>
      <trkpt lat="-27.87973" lon="-65.86022">
        <ele>1270.9</ele>
        <time>2018-08-19T22:23:05Z</time>
      </trkpt>
      <trkpt lat="-27.879775" lon="-65.860315">
        <ele>1270.8</ele>
        <time>2018-08-19T22:23:07Z</time>
      </trkpt>
      <trkpt lat="-27.87983" lon="-65.860405">
        <ele>1270.5</ele>
        <time>2018-08-19T22:23:09Z</time>
      </trkpt>
      <trkpt lat="-27.879885" lon="-65.86051">
        <ele>1270.1</ele>
        <time>2018-08-19T22:23:11Z</time>
      </trkpt>
      <trkpt lat="-27.879935" lon="-65.860605">
        <ele>1269.5</ele>
        <time>2018-08-19T22:23:13Z</time>
      </trkpt>
      <trkpt lat="-27.879995" lon="-65.86069">
        <ele>1268.9</ele>
        <time>2018-08-19T22:23:15Z</time>
      </trkpt>
      <trkpt lat="-27.88004" lon="-65.8608">
        <ele>1268.5</ele>
        <time>2018-08-19T22:23:17Z</time>
      </trkpt>
      <trkpt lat="-27.8801" lon="-65.860895">
        <ele>1267.8</ele>
        <time>2018-08-19T22:23:19Z</time>
      </trkpt>
      <trkpt lat="-27.880155" lon="-65.860995">
        <ele>1267.0</ele>
        <time>2018-08-19T22:23:21Z</time>
      </trkpt>
      <trkpt lat="-27.880215" lon="-65.86108333333334">
        <ele>1266.3</ele>
        <time>2018-08-19T22:23:23Z</time>
      </trkpt>
      <trkpt lat="-27.88028" lon="-65.86122">
        <ele>1265.4</ele>
        <time>2018-08-19T22:23:25Z</time>
      </trkpt>
      <trkpt lat="-27.880345" lon="-65.861335">
        <ele>1264.4</ele>
        <time>2018-08-19T22:23:27Z</time>
      </trkpt>
      <trkpt lat="-27.880415" lon="-65.86145">
        <ele>1263.4</ele>
        <time>2018-08-19T22:23:29Z</time>
      </trkpt>
      <trkpt lat="-27.880485" lon="-65.86159">
        <ele>1262.5</ele>
        <time>2018-08-19T22:23:31Z</time>
      </trkpt>
      <trkpt lat="-27.88056" lon="-65.86172">
        <ele>1261.7</ele>
        <time>2018-08-19T22:23:33Z</time>
      </trkpt>
      <trkpt lat="-27.880635" lon="-65.86185166666667">
        <ele>1261.2</ele>
        <time>2018-08-19T22:23:35Z</time>
      </trkpt>
      <trkpt lat="-27.88067" lon="-65.861935">
        <ele>1261.0</ele>
        <time>2018-08-19T22:23:36Z</time>
      </trkpt>
      <trkpt lat="-27.88071" lon="-65.86201">
        <ele>1260.7</ele>
        <time>2018-08-19T22:23:37Z</time>
      </trkpt>
      <trkpt lat="-27.880745" lon="-65.862065">
        <ele>1260.6</ele>
        <time>2018-08-19T22:23:38Z</time>
      </trkpt>
      <trkpt lat="-27.880785" lon="-65.86215">
        <ele>1260.4</ele>
        <time>2018-08-19T22:23:39Z</time>
      </trkpt>
      <trkpt lat="-27.880825" lon="-65.86221">
        <ele>1260.3</ele>
        <time>2018-08-19T22:23:40Z</time>
      </trkpt>
      <trkpt lat="-27.880895" lon="-65.86235">
        <ele>1260.1</ele>
        <time>2018-08-19T22:23:42Z</time>
      </trkpt>
      <trkpt lat="-27.880935" lon="-65.862425">
        <ele>1260.0</ele>
        <time>2018-08-19T22:23:43Z</time>
      </trkpt>
      <trkpt lat="-27.880975" lon="-65.8625">
        <ele>1259.9</ele>
        <time>2018-08-19T22:23:44Z</time>
      </trkpt>
      <trkpt lat="-27.88105" lon="-65.86262">
        <ele>1259.5</ele>
        <time>2018-08-19T22:23:46Z</time>
      </trkpt>
      <trkpt lat="-27.88112" lon="-65.86274666666667">
        <ele>1259.0</ele>
        <time>2018-08-19T22:23:48Z</time>
      </trkpt>
      <trkpt lat="-27.88119" lon="-65.862885">
        <ele>1258.9</ele>
        <time>2018-08-19T22:23:50Z</time>
      </trkpt>
      <trkpt lat="-27.88125" lon="-65.863015">
        <ele>1259.1</ele>
        <time>2018-08-19T22:23:52Z</time>
      </trkpt>
      <trkpt lat="-27.88131" lon="-65.863135">
        <ele>1258.3</ele>
        <time>2018-08-19T22:23:54Z</time>
      </trkpt>
      <trkpt lat="-27.88137" lon="-65.86324">
        <ele>1256.8</ele>
        <time>2018-08-19T22:23:56Z</time>
      </trkpt>
      <trkpt lat="-27.881425" lon="-65.86336">
        <ele>1255.7</ele>
        <time>2018-08-19T22:23:58Z</time>
      </trkpt>
      <trkpt lat="-27.88148" lon="-65.863465">
        <ele>1255.1</ele>
        <time>2018-08-19T22:24:00Z</time>
      </trkpt>
      <trkpt lat="-27.881525" lon="-65.86356">
        <ele>1254.7</ele>
        <time>2018-08-19T22:24:02Z</time>
      </trkpt>
      <trkpt lat="-27.881575" lon="-65.863645">
        <ele>1254.1</ele>
        <time>2018-08-19T22:24:04Z</time>
      </trkpt>
      <trkpt lat="-27.88163" lon="-65.86373">
        <ele>1253.3</ele>
        <time>2018-08-19T22:24:06Z</time>
      </trkpt>
      <trkpt lat="-27.88168" lon="-65.86386">
        <ele>1253.2</ele>
        <time>2018-08-19T22:24:08Z</time>
      </trkpt>
      <trkpt lat="-27.88174" lon="-65.863955">
        <ele>1252.6</ele>
        <time>2018-08-19T22:24:10Z</time>
      </trkpt>
      <trkpt lat="-27.8818" lon="-65.86403666666666">
        <ele>1251.8</ele>
        <time>2018-08-19T22:24:12Z</time>
      </trkpt>
      <trkpt lat="-27.88188" lon="-65.86416">
        <ele>1250.8</ele>
        <time>2018-08-19T22:24:14Z</time>
      </trkpt>
      <trkpt lat="-27.88197" lon="-65.86426">
        <ele>1250.8</ele>
        <time>2018-08-19T22:24:16Z</time>
      </trkpt>
      <trkpt lat="-27.88203" lon="-65.86431">
        <ele>1250.7</ele>
        <time>2018-08-19T22:24:17Z</time>
      </trkpt>
      <trkpt lat="-27.88214" lon="-65.864395">
        <ele>1250.8</ele>
        <time>2018-08-19T22:24:18Z</time>
      </trkpt>
      <trkpt lat="-27.8822" lon="-65.86443">
        <ele>1251.2</ele>
        <time>2018-08-19T22:24:19Z</time>
      </trkpt>
      <trkpt lat="-27.88227" lon="-65.864475">
        <ele>1251.8</ele>
        <time>2018-08-19T22:24:20Z</time>
      </trkpt>
      <trkpt lat="-27.882385" lon="-65.864535">
        <ele>1252.6</ele>
        <time>2018-08-19T22:24:23Z</time>
      </trkpt>
      <trkpt lat="-27.882495" lon="-65.86459">
        <ele>1253.2</ele>
        <time>2018-08-19T22:24:25Z</time>
      </trkpt>
      <trkpt lat="-27.8826" lon="-65.864665">
        <ele>1253.4</ele>
        <time>2018-08-19T22:24:26Z</time>
      </trkpt>
      <trkpt lat="-27.8827" lon="-65.864715">
        <ele>1253.3</ele>
        <time>2018-08-19T22:24:29Z</time>
      </trkpt>
      <trkpt lat="-27.882795" lon="-65.86476">
        <ele>1253.2</ele>
        <time>2018-08-19T22:24:31Z</time>
      </trkpt>
      <trkpt lat="-27.88288" lon="-65.864805">
        <ele>1253.3</ele>
        <time>2018-08-19T22:24:33Z</time>
      </trkpt>
      <trkpt lat="-27.882955" lon="-65.864855">
        <ele>1253.3</ele>
        <time>2018-08-19T22:24:35Z</time>
      </trkpt>
      <trkpt lat="-27.883035" lon="-65.864925">
        <ele>1253.5</ele>
        <time>2018-08-19T22:24:37Z</time>
      </trkpt>
      <trkpt lat="-27.88313" lon="-65.864975">
        <ele>1253.7</ele>
        <time>2018-08-19T22:24:39Z</time>
      </trkpt>
      <trkpt lat="-27.883215" lon="-65.86502">
        <ele>1253.1</ele>
        <time>2018-08-19T22:24:41Z</time>
      </trkpt>
      <trkpt lat="-27.88329" lon="-65.86507">
        <ele>1252.6</ele>
        <time>2018-08-19T22:24:42Z</time>
      </trkpt>
      <trkpt lat="-27.883375" lon="-65.865125">
        <ele>1252.6</ele>
        <time>2018-08-19T22:24:45Z</time>
      </trkpt>
      <trkpt lat="-27.883485" lon="-65.86519">
        <ele>1252.9</ele>
        <time>2018-08-19T22:24:47Z</time>
      </trkpt>
      <trkpt lat="-27.88359" lon="-65.865245">
        <ele>1252.7</ele>
        <time>2018-08-19T22:24:49Z</time>
      </trkpt>
      <trkpt lat="-27.883705" lon="-65.865325">
        <ele>1252.4</ele>
        <time>2018-08-19T22:24:51Z</time>
      </trkpt>
      <trkpt lat="-27.883815" lon="-65.86539">
        <ele>1251.7</ele>
        <time>2018-08-19T22:24:53Z</time>
      </trkpt>
      <trkpt lat="-27.883885" lon="-65.86543">
        <ele>1251.4</ele>
        <time>2018-08-19T22:24:54Z</time>
      </trkpt>
      <trkpt lat="-27.883945" lon="-65.86547">
        <ele>1251.3</ele>
        <time>2018-08-19T22:24:55Z</time>
      </trkpt>
      <trkpt lat="-27.884075" lon="-65.865545">
        <ele>1251.1</ele>
        <time>2018-08-19T22:24:57Z</time>
      </trkpt>
      <trkpt lat="-27.884195" lon="-65.86561">
        <ele>1250.9</ele>
        <time>2018-08-19T22:24:59Z</time>
      </trkpt>
      <trkpt lat="-27.884315" lon="-65.86569">
        <ele>1250.2</ele>
        <time>2018-08-19T22:25:01Z</time>
      </trkpt>
      <trkpt lat="-27.884435" lon="-65.86575500000001">
        <ele>1249.7</ele>
        <time>2018-08-19T22:25:03Z</time>
      </trkpt>
      <trkpt lat="-27.884565" lon="-65.86583">
        <ele>1249.2</ele>
        <time>2018-08-19T22:25:05Z</time>
      </trkpt>
      <trkpt lat="-27.88467" lon="-65.865885">
        <ele>1249.1</ele>
        <time>2018-08-19T22:25:07Z</time>
      </trkpt>
      <trkpt lat="-27.884775" lon="-65.86597">
        <ele>1248.9</ele>
        <time>2018-08-19T22:25:09Z</time>
      </trkpt>
      <trkpt lat="-27.88488" lon="-65.866035">
        <ele>1249.1</ele>
        <time>2018-08-19T22:25:11Z</time>
      </trkpt>
      <trkpt lat="-27.88499" lon="-65.86609">
        <ele>1249.4</ele>
        <time>2018-08-19T22:25:13Z</time>
      </trkpt>
      <trkpt lat="-27.885085" lon="-65.86615">
        <ele>1249.0</ele>
        <time>2018-08-19T22:25:15Z</time>
      </trkpt>
      <trkpt lat="-27.88519" lon="-65.866215">
        <ele>1248.9</ele>
        <time>2018-08-19T22:25:17Z</time>
      </trkpt>
      <trkpt lat="-27.885275" lon="-65.86627">
        <ele>1248.4</ele>
        <time>2018-08-19T22:25:19Z</time>
      </trkpt>
      <trkpt lat="-27.885365" lon="-65.866315">
        <ele>1247.6</ele>
        <time>2018-08-19T22:25:21Z</time>
      </trkpt>
      <trkpt lat="-27.88546" lon="-65.866375">
        <ele>1247.2</ele>
        <time>2018-08-19T22:25:23Z</time>
      </trkpt>
      <trkpt lat="-27.88557" lon="-65.86645">
        <ele>1246.7</ele>
        <time>2018-08-19T22:25:25Z</time>
      </trkpt>
      <trkpt lat="-27.885675" lon="-65.866505">
        <ele>1246.1</ele>
        <time>2018-08-19T22:25:27Z</time>
      </trkpt>
      <trkpt lat="-27.88578" lon="-65.86656">
        <ele>1245.6</ele>
        <time>2018-08-19T22:25:29Z</time>
      </trkpt>
      <trkpt lat="-27.88588" lon="-65.866625">
        <ele>1245.1</ele>
        <time>2018-08-19T22:25:31Z</time>
      </trkpt>
      <trkpt lat="-27.885985" lon="-65.866685">
        <ele>1244.7</ele>
        <time>2018-08-19T22:25:33Z</time>
      </trkpt>
      <trkpt lat="-27.88607" lon="-65.86673">
        <ele>1244.7</ele>
        <time>2018-08-19T22:25:35Z</time>
      </trkpt>
      <trkpt lat="-27.886165" lon="-65.86677666666667">
        <ele>1244.7</ele>
        <time>2018-08-19T22:25:37Z</time>
      </trkpt>
      <trkpt lat="-27.886255" lon="-65.86684">
        <ele>1244.6</ele>
        <time>2018-08-19T22:25:39Z</time>
      </trkpt>
      <trkpt lat="-27.88633" lon="-65.866895">
        <ele>1244.8</ele>
        <time>2018-08-19T22:25:41Z</time>
      </trkpt>
      <trkpt lat="-27.886405" lon="-65.866935">
        <ele>1245.1</ele>
        <time>2018-08-19T22:25:43Z</time>
      </trkpt>
      <trkpt lat="-27.886495" lon="-65.86699">
        <ele>1245.0</ele>
        <time>2018-08-19T22:25:46Z</time>
      </trkpt>
      <trkpt lat="-27.88656" lon="-65.86703">
        <ele>1245.0</ele>
        <time>2018-08-19T22:25:48Z</time>
      </trkpt>
      <trkpt lat="-27.88663" lon="-65.867065">
        <ele>1245.0</ele>
        <time>2018-08-19T22:25:50Z</time>
      </trkpt>
      <trkpt lat="-27.886725" lon="-65.86713">
        <ele>1245.1</ele>
        <time>2018-08-19T22:25:53Z</time>
      </trkpt>
      <trkpt lat="-27.886795" lon="-65.86716">
        <ele>1245.0</ele>
        <time>2018-08-19T22:25:55Z</time>
      </trkpt>
      <trkpt lat="-27.88686" lon="-65.86721">
        <ele>1245.1</ele>
        <time>2018-08-19T22:25:57Z</time>
      </trkpt>
      <trkpt lat="-27.88693" lon="-65.867245">
        <ele>1245.5</ele>
        <time>2018-08-19T22:25:59Z</time>
      </trkpt>
      <trkpt lat="-27.887" lon="-65.867295">
        <ele>1245.9</ele>
        <time>2018-08-19T22:26:01Z</time>
      </trkpt>
      <trkpt lat="-27.887065" lon="-65.86732">
        <ele>1246.0</ele>
        <time>2018-08-19T22:26:03Z</time>
      </trkpt>
      <trkpt lat="-27.887155" lon="-65.86736">
        <ele>1245.0</ele>
        <time>2018-08-19T22:26:06Z</time>
      </trkpt>
      <trkpt lat="-27.887225" lon="-65.867425">
        <ele>1244.0</ele>
        <time>2018-08-19T22:26:08Z</time>
      </trkpt>
      <trkpt lat="-27.887315" lon="-65.86748">
        <ele>1242.5</ele>
        <time>2018-08-19T22:26:11Z</time>
      </trkpt>
      <trkpt lat="-27.887415" lon="-65.867535">
        <ele>1242.4</ele>
        <time>2018-08-19T22:26:14Z</time>
      </trkpt>
      <trkpt lat="-27.887485" lon="-65.867575">
        <ele>1242.4</ele>
        <time>2018-08-19T22:26:16Z</time>
      </trkpt>
      <trkpt lat="-27.887555" lon="-65.86761">
        <ele>1242.4</ele>
        <time>2018-08-19T22:26:18Z</time>
      </trkpt>
      <trkpt lat="-27.887645" lon="-65.86767">
        <ele>1242.5</ele>
        <time>2018-08-19T22:26:21Z</time>
      </trkpt>
      <trkpt lat="-27.88771" lon="-65.867715">
        <ele>1242.6</ele>
        <time>2018-08-19T22:26:23Z</time>
      </trkpt>
      <trkpt lat="-27.88777" lon="-65.86775">
        <ele>1242.8</ele>
        <time>2018-08-19T22:26:25Z</time>
      </trkpt>
      <trkpt lat="-27.88784" lon="-65.867795">
        <ele>1242.9</ele>
        <time>2018-08-19T22:26:27Z</time>
      </trkpt>
      <trkpt lat="-27.88792" lon="-65.867845">
        <ele>1243.0</ele>
        <time>2018-08-19T22:26:30Z</time>
      </trkpt>
      <trkpt lat="-27.887985" lon="-65.867895">
        <ele>1243.9</ele>
        <time>2018-08-19T22:26:32Z</time>
      </trkpt>
      <trkpt lat="-27.888065" lon="-65.86797">
        <ele>1245.0</ele>
        <time>2018-08-19T22:26:35Z</time>
      </trkpt>
      <trkpt lat="-27.88811" lon="-65.868025">
        <ele>1245.1</ele>
        <time>2018-08-19T22:26:37Z</time>
      </trkpt>
      <trkpt lat="-27.88817" lon="-65.868115">
        <ele>1245.1</ele>
        <time>2018-08-19T22:26:40Z</time>
      </trkpt>
      <trkpt lat="-27.888215" lon="-65.86819">
        <ele>1245.0</ele>
        <time>2018-08-19T22:26:42Z</time>
      </trkpt>
      <trkpt lat="-27.888255" lon="-65.86826">
        <ele>1244.9</ele>
        <time>2018-08-19T22:26:44Z</time>
      </trkpt>
      <trkpt lat="-27.888315" lon="-65.868345">
        <ele>1244.5</ele>
        <time>2018-08-19T22:26:47Z</time>
      </trkpt>
      <trkpt lat="-27.88835" lon="-65.86842">
        <ele>1244.3</ele>
        <time>2018-08-19T22:26:49Z</time>
      </trkpt>
      <trkpt lat="-27.888395" lon="-65.868485">
        <ele>1244.1</ele>
        <time>2018-08-19T22:26:51Z</time>
      </trkpt>
      <trkpt lat="-27.888435" lon="-65.86856">
        <ele>1243.9</ele>
        <time>2018-08-19T22:26:53Z</time>
      </trkpt>
      <trkpt lat="-27.888485" lon="-65.868655">
        <ele>1243.6</ele>
        <time>2018-08-19T22:26:56Z</time>
      </trkpt>
      <trkpt lat="-27.88853" lon="-65.86873">
        <ele>1243.5</ele>
        <time>2018-08-19T22:26:58Z</time>
      </trkpt>
      <trkpt lat="-27.88859" lon="-65.86882">
        <ele>1242.5</ele>
        <time>2018-08-19T22:27:01Z</time>
      </trkpt>
      <trkpt lat="-27.888645" lon="-65.86892">
        <ele>1242.3</ele>
        <time>2018-08-19T22:27:04Z</time>
      </trkpt>
      <trkpt lat="-27.888695" lon="-65.86899">
        <ele>1242.3</ele>
        <time>2018-08-19T22:27:06Z</time>
      </trkpt>
      <trkpt lat="-27.888755" lon="-65.86909">
        <ele>1242.2</ele>
        <time>2018-08-19T22:27:09Z</time>
      </trkpt>
      <trkpt lat="-27.888795000000002" lon="-65.86915">
        <ele>1242.0</ele>
        <time>2018-08-19T22:27:11Z</time>
      </trkpt>
      <trkpt lat="-27.888845" lon="-65.869235">
        <ele>1241.8</ele>
        <time>2018-08-19T22:27:13Z</time>
      </trkpt>
      <trkpt lat="-27.888905" lon="-65.86933">
        <ele>1241.8</ele>
        <time>2018-08-19T22:27:16Z</time>
      </trkpt>
      <trkpt lat="-27.888965" lon="-65.869415">
        <ele>1241.7</ele>
        <time>2018-08-19T22:27:19Z</time>
      </trkpt>
      <trkpt lat="-27.88901" lon="-65.869495">
        <ele>1241.7</ele>
        <time>2018-08-19T22:27:21Z</time>
      </trkpt>
      <trkpt lat="-27.88905" lon="-65.869555">
        <ele>1241.7</ele>
        <time>2018-08-19T22:27:23Z</time>
      </trkpt>
      <trkpt lat="-27.889095" lon="-65.86964">
        <ele>1241.8</ele>
        <time>2018-08-19T22:27:25Z</time>
      </trkpt>
      <trkpt lat="-27.889155" lon="-65.86972">
        <ele>1241.8</ele>
        <time>2018-08-19T22:27:28Z</time>
      </trkpt>
      <trkpt lat="-27.88921" lon="-65.869825">
        <ele>1241.8</ele>
        <time>2018-08-19T22:27:31Z</time>
      </trkpt>
      <trkpt lat="-27.88927" lon="-65.86991">
        <ele>1241.8</ele>
        <time>2018-08-19T22:27:34Z</time>
      </trkpt>
      <trkpt lat="-27.889325" lon="-65.87002">
        <ele>1241.8</ele>
        <time>2018-08-19T22:27:37Z</time>
      </trkpt>
      <trkpt lat="-27.88937" lon="-65.870085">
        <ele>1241.8</ele>
        <time>2018-08-19T22:27:39Z</time>
      </trkpt>
      <trkpt lat="-27.889415" lon="-65.870135">
        <ele>1241.8</ele>
        <time>2018-08-19T22:27:41Z</time>
      </trkpt>
      <trkpt lat="-27.889475" lon="-65.87025">
        <ele>1241.8</ele>
        <time>2018-08-19T22:27:44Z</time>
      </trkpt>
      <trkpt lat="-27.889535" lon="-65.87034">
        <ele>1241.8</ele>
        <time>2018-08-19T22:27:47Z</time>
      </trkpt>
      <trkpt lat="-27.889595" lon="-65.870435">
        <ele>1241.7</ele>
        <time>2018-08-19T22:27:50Z</time>
      </trkpt>
      <trkpt lat="-27.889665" lon="-65.870525">
        <ele>1241.6</ele>
        <time>2018-08-19T22:27:53Z</time>
      </trkpt>
      <trkpt lat="-27.88972" lon="-65.870585">
        <ele>1241.6</ele>
        <time>2018-08-19T22:27:55Z</time>
      </trkpt>
      <trkpt lat="-27.88977" lon="-65.87065">
        <ele>1241.7</ele>
        <time>2018-08-19T22:27:57Z</time>
      </trkpt>
      <trkpt lat="-27.88982" lon="-65.870705">
        <ele>1242.4</ele>
        <time>2018-08-19T22:27:59Z</time>
      </trkpt>
      <trkpt lat="-27.88991" lon="-65.87078">
        <ele>1242.6</ele>
        <time>2018-08-19T22:28:02Z</time>
      </trkpt>
      <trkpt lat="-27.89" lon="-65.870835">
        <ele>1242.9</ele>
        <time>2018-08-19T22:28:05Z</time>
      </trkpt>
      <trkpt lat="-27.89008" lon="-65.870875">
        <ele>1243.0</ele>
        <time>2018-08-19T22:28:08Z</time>
      </trkpt>
      <trkpt lat="-27.890165" lon="-65.870895">
        <ele>1243.1</ele>
        <time>2018-08-19T22:28:11Z</time>
      </trkpt>
      <trkpt lat="-27.89025" lon="-65.87093">
        <ele>1243.2</ele>
        <time>2018-08-19T22:28:14Z</time>
      </trkpt>
      <trkpt lat="-27.890335" lon="-65.870975">
        <ele>1243.3</ele>
        <time>2018-08-19T22:28:17Z</time>
      </trkpt>
      <trkpt lat="-27.89042" lon="-65.871005">
        <ele>1243.4</ele>
        <time>2018-08-19T22:28:21Z</time>
      </trkpt>
      <trkpt lat="-27.8905" lon="-65.871055">
        <ele>1243.5</ele>
        <time>2018-08-19T22:28:25Z</time>
      </trkpt>
      <trkpt lat="-27.89059" lon="-65.8711">
        <ele>1243.6</ele>
        <time>2018-08-19T22:28:29Z</time>
      </trkpt>
      <trkpt lat="-27.890675" lon="-65.87112">
        <ele>1243.8</ele>
        <time>2018-08-19T22:28:33Z</time>
      </trkpt>
      <trkpt lat="-27.89076" lon="-65.87116">
        <ele>1243.9</ele>
        <time>2018-08-19T22:28:37Z</time>
      </trkpt>
      <trkpt lat="-27.89084" lon="-65.871205">
        <ele>1244.1</ele>
        <time>2018-08-19T22:28:41Z</time>
      </trkpt>
      <trkpt lat="-27.890925" lon="-65.87124">
        <ele>1244.5</ele>
        <time>2018-08-19T22:28:45Z</time>
      </trkpt>
      <trkpt lat="-27.890995" lon="-65.87128">
        <ele>1244.9</ele>
        <time>2018-08-19T22:28:49Z</time>
      </trkpt>
      <trkpt lat="-27.891065" lon="-65.8713">
        <ele>1245.3</ele>
        <time>2018-08-19T22:28:53Z</time>
      </trkpt>
      <trkpt lat="-27.891135" lon="-65.871345">
        <ele>1245.8</ele>
        <time>2018-08-19T22:28:58Z</time>
      </trkpt>
      <trkpt lat="-27.891215" lon="-65.871385">
        <ele>1246.5</ele>
        <time>2018-08-19T22:29:04Z</time>
      </trkpt>
      <trkpt lat="-27.89129" lon="-65.871425">
        <ele>1246.9</ele>
        <time>2018-08-19T22:29:09Z</time>
      </trkpt>
      <trkpt lat="-27.891365" lon="-65.871455">
        <ele>1247.5</ele>
        <time>2018-08-19T22:29:14Z</time>
      </trkpt>
      <trkpt lat="-27.891445" lon="-65.871485">
        <ele>1248.1</ele>
        <time>2018-08-19T22:29:20Z</time>
      </trkpt>
      <trkpt lat="-27.89153" lon="-65.871525">
        <ele>1248.5</ele>
        <time>2018-08-19T22:29:25Z</time>
      </trkpt>
      <trkpt lat="-27.8916" lon="-65.87156">
        <ele>1248.9</ele>
        <time>2018-08-19T22:29:29Z</time>
      </trkpt>
      <trkpt lat="-27.891675" lon="-65.8716">
        <ele>1249.2</ele>
        <time>2018-08-19T22:29:33Z</time>
      </trkpt>
      <trkpt lat="-27.891755" lon="-65.871635">
        <ele>1249.4</ele>
        <time>2018-08-19T22:29:36Z</time>
      </trkpt>
      <trkpt lat="-27.891825" lon="-65.871655">
        <ele>1249.7</ele>
        <time>2018-08-19T22:29:39Z</time>
      </trkpt>
      <trkpt lat="-27.8919" lon="-65.87169">
        <ele>1249.8</ele>
        <time>2018-08-19T22:29:41Z</time>
      </trkpt>
      <trkpt lat="-27.89197" lon="-65.87173">
        <ele>1251.3</ele>
        <time>2018-08-19T22:29:43Z</time>
      </trkpt>
      <trkpt lat="-27.892045" lon="-65.87175">
        <ele>1252.0</ele>
        <time>2018-08-19T22:29:45Z</time>
      </trkpt>
      <trkpt lat="-27.892135" lon="-65.871785">
        <ele>1252.4</ele>
        <time>2018-08-19T22:29:47Z</time>
      </trkpt>
      <trkpt lat="-27.892220000000002" lon="-65.87183">
        <ele>1252.7</ele>
        <time>2018-08-19T22:29:49Z</time>
      </trkpt>
      <trkpt lat="-27.89231" lon="-65.87186">
        <ele>1252.7</ele>
        <time>2018-08-19T22:29:51Z</time>
      </trkpt>
      <trkpt lat="-27.892395" lon="-65.8719">
        <ele>1252.7</ele>
        <time>2018-08-19T22:29:53Z</time>
      </trkpt>
      <trkpt lat="-27.89248" lon="-65.87191666666666">
        <ele>1252.9</ele>
        <time>2018-08-19T22:29:55Z</time>
      </trkpt>
      <trkpt lat="-27.892575" lon="-65.871965">
        <ele>1252.9</ele>
        <time>2018-08-19T22:29:57Z</time>
      </trkpt>
      <trkpt lat="-27.892655" lon="-65.872">
        <ele>1251.9</ele>
        <time>2018-08-19T22:29:59Z</time>
      </trkpt>
      <trkpt lat="-27.89274" lon="-65.87202">
        <ele>1251.6</ele>
        <time>2018-08-19T22:30:01Z</time>
      </trkpt>
      <trkpt lat="-27.89283" lon="-65.87206">
        <ele>1251.8</ele>
        <time>2018-08-19T22:30:03Z</time>
      </trkpt>
      <trkpt lat="-27.892915" lon="-65.872105">
        <ele>1251.8</ele>
        <time>2018-08-19T22:30:05Z</time>
      </trkpt>
      <trkpt lat="-27.892985" lon="-65.87214">
        <ele>1251.9</ele>
        <time>2018-08-19T22:30:07Z</time>
      </trkpt>
      <trkpt lat="-27.893055" lon="-65.872145">
        <ele>1251.8</ele>
        <time>2018-08-19T22:30:09Z</time>
      </trkpt>
      <trkpt lat="-27.893145" lon="-65.8722">
        <ele>1251.8</ele>
        <time>2018-08-19T22:30:12Z</time>
      </trkpt>
      <trkpt lat="-27.893225" lon="-65.872235">
        <ele>1251.8</ele>
        <time>2018-08-19T22:30:15Z</time>
      </trkpt>
      <trkpt lat="-27.89331" lon="-65.87227">
        <ele>1251.8</ele>
        <time>2018-08-19T22:30:18Z</time>
      </trkpt>
      <trkpt lat="-27.8934" lon="-65.872285">
        <ele>1252.0</ele>
        <time>2018-08-19T22:30:21Z</time>
      </trkpt>
      <trkpt lat="-27.89349" lon="-65.872325">
        <ele>1252.0</ele>
        <time>2018-08-19T22:30:24Z</time>
      </trkpt>
      <trkpt lat="-27.89358" lon="-65.87235">
        <ele>1252.0</ele>
        <time>2018-08-19T22:30:27Z</time>
      </trkpt>
      <trkpt lat="-27.893675" lon="-65.87237">
        <ele>1252.2</ele>
        <time>2018-08-19T22:30:30Z</time>
      </trkpt>
      <trkpt lat="-27.893775" lon="-65.872425">
        <ele>1252.4</ele>
        <time>2018-08-19T22:30:33Z</time>
      </trkpt>
      <trkpt lat="-27.89386" lon="-65.87247">
        <ele>1252.6</ele>
        <time>2018-08-19T22:30:36Z</time>
      </trkpt>
      <trkpt lat="-27.893945" lon="-65.872545">
        <ele>1252.8</ele>
        <time>2018-08-19T22:30:39Z</time>
      </trkpt>
      <trkpt lat="-27.894015" lon="-65.87262">
        <ele>1253.1</ele>
        <time>2018-08-19T22:30:42Z</time>
      </trkpt>
      <trkpt lat="-27.89406" lon="-65.872675">
        <ele>1253.2</ele>
        <time>2018-08-19T22:30:44Z</time>
      </trkpt>
      <trkpt lat="-27.8941" lon="-65.87276">
        <ele>1253.4</ele>
        <time>2018-08-19T22:30:46Z</time>
      </trkpt>
      <trkpt lat="-27.894135" lon="-65.87282">
        <ele>1253.6</ele>
        <time>2018-08-19T22:30:48Z</time>
      </trkpt>
      <trkpt lat="-27.894165" lon="-65.8729">
        <ele>1254.6</ele>
        <time>2018-08-19T22:30:50Z</time>
      </trkpt>
      <trkpt lat="-27.8942" lon="-65.872985">
        <ele>1255.7</ele>
        <time>2018-08-19T22:30:52Z</time>
      </trkpt>
      <trkpt lat="-27.89424" lon="-65.873045">
        <ele>1255.7</ele>
        <time>2018-08-19T22:30:54Z</time>
      </trkpt>
      <trkpt lat="-27.89428" lon="-65.873155">
        <ele>1255.5</ele>
        <time>2018-08-19T22:30:56Z</time>
      </trkpt>
      <trkpt lat="-27.89433" lon="-65.87323">
        <ele>1254.7</ele>
        <time>2018-08-19T22:30:58Z</time>
      </trkpt>
      <trkpt lat="-27.894375" lon="-65.873345">
        <ele>1254.3</ele>
        <time>2018-08-19T22:31:00Z</time>
      </trkpt>
      <trkpt lat="-27.894415" lon="-65.873435">
        <ele>1253.3</ele>
        <time>2018-08-19T22:31:02Z</time>
      </trkpt>
      <trkpt lat="-27.89446" lon="-65.873535">
        <ele>1252.0</ele>
        <time>2018-08-19T22:31:04Z</time>
      </trkpt>
      <trkpt lat="-27.894495" lon="-65.873625">
        <ele>1251.3</ele>
        <time>2018-08-19T22:31:06Z</time>
      </trkpt>
      <trkpt lat="-27.89453" lon="-65.873765">
        <ele>1250.3</ele>
        <time>2018-08-19T22:31:08Z</time>
      </trkpt>
      <trkpt lat="-27.894555" lon="-65.873885">
        <ele>1249.8</ele>
        <time>2018-08-19T22:31:10Z</time>
      </trkpt>
      <trkpt lat="-27.89459" lon="-65.87403">
        <ele>1250.2</ele>
        <time>2018-08-19T22:31:12Z</time>
      </trkpt>
      <trkpt lat="-27.89464" lon="-65.87417">
        <ele>1250.4</ele>
        <time>2018-08-19T22:31:14Z</time>
      </trkpt>
      <trkpt lat="-27.894695" lon="-65.87428">
        <ele>1250.3</ele>
        <time>2018-08-19T22:31:16Z</time>
      </trkpt>
      <trkpt lat="-27.89478" lon="-65.874385">
        <ele>1249.6</ele>
        <time>2018-08-19T22:31:18Z</time>
      </trkpt>
      <trkpt lat="-27.894875" lon="-65.87448">
        <ele>1248.6</ele>
        <time>2018-08-19T22:31:20Z</time>
      </trkpt>
      <trkpt lat="-27.894925" lon="-65.874545">
        <ele>1248.0</ele>
        <time>2018-08-19T22:31:21Z</time>
      </trkpt>
      <trkpt lat="-27.89498" lon="-65.87461">
        <ele>1247.5</ele>
        <time>2018-08-19T22:31:22Z</time>
      </trkpt>
      <trkpt lat="-27.89503" lon="-65.874685">
        <ele>1246.8</ele>
        <time>2018-08-19T22:31:23Z</time>
      </trkpt>
      <trkpt lat="-27.89512" lon="-65.874815">
        <ele>1243.9</ele>
        <time>2018-08-19T22:31:25Z</time>
      </trkpt>
      <trkpt lat="-27.89517" lon="-65.87487">
        <ele>1242.3</ele>
        <time>2018-08-19T22:31:26Z</time>
      </trkpt>
      <trkpt lat="-27.89523" lon="-65.87493">
        <ele>1240.7</ele>
        <time>2018-08-19T22:31:27Z</time>
      </trkpt>
      <trkpt lat="-27.89529" lon="-65.875005">
        <ele>1239.5</ele>
        <time>2018-08-19T22:31:28Z</time>
      </trkpt>
      <trkpt lat="-27.89535" lon="-65.87506">
        <ele>1238.5</ele>
        <time>2018-08-19T22:31:29Z</time>
      </trkpt>
      <trkpt lat="-27.895425" lon="-65.8751">
        <ele>1237.6</ele>
        <time>2018-08-19T22:31:30Z</time>
      </trkpt>
      <trkpt lat="-27.8955" lon="-65.875155">
        <ele>1237.0</ele>
        <time>2018-08-19T22:31:31Z</time>
      </trkpt>
      <trkpt lat="-27.895575" lon="-65.8752">
        <ele>1236.5</ele>
        <time>2018-08-19T22:31:32Z</time>
      </trkpt>
      <trkpt lat="-27.89566" lon="-65.875235">
        <ele>1236.4</ele>
        <time>2018-08-19T22:31:33Z</time>
      </trkpt>
      <trkpt lat="-27.895755" lon="-65.875265">
        <ele>1236.2</ele>
        <time>2018-08-19T22:31:34Z</time>
      </trkpt>
      <trkpt lat="-27.89584" lon="-65.875285">
        <ele>1235.9</ele>
        <time>2018-08-19T22:31:35Z</time>
      </trkpt>
      <trkpt lat="-27.89593" lon="-65.875305">
        <ele>1235.5</ele>
        <time>2018-08-19T22:31:36Z</time>
      </trkpt>
      <trkpt lat="-27.89602" lon="-65.875315">
        <ele>1235.1</ele>
        <time>2018-08-19T22:31:37Z</time>
      </trkpt>
      <trkpt lat="-27.8961" lon="-65.875325">
        <ele>1234.6</ele>
        <time>2018-08-19T22:31:38Z</time>
      </trkpt>
      <trkpt lat="-27.896175" lon="-65.87532666666667">
        <ele>1234.2</ele>
        <time>2018-08-19T22:31:39Z</time>
      </trkpt>
      <trkpt lat="-27.896255" lon="-65.87537">
        <ele>1234.0</ele>
        <time>2018-08-19T22:31:40Z</time>
      </trkpt>
      <trkpt lat="-27.896325" lon="-65.875415">
        <ele>1234.1</ele>
        <time>2018-08-19T22:31:41Z</time>
      </trkpt>
      <trkpt lat="-27.89639" lon="-65.875465">
        <ele>1234.3</ele>
        <time>2018-08-19T22:31:42Z</time>
      </trkpt>
      <trkpt lat="-27.89644" lon="-65.87554">
        <ele>1234.7</ele>
        <time>2018-08-19T22:31:43Z</time>
      </trkpt>
      <trkpt lat="-27.896475" lon="-65.875595">
        <ele>1235.1</ele>
        <time>2018-08-19T22:31:44Z</time>
      </trkpt>
      <trkpt lat="-27.89649" lon="-65.87569">
        <ele>1235.6</ele>
        <time>2018-08-19T22:31:45Z</time>
      </trkpt>
      <trkpt lat="-27.8965" lon="-65.875775">
        <ele>1236.0</ele>
        <time>2018-08-19T22:31:46Z</time>
      </trkpt>
      <trkpt lat="-27.8965" lon="-65.875855">
        <ele>1236.5</ele>
        <time>2018-08-19T22:31:47Z</time>
      </trkpt>
      <trkpt lat="-27.89649" lon="-65.87595">
        <ele>1237.0</ele>
        <time>2018-08-19T22:31:48Z</time>
      </trkpt>
      <trkpt lat="-27.896455" lon="-65.876085">
        <ele>1235.6</ele>
        <time>2018-08-19T22:31:50Z</time>
      </trkpt>
      <trkpt lat="-27.89642" lon="-65.87625">
        <ele>1234.6</ele>
        <time>2018-08-19T22:31:52Z</time>
      </trkpt>
      <trkpt lat="-27.896395" lon="-65.876365">
        <ele>1233.7</ele>
        <time>2018-08-19T22:31:54Z</time>
      </trkpt>
      <trkpt lat="-27.89637" lon="-65.876475">
        <ele>1233.4</ele>
        <time>2018-08-19T22:31:56Z</time>
      </trkpt>
      <trkpt lat="-27.896355" lon="-65.87658">
        <ele>1232.7</ele>
        <time>2018-08-19T22:31:58Z</time>
      </trkpt>
      <trkpt lat="-27.896335" lon="-65.876675">
        <ele>1232.2</ele>
        <time>2018-08-19T22:32:00Z</time>
      </trkpt>
      <trkpt lat="-27.896325" lon="-65.87676">
        <ele>1232.1</ele>
        <time>2018-08-19T22:32:02Z</time>
      </trkpt>
      <trkpt lat="-27.89632" lon="-65.876885">
        <ele>1232.6</ele>
        <time>2018-08-19T22:32:04Z</time>
      </trkpt>
      <trkpt lat="-27.896335" lon="-65.87703">
        <ele>1233.3</ele>
        <time>2018-08-19T22:32:06Z</time>
      </trkpt>
      <trkpt lat="-27.896355" lon="-65.877115">
        <ele>1233.3</ele>
        <time>2018-08-19T22:32:07Z</time>
      </trkpt>
      <trkpt lat="-27.89637" lon="-65.8772">
        <ele>1233.0</ele>
        <time>2018-08-19T22:32:08Z</time>
      </trkpt>
      <trkpt lat="-27.8964" lon="-65.877285">
        <ele>1232.7</ele>
        <time>2018-08-19T22:32:09Z</time>
      </trkpt>
      <trkpt lat="-27.89643" lon="-65.87737">
        <ele>1232.3</ele>
        <time>2018-08-19T22:32:10Z</time>
      </trkpt>
      <trkpt lat="-27.896455" lon="-65.87747">
        <ele>1232.1</ele>
        <time>2018-08-19T22:32:11Z</time>
      </trkpt>
      <trkpt lat="-27.89649" lon="-65.877545">
        <ele>1231.7</ele>
        <time>2018-08-19T22:32:12Z</time>
      </trkpt>
      <trkpt lat="-27.896555" lon="-65.8776">
        <ele>1231.0</ele>
        <time>2018-08-19T22:32:13Z</time>
      </trkpt>
      <trkpt lat="-27.89661" lon="-65.877675">
        <ele>1230.4</ele>
        <time>2018-08-19T22:32:14Z</time>
      </trkpt>
      <trkpt lat="-27.89668" lon="-65.877725">
        <ele>1229.9</ele>
        <time>2018-08-19T22:32:15Z</time>
      </trkpt>
      <trkpt lat="-27.89675" lon="-65.877745">
        <ele>1229.6</ele>
        <time>2018-08-19T22:32:16Z</time>
      </trkpt>
      <trkpt lat="-27.896825" lon="-65.87779">
        <ele>1229.4</ele>
        <time>2018-08-19T22:32:17Z</time>
      </trkpt>
      <trkpt lat="-27.89696" lon="-65.877855">
        <ele>1229.0</ele>
        <time>2018-08-19T22:32:19Z</time>
      </trkpt>
      <trkpt lat="-27.897095" lon="-65.8779">
        <ele>1228.6</ele>
        <time>2018-08-19T22:32:21Z</time>
      </trkpt>
      <trkpt lat="-27.89724" lon="-65.87793">
        <ele>1228.5</ele>
        <time>2018-08-19T22:32:23Z</time>
      </trkpt>
      <trkpt lat="-27.897375" lon="-65.87797">
        <ele>1228.9</ele>
        <time>2018-08-19T22:32:25Z</time>
      </trkpt>
      <trkpt lat="-27.8975" lon="-65.878015">
        <ele>1229.0</ele>
        <time>2018-08-19T22:32:27Z</time>
      </trkpt>
      <trkpt lat="-27.89763" lon="-65.878055">
        <ele>1229.0</ele>
        <time>2018-08-19T22:32:29Z</time>
      </trkpt>
      <trkpt lat="-27.897765" lon="-65.8781">
        <ele>1228.5</ele>
        <time>2018-08-19T22:32:31Z</time>
      </trkpt>
      <trkpt lat="-27.89789" lon="-65.878145">
        <ele>1227.0</ele>
        <time>2018-08-19T22:32:33Z</time>
      </trkpt>
      <trkpt lat="-27.89798" lon="-65.87819">
        <ele>1225.8</ele>
        <time>2018-08-19T22:32:35Z</time>
      </trkpt>
      <trkpt lat="-27.898055" lon="-65.878235">
        <ele>1225.8</ele>
        <time>2018-08-19T22:32:37Z</time>
      </trkpt>
      <trkpt lat="-27.898115" lon="-65.87828">
        <ele>1225.9</ele>
        <time>2018-08-19T22:32:39Z</time>
      </trkpt>
      <trkpt lat="-27.898175" lon="-65.878335">
        <ele>1226.0</ele>
        <time>2018-08-19T22:32:42Z</time>
      </trkpt>
      <trkpt lat="-27.89825" lon="-65.87838">
        <ele>1226.2</ele>
        <time>2018-08-19T22:32:46Z</time>
      </trkpt>
      <trkpt lat="-27.898315" lon="-65.878445">
        <ele>1226.4</ele>
        <time>2018-08-19T22:32:49Z</time>
      </trkpt>
      <trkpt lat="-27.898375" lon="-65.878505">
        <ele>1226.7</ele>
        <time>2018-08-19T22:32:52Z</time>
      </trkpt>
      <trkpt lat="-27.898435" lon="-65.87855">
        <ele>1226.8</ele>
        <time>2018-08-19T22:32:55Z</time>
      </trkpt>
      <trkpt lat="-27.89851" lon="-65.87858666666666">
        <ele>1226.9</ele>
        <time>2018-08-19T22:32:58Z</time>
      </trkpt>
      <trkpt lat="-27.89858" lon="-65.878645">
        <ele>1227.1</ele>
        <time>2018-08-19T22:33:01Z</time>
      </trkpt>
      <trkpt lat="-27.89865" lon="-65.87872">
        <ele>1227.3</ele>
        <time>2018-08-19T22:33:05Z</time>
      </trkpt>
      <trkpt lat="-27.89872" lon="-65.87877">
        <ele>1227.5</ele>
        <time>2018-08-19T22:33:09Z</time>
      </trkpt>
      <trkpt lat="-27.898795" lon="-65.87884">
        <ele>1227.6</ele>
        <time>2018-08-19T22:33:13Z</time>
      </trkpt>
      <trkpt lat="-27.898855" lon="-65.878885">
        <ele>1227.9</ele>
        <time>2018-08-19T22:33:16Z</time>
      </trkpt>
      <trkpt lat="-27.89892" lon="-65.87894">
        <ele>1228.2</ele>
        <time>2018-08-19T22:33:20Z</time>
      </trkpt>
      <trkpt lat="-27.898985" lon="-65.879">
        <ele>1228.4</ele>
        <time>2018-08-19T22:33:24Z</time>
      </trkpt>
      <trkpt lat="-27.899065" lon="-65.87904">
        <ele>1228.7</ele>
        <time>2018-08-19T22:33:28Z</time>
      </trkpt>
      <trkpt lat="-27.899135" lon="-65.87912">
        <ele>1229.0</ele>
        <time>2018-08-19T22:33:32Z</time>
      </trkpt>
      <trkpt lat="-27.899205" lon="-65.879165">
        <ele>1229.2</ele>
        <time>2018-08-19T22:33:35Z</time>
      </trkpt>
      <trkpt lat="-27.89927" lon="-65.879205">
        <ele>1229.3</ele>
        <time>2018-08-19T22:33:38Z</time>
      </trkpt>
      <trkpt lat="-27.89934" lon="-65.879265">
        <ele>1229.6</ele>
        <time>2018-08-19T22:33:41Z</time>
      </trkpt>
      <trkpt lat="-27.8994" lon="-65.87932">
        <ele>1229.9</ele>
        <time>2018-08-19T22:33:43Z</time>
      </trkpt>
      <trkpt lat="-27.89947" lon="-65.879365">
        <ele>1230.3</ele>
        <time>2018-08-19T22:33:47Z</time>
      </trkpt>
      <trkpt lat="-27.899555" lon="-65.879405">
        <ele>1230.8</ele>
        <time>2018-08-19T22:33:51Z</time>
      </trkpt>
      <trkpt lat="-27.899625" lon="-65.87947">
        <ele>1231.2</ele>
        <time>2018-08-19T22:33:54Z</time>
      </trkpt>
      <trkpt lat="-27.89968" lon="-65.879515">
        <ele>1231.7</ele>
        <time>2018-08-19T22:33:57Z</time>
      </trkpt>
      <trkpt lat="-27.899745" lon="-65.879565">
        <ele>1232.3</ele>
        <time>2018-08-19T22:34:01Z</time>
      </trkpt>
      <trkpt lat="-27.899825" lon="-65.8796">
        <ele>1232.7</ele>
        <time>2018-08-19T22:34:06Z</time>
      </trkpt>
      <trkpt lat="-27.899905" lon="-65.879655">
        <ele>1233.0</ele>
        <time>2018-08-19T22:34:11Z</time>
      </trkpt>
      <trkpt lat="-27.89998" lon="-65.8797">
        <ele>1233.3</ele>
        <time>2018-08-19T22:34:16Z</time>
      </trkpt>
      <trkpt lat="-27.90005" lon="-65.879715">
        <ele>1233.5</ele>
        <time>2018-08-19T22:34:20Z</time>
      </trkpt>
      <trkpt lat="-27.90012" lon="-65.87976">
        <ele>1233.8</ele>
        <time>2018-08-19T22:34:24Z</time>
      </trkpt>
      <trkpt lat="-27.900195" lon="-65.879795">
        <ele>1234.2</ele>
        <time>2018-08-19T22:34:28Z</time>
      </trkpt>
      <trkpt lat="-27.900275" lon="-65.879845">
        <ele>1234.8</ele>
        <time>2018-08-19T22:34:33Z</time>
      </trkpt>
      <trkpt lat="-27.90035" lon="-65.879855">
        <ele>1235.2</ele>
        <time>2018-08-19T22:34:37Z</time>
      </trkpt>
      <trkpt lat="-27.90043" lon="-65.87989">
        <ele>1235.5</ele>
        <time>2018-08-19T22:34:44Z</time>
      </trkpt>
      <trkpt lat="-27.9005" lon="-65.879925">
        <ele>1235.7</ele>
        <time>2018-08-19T22:34:48Z</time>
      </trkpt>
      <trkpt lat="-27.900585" lon="-65.87994">
        <ele>1236.1</ele>
        <time>2018-08-19T22:34:53Z</time>
      </trkpt>
      <trkpt lat="-27.900665" lon="-65.879975">
        <ele>1236.4</ele>
        <time>2018-08-19T22:34:57Z</time>
      </trkpt>
      <trkpt lat="-27.90074" lon="-65.880005">
        <ele>1236.6</ele>
        <time>2018-08-19T22:35:01Z</time>
      </trkpt>
      <trkpt lat="-27.90081" lon="-65.880025">
        <ele>1237.0</ele>
        <time>2018-08-19T22:35:05Z</time>
      </trkpt>
      <trkpt lat="-27.90089" lon="-65.88007">
        <ele>1237.3</ele>
        <time>2018-08-19T22:35:09Z</time>
      </trkpt>
      <trkpt lat="-27.900965" lon="-65.880105">
        <ele>1237.7</ele>
        <time>2018-08-19T22:35:13Z</time>
      </trkpt>
      <trkpt lat="-27.90105" lon="-65.880125">
        <ele>1238.0</ele>
        <time>2018-08-19T22:35:17Z</time>
      </trkpt>
      <trkpt lat="-27.901135" lon="-65.88015">
        <ele>1238.3</ele>
        <time>2018-08-19T22:35:21Z</time>
      </trkpt>
      <trkpt lat="-27.901205" lon="-65.88019">
        <ele>1238.8</ele>
        <time>2018-08-19T22:35:25Z</time>
      </trkpt>
      <trkpt lat="-27.901275" lon="-65.880235">
        <ele>1239.4</ele>
        <time>2018-08-19T22:35:29Z</time>
      </trkpt>
      <trkpt lat="-27.901345" lon="-65.88025">
        <ele>1239.9</ele>
        <time>2018-08-19T22:35:33Z</time>
      </trkpt>
      <trkpt lat="-27.90143" lon="-65.880275">
        <ele>1240.6</ele>
        <time>2018-08-19T22:35:38Z</time>
      </trkpt>
      <trkpt lat="-27.901510000000002" lon="-65.880305">
        <ele>1241.4</ele>
        <time>2018-08-19T22:35:43Z</time>
      </trkpt>
      <trkpt lat="-27.90159" lon="-65.88034">
        <ele>1241.8</ele>
        <time>2018-08-19T22:35:47Z</time>
      </trkpt>
      <trkpt lat="-27.90167" lon="-65.88038">
        <ele>1242.0</ele>
        <time>2018-08-19T22:35:52Z</time>
      </trkpt>
      <trkpt lat="-27.90175" lon="-65.880415">
        <ele>1242.3</ele>
        <time>2018-08-19T22:35:57Z</time>
      </trkpt>
      <trkpt lat="-27.90183" lon="-65.880435">
        <ele>1242.9</ele>
        <time>2018-08-19T22:36:02Z</time>
      </trkpt>
      <trkpt lat="-27.901905" lon="-65.880475">
        <ele>1243.5</ele>
        <time>2018-08-19T22:36:07Z</time>
      </trkpt>
      <trkpt lat="-27.901980000000002" lon="-65.88051">
        <ele>1243.8</ele>
        <time>2018-08-19T22:36:12Z</time>
      </trkpt>
      <trkpt lat="-27.90205" lon="-65.88052">
        <ele>1244.0</ele>
        <time>2018-08-19T22:36:17Z</time>
      </trkpt>
      <trkpt lat="-27.90213" lon="-65.88052">
        <ele>1244.4</ele>
        <time>2018-08-19T22:36:24Z</time>
      </trkpt>
      <trkpt lat="-27.902185" lon="-65.880545">
        <ele>1244.2</ele>
        <time>2018-08-19T22:36:31Z</time>
      </trkpt>
      <trkpt lat="-27.90226" lon="-65.880555">
        <ele>1244.1</ele>
        <time>2018-08-19T22:36:36Z</time>
      </trkpt>
      <trkpt lat="-27.90233" lon="-65.880585">
        <ele>1244.3</ele>
        <time>2018-08-19T22:36:40Z</time>
      </trkpt>
      <trkpt lat="-27.90242" lon="-65.880615">
        <ele>1244.5</ele>
        <time>2018-08-19T22:36:46Z</time>
      </trkpt>
      <trkpt lat="-27.9025" lon="-65.88063">
        <ele>1244.6</ele>
        <time>2018-08-19T22:36:50Z</time>
      </trkpt>
      <trkpt lat="-27.902585" lon="-65.88066">
        <ele>1244.6</ele>
        <time>2018-08-19T22:36:55Z</time>
      </trkpt>
      <trkpt lat="-27.90266" lon="-65.88068">
        <ele>1244.6</ele>
        <time>2018-08-19T22:37:00Z</time>
      </trkpt>
      <trkpt lat="-27.902745" lon="-65.8807">
        <ele>1244.6</ele>
        <time>2018-08-19T22:37:04Z</time>
      </trkpt>
      <trkpt lat="-27.902815" lon="-65.880735">
        <ele>1244.7</ele>
        <time>2018-08-19T22:37:08Z</time>
      </trkpt>
      <trkpt lat="-27.9029" lon="-65.880765">
        <ele>1244.9</ele>
        <time>2018-08-19T22:37:12Z</time>
      </trkpt>
      <trkpt lat="-27.90299" lon="-65.88078">
        <ele>1245.1</ele>
        <time>2018-08-19T22:37:16Z</time>
      </trkpt>
      <trkpt lat="-27.90306" lon="-65.880825">
        <ele>1245.3</ele>
        <time>2018-08-19T22:37:19Z</time>
      </trkpt>
      <trkpt lat="-27.903135" lon="-65.880855">
        <ele>1245.5</ele>
        <time>2018-08-19T22:37:22Z</time>
      </trkpt>
      <trkpt lat="-27.90322" lon="-65.880885">
        <ele>1245.8</ele>
        <time>2018-08-19T22:37:26Z</time>
      </trkpt>
      <trkpt lat="-27.903305" lon="-65.880925">
        <ele>1246.1</ele>
        <time>2018-08-19T22:37:29Z</time>
      </trkpt>
      <trkpt lat="-27.903385" lon="-65.88096">
        <ele>1246.4</ele>
        <time>2018-08-19T22:37:32Z</time>
      </trkpt>
      <trkpt lat="-27.903455" lon="-65.88097">
        <ele>1246.5</ele>
        <time>2018-08-19T22:37:35Z</time>
      </trkpt>
      <trkpt lat="-27.90356" lon="-65.88101">
        <ele>1246.7</ele>
        <time>2018-08-19T22:37:38Z</time>
      </trkpt>
      <trkpt lat="-27.90364" lon="-65.881035">
        <ele>1247.0</ele>
        <time>2018-08-19T22:37:41Z</time>
      </trkpt>
      <trkpt lat="-27.903715" lon="-65.88105">
        <ele>1247.2</ele>
        <time>2018-08-19T22:37:44Z</time>
      </trkpt>
      <trkpt lat="-27.903795" lon="-65.881065">
        <ele>1247.6</ele>
        <time>2018-08-19T22:37:47Z</time>
      </trkpt>
      <trkpt lat="-27.903875" lon="-65.881065">
        <ele>1247.7</ele>
        <time>2018-08-19T22:37:50Z</time>
      </trkpt>
      <trkpt lat="-27.903955" lon="-65.881065">
        <ele>1247.7</ele>
        <time>2018-08-19T22:37:53Z</time>
      </trkpt>
      <trkpt lat="-27.90404" lon="-65.881055">
        <ele>1247.8</ele>
        <time>2018-08-19T22:37:56Z</time>
      </trkpt>
      <trkpt lat="-27.90412" lon="-65.881045">
        <ele>1247.8</ele>
        <time>2018-08-19T22:37:59Z</time>
      </trkpt>
      <trkpt lat="-27.90421" lon="-65.88101">
        <ele>1247.9</ele>
        <time>2018-08-19T22:38:03Z</time>
      </trkpt>
      <trkpt lat="-27.90428" lon="-65.881005">
        <ele>1248.0</ele>
        <time>2018-08-19T22:38:06Z</time>
      </trkpt>
      <trkpt lat="-27.90437" lon="-65.88097">
        <ele>1248.3</ele>
        <time>2018-08-19T22:38:10Z</time>
      </trkpt>
      <trkpt lat="-27.90444" lon="-65.88096">
        <ele>1248.6</ele>
        <time>2018-08-19T22:38:14Z</time>
      </trkpt>
      <trkpt lat="-27.904515" lon="-65.880925">
        <ele>1249.1</ele>
        <time>2018-08-19T22:38:18Z</time>
      </trkpt>
      <trkpt lat="-27.904605" lon="-65.880925">
        <ele>1250.1</ele>
        <time>2018-08-19T22:38:22Z</time>
      </trkpt>
      <trkpt lat="-27.90468" lon="-65.880885">
        <ele>1251.6</ele>
        <time>2018-08-19T22:38:28Z</time>
      </trkpt>
      <trkpt lat="-27.90475" lon="-65.880855">
        <ele>1253.1</ele>
        <time>2018-08-19T22:38:35Z</time>
      </trkpt>
      <trkpt lat="-27.904835" lon="-65.88083">
        <ele>1254.1</ele>
        <time>2018-08-19T22:38:40Z</time>
      </trkpt>
      <trkpt lat="-27.904905" lon="-65.88078">
        <ele>1255.0</ele>
        <time>2018-08-19T22:38:45Z</time>
      </trkpt>
      <trkpt lat="-27.90497" lon="-65.880745">
        <ele>1255.6</ele>
        <time>2018-08-19T22:38:50Z</time>
      </trkpt>
      <trkpt lat="-27.905035" lon="-65.8807">
        <ele>1255.8</ele>
        <time>2018-08-19T22:38:55Z</time>
      </trkpt>
      <trkpt lat="-27.90511" lon="-65.88066">
        <ele>1256.2</ele>
        <time>2018-08-19T22:39:01Z</time>
      </trkpt>
      <trkpt lat="-27.905175" lon="-65.8806">
        <ele>1256.9</ele>
        <time>2018-08-19T22:39:06Z</time>
      </trkpt>
      <trkpt lat="-27.90523" lon="-65.88052">
        <ele>1257.6</ele>
        <time>2018-08-19T22:39:11Z</time>
      </trkpt>
      <trkpt lat="-27.905265" lon="-65.880435">
        <ele>1258.2</ele>
        <time>2018-08-19T22:39:16Z</time>
      </trkpt>
      <trkpt lat="-27.905285" lon="-65.88037">
        <ele>1258.8</ele>
        <time>2018-08-19T22:39:22Z</time>
      </trkpt>
      <trkpt lat="-27.90532" lon="-65.88029">
        <ele>1260.0</ele>
        <time>2018-08-19T22:39:29Z</time>
      </trkpt>
      <trkpt lat="-27.905375" lon="-65.88021">
        <ele>1261.0</ele>
        <time>2018-08-19T22:39:35Z</time>
      </trkpt>
      <trkpt lat="-27.9054" lon="-65.880165">
        <ele>1261.5</ele>
        <time>2018-08-19T22:39:41Z</time>
      </trkpt>
      <trkpt lat="-27.9054" lon="-65.880165">
        <ele>1261.5</ele>
        <time>2018-08-19T22:39:44Z</time>
      </trkpt>
      <trkpt lat="-27.90541" lon="-65.88016">
        <ele>1261.3</ele>
        <time>2018-08-19T22:39:54Z</time>
      </trkpt>
      <trkpt lat="-27.90541" lon="-65.880155">
        <ele>1261.3</ele>
        <time>2018-08-19T22:39:55Z</time>
      </trkpt>
      <trkpt lat="-27.905405000000002" lon="-65.88016">
        <ele>1262.2</ele>
        <time>2018-08-19T22:40:07Z</time>
      </trkpt>
      <trkpt lat="-27.905405000000002" lon="-65.880155">
        <ele>1262.5</ele>
        <time>2018-08-19T22:40:08Z</time>
      </trkpt>
      <trkpt lat="-27.905425" lon="-65.880125">
        <ele>1263.7</ele>
        <time>2018-08-19T22:40:16Z</time>
      </trkpt>
      <trkpt lat="-27.905425" lon="-65.880125">
        <ele>1263.8</ele>
        <time>2018-08-19T22:40:17Z</time>
      </trkpt>
      <trkpt lat="-27.9054" lon="-65.880115">
        <ele>1263.8</ele>
        <time>2018-08-19T22:40:29Z</time>
      </trkpt>
      <trkpt lat="-27.9054" lon="-65.880115">
        <ele>1263.8</ele>
        <time>2018-08-19T22:40:29Z</time>
      </trkpt>
      <trkpt lat="-27.905425" lon="-65.880125">
        <ele>1263.7</ele>
        <time>2018-08-19T22:40:40Z</time>
      </trkpt>
      <trkpt lat="-27.905425" lon="-65.880115">
        <ele>1263.7</ele>
        <time>2018-08-19T22:40:40Z</time>
      </trkpt>
      <trkpt lat="-27.90546" lon="-65.880105">
        <ele>1263.7</ele>
        <time>2018-08-19T22:40:50Z</time>
      </trkpt>
      <trkpt lat="-27.90546" lon="-65.880105">
        <ele>1263.7</ele>
        <time>2018-08-19T22:40:51Z</time>
      </trkpt>
      <trkpt lat="-27.90544" lon="-65.880095">
        <ele>1263.8</ele>
        <time>2018-08-19T22:41:04Z</time>
      </trkpt>
      <trkpt lat="-27.90544" lon="-65.880095">
        <ele>1263.8</ele>
        <time>2018-08-19T22:41:05Z</time>
      </trkpt>
      <trkpt lat="-27.90545" lon="-65.88008">
        <ele>1263.8</ele>
        <time>2018-08-19T22:41:27Z</time>
      </trkpt>
      <trkpt lat="-27.90545" lon="-65.88007">
        <ele>1263.8</ele>
        <time>2018-08-19T22:41:28Z</time>
      </trkpt>
      <trkpt lat="-27.90544" lon="-65.88008">
        <ele>1263.7</ele>
        <time>2018-08-19T22:41:48Z</time>
      </trkpt>
      <trkpt lat="-27.90544" lon="-65.88008">
        <ele>1263.7</ele>
        <time>2018-08-19T22:41:49Z</time>
      </trkpt>
      <trkpt lat="-27.90545" lon="-65.8801">
        <ele>1263.8</ele>
        <time>2018-08-19T22:42:08Z</time>
      </trkpt>
      <trkpt lat="-27.90545" lon="-65.8801">
        <ele>1263.8</ele>
        <time>2018-08-19T22:42:09Z</time>
      </trkpt>
      <trkpt lat="-27.905425" lon="-65.880105">
        <ele>1263.6</ele>
        <time>2018-08-19T22:42:29Z</time>
      </trkpt>
      <trkpt lat="-27.905425" lon="-65.880105">
        <ele>1263.6</ele>
        <time>2018-08-19T22:42:31Z</time>
      </trkpt>
      <trkpt lat="-27.905465" lon="-65.88015">
        <ele>1263.8</ele>
        <time>2018-08-19T22:42:39Z</time>
      </trkpt>
      <trkpt lat="-27.905475" lon="-65.880145">
        <ele>1264.1</ele>
        <time>2018-08-19T22:42:44Z</time>
      </trkpt>
      <trkpt lat="-27.905485" lon="-65.880105">
        <ele>1265.4</ele>
        <time>2018-08-19T22:42:53Z</time>
      </trkpt>
      <trkpt lat="-27.905485" lon="-65.880105">
        <ele>1265.4</ele>
        <time>2018-08-19T22:42:54Z</time>
      </trkpt>
      <trkpt lat="-27.9055" lon="-65.880305">
        <ele>1266.2</ele>
        <time>2018-08-19T22:43:10Z</time>
      </trkpt>
      <trkpt lat="-27.905455" lon="-65.88008">
        <ele>1266.2</ele>
        <time>2018-08-19T22:43:12Z</time>
      </trkpt>
      <trkpt lat="-27.905455" lon="-65.88008">
        <ele>1265.9</ele>
        <time>2018-08-19T22:43:19Z</time>
      </trkpt>
      <trkpt lat="-27.905425" lon="-65.8801">
        <ele>1265.7</ele>
        <time>2018-08-19T22:43:30Z</time>
      </trkpt>
      <trkpt lat="-27.905425" lon="-65.8801">
        <ele>1266.2</ele>
        <time>2018-08-19T22:43:38Z</time>
      </trkpt>
      <trkpt lat="-27.905425" lon="-65.88008">
        <ele>1264.9</ele>
        <time>2018-08-19T22:44:36Z</time>
      </trkpt>
      <trkpt lat="-27.905425" lon="-65.88008">
        <ele>1264.9</ele>
        <time>2018-08-19T22:44:37Z</time>
      </trkpt>
      <trkpt lat="-27.90539" lon="-65.8801">
        <ele>1264.9</ele>
        <time>2018-08-19T22:51:52Z</time>
      </trkpt>
      <trkpt lat="-27.90534" lon="-65.88019">
        <ele>1265.3</ele>
        <time>2018-08-19T22:51:59Z</time>
      </trkpt>
      <trkpt lat="-27.90531" lon="-65.880295">
        <ele>1265.5</ele>
        <time>2018-08-19T22:52:02Z</time>
      </trkpt>
      <trkpt lat="-27.905265" lon="-65.88039">
        <ele>1267.0</ele>
        <time>2018-08-19T22:52:04Z</time>
      </trkpt>
      <trkpt lat="-27.905215" lon="-65.880515">
        <ele>1269.0</ele>
        <time>2018-08-19T22:52:06Z</time>
      </trkpt>
      <trkpt lat="-27.90513" lon="-65.880615">
        <ele>1269.6</ele>
        <time>2018-08-19T22:52:08Z</time>
      </trkpt>
      <trkpt lat="-27.90503" lon="-65.8807">
        <ele>1269.6</ele>
        <time>2018-08-19T22:52:10Z</time>
      </trkpt>
      <trkpt lat="-27.90492" lon="-65.880775">
        <ele>1267.9</ele>
        <time>2018-08-19T22:52:12Z</time>
      </trkpt>
      <trkpt lat="-27.904845" lon="-65.88081">
        <ele>1266.4</ele>
        <time>2018-08-19T22:52:13Z</time>
      </trkpt>
      <trkpt lat="-27.904775" lon="-65.88084">
        <ele>1265.0</ele>
        <time>2018-08-19T22:52:14Z</time>
      </trkpt>
      <trkpt lat="-27.90469" lon="-65.880885">
        <ele>1263.5</ele>
        <time>2018-08-19T22:52:15Z</time>
      </trkpt>
      <trkpt lat="-27.90462" lon="-65.88092">
        <ele>1262.4</ele>
        <time>2018-08-19T22:52:16Z</time>
      </trkpt>
      <trkpt lat="-27.904535" lon="-65.88095">
        <ele>1261.2</ele>
        <time>2018-08-19T22:52:17Z</time>
      </trkpt>
      <trkpt lat="-27.90444" lon="-65.88097">
        <ele>1260.4</ele>
        <time>2018-08-19T22:52:18Z</time>
      </trkpt>
      <trkpt lat="-27.90437" lon="-65.88101">
        <ele>1259.7</ele>
        <time>2018-08-19T22:52:19Z</time>
      </trkpt>
      <trkpt lat="-27.90429" lon="-65.88101166666667">
        <ele>1258.9</ele>
        <time>2018-08-19T22:52:20Z</time>
      </trkpt>
      <trkpt lat="-27.904215" lon="-65.88105">
        <ele>1258.7</ele>
        <time>2018-08-19T22:52:21Z</time>
      </trkpt>
      <trkpt lat="-27.904135" lon="-65.881055">
        <ele>1258.5</ele>
        <time>2018-08-19T22:52:22Z</time>
      </trkpt>
      <trkpt lat="-27.90399" lon="-65.881065">
        <ele>1258.8</ele>
        <time>2018-08-19T22:52:24Z</time>
      </trkpt>
      <trkpt lat="-27.90392" lon="-65.881065">
        <ele>1259.2</ele>
        <time>2018-08-19T22:52:25Z</time>
      </trkpt>
      <trkpt lat="-27.90378" lon="-65.881055">
        <ele>1258.2</ele>
        <time>2018-08-19T22:52:27Z</time>
      </trkpt>
      <trkpt lat="-27.903645" lon="-65.88101">
        <ele>1256.7</ele>
        <time>2018-08-19T22:52:29Z</time>
      </trkpt>
      <trkpt lat="-27.903505" lon="-65.88099">
        <ele>1256.5</ele>
        <time>2018-08-19T22:52:31Z</time>
      </trkpt>
      <trkpt lat="-27.903395" lon="-65.88092666666667">
        <ele>1255.1</ele>
        <time>2018-08-19T22:52:33Z</time>
      </trkpt>
      <trkpt lat="-27.903265" lon="-65.880905">
        <ele>1253.7</ele>
        <time>2018-08-19T22:52:35Z</time>
      </trkpt>
      <trkpt lat="-27.90318" lon="-65.880855">
        <ele>1252.6</ele>
        <time>2018-08-19T22:52:37Z</time>
      </trkpt>
      <trkpt lat="-27.903075" lon="-65.88078">
        <ele>1251.6</ele>
        <time>2018-08-19T22:52:39Z</time>
      </trkpt>
      <trkpt lat="-27.903005" lon="-65.8807">
        <ele>1251.5</ele>
        <time>2018-08-19T22:52:41Z</time>
      </trkpt>
      <trkpt lat="-27.902945" lon="-65.88064">
        <ele>1251.2</ele>
        <time>2018-08-19T22:52:44Z</time>
      </trkpt>
      <trkpt lat="-27.902885" lon="-65.880595">
        <ele>1250.9</ele>
        <time>2018-08-19T22:52:47Z</time>
      </trkpt>
      <trkpt lat="-27.902815" lon="-65.880555">
        <ele>1250.8</ele>
        <time>2018-08-19T22:52:50Z</time>
      </trkpt>
      <trkpt lat="-27.902745" lon="-65.88051">
        <ele>1250.5</ele>
        <time>2018-08-19T22:52:53Z</time>
      </trkpt>
      <trkpt lat="-27.902684999999998" lon="-65.880465">
        <ele>1250.1</ele>
        <time>2018-08-19T22:52:56Z</time>
      </trkpt>
      <trkpt lat="-27.90262" lon="-65.880425">
        <ele>1249.9</ele>
        <time>2018-08-19T22:52:59Z</time>
      </trkpt>
      <trkpt lat="-27.90254" lon="-65.88038">
        <ele>1249.9</ele>
        <time>2018-08-19T22:53:03Z</time>
      </trkpt>
      <trkpt lat="-27.90247" lon="-65.88033">
        <ele>1249.9</ele>
        <time>2018-08-19T22:53:06Z</time>
      </trkpt>
      <trkpt lat="-27.9024" lon="-65.88025">
        <ele>1250.2</ele>
        <time>2018-08-19T22:53:10Z</time>
      </trkpt>
      <trkpt lat="-27.902345" lon="-65.88021">
        <ele>1250.4</ele>
        <time>2018-08-19T22:53:13Z</time>
      </trkpt>
      <trkpt lat="-27.90228" lon="-65.880155">
        <ele>1250.6</ele>
        <time>2018-08-19T22:53:17Z</time>
      </trkpt>
      <trkpt lat="-27.902235" lon="-65.88008">
        <ele>1250.8</ele>
        <time>2018-08-19T22:53:21Z</time>
      </trkpt>
      <trkpt lat="-27.902175" lon="-65.880025">
        <ele>1251.2</ele>
        <time>2018-08-19T22:53:25Z</time>
      </trkpt>
      <trkpt lat="-27.902125" lon="-65.879965">
        <ele>1251.8</ele>
        <time>2018-08-19T22:53:30Z</time>
      </trkpt>
      <trkpt lat="-27.902125" lon="-65.8799">
        <ele>1252.7</ele>
        <time>2018-08-19T22:53:37Z</time>
      </trkpt>
      <trkpt lat="-27.902125" lon="-65.8799">
        <ele>1252.7</ele>
        <time>2018-08-19T22:53:40Z</time>
      </trkpt>
      <trkpt lat="-27.90212" lon="-65.879825">
        <ele>1256.5</ele>
        <time>2018-08-19T22:54:42Z</time>
      </trkpt>
      <trkpt lat="-27.90212" lon="-65.879825">
        <ele>1256.5</ele>
        <time>2018-08-19T22:54:43Z</time>
      </trkpt>
      <trkpt lat="-27.902305" lon="-65.88008">
        <ele>1241.7</ele>
        <time>2018-08-20T13:13:29Z</time>
      </trkpt>
      <trkpt lat="-27.902305" lon="-65.88008">
        <ele>1241.7</ele>
        <time>2018-08-20T13:13:34Z</time>
      </trkpt>
      <trkpt lat="-27.90222" lon="-65.879985">
        <ele>1250.9</ele>
        <time>2018-08-20T13:13:38Z</time>
      </trkpt>
      <trkpt lat="-27.902165" lon="-65.879975">
        <ele>1263.0</ele>
        <time>2018-08-20T13:13:45Z</time>
      </trkpt>
      <trkpt lat="-27.90212" lon="-65.88002">
        <ele>1270.2</ele>
        <time>2018-08-20T13:13:52Z</time>
      </trkpt>
      <trkpt lat="-27.90212" lon="-65.88002">
        <ele>1266.6</ele>
        <time>2018-08-20T13:13:56Z</time>
      </trkpt>
      <trkpt lat="-27.90224" lon="-65.88003166666667">
        <ele>1264.0</ele>
        <time>2018-08-20T13:15:12Z</time>
      </trkpt>
      <trkpt lat="-27.90234" lon="-65.879995">
        <ele>1263.6</ele>
        <time>2018-08-20T13:15:19Z</time>
      </trkpt>
      <trkpt lat="-27.902281666666667" lon="-65.88005">
        <ele>1262.4</ele>
        <time>2018-08-20T13:15:26Z</time>
      </trkpt>
      <trkpt lat="-27.902246666666667" lon="-65.88008">
        <ele>1261.6</ele>
        <time>2018-08-20T13:15:33Z</time>
      </trkpt>
      <trkpt lat="-27.902246666666667" lon="-65.88008">
        <ele>1261.6</ele>
        <time>2018-08-20T13:15:36Z</time>
      </trkpt>
      <trkpt lat="-27.90228" lon="-65.880155">
        <ele>1260.5</ele>
        <time>2018-08-20T13:15:48Z</time>
      </trkpt>
      <trkpt lat="-27.90232" lon="-65.880235">
        <ele>1259.8</ele>
        <time>2018-08-20T13:15:51Z</time>
      </trkpt>
      <trkpt lat="-27.9024" lon="-65.880305">
        <ele>1255.2</ele>
        <time>2018-08-20T13:15:54Z</time>
      </trkpt>
      <trkpt lat="-27.90247" lon="-65.88035333333333">
        <ele>1253.5</ele>
        <time>2018-08-20T13:15:56Z</time>
      </trkpt>
      <trkpt lat="-27.902565" lon="-65.880415">
        <ele>1252.6</ele>
        <time>2018-08-20T13:15:58Z</time>
      </trkpt>
      <trkpt lat="-27.90266" lon="-65.880475">
        <ele>1251.9</ele>
        <time>2018-08-20T13:16:00Z</time>
      </trkpt>
      <trkpt lat="-27.902755" lon="-65.88052666666667">
        <ele>1251.1</ele>
        <time>2018-08-20T13:16:02Z</time>
      </trkpt>
      <trkpt lat="-27.90283" lon="-65.880585">
        <ele>1250.3</ele>
        <time>2018-08-20T13:16:04Z</time>
      </trkpt>
      <trkpt lat="-27.9029" lon="-65.88063">
        <ele>1249.7</ele>
        <time>2018-08-20T13:16:06Z</time>
      </trkpt>
      <trkpt lat="-27.902965000000002" lon="-65.88067">
        <ele>1249.6</ele>
        <time>2018-08-20T13:16:08Z</time>
      </trkpt>
      <trkpt lat="-27.903035" lon="-65.88077">
        <ele>1250.0</ele>
        <time>2018-08-20T13:16:11Z</time>
      </trkpt>
      <trkpt lat="-27.903115" lon="-65.880855">
        <ele>1250.1</ele>
        <time>2018-08-20T13:16:13Z</time>
      </trkpt>
      <trkpt lat="-27.90321" lon="-65.880905">
        <ele>1249.3</ele>
        <time>2018-08-20T13:16:15Z</time>
      </trkpt>
      <trkpt lat="-27.9033" lon="-65.88093166666667">
        <ele>1248.6</ele>
        <time>2018-08-20T13:16:17Z</time>
      </trkpt>
      <trkpt lat="-27.90338" lon="-65.880965">
        <ele>1248.2</ele>
        <time>2018-08-20T13:16:19Z</time>
      </trkpt>
      <trkpt lat="-27.90347" lon="-65.880995">
        <ele>1247.8</ele>
        <time>2018-08-20T13:16:21Z</time>
      </trkpt>
      <trkpt lat="-27.903555" lon="-65.88102">
        <ele>1247.7</ele>
        <time>2018-08-20T13:16:23Z</time>
      </trkpt>
      <trkpt lat="-27.903635" lon="-65.881035">
        <ele>1247.9</ele>
        <time>2018-08-20T13:16:25Z</time>
      </trkpt>
      <trkpt lat="-27.90373" lon="-65.88105666666667">
        <ele>1247.5</ele>
        <time>2018-08-20T13:16:27Z</time>
      </trkpt>
      <trkpt lat="-27.90383" lon="-65.881065">
        <ele>1247.6</ele>
        <time>2018-08-20T13:16:29Z</time>
      </trkpt>
      <trkpt lat="-27.90391" lon="-65.881065">
        <ele>1248.0</ele>
        <time>2018-08-20T13:16:31Z</time>
      </trkpt>
      <trkpt lat="-27.90399" lon="-65.88106833333333">
        <ele>1247.9</ele>
        <time>2018-08-20T13:16:33Z</time>
      </trkpt>
      <trkpt lat="-27.904063333333333" lon="-65.881065">
        <ele>1247.8</ele>
        <time>2018-08-20T13:16:35Z</time>
      </trkpt>
      <trkpt lat="-27.904146666666666" lon="-65.88105">
        <ele>1247.9</ele>
        <time>2018-08-20T13:16:37Z</time>
      </trkpt>
      <trkpt lat="-27.90423" lon="-65.881025">
        <ele>1247.9</ele>
        <time>2018-08-20T13:16:39Z</time>
      </trkpt>
      <trkpt lat="-27.90433" lon="-65.881">
        <ele>1247.9</ele>
        <time>2018-08-20T13:16:42Z</time>
      </trkpt>
      <trkpt lat="-27.904425" lon="-65.88097">
        <ele>1247.9</ele>
        <time>2018-08-20T13:16:45Z</time>
      </trkpt>
      <trkpt lat="-27.90451" lon="-65.880935">
        <ele>1247.9</ele>
        <time>2018-08-20T13:16:48Z</time>
      </trkpt>
      <trkpt lat="-27.904595" lon="-65.880915">
        <ele>1248.0</ele>
        <time>2018-08-20T13:16:51Z</time>
      </trkpt>
      <trkpt lat="-27.90467" lon="-65.88087666666667">
        <ele>1248.1</ele>
        <time>2018-08-20T13:16:55Z</time>
      </trkpt>
      <trkpt lat="-27.90474" lon="-65.880855">
        <ele>1248.3</ele>
        <time>2018-08-20T13:16:59Z</time>
      </trkpt>
      <trkpt lat="-27.90482" lon="-65.88083">
        <ele>1248.4</ele>
        <time>2018-08-20T13:17:03Z</time>
      </trkpt>
      <trkpt lat="-27.90489" lon="-65.8808">
        <ele>1248.6</ele>
        <time>2018-08-20T13:17:06Z</time>
      </trkpt>
      <trkpt lat="-27.90497" lon="-65.88075666666667">
        <ele>1249.0</ele>
        <time>2018-08-20T13:17:10Z</time>
      </trkpt>
      <trkpt lat="-27.905045" lon="-65.88071166666667">
        <ele>1249.3</ele>
        <time>2018-08-20T13:17:16Z</time>
      </trkpt>
      <trkpt lat="-27.905105" lon="-65.88066">
        <ele>1249.3</ele>
        <time>2018-08-20T13:17:21Z</time>
      </trkpt>
      <trkpt lat="-27.905165" lon="-65.880605">
        <ele>1249.5</ele>
        <time>2018-08-20T13:17:26Z</time>
      </trkpt>
      <trkpt lat="-27.90521" lon="-65.88052166666667">
        <ele>1249.6</ele>
        <time>2018-08-20T13:17:30Z</time>
      </trkpt>
      <trkpt lat="-27.905255" lon="-65.88043833333333">
        <ele>1250.0</ele>
        <time>2018-08-20T13:17:34Z</time>
      </trkpt>
      <trkpt lat="-27.905295" lon="-65.88035833333333">
        <ele>1250.8</ele>
        <time>2018-08-20T13:17:38Z</time>
      </trkpt>
      <trkpt lat="-27.905321666666666" lon="-65.880275">
        <ele>1251.9</ele>
        <time>2018-08-20T13:17:42Z</time>
      </trkpt>
      <trkpt lat="-27.905355" lon="-65.88019">
        <ele>1253.3</ele>
        <time>2018-08-20T13:17:47Z</time>
      </trkpt>
      <trkpt lat="-27.905405000000002" lon="-65.88011666666667">
        <ele>1254.3</ele>
        <time>2018-08-20T13:17:52Z</time>
      </trkpt>
      <trkpt lat="-27.905433333333335" lon="-65.880025">
        <ele>1254.8</ele>
        <time>2018-08-20T13:17:57Z</time>
      </trkpt>
      <trkpt lat="-27.905475" lon="-65.87994166666667">
        <ele>1255.4</ele>
        <time>2018-08-20T13:18:01Z</time>
      </trkpt>
      <trkpt lat="-27.905511666666666" lon="-65.87988">
        <ele>1256.1</ele>
        <time>2018-08-20T13:18:05Z</time>
      </trkpt>
      <trkpt lat="-27.90556" lon="-65.87980166666667">
        <ele>1256.6</ele>
        <time>2018-08-20T13:18:09Z</time>
      </trkpt>
      <trkpt lat="-27.905615" lon="-65.87973">
        <ele>1257.1</ele>
        <time>2018-08-20T13:18:13Z</time>
      </trkpt>
      <trkpt lat="-27.905675" lon="-65.879675">
        <ele>1257.7</ele>
        <time>2018-08-20T13:18:17Z</time>
      </trkpt>
      <trkpt lat="-27.905736666666666" lon="-65.8796">
        <ele>1258.1</ele>
        <time>2018-08-20T13:18:21Z</time>
      </trkpt>
      <trkpt lat="-27.905805" lon="-65.87953">
        <ele>1258.3</ele>
        <time>2018-08-20T13:18:24Z</time>
      </trkpt>
      <trkpt lat="-27.905875" lon="-65.87945">
        <ele>1258.0</ele>
        <time>2018-08-20T13:18:27Z</time>
      </trkpt>
      <trkpt lat="-27.905945" lon="-65.879385">
        <ele>1257.2</ele>
        <time>2018-08-20T13:18:29Z</time>
      </trkpt>
      <trkpt lat="-27.90602" lon="-65.879305">
        <ele>1256.0</ele>
        <time>2018-08-20T13:18:31Z</time>
      </trkpt>
      <trkpt lat="-27.906109999999998" lon="-65.879205">
        <ele>1254.9</ele>
        <time>2018-08-20T13:18:33Z</time>
      </trkpt>
      <trkpt lat="-27.906205" lon="-65.879115">
        <ele>1254.3</ele>
        <time>2018-08-20T13:18:35Z</time>
      </trkpt>
      <trkpt lat="-27.90626" lon="-65.879055">
        <ele>1254.1</ele>
        <time>2018-08-20T13:18:36Z</time>
      </trkpt>
      <trkpt lat="-27.90632" lon="-65.879">
        <ele>1253.9</ele>
        <time>2018-08-20T13:18:37Z</time>
      </trkpt>
      <trkpt lat="-27.906375" lon="-65.878945">
        <ele>1253.6</ele>
        <time>2018-08-20T13:18:38Z</time>
      </trkpt>
      <trkpt lat="-27.90643" lon="-65.878885">
        <ele>1253.3</ele>
        <time>2018-08-20T13:18:39Z</time>
      </trkpt>
      <trkpt lat="-27.906486666666666" lon="-65.87881">
        <ele>1253.2</ele>
        <time>2018-08-20T13:18:40Z</time>
      </trkpt>
      <trkpt lat="-27.906555" lon="-65.878745">
        <ele>1253.2</ele>
        <time>2018-08-20T13:18:41Z</time>
      </trkpt>
      <trkpt lat="-27.906606666666665" lon="-65.87869">
        <ele>1253.1</ele>
        <time>2018-08-20T13:18:42Z</time>
      </trkpt>
      <trkpt lat="-27.906675" lon="-65.878625">
        <ele>1252.9</ele>
        <time>2018-08-20T13:18:43Z</time>
      </trkpt>
      <trkpt lat="-27.90675" lon="-65.878545">
        <ele>1252.7</ele>
        <time>2018-08-20T13:18:44Z</time>
      </trkpt>
      <trkpt lat="-27.90682" lon="-65.87847666666667">
        <ele>1252.4</ele>
        <time>2018-08-20T13:18:45Z</time>
      </trkpt>
      <trkpt lat="-27.906885" lon="-65.87842">
        <ele>1251.9</ele>
        <time>2018-08-20T13:18:46Z</time>
      </trkpt>
      <trkpt lat="-27.906965" lon="-65.87836">
        <ele>1251.8</ele>
        <time>2018-08-20T13:18:47Z</time>
      </trkpt>
      <trkpt lat="-27.907045" lon="-65.878305">
        <ele>1251.7</ele>
        <time>2018-08-20T13:18:48Z</time>
      </trkpt>
      <trkpt lat="-27.90713" lon="-65.87824166666667">
        <ele>1251.9</ele>
        <time>2018-08-20T13:18:49Z</time>
      </trkpt>
      <trkpt lat="-27.907205" lon="-65.878195">
        <ele>1251.8</ele>
        <time>2018-08-20T13:18:50Z</time>
      </trkpt>
      <trkpt lat="-27.90729" lon="-65.878145">
        <ele>1251.3</ele>
        <time>2018-08-20T13:18:51Z</time>
      </trkpt>
      <trkpt lat="-27.907385" lon="-65.87809">
        <ele>1250.8</ele>
        <time>2018-08-20T13:18:52Z</time>
      </trkpt>
      <trkpt lat="-27.90749" lon="-65.87802166666667">
        <ele>1250.5</ele>
        <time>2018-08-20T13:18:53Z</time>
      </trkpt>
      <trkpt lat="-27.9076" lon="-65.877955">
        <ele>1250.1</ele>
        <time>2018-08-20T13:18:54Z</time>
      </trkpt>
      <trkpt lat="-27.907705" lon="-65.877885">
        <ele>1249.5</ele>
        <time>2018-08-20T13:18:55Z</time>
      </trkpt>
      <trkpt lat="-27.907815" lon="-65.87782">
        <ele>1248.5</ele>
        <time>2018-08-20T13:18:56Z</time>
      </trkpt>
      <trkpt lat="-27.907925" lon="-65.87774666666667">
        <ele>1247.4</ele>
        <time>2018-08-20T13:18:57Z</time>
      </trkpt>
      <trkpt lat="-27.90804" lon="-65.877685">
        <ele>1246.4</ele>
        <time>2018-08-20T13:18:58Z</time>
      </trkpt>
      <trkpt lat="-27.90815" lon="-65.87760333333334">
        <ele>1245.2</ele>
        <time>2018-08-20T13:18:59Z</time>
      </trkpt>
      <trkpt lat="-27.908265" lon="-65.877525">
        <ele>1244.1</ele>
        <time>2018-08-20T13:19:00Z</time>
      </trkpt>
      <trkpt lat="-27.90838" lon="-65.87744833333333">
        <ele>1243.3</ele>
        <time>2018-08-20T13:19:01Z</time>
      </trkpt>
      <trkpt lat="-27.9085" lon="-65.877375">
        <ele>1242.3</ele>
        <time>2018-08-20T13:19:02Z</time>
      </trkpt>
      <trkpt lat="-27.90862" lon="-65.87732">
        <ele>1241.1</ele>
        <time>2018-08-20T13:19:03Z</time>
      </trkpt>
      <trkpt lat="-27.908726666666666" lon="-65.877275">
        <ele>1239.8</ele>
        <time>2018-08-20T13:19:04Z</time>
      </trkpt>
      <trkpt lat="-27.908855" lon="-65.87722666666667">
        <ele>1238.6</ele>
        <time>2018-08-20T13:19:05Z</time>
      </trkpt>
      <trkpt lat="-27.90897" lon="-65.877205">
        <ele>1237.5</ele>
        <time>2018-08-20T13:19:06Z</time>
      </trkpt>
      <trkpt lat="-27.9091" lon="-65.87717666666667">
        <ele>1236.5</ele>
        <time>2018-08-20T13:19:07Z</time>
      </trkpt>
      <trkpt lat="-27.909225" lon="-65.87715">
        <ele>1235.9</ele>
        <time>2018-08-20T13:19:08Z</time>
      </trkpt>
      <trkpt lat="-27.90933" lon="-65.877125">
        <ele>1235.6</ele>
        <time>2018-08-20T13:19:09Z</time>
      </trkpt>
      <trkpt lat="-27.909451666666666" lon="-65.877095">
        <ele>1235.2</ele>
        <time>2018-08-20T13:19:10Z</time>
      </trkpt>
      <trkpt lat="-27.909555" lon="-65.87707">
        <ele>1235.1</ele>
        <time>2018-08-20T13:19:11Z</time>
      </trkpt>
      <trkpt lat="-27.90966" lon="-65.87704166666667">
        <ele>1235.1</ele>
        <time>2018-08-20T13:19:12Z</time>
      </trkpt>
      <trkpt lat="-27.909765" lon="-65.87701">
        <ele>1234.6</ele>
        <time>2018-08-20T13:19:13Z</time>
      </trkpt>
      <trkpt lat="-27.90986" lon="-65.87698">
        <ele>1234.3</ele>
        <time>2018-08-20T13:19:14Z</time>
      </trkpt>
      <trkpt lat="-27.909965" lon="-65.87693666666667">
        <ele>1233.9</ele>
        <time>2018-08-20T13:19:15Z</time>
      </trkpt>
      <trkpt lat="-27.910055" lon="-65.87690333333333">
        <ele>1233.5</ele>
        <time>2018-08-20T13:19:16Z</time>
      </trkpt>
      <trkpt lat="-27.910145" lon="-65.87688">
        <ele>1233.0</ele>
        <time>2018-08-20T13:19:17Z</time>
      </trkpt>
      <trkpt lat="-27.910235" lon="-65.87684333333333">
        <ele>1232.6</ele>
        <time>2018-08-20T13:19:18Z</time>
      </trkpt>
      <trkpt lat="-27.910316666666667" lon="-65.876825">
        <ele>1232.2</ele>
        <time>2018-08-20T13:19:19Z</time>
      </trkpt>
      <trkpt lat="-27.910401666666665" lon="-65.87678666666666">
        <ele>1231.8</ele>
        <time>2018-08-20T13:19:20Z</time>
      </trkpt>
      <trkpt lat="-27.91049" lon="-65.87676">
        <ele>1231.7</ele>
        <time>2018-08-20T13:19:21Z</time>
      </trkpt>
      <trkpt lat="-27.910575" lon="-65.87674">
        <ele>1231.7</ele>
        <time>2018-08-20T13:19:22Z</time>
      </trkpt>
      <trkpt lat="-27.910655" lon="-65.87671333333333">
        <ele>1232.1</ele>
        <time>2018-08-20T13:19:23Z</time>
      </trkpt>
      <trkpt lat="-27.910738333333335" lon="-65.87669">
        <ele>1231.9</ele>
        <time>2018-08-20T13:19:24Z</time>
      </trkpt>
      <trkpt lat="-27.91081833333333" lon="-65.876665">
        <ele>1231.8</ele>
        <time>2018-08-20T13:19:25Z</time>
      </trkpt>
      <trkpt lat="-27.910905" lon="-65.876645">
        <ele>1231.4</ele>
        <time>2018-08-20T13:19:26Z</time>
      </trkpt>
      <trkpt lat="-27.910985" lon="-65.876615">
        <ele>1230.9</ele>
        <time>2018-08-20T13:19:27Z</time>
      </trkpt>
      <trkpt lat="-27.91106" lon="-65.87658166666667">
        <ele>1230.3</ele>
        <time>2018-08-20T13:19:28Z</time>
      </trkpt>
      <trkpt lat="-27.911405" lon="-65.876335">
        <ele>1228.5</ele>
        <time>2018-08-20T13:19:36Z</time>
      </trkpt>
      <trkpt lat="-27.91148" lon="-65.87626">
        <ele>1232.0</ele>
        <time>2018-08-20T13:19:38Z</time>
      </trkpt>
      <trkpt lat="-27.91163" lon="-65.87602666666666">
        <ele>1235.4</ele>
        <time>2018-08-20T13:19:41Z</time>
      </trkpt>
      <trkpt lat="-27.91168" lon="-65.87596">
        <ele>1235.0</ele>
        <time>2018-08-20T13:19:42Z</time>
      </trkpt>
      <trkpt lat="-27.911745" lon="-65.875905">
        <ele>1233.6</ele>
        <time>2018-08-20T13:19:43Z</time>
      </trkpt>
      <trkpt lat="-27.911825" lon="-65.87582">
        <ele>1226.5</ele>
        <time>2018-08-20T13:19:44Z</time>
      </trkpt>
      <trkpt lat="-27.911885" lon="-65.87574166666667">
        <ele>1226.9</ele>
        <time>2018-08-20T13:19:45Z</time>
      </trkpt>
      <trkpt lat="-27.911958333333335" lon="-65.87563666666667">
        <ele>1226.9</ele>
        <time>2018-08-20T13:19:46Z</time>
      </trkpt>
      <trkpt lat="-27.91205" lon="-65.87556333333333">
        <ele>1223.7</ele>
        <time>2018-08-20T13:19:47Z</time>
      </trkpt>
      <trkpt lat="-27.91215" lon="-65.87543166666667">
        <ele>1224.5</ele>
        <time>2018-08-20T13:19:49Z</time>
      </trkpt>
      <trkpt lat="-27.912216666666666" lon="-65.87535">
        <ele>1224.8</ele>
        <time>2018-08-20T13:19:50Z</time>
      </trkpt>
      <trkpt lat="-27.912285" lon="-65.875265">
        <ele>1222.5</ele>
        <time>2018-08-20T13:19:51Z</time>
      </trkpt>
      <trkpt lat="-27.91235" lon="-65.87519">
        <ele>1221.7</ele>
        <time>2018-08-20T13:19:52Z</time>
      </trkpt>
      <trkpt lat="-27.91240833333333" lon="-65.8751">
        <ele>1221.1</ele>
        <time>2018-08-20T13:19:53Z</time>
      </trkpt>
      <trkpt lat="-27.912475" lon="-65.875015">
        <ele>1219.2</ele>
        <time>2018-08-20T13:19:54Z</time>
      </trkpt>
      <trkpt lat="-27.91254" lon="-65.87493">
        <ele>1218.8</ele>
        <time>2018-08-20T13:19:55Z</time>
      </trkpt>
      <trkpt lat="-27.91261" lon="-65.874865">
        <ele>1222.5</ele>
        <time>2018-08-20T13:19:56Z</time>
      </trkpt>
      <trkpt lat="-27.912685" lon="-65.87479">
        <ele>1223.4</ele>
        <time>2018-08-20T13:19:57Z</time>
      </trkpt>
      <trkpt lat="-27.912735" lon="-65.874705">
        <ele>1223.2</ele>
        <time>2018-08-20T13:19:58Z</time>
      </trkpt>
      <trkpt lat="-27.912776666666666" lon="-65.874635">
        <ele>1222.6</ele>
        <time>2018-08-20T13:19:59Z</time>
      </trkpt>
      <trkpt lat="-27.91281" lon="-65.874555">
        <ele>1223.1</ele>
        <time>2018-08-20T13:20:00Z</time>
      </trkpt>
      <trkpt lat="-27.912845" lon="-65.87447">
        <ele>1221.7</ele>
        <time>2018-08-20T13:20:01Z</time>
      </trkpt>
      <trkpt lat="-27.91288" lon="-65.87431">
        <ele>1220.6</ele>
        <time>2018-08-20T13:20:03Z</time>
      </trkpt>
      <trkpt lat="-27.91287" lon="-65.874195">
        <ele>1222.1</ele>
        <time>2018-08-20T13:20:05Z</time>
      </trkpt>
      <trkpt lat="-27.91288" lon="-65.874095">
        <ele>1224.2</ele>
        <time>2018-08-20T13:20:07Z</time>
      </trkpt>
      <trkpt lat="-27.9129" lon="-65.87398">
        <ele>1223.6</ele>
        <time>2018-08-20T13:20:10Z</time>
      </trkpt>
      <trkpt lat="-27.91292" lon="-65.873875">
        <ele>1223.4</ele>
        <time>2018-08-20T13:20:13Z</time>
      </trkpt>
      <trkpt lat="-27.91294" lon="-65.87376833333333">
        <ele>1223.5</ele>
        <time>2018-08-20T13:20:16Z</time>
      </trkpt>
      <trkpt lat="-27.912955" lon="-65.87366">
        <ele>1223.7</ele>
        <time>2018-08-20T13:20:19Z</time>
      </trkpt>
      <trkpt lat="-27.912965" lon="-65.87356">
        <ele>1223.8</ele>
        <time>2018-08-20T13:20:22Z</time>
      </trkpt>
      <trkpt lat="-27.91299" lon="-65.87344666666667">
        <ele>1224.1</ele>
        <time>2018-08-20T13:20:25Z</time>
      </trkpt>
      <trkpt lat="-27.913011666666666" lon="-65.873345">
        <ele>1224.3</ele>
        <time>2018-08-20T13:20:28Z</time>
      </trkpt>
      <trkpt lat="-27.91304" lon="-65.87323">
        <ele>1224.6</ele>
        <time>2018-08-20T13:20:31Z</time>
      </trkpt>
      <trkpt lat="-27.913075" lon="-65.873135">
        <ele>1224.7</ele>
        <time>2018-08-20T13:20:34Z</time>
      </trkpt>
      <trkpt lat="-27.913115" lon="-65.873045">
        <ele>1224.9</ele>
        <time>2018-08-20T13:20:37Z</time>
      </trkpt>
      <trkpt lat="-27.913165" lon="-65.872975">
        <ele>1225.0</ele>
        <time>2018-08-20T13:20:39Z</time>
      </trkpt>
      <trkpt lat="-27.91321" lon="-65.8729">
        <ele>1225.2</ele>
        <time>2018-08-20T13:20:41Z</time>
      </trkpt>
      <trkpt lat="-27.913271666666667" lon="-65.872805">
        <ele>1225.4</ele>
        <time>2018-08-20T13:20:44Z</time>
      </trkpt>
      <trkpt lat="-27.913325" lon="-65.872735">
        <ele>1225.8</ele>
        <time>2018-08-20T13:20:46Z</time>
      </trkpt>
      <trkpt lat="-27.91339" lon="-65.872645">
        <ele>1225.3</ele>
        <time>2018-08-20T13:20:49Z</time>
      </trkpt>
      <trkpt lat="-27.91345" lon="-65.87259">
        <ele>1225.2</ele>
        <time>2018-08-20T13:20:51Z</time>
      </trkpt>
      <trkpt lat="-27.91351" lon="-65.87252666666667">
        <ele>1225.5</ele>
        <time>2018-08-20T13:20:53Z</time>
      </trkpt>
      <trkpt lat="-27.91357" lon="-65.87247">
        <ele>1225.8</ele>
        <time>2018-08-20T13:20:55Z</time>
      </trkpt>
      <trkpt lat="-27.91364" lon="-65.87241">
        <ele>1225.2</ele>
        <time>2018-08-20T13:20:57Z</time>
      </trkpt>
      <trkpt lat="-27.913705" lon="-65.872355">
        <ele>1223.6</ele>
        <time>2018-08-20T13:20:59Z</time>
      </trkpt>
      <trkpt lat="-27.91378" lon="-65.872285">
        <ele>1222.4</ele>
        <time>2018-08-20T13:21:01Z</time>
      </trkpt>
      <trkpt lat="-27.913865" lon="-65.872215">
        <ele>1221.6</ele>
        <time>2018-08-20T13:21:03Z</time>
      </trkpt>
      <trkpt lat="-27.91395" lon="-65.872145">
        <ele>1220.8</ele>
        <time>2018-08-20T13:21:05Z</time>
      </trkpt>
      <trkpt lat="-27.91404" lon="-65.87206">
        <ele>1220.1</ele>
        <time>2018-08-20T13:21:07Z</time>
      </trkpt>
      <trkpt lat="-27.914125" lon="-65.87197833333333">
        <ele>1219.1</ele>
        <time>2018-08-20T13:21:09Z</time>
      </trkpt>
      <trkpt lat="-27.91422" lon="-65.871885">
        <ele>1219.4</ele>
        <time>2018-08-20T13:21:11Z</time>
      </trkpt>
      <trkpt lat="-27.91428" lon="-65.871835">
        <ele>1219.9</ele>
        <time>2018-08-20T13:21:12Z</time>
      </trkpt>
      <trkpt lat="-27.91433" lon="-65.871775">
        <ele>1220.6</ele>
        <time>2018-08-20T13:21:13Z</time>
      </trkpt>
      <trkpt lat="-27.914435" lon="-65.87168">
        <ele>1222.2</ele>
        <time>2018-08-20T13:21:15Z</time>
      </trkpt>
      <trkpt lat="-27.914521666666666" lon="-65.87157">
        <ele>1223.3</ele>
        <time>2018-08-20T13:21:17Z</time>
      </trkpt>
      <trkpt lat="-27.914615" lon="-65.871465">
        <ele>1224.4</ele>
        <time>2018-08-20T13:21:19Z</time>
      </trkpt>
      <trkpt lat="-27.91469" lon="-65.871365">
        <ele>1225.1</ele>
        <time>2018-08-20T13:21:21Z</time>
      </trkpt>
      <trkpt lat="-27.914765" lon="-65.87126333333333">
        <ele>1225.2</ele>
        <time>2018-08-20T13:21:23Z</time>
      </trkpt>
      <trkpt lat="-27.914835" lon="-65.87116833333333">
        <ele>1225.2</ele>
        <time>2018-08-20T13:21:25Z</time>
      </trkpt>
      <trkpt lat="-27.91491" lon="-65.871075">
        <ele>1225.2</ele>
        <time>2018-08-20T13:21:27Z</time>
      </trkpt>
      <trkpt lat="-27.91498" lon="-65.87099">
        <ele>1225.3</ele>
        <time>2018-08-20T13:21:29Z</time>
      </trkpt>
      <trkpt lat="-27.91503" lon="-65.87090666666667">
        <ele>1224.7</ele>
        <time>2018-08-20T13:21:31Z</time>
      </trkpt>
      <trkpt lat="-27.91509" lon="-65.87083">
        <ele>1224.4</ele>
        <time>2018-08-20T13:21:33Z</time>
      </trkpt>
      <trkpt lat="-27.915145" lon="-65.870765">
        <ele>1225.1</ele>
        <time>2018-08-20T13:21:35Z</time>
      </trkpt>
      <trkpt lat="-27.9152" lon="-65.8707">
        <ele>1225.7</ele>
        <time>2018-08-20T13:21:37Z</time>
      </trkpt>
      <trkpt lat="-27.91525" lon="-65.87062666666667">
        <ele>1225.9</ele>
        <time>2018-08-20T13:21:39Z</time>
      </trkpt>
      <trkpt lat="-27.9153" lon="-65.870565">
        <ele>1226.0</ele>
        <time>2018-08-20T13:21:41Z</time>
      </trkpt>
      <trkpt lat="-27.91535" lon="-65.87050166666667">
        <ele>1226.0</ele>
        <time>2018-08-20T13:21:43Z</time>
      </trkpt>
      <trkpt lat="-27.91542" lon="-65.870425">
        <ele>1226.0</ele>
        <time>2018-08-20T13:21:46Z</time>
      </trkpt>
      <trkpt lat="-27.915485" lon="-65.87034166666666">
        <ele>1225.9</ele>
        <time>2018-08-20T13:21:49Z</time>
      </trkpt>
      <trkpt lat="-27.915535" lon="-65.87026833333333">
        <ele>1225.8</ele>
        <time>2018-08-20T13:21:52Z</time>
      </trkpt>
      <trkpt lat="-27.915595" lon="-65.87018833333333">
        <ele>1225.6</ele>
        <time>2018-08-20T13:21:55Z</time>
      </trkpt>
      <trkpt lat="-27.915655" lon="-65.87011666666666">
        <ele>1225.4</ele>
        <time>2018-08-20T13:21:58Z</time>
      </trkpt>
      <trkpt lat="-27.915715" lon="-65.87005">
        <ele>1225.3</ele>
        <time>2018-08-20T13:22:01Z</time>
      </trkpt>
      <trkpt lat="-27.91577" lon="-65.869985">
        <ele>1225.2</ele>
        <time>2018-08-20T13:22:04Z</time>
      </trkpt>
      <trkpt lat="-27.91582" lon="-65.869915">
        <ele>1225.2</ele>
        <time>2018-08-20T13:22:07Z</time>
      </trkpt>
      <trkpt lat="-27.915869999999998" lon="-65.86986">
        <ele>1225.2</ele>
        <time>2018-08-20T13:22:10Z</time>
      </trkpt>
      <trkpt lat="-27.91592" lon="-65.86978833333333">
        <ele>1225.2</ele>
        <time>2018-08-20T13:22:13Z</time>
      </trkpt>
      <trkpt lat="-27.915985" lon="-65.86971">
        <ele>1225.2</ele>
        <time>2018-08-20T13:22:17Z</time>
      </trkpt>
      <trkpt lat="-27.91603" lon="-65.86964">
        <ele>1225.3</ele>
        <time>2018-08-20T13:22:20Z</time>
      </trkpt>
      <trkpt lat="-27.916095" lon="-65.86956">
        <ele>1225.5</ele>
        <time>2018-08-20T13:22:24Z</time>
      </trkpt>
      <trkpt lat="-27.916155" lon="-65.869485">
        <ele>1225.6</ele>
        <time>2018-08-20T13:22:28Z</time>
      </trkpt>
      <trkpt lat="-27.91621" lon="-65.86941">
        <ele>1225.8</ele>
        <time>2018-08-20T13:22:32Z</time>
      </trkpt>
      <trkpt lat="-27.91626" lon="-65.869345">
        <ele>1226.0</ele>
        <time>2018-08-20T13:22:35Z</time>
      </trkpt>
      <trkpt lat="-27.91632" lon="-65.86927">
        <ele>1226.2</ele>
        <time>2018-08-20T13:22:39Z</time>
      </trkpt>
      <trkpt lat="-27.91637" lon="-65.86918833333333">
        <ele>1226.4</ele>
        <time>2018-08-20T13:22:43Z</time>
      </trkpt>
      <trkpt lat="-27.916425" lon="-65.86911833333333">
        <ele>1226.7</ele>
        <time>2018-08-20T13:22:47Z</time>
      </trkpt>
      <trkpt lat="-27.916485" lon="-65.869045">
        <ele>1227.0</ele>
        <time>2018-08-20T13:22:51Z</time>
      </trkpt>
      <trkpt lat="-27.916535" lon="-65.86896333333334">
        <ele>1227.3</ele>
        <time>2018-08-20T13:22:55Z</time>
      </trkpt>
      <trkpt lat="-27.9166" lon="-65.868885">
        <ele>1227.7</ele>
        <time>2018-08-20T13:22:59Z</time>
      </trkpt>
      <trkpt lat="-27.916641666666667" lon="-65.86883">
        <ele>1227.9</ele>
        <time>2018-08-20T13:23:02Z</time>
      </trkpt>
      <trkpt lat="-27.916691666666665" lon="-65.86876333333333">
        <ele>1228.1</ele>
        <time>2018-08-20T13:23:05Z</time>
      </trkpt>
      <trkpt lat="-27.916745" lon="-65.8687">
        <ele>1228.4</ele>
        <time>2018-08-20T13:23:09Z</time>
      </trkpt>
      <trkpt lat="-27.916795" lon="-65.868645">
        <ele>1228.7</ele>
        <time>2018-08-20T13:23:13Z</time>
      </trkpt>
      <trkpt lat="-27.91685" lon="-65.86857">
        <ele>1229.1</ele>
        <time>2018-08-20T13:23:17Z</time>
      </trkpt>
      <trkpt lat="-27.916905" lon="-65.8685">
        <ele>1229.3</ele>
        <time>2018-08-20T13:23:21Z</time>
      </trkpt>
      <trkpt lat="-27.91695" lon="-65.86843">
        <ele>1229.5</ele>
        <time>2018-08-20T13:23:24Z</time>
      </trkpt>
      <trkpt lat="-27.917005" lon="-65.86836166666667">
        <ele>1229.6</ele>
        <time>2018-08-20T13:23:27Z</time>
      </trkpt>
      <trkpt lat="-27.917055" lon="-65.868295">
        <ele>1229.5</ele>
        <time>2018-08-20T13:23:30Z</time>
      </trkpt>
      <trkpt lat="-27.917105" lon="-65.868215">
        <ele>1229.4</ele>
        <time>2018-08-20T13:23:33Z</time>
      </trkpt>
      <trkpt lat="-27.917175" lon="-65.868135">
        <ele>1229.3</ele>
        <time>2018-08-20T13:23:36Z</time>
      </trkpt>
      <trkpt lat="-27.917245" lon="-65.868035">
        <ele>1229.3</ele>
        <time>2018-08-20T13:23:39Z</time>
      </trkpt>
      <trkpt lat="-27.917296666666665" lon="-65.867965">
        <ele>1229.6</ele>
        <time>2018-08-20T13:23:41Z</time>
      </trkpt>
      <trkpt lat="-27.917365" lon="-65.86789">
        <ele>1230.3</ele>
        <time>2018-08-20T13:23:43Z</time>
      </trkpt>
      <trkpt lat="-27.917435" lon="-65.86781">
        <ele>1231.1</ele>
        <time>2018-08-20T13:23:45Z</time>
      </trkpt>
      <trkpt lat="-27.91752" lon="-65.86771">
        <ele>1232.0</ele>
        <time>2018-08-20T13:23:47Z</time>
      </trkpt>
      <trkpt lat="-27.91762" lon="-65.867595">
        <ele>1232.4</ele>
        <time>2018-08-20T13:23:49Z</time>
      </trkpt>
      <trkpt lat="-27.917675" lon="-65.86753833333333">
        <ele>1231.9</ele>
        <time>2018-08-20T13:23:50Z</time>
      </trkpt>
      <trkpt lat="-27.91774" lon="-65.86748">
        <ele>1231.5</ele>
        <time>2018-08-20T13:23:51Z</time>
      </trkpt>
      <trkpt lat="-27.9178" lon="-65.867425">
        <ele>1231.3</ele>
        <time>2018-08-20T13:23:52Z</time>
      </trkpt>
      <trkpt lat="-27.91788" lon="-65.867385">
        <ele>1231.1</ele>
        <time>2018-08-20T13:23:53Z</time>
      </trkpt>
      <trkpt lat="-27.917965" lon="-65.867345">
        <ele>1230.7</ele>
        <time>2018-08-20T13:23:54Z</time>
      </trkpt>
      <trkpt lat="-27.918046666666665" lon="-65.86731166666667">
        <ele>1230.4</ele>
        <time>2018-08-20T13:23:55Z</time>
      </trkpt>
      <trkpt lat="-27.918145" lon="-65.86731">
        <ele>1230.1</ele>
        <time>2018-08-20T13:23:56Z</time>
      </trkpt>
      <trkpt lat="-27.91825" lon="-65.86731">
        <ele>1229.9</ele>
        <time>2018-08-20T13:23:57Z</time>
      </trkpt>
      <trkpt lat="-27.91835" lon="-65.86732">
        <ele>1229.6</ele>
        <time>2018-08-20T13:23:58Z</time>
      </trkpt>
      <trkpt lat="-27.918455" lon="-65.86732833333333">
        <ele>1229.3</ele>
        <time>2018-08-20T13:23:59Z</time>
      </trkpt>
      <trkpt lat="-27.918555" lon="-65.867355">
        <ele>1228.8</ele>
        <time>2018-08-20T13:24:00Z</time>
      </trkpt>
      <trkpt lat="-27.918663333333335" lon="-65.86737333333333">
        <ele>1228.3</ele>
        <time>2018-08-20T13:24:01Z</time>
      </trkpt>
      <trkpt lat="-27.91878" lon="-65.867405">
        <ele>1228.0</ele>
        <time>2018-08-20T13:24:02Z</time>
      </trkpt>
      <trkpt lat="-27.918888333333335" lon="-65.86743">
        <ele>1227.6</ele>
        <time>2018-08-20T13:24:03Z</time>
      </trkpt>
      <trkpt lat="-27.919005" lon="-65.86745333333333">
        <ele>1227.0</ele>
        <time>2018-08-20T13:24:04Z</time>
      </trkpt>
      <trkpt lat="-27.919125" lon="-65.86749">
        <ele>1226.4</ele>
        <time>2018-08-20T13:24:05Z</time>
      </trkpt>
      <trkpt lat="-27.919235" lon="-65.86752">
        <ele>1225.4</ele>
        <time>2018-08-20T13:24:06Z</time>
      </trkpt>
      <trkpt lat="-27.919355" lon="-65.867545">
        <ele>1224.4</ele>
        <time>2018-08-20T13:24:07Z</time>
      </trkpt>
      <trkpt lat="-27.91947" lon="-65.86758">
        <ele>1223.5</ele>
        <time>2018-08-20T13:24:08Z</time>
      </trkpt>
      <trkpt lat="-27.91959" lon="-65.86761">
        <ele>1222.5</ele>
        <time>2018-08-20T13:24:09Z</time>
      </trkpt>
      <trkpt lat="-27.919705" lon="-65.86763166666667">
        <ele>1221.6</ele>
        <time>2018-08-20T13:24:10Z</time>
      </trkpt>
      <trkpt lat="-27.919825" lon="-65.867665">
        <ele>1221.0</ele>
        <time>2018-08-20T13:24:11Z</time>
      </trkpt>
      <trkpt lat="-27.91994" lon="-65.867695">
        <ele>1220.6</ele>
        <time>2018-08-20T13:24:12Z</time>
      </trkpt>
      <trkpt lat="-27.92006" lon="-65.867715">
        <ele>1220.3</ele>
        <time>2018-08-20T13:24:13Z</time>
      </trkpt>
      <trkpt lat="-27.920165" lon="-65.867745">
        <ele>1220.1</ele>
        <time>2018-08-20T13:24:14Z</time>
      </trkpt>
      <trkpt lat="-27.920279999999998" lon="-65.86776666666667">
        <ele>1220.0</ele>
        <time>2018-08-20T13:24:15Z</time>
      </trkpt>
      <trkpt lat="-27.920385" lon="-65.867795">
        <ele>1219.9</ele>
        <time>2018-08-20T13:24:16Z</time>
      </trkpt>
      <trkpt lat="-27.92049" lon="-65.86781333333333">
        <ele>1219.9</ele>
        <time>2018-08-20T13:24:17Z</time>
      </trkpt>
      <trkpt lat="-27.920588333333335" lon="-65.867845">
        <ele>1219.8</ele>
        <time>2018-08-20T13:24:18Z</time>
      </trkpt>
      <trkpt lat="-27.92069" lon="-65.86786166666667">
        <ele>1219.7</ele>
        <time>2018-08-20T13:24:19Z</time>
      </trkpt>
      <trkpt lat="-27.920785" lon="-65.867885">
        <ele>1219.6</ele>
        <time>2018-08-20T13:24:20Z</time>
      </trkpt>
      <trkpt lat="-27.92088" lon="-65.86790333333333">
        <ele>1219.5</ele>
        <time>2018-08-20T13:24:21Z</time>
      </trkpt>
      <trkpt lat="-27.920975" lon="-65.86793">
        <ele>1219.4</ele>
        <time>2018-08-20T13:24:22Z</time>
      </trkpt>
      <trkpt lat="-27.921065" lon="-65.86794">
        <ele>1219.3</ele>
        <time>2018-08-20T13:24:23Z</time>
      </trkpt>
      <trkpt lat="-27.921151666666667" lon="-65.86796">
        <ele>1219.2</ele>
        <time>2018-08-20T13:24:24Z</time>
      </trkpt>
      <trkpt lat="-27.921245" lon="-65.867975">
        <ele>1219.2</ele>
        <time>2018-08-20T13:24:25Z</time>
      </trkpt>
      <trkpt lat="-27.92133" lon="-65.86798666666667">
        <ele>1219.1</ele>
        <time>2018-08-20T13:24:26Z</time>
      </trkpt>
      <trkpt lat="-27.921415" lon="-65.86799333333333">
        <ele>1219.1</ele>
        <time>2018-08-20T13:24:27Z</time>
      </trkpt>
      <trkpt lat="-27.921495" lon="-65.86799333333333">
        <ele>1219.1</ele>
        <time>2018-08-20T13:24:28Z</time>
      </trkpt>
      <trkpt lat="-27.921565" lon="-65.86799166666667">
        <ele>1219.2</ele>
        <time>2018-08-20T13:24:29Z</time>
      </trkpt>
      <trkpt lat="-27.921705" lon="-65.867975">
        <ele>1219.5</ele>
        <time>2018-08-20T13:24:31Z</time>
      </trkpt>
      <trkpt lat="-27.921825" lon="-65.867945">
        <ele>1219.2</ele>
        <time>2018-08-20T13:24:33Z</time>
      </trkpt>
      <trkpt lat="-27.921945" lon="-65.86791">
        <ele>1219.2</ele>
        <time>2018-08-20T13:24:35Z</time>
      </trkpt>
      <trkpt lat="-27.922065" lon="-65.867875">
        <ele>1219.3</ele>
        <time>2018-08-20T13:24:37Z</time>
      </trkpt>
      <trkpt lat="-27.922175" lon="-65.867835">
        <ele>1220.0</ele>
        <time>2018-08-20T13:24:39Z</time>
      </trkpt>
      <trkpt lat="-27.922285" lon="-65.8678">
        <ele>1220.4</ele>
        <time>2018-08-20T13:24:41Z</time>
      </trkpt>
      <trkpt lat="-27.9224" lon="-65.86776">
        <ele>1220.8</ele>
        <time>2018-08-20T13:24:43Z</time>
      </trkpt>
      <trkpt lat="-27.92251" lon="-65.86772">
        <ele>1221.2</ele>
        <time>2018-08-20T13:24:45Z</time>
      </trkpt>
      <trkpt lat="-27.922615" lon="-65.867695">
        <ele>1221.5</ele>
        <time>2018-08-20T13:24:47Z</time>
      </trkpt>
      <trkpt lat="-27.922705" lon="-65.867665">
        <ele>1221.7</ele>
        <time>2018-08-20T13:24:49Z</time>
      </trkpt>
      <trkpt lat="-27.92281" lon="-65.86763">
        <ele>1221.9</ele>
        <time>2018-08-20T13:24:51Z</time>
      </trkpt>
      <trkpt lat="-27.92291" lon="-65.86760166666667">
        <ele>1222.1</ele>
        <time>2018-08-20T13:24:53Z</time>
      </trkpt>
      <trkpt lat="-27.923000000000002" lon="-65.86758">
        <ele>1222.2</ele>
        <time>2018-08-20T13:24:55Z</time>
      </trkpt>
      <trkpt lat="-27.9231" lon="-65.867545">
        <ele>1222.2</ele>
        <time>2018-08-20T13:24:57Z</time>
      </trkpt>
      <trkpt lat="-27.923195" lon="-65.86750333333333">
        <ele>1222.1</ele>
        <time>2018-08-20T13:24:59Z</time>
      </trkpt>
      <trkpt lat="-27.923295" lon="-65.867455">
        <ele>1221.8</ele>
        <time>2018-08-20T13:25:01Z</time>
      </trkpt>
      <trkpt lat="-27.923386666666666" lon="-65.8674">
        <ele>1221.5</ele>
        <time>2018-08-20T13:25:03Z</time>
      </trkpt>
      <trkpt lat="-27.923485" lon="-65.86732333333333">
        <ele>1221.1</ele>
        <time>2018-08-20T13:25:05Z</time>
      </trkpt>
      <trkpt lat="-27.923595" lon="-65.867245">
        <ele>1220.4</ele>
        <time>2018-08-20T13:25:07Z</time>
      </trkpt>
      <trkpt lat="-27.9237" lon="-65.86716">
        <ele>1219.8</ele>
        <time>2018-08-20T13:25:09Z</time>
      </trkpt>
      <trkpt lat="-27.92382" lon="-65.867075">
        <ele>1218.8</ele>
        <time>2018-08-20T13:25:11Z</time>
      </trkpt>
      <trkpt lat="-27.92388" lon="-65.86702">
        <ele>1218.3</ele>
        <time>2018-08-20T13:25:12Z</time>
      </trkpt>
      <trkpt lat="-27.923945" lon="-65.86698">
        <ele>1217.8</ele>
        <time>2018-08-20T13:25:13Z</time>
      </trkpt>
      <trkpt lat="-27.924015" lon="-65.866935">
        <ele>1217.2</ele>
        <time>2018-08-20T13:25:14Z</time>
      </trkpt>
      <trkpt lat="-27.924095" lon="-65.86691">
        <ele>1216.7</ele>
        <time>2018-08-20T13:25:15Z</time>
      </trkpt>
      <trkpt lat="-27.92418" lon="-65.86688166666667">
        <ele>1216.1</ele>
        <time>2018-08-20T13:25:16Z</time>
      </trkpt>
      <trkpt lat="-27.924275" lon="-65.86686166666667">
        <ele>1215.6</ele>
        <time>2018-08-20T13:25:17Z</time>
      </trkpt>
      <trkpt lat="-27.92437" lon="-65.86684166666667">
        <ele>1215.2</ele>
        <time>2018-08-20T13:25:18Z</time>
      </trkpt>
      <trkpt lat="-27.92447" lon="-65.866825">
        <ele>1214.8</ele>
        <time>2018-08-20T13:25:19Z</time>
      </trkpt>
      <trkpt lat="-27.92457" lon="-65.866815">
        <ele>1214.3</ele>
        <time>2018-08-20T13:25:20Z</time>
      </trkpt>
      <trkpt lat="-27.92467" lon="-65.86681">
        <ele>1213.9</ele>
        <time>2018-08-20T13:25:21Z</time>
      </trkpt>
      <trkpt lat="-27.92477" lon="-65.86685">
        <ele>1213.2</ele>
        <time>2018-08-20T13:25:22Z</time>
      </trkpt>
      <trkpt lat="-27.924865" lon="-65.86691">
        <ele>1212.4</ele>
        <time>2018-08-20T13:25:23Z</time>
      </trkpt>
      <trkpt lat="-27.924951666666665" lon="-65.86698">
        <ele>1211.6</ele>
        <time>2018-08-20T13:25:24Z</time>
      </trkpt>
      <trkpt lat="-27.925035" lon="-65.86705666666667">
        <ele>1210.8</ele>
        <time>2018-08-20T13:25:25Z</time>
      </trkpt>
      <trkpt lat="-27.92511" lon="-65.86714666666667">
        <ele>1209.7</ele>
        <time>2018-08-20T13:25:26Z</time>
      </trkpt>
      <trkpt lat="-27.92519" lon="-65.867255">
        <ele>1208.4</ele>
        <time>2018-08-20T13:25:27Z</time>
      </trkpt>
      <trkpt lat="-27.925275" lon="-65.86736">
        <ele>1207.3</ele>
        <time>2018-08-20T13:25:28Z</time>
      </trkpt>
      <trkpt lat="-27.925355" lon="-65.86745833333333">
        <ele>1206.2</ele>
        <time>2018-08-20T13:25:29Z</time>
      </trkpt>
      <trkpt lat="-27.925425" lon="-65.86755166666667">
        <ele>1205.3</ele>
        <time>2018-08-20T13:25:30Z</time>
      </trkpt>
      <trkpt lat="-27.9255" lon="-65.86766">
        <ele>1204.1</ele>
        <time>2018-08-20T13:25:31Z</time>
      </trkpt>
      <trkpt lat="-27.925575" lon="-65.86776">
        <ele>1203.4</ele>
        <time>2018-08-20T13:25:32Z</time>
      </trkpt>
      <trkpt lat="-27.925645" lon="-65.867855">
        <ele>1203.1</ele>
        <time>2018-08-20T13:25:33Z</time>
      </trkpt>
      <trkpt lat="-27.92572" lon="-65.86796">
        <ele>1202.7</ele>
        <time>2018-08-20T13:25:34Z</time>
      </trkpt>
      <trkpt lat="-27.925795" lon="-65.86806">
        <ele>1202.4</ele>
        <time>2018-08-20T13:25:35Z</time>
      </trkpt>
      <trkpt lat="-27.925865" lon="-65.868145">
        <ele>1202.4</ele>
        <time>2018-08-20T13:25:36Z</time>
      </trkpt>
      <trkpt lat="-27.925935" lon="-65.86823">
        <ele>1202.6</ele>
        <time>2018-08-20T13:25:37Z</time>
      </trkpt>
      <trkpt lat="-27.926" lon="-65.86830833333333">
        <ele>1202.7</ele>
        <time>2018-08-20T13:25:38Z</time>
      </trkpt>
      <trkpt lat="-27.92607" lon="-65.8684">
        <ele>1202.8</ele>
        <time>2018-08-20T13:25:39Z</time>
      </trkpt>
      <trkpt lat="-27.92615" lon="-65.8685">
        <ele>1202.8</ele>
        <time>2018-08-20T13:25:40Z</time>
      </trkpt>
      <trkpt lat="-27.92622" lon="-65.868585">
        <ele>1202.8</ele>
        <time>2018-08-20T13:25:41Z</time>
      </trkpt>
      <trkpt lat="-27.926275" lon="-65.86866">
        <ele>1202.8</ele>
        <time>2018-08-20T13:25:42Z</time>
      </trkpt>
      <trkpt lat="-27.92633" lon="-65.868735">
        <ele>1202.7</ele>
        <time>2018-08-20T13:25:43Z</time>
      </trkpt>
      <trkpt lat="-27.92638" lon="-65.868795">
        <ele>1202.7</ele>
        <time>2018-08-20T13:25:44Z</time>
      </trkpt>
      <trkpt lat="-27.92644" lon="-65.86887">
        <ele>1202.3</ele>
        <time>2018-08-20T13:25:45Z</time>
      </trkpt>
      <trkpt lat="-27.926491666666667" lon="-65.868945">
        <ele>1201.9</ele>
        <time>2018-08-20T13:25:46Z</time>
      </trkpt>
      <trkpt lat="-27.926555" lon="-65.86902">
        <ele>1202.0</ele>
        <time>2018-08-20T13:25:47Z</time>
      </trkpt>
      <trkpt lat="-27.92661" lon="-65.869095">
        <ele>1202.1</ele>
        <time>2018-08-20T13:25:48Z</time>
      </trkpt>
      <trkpt lat="-27.92667" lon="-65.86916">
        <ele>1201.8</ele>
        <time>2018-08-20T13:25:49Z</time>
      </trkpt>
      <trkpt lat="-27.926731666666665" lon="-65.869245">
        <ele>1201.6</ele>
        <time>2018-08-20T13:25:50Z</time>
      </trkpt>
      <trkpt lat="-27.92681" lon="-65.869335">
        <ele>1200.9</ele>
        <time>2018-08-20T13:25:51Z</time>
      </trkpt>
      <trkpt lat="-27.926876666666665" lon="-65.86942">
        <ele>1200.6</ele>
        <time>2018-08-20T13:25:52Z</time>
      </trkpt>
      <trkpt lat="-27.926955" lon="-65.869515">
        <ele>1199.8</ele>
        <time>2018-08-20T13:25:53Z</time>
      </trkpt>
      <trkpt lat="-27.927025" lon="-65.8696">
        <ele>1199.0</ele>
        <time>2018-08-20T13:25:54Z</time>
      </trkpt>
      <trkpt lat="-27.92711" lon="-65.86969">
        <ele>1198.3</ele>
        <time>2018-08-20T13:25:55Z</time>
      </trkpt>
      <trkpt lat="-27.92718" lon="-65.86977166666667">
        <ele>1197.9</ele>
        <time>2018-08-20T13:25:56Z</time>
      </trkpt>
      <trkpt lat="-27.92726" lon="-65.86985">
        <ele>1197.6</ele>
        <time>2018-08-20T13:25:57Z</time>
      </trkpt>
      <trkpt lat="-27.927335" lon="-65.86991">
        <ele>1197.1</ele>
        <time>2018-08-20T13:25:58Z</time>
      </trkpt>
      <trkpt lat="-27.927425" lon="-65.869975">
        <ele>1196.5</ele>
        <time>2018-08-20T13:25:59Z</time>
      </trkpt>
      <trkpt lat="-27.927515" lon="-65.87003">
        <ele>1195.8</ele>
        <time>2018-08-20T13:26:00Z</time>
      </trkpt>
      <trkpt lat="-27.92759" lon="-65.870075">
        <ele>1195.3</ele>
        <time>2018-08-20T13:26:01Z</time>
      </trkpt>
      <trkpt lat="-27.927666666666667" lon="-65.870125">
        <ele>1195.4</ele>
        <time>2018-08-20T13:26:02Z</time>
      </trkpt>
      <trkpt lat="-27.92774" lon="-65.870165">
        <ele>1195.7</ele>
        <time>2018-08-20T13:26:03Z</time>
      </trkpt>
      <trkpt lat="-27.92787" lon="-65.87023">
        <ele>1196.1</ele>
        <time>2018-08-20T13:26:05Z</time>
      </trkpt>
      <trkpt lat="-27.92799" lon="-65.870285">
        <ele>1196.8</ele>
        <time>2018-08-20T13:26:07Z</time>
      </trkpt>
      <trkpt lat="-27.928065" lon="-65.87032666666667">
        <ele>1198.4</ele>
        <time>2018-08-20T13:26:09Z</time>
      </trkpt>
      <trkpt lat="-27.92813" lon="-65.87036666666667">
        <ele>1199.4</ele>
        <time>2018-08-20T13:26:11Z</time>
      </trkpt>
      <trkpt lat="-27.9282" lon="-65.87040833333333">
        <ele>1199.6</ele>
        <time>2018-08-20T13:26:13Z</time>
      </trkpt>
      <trkpt lat="-27.928278333333335" lon="-65.870455">
        <ele>1199.7</ele>
        <time>2018-08-20T13:26:16Z</time>
      </trkpt>
      <trkpt lat="-27.928355" lon="-65.87049166666667">
        <ele>1199.9</ele>
        <time>2018-08-20T13:26:18Z</time>
      </trkpt>
      <trkpt lat="-27.928426666666667" lon="-65.87054">
        <ele>1199.9</ele>
        <time>2018-08-20T13:26:20Z</time>
      </trkpt>
      <trkpt lat="-27.92853" lon="-65.87059166666667">
        <ele>1200.5</ele>
        <time>2018-08-20T13:26:23Z</time>
      </trkpt>
      <trkpt lat="-27.928595" lon="-65.87064">
        <ele>1200.5</ele>
        <time>2018-08-20T13:26:25Z</time>
      </trkpt>
      <trkpt lat="-27.928665" lon="-65.87068">
        <ele>1200.7</ele>
        <time>2018-08-20T13:26:27Z</time>
      </trkpt>
      <trkpt lat="-27.928735" lon="-65.870715">
        <ele>1201.4</ele>
        <time>2018-08-20T13:26:29Z</time>
      </trkpt>
      <trkpt lat="-27.928815" lon="-65.870735">
        <ele>1203.1</ele>
        <time>2018-08-20T13:26:31Z</time>
      </trkpt>
      <trkpt lat="-27.92889" lon="-65.870765">
        <ele>1203.2</ele>
        <time>2018-08-20T13:26:33Z</time>
      </trkpt>
      <trkpt lat="-27.92897" lon="-65.87078166666667">
        <ele>1203.2</ele>
        <time>2018-08-20T13:26:35Z</time>
      </trkpt>
      <trkpt lat="-27.929065" lon="-65.87081666666667">
        <ele>1203.1</ele>
        <time>2018-08-20T13:26:38Z</time>
      </trkpt>
      <trkpt lat="-27.92916" lon="-65.87085">
        <ele>1203.0</ele>
        <time>2018-08-20T13:26:41Z</time>
      </trkpt>
      <trkpt lat="-27.92926" lon="-65.870885">
        <ele>1202.9</ele>
        <time>2018-08-20T13:26:44Z</time>
      </trkpt>
      <trkpt lat="-27.92936" lon="-65.87092">
        <ele>1203.1</ele>
        <time>2018-08-20T13:26:47Z</time>
      </trkpt>
      <trkpt lat="-27.92946" lon="-65.87094833333333">
        <ele>1203.4</ele>
        <time>2018-08-20T13:26:50Z</time>
      </trkpt>
      <trkpt lat="-27.92954" lon="-65.87098">
        <ele>1203.6</ele>
        <time>2018-08-20T13:26:52Z</time>
      </trkpt>
      <trkpt lat="-27.929615" lon="-65.87099833333333">
        <ele>1203.8</ele>
        <time>2018-08-20T13:26:54Z</time>
      </trkpt>
      <trkpt lat="-27.92971" lon="-65.871035">
        <ele>1203.9</ele>
        <time>2018-08-20T13:26:57Z</time>
      </trkpt>
      <trkpt lat="-27.92979" lon="-65.87107">
        <ele>1203.9</ele>
        <time>2018-08-20T13:27:00Z</time>
      </trkpt>
      <trkpt lat="-27.929876666666665" lon="-65.8711">
        <ele>1204.0</ele>
        <time>2018-08-20T13:27:03Z</time>
      </trkpt>
      <trkpt lat="-27.92996" lon="-65.87112833333333">
        <ele>1204.0</ele>
        <time>2018-08-20T13:27:06Z</time>
      </trkpt>
      <trkpt lat="-27.93005" lon="-65.87117">
        <ele>1204.0</ele>
        <time>2018-08-20T13:27:09Z</time>
      </trkpt>
      <trkpt lat="-27.93015" lon="-65.871205">
        <ele>1204.1</ele>
        <time>2018-08-20T13:27:12Z</time>
      </trkpt>
      <trkpt lat="-27.930245" lon="-65.87123">
        <ele>1204.3</ele>
        <time>2018-08-20T13:27:15Z</time>
      </trkpt>
      <trkpt lat="-27.930335" lon="-65.87126">
        <ele>1204.5</ele>
        <time>2018-08-20T13:27:18Z</time>
      </trkpt>
      <trkpt lat="-27.93041" lon="-65.87129">
        <ele>1204.7</ele>
        <time>2018-08-20T13:27:21Z</time>
      </trkpt>
      <trkpt lat="-27.93049" lon="-65.87131333333333">
        <ele>1204.8</ele>
        <time>2018-08-20T13:27:24Z</time>
      </trkpt>
      <trkpt lat="-27.930565" lon="-65.871345">
        <ele>1204.9</ele>
        <time>2018-08-20T13:27:27Z</time>
      </trkpt>
      <trkpt lat="-27.93064" lon="-65.871375">
        <ele>1205.3</ele>
        <time>2018-08-20T13:27:31Z</time>
      </trkpt>
      <trkpt lat="-27.9307" lon="-65.871385">
        <ele>1205.8</ele>
        <time>2018-08-20T13:27:38Z</time>
      </trkpt>
      <trkpt lat="-27.9307" lon="-65.871385">
        <ele>1205.8</ele>
        <time>2018-08-20T13:27:43Z</time>
      </trkpt>
      <trkpt lat="-27.930805" lon="-65.871425">
        <ele>1207.8</ele>
        <time>2018-08-20T13:28:13Z</time>
      </trkpt>
      <trkpt lat="-27.930915" lon="-65.871455">
        <ele>1208.1</ele>
        <time>2018-08-20T13:28:16Z</time>
      </trkpt>
      <trkpt lat="-27.930995" lon="-65.871475">
        <ele>1209.3</ele>
        <time>2018-08-20T13:28:18Z</time>
      </trkpt>
      <trkpt lat="-27.931075" lon="-65.87148833333333">
        <ele>1210.0</ele>
        <time>2018-08-20T13:28:20Z</time>
      </trkpt>
      <trkpt lat="-27.931175" lon="-65.871515">
        <ele>1209.8</ele>
        <time>2018-08-20T13:28:23Z</time>
      </trkpt>
      <trkpt lat="-27.931265" lon="-65.87152666666667">
        <ele>1209.8</ele>
        <time>2018-08-20T13:28:26Z</time>
      </trkpt>
      <trkpt lat="-27.931346666666666" lon="-65.87155">
        <ele>1209.8</ele>
        <time>2018-08-20T13:28:30Z</time>
      </trkpt>
      <trkpt lat="-27.93144" lon="-65.871565">
        <ele>1209.8</ele>
        <time>2018-08-20T13:28:34Z</time>
      </trkpt>
      <trkpt lat="-27.931515" lon="-65.87157">
        <ele>1209.8</ele>
        <time>2018-08-20T13:28:38Z</time>
      </trkpt>
      <trkpt lat="-27.9316" lon="-65.871575">
        <ele>1209.9</ele>
        <time>2018-08-20T13:28:43Z</time>
      </trkpt>
      <trkpt lat="-27.93163" lon="-65.87157666666667">
        <ele>1209.9</ele>
        <time>2018-08-20T13:28:50Z</time>
      </trkpt>
      <trkpt lat="-27.93163" lon="-65.87157666666667">
        <ele>1209.7</ele>
        <time>2018-08-20T13:28:52Z</time>
      </trkpt>
      <trkpt lat="-27.93174" lon="-65.87157">
        <ele>1209.9</ele>
        <time>2018-08-20T13:29:16Z</time>
      </trkpt>
      <trkpt lat="-27.931825" lon="-65.87156">
        <ele>1209.7</ele>
        <time>2018-08-20T13:29:19Z</time>
      </trkpt>
      <trkpt lat="-27.931915" lon="-65.87155">
        <ele>1209.5</ele>
        <time>2018-08-20T13:29:22Z</time>
      </trkpt>
      <trkpt lat="-27.93201" lon="-65.87153833333333">
        <ele>1209.3</ele>
        <time>2018-08-20T13:29:25Z</time>
      </trkpt>
      <trkpt lat="-27.93209" lon="-65.871525">
        <ele>1208.5</ele>
        <time>2018-08-20T13:29:27Z</time>
      </trkpt>
      <trkpt lat="-27.932176666666667" lon="-65.87152">
        <ele>1207.9</ele>
        <time>2018-08-20T13:29:29Z</time>
      </trkpt>
      <trkpt lat="-27.93229" lon="-65.87152">
        <ele>1207.4</ele>
        <time>2018-08-20T13:29:31Z</time>
      </trkpt>
      <trkpt lat="-27.932415" lon="-65.871525">
        <ele>1206.7</ele>
        <time>2018-08-20T13:29:33Z</time>
      </trkpt>
      <trkpt lat="-27.932485" lon="-65.871525">
        <ele>1206.4</ele>
        <time>2018-08-20T13:29:34Z</time>
      </trkpt>
      <trkpt lat="-27.932565" lon="-65.871525">
        <ele>1206.1</ele>
        <time>2018-08-20T13:29:35Z</time>
      </trkpt>
      <trkpt lat="-27.93265" lon="-65.87153166666667">
        <ele>1205.7</ele>
        <time>2018-08-20T13:29:36Z</time>
      </trkpt>
      <trkpt lat="-27.932745" lon="-65.87154">
        <ele>1205.3</ele>
        <time>2018-08-20T13:29:37Z</time>
      </trkpt>
      <trkpt lat="-27.93284" lon="-65.87155">
        <ele>1204.9</ele>
        <time>2018-08-20T13:29:38Z</time>
      </trkpt>
      <trkpt lat="-27.932925" lon="-65.87156">
        <ele>1204.4</ele>
        <time>2018-08-20T13:29:39Z</time>
      </trkpt>
      <trkpt lat="-27.933013333333335" lon="-65.87157">
        <ele>1204.0</ele>
        <time>2018-08-20T13:29:40Z</time>
      </trkpt>
      <trkpt lat="-27.93311" lon="-65.87157666666667">
        <ele>1203.5</ele>
        <time>2018-08-20T13:29:41Z</time>
      </trkpt>
      <trkpt lat="-27.933195" lon="-65.87159">
        <ele>1202.9</ele>
        <time>2018-08-20T13:29:42Z</time>
      </trkpt>
      <trkpt lat="-27.933275" lon="-65.8716">
        <ele>1202.4</ele>
        <time>2018-08-20T13:29:43Z</time>
      </trkpt>
      <trkpt lat="-27.93336" lon="-65.871605">
        <ele>1202.0</ele>
        <time>2018-08-20T13:29:44Z</time>
      </trkpt>
      <trkpt lat="-27.933436666666665" lon="-65.871605">
        <ele>1201.6</ele>
        <time>2018-08-20T13:29:45Z</time>
      </trkpt>
      <trkpt lat="-27.933578333333333" lon="-65.87157666666667">
        <ele>1201.0</ele>
        <time>2018-08-20T13:29:47Z</time>
      </trkpt>
      <trkpt lat="-27.933705" lon="-65.87153666666667">
        <ele>1200.8</ele>
        <time>2018-08-20T13:29:49Z</time>
      </trkpt>
      <trkpt lat="-27.933795" lon="-65.871505">
        <ele>1201.0</ele>
        <time>2018-08-20T13:29:51Z</time>
      </trkpt>
      <trkpt lat="-27.93386" lon="-65.871475">
        <ele>1201.2</ele>
        <time>2018-08-20T13:29:54Z</time>
      </trkpt>
      <trkpt lat="-27.933945" lon="-65.87141">
        <ele>1201.4</ele>
        <time>2018-08-20T13:29:57Z</time>
      </trkpt>
      <trkpt lat="-27.934015" lon="-65.87135166666667">
        <ele>1201.7</ele>
        <time>2018-08-20T13:30:01Z</time>
      </trkpt>
      <trkpt lat="-27.934095" lon="-65.871295">
        <ele>1202.0</ele>
        <time>2018-08-20T13:30:05Z</time>
      </trkpt>
      <trkpt lat="-27.93417" lon="-65.87123">
        <ele>1202.3</ele>
        <time>2018-08-20T13:30:08Z</time>
      </trkpt>
      <trkpt lat="-27.934255" lon="-65.87116">
        <ele>1202.6</ele>
        <time>2018-08-20T13:30:11Z</time>
      </trkpt>
      <trkpt lat="-27.93432" lon="-65.871115">
        <ele>1202.8</ele>
        <time>2018-08-20T13:30:13Z</time>
      </trkpt>
      <trkpt lat="-27.934385" lon="-65.87107">
        <ele>1203.5</ele>
        <time>2018-08-20T13:30:15Z</time>
      </trkpt>
      <trkpt lat="-27.934445" lon="-65.871025">
        <ele>1204.5</ele>
        <time>2018-08-20T13:30:17Z</time>
      </trkpt>
      <trkpt lat="-27.934525" lon="-65.87096">
        <ele>1205.7</ele>
        <time>2018-08-20T13:30:19Z</time>
      </trkpt>
      <trkpt lat="-27.93460333333333" lon="-65.870915">
        <ele>1206.3</ele>
        <time>2018-08-20T13:30:21Z</time>
      </trkpt>
      <trkpt lat="-27.934675" lon="-65.870875">
        <ele>1206.3</ele>
        <time>2018-08-20T13:30:23Z</time>
      </trkpt>
      <trkpt lat="-27.934765" lon="-65.87083">
        <ele>1206.2</ele>
        <time>2018-08-20T13:30:26Z</time>
      </trkpt>
      <trkpt lat="-27.934835" lon="-65.87079">
        <ele>1206.1</ele>
        <time>2018-08-20T13:30:29Z</time>
      </trkpt>
      <trkpt lat="-27.934905" lon="-65.870765">
        <ele>1206.2</ele>
        <time>2018-08-20T13:30:33Z</time>
      </trkpt>
      <trkpt lat="-27.935" lon="-65.87073166666667">
        <ele>1206.6</ele>
        <time>2018-08-20T13:30:38Z</time>
      </trkpt>
      <trkpt lat="-27.935075" lon="-65.870695">
        <ele>1206.6</ele>
        <time>2018-08-20T13:30:43Z</time>
      </trkpt>
      <trkpt lat="-27.935145" lon="-65.87067">
        <ele>1206.6</ele>
        <time>2018-08-20T13:30:48Z</time>
      </trkpt>
      <trkpt lat="-27.93519" lon="-65.87081">
        <ele>1202.4</ele>
        <time>2018-08-20T13:30:52Z</time>
      </trkpt>
      <trkpt lat="-27.935275" lon="-65.87077166666667">
        <ele>1200.7</ele>
        <time>2018-08-20T13:30:56Z</time>
      </trkpt>
      <trkpt lat="-27.935375" lon="-65.87073166666667">
        <ele>1200.4</ele>
        <time>2018-08-20T13:30:58Z</time>
      </trkpt>
      <trkpt lat="-27.93543" lon="-65.87067">
        <ele>1200.6</ele>
        <time>2018-08-20T13:30:59Z</time>
      </trkpt>
      <trkpt lat="-27.935505" lon="-65.870625">
        <ele>1200.8</ele>
        <time>2018-08-20T13:31:01Z</time>
      </trkpt>
      <trkpt lat="-27.93561" lon="-65.87062666666667">
        <ele>1201.0</ele>
        <time>2018-08-20T13:31:04Z</time>
      </trkpt>
      <trkpt lat="-27.935685" lon="-65.87062666666667">
        <ele>1203.6</ele>
        <time>2018-08-20T13:31:06Z</time>
      </trkpt>
      <trkpt lat="-27.93577" lon="-65.87063833333333">
        <ele>1204.2</ele>
        <time>2018-08-20T13:31:08Z</time>
      </trkpt>
      <trkpt lat="-27.935865" lon="-65.87066">
        <ele>1204.6</ele>
        <time>2018-08-20T13:31:10Z</time>
      </trkpt>
      <trkpt lat="-27.935955" lon="-65.87067666666667">
        <ele>1204.0</ele>
        <time>2018-08-20T13:31:12Z</time>
      </trkpt>
      <trkpt lat="-27.93607" lon="-65.87071666666667">
        <ele>1202.8</ele>
        <time>2018-08-20T13:31:14Z</time>
      </trkpt>
      <trkpt lat="-27.936145" lon="-65.870745">
        <ele>1202.8</ele>
        <time>2018-08-20T13:31:15Z</time>
      </trkpt>
      <trkpt lat="-27.93622" lon="-65.87076833333333">
        <ele>1203.3</ele>
        <time>2018-08-20T13:31:16Z</time>
      </trkpt>
      <trkpt lat="-27.936346666666665" lon="-65.87081333333333">
        <ele>1204.8</ele>
        <time>2018-08-20T13:31:18Z</time>
      </trkpt>
      <trkpt lat="-27.93648" lon="-65.870855">
        <ele>1205.4</ele>
        <time>2018-08-20T13:31:20Z</time>
      </trkpt>
      <trkpt lat="-27.936555" lon="-65.870875">
        <ele>1205.4</ele>
        <time>2018-08-20T13:31:21Z</time>
      </trkpt>
      <trkpt lat="-27.93663" lon="-65.8709">
        <ele>1205.1</ele>
        <time>2018-08-20T13:31:22Z</time>
      </trkpt>
      <trkpt lat="-27.9367" lon="-65.870925">
        <ele>1204.8</ele>
        <time>2018-08-20T13:31:23Z</time>
      </trkpt>
      <trkpt lat="-27.93678" lon="-65.87094">
        <ele>1204.6</ele>
        <time>2018-08-20T13:31:24Z</time>
      </trkpt>
      <trkpt lat="-27.93686" lon="-65.87096">
        <ele>1204.3</ele>
        <time>2018-08-20T13:31:25Z</time>
      </trkpt>
      <trkpt lat="-27.93698" lon="-65.87099833333333">
        <ele>1203.7</ele>
        <time>2018-08-20T13:31:27Z</time>
      </trkpt>
      <trkpt lat="-27.9371" lon="-65.871035">
        <ele>1202.2</ele>
        <time>2018-08-20T13:31:29Z</time>
      </trkpt>
      <trkpt lat="-27.937205" lon="-65.87107">
        <ele>1201.4</ele>
        <time>2018-08-20T13:31:31Z</time>
      </trkpt>
      <trkpt lat="-27.937315" lon="-65.8711">
        <ele>1202.2</ele>
        <time>2018-08-20T13:31:33Z</time>
      </trkpt>
      <trkpt lat="-27.937405" lon="-65.87112">
        <ele>1201.8</ele>
        <time>2018-08-20T13:31:35Z</time>
      </trkpt>
      <trkpt lat="-27.937495" lon="-65.871125">
        <ele>1201.9</ele>
        <time>2018-08-20T13:31:37Z</time>
      </trkpt>
      <trkpt lat="-27.937565" lon="-65.871125">
        <ele>1201.5</ele>
        <time>2018-08-20T13:31:39Z</time>
      </trkpt>
      <trkpt lat="-27.937665" lon="-65.87112">
        <ele>1201.5</ele>
        <time>2018-08-20T13:31:42Z</time>
      </trkpt>
      <trkpt lat="-27.93774833333333" lon="-65.87109">
        <ele>1201.7</ele>
        <time>2018-08-20T13:31:45Z</time>
      </trkpt>
      <trkpt lat="-27.937825" lon="-65.871065">
        <ele>1201.8</ele>
        <time>2018-08-20T13:31:48Z</time>
      </trkpt>
      <trkpt lat="-27.937901666666665" lon="-65.871025">
        <ele>1202.1</ele>
        <time>2018-08-20T13:31:52Z</time>
      </trkpt>
      <trkpt lat="-27.93796" lon="-65.87099833333333">
        <ele>1202.4</ele>
        <time>2018-08-20T13:31:59Z</time>
      </trkpt>
      <trkpt lat="-27.938035" lon="-65.870925">
        <ele>1201.9</ele>
        <time>2018-08-20T13:32:02Z</time>
      </trkpt>
      <trkpt lat="-27.93811" lon="-65.870855">
        <ele>1201.8</ele>
        <time>2018-08-20T13:32:04Z</time>
      </trkpt>
      <trkpt lat="-27.93816" lon="-65.87078">
        <ele>1201.7</ele>
        <time>2018-08-20T13:32:06Z</time>
      </trkpt>
      <trkpt lat="-27.938225" lon="-65.8707">
        <ele>1202.4</ele>
        <time>2018-08-20T13:32:08Z</time>
      </trkpt>
      <trkpt lat="-27.93829" lon="-65.87062">
        <ele>1203.0</ele>
        <time>2018-08-20T13:32:10Z</time>
      </trkpt>
      <trkpt lat="-27.93834" lon="-65.870555">
        <ele>1202.6</ele>
        <time>2018-08-20T13:32:12Z</time>
      </trkpt>
      <trkpt lat="-27.938395" lon="-65.87048">
        <ele>1201.9</ele>
        <time>2018-08-20T13:32:14Z</time>
      </trkpt>
      <trkpt lat="-27.93846" lon="-65.87040666666667">
        <ele>1201.8</ele>
        <time>2018-08-20T13:32:16Z</time>
      </trkpt>
      <trkpt lat="-27.93852" lon="-65.87032166666667">
        <ele>1202.5</ele>
        <time>2018-08-20T13:32:18Z</time>
      </trkpt>
      <trkpt lat="-27.93858" lon="-65.87023">
        <ele>1202.4</ele>
        <time>2018-08-20T13:32:20Z</time>
      </trkpt>
      <trkpt lat="-27.938645" lon="-65.870155">
        <ele>1203.2</ele>
        <time>2018-08-20T13:32:22Z</time>
      </trkpt>
      <trkpt lat="-27.938705" lon="-65.87007">
        <ele>1204.6</ele>
        <time>2018-08-20T13:32:24Z</time>
      </trkpt>
      <trkpt lat="-27.93877" lon="-65.869975">
        <ele>1205.9</ele>
        <time>2018-08-20T13:32:26Z</time>
      </trkpt>
      <trkpt lat="-27.938835" lon="-65.86987833333333">
        <ele>1206.3</ele>
        <time>2018-08-20T13:32:28Z</time>
      </trkpt>
      <trkpt lat="-27.938905" lon="-65.86978666666667">
        <ele>1205.3</ele>
        <time>2018-08-20T13:32:30Z</time>
      </trkpt>
      <trkpt lat="-27.93898" lon="-65.86969833333333">
        <ele>1203.2</ele>
        <time>2018-08-20T13:32:32Z</time>
      </trkpt>
      <trkpt lat="-27.939065" lon="-65.869595">
        <ele>1201.7</ele>
        <time>2018-08-20T13:32:34Z</time>
      </trkpt>
      <trkpt lat="-27.939155" lon="-65.86947666666667">
        <ele>1200.8</ele>
        <time>2018-08-20T13:32:36Z</time>
      </trkpt>
      <trkpt lat="-27.939245" lon="-65.869355">
        <ele>1200.2</ele>
        <time>2018-08-20T13:32:38Z</time>
      </trkpt>
      <trkpt lat="-27.939295" lon="-65.86929">
        <ele>1200.0</ele>
        <time>2018-08-20T13:32:39Z</time>
      </trkpt>
      <trkpt lat="-27.939355" lon="-65.869235">
        <ele>1199.9</ele>
        <time>2018-08-20T13:32:40Z</time>
      </trkpt>
      <trkpt lat="-27.93941" lon="-65.869175">
        <ele>1199.8</ele>
        <time>2018-08-20T13:32:41Z</time>
      </trkpt>
      <trkpt lat="-27.93948" lon="-65.86911">
        <ele>1199.7</ele>
        <time>2018-08-20T13:32:42Z</time>
      </trkpt>
      <trkpt lat="-27.93955" lon="-65.869065">
        <ele>1199.2</ele>
        <time>2018-08-20T13:32:43Z</time>
      </trkpt>
      <trkpt lat="-27.93963" lon="-65.86902">
        <ele>1198.8</ele>
        <time>2018-08-20T13:32:44Z</time>
      </trkpt>
      <trkpt lat="-27.93971" lon="-65.86899">
        <ele>1198.3</ele>
        <time>2018-08-20T13:32:45Z</time>
      </trkpt>
      <trkpt lat="-27.93979" lon="-65.86896">
        <ele>1198.1</ele>
        <time>2018-08-20T13:32:46Z</time>
      </trkpt>
      <trkpt lat="-27.939865" lon="-65.86892666666667">
        <ele>1197.8</ele>
        <time>2018-08-20T13:32:47Z</time>
      </trkpt>
      <trkpt lat="-27.93995" lon="-65.868905">
        <ele>1197.3</ele>
        <time>2018-08-20T13:32:48Z</time>
      </trkpt>
      <trkpt lat="-27.94004" lon="-65.86888">
        <ele>1196.6</ele>
        <time>2018-08-20T13:32:49Z</time>
      </trkpt>
      <trkpt lat="-27.94013" lon="-65.868865">
        <ele>1195.9</ele>
        <time>2018-08-20T13:32:50Z</time>
      </trkpt>
      <trkpt lat="-27.940211666666666" lon="-65.86884">
        <ele>1195.3</ele>
        <time>2018-08-20T13:32:51Z</time>
      </trkpt>
      <trkpt lat="-27.940295" lon="-65.86882">
        <ele>1194.9</ele>
        <time>2018-08-20T13:32:52Z</time>
      </trkpt>
      <trkpt lat="-27.940375" lon="-65.86881">
        <ele>1194.7</ele>
        <time>2018-08-20T13:32:53Z</time>
      </trkpt>
      <trkpt lat="-27.940445" lon="-65.868785">
        <ele>1194.6</ele>
        <time>2018-08-20T13:32:54Z</time>
      </trkpt>
      <trkpt lat="-27.94052" lon="-65.86876166666667">
        <ele>1194.5</ele>
        <time>2018-08-20T13:32:55Z</time>
      </trkpt>
      <trkpt lat="-27.94059" lon="-65.868735">
        <ele>1194.6</ele>
        <time>2018-08-20T13:32:56Z</time>
      </trkpt>
      <trkpt lat="-27.940711666666665" lon="-65.86868">
        <ele>1194.5</ele>
        <time>2018-08-20T13:32:58Z</time>
      </trkpt>
      <trkpt lat="-27.940825" lon="-65.86861">
        <ele>1194.4</ele>
        <time>2018-08-20T13:33:00Z</time>
      </trkpt>
      <trkpt lat="-27.940915" lon="-65.86853666666667">
        <ele>1193.9</ele>
        <time>2018-08-20T13:33:02Z</time>
      </trkpt>
      <trkpt lat="-27.941005" lon="-65.868465">
        <ele>1193.2</ele>
        <time>2018-08-20T13:33:04Z</time>
      </trkpt>
      <trkpt lat="-27.941081666666665" lon="-65.86839">
        <ele>1193.0</ele>
        <time>2018-08-20T13:33:06Z</time>
      </trkpt>
      <trkpt lat="-27.94116" lon="-65.86831166666667">
        <ele>1193.5</ele>
        <time>2018-08-20T13:33:08Z</time>
      </trkpt>
      <trkpt lat="-27.941233333333333" lon="-65.86824">
        <ele>1193.7</ele>
        <time>2018-08-20T13:33:10Z</time>
      </trkpt>
      <trkpt lat="-27.941318333333335" lon="-65.86816">
        <ele>1193.4</ele>
        <time>2018-08-20T13:33:12Z</time>
      </trkpt>
      <trkpt lat="-27.9414" lon="-65.86808166666667">
        <ele>1193.1</ele>
        <time>2018-08-20T13:33:14Z</time>
      </trkpt>
      <trkpt lat="-27.94146" lon="-65.868025">
        <ele>1193.1</ele>
        <time>2018-08-20T13:33:16Z</time>
      </trkpt>
      <trkpt lat="-27.941525" lon="-65.86797">
        <ele>1193.4</ele>
        <time>2018-08-20T13:33:18Z</time>
      </trkpt>
      <trkpt lat="-27.94159" lon="-65.86791">
        <ele>1193.7</ele>
        <time>2018-08-20T13:33:20Z</time>
      </trkpt>
      <trkpt lat="-27.941648333333333" lon="-65.867855">
        <ele>1193.5</ele>
        <time>2018-08-20T13:33:22Z</time>
      </trkpt>
      <trkpt lat="-27.941725" lon="-65.867795">
        <ele>1192.8</ele>
        <time>2018-08-20T13:33:24Z</time>
      </trkpt>
      <trkpt lat="-27.94182" lon="-65.867715">
        <ele>1191.8</ele>
        <time>2018-08-20T13:33:26Z</time>
      </trkpt>
      <trkpt lat="-27.941905" lon="-65.86763666666667">
        <ele>1190.5</ele>
        <time>2018-08-20T13:33:28Z</time>
      </trkpt>
      <trkpt lat="-27.942015" lon="-65.867545">
        <ele>1189.6</ele>
        <time>2018-08-20T13:33:30Z</time>
      </trkpt>
      <trkpt lat="-27.94212" lon="-65.867455">
        <ele>1187.8</ele>
        <time>2018-08-20T13:33:32Z</time>
      </trkpt>
      <trkpt lat="-27.942235" lon="-65.867355">
        <ele>1186.5</ele>
        <time>2018-08-20T13:33:34Z</time>
      </trkpt>
      <trkpt lat="-27.9423" lon="-65.867295">
        <ele>1186.2</ele>
        <time>2018-08-20T13:33:35Z</time>
      </trkpt>
      <trkpt lat="-27.94237" lon="-65.86723333333333">
        <ele>1185.8</ele>
        <time>2018-08-20T13:33:36Z</time>
      </trkpt>
      <trkpt lat="-27.942435" lon="-65.86718">
        <ele>1185.4</ele>
        <time>2018-08-20T13:33:37Z</time>
      </trkpt>
      <trkpt lat="-27.9425" lon="-65.867125">
        <ele>1184.9</ele>
        <time>2018-08-20T13:33:38Z</time>
      </trkpt>
      <trkpt lat="-27.94256" lon="-65.867065">
        <ele>1184.0</ele>
        <time>2018-08-20T13:33:39Z</time>
      </trkpt>
      <trkpt lat="-27.942633333333333" lon="-65.86700166666667">
        <ele>1183.5</ele>
        <time>2018-08-20T13:33:40Z</time>
      </trkpt>
      <trkpt lat="-27.94271" lon="-65.866945">
        <ele>1183.0</ele>
        <time>2018-08-20T13:33:41Z</time>
      </trkpt>
      <trkpt lat="-27.94278" lon="-65.86687666666667">
        <ele>1182.8</ele>
        <time>2018-08-20T13:33:42Z</time>
      </trkpt>
      <trkpt lat="-27.942855" lon="-65.866815">
        <ele>1182.6</ele>
        <time>2018-08-20T13:33:43Z</time>
      </trkpt>
      <trkpt lat="-27.942925" lon="-65.866755">
        <ele>1182.4</ele>
        <time>2018-08-20T13:33:44Z</time>
      </trkpt>
      <trkpt lat="-27.942995" lon="-65.86669">
        <ele>1182.0</ele>
        <time>2018-08-20T13:33:45Z</time>
      </trkpt>
      <trkpt lat="-27.94306" lon="-65.866635">
        <ele>1181.9</ele>
        <time>2018-08-20T13:33:46Z</time>
      </trkpt>
      <trkpt lat="-27.943125" lon="-65.86658">
        <ele>1182.1</ele>
        <time>2018-08-20T13:33:47Z</time>
      </trkpt>
      <trkpt lat="-27.94323" lon="-65.866485">
        <ele>1182.8</ele>
        <time>2018-08-20T13:33:49Z</time>
      </trkpt>
      <trkpt lat="-27.94333" lon="-65.86639">
        <ele>1183.8</ele>
        <time>2018-08-20T13:33:51Z</time>
      </trkpt>
      <trkpt lat="-27.943415" lon="-65.866315">
        <ele>1184.8</ele>
        <time>2018-08-20T13:33:53Z</time>
      </trkpt>
      <trkpt lat="-27.943485" lon="-65.86624833333333">
        <ele>1185.1</ele>
        <time>2018-08-20T13:33:55Z</time>
      </trkpt>
      <trkpt lat="-27.94354" lon="-65.866195">
        <ele>1185.3</ele>
        <time>2018-08-20T13:33:57Z</time>
      </trkpt>
      <trkpt lat="-27.943605" lon="-65.86615">
        <ele>1185.8</ele>
        <time>2018-08-20T13:33:59Z</time>
      </trkpt>
      <trkpt lat="-27.943656666666666" lon="-65.8661">
        <ele>1185.8</ele>
        <time>2018-08-20T13:34:01Z</time>
      </trkpt>
      <trkpt lat="-27.94372" lon="-65.866045">
        <ele>1186.0</ele>
        <time>2018-08-20T13:34:03Z</time>
      </trkpt>
      <trkpt lat="-27.94378" lon="-65.865995">
        <ele>1186.0</ele>
        <time>2018-08-20T13:34:05Z</time>
      </trkpt>
      <trkpt lat="-27.94384" lon="-65.86593666666667">
        <ele>1185.9</ele>
        <time>2018-08-20T13:34:07Z</time>
      </trkpt>
      <trkpt lat="-27.943925" lon="-65.865865">
        <ele>1185.9</ele>
        <time>2018-08-20T13:34:10Z</time>
      </trkpt>
      <trkpt lat="-27.94401" lon="-65.86579333333333">
        <ele>1185.9</ele>
        <time>2018-08-20T13:34:13Z</time>
      </trkpt>
      <trkpt lat="-27.94409" lon="-65.86571333333333">
        <ele>1186.0</ele>
        <time>2018-08-20T13:34:16Z</time>
      </trkpt>
      <trkpt lat="-27.94415" lon="-65.86566">
        <ele>1186.0</ele>
        <time>2018-08-20T13:34:18Z</time>
      </trkpt>
      <trkpt lat="-27.944225" lon="-65.865595">
        <ele>1186.1</ele>
        <time>2018-08-20T13:34:21Z</time>
      </trkpt>
      <trkpt lat="-27.944285" lon="-65.86553666666667">
        <ele>1186.2</ele>
        <time>2018-08-20T13:34:23Z</time>
      </trkpt>
      <trkpt lat="-27.944365" lon="-65.86546">
        <ele>1186.4</ele>
        <time>2018-08-20T13:34:26Z</time>
      </trkpt>
      <trkpt lat="-27.944445" lon="-65.86539">
        <ele>1186.6</ele>
        <time>2018-08-20T13:34:29Z</time>
      </trkpt>
      <trkpt lat="-27.944505" lon="-65.86533">
        <ele>1187.2</ele>
        <time>2018-08-20T13:34:31Z</time>
      </trkpt>
      <trkpt lat="-27.944565" lon="-65.865275">
        <ele>1187.4</ele>
        <time>2018-08-20T13:34:33Z</time>
      </trkpt>
      <trkpt lat="-27.94464" lon="-65.865215">
        <ele>1187.4</ele>
        <time>2018-08-20T13:34:36Z</time>
      </trkpt>
      <trkpt lat="-27.94472" lon="-65.865155">
        <ele>1187.4</ele>
        <time>2018-08-20T13:34:39Z</time>
      </trkpt>
      <trkpt lat="-27.944775" lon="-65.865095">
        <ele>1187.5</ele>
        <time>2018-08-20T13:34:41Z</time>
      </trkpt>
      <trkpt lat="-27.944855" lon="-65.86502">
        <ele>1188.1</ele>
        <time>2018-08-20T13:34:44Z</time>
      </trkpt>
      <trkpt lat="-27.944913333333332" lon="-65.864965">
        <ele>1188.4</ele>
        <time>2018-08-20T13:34:46Z</time>
      </trkpt>
      <trkpt lat="-27.944975" lon="-65.86490666666667">
        <ele>1188.9</ele>
        <time>2018-08-20T13:34:48Z</time>
      </trkpt>
      <trkpt lat="-27.94505" lon="-65.86482333333333">
        <ele>1190.8</ele>
        <time>2018-08-20T13:34:51Z</time>
      </trkpt>
      <trkpt lat="-27.945115" lon="-65.86476666666667">
        <ele>1190.9</ele>
        <time>2018-08-20T13:34:53Z</time>
      </trkpt>
      <trkpt lat="-27.945195" lon="-65.864715">
        <ele>1190.9</ele>
        <time>2018-08-20T13:34:56Z</time>
      </trkpt>
      <trkpt lat="-27.94527" lon="-65.864655">
        <ele>1191.0</ele>
        <time>2018-08-20T13:34:59Z</time>
      </trkpt>
      <trkpt lat="-27.94534" lon="-65.86458">
        <ele>1191.1</ele>
        <time>2018-08-20T13:35:02Z</time>
      </trkpt>
      <trkpt lat="-27.94542" lon="-65.8645">
        <ele>1191.1</ele>
        <time>2018-08-20T13:35:05Z</time>
      </trkpt>
      <trkpt lat="-27.945495" lon="-65.86443">
        <ele>1191.1</ele>
        <time>2018-08-20T13:35:08Z</time>
      </trkpt>
      <trkpt lat="-27.945565" lon="-65.86436833333333">
        <ele>1191.3</ele>
        <time>2018-08-20T13:35:11Z</time>
      </trkpt>
      <trkpt lat="-27.945635" lon="-65.86429">
        <ele>1191.5</ele>
        <time>2018-08-20T13:35:14Z</time>
      </trkpt>
      <trkpt lat="-27.945705" lon="-65.864225">
        <ele>1191.4</ele>
        <time>2018-08-20T13:35:18Z</time>
      </trkpt>
      <trkpt lat="-27.945781666666665" lon="-65.86417">
        <ele>1191.4</ele>
        <time>2018-08-20T13:35:22Z</time>
      </trkpt>
      <trkpt lat="-27.945875" lon="-65.86411">
        <ele>1191.9</ele>
        <time>2018-08-20T13:35:26Z</time>
      </trkpt>
      <trkpt lat="-27.945966666666667" lon="-65.86403">
        <ele>1191.0</ele>
        <time>2018-08-20T13:35:29Z</time>
      </trkpt>
      <trkpt lat="-27.946005" lon="-65.86395">
        <ele>1190.1</ele>
        <time>2018-08-20T13:35:30Z</time>
      </trkpt>
      <trkpt lat="-27.946075" lon="-65.863895">
        <ele>1189.4</ele>
        <time>2018-08-20T13:35:36Z</time>
      </trkpt>
      <trkpt lat="-27.94615" lon="-65.86387333333333">
        <ele>1189.3</ele>
        <time>2018-08-20T13:35:38Z</time>
      </trkpt>
      <trkpt lat="-27.94623" lon="-65.863865">
        <ele>1189.4</ele>
        <time>2018-08-20T13:35:41Z</time>
      </trkpt>
      <trkpt lat="-27.94632" lon="-65.86383833333333">
        <ele>1189.6</ele>
        <time>2018-08-20T13:35:44Z</time>
      </trkpt>
      <trkpt lat="-27.946405" lon="-65.86382666666667">
        <ele>1189.8</ele>
        <time>2018-08-20T13:35:47Z</time>
      </trkpt>
      <trkpt lat="-27.94648" lon="-65.86382333333333">
        <ele>1190.1</ele>
        <time>2018-08-20T13:35:50Z</time>
      </trkpt>
      <trkpt lat="-27.946555" lon="-65.86381">
        <ele>1190.3</ele>
        <time>2018-08-20T13:35:53Z</time>
      </trkpt>
      <trkpt lat="-27.946635" lon="-65.8638">
        <ele>1190.6</ele>
        <time>2018-08-20T13:35:56Z</time>
      </trkpt>
      <trkpt lat="-27.946725" lon="-65.86379166666667">
        <ele>1190.9</ele>
        <time>2018-08-20T13:35:59Z</time>
      </trkpt>
      <trkpt lat="-27.94680333333333" lon="-65.86378833333333">
        <ele>1191.1</ele>
        <time>2018-08-20T13:36:02Z</time>
      </trkpt>
      <trkpt lat="-27.94689" lon="-65.86378833333333">
        <ele>1191.5</ele>
        <time>2018-08-20T13:36:05Z</time>
      </trkpt>
      <trkpt lat="-27.946975" lon="-65.86379166666667">
        <ele>1191.8</ele>
        <time>2018-08-20T13:36:08Z</time>
      </trkpt>
      <trkpt lat="-27.94705" lon="-65.86378833333333">
        <ele>1192.0</ele>
        <time>2018-08-20T13:36:11Z</time>
      </trkpt>
      <trkpt lat="-27.947135" lon="-65.86378500000001">
        <ele>1192.2</ele>
        <time>2018-08-20T13:36:14Z</time>
      </trkpt>
      <trkpt lat="-27.947225" lon="-65.863775">
        <ele>1192.5</ele>
        <time>2018-08-20T13:36:17Z</time>
      </trkpt>
      <trkpt lat="-27.947295" lon="-65.86378833333333">
        <ele>1193.0</ele>
        <time>2018-08-20T13:36:20Z</time>
      </trkpt>
      <trkpt lat="-27.947395" lon="-65.8638">
        <ele>1193.3</ele>
        <time>2018-08-20T13:36:23Z</time>
      </trkpt>
      <trkpt lat="-27.947485" lon="-65.86382166666667">
        <ele>1193.8</ele>
        <time>2018-08-20T13:36:26Z</time>
      </trkpt>
      <trkpt lat="-27.94758" lon="-65.86385">
        <ele>1193.9</ele>
        <time>2018-08-20T13:36:28Z</time>
      </trkpt>
      <trkpt lat="-27.94765" lon="-65.863865">
        <ele>1193.9</ele>
        <time>2018-08-20T13:36:29Z</time>
      </trkpt>
      <trkpt lat="-27.9477" lon="-65.864">
        <ele>1191.3</ele>
        <time>2018-08-20T13:36:31Z</time>
      </trkpt>
      <trkpt lat="-27.947815" lon="-65.86395">
        <ele>1191.5</ele>
        <time>2018-08-20T13:36:37Z</time>
      </trkpt>
      <trkpt lat="-27.947936666666667" lon="-65.863945">
        <ele>1191.7</ele>
        <time>2018-08-20T13:36:39Z</time>
      </trkpt>
      <trkpt lat="-27.94801" lon="-65.86396">
        <ele>1192.4</ele>
        <time>2018-08-20T13:36:41Z</time>
      </trkpt>
      <trkpt lat="-27.948085" lon="-65.86398">
        <ele>1193.3</ele>
        <time>2018-08-20T13:36:44Z</time>
      </trkpt>
      <trkpt lat="-27.948178333333335" lon="-65.86400666666667">
        <ele>1193.8</ele>
        <time>2018-08-20T13:36:47Z</time>
      </trkpt>
      <trkpt lat="-27.94827" lon="-65.86405">
        <ele>1194.1</ele>
        <time>2018-08-20T13:36:50Z</time>
      </trkpt>
      <trkpt lat="-27.948375" lon="-65.864085">
        <ele>1194.3</ele>
        <time>2018-08-20T13:36:53Z</time>
      </trkpt>
      <trkpt lat="-27.94845" lon="-65.86411">
        <ele>1194.5</ele>
        <time>2018-08-20T13:36:55Z</time>
      </trkpt>
      <trkpt lat="-27.948546666666665" lon="-65.86414333333333">
        <ele>1194.7</ele>
        <time>2018-08-20T13:36:58Z</time>
      </trkpt>
      <trkpt lat="-27.948625" lon="-65.86417">
        <ele>1194.8</ele>
        <time>2018-08-20T13:37:00Z</time>
      </trkpt>
      <trkpt lat="-27.94873" lon="-65.864205">
        <ele>1195.0</ele>
        <time>2018-08-20T13:37:03Z</time>
      </trkpt>
      <trkpt lat="-27.94881833333333" lon="-65.86423">
        <ele>1195.0</ele>
        <time>2018-08-20T13:37:05Z</time>
      </trkpt>
      <trkpt lat="-27.94892" lon="-65.86426">
        <ele>1195.1</ele>
        <time>2018-08-20T13:37:08Z</time>
      </trkpt>
      <trkpt lat="-27.949025" lon="-65.8643">
        <ele>1195.1</ele>
        <time>2018-08-20T13:37:11Z</time>
      </trkpt>
      <trkpt lat="-27.949105" lon="-65.86432666666667">
        <ele>1195.0</ele>
        <time>2018-08-20T13:37:14Z</time>
      </trkpt>
      <trkpt lat="-27.949175" lon="-65.864345">
        <ele>1195.0</ele>
        <time>2018-08-20T13:37:17Z</time>
      </trkpt>
      <trkpt lat="-27.949255" lon="-65.86436833333333">
        <ele>1195.1</ele>
        <time>2018-08-20T13:37:21Z</time>
      </trkpt>
      <trkpt lat="-27.94934" lon="-65.864405">
        <ele>1194.7</ele>
        <time>2018-08-20T13:37:26Z</time>
      </trkpt>
      <trkpt lat="-27.949405" lon="-65.86445">
        <ele>1191.5</ele>
        <time>2018-08-20T13:37:28Z</time>
      </trkpt>
      <trkpt lat="-27.949505" lon="-65.86459">
        <ele>1184.8</ele>
        <time>2018-08-20T13:37:30Z</time>
      </trkpt>
      <trkpt lat="-27.949445" lon="-65.86459833333333">
        <ele>1181.7</ele>
        <time>2018-08-20T13:37:37Z</time>
      </trkpt>
      <trkpt lat="-27.94953" lon="-65.86467">
        <ele>1188.3</ele>
        <time>2018-08-20T13:37:39Z</time>
      </trkpt>
      <trkpt lat="-27.949605" lon="-65.864655">
        <ele>1191.7</ele>
        <time>2018-08-20T13:37:40Z</time>
      </trkpt>
      <trkpt lat="-27.94966" lon="-65.86458166666667">
        <ele>1198.7</ele>
        <time>2018-08-20T13:37:44Z</time>
      </trkpt>
      <trkpt lat="-27.949795" lon="-65.86459">
        <ele>1198.9</ele>
        <time>2018-08-20T13:37:46Z</time>
      </trkpt>
      <trkpt lat="-27.949865" lon="-65.86459666666667">
        <ele>1196.8</ele>
        <time>2018-08-20T13:37:47Z</time>
      </trkpt>
      <trkpt lat="-27.949985" lon="-65.864625">
        <ele>1194.5</ele>
        <time>2018-08-20T13:37:49Z</time>
      </trkpt>
      <trkpt lat="-27.95008" lon="-65.86464666666667">
        <ele>1193.1</ele>
        <time>2018-08-20T13:37:51Z</time>
      </trkpt>
      <trkpt lat="-27.95016" lon="-65.86467">
        <ele>1192.9</ele>
        <time>2018-08-20T13:37:53Z</time>
      </trkpt>
      <trkpt lat="-27.95024" lon="-65.864695">
        <ele>1192.4</ele>
        <time>2018-08-20T13:37:55Z</time>
      </trkpt>
      <trkpt lat="-27.950335" lon="-65.86471666666667">
        <ele>1192.3</ele>
        <time>2018-08-20T13:37:57Z</time>
      </trkpt>
      <trkpt lat="-27.95042" lon="-65.86475">
        <ele>1191.9</ele>
        <time>2018-08-20T13:37:59Z</time>
      </trkpt>
      <trkpt lat="-27.95049" lon="-65.864765">
        <ele>1192.1</ele>
        <time>2018-08-20T13:38:01Z</time>
      </trkpt>
      <trkpt lat="-27.95057" lon="-65.86477833333333">
        <ele>1192.3</ele>
        <time>2018-08-20T13:38:03Z</time>
      </trkpt>
      <trkpt lat="-27.950665" lon="-65.864805">
        <ele>1193.0</ele>
        <time>2018-08-20T13:38:05Z</time>
      </trkpt>
      <trkpt lat="-27.95075" lon="-65.86481333333333">
        <ele>1193.5</ele>
        <time>2018-08-20T13:38:07Z</time>
      </trkpt>
      <trkpt lat="-27.95083" lon="-65.864835">
        <ele>1194.3</ele>
        <time>2018-08-20T13:38:09Z</time>
      </trkpt>
      <trkpt lat="-27.95092" lon="-65.864855">
        <ele>1194.1</ele>
        <time>2018-08-20T13:38:11Z</time>
      </trkpt>
      <trkpt lat="-27.95102" lon="-65.86489">
        <ele>1193.6</ele>
        <time>2018-08-20T13:38:13Z</time>
      </trkpt>
      <trkpt lat="-27.95111" lon="-65.86490666666667">
        <ele>1193.0</ele>
        <time>2018-08-20T13:38:15Z</time>
      </trkpt>
      <trkpt lat="-27.951195" lon="-65.86493">
        <ele>1192.2</ele>
        <time>2018-08-20T13:38:17Z</time>
      </trkpt>
      <trkpt lat="-27.951276666666665" lon="-65.86494166666667">
        <ele>1192.0</ele>
        <time>2018-08-20T13:38:19Z</time>
      </trkpt>
      <trkpt lat="-27.951385" lon="-65.864975">
        <ele>1192.0</ele>
        <time>2018-08-20T13:38:22Z</time>
      </trkpt>
      <trkpt lat="-27.95149" lon="-65.86499166666667">
        <ele>1192.1</ele>
        <time>2018-08-20T13:38:25Z</time>
      </trkpt>
      <trkpt lat="-27.951565" lon="-65.865015">
        <ele>1191.7</ele>
        <time>2018-08-20T13:38:27Z</time>
      </trkpt>
      <trkpt lat="-27.951645" lon="-65.865035">
        <ele>1191.1</ele>
        <time>2018-08-20T13:38:29Z</time>
      </trkpt>
      <trkpt lat="-27.95172" lon="-65.86506">
        <ele>1190.8</ele>
        <time>2018-08-20T13:38:31Z</time>
      </trkpt>
      <trkpt lat="-27.9518" lon="-65.86507166666667">
        <ele>1190.7</ele>
        <time>2018-08-20T13:38:33Z</time>
      </trkpt>
      <trkpt lat="-27.951876666666667" lon="-65.865095">
        <ele>1190.9</ele>
        <time>2018-08-20T13:38:35Z</time>
      </trkpt>
      <trkpt lat="-27.95196" lon="-65.865115">
        <ele>1191.0</ele>
        <time>2018-08-20T13:38:37Z</time>
      </trkpt>
      <trkpt lat="-27.95204" lon="-65.86512666666667">
        <ele>1190.7</ele>
        <time>2018-08-20T13:38:39Z</time>
      </trkpt>
      <trkpt lat="-27.952115" lon="-65.86515">
        <ele>1190.4</ele>
        <time>2018-08-20T13:38:41Z</time>
      </trkpt>
      <trkpt lat="-27.952215" lon="-65.86516666666667">
        <ele>1190.2</ele>
        <time>2018-08-20T13:38:44Z</time>
      </trkpt>
      <trkpt lat="-27.952315" lon="-65.8652">
        <ele>1190.1</ele>
        <time>2018-08-20T13:38:47Z</time>
      </trkpt>
      <trkpt lat="-27.952411666666666" lon="-65.86521666666667">
        <ele>1190.1</ele>
        <time>2018-08-20T13:38:50Z</time>
      </trkpt>
      <trkpt lat="-27.95251" lon="-65.865245">
        <ele>1190.2</ele>
        <time>2018-08-20T13:38:53Z</time>
      </trkpt>
      <trkpt lat="-27.9526" lon="-65.86526333333333">
        <ele>1190.3</ele>
        <time>2018-08-20T13:38:56Z</time>
      </trkpt>
      <trkpt lat="-27.952695" lon="-65.86529">
        <ele>1190.3</ele>
        <time>2018-08-20T13:38:59Z</time>
      </trkpt>
      <trkpt lat="-27.952775" lon="-65.865305">
        <ele>1190.3</ele>
        <time>2018-08-20T13:39:02Z</time>
      </trkpt>
      <trkpt lat="-27.95286" lon="-65.86533">
        <ele>1190.2</ele>
        <time>2018-08-20T13:39:05Z</time>
      </trkpt>
      <trkpt lat="-27.95294833333333" lon="-65.86535">
        <ele>1190.2</ele>
        <time>2018-08-20T13:39:08Z</time>
      </trkpt>
      <trkpt lat="-27.953035" lon="-65.865375">
        <ele>1190.3</ele>
        <time>2018-08-20T13:39:11Z</time>
      </trkpt>
      <trkpt lat="-27.95311" lon="-65.86539">
        <ele>1190.3</ele>
        <time>2018-08-20T13:39:14Z</time>
      </trkpt>
      <trkpt lat="-27.953185" lon="-65.865405">
        <ele>1190.3</ele>
        <time>2018-08-20T13:39:17Z</time>
      </trkpt>
      <trkpt lat="-27.95326" lon="-65.865435">
        <ele>1190.4</ele>
        <time>2018-08-20T13:39:20Z</time>
      </trkpt>
      <trkpt lat="-27.953326666666666" lon="-65.86546">
        <ele>1190.4</ele>
        <time>2018-08-20T13:39:23Z</time>
      </trkpt>
      <trkpt lat="-27.953395" lon="-65.86548666666667">
        <ele>1190.5</ele>
        <time>2018-08-20T13:39:26Z</time>
      </trkpt>
      <trkpt lat="-27.953483333333335" lon="-65.86553">
        <ele>1190.5</ele>
        <time>2018-08-20T13:39:30Z</time>
      </trkpt>
      <trkpt lat="-27.953565" lon="-65.865565">
        <ele>1190.6</ele>
        <time>2018-08-20T13:39:34Z</time>
      </trkpt>
      <trkpt lat="-27.95364" lon="-65.8656">
        <ele>1190.7</ele>
        <time>2018-08-20T13:39:39Z</time>
      </trkpt>
      <trkpt lat="-27.95372" lon="-65.86563166666667">
        <ele>1190.8</ele>
        <time>2018-08-20T13:39:43Z</time>
      </trkpt>
      <trkpt lat="-27.953805" lon="-65.86567166666667">
        <ele>1191.2</ele>
        <time>2018-08-20T13:39:47Z</time>
      </trkpt>
      <trkpt lat="-27.95388" lon="-65.86571333333333">
        <ele>1191.6</ele>
        <time>2018-08-20T13:39:51Z</time>
      </trkpt>
      <trkpt lat="-27.95396" lon="-65.86575500000001">
        <ele>1191.9</ele>
        <time>2018-08-20T13:39:55Z</time>
      </trkpt>
      <trkpt lat="-27.954036666666667" lon="-65.865795">
        <ele>1192.2</ele>
        <time>2018-08-20T13:39:59Z</time>
      </trkpt>
      <trkpt lat="-27.95413" lon="-65.86584">
        <ele>1192.6</ele>
        <time>2018-08-20T13:40:03Z</time>
      </trkpt>
      <trkpt lat="-27.95422" lon="-65.86587666666667">
        <ele>1193.0</ele>
        <time>2018-08-20T13:40:07Z</time>
      </trkpt>
      <trkpt lat="-27.954311666666666" lon="-65.865915">
        <ele>1193.6</ele>
        <time>2018-08-20T13:40:11Z</time>
      </trkpt>
      <trkpt lat="-27.954415" lon="-65.86593833333333">
        <ele>1194.1</ele>
        <time>2018-08-20T13:40:15Z</time>
      </trkpt>
      <trkpt lat="-27.954501666666665" lon="-65.86593">
        <ele>1194.4</ele>
        <time>2018-08-20T13:40:18Z</time>
      </trkpt>
      <trkpt lat="-27.95459" lon="-65.865905">
        <ele>1194.8</ele>
        <time>2018-08-20T13:40:21Z</time>
      </trkpt>
      <trkpt lat="-27.95466" lon="-65.865865">
        <ele>1195.2</ele>
        <time>2018-08-20T13:40:23Z</time>
      </trkpt>
      <trkpt lat="-27.95474" lon="-65.865795">
        <ele>1199.0</ele>
        <time>2018-08-20T13:40:26Z</time>
      </trkpt>
      <trkpt lat="-27.954805" lon="-65.865745">
        <ele>1199.2</ele>
        <time>2018-08-20T13:40:28Z</time>
      </trkpt>
      <trkpt lat="-27.95487" lon="-65.865695">
        <ele>1199.8</ele>
        <time>2018-08-20T13:40:30Z</time>
      </trkpt>
      <trkpt lat="-27.95493" lon="-65.86564166666666">
        <ele>1199.8</ele>
        <time>2018-08-20T13:40:32Z</time>
      </trkpt>
      <trkpt lat="-27.954995" lon="-65.865585">
        <ele>1199.8</ele>
        <time>2018-08-20T13:40:34Z</time>
      </trkpt>
      <trkpt lat="-27.95506" lon="-65.86553">
        <ele>1200.3</ele>
        <time>2018-08-20T13:40:36Z</time>
      </trkpt>
      <trkpt lat="-27.955125" lon="-65.86547">
        <ele>1200.5</ele>
        <time>2018-08-20T13:40:38Z</time>
      </trkpt>
      <trkpt lat="-27.95521" lon="-65.86539666666667">
        <ele>1200.5</ele>
        <time>2018-08-20T13:40:41Z</time>
      </trkpt>
      <trkpt lat="-27.95528" lon="-65.86533">
        <ele>1200.5</ele>
        <time>2018-08-20T13:40:44Z</time>
      </trkpt>
      <trkpt lat="-27.955355" lon="-65.865275">
        <ele>1200.5</ele>
        <time>2018-08-20T13:40:47Z</time>
      </trkpt>
      <trkpt lat="-27.955415" lon="-65.86523">
        <ele>1200.4</ele>
        <time>2018-08-20T13:40:49Z</time>
      </trkpt>
      <trkpt lat="-27.955475" lon="-65.86517333333333">
        <ele>1200.2</ele>
        <time>2018-08-20T13:40:51Z</time>
      </trkpt>
      <trkpt lat="-27.955545" lon="-65.865125">
        <ele>1199.9</ele>
        <time>2018-08-20T13:40:53Z</time>
      </trkpt>
      <trkpt lat="-27.955615" lon="-65.86507">
        <ele>1200.0</ele>
        <time>2018-08-20T13:40:55Z</time>
      </trkpt>
      <trkpt lat="-27.955685" lon="-65.865005">
        <ele>1200.6</ele>
        <time>2018-08-20T13:40:57Z</time>
      </trkpt>
      <trkpt lat="-27.955745" lon="-65.864945">
        <ele>1200.7</ele>
        <time>2018-08-20T13:40:59Z</time>
      </trkpt>
      <trkpt lat="-27.955815" lon="-65.8649">
        <ele>1201.0</ele>
        <time>2018-08-20T13:41:01Z</time>
      </trkpt>
      <trkpt lat="-27.955885" lon="-65.86485">
        <ele>1201.3</ele>
        <time>2018-08-20T13:41:03Z</time>
      </trkpt>
      <trkpt lat="-27.955955" lon="-65.864805">
        <ele>1200.7</ele>
        <time>2018-08-20T13:41:05Z</time>
      </trkpt>
      <trkpt lat="-27.956035" lon="-65.86476">
        <ele>1199.9</ele>
        <time>2018-08-20T13:41:07Z</time>
      </trkpt>
      <trkpt lat="-27.956115" lon="-65.86471">
        <ele>1199.5</ele>
        <time>2018-08-20T13:41:09Z</time>
      </trkpt>
      <trkpt lat="-27.956195" lon="-65.86467">
        <ele>1199.0</ele>
        <time>2018-08-20T13:41:11Z</time>
      </trkpt>
      <trkpt lat="-27.956271666666666" lon="-65.86462">
        <ele>1199.1</ele>
        <time>2018-08-20T13:41:13Z</time>
      </trkpt>
      <trkpt lat="-27.95637" lon="-65.864545">
        <ele>1199.0</ele>
        <time>2018-08-20T13:41:15Z</time>
      </trkpt>
      <trkpt lat="-27.95647" lon="-65.86447">
        <ele>1198.7</ele>
        <time>2018-08-20T13:41:17Z</time>
      </trkpt>
      <trkpt lat="-27.956565" lon="-65.864395">
        <ele>1198.4</ele>
        <time>2018-08-20T13:41:19Z</time>
      </trkpt>
      <trkpt lat="-27.95667" lon="-65.86432">
        <ele>1197.8</ele>
        <time>2018-08-20T13:41:21Z</time>
      </trkpt>
      <trkpt lat="-27.956775" lon="-65.864235">
        <ele>1196.8</ele>
        <time>2018-08-20T13:41:23Z</time>
      </trkpt>
      <trkpt lat="-27.956879999999998" lon="-65.864165">
        <ele>1195.6</ele>
        <time>2018-08-20T13:41:25Z</time>
      </trkpt>
      <trkpt lat="-27.95699" lon="-65.864085">
        <ele>1195.2</ele>
        <time>2018-08-20T13:41:27Z</time>
      </trkpt>
      <trkpt lat="-27.95709" lon="-65.864">
        <ele>1196.1</ele>
        <time>2018-08-20T13:41:29Z</time>
      </trkpt>
      <trkpt lat="-27.957186666666665" lon="-65.863915">
        <ele>1196.9</ele>
        <time>2018-08-20T13:41:31Z</time>
      </trkpt>
      <trkpt lat="-27.9573" lon="-65.86381">
        <ele>1197.9</ele>
        <time>2018-08-20T13:41:33Z</time>
      </trkpt>
      <trkpt lat="-27.957365" lon="-65.863765">
        <ele>1197.8</ele>
        <time>2018-08-20T13:41:34Z</time>
      </trkpt>
      <trkpt lat="-27.95748" lon="-65.86365333333333">
        <ele>1196.7</ele>
        <time>2018-08-20T13:41:36Z</time>
      </trkpt>
      <trkpt lat="-27.95754" lon="-65.863595">
        <ele>1196.0</ele>
        <time>2018-08-20T13:41:37Z</time>
      </trkpt>
      <trkpt lat="-27.9576" lon="-65.86353">
        <ele>1195.6</ele>
        <time>2018-08-20T13:41:38Z</time>
      </trkpt>
      <trkpt lat="-27.957665" lon="-65.863465">
        <ele>1195.2</ele>
        <time>2018-08-20T13:41:39Z</time>
      </trkpt>
      <trkpt lat="-27.957725" lon="-65.863405">
        <ele>1194.7</ele>
        <time>2018-08-20T13:41:40Z</time>
      </trkpt>
      <trkpt lat="-27.95778" lon="-65.86333833333333">
        <ele>1194.0</ele>
        <time>2018-08-20T13:41:41Z</time>
      </trkpt>
      <trkpt lat="-27.957835" lon="-65.863275">
        <ele>1193.2</ele>
        <time>2018-08-20T13:41:42Z</time>
      </trkpt>
      <trkpt lat="-27.957885" lon="-65.86322">
        <ele>1192.6</ele>
        <time>2018-08-20T13:41:43Z</time>
      </trkpt>
      <trkpt lat="-27.957935" lon="-65.863155">
        <ele>1191.7</ele>
        <time>2018-08-20T13:41:44Z</time>
      </trkpt>
      <trkpt lat="-27.95799" lon="-65.86309">
        <ele>1190.7</ele>
        <time>2018-08-20T13:41:45Z</time>
      </trkpt>
      <trkpt lat="-27.95804" lon="-65.86301666666667">
        <ele>1190.2</ele>
        <time>2018-08-20T13:41:46Z</time>
      </trkpt>
      <trkpt lat="-27.958095" lon="-65.862955">
        <ele>1190.0</ele>
        <time>2018-08-20T13:41:47Z</time>
      </trkpt>
      <trkpt lat="-27.958145000000002" lon="-65.862885">
        <ele>1189.9</ele>
        <time>2018-08-20T13:41:48Z</time>
      </trkpt>
      <trkpt lat="-27.95819" lon="-65.862825">
        <ele>1189.8</ele>
        <time>2018-08-20T13:41:49Z</time>
      </trkpt>
      <trkpt lat="-27.95828" lon="-65.86270666666667">
        <ele>1189.5</ele>
        <time>2018-08-20T13:41:51Z</time>
      </trkpt>
      <trkpt lat="-27.95833" lon="-65.86265">
        <ele>1189.3</ele>
        <time>2018-08-20T13:41:52Z</time>
      </trkpt>
      <trkpt lat="-27.958415" lon="-65.862535">
        <ele>1189.1</ele>
        <time>2018-08-20T13:41:54Z</time>
      </trkpt>
      <trkpt lat="-27.95849" lon="-65.86244">
        <ele>1189.1</ele>
        <time>2018-08-20T13:41:56Z</time>
      </trkpt>
      <trkpt lat="-27.95857" lon="-65.86235">
        <ele>1188.5</ele>
        <time>2018-08-20T13:41:58Z</time>
      </trkpt>
      <trkpt lat="-27.95864" lon="-65.862255">
        <ele>1187.5</ele>
        <time>2018-08-20T13:42:00Z</time>
      </trkpt>
      <trkpt lat="-27.95871" lon="-65.86217">
        <ele>1187.2</ele>
        <time>2018-08-20T13:42:02Z</time>
      </trkpt>
      <trkpt lat="-27.958778333333335" lon="-65.86207666666667">
        <ele>1187.4</ele>
        <time>2018-08-20T13:42:04Z</time>
      </trkpt>
      <trkpt lat="-27.958856666666666" lon="-65.86198">
        <ele>1187.6</ele>
        <time>2018-08-20T13:42:06Z</time>
      </trkpt>
      <trkpt lat="-27.95894" lon="-65.86188">
        <ele>1187.4</ele>
        <time>2018-08-20T13:42:08Z</time>
      </trkpt>
      <trkpt lat="-27.95902" lon="-65.86177166666667">
        <ele>1187.2</ele>
        <time>2018-08-20T13:42:10Z</time>
      </trkpt>
      <trkpt lat="-27.959095" lon="-65.861675">
        <ele>1187.2</ele>
        <time>2018-08-20T13:42:12Z</time>
      </trkpt>
      <trkpt lat="-27.95917" lon="-65.86157">
        <ele>1187.5</ele>
        <time>2018-08-20T13:42:14Z</time>
      </trkpt>
      <trkpt lat="-27.959265" lon="-65.86145">
        <ele>1187.8</ele>
        <time>2018-08-20T13:42:16Z</time>
      </trkpt>
      <trkpt lat="-27.95937" lon="-65.86132333333333">
        <ele>1187.1</ele>
        <time>2018-08-20T13:42:18Z</time>
      </trkpt>
      <trkpt lat="-27.959425" lon="-65.86126">
        <ele>1186.7</ele>
        <time>2018-08-20T13:42:19Z</time>
      </trkpt>
      <trkpt lat="-27.95948" lon="-65.86119666666667">
        <ele>1186.3</ele>
        <time>2018-08-20T13:42:20Z</time>
      </trkpt>
      <trkpt lat="-27.95953" lon="-65.86114">
        <ele>1186.0</ele>
        <time>2018-08-20T13:42:21Z</time>
      </trkpt>
      <trkpt lat="-27.959625" lon="-65.861025">
        <ele>1185.9</ele>
        <time>2018-08-20T13:42:23Z</time>
      </trkpt>
      <trkpt lat="-27.959675" lon="-65.86096">
        <ele>1185.7</ele>
        <time>2018-08-20T13:42:24Z</time>
      </trkpt>
      <trkpt lat="-27.95973" lon="-65.860895">
        <ele>1185.5</ele>
        <time>2018-08-20T13:42:25Z</time>
      </trkpt>
      <trkpt lat="-27.95978" lon="-65.86082666666667">
        <ele>1185.4</ele>
        <time>2018-08-20T13:42:26Z</time>
      </trkpt>
      <trkpt lat="-27.95983" lon="-65.860775">
        <ele>1185.2</ele>
        <time>2018-08-20T13:42:27Z</time>
      </trkpt>
      <trkpt lat="-27.959876666666666" lon="-65.86070333333333">
        <ele>1184.9</ele>
        <time>2018-08-20T13:42:28Z</time>
      </trkpt>
      <trkpt lat="-27.959935" lon="-65.86064">
        <ele>1184.7</ele>
        <time>2018-08-20T13:42:29Z</time>
      </trkpt>
      <trkpt lat="-27.959985" lon="-65.860585">
        <ele>1184.3</ele>
        <time>2018-08-20T13:42:30Z</time>
      </trkpt>
      <trkpt lat="-27.960095" lon="-65.860465">
        <ele>1183.9</ele>
        <time>2018-08-20T13:42:32Z</time>
      </trkpt>
      <trkpt lat="-27.960141666666665" lon="-65.860405">
        <ele>1184.0</ele>
        <time>2018-08-20T13:42:33Z</time>
      </trkpt>
      <trkpt lat="-27.960255" lon="-65.860275">
        <ele>1184.3</ele>
        <time>2018-08-20T13:42:35Z</time>
      </trkpt>
      <trkpt lat="-27.960315" lon="-65.8602">
        <ele>1184.3</ele>
        <time>2018-08-20T13:42:36Z</time>
      </trkpt>
      <trkpt lat="-27.960368333333335" lon="-65.860135">
        <ele>1184.0</ele>
        <time>2018-08-20T13:42:37Z</time>
      </trkpt>
      <trkpt lat="-27.96043" lon="-65.86006666666667">
        <ele>1183.7</ele>
        <time>2018-08-20T13:42:38Z</time>
      </trkpt>
      <trkpt lat="-27.96048" lon="-65.860015">
        <ele>1183.5</ele>
        <time>2018-08-20T13:42:39Z</time>
      </trkpt>
      <trkpt lat="-27.960535" lon="-65.859955">
        <ele>1183.4</ele>
        <time>2018-08-20T13:42:40Z</time>
      </trkpt>
      <trkpt lat="-27.960585000000002" lon="-65.85989000000001">
        <ele>1183.0</ele>
        <time>2018-08-20T13:42:41Z</time>
      </trkpt>
      <trkpt lat="-27.960635" lon="-65.85983">
        <ele>1182.8</ele>
        <time>2018-08-20T13:42:42Z</time>
      </trkpt>
      <trkpt lat="-27.960685" lon="-65.85976">
        <ele>1182.7</ele>
        <time>2018-08-20T13:42:43Z</time>
      </trkpt>
      <trkpt lat="-27.96074" lon="-65.8597">
        <ele>1182.4</ele>
        <time>2018-08-20T13:42:44Z</time>
      </trkpt>
      <trkpt lat="-27.96084" lon="-65.85957666666667">
        <ele>1181.5</ele>
        <time>2018-08-20T13:42:46Z</time>
      </trkpt>
      <trkpt lat="-27.960895" lon="-65.85952">
        <ele>1181.5</ele>
        <time>2018-08-20T13:42:47Z</time>
      </trkpt>
      <trkpt lat="-27.960995" lon="-65.85942">
        <ele>1181.1</ele>
        <time>2018-08-20T13:42:49Z</time>
      </trkpt>
      <trkpt lat="-27.961045" lon="-65.859365">
        <ele>1181.0</ele>
        <time>2018-08-20T13:42:50Z</time>
      </trkpt>
      <trkpt lat="-27.961155" lon="-65.859255">
        <ele>1181.1</ele>
        <time>2018-08-20T13:42:52Z</time>
      </trkpt>
      <trkpt lat="-27.961205" lon="-65.859195">
        <ele>1181.3</ele>
        <time>2018-08-20T13:42:53Z</time>
      </trkpt>
      <trkpt lat="-27.9613" lon="-65.8591">
        <ele>1181.6</ele>
        <time>2018-08-20T13:42:55Z</time>
      </trkpt>
      <trkpt lat="-27.961385" lon="-65.85899666666667">
        <ele>1181.8</ele>
        <time>2018-08-20T13:42:57Z</time>
      </trkpt>
      <trkpt lat="-27.961466666666666" lon="-65.858905">
        <ele>1181.9</ele>
        <time>2018-08-20T13:42:59Z</time>
      </trkpt>
      <trkpt lat="-27.961551666666665" lon="-65.85881666666667">
        <ele>1182.0</ele>
        <time>2018-08-20T13:43:01Z</time>
      </trkpt>
      <trkpt lat="-27.96164" lon="-65.85873">
        <ele>1182.0</ele>
        <time>2018-08-20T13:43:03Z</time>
      </trkpt>
      <trkpt lat="-27.961725" lon="-65.85865">
        <ele>1182.1</ele>
        <time>2018-08-20T13:43:05Z</time>
      </trkpt>
      <trkpt lat="-27.9618" lon="-65.858565">
        <ele>1182.4</ele>
        <time>2018-08-20T13:43:07Z</time>
      </trkpt>
      <trkpt lat="-27.96187" lon="-65.858485">
        <ele>1182.7</ele>
        <time>2018-08-20T13:43:09Z</time>
      </trkpt>
      <trkpt lat="-27.961945" lon="-65.85840166666667">
        <ele>1182.9</ele>
        <time>2018-08-20T13:43:11Z</time>
      </trkpt>
      <trkpt lat="-27.962015" lon="-65.858325">
        <ele>1183.1</ele>
        <time>2018-08-20T13:43:13Z</time>
      </trkpt>
      <trkpt lat="-27.96209" lon="-65.85823666666667">
        <ele>1182.7</ele>
        <time>2018-08-20T13:43:15Z</time>
      </trkpt>
      <trkpt lat="-27.962158333333335" lon="-65.858155">
        <ele>1181.8</ele>
        <time>2018-08-20T13:43:17Z</time>
      </trkpt>
      <trkpt lat="-27.962225" lon="-65.858085">
        <ele>1181.2</ele>
        <time>2018-08-20T13:43:19Z</time>
      </trkpt>
      <trkpt lat="-27.962295" lon="-65.858005">
        <ele>1180.6</ele>
        <time>2018-08-20T13:43:21Z</time>
      </trkpt>
      <trkpt lat="-27.96237" lon="-65.85792000000001">
        <ele>1180.2</ele>
        <time>2018-08-20T13:43:23Z</time>
      </trkpt>
      <trkpt lat="-27.96245" lon="-65.85782">
        <ele>1179.9</ele>
        <time>2018-08-20T13:43:25Z</time>
      </trkpt>
      <trkpt lat="-27.962525" lon="-65.85772">
        <ele>1179.6</ele>
        <time>2018-08-20T13:43:27Z</time>
      </trkpt>
      <trkpt lat="-27.96262" lon="-65.85759666666667">
        <ele>1179.1</ele>
        <time>2018-08-20T13:43:29Z</time>
      </trkpt>
      <trkpt lat="-27.96271" lon="-65.85747166666667">
        <ele>1178.5</ele>
        <time>2018-08-20T13:43:31Z</time>
      </trkpt>
      <trkpt lat="-27.962805" lon="-65.85733666666667">
        <ele>1177.7</ele>
        <time>2018-08-20T13:43:33Z</time>
      </trkpt>
      <trkpt lat="-27.962855" lon="-65.85727">
        <ele>1177.1</ele>
        <time>2018-08-20T13:43:34Z</time>
      </trkpt>
      <trkpt lat="-27.962915" lon="-65.857185">
        <ele>1176.7</ele>
        <time>2018-08-20T13:43:35Z</time>
      </trkpt>
      <trkpt lat="-27.96298" lon="-65.8571">
        <ele>1176.3</ele>
        <time>2018-08-20T13:43:36Z</time>
      </trkpt>
      <trkpt lat="-27.963045" lon="-65.857015">
        <ele>1176.0</ele>
        <time>2018-08-20T13:43:37Z</time>
      </trkpt>
      <trkpt lat="-27.963096666666665" lon="-65.856935">
        <ele>1175.9</ele>
        <time>2018-08-20T13:43:38Z</time>
      </trkpt>
      <trkpt lat="-27.963165" lon="-65.85685166666667">
        <ele>1175.7</ele>
        <time>2018-08-20T13:43:39Z</time>
      </trkpt>
      <trkpt lat="-27.96323" lon="-65.85676333333333">
        <ele>1175.6</ele>
        <time>2018-08-20T13:43:40Z</time>
      </trkpt>
      <trkpt lat="-27.963295" lon="-65.85668">
        <ele>1175.2</ele>
        <time>2018-08-20T13:43:41Z</time>
      </trkpt>
      <trkpt lat="-27.963356666666666" lon="-65.85659">
        <ele>1174.7</ele>
        <time>2018-08-20T13:43:42Z</time>
      </trkpt>
      <trkpt lat="-27.963435" lon="-65.856485">
        <ele>1174.2</ele>
        <time>2018-08-20T13:43:43Z</time>
      </trkpt>
      <trkpt lat="-27.96351" lon="-65.85638666666667">
        <ele>1173.7</ele>
        <time>2018-08-20T13:43:44Z</time>
      </trkpt>
      <trkpt lat="-27.96358" lon="-65.856295">
        <ele>1173.0</ele>
        <time>2018-08-20T13:43:45Z</time>
      </trkpt>
      <trkpt lat="-27.96366" lon="-65.856185">
        <ele>1172.4</ele>
        <time>2018-08-20T13:43:46Z</time>
      </trkpt>
      <trkpt lat="-27.963735" lon="-65.85608333333333">
        <ele>1171.8</ele>
        <time>2018-08-20T13:43:47Z</time>
      </trkpt>
      <trkpt lat="-27.963815" lon="-65.85598">
        <ele>1171.3</ele>
        <time>2018-08-20T13:43:48Z</time>
      </trkpt>
      <trkpt lat="-27.963891666666665" lon="-65.85586666666667">
        <ele>1170.6</ele>
        <time>2018-08-20T13:43:49Z</time>
      </trkpt>
      <trkpt lat="-27.96397" lon="-65.85577">
        <ele>1169.7</ele>
        <time>2018-08-20T13:43:50Z</time>
      </trkpt>
      <trkpt lat="-27.964055" lon="-65.85566">
        <ele>1169.0</ele>
        <time>2018-08-20T13:43:51Z</time>
      </trkpt>
      <trkpt lat="-27.964135" lon="-65.85554666666667">
        <ele>1168.5</ele>
        <time>2018-08-20T13:43:52Z</time>
      </trkpt>
      <trkpt lat="-27.964215" lon="-65.855445">
        <ele>1167.9</ele>
        <time>2018-08-20T13:43:53Z</time>
      </trkpt>
      <trkpt lat="-27.964295" lon="-65.85533">
        <ele>1167.3</ele>
        <time>2018-08-20T13:43:54Z</time>
      </trkpt>
      <trkpt lat="-27.96438" lon="-65.85522">
        <ele>1166.8</ele>
        <time>2018-08-20T13:43:55Z</time>
      </trkpt>
      <trkpt lat="-27.964455" lon="-65.855115">
        <ele>1166.4</ele>
        <time>2018-08-20T13:43:56Z</time>
      </trkpt>
      <trkpt lat="-27.96453" lon="-65.85500833333333">
        <ele>1165.9</ele>
        <time>2018-08-20T13:43:57Z</time>
      </trkpt>
      <trkpt lat="-27.96461" lon="-65.85491">
        <ele>1165.5</ele>
        <time>2018-08-20T13:43:58Z</time>
      </trkpt>
      <trkpt lat="-27.964685" lon="-65.85479666666667">
        <ele>1165.1</ele>
        <time>2018-08-20T13:43:59Z</time>
      </trkpt>
      <trkpt lat="-27.96476" lon="-65.85470166666667">
        <ele>1164.8</ele>
        <time>2018-08-20T13:44:00Z</time>
      </trkpt>
      <trkpt lat="-27.964835" lon="-65.8546">
        <ele>1164.7</ele>
        <time>2018-08-20T13:44:01Z</time>
      </trkpt>
      <trkpt lat="-27.964905" lon="-65.854505">
        <ele>1164.6</ele>
        <time>2018-08-20T13:44:02Z</time>
      </trkpt>
      <trkpt lat="-27.964975" lon="-65.85441">
        <ele>1164.5</ele>
        <time>2018-08-20T13:44:03Z</time>
      </trkpt>
      <trkpt lat="-27.96504" lon="-65.854325">
        <ele>1164.2</ele>
        <time>2018-08-20T13:44:04Z</time>
      </trkpt>
      <trkpt lat="-27.96511" lon="-65.854235">
        <ele>1163.8</ele>
        <time>2018-08-20T13:44:05Z</time>
      </trkpt>
      <trkpt lat="-27.96518" lon="-65.85413">
        <ele>1163.6</ele>
        <time>2018-08-20T13:44:06Z</time>
      </trkpt>
      <trkpt lat="-27.965245" lon="-65.854055">
        <ele>1163.4</ele>
        <time>2018-08-20T13:44:07Z</time>
      </trkpt>
      <trkpt lat="-27.965301666666665" lon="-65.85397">
        <ele>1163.4</ele>
        <time>2018-08-20T13:44:08Z</time>
      </trkpt>
      <trkpt lat="-27.96536" lon="-65.85389166666667">
        <ele>1163.2</ele>
        <time>2018-08-20T13:44:09Z</time>
      </trkpt>
      <trkpt lat="-27.965415" lon="-65.85381">
        <ele>1162.8</ele>
        <time>2018-08-20T13:44:10Z</time>
      </trkpt>
      <trkpt lat="-27.965475" lon="-65.853735">
        <ele>1162.9</ele>
        <time>2018-08-20T13:44:11Z</time>
      </trkpt>
      <trkpt lat="-27.965545" lon="-65.85364">
        <ele>1163.3</ele>
        <time>2018-08-20T13:44:12Z</time>
      </trkpt>
      <trkpt lat="-27.96561" lon="-65.85356">
        <ele>1163.5</ele>
        <time>2018-08-20T13:44:13Z</time>
      </trkpt>
      <trkpt lat="-27.96566" lon="-65.853485">
        <ele>1163.3</ele>
        <time>2018-08-20T13:44:14Z</time>
      </trkpt>
      <trkpt lat="-27.965708333333332" lon="-65.85342">
        <ele>1163.2</ele>
        <time>2018-08-20T13:44:15Z</time>
      </trkpt>
      <trkpt lat="-27.965765" lon="-65.853345">
        <ele>1163.0</ele>
        <time>2018-08-20T13:44:16Z</time>
      </trkpt>
      <trkpt lat="-27.96582" lon="-65.853275">
        <ele>1162.8</ele>
        <time>2018-08-20T13:44:17Z</time>
      </trkpt>
      <trkpt lat="-27.965875" lon="-65.8532">
        <ele>1162.6</ele>
        <time>2018-08-20T13:44:18Z</time>
      </trkpt>
      <trkpt lat="-27.96593" lon="-65.85312833333333">
        <ele>1162.4</ele>
        <time>2018-08-20T13:44:19Z</time>
      </trkpt>
      <trkpt lat="-27.965976666666666" lon="-65.85306">
        <ele>1162.2</ele>
        <time>2018-08-20T13:44:20Z</time>
      </trkpt>
      <trkpt lat="-27.96603" lon="-65.85299166666667">
        <ele>1162.0</ele>
        <time>2018-08-20T13:44:21Z</time>
      </trkpt>
      <trkpt lat="-27.966085" lon="-65.85292">
        <ele>1161.9</ele>
        <time>2018-08-20T13:44:22Z</time>
      </trkpt>
      <trkpt lat="-27.96613" lon="-65.85285666666667">
        <ele>1161.7</ele>
        <time>2018-08-20T13:44:23Z</time>
      </trkpt>
      <trkpt lat="-27.966185" lon="-65.852795">
        <ele>1161.8</ele>
        <time>2018-08-20T13:44:24Z</time>
      </trkpt>
      <trkpt lat="-27.966235" lon="-65.852725">
        <ele>1161.8</ele>
        <time>2018-08-20T13:44:25Z</time>
      </trkpt>
      <trkpt lat="-27.966286666666665" lon="-65.85267">
        <ele>1161.8</ele>
        <time>2018-08-20T13:44:26Z</time>
      </trkpt>
      <trkpt lat="-27.966345" lon="-65.85261">
        <ele>1161.6</ele>
        <time>2018-08-20T13:44:27Z</time>
      </trkpt>
      <trkpt lat="-27.966405" lon="-65.852555">
        <ele>1161.0</ele>
        <time>2018-08-20T13:44:28Z</time>
      </trkpt>
      <trkpt lat="-27.966465" lon="-65.8525">
        <ele>1160.7</ele>
        <time>2018-08-20T13:44:29Z</time>
      </trkpt>
      <trkpt lat="-27.966535" lon="-65.852455">
        <ele>1160.6</ele>
        <time>2018-08-20T13:44:30Z</time>
      </trkpt>
      <trkpt lat="-27.966666666666665" lon="-65.85237166666667">
        <ele>1160.3</ele>
        <time>2018-08-20T13:44:32Z</time>
      </trkpt>
      <trkpt lat="-27.966735" lon="-65.85234">
        <ele>1159.9</ele>
        <time>2018-08-20T13:44:33Z</time>
      </trkpt>
      <trkpt lat="-27.966805" lon="-65.8523">
        <ele>1159.7</ele>
        <time>2018-08-20T13:44:34Z</time>
      </trkpt>
      <trkpt lat="-27.966925" lon="-65.852255">
        <ele>1159.0</ele>
        <time>2018-08-20T13:44:36Z</time>
      </trkpt>
      <trkpt lat="-27.966995" lon="-65.85221833333334">
        <ele>1158.9</ele>
        <time>2018-08-20T13:44:37Z</time>
      </trkpt>
      <trkpt lat="-27.96713" lon="-65.852175">
        <ele>1158.7</ele>
        <time>2018-08-20T13:44:39Z</time>
      </trkpt>
      <trkpt lat="-27.967261666666666" lon="-65.852125">
        <ele>1158.5</ele>
        <time>2018-08-20T13:44:41Z</time>
      </trkpt>
      <trkpt lat="-27.967335" lon="-65.852095">
        <ele>1158.4</ele>
        <time>2018-08-20T13:44:42Z</time>
      </trkpt>
      <trkpt lat="-27.967475" lon="-65.852045">
        <ele>1157.6</ele>
        <time>2018-08-20T13:44:44Z</time>
      </trkpt>
      <trkpt lat="-27.967545" lon="-65.85201166666667">
        <ele>1157.5</ele>
        <time>2018-08-20T13:44:45Z</time>
      </trkpt>
      <trkpt lat="-27.967615" lon="-65.85199">
        <ele>1157.4</ele>
        <time>2018-08-20T13:44:46Z</time>
      </trkpt>
      <trkpt lat="-27.967685" lon="-65.851955">
        <ele>1157.3</ele>
        <time>2018-08-20T13:44:47Z</time>
      </trkpt>
      <trkpt lat="-27.967755" lon="-65.851925">
        <ele>1157.3</ele>
        <time>2018-08-20T13:44:48Z</time>
      </trkpt>
      <trkpt lat="-27.967825" lon="-65.8519">
        <ele>1157.4</ele>
        <time>2018-08-20T13:44:49Z</time>
      </trkpt>
      <trkpt lat="-27.96796" lon="-65.85184">
        <ele>1157.4</ele>
        <time>2018-08-20T13:44:51Z</time>
      </trkpt>
      <trkpt lat="-27.968095" lon="-65.85178833333333">
        <ele>1157.4</ele>
        <time>2018-08-20T13:44:53Z</time>
      </trkpt>
      <trkpt lat="-27.968225" lon="-65.85174">
        <ele>1157.0</ele>
        <time>2018-08-20T13:44:55Z</time>
      </trkpt>
      <trkpt lat="-27.968355" lon="-65.85168666666667">
        <ele>1156.9</ele>
        <time>2018-08-20T13:44:57Z</time>
      </trkpt>
      <trkpt lat="-27.968481666666666" lon="-65.85164">
        <ele>1156.8</ele>
        <time>2018-08-20T13:44:59Z</time>
      </trkpt>
      <trkpt lat="-27.96862" lon="-65.85159">
        <ele>1156.1</ele>
        <time>2018-08-20T13:45:01Z</time>
      </trkpt>
      <trkpt lat="-27.96869" lon="-65.85156">
        <ele>1155.7</ele>
        <time>2018-08-20T13:45:02Z</time>
      </trkpt>
      <trkpt lat="-27.968825" lon="-65.851515">
        <ele>1155.4</ele>
        <time>2018-08-20T13:45:04Z</time>
      </trkpt>
      <trkpt lat="-27.968895" lon="-65.851485">
        <ele>1155.5</ele>
        <time>2018-08-20T13:45:05Z</time>
      </trkpt>
      <trkpt lat="-27.968965" lon="-65.851455">
        <ele>1155.3</ele>
        <time>2018-08-20T13:45:06Z</time>
      </trkpt>
      <trkpt lat="-27.96904" lon="-65.85142666666667">
        <ele>1155.3</ele>
        <time>2018-08-20T13:45:07Z</time>
      </trkpt>
      <trkpt lat="-27.969115" lon="-65.8514">
        <ele>1155.1</ele>
        <time>2018-08-20T13:45:08Z</time>
      </trkpt>
      <trkpt lat="-27.969185" lon="-65.851375">
        <ele>1155.3</ele>
        <time>2018-08-20T13:45:09Z</time>
      </trkpt>
      <trkpt lat="-27.96926" lon="-65.851345">
        <ele>1155.4</ele>
        <time>2018-08-20T13:45:10Z</time>
      </trkpt>
      <trkpt lat="-27.969335" lon="-65.85131666666666">
        <ele>1155.6</ele>
        <time>2018-08-20T13:45:11Z</time>
      </trkpt>
      <trkpt lat="-27.969405" lon="-65.85129">
        <ele>1155.7</ele>
        <time>2018-08-20T13:45:12Z</time>
      </trkpt>
      <trkpt lat="-27.969475" lon="-65.85127">
        <ele>1155.8</ele>
        <time>2018-08-20T13:45:13Z</time>
      </trkpt>
      <trkpt lat="-27.969545" lon="-65.85123333333334">
        <ele>1155.9</ele>
        <time>2018-08-20T13:45:14Z</time>
      </trkpt>
      <trkpt lat="-27.969611666666665" lon="-65.85120333333333">
        <ele>1156.0</ele>
        <time>2018-08-20T13:45:15Z</time>
      </trkpt>
      <trkpt lat="-27.969755" lon="-65.85115166666667">
        <ele>1155.8</ele>
        <time>2018-08-20T13:45:17Z</time>
      </trkpt>
      <trkpt lat="-27.969825" lon="-65.85113">
        <ele>1155.7</ele>
        <time>2018-08-20T13:45:18Z</time>
      </trkpt>
      <trkpt lat="-27.96996" lon="-65.85107666666667">
        <ele>1155.8</ele>
        <time>2018-08-20T13:45:20Z</time>
      </trkpt>
      <trkpt lat="-27.97009" lon="-65.85102666666667">
        <ele>1155.6</ele>
        <time>2018-08-20T13:45:22Z</time>
      </trkpt>
      <trkpt lat="-27.970225" lon="-65.85098">
        <ele>1155.4</ele>
        <time>2018-08-20T13:45:24Z</time>
      </trkpt>
      <trkpt lat="-27.970355" lon="-65.85093333333333">
        <ele>1155.1</ele>
        <time>2018-08-20T13:45:26Z</time>
      </trkpt>
      <trkpt lat="-27.970485" lon="-65.850885">
        <ele>1155.0</ele>
        <time>2018-08-20T13:45:28Z</time>
      </trkpt>
      <trkpt lat="-27.970615" lon="-65.85084">
        <ele>1155.0</ele>
        <time>2018-08-20T13:45:30Z</time>
      </trkpt>
      <trkpt lat="-27.97074" lon="-65.85079">
        <ele>1154.7</ele>
        <time>2018-08-20T13:45:32Z</time>
      </trkpt>
      <trkpt lat="-27.970865" lon="-65.85074">
        <ele>1154.5</ele>
        <time>2018-08-20T13:45:34Z</time>
      </trkpt>
      <trkpt lat="-27.971" lon="-65.85069">
        <ele>1154.2</ele>
        <time>2018-08-20T13:45:36Z</time>
      </trkpt>
      <trkpt lat="-27.971135" lon="-65.85063">
        <ele>1153.9</ele>
        <time>2018-08-20T13:45:38Z</time>
      </trkpt>
      <trkpt lat="-27.97121" lon="-65.85061">
        <ele>1153.7</ele>
        <time>2018-08-20T13:45:39Z</time>
      </trkpt>
      <trkpt lat="-27.97128" lon="-65.850575">
        <ele>1153.6</ele>
        <time>2018-08-20T13:45:40Z</time>
      </trkpt>
      <trkpt lat="-27.97135" lon="-65.850555">
        <ele>1153.4</ele>
        <time>2018-08-20T13:45:41Z</time>
      </trkpt>
      <trkpt lat="-27.971425" lon="-65.85052">
        <ele>1153.1</ele>
        <time>2018-08-20T13:45:42Z</time>
      </trkpt>
      <trkpt lat="-27.971505" lon="-65.85048833333333">
        <ele>1152.8</ele>
        <time>2018-08-20T13:45:43Z</time>
      </trkpt>
      <trkpt lat="-27.97158" lon="-65.850465">
        <ele>1152.5</ele>
        <time>2018-08-20T13:45:44Z</time>
      </trkpt>
      <trkpt lat="-27.97166" lon="-65.85043">
        <ele>1152.2</ele>
        <time>2018-08-20T13:45:45Z</time>
      </trkpt>
      <trkpt lat="-27.97173" lon="-65.85039833333333">
        <ele>1151.7</ele>
        <time>2018-08-20T13:45:46Z</time>
      </trkpt>
      <trkpt lat="-27.971815" lon="-65.85037">
        <ele>1151.4</ele>
        <time>2018-08-20T13:45:47Z</time>
      </trkpt>
      <trkpt lat="-27.9719" lon="-65.85033">
        <ele>1151.1</ele>
        <time>2018-08-20T13:45:48Z</time>
      </trkpt>
      <trkpt lat="-27.97198" lon="-65.850295">
        <ele>1150.8</ele>
        <time>2018-08-20T13:45:49Z</time>
      </trkpt>
      <trkpt lat="-27.97206" lon="-65.850245">
        <ele>1150.4</ele>
        <time>2018-08-20T13:45:50Z</time>
      </trkpt>
      <trkpt lat="-27.972135" lon="-65.850205">
        <ele>1149.9</ele>
        <time>2018-08-20T13:45:51Z</time>
      </trkpt>
      <trkpt lat="-27.972205" lon="-65.85015">
        <ele>1149.4</ele>
        <time>2018-08-20T13:45:52Z</time>
      </trkpt>
      <trkpt lat="-27.972275" lon="-65.85009166666667">
        <ele>1148.9</ele>
        <time>2018-08-20T13:45:53Z</time>
      </trkpt>
      <trkpt lat="-27.972336666666667" lon="-65.85003">
        <ele>1148.6</ele>
        <time>2018-08-20T13:45:54Z</time>
      </trkpt>
      <trkpt lat="-27.97241" lon="-65.849965">
        <ele>1148.5</ele>
        <time>2018-08-20T13:45:55Z</time>
      </trkpt>
      <trkpt lat="-27.972475" lon="-65.8499">
        <ele>1148.1</ele>
        <time>2018-08-20T13:45:56Z</time>
      </trkpt>
      <trkpt lat="-27.97254" lon="-65.849845">
        <ele>1147.7</ele>
        <time>2018-08-20T13:45:57Z</time>
      </trkpt>
      <trkpt lat="-27.9726" lon="-65.84977">
        <ele>1147.6</ele>
        <time>2018-08-20T13:45:58Z</time>
      </trkpt>
      <trkpt lat="-27.972665" lon="-65.849715">
        <ele>1147.6</ele>
        <time>2018-08-20T13:45:59Z</time>
      </trkpt>
      <trkpt lat="-27.972715" lon="-65.849655">
        <ele>1147.8</ele>
        <time>2018-08-20T13:46:00Z</time>
      </trkpt>
      <trkpt lat="-27.97278" lon="-65.84959">
        <ele>1148.0</ele>
        <time>2018-08-20T13:46:01Z</time>
      </trkpt>
      <trkpt lat="-27.972838333333332" lon="-65.84953">
        <ele>1148.0</ele>
        <time>2018-08-20T13:46:02Z</time>
      </trkpt>
      <trkpt lat="-27.972955" lon="-65.84941333333333">
        <ele>1147.7</ele>
        <time>2018-08-20T13:46:04Z</time>
      </trkpt>
      <trkpt lat="-27.97301" lon="-65.84935833333333">
        <ele>1147.8</ele>
        <time>2018-08-20T13:46:05Z</time>
      </trkpt>
      <trkpt lat="-27.973105" lon="-65.84926">
        <ele>1147.4</ele>
        <time>2018-08-20T13:46:07Z</time>
      </trkpt>
      <trkpt lat="-27.973195" lon="-65.849175">
        <ele>1146.5</ele>
        <time>2018-08-20T13:46:09Z</time>
      </trkpt>
      <trkpt lat="-27.973275" lon="-65.849095">
        <ele>1147.1</ele>
        <time>2018-08-20T13:46:11Z</time>
      </trkpt>
      <trkpt lat="-27.97336" lon="-65.849025">
        <ele>1147.8</ele>
        <time>2018-08-20T13:46:13Z</time>
      </trkpt>
      <trkpt lat="-27.973435" lon="-65.848965">
        <ele>1148.0</ele>
        <time>2018-08-20T13:46:15Z</time>
      </trkpt>
      <trkpt lat="-27.973525" lon="-65.848895">
        <ele>1148.1</ele>
        <time>2018-08-20T13:46:18Z</time>
      </trkpt>
      <trkpt lat="-27.973585" lon="-65.84885">
        <ele>1148.7</ele>
        <time>2018-08-20T13:46:20Z</time>
      </trkpt>
      <trkpt lat="-27.973605" lon="-65.84874">
        <ele>1150.6</ele>
        <time>2018-08-20T13:46:23Z</time>
      </trkpt>
      <trkpt lat="-27.97365" lon="-65.84863">
        <ele>1149.5</ele>
        <time>2018-08-20T13:46:26Z</time>
      </trkpt>
      <trkpt lat="-27.973735" lon="-65.84859833333333">
        <ele>1146.9</ele>
        <time>2018-08-20T13:46:28Z</time>
      </trkpt>
      <trkpt lat="-27.97384" lon="-65.848595">
        <ele>1145.5</ele>
        <time>2018-08-20T13:46:31Z</time>
      </trkpt>
      <trkpt lat="-27.97393" lon="-65.84856">
        <ele>1145.8</ele>
        <time>2018-08-20T13:46:33Z</time>
      </trkpt>
      <trkpt lat="-27.974011666666666" lon="-65.84851333333333">
        <ele>1146.4</ele>
        <time>2018-08-20T13:46:35Z</time>
      </trkpt>
      <trkpt lat="-27.974095" lon="-65.84847166666667">
        <ele>1147.9</ele>
        <time>2018-08-20T13:46:37Z</time>
      </trkpt>
      <trkpt lat="-27.974175" lon="-65.84842666666667">
        <ele>1150.3</ele>
        <time>2018-08-20T13:46:39Z</time>
      </trkpt>
      <trkpt lat="-27.97426" lon="-65.84838">
        <ele>1151.4</ele>
        <time>2018-08-20T13:46:41Z</time>
      </trkpt>
      <trkpt lat="-27.974345" lon="-65.84833833333333">
        <ele>1151.5</ele>
        <time>2018-08-20T13:46:43Z</time>
      </trkpt>
      <trkpt lat="-27.974425" lon="-65.84829333333333">
        <ele>1151.6</ele>
        <time>2018-08-20T13:46:45Z</time>
      </trkpt>
      <trkpt lat="-27.97451" lon="-65.84824666666667">
        <ele>1151.4</ele>
        <time>2018-08-20T13:46:47Z</time>
      </trkpt>
      <trkpt lat="-27.9746" lon="-65.8482">
        <ele>1151.1</ele>
        <time>2018-08-20T13:46:49Z</time>
      </trkpt>
      <trkpt lat="-27.974685" lon="-65.84815666666667">
        <ele>1151.0</ele>
        <time>2018-08-20T13:46:51Z</time>
      </trkpt>
      <trkpt lat="-27.974785" lon="-65.848115">
        <ele>1150.4</ele>
        <time>2018-08-20T13:46:53Z</time>
      </trkpt>
      <trkpt lat="-27.974875" lon="-65.84807">
        <ele>1149.8</ele>
        <time>2018-08-20T13:46:55Z</time>
      </trkpt>
      <trkpt lat="-27.974975" lon="-65.848025">
        <ele>1149.4</ele>
        <time>2018-08-20T13:46:57Z</time>
      </trkpt>
      <trkpt lat="-27.97506" lon="-65.84798166666667">
        <ele>1149.6</ele>
        <time>2018-08-20T13:46:59Z</time>
      </trkpt>
      <trkpt lat="-27.975153333333335" lon="-65.84793166666667">
        <ele>1149.9</ele>
        <time>2018-08-20T13:47:01Z</time>
      </trkpt>
      <trkpt lat="-27.97525" lon="-65.84788666666667">
        <ele>1149.5</ele>
        <time>2018-08-20T13:47:03Z</time>
      </trkpt>
      <trkpt lat="-27.97534" lon="-65.847845">
        <ele>1148.7</ele>
        <time>2018-08-20T13:47:05Z</time>
      </trkpt>
      <trkpt lat="-27.97544" lon="-65.8478">
        <ele>1148.1</ele>
        <time>2018-08-20T13:47:07Z</time>
      </trkpt>
      <trkpt lat="-27.97553" lon="-65.847755">
        <ele>1148.3</ele>
        <time>2018-08-20T13:47:09Z</time>
      </trkpt>
      <trkpt lat="-27.975635" lon="-65.847705">
        <ele>1148.2</ele>
        <time>2018-08-20T13:47:11Z</time>
      </trkpt>
      <trkpt lat="-27.975735" lon="-65.847655">
        <ele>1146.9</ele>
        <time>2018-08-20T13:47:13Z</time>
      </trkpt>
      <trkpt lat="-27.97584" lon="-65.8476">
        <ele>1146.1</ele>
        <time>2018-08-20T13:47:15Z</time>
      </trkpt>
      <trkpt lat="-27.975945" lon="-65.847545">
        <ele>1145.5</ele>
        <time>2018-08-20T13:47:17Z</time>
      </trkpt>
      <trkpt lat="-27.97606" lon="-65.8475">
        <ele>1145.6</ele>
        <time>2018-08-20T13:47:19Z</time>
      </trkpt>
      <trkpt lat="-27.976125" lon="-65.84746">
        <ele>1145.6</ele>
        <time>2018-08-20T13:47:20Z</time>
      </trkpt>
      <trkpt lat="-27.97625" lon="-65.84740333333333">
        <ele>1145.4</ele>
        <time>2018-08-20T13:47:22Z</time>
      </trkpt>
      <trkpt lat="-27.976355" lon="-65.847365">
        <ele>1144.9</ele>
        <time>2018-08-20T13:47:24Z</time>
      </trkpt>
      <trkpt lat="-27.97646" lon="-65.84732">
        <ele>1144.3</ele>
        <time>2018-08-20T13:47:26Z</time>
      </trkpt>
      <trkpt lat="-27.976565" lon="-65.84726333333333">
        <ele>1143.4</ele>
        <time>2018-08-20T13:47:28Z</time>
      </trkpt>
      <trkpt lat="-27.976661666666665" lon="-65.84721166666667">
        <ele>1143.7</ele>
        <time>2018-08-20T13:47:30Z</time>
      </trkpt>
      <trkpt lat="-27.976778333333332" lon="-65.84716">
        <ele>1143.8</ele>
        <time>2018-08-20T13:47:32Z</time>
      </trkpt>
      <trkpt lat="-27.976895" lon="-65.84711">
        <ele>1144.7</ele>
        <time>2018-08-20T13:47:34Z</time>
      </trkpt>
      <trkpt lat="-27.97698" lon="-65.84706">
        <ele>1144.0</ele>
        <time>2018-08-20T13:47:36Z</time>
      </trkpt>
      <trkpt lat="-27.977105" lon="-65.84700166666667">
        <ele>1141.9</ele>
        <time>2018-08-20T13:47:38Z</time>
      </trkpt>
      <trkpt lat="-27.977175" lon="-65.84697">
        <ele>1141.3</ele>
        <time>2018-08-20T13:47:39Z</time>
      </trkpt>
      <trkpt lat="-27.9773" lon="-65.8469">
        <ele>1141.2</ele>
        <time>2018-08-20T13:47:41Z</time>
      </trkpt>
      <trkpt lat="-27.977415" lon="-65.84685">
        <ele>1141.4</ele>
        <time>2018-08-20T13:47:43Z</time>
      </trkpt>
      <trkpt lat="-27.977515" lon="-65.846805">
        <ele>1141.7</ele>
        <time>2018-08-20T13:47:45Z</time>
      </trkpt>
      <trkpt lat="-27.97763" lon="-65.846755">
        <ele>1140.9</ele>
        <time>2018-08-20T13:47:47Z</time>
      </trkpt>
      <trkpt lat="-27.97774" lon="-65.84671">
        <ele>1140.7</ele>
        <time>2018-08-20T13:47:49Z</time>
      </trkpt>
      <trkpt lat="-27.977845" lon="-65.846665">
        <ele>1140.7</ele>
        <time>2018-08-20T13:47:51Z</time>
      </trkpt>
      <trkpt lat="-27.97796" lon="-65.846615">
        <ele>1140.6</ele>
        <time>2018-08-20T13:47:53Z</time>
      </trkpt>
      <trkpt lat="-27.978075" lon="-65.84656">
        <ele>1140.9</ele>
        <time>2018-08-20T13:47:55Z</time>
      </trkpt>
      <trkpt lat="-27.97819" lon="-65.846495">
        <ele>1141.2</ele>
        <time>2018-08-20T13:47:57Z</time>
      </trkpt>
      <trkpt lat="-27.978285" lon="-65.84645">
        <ele>1141.5</ele>
        <time>2018-08-20T13:47:59Z</time>
      </trkpt>
      <trkpt lat="-27.978385" lon="-65.84640166666667">
        <ele>1142.2</ele>
        <time>2018-08-20T13:48:01Z</time>
      </trkpt>
      <trkpt lat="-27.978495" lon="-65.846355">
        <ele>1142.6</ele>
        <time>2018-08-20T13:48:03Z</time>
      </trkpt>
      <trkpt lat="-27.9786" lon="-65.846305">
        <ele>1142.9</ele>
        <time>2018-08-20T13:48:05Z</time>
      </trkpt>
      <trkpt lat="-27.9787" lon="-65.846265">
        <ele>1142.9</ele>
        <time>2018-08-20T13:48:07Z</time>
      </trkpt>
      <trkpt lat="-27.9788" lon="-65.846215">
        <ele>1142.9</ele>
        <time>2018-08-20T13:48:09Z</time>
      </trkpt>
      <trkpt lat="-27.9789" lon="-65.846165">
        <ele>1142.9</ele>
        <time>2018-08-20T13:48:11Z</time>
      </trkpt>
      <trkpt lat="-27.97899" lon="-65.846125">
        <ele>1142.4</ele>
        <time>2018-08-20T13:48:13Z</time>
      </trkpt>
      <trkpt lat="-27.979065" lon="-65.84609166666667">
        <ele>1142.2</ele>
        <time>2018-08-20T13:48:15Z</time>
      </trkpt>
      <trkpt lat="-27.97915" lon="-65.84604666666667">
        <ele>1142.3</ele>
        <time>2018-08-20T13:48:17Z</time>
      </trkpt>
      <trkpt lat="-27.979236666666665" lon="-65.84600166666667">
        <ele>1142.3</ele>
        <time>2018-08-20T13:48:20Z</time>
      </trkpt>
      <trkpt lat="-27.97934" lon="-65.845965">
        <ele>1142.3</ele>
        <time>2018-08-20T13:48:23Z</time>
      </trkpt>
      <trkpt lat="-27.979435" lon="-65.845915">
        <ele>1143.4</ele>
        <time>2018-08-20T13:48:26Z</time>
      </trkpt>
      <trkpt lat="-27.979515" lon="-65.845875">
        <ele>1143.7</ele>
        <time>2018-08-20T13:48:28Z</time>
      </trkpt>
      <trkpt lat="-27.979585" lon="-65.84583">
        <ele>1143.6</ele>
        <time>2018-08-20T13:48:30Z</time>
      </trkpt>
      <trkpt lat="-27.979661666666665" lon="-65.8458">
        <ele>1143.6</ele>
        <time>2018-08-20T13:48:32Z</time>
      </trkpt>
      <trkpt lat="-27.97973" lon="-65.845765">
        <ele>1143.5</ele>
        <time>2018-08-20T13:48:34Z</time>
      </trkpt>
      <trkpt lat="-27.97982" lon="-65.84570333333333">
        <ele>1143.5</ele>
        <time>2018-08-20T13:48:37Z</time>
      </trkpt>
      <trkpt lat="-27.97998" lon="-65.845575">
        <ele>1143.0</ele>
        <time>2018-08-20T13:48:45Z</time>
      </trkpt>
      <trkpt lat="-27.9801" lon="-65.84554">
        <ele>1140.5</ele>
        <time>2018-08-20T13:48:47Z</time>
      </trkpt>
      <trkpt lat="-27.9802" lon="-65.845505">
        <ele>1137.1</ele>
        <time>2018-08-20T13:48:49Z</time>
      </trkpt>
      <trkpt lat="-27.980275" lon="-65.84548">
        <ele>1131.2</ele>
        <time>2018-08-20T13:48:51Z</time>
      </trkpt>
      <trkpt lat="-27.98037" lon="-65.84547833333333">
        <ele>1125.9</ele>
        <time>2018-08-20T13:48:54Z</time>
      </trkpt>
      <trkpt lat="-27.980475" lon="-65.84546">
        <ele>1125.9</ele>
        <time>2018-08-20T13:48:56Z</time>
      </trkpt>
      <trkpt lat="-27.98054" lon="-65.845405">
        <ele>1126.1</ele>
        <time>2018-08-20T13:48:58Z</time>
      </trkpt>
      <trkpt lat="-27.980615" lon="-65.84534">
        <ele>1131.2</ele>
        <time>2018-08-20T13:49:05Z</time>
      </trkpt>
      <trkpt lat="-27.980681666666666" lon="-65.84531">
        <ele>1132.9</ele>
        <time>2018-08-20T13:49:07Z</time>
      </trkpt>
      <trkpt lat="-27.980745" lon="-65.845245">
        <ele>1133.3</ele>
        <time>2018-08-20T13:49:10Z</time>
      </trkpt>
      <trkpt lat="-27.98086" lon="-65.84524">
        <ele>1133.2</ele>
        <time>2018-08-20T13:49:13Z</time>
      </trkpt>
      <trkpt lat="-27.98096" lon="-65.84520333333333">
        <ele>1135.6</ele>
        <time>2018-08-20T13:49:15Z</time>
      </trkpt>
      <trkpt lat="-27.98106" lon="-65.845155">
        <ele>1139.9</ele>
        <time>2018-08-20T13:49:18Z</time>
      </trkpt>
      <trkpt lat="-27.981125" lon="-65.845115">
        <ele>1141.6</ele>
        <time>2018-08-20T13:49:20Z</time>
      </trkpt>
      <trkpt lat="-27.9812" lon="-65.84507333333333">
        <ele>1142.8</ele>
        <time>2018-08-20T13:49:22Z</time>
      </trkpt>
      <trkpt lat="-27.98128" lon="-65.84504">
        <ele>1143.5</ele>
        <time>2018-08-20T13:49:24Z</time>
      </trkpt>
      <trkpt lat="-27.981355" lon="-65.845">
        <ele>1144.1</ele>
        <time>2018-08-20T13:49:26Z</time>
      </trkpt>
      <trkpt lat="-27.98144" lon="-65.844955">
        <ele>1144.6</ele>
        <time>2018-08-20T13:49:28Z</time>
      </trkpt>
      <trkpt lat="-27.981525" lon="-65.84492">
        <ele>1145.3</ele>
        <time>2018-08-20T13:49:30Z</time>
      </trkpt>
      <trkpt lat="-27.98162" lon="-65.84487">
        <ele>1145.9</ele>
        <time>2018-08-20T13:49:32Z</time>
      </trkpt>
      <trkpt lat="-27.98171" lon="-65.844825">
        <ele>1146.2</ele>
        <time>2018-08-20T13:49:34Z</time>
      </trkpt>
      <trkpt lat="-27.9818" lon="-65.84478">
        <ele>1146.5</ele>
        <time>2018-08-20T13:49:36Z</time>
      </trkpt>
      <trkpt lat="-27.981891666666666" lon="-65.84473">
        <ele>1146.5</ele>
        <time>2018-08-20T13:49:38Z</time>
      </trkpt>
      <trkpt lat="-27.981975" lon="-65.8447">
        <ele>1145.7</ele>
        <time>2018-08-20T13:49:40Z</time>
      </trkpt>
      <trkpt lat="-27.982065" lon="-65.844655">
        <ele>1145.5</ele>
        <time>2018-08-20T13:49:42Z</time>
      </trkpt>
      <trkpt lat="-27.98213" lon="-65.84461">
        <ele>1145.6</ele>
        <time>2018-08-20T13:49:44Z</time>
      </trkpt>
      <trkpt lat="-27.982205" lon="-65.84456">
        <ele>1145.4</ele>
        <time>2018-08-20T13:49:46Z</time>
      </trkpt>
      <trkpt lat="-27.98228" lon="-65.844515">
        <ele>1145.4</ele>
        <time>2018-08-20T13:49:48Z</time>
      </trkpt>
      <trkpt lat="-27.98235" lon="-65.84444666666667">
        <ele>1145.4</ele>
        <time>2018-08-20T13:49:50Z</time>
      </trkpt>
      <trkpt lat="-27.982415" lon="-65.844385">
        <ele>1145.1</ele>
        <time>2018-08-20T13:49:52Z</time>
      </trkpt>
      <trkpt lat="-27.982475" lon="-65.84430833333333">
        <ele>1145.4</ele>
        <time>2018-08-20T13:49:54Z</time>
      </trkpt>
      <trkpt lat="-27.982495" lon="-65.844235">
        <ele>1145.5</ele>
        <time>2018-08-20T13:49:56Z</time>
      </trkpt>
      <trkpt lat="-27.98255" lon="-65.84415">
        <ele>1145.5</ele>
        <time>2018-08-20T13:50:00Z</time>
      </trkpt>
      <trkpt lat="-27.982606666666666" lon="-65.84408833333333">
        <ele>1145.6</ele>
        <time>2018-08-20T13:50:06Z</time>
      </trkpt>
      <trkpt lat="-27.98266" lon="-65.844015">
        <ele>1145.4</ele>
        <time>2018-08-20T13:50:10Z</time>
      </trkpt>
      <trkpt lat="-27.98272" lon="-65.843945">
        <ele>1145.4</ele>
        <time>2018-08-20T13:50:12Z</time>
      </trkpt>
      <trkpt lat="-27.982685" lon="-65.84386">
        <ele>1145.3</ele>
        <time>2018-08-20T13:50:14Z</time>
      </trkpt>
      <trkpt lat="-27.982755" lon="-65.8438">
        <ele>1142.6</ele>
        <time>2018-08-20T13:50:16Z</time>
      </trkpt>
      <trkpt lat="-27.9829" lon="-65.843745">
        <ele>1141.3</ele>
        <time>2018-08-20T13:50:18Z</time>
      </trkpt>
      <trkpt lat="-27.98303" lon="-65.843705">
        <ele>1140.8</ele>
        <time>2018-08-20T13:50:19Z</time>
      </trkpt>
      <trkpt lat="-27.98296" lon="-65.84376">
        <ele>1138.3</ele>
        <time>2018-08-20T13:50:22Z</time>
      </trkpt>
      <trkpt lat="-27.982945" lon="-65.84366">
        <ele>1137.5</ele>
        <time>2018-08-20T13:50:29Z</time>
      </trkpt>
      <trkpt lat="-27.982935" lon="-65.84365">
        <ele>1139.0</ele>
        <time>2018-08-20T13:50:36Z</time>
      </trkpt>
      <trkpt lat="-27.982935" lon="-65.84365">
        <ele>1139.2</ele>
        <time>2018-08-20T13:50:41Z</time>
      </trkpt>
      <trkpt lat="-27.983065" lon="-65.843605">
        <ele>1143.2</ele>
        <time>2018-08-20T13:52:20Z</time>
      </trkpt>
      <trkpt lat="-27.983135" lon="-65.84356">
        <ele>1143.4</ele>
        <time>2018-08-20T13:52:23Z</time>
      </trkpt>
      <trkpt lat="-27.98321" lon="-65.843485">
        <ele>1144.5</ele>
        <time>2018-08-20T13:52:26Z</time>
      </trkpt>
      <trkpt lat="-27.98328" lon="-65.84341">
        <ele>1144.1</ele>
        <time>2018-08-20T13:52:28Z</time>
      </trkpt>
      <trkpt lat="-27.98335" lon="-65.843325">
        <ele>1144.3</ele>
        <time>2018-08-20T13:52:30Z</time>
      </trkpt>
      <trkpt lat="-27.98342" lon="-65.84325">
        <ele>1144.7</ele>
        <time>2018-08-20T13:52:32Z</time>
      </trkpt>
      <trkpt lat="-27.98348" lon="-65.84318">
        <ele>1144.8</ele>
        <time>2018-08-20T13:52:34Z</time>
      </trkpt>
      <trkpt lat="-27.983545" lon="-65.8431">
        <ele>1145.0</ele>
        <time>2018-08-20T13:52:36Z</time>
      </trkpt>
      <trkpt lat="-27.98361" lon="-65.84303">
        <ele>1145.2</ele>
        <time>2018-08-20T13:52:38Z</time>
      </trkpt>
      <trkpt lat="-27.98368" lon="-65.842945">
        <ele>1145.8</ele>
        <time>2018-08-20T13:52:40Z</time>
      </trkpt>
      <trkpt lat="-27.983746666666665" lon="-65.842855">
        <ele>1146.5</ele>
        <time>2018-08-20T13:52:42Z</time>
      </trkpt>
      <trkpt lat="-27.983816666666666" lon="-65.84278">
        <ele>1146.6</ele>
        <time>2018-08-20T13:52:44Z</time>
      </trkpt>
      <trkpt lat="-27.983905" lon="-65.84268666666667">
        <ele>1146.6</ele>
        <time>2018-08-20T13:52:46Z</time>
      </trkpt>
      <trkpt lat="-27.983995" lon="-65.842585">
        <ele>1146.5</ele>
        <time>2018-08-20T13:52:48Z</time>
      </trkpt>
      <trkpt lat="-27.984075" lon="-65.842495">
        <ele>1146.4</ele>
        <time>2018-08-20T13:52:50Z</time>
      </trkpt>
      <trkpt lat="-27.984163333333335" lon="-65.84238666666667">
        <ele>1146.3</ele>
        <time>2018-08-20T13:52:52Z</time>
      </trkpt>
      <trkpt lat="-27.98426" lon="-65.84228">
        <ele>1146.9</ele>
        <time>2018-08-20T13:52:54Z</time>
      </trkpt>
      <trkpt lat="-27.98434" lon="-65.84219">
        <ele>1146.9</ele>
        <time>2018-08-20T13:52:56Z</time>
      </trkpt>
      <trkpt lat="-27.984425" lon="-65.842095">
        <ele>1146.6</ele>
        <time>2018-08-20T13:52:58Z</time>
      </trkpt>
      <trkpt lat="-27.98452" lon="-65.842">
        <ele>1146.4</ele>
        <time>2018-08-20T13:53:00Z</time>
      </trkpt>
      <trkpt lat="-27.98463" lon="-65.841905">
        <ele>1146.0</ele>
        <time>2018-08-20T13:53:02Z</time>
      </trkpt>
      <trkpt lat="-27.98475" lon="-65.84180666666667">
        <ele>1145.6</ele>
        <time>2018-08-20T13:53:04Z</time>
      </trkpt>
      <trkpt lat="-27.98481" lon="-65.84175666666667">
        <ele>1145.6</ele>
        <time>2018-08-20T13:53:05Z</time>
      </trkpt>
      <trkpt lat="-27.98487" lon="-65.84171">
        <ele>1145.8</ele>
        <time>2018-08-20T13:53:06Z</time>
      </trkpt>
      <trkpt lat="-27.984991666666666" lon="-65.841635">
        <ele>1145.4</ele>
        <time>2018-08-20T13:53:08Z</time>
      </trkpt>
      <trkpt lat="-27.985065" lon="-65.8416">
        <ele>1145.1</ele>
        <time>2018-08-20T13:53:09Z</time>
      </trkpt>
      <trkpt lat="-27.98514" lon="-65.84156">
        <ele>1144.9</ele>
        <time>2018-08-20T13:53:10Z</time>
      </trkpt>
      <trkpt lat="-27.985205" lon="-65.841525">
        <ele>1144.8</ele>
        <time>2018-08-20T13:53:11Z</time>
      </trkpt>
      <trkpt lat="-27.985275" lon="-65.841485">
        <ele>1144.7</ele>
        <time>2018-08-20T13:53:12Z</time>
      </trkpt>
      <trkpt lat="-27.98541" lon="-65.84143">
        <ele>1144.4</ele>
        <time>2018-08-20T13:53:14Z</time>
      </trkpt>
      <trkpt lat="-27.985485" lon="-65.8414">
        <ele>1144.3</ele>
        <time>2018-08-20T13:53:15Z</time>
      </trkpt>
      <trkpt lat="-27.985555" lon="-65.84138">
        <ele>1144.2</ele>
        <time>2018-08-20T13:53:16Z</time>
      </trkpt>
      <trkpt lat="-27.98563" lon="-65.841355">
        <ele>1144.1</ele>
        <time>2018-08-20T13:53:17Z</time>
      </trkpt>
      <trkpt lat="-27.9857" lon="-65.84134">
        <ele>1143.9</ele>
        <time>2018-08-20T13:53:18Z</time>
      </trkpt>
      <trkpt lat="-27.985775" lon="-65.841325">
        <ele>1143.9</ele>
        <time>2018-08-20T13:53:19Z</time>
      </trkpt>
      <trkpt lat="-27.985845" lon="-65.8413">
        <ele>1143.9</ele>
        <time>2018-08-20T13:53:20Z</time>
      </trkpt>
      <trkpt lat="-27.985915" lon="-65.841285">
        <ele>1143.8</ele>
        <time>2018-08-20T13:53:21Z</time>
      </trkpt>
      <trkpt lat="-27.985985" lon="-65.84126666666667">
        <ele>1143.8</ele>
        <time>2018-08-20T13:53:22Z</time>
      </trkpt>
      <trkpt lat="-27.986055" lon="-65.84126">
        <ele>1143.8</ele>
        <time>2018-08-20T13:53:23Z</time>
      </trkpt>
      <trkpt lat="-27.9862" lon="-65.84124">
        <ele>1143.5</ele>
        <time>2018-08-20T13:53:25Z</time>
      </trkpt>
      <trkpt lat="-27.986335" lon="-65.841215">
        <ele>1143.2</ele>
        <time>2018-08-20T13:53:27Z</time>
      </trkpt>
      <trkpt lat="-27.98647" lon="-65.84118166666667">
        <ele>1143.1</ele>
        <time>2018-08-20T13:53:29Z</time>
      </trkpt>
      <trkpt lat="-27.98661" lon="-65.841155">
        <ele>1143.0</ele>
        <time>2018-08-20T13:53:31Z</time>
      </trkpt>
      <trkpt lat="-27.986748333333335" lon="-65.84113">
        <ele>1143.1</ele>
        <time>2018-08-20T13:53:33Z</time>
      </trkpt>
      <trkpt lat="-27.986885" lon="-65.8411">
        <ele>1143.0</ele>
        <time>2018-08-20T13:53:35Z</time>
      </trkpt>
      <trkpt lat="-27.987015" lon="-65.841075">
        <ele>1142.8</ele>
        <time>2018-08-20T13:53:37Z</time>
      </trkpt>
      <trkpt lat="-27.98715" lon="-65.841045">
        <ele>1142.2</ele>
        <time>2018-08-20T13:53:39Z</time>
      </trkpt>
      <trkpt lat="-27.98728" lon="-65.841015">
        <ele>1141.9</ele>
        <time>2018-08-20T13:53:41Z</time>
      </trkpt>
      <trkpt lat="-27.987415" lon="-65.84099">
        <ele>1141.9</ele>
        <time>2018-08-20T13:53:43Z</time>
      </trkpt>
      <trkpt lat="-27.987541666666665" lon="-65.84096">
        <ele>1141.7</ele>
        <time>2018-08-20T13:53:45Z</time>
      </trkpt>
      <trkpt lat="-27.98768" lon="-65.84094">
        <ele>1141.7</ele>
        <time>2018-08-20T13:53:47Z</time>
      </trkpt>
      <trkpt lat="-27.98782" lon="-65.840905">
        <ele>1141.6</ele>
        <time>2018-08-20T13:53:49Z</time>
      </trkpt>
      <trkpt lat="-27.98789" lon="-65.840895">
        <ele>1141.6</ele>
        <time>2018-08-20T13:53:50Z</time>
      </trkpt>
      <trkpt lat="-27.987956666666665" lon="-65.840885">
        <ele>1141.5</ele>
        <time>2018-08-20T13:53:51Z</time>
      </trkpt>
      <trkpt lat="-27.988035" lon="-65.84086333333333">
        <ele>1141.4</ele>
        <time>2018-08-20T13:53:52Z</time>
      </trkpt>
      <trkpt lat="-27.988101666666665" lon="-65.840845">
        <ele>1141.4</ele>
        <time>2018-08-20T13:53:53Z</time>
      </trkpt>
      <trkpt lat="-27.988175" lon="-65.840835">
        <ele>1141.2</ele>
        <time>2018-08-20T13:53:54Z</time>
      </trkpt>
      <trkpt lat="-27.988245" lon="-65.840815">
        <ele>1141.2</ele>
        <time>2018-08-20T13:53:55Z</time>
      </trkpt>
      <trkpt lat="-27.98839" lon="-65.84078166666667">
        <ele>1140.8</ele>
        <time>2018-08-20T13:53:57Z</time>
      </trkpt>
      <trkpt lat="-27.988526666666665" lon="-65.840755">
        <ele>1140.5</ele>
        <time>2018-08-20T13:53:59Z</time>
      </trkpt>
      <trkpt lat="-27.988605" lon="-65.840735">
        <ele>1140.4</ele>
        <time>2018-08-20T13:54:00Z</time>
      </trkpt>
      <trkpt lat="-27.98874" lon="-65.840705">
        <ele>1140.2</ele>
        <time>2018-08-20T13:54:02Z</time>
      </trkpt>
      <trkpt lat="-27.988815" lon="-65.840695">
        <ele>1140.1</ele>
        <time>2018-08-20T13:54:03Z</time>
      </trkpt>
      <trkpt lat="-27.98896" lon="-65.84067">
        <ele>1139.9</ele>
        <time>2018-08-20T13:54:05Z</time>
      </trkpt>
      <trkpt lat="-27.98903" lon="-65.84065">
        <ele>1139.9</ele>
        <time>2018-08-20T13:54:06Z</time>
      </trkpt>
      <trkpt lat="-27.989165" lon="-65.84062">
        <ele>1139.8</ele>
        <time>2018-08-20T13:54:08Z</time>
      </trkpt>
      <trkpt lat="-27.989235" lon="-65.84061">
        <ele>1139.8</ele>
        <time>2018-08-20T13:54:09Z</time>
      </trkpt>
      <trkpt lat="-27.98931" lon="-65.84059166666667">
        <ele>1140.0</ele>
        <time>2018-08-20T13:54:10Z</time>
      </trkpt>
      <trkpt lat="-27.98946" lon="-65.840585">
        <ele>1140.0</ele>
        <time>2018-08-20T13:54:12Z</time>
      </trkpt>
      <trkpt lat="-27.98953" lon="-65.84058">
        <ele>1140.0</ele>
        <time>2018-08-20T13:54:13Z</time>
      </trkpt>
      <trkpt lat="-27.98967" lon="-65.840585">
        <ele>1139.6</ele>
        <time>2018-08-20T13:54:15Z</time>
      </trkpt>
      <trkpt lat="-27.989745" lon="-65.840585">
        <ele>1139.4</ele>
        <time>2018-08-20T13:54:16Z</time>
      </trkpt>
      <trkpt lat="-27.98988" lon="-65.84061">
        <ele>1138.7</ele>
        <time>2018-08-20T13:54:18Z</time>
      </trkpt>
      <trkpt lat="-27.990005" lon="-65.84063333333333">
        <ele>1137.6</ele>
        <time>2018-08-20T13:54:20Z</time>
      </trkpt>
      <trkpt lat="-27.99014" lon="-65.840665">
        <ele>1136.8</ele>
        <time>2018-08-20T13:54:22Z</time>
      </trkpt>
      <trkpt lat="-27.990261666666665" lon="-65.840695">
        <ele>1136.4</ele>
        <time>2018-08-20T13:54:24Z</time>
      </trkpt>
      <trkpt lat="-27.990365" lon="-65.840715">
        <ele>1136.0</ele>
        <time>2018-08-20T13:54:26Z</time>
      </trkpt>
      <trkpt lat="-27.990453333333335" lon="-65.84073666666667">
        <ele>1136.0</ele>
        <time>2018-08-20T13:54:28Z</time>
      </trkpt>
      <trkpt lat="-27.990531666666666" lon="-65.84076">
        <ele>1136.0</ele>
        <time>2018-08-20T13:54:33Z</time>
      </trkpt>
      <trkpt lat="-27.99061" lon="-65.84079">
        <ele>1136.0</ele>
        <time>2018-08-20T13:54:38Z</time>
      </trkpt>
      <trkpt lat="-27.990685" lon="-65.84079">
        <ele>1136.2</ele>
        <time>2018-08-20T13:54:41Z</time>
      </trkpt>
      <trkpt lat="-27.990775" lon="-65.84081">
        <ele>1136.3</ele>
        <time>2018-08-20T13:54:45Z</time>
      </trkpt>
      <trkpt lat="-27.990865" lon="-65.84083">
        <ele>1136.4</ele>
        <time>2018-08-20T13:54:48Z</time>
      </trkpt>
      <trkpt lat="-27.990945" lon="-65.840845">
        <ele>1136.6</ele>
        <time>2018-08-20T13:54:50Z</time>
      </trkpt>
      <trkpt lat="-27.99104" lon="-65.84086166666667">
        <ele>1138.3</ele>
        <time>2018-08-20T13:54:52Z</time>
      </trkpt>
      <trkpt lat="-27.991145" lon="-65.840895">
        <ele>1139.5</ele>
        <time>2018-08-20T13:54:54Z</time>
      </trkpt>
      <trkpt lat="-27.991235" lon="-65.840905">
        <ele>1139.2</ele>
        <time>2018-08-20T13:54:56Z</time>
      </trkpt>
      <trkpt lat="-27.991325" lon="-65.84094">
        <ele>1138.7</ele>
        <time>2018-08-20T13:54:58Z</time>
      </trkpt>
      <trkpt lat="-27.99143" lon="-65.84095166666667">
        <ele>1138.7</ele>
        <time>2018-08-20T13:55:00Z</time>
      </trkpt>
      <trkpt lat="-27.991525" lon="-65.840975">
        <ele>1138.2</ele>
        <time>2018-08-20T13:55:02Z</time>
      </trkpt>
      <trkpt lat="-27.991615" lon="-65.84099">
        <ele>1138.1</ele>
        <time>2018-08-20T13:55:04Z</time>
      </trkpt>
      <trkpt lat="-27.99172" lon="-65.841035">
        <ele>1137.8</ele>
        <time>2018-08-20T13:55:07Z</time>
      </trkpt>
      <trkpt lat="-27.991816666666665" lon="-65.841055">
        <ele>1137.5</ele>
        <time>2018-08-20T13:55:09Z</time>
      </trkpt>
      <trkpt lat="-27.991896666666666" lon="-65.841065">
        <ele>1136.0</ele>
        <time>2018-08-20T13:55:11Z</time>
      </trkpt>
      <trkpt lat="-27.99199" lon="-65.84108666666667">
        <ele>1134.4</ele>
        <time>2018-08-20T13:55:13Z</time>
      </trkpt>
      <trkpt lat="-27.992075" lon="-65.84111">
        <ele>1134.7</ele>
        <time>2018-08-20T13:55:15Z</time>
      </trkpt>
      <trkpt lat="-27.99217" lon="-65.84112">
        <ele>1135.2</ele>
        <time>2018-08-20T13:55:17Z</time>
      </trkpt>
      <trkpt lat="-27.99226" lon="-65.84113333333333">
        <ele>1135.9</ele>
        <time>2018-08-20T13:55:19Z</time>
      </trkpt>
      <trkpt lat="-27.99234" lon="-65.841155">
        <ele>1136.0</ele>
        <time>2018-08-20T13:55:21Z</time>
      </trkpt>
      <trkpt lat="-27.99243" lon="-65.841165">
        <ele>1136.1</ele>
        <time>2018-08-20T13:55:23Z</time>
      </trkpt>
      <trkpt lat="-27.992525" lon="-65.841185">
        <ele>1136.7</ele>
        <time>2018-08-20T13:55:25Z</time>
      </trkpt>
      <trkpt lat="-27.9926" lon="-65.8412">
        <ele>1136.6</ele>
        <time>2018-08-20T13:55:27Z</time>
      </trkpt>
      <trkpt lat="-27.99271" lon="-65.84121">
        <ele>1136.3</ele>
        <time>2018-08-20T13:55:30Z</time>
      </trkpt>
      <trkpt lat="-27.992785" lon="-65.84122666666667">
        <ele>1136.2</ele>
        <time>2018-08-20T13:55:32Z</time>
      </trkpt>
      <trkpt lat="-27.992865" lon="-65.8412">
        <ele>1136.2</ele>
        <time>2018-08-20T13:55:35Z</time>
      </trkpt>
      <trkpt lat="-27.99287" lon="-65.841155">
        <ele>1136.3</ele>
        <time>2018-08-20T13:55:42Z</time>
      </trkpt>
      <trkpt lat="-27.99287" lon="-65.841155">
        <ele>1136.4</ele>
        <time>2018-08-20T13:55:43Z</time>
      </trkpt>
      <trkpt lat="-27.992835" lon="-65.84112">
        <ele>1136.0</ele>
        <time>2018-08-20T13:56:54Z</time>
      </trkpt>
      <trkpt lat="-27.992835" lon="-65.84112">
        <ele>1135.9</ele>
        <time>2018-08-20T13:56:55Z</time>
      </trkpt>
      <trkpt lat="-27.99286" lon="-65.841155">
        <ele>1135.8</ele>
        <time>2018-08-20T13:59:32Z</time>
      </trkpt>
      <trkpt lat="-27.992845" lon="-65.841165">
        <ele>1135.8</ele>
        <time>2018-08-20T13:59:35Z</time>
      </trkpt>
      <trkpt lat="-27.99287" lon="-65.84113333333333">
        <ele>1136.4</ele>
        <time>2018-08-20T13:59:46Z</time>
      </trkpt>
      <trkpt lat="-27.992871666666666" lon="-65.84113333333333">
        <ele>1136.4</ele>
        <time>2018-08-20T13:59:47Z</time>
      </trkpt>
      <trkpt lat="-27.99288" lon="-65.8411">
        <ele>1136.6</ele>
        <time>2018-08-20T14:00:00Z</time>
      </trkpt>
      <trkpt lat="-27.99288" lon="-65.8411">
        <ele>1136.6</ele>
        <time>2018-08-20T14:00:01Z</time>
      </trkpt>
      <trkpt lat="-27.992865" lon="-65.8411">
        <ele>1136.0</ele>
        <time>2018-08-20T14:00:09Z</time>
      </trkpt>
      <trkpt lat="-27.99286" lon="-65.8411">
        <ele>1136.0</ele>
        <time>2018-08-20T14:00:10Z</time>
      </trkpt>
      <trkpt lat="-27.99286" lon="-65.84108666666667">
        <ele>1136.0</ele>
        <time>2018-08-20T14:00:18Z</time>
      </trkpt>
      <trkpt lat="-27.99289" lon="-65.8411">
        <ele>1135.7</ele>
        <time>2018-08-20T14:00:25Z</time>
      </trkpt>
      <trkpt lat="-27.99289" lon="-65.8411">
        <ele>1135.7</ele>
        <time>2018-08-20T14:00:26Z</time>
      </trkpt>
      <trkpt lat="-27.99287" lon="-65.84109">
        <ele>1135.4</ele>
        <time>2018-08-20T14:00:40Z</time>
      </trkpt>
      <trkpt lat="-27.99287" lon="-65.84109">
        <ele>1135.4</ele>
        <time>2018-08-20T14:00:41Z</time>
      </trkpt>
      <trkpt lat="-27.99288" lon="-65.8411">
        <ele>1135.5</ele>
        <time>2018-08-20T14:00:55Z</time>
      </trkpt>
      <trkpt lat="-27.992871666666666" lon="-65.8411">
        <ele>1135.5</ele>
        <time>2018-08-20T14:00:56Z</time>
      </trkpt>
      <trkpt lat="-27.992846666666665" lon="-65.8411">
        <ele>1135.3</ele>
        <time>2018-08-20T14:01:04Z</time>
      </trkpt>
      <trkpt lat="-27.992848333333335" lon="-65.8411">
        <ele>1135.3</ele>
        <time>2018-08-20T14:01:05Z</time>
      </trkpt>
      <trkpt lat="-27.992865" lon="-65.841075">
        <ele>1134.9</ele>
        <time>2018-08-20T14:01:20Z</time>
      </trkpt>
      <trkpt lat="-27.992865" lon="-65.841075">
        <ele>1134.9</ele>
        <time>2018-08-20T14:01:21Z</time>
      </trkpt>
      <trkpt lat="-27.992845" lon="-65.84112">
        <ele>1135.1</ele>
        <time>2018-08-20T14:01:35Z</time>
      </trkpt>
      <trkpt lat="-27.992845" lon="-65.84113">
        <ele>1135.2</ele>
        <time>2018-08-20T14:01:36Z</time>
      </trkpt>
      <trkpt lat="-27.992855" lon="-65.841145">
        <ele>1135.5</ele>
        <time>2018-08-20T14:01:45Z</time>
      </trkpt>
      <trkpt lat="-27.992848333333335" lon="-65.841155">
        <ele>1135.6</ele>
        <time>2018-08-20T14:01:46Z</time>
      </trkpt>
      <trkpt lat="-27.992865" lon="-65.841155">
        <ele>1135.9</ele>
        <time>2018-08-20T14:01:54Z</time>
      </trkpt>
      <trkpt lat="-27.992865" lon="-65.841155">
        <ele>1135.9</ele>
        <time>2018-08-20T14:01:55Z</time>
      </trkpt>
      <trkpt lat="-27.992835" lon="-65.841155">
        <ele>1135.8</ele>
        <time>2018-08-20T14:02:04Z</time>
      </trkpt>
      <trkpt lat="-27.992835" lon="-65.84115">
        <ele>1135.9</ele>
        <time>2018-08-20T14:02:05Z</time>
      </trkpt>
      <trkpt lat="-27.992835" lon="-65.84113">
        <ele>1135.4</ele>
        <time>2018-08-20T14:02:19Z</time>
      </trkpt>
      <trkpt lat="-27.992865" lon="-65.84113">
        <ele>1134.8</ele>
        <time>2018-08-20T14:02:26Z</time>
      </trkpt>
      <trkpt lat="-27.99287" lon="-65.84113">
        <ele>1134.8</ele>
        <time>2018-08-20T14:02:27Z</time>
      </trkpt>
      <trkpt lat="-27.99286" lon="-65.84117833333333">
        <ele>1134.9</ele>
        <time>2018-08-20T14:02:36Z</time>
      </trkpt>
      <trkpt lat="-27.992905" lon="-65.84117666666667">
        <ele>1135.5</ele>
        <time>2018-08-20T14:02:43Z</time>
      </trkpt>
      <trkpt lat="-27.99291" lon="-65.84117833333333">
        <ele>1135.5</ele>
        <time>2018-08-20T14:02:44Z</time>
      </trkpt>
      <trkpt lat="-27.992881666666666" lon="-65.841145">
        <ele>1135.1</ele>
        <time>2018-08-20T14:02:55Z</time>
      </trkpt>
      <trkpt lat="-27.99288" lon="-65.841145">
        <ele>1134.8</ele>
        <time>2018-08-20T14:02:56Z</time>
      </trkpt>
      <trkpt lat="-27.99289" lon="-65.841165">
        <ele>1134.1</ele>
        <time>2018-08-20T14:03:03Z</time>
      </trkpt>
      <trkpt lat="-27.99289" lon="-65.841155">
        <ele>1133.9</ele>
        <time>2018-08-20T14:03:05Z</time>
      </trkpt>
      <trkpt lat="-27.992865" lon="-65.84113">
        <ele>1133.2</ele>
        <time>2018-08-20T14:03:14Z</time>
      </trkpt>
      <trkpt lat="-27.992873333333332" lon="-65.841165">
        <ele>1133.3</ele>
        <time>2018-08-20T14:03:19Z</time>
      </trkpt>
      <trkpt lat="-27.992855" lon="-65.841115">
        <ele>1133.2</ele>
        <time>2018-08-20T14:03:33Z</time>
      </trkpt>
      <trkpt lat="-27.992825" lon="-65.8411">
        <ele>1133.9</ele>
        <time>2018-08-20T14:03:40Z</time>
      </trkpt>
      <trkpt lat="-27.992835" lon="-65.8411">
        <ele>1134.1</ele>
        <time>2018-08-20T14:03:42Z</time>
      </trkpt>
      <trkpt lat="-27.99286" lon="-65.841155">
        <ele>1134.6</ele>
        <time>2018-08-20T14:03:50Z</time>
      </trkpt>
      <trkpt lat="-27.992855" lon="-65.841155">
        <ele>1134.7</ele>
        <time>2018-08-20T14:03:51Z</time>
      </trkpt>
      <trkpt lat="-27.99286" lon="-65.841175">
        <ele>1135.3</ele>
        <time>2018-08-20T14:04:05Z</time>
      </trkpt>
      <trkpt lat="-27.992865" lon="-65.841175">
        <ele>1135.3</ele>
        <time>2018-08-20T14:04:06Z</time>
      </trkpt>
      <trkpt lat="-27.99289" lon="-65.84118333333333">
        <ele>1135.6</ele>
        <time>2018-08-20T14:04:14Z</time>
      </trkpt>
      <trkpt lat="-27.992895" lon="-65.84118333333333">
        <ele>1135.7</ele>
        <time>2018-08-20T14:04:15Z</time>
      </trkpt>
      <trkpt lat="-27.992865" lon="-65.841175">
        <ele>1135.8</ele>
        <time>2018-08-20T14:04:27Z</time>
      </trkpt>
      <trkpt lat="-27.99286" lon="-65.841175">
        <ele>1135.8</ele>
        <time>2018-08-20T14:04:28Z</time>
      </trkpt>
      <trkpt lat="-27.992825" lon="-65.84113">
        <ele>1135.3</ele>
        <time>2018-08-20T14:04:35Z</time>
      </trkpt>
      <trkpt lat="-27.992803333333335" lon="-65.84115">
        <ele>1134.7</ele>
        <time>2018-08-20T14:04:42Z</time>
      </trkpt>
      <trkpt lat="-27.99281" lon="-65.84115">
        <ele>1134.7</ele>
        <time>2018-08-20T14:04:43Z</time>
      </trkpt>
      <trkpt lat="-27.992825" lon="-65.84113666666667">
        <ele>1135.1</ele>
        <time>2018-08-20T14:04:52Z</time>
      </trkpt>
      <trkpt lat="-27.992825" lon="-65.84113333333333">
        <ele>1135.1</ele>
        <time>2018-08-20T14:04:53Z</time>
      </trkpt>
      <trkpt lat="-27.992835" lon="-65.841165">
        <ele>1135.0</ele>
        <time>2018-08-20T14:05:10Z</time>
      </trkpt>
      <trkpt lat="-27.992836666666665" lon="-65.841165">
        <ele>1134.9</ele>
        <time>2018-08-20T14:05:11Z</time>
      </trkpt>
      <trkpt lat="-27.99278" lon="-65.841165">
        <ele>1134.3</ele>
        <time>2018-08-20T14:05:25Z</time>
      </trkpt>
      <trkpt lat="-27.992775" lon="-65.84122">
        <ele>1134.3</ele>
        <time>2018-08-20T14:05:32Z</time>
      </trkpt>
      <trkpt lat="-27.99277" lon="-65.84122333333333">
        <ele>1134.4</ele>
        <time>2018-08-20T14:05:36Z</time>
      </trkpt>
      <trkpt lat="-27.99278" lon="-65.84118333333333">
        <ele>1134.6</ele>
        <time>2018-08-20T14:05:46Z</time>
      </trkpt>
      <trkpt lat="-27.992785" lon="-65.84118166666667">
        <ele>1134.6</ele>
        <time>2018-08-20T14:05:47Z</time>
      </trkpt>
      <trkpt lat="-27.992801666666665" lon="-65.8412">
        <ele>1134.5</ele>
        <time>2018-08-20T14:05:55Z</time>
      </trkpt>
      <trkpt lat="-27.9929" lon="-65.84123166666667">
        <ele>1134.3</ele>
        <time>2018-08-20T14:06:00Z</time>
      </trkpt>
      <trkpt lat="-27.992986666666667" lon="-65.841255">
        <ele>1134.3</ele>
        <time>2018-08-20T14:06:03Z</time>
      </trkpt>
      <trkpt lat="-27.99307" lon="-65.84126666666667">
        <ele>1134.5</ele>
        <time>2018-08-20T14:06:06Z</time>
      </trkpt>
      <trkpt lat="-27.993155" lon="-65.841295">
        <ele>1134.4</ele>
        <time>2018-08-20T14:06:09Z</time>
      </trkpt>
      <trkpt lat="-27.99323" lon="-65.84131166666667">
        <ele>1134.4</ele>
        <time>2018-08-20T14:06:12Z</time>
      </trkpt>
      <trkpt lat="-27.99323" lon="-65.841315">
        <ele>1134.5</ele>
        <time>2018-08-20T14:06:19Z</time>
      </trkpt>
      <trkpt lat="-27.9932" lon="-65.841325">
        <ele>1136.0</ele>
        <time>2018-08-20T14:06:29Z</time>
      </trkpt>
      <trkpt lat="-27.993195" lon="-65.841325">
        <ele>1136.0</ele>
        <time>2018-08-20T14:06:30Z</time>
      </trkpt>
      <trkpt lat="-27.993205" lon="-65.84134">
        <ele>1136.1</ele>
        <time>2018-08-20T14:06:41Z</time>
      </trkpt>
      <trkpt lat="-27.993205" lon="-65.841345">
        <ele>1136.1</ele>
        <time>2018-08-20T14:06:42Z</time>
      </trkpt>
      <trkpt lat="-27.993261666666665" lon="-65.841315">
        <ele>1135.6</ele>
        <time>2018-08-20T14:06:56Z</time>
      </trkpt>
      <trkpt lat="-27.99335" lon="-65.84134">
        <ele>1135.5</ele>
        <time>2018-08-20T14:07:00Z</time>
      </trkpt>
      <trkpt lat="-27.99344" lon="-65.84137">
        <ele>1135.4</ele>
        <time>2018-08-20T14:07:03Z</time>
      </trkpt>
      <trkpt lat="-27.99354" lon="-65.84139">
        <ele>1135.3</ele>
        <time>2018-08-20T14:07:06Z</time>
      </trkpt>
      <trkpt lat="-27.99361" lon="-65.8414">
        <ele>1135.2</ele>
        <time>2018-08-20T14:07:08Z</time>
      </trkpt>
      <trkpt lat="-27.993685" lon="-65.84142">
        <ele>1134.3</ele>
        <time>2018-08-20T14:07:10Z</time>
      </trkpt>
      <trkpt lat="-27.99376" lon="-65.84144">
        <ele>1133.6</ele>
        <time>2018-08-20T14:07:12Z</time>
      </trkpt>
      <trkpt lat="-27.99384" lon="-65.841455">
        <ele>1132.7</ele>
        <time>2018-08-20T14:07:14Z</time>
      </trkpt>
      <trkpt lat="-27.993935" lon="-65.841475">
        <ele>1131.9</ele>
        <time>2018-08-20T14:07:16Z</time>
      </trkpt>
      <trkpt lat="-27.994035" lon="-65.84149166666667">
        <ele>1131.5</ele>
        <time>2018-08-20T14:07:18Z</time>
      </trkpt>
      <trkpt lat="-27.994145" lon="-65.84151">
        <ele>1131.0</ele>
        <time>2018-08-20T14:07:20Z</time>
      </trkpt>
      <trkpt lat="-27.994255" lon="-65.84152">
        <ele>1130.8</ele>
        <time>2018-08-20T14:07:22Z</time>
      </trkpt>
      <trkpt lat="-27.994365" lon="-65.84152">
        <ele>1130.7</ele>
        <time>2018-08-20T14:07:24Z</time>
      </trkpt>
      <trkpt lat="-27.99448" lon="-65.841525">
        <ele>1130.4</ele>
        <time>2018-08-20T14:07:26Z</time>
      </trkpt>
      <trkpt lat="-27.994595" lon="-65.841525">
        <ele>1130.4</ele>
        <time>2018-08-20T14:07:28Z</time>
      </trkpt>
      <trkpt lat="-27.994725" lon="-65.841525">
        <ele>1130.5</ele>
        <time>2018-08-20T14:07:30Z</time>
      </trkpt>
      <trkpt lat="-27.99485" lon="-65.841525">
        <ele>1129.7</ele>
        <time>2018-08-20T14:07:32Z</time>
      </trkpt>
      <trkpt lat="-27.994979999999998" lon="-65.841525">
        <ele>1129.0</ele>
        <time>2018-08-20T14:07:34Z</time>
      </trkpt>
      <trkpt lat="-27.995105" lon="-65.841525">
        <ele>1129.0</ele>
        <time>2018-08-20T14:07:36Z</time>
      </trkpt>
      <trkpt lat="-27.99523" lon="-65.84152">
        <ele>1129.2</ele>
        <time>2018-08-20T14:07:38Z</time>
      </trkpt>
      <trkpt lat="-27.99535" lon="-65.841515">
        <ele>1129.1</ele>
        <time>2018-08-20T14:07:40Z</time>
      </trkpt>
      <trkpt lat="-27.99548" lon="-65.84151">
        <ele>1129.3</ele>
        <time>2018-08-20T14:07:42Z</time>
      </trkpt>
      <trkpt lat="-27.99560333333333" lon="-65.841505">
        <ele>1129.3</ele>
        <time>2018-08-20T14:07:44Z</time>
      </trkpt>
      <trkpt lat="-27.995735" lon="-65.841505">
        <ele>1129.2</ele>
        <time>2018-08-20T14:07:46Z</time>
      </trkpt>
      <trkpt lat="-27.995855" lon="-65.841515">
        <ele>1129.2</ele>
        <time>2018-08-20T14:07:48Z</time>
      </trkpt>
      <trkpt lat="-27.995975" lon="-65.841515">
        <ele>1129.1</ele>
        <time>2018-08-20T14:07:50Z</time>
      </trkpt>
      <trkpt lat="-27.99609" lon="-65.841515">
        <ele>1128.9</ele>
        <time>2018-08-20T14:07:52Z</time>
      </trkpt>
      <trkpt lat="-27.996205" lon="-65.84152">
        <ele>1128.6</ele>
        <time>2018-08-20T14:07:54Z</time>
      </trkpt>
      <trkpt lat="-27.99633" lon="-65.84152">
        <ele>1128.3</ele>
        <time>2018-08-20T14:07:56Z</time>
      </trkpt>
      <trkpt lat="-27.996465" lon="-65.841525">
        <ele>1127.7</ele>
        <time>2018-08-20T14:07:58Z</time>
      </trkpt>
      <trkpt lat="-27.996595" lon="-65.841525">
        <ele>1126.9</ele>
        <time>2018-08-20T14:08:00Z</time>
      </trkpt>
      <trkpt lat="-27.99673" lon="-65.841525">
        <ele>1126.1</ele>
        <time>2018-08-20T14:08:02Z</time>
      </trkpt>
      <trkpt lat="-27.996855" lon="-65.841525">
        <ele>1125.6</ele>
        <time>2018-08-20T14:08:04Z</time>
      </trkpt>
      <trkpt lat="-27.996985" lon="-65.841525">
        <ele>1125.5</ele>
        <time>2018-08-20T14:08:06Z</time>
      </trkpt>
      <trkpt lat="-27.99711" lon="-65.841515">
        <ele>1125.2</ele>
        <time>2018-08-20T14:08:08Z</time>
      </trkpt>
      <trkpt lat="-27.997235" lon="-65.841495">
        <ele>1124.9</ele>
        <time>2018-08-20T14:08:10Z</time>
      </trkpt>
      <trkpt lat="-27.99736" lon="-65.841475">
        <ele>1125.1</ele>
        <time>2018-08-20T14:08:12Z</time>
      </trkpt>
      <trkpt lat="-27.99746" lon="-65.84144666666667">
        <ele>1126.2</ele>
        <time>2018-08-20T14:08:14Z</time>
      </trkpt>
      <trkpt lat="-27.99758" lon="-65.84140833333333">
        <ele>1127.0</ele>
        <time>2018-08-20T14:08:16Z</time>
      </trkpt>
      <trkpt lat="-27.997695" lon="-65.84138">
        <ele>1127.4</ele>
        <time>2018-08-20T14:08:18Z</time>
      </trkpt>
      <trkpt lat="-27.997815" lon="-65.84135">
        <ele>1127.6</ele>
        <time>2018-08-20T14:08:20Z</time>
      </trkpt>
      <trkpt lat="-27.997916666666665" lon="-65.841325">
        <ele>1127.5</ele>
        <time>2018-08-20T14:08:22Z</time>
      </trkpt>
      <trkpt lat="-27.998033333333332" lon="-65.8413">
        <ele>1127.5</ele>
        <time>2018-08-20T14:08:24Z</time>
      </trkpt>
      <trkpt lat="-27.99814" lon="-65.84128">
        <ele>1126.6</ele>
        <time>2018-08-20T14:08:26Z</time>
      </trkpt>
      <trkpt lat="-27.998255" lon="-65.84126">
        <ele>1126.5</ele>
        <time>2018-08-20T14:08:28Z</time>
      </trkpt>
      <trkpt lat="-27.998375" lon="-65.84125">
        <ele>1126.9</ele>
        <time>2018-08-20T14:08:30Z</time>
      </trkpt>
      <trkpt lat="-27.99848" lon="-65.84124">
        <ele>1127.4</ele>
        <time>2018-08-20T14:08:32Z</time>
      </trkpt>
      <trkpt lat="-27.99858" lon="-65.84121666666667">
        <ele>1128.6</ele>
        <time>2018-08-20T14:08:34Z</time>
      </trkpt>
      <trkpt lat="-27.998671666666667" lon="-65.84121">
        <ele>1128.7</ele>
        <time>2018-08-20T14:08:36Z</time>
      </trkpt>
      <trkpt lat="-27.998775" lon="-65.841195">
        <ele>1127.3</ele>
        <time>2018-08-20T14:08:38Z</time>
      </trkpt>
      <trkpt lat="-27.99886" lon="-65.84118166666667">
        <ele>1126.1</ele>
        <time>2018-08-20T14:08:40Z</time>
      </trkpt>
      <trkpt lat="-27.998946666666665" lon="-65.841175">
        <ele>1125.5</ele>
        <time>2018-08-20T14:08:42Z</time>
      </trkpt>
      <trkpt lat="-27.999035" lon="-65.841155">
        <ele>1126.3</ele>
        <time>2018-08-20T14:08:44Z</time>
      </trkpt>
      <trkpt lat="-27.999125" lon="-65.841145">
        <ele>1127.2</ele>
        <time>2018-08-20T14:08:46Z</time>
      </trkpt>
      <trkpt lat="-27.999205" lon="-65.84113">
        <ele>1127.7</ele>
        <time>2018-08-20T14:08:48Z</time>
      </trkpt>
      <trkpt lat="-27.99929" lon="-65.84112">
        <ele>1128.2</ele>
        <time>2018-08-20T14:08:50Z</time>
      </trkpt>
      <trkpt lat="-27.99937" lon="-65.8411">
        <ele>1129.1</ele>
        <time>2018-08-20T14:08:52Z</time>
      </trkpt>
      <trkpt lat="-27.999445" lon="-65.841085">
        <ele>1129.8</ele>
        <time>2018-08-20T14:08:54Z</time>
      </trkpt>
      <trkpt lat="-27.999541666666666" lon="-65.841075">
        <ele>1129.8</ele>
        <time>2018-08-20T14:08:57Z</time>
      </trkpt>
      <trkpt lat="-27.99962" lon="-65.841075">
        <ele>1129.7</ele>
        <time>2018-08-20T14:08:59Z</time>
      </trkpt>
      <trkpt lat="-27.999725" lon="-65.841075">
        <ele>1129.5</ele>
        <time>2018-08-20T14:09:02Z</time>
      </trkpt>
      <trkpt lat="-27.99982" lon="-65.841065">
        <ele>1129.2</ele>
        <time>2018-08-20T14:09:05Z</time>
      </trkpt>
      <trkpt lat="-27.9999" lon="-65.84106">
        <ele>1129.1</ele>
        <time>2018-08-20T14:09:07Z</time>
      </trkpt>
      <trkpt lat="-28.000005" lon="-65.841045">
        <ele>1127.7</ele>
        <time>2018-08-20T14:09:10Z</time>
      </trkpt>
      <trkpt lat="-28.0001" lon="-65.84104">
        <ele>1127.2</ele>
        <time>2018-08-20T14:09:12Z</time>
      </trkpt>
      <trkpt lat="-28.000185" lon="-65.841035">
        <ele>1126.5</ele>
        <time>2018-08-20T14:09:14Z</time>
      </trkpt>
      <trkpt lat="-28.00027" lon="-65.841025">
        <ele>1126.2</ele>
        <time>2018-08-20T14:09:16Z</time>
      </trkpt>
      <trkpt lat="-28.000355" lon="-65.841025">
        <ele>1125.4</ele>
        <time>2018-08-20T14:09:18Z</time>
      </trkpt>
      <trkpt lat="-28.000435" lon="-65.841015">
        <ele>1125.4</ele>
        <time>2018-08-20T14:09:20Z</time>
      </trkpt>
      <trkpt lat="-28.000525" lon="-65.841015">
        <ele>1125.5</ele>
        <time>2018-08-20T14:09:22Z</time>
      </trkpt>
      <trkpt lat="-28.0006" lon="-65.84099666666667">
        <ele>1126.0</ele>
        <time>2018-08-20T14:09:24Z</time>
      </trkpt>
      <trkpt lat="-28.000705" lon="-65.840985">
        <ele>1126.1</ele>
        <time>2018-08-20T14:09:27Z</time>
      </trkpt>
      <trkpt lat="-28.000818333333335" lon="-65.84098">
        <ele>1126.7</ele>
        <time>2018-08-20T14:09:30Z</time>
      </trkpt>
      <trkpt lat="-28.00091" lon="-65.840975">
        <ele>1126.3</ele>
        <time>2018-08-20T14:09:32Z</time>
      </trkpt>
      <trkpt lat="-28.000985" lon="-65.84096">
        <ele>1126.7</ele>
        <time>2018-08-20T14:09:34Z</time>
      </trkpt>
      <trkpt lat="-28.001088333333332" lon="-65.84095">
        <ele>1126.5</ele>
        <time>2018-08-20T14:09:37Z</time>
      </trkpt>
      <trkpt lat="-28.001185" lon="-65.84093">
        <ele>1126.3</ele>
        <time>2018-08-20T14:09:39Z</time>
      </trkpt>
      <trkpt lat="-28.001285" lon="-65.84089666666667">
        <ele>1125.7</ele>
        <time>2018-08-20T14:09:41Z</time>
      </trkpt>
      <trkpt lat="-28.001405" lon="-65.84086">
        <ele>1125.2</ele>
        <time>2018-08-20T14:09:43Z</time>
      </trkpt>
      <trkpt lat="-28.001525" lon="-65.84083">
        <ele>1125.0</ele>
        <time>2018-08-20T14:09:45Z</time>
      </trkpt>
      <trkpt lat="-28.001655" lon="-65.84077833333333">
        <ele>1124.9</ele>
        <time>2018-08-20T14:09:47Z</time>
      </trkpt>
      <trkpt lat="-28.00178" lon="-65.840725">
        <ele>1124.6</ele>
        <time>2018-08-20T14:09:49Z</time>
      </trkpt>
      <trkpt lat="-28.001845" lon="-65.840695">
        <ele>1124.4</ele>
        <time>2018-08-20T14:09:50Z</time>
      </trkpt>
      <trkpt lat="-28.001915" lon="-65.840665">
        <ele>1124.2</ele>
        <time>2018-08-20T14:09:51Z</time>
      </trkpt>
      <trkpt lat="-28.001991666666665" lon="-65.84062666666667">
        <ele>1123.9</ele>
        <time>2018-08-20T14:09:52Z</time>
      </trkpt>
      <trkpt lat="-28.00207" lon="-65.84059">
        <ele>1123.7</ele>
        <time>2018-08-20T14:09:53Z</time>
      </trkpt>
      <trkpt lat="-28.00215" lon="-65.840545">
        <ele>1123.6</ele>
        <time>2018-08-20T14:09:54Z</time>
      </trkpt>
      <trkpt lat="-28.002226666666665" lon="-65.8405">
        <ele>1123.6</ele>
        <time>2018-08-20T14:09:55Z</time>
      </trkpt>
      <trkpt lat="-28.002305" lon="-65.840455">
        <ele>1123.4</ele>
        <time>2018-08-20T14:09:56Z</time>
      </trkpt>
      <trkpt lat="-28.002385" lon="-65.84041333333333">
        <ele>1122.8</ele>
        <time>2018-08-20T14:09:57Z</time>
      </trkpt>
      <trkpt lat="-28.00245" lon="-65.84037">
        <ele>1122.8</ele>
        <time>2018-08-20T14:09:58Z</time>
      </trkpt>
      <trkpt lat="-28.002535" lon="-65.84032666666667">
        <ele>1122.6</ele>
        <time>2018-08-20T14:09:59Z</time>
      </trkpt>
      <trkpt lat="-28.002615" lon="-65.840275">
        <ele>1122.2</ele>
        <time>2018-08-20T14:10:00Z</time>
      </trkpt>
      <trkpt lat="-28.002695" lon="-65.84023">
        <ele>1121.7</ele>
        <time>2018-08-20T14:10:01Z</time>
      </trkpt>
      <trkpt lat="-28.002775" lon="-65.84018166666667">
        <ele>1121.2</ele>
        <time>2018-08-20T14:10:02Z</time>
      </trkpt>
      <trkpt lat="-28.002855" lon="-65.840135">
        <ele>1120.8</ele>
        <time>2018-08-20T14:10:03Z</time>
      </trkpt>
      <trkpt lat="-28.002935" lon="-65.840085">
        <ele>1120.6</ele>
        <time>2018-08-20T14:10:04Z</time>
      </trkpt>
      <trkpt lat="-28.00303" lon="-65.84003">
        <ele>1120.4</ele>
        <time>2018-08-20T14:10:05Z</time>
      </trkpt>
      <trkpt lat="-28.003115" lon="-65.839975">
        <ele>1120.4</ele>
        <time>2018-08-20T14:10:06Z</time>
      </trkpt>
      <trkpt lat="-28.003195" lon="-65.839935">
        <ele>1120.1</ele>
        <time>2018-08-20T14:10:07Z</time>
      </trkpt>
      <trkpt lat="-28.003281666666666" lon="-65.83987833333333">
        <ele>1119.7</ele>
        <time>2018-08-20T14:10:08Z</time>
      </trkpt>
      <trkpt lat="-28.003375" lon="-65.839825">
        <ele>1119.3</ele>
        <time>2018-08-20T14:10:09Z</time>
      </trkpt>
      <trkpt lat="-28.00347" lon="-65.839775">
        <ele>1118.8</ele>
        <time>2018-08-20T14:10:10Z</time>
      </trkpt>
      <trkpt lat="-28.00356" lon="-65.83972">
        <ele>1118.4</ele>
        <time>2018-08-20T14:10:11Z</time>
      </trkpt>
      <trkpt lat="-28.003655" lon="-65.839665">
        <ele>1117.9</ele>
        <time>2018-08-20T14:10:12Z</time>
      </trkpt>
      <trkpt lat="-28.00375" lon="-65.83961166666667">
        <ele>1117.5</ele>
        <time>2018-08-20T14:10:13Z</time>
      </trkpt>
      <trkpt lat="-28.00385" lon="-65.83956333333333">
        <ele>1117.0</ele>
        <time>2018-08-20T14:10:14Z</time>
      </trkpt>
      <trkpt lat="-28.003945" lon="-65.83952166666667">
        <ele>1116.6</ele>
        <time>2018-08-20T14:10:15Z</time>
      </trkpt>
      <trkpt lat="-28.00404" lon="-65.83948333333333">
        <ele>1116.3</ele>
        <time>2018-08-20T14:10:16Z</time>
      </trkpt>
      <trkpt lat="-28.00414" lon="-65.83945">
        <ele>1116.0</ele>
        <time>2018-08-20T14:10:17Z</time>
      </trkpt>
      <trkpt lat="-28.00423" lon="-65.83942333333333">
        <ele>1115.9</ele>
        <time>2018-08-20T14:10:18Z</time>
      </trkpt>
      <trkpt lat="-28.00433" lon="-65.83941">
        <ele>1115.8</ele>
        <time>2018-08-20T14:10:19Z</time>
      </trkpt>
      <trkpt lat="-28.00442" lon="-65.83939166666667">
        <ele>1115.7</ele>
        <time>2018-08-20T14:10:20Z</time>
      </trkpt>
      <trkpt lat="-28.004515" lon="-65.83938166666667">
        <ele>1115.7</ele>
        <time>2018-08-20T14:10:21Z</time>
      </trkpt>
      <trkpt lat="-28.004603333333332" lon="-65.83937666666667">
        <ele>1115.6</ele>
        <time>2018-08-20T14:10:22Z</time>
      </trkpt>
      <trkpt lat="-28.004695" lon="-65.839375">
        <ele>1115.5</ele>
        <time>2018-08-20T14:10:23Z</time>
      </trkpt>
      <trkpt lat="-28.004785" lon="-65.839375">
        <ele>1115.6</ele>
        <time>2018-08-20T14:10:24Z</time>
      </trkpt>
      <trkpt lat="-28.00487" lon="-65.83937">
        <ele>1115.7</ele>
        <time>2018-08-20T14:10:25Z</time>
      </trkpt>
      <trkpt lat="-28.004955" lon="-65.839365">
        <ele>1115.9</ele>
        <time>2018-08-20T14:10:26Z</time>
      </trkpt>
      <trkpt lat="-28.005035" lon="-65.839365">
        <ele>1115.7</ele>
        <time>2018-08-20T14:10:27Z</time>
      </trkpt>
      <trkpt lat="-28.005115" lon="-65.839365">
        <ele>1115.6</ele>
        <time>2018-08-20T14:10:28Z</time>
      </trkpt>
      <trkpt lat="-28.00519" lon="-65.83935666666666">
        <ele>1115.5</ele>
        <time>2018-08-20T14:10:29Z</time>
      </trkpt>
      <trkpt lat="-28.005265" lon="-65.839355">
        <ele>1115.5</ele>
        <time>2018-08-20T14:10:30Z</time>
      </trkpt>
      <trkpt lat="-28.00534" lon="-65.839355">
        <ele>1115.4</ele>
        <time>2018-08-20T14:10:31Z</time>
      </trkpt>
      <trkpt lat="-28.005475" lon="-65.839355">
        <ele>1115.5</ele>
        <time>2018-08-20T14:10:33Z</time>
      </trkpt>
      <trkpt lat="-28.005615" lon="-65.839345">
        <ele>1115.8</ele>
        <time>2018-08-20T14:10:35Z</time>
      </trkpt>
      <trkpt lat="-28.00574" lon="-65.83934333333333">
        <ele>1115.8</ele>
        <time>2018-08-20T14:10:37Z</time>
      </trkpt>
      <trkpt lat="-28.005855" lon="-65.839335">
        <ele>1115.7</ele>
        <time>2018-08-20T14:10:39Z</time>
      </trkpt>
      <trkpt lat="-28.005975" lon="-65.83933166666667">
        <ele>1115.6</ele>
        <time>2018-08-20T14:10:41Z</time>
      </trkpt>
      <trkpt lat="-28.00609" lon="-65.83933">
        <ele>1115.6</ele>
        <time>2018-08-20T14:10:43Z</time>
      </trkpt>
      <trkpt lat="-28.0062" lon="-65.83933">
        <ele>1115.5</ele>
        <time>2018-08-20T14:10:45Z</time>
      </trkpt>
      <trkpt lat="-28.00632" lon="-65.839325">
        <ele>1115.4</ele>
        <time>2018-08-20T14:10:47Z</time>
      </trkpt>
      <trkpt lat="-28.006428333333332" lon="-65.83932">
        <ele>1115.5</ele>
        <time>2018-08-20T14:10:49Z</time>
      </trkpt>
      <trkpt lat="-28.00653" lon="-65.83931">
        <ele>1115.8</ele>
        <time>2018-08-20T14:10:51Z</time>
      </trkpt>
      <trkpt lat="-28.00664" lon="-65.8393">
        <ele>1115.9</ele>
        <time>2018-08-20T14:10:53Z</time>
      </trkpt>
      <trkpt lat="-28.006755" lon="-65.83929166666667">
        <ele>1116.0</ele>
        <time>2018-08-20T14:10:55Z</time>
      </trkpt>
      <trkpt lat="-28.006875" lon="-65.83929">
        <ele>1115.9</ele>
        <time>2018-08-20T14:10:57Z</time>
      </trkpt>
      <trkpt lat="-28.006995" lon="-65.839285">
        <ele>1115.5</ele>
        <time>2018-08-20T14:10:59Z</time>
      </trkpt>
      <trkpt lat="-28.00712" lon="-65.839285">
        <ele>1114.9</ele>
        <time>2018-08-20T14:11:01Z</time>
      </trkpt>
      <trkpt lat="-28.00724" lon="-65.83928">
        <ele>1114.6</ele>
        <time>2018-08-20T14:11:03Z</time>
      </trkpt>
      <trkpt lat="-28.007365" lon="-65.83926166666667">
        <ele>1114.5</ele>
        <time>2018-08-20T14:11:05Z</time>
      </trkpt>
      <trkpt lat="-28.007488333333335" lon="-65.83924666666667">
        <ele>1114.6</ele>
        <time>2018-08-20T14:11:07Z</time>
      </trkpt>
      <trkpt lat="-28.007615" lon="-65.839235">
        <ele>1114.5</ele>
        <time>2018-08-20T14:11:09Z</time>
      </trkpt>
      <trkpt lat="-28.007745" lon="-65.839205">
        <ele>1114.1</ele>
        <time>2018-08-20T14:11:11Z</time>
      </trkpt>
      <trkpt lat="-28.007875" lon="-65.839185">
        <ele>1113.7</ele>
        <time>2018-08-20T14:11:13Z</time>
      </trkpt>
      <trkpt lat="-28.008" lon="-65.83915">
        <ele>1113.3</ele>
        <time>2018-08-20T14:11:15Z</time>
      </trkpt>
      <trkpt lat="-28.008135" lon="-65.83911666666667">
        <ele>1112.9</ele>
        <time>2018-08-20T14:11:17Z</time>
      </trkpt>
      <trkpt lat="-28.008265" lon="-65.839075">
        <ele>1112.6</ele>
        <time>2018-08-20T14:11:19Z</time>
      </trkpt>
      <trkpt lat="-28.008395" lon="-65.83903166666667">
        <ele>1112.3</ele>
        <time>2018-08-20T14:11:21Z</time>
      </trkpt>
      <trkpt lat="-28.00853" lon="-65.83898333333333">
        <ele>1112.0</ele>
        <time>2018-08-20T14:11:23Z</time>
      </trkpt>
      <trkpt lat="-28.008663333333335" lon="-65.838935">
        <ele>1111.8</ele>
        <time>2018-08-20T14:11:25Z</time>
      </trkpt>
      <trkpt lat="-28.008805" lon="-65.838875">
        <ele>1111.6</ele>
        <time>2018-08-20T14:11:27Z</time>
      </trkpt>
      <trkpt lat="-28.008875" lon="-65.83884">
        <ele>1111.7</ele>
        <time>2018-08-20T14:11:28Z</time>
      </trkpt>
      <trkpt lat="-28.008945" lon="-65.83880666666667">
        <ele>1111.7</ele>
        <time>2018-08-20T14:11:29Z</time>
      </trkpt>
      <trkpt lat="-28.009015" lon="-65.838775">
        <ele>1111.7</ele>
        <time>2018-08-20T14:11:30Z</time>
      </trkpt>
      <trkpt lat="-28.009085" lon="-65.838735">
        <ele>1111.7</ele>
        <time>2018-08-20T14:11:31Z</time>
      </trkpt>
      <trkpt lat="-28.009155" lon="-65.8387">
        <ele>1111.7</ele>
        <time>2018-08-20T14:11:32Z</time>
      </trkpt>
      <trkpt lat="-28.00922" lon="-65.83865666666667">
        <ele>1111.6</ele>
        <time>2018-08-20T14:11:33Z</time>
      </trkpt>
      <trkpt lat="-28.009345" lon="-65.838595">
        <ele>1111.1</ele>
        <time>2018-08-20T14:11:35Z</time>
      </trkpt>
      <trkpt lat="-28.009415" lon="-65.83855">
        <ele>1111.0</ele>
        <time>2018-08-20T14:11:36Z</time>
      </trkpt>
      <trkpt lat="-28.00949" lon="-65.83851">
        <ele>1110.8</ele>
        <time>2018-08-20T14:11:37Z</time>
      </trkpt>
      <trkpt lat="-28.009555" lon="-65.83847">
        <ele>1110.7</ele>
        <time>2018-08-20T14:11:38Z</time>
      </trkpt>
      <trkpt lat="-28.009625" lon="-65.838425">
        <ele>1110.5</ele>
        <time>2018-08-20T14:11:39Z</time>
      </trkpt>
      <trkpt lat="-28.0097" lon="-65.838385">
        <ele>1110.4</ele>
        <time>2018-08-20T14:11:40Z</time>
      </trkpt>
      <trkpt lat="-28.00977" lon="-65.83834">
        <ele>1110.3</ele>
        <time>2018-08-20T14:11:41Z</time>
      </trkpt>
      <trkpt lat="-28.00983" lon="-65.838295">
        <ele>1110.2</ele>
        <time>2018-08-20T14:11:42Z</time>
      </trkpt>
      <trkpt lat="-28.009905" lon="-65.838255">
        <ele>1110.3</ele>
        <time>2018-08-20T14:11:43Z</time>
      </trkpt>
      <trkpt lat="-28.00997" lon="-65.83822">
        <ele>1110.0</ele>
        <time>2018-08-20T14:11:44Z</time>
      </trkpt>
      <trkpt lat="-28.010035" lon="-65.838175">
        <ele>1109.4</ele>
        <time>2018-08-20T14:11:45Z</time>
      </trkpt>
      <trkpt lat="-28.010105" lon="-65.83813333333333">
        <ele>1109.2</ele>
        <time>2018-08-20T14:11:46Z</time>
      </trkpt>
      <trkpt lat="-28.010185" lon="-65.83808666666667">
        <ele>1109.3</ele>
        <time>2018-08-20T14:11:47Z</time>
      </trkpt>
      <trkpt lat="-28.01026" lon="-65.83804333333333">
        <ele>1109.4</ele>
        <time>2018-08-20T14:11:48Z</time>
      </trkpt>
      <trkpt lat="-28.01033" lon="-65.83799833333333">
        <ele>1109.5</ele>
        <time>2018-08-20T14:11:49Z</time>
      </trkpt>
      <trkpt lat="-28.0104" lon="-65.83795666666667">
        <ele>1109.7</ele>
        <time>2018-08-20T14:11:50Z</time>
      </trkpt>
      <trkpt lat="-28.01047" lon="-65.83792">
        <ele>1109.9</ele>
        <time>2018-08-20T14:11:51Z</time>
      </trkpt>
      <trkpt lat="-28.01054" lon="-65.83788">
        <ele>1110.1</ele>
        <time>2018-08-20T14:11:52Z</time>
      </trkpt>
      <trkpt lat="-28.01061" lon="-65.837835">
        <ele>1110.1</ele>
        <time>2018-08-20T14:11:53Z</time>
      </trkpt>
      <trkpt lat="-28.010678333333335" lon="-65.837795">
        <ele>1110.1</ele>
        <time>2018-08-20T14:11:54Z</time>
      </trkpt>
      <trkpt lat="-28.010765" lon="-65.83775">
        <ele>1110.0</ele>
        <time>2018-08-20T14:11:55Z</time>
      </trkpt>
      <trkpt lat="-28.010845" lon="-65.83771">
        <ele>1109.7</ele>
        <time>2018-08-20T14:11:56Z</time>
      </trkpt>
      <trkpt lat="-28.01093" lon="-65.83767166666667">
        <ele>1109.4</ele>
        <time>2018-08-20T14:11:57Z</time>
      </trkpt>
      <trkpt lat="-28.011005" lon="-65.83765">
        <ele>1108.8</ele>
        <time>2018-08-20T14:11:58Z</time>
      </trkpt>
      <trkpt lat="-28.01109" lon="-65.83763">
        <ele>1108.3</ele>
        <time>2018-08-20T14:11:59Z</time>
      </trkpt>
      <trkpt lat="-28.011175" lon="-65.83762">
        <ele>1107.9</ele>
        <time>2018-08-20T14:12:00Z</time>
      </trkpt>
      <trkpt lat="-28.01126" lon="-65.83761">
        <ele>1107.4</ele>
        <time>2018-08-20T14:12:01Z</time>
      </trkpt>
      <trkpt lat="-28.011345" lon="-65.83761">
        <ele>1106.5</ele>
        <time>2018-08-20T14:12:02Z</time>
      </trkpt>
      <trkpt lat="-28.011445" lon="-65.83761">
        <ele>1105.9</ele>
        <time>2018-08-20T14:12:03Z</time>
      </trkpt>
      <trkpt lat="-28.01153" lon="-65.83762">
        <ele>1105.7</ele>
        <time>2018-08-20T14:12:04Z</time>
      </trkpt>
      <trkpt lat="-28.011611666666667" lon="-65.837625">
        <ele>1105.5</ele>
        <time>2018-08-20T14:12:05Z</time>
      </trkpt>
      <trkpt lat="-28.011705" lon="-65.83763">
        <ele>1105.5</ele>
        <time>2018-08-20T14:12:06Z</time>
      </trkpt>
      <trkpt lat="-28.01178" lon="-65.837635">
        <ele>1105.4</ele>
        <time>2018-08-20T14:12:07Z</time>
      </trkpt>
      <trkpt lat="-28.011865" lon="-65.83764">
        <ele>1105.9</ele>
        <time>2018-08-20T14:12:08Z</time>
      </trkpt>
      <trkpt lat="-28.011945" lon="-65.837655">
        <ele>1106.1</ele>
        <time>2018-08-20T14:12:09Z</time>
      </trkpt>
      <trkpt lat="-28.01203" lon="-65.837665">
        <ele>1106.3</ele>
        <time>2018-08-20T14:12:10Z</time>
      </trkpt>
      <trkpt lat="-28.012111666666666" lon="-65.83766833333334">
        <ele>1106.4</ele>
        <time>2018-08-20T14:12:11Z</time>
      </trkpt>
      <trkpt lat="-28.0122" lon="-65.83768166666667">
        <ele>1106.3</ele>
        <time>2018-08-20T14:12:12Z</time>
      </trkpt>
      <trkpt lat="-28.01228" lon="-65.837695">
        <ele>1106.2</ele>
        <time>2018-08-20T14:12:13Z</time>
      </trkpt>
      <trkpt lat="-28.01236" lon="-65.837705">
        <ele>1105.9</ele>
        <time>2018-08-20T14:12:14Z</time>
      </trkpt>
      <trkpt lat="-28.012445" lon="-65.837715">
        <ele>1105.4</ele>
        <time>2018-08-20T14:12:15Z</time>
      </trkpt>
      <trkpt lat="-28.012525" lon="-65.837725">
        <ele>1104.8</ele>
        <time>2018-08-20T14:12:16Z</time>
      </trkpt>
      <trkpt lat="-28.01261" lon="-65.837725">
        <ele>1104.3</ele>
        <time>2018-08-20T14:12:17Z</time>
      </trkpt>
      <trkpt lat="-28.012681666666666" lon="-65.83774">
        <ele>1103.9</ele>
        <time>2018-08-20T14:12:18Z</time>
      </trkpt>
      <trkpt lat="-28.012765" lon="-65.83774">
        <ele>1103.6</ele>
        <time>2018-08-20T14:12:19Z</time>
      </trkpt>
      <trkpt lat="-28.012845" lon="-65.83775">
        <ele>1103.1</ele>
        <time>2018-08-20T14:12:20Z</time>
      </trkpt>
      <trkpt lat="-28.01292" lon="-65.83776">
        <ele>1102.8</ele>
        <time>2018-08-20T14:12:21Z</time>
      </trkpt>
      <trkpt lat="-28.012995" lon="-65.83776166666667">
        <ele>1102.8</ele>
        <time>2018-08-20T14:12:22Z</time>
      </trkpt>
      <trkpt lat="-28.013063333333335" lon="-65.83777">
        <ele>1102.8</ele>
        <time>2018-08-20T14:12:23Z</time>
      </trkpt>
      <trkpt lat="-28.01314" lon="-65.83777666666667">
        <ele>1102.8</ele>
        <time>2018-08-20T14:12:24Z</time>
      </trkpt>
      <trkpt lat="-28.01327" lon="-65.837795">
        <ele>1102.9</ele>
        <time>2018-08-20T14:12:26Z</time>
      </trkpt>
      <trkpt lat="-28.013405" lon="-65.837805">
        <ele>1103.1</ele>
        <time>2018-08-20T14:12:28Z</time>
      </trkpt>
      <trkpt lat="-28.01354" lon="-65.83781">
        <ele>1103.1</ele>
        <time>2018-08-20T14:12:30Z</time>
      </trkpt>
      <trkpt lat="-28.013675" lon="-65.83781666666667">
        <ele>1103.4</ele>
        <time>2018-08-20T14:12:32Z</time>
      </trkpt>
      <trkpt lat="-28.01381" lon="-65.837835">
        <ele>1103.3</ele>
        <time>2018-08-20T14:12:34Z</time>
      </trkpt>
      <trkpt lat="-28.013935" lon="-65.837845">
        <ele>1103.3</ele>
        <time>2018-08-20T14:12:36Z</time>
      </trkpt>
      <trkpt lat="-28.014055" lon="-65.837845">
        <ele>1103.1</ele>
        <time>2018-08-20T14:12:38Z</time>
      </trkpt>
      <trkpt lat="-28.01417" lon="-65.837845">
        <ele>1103.0</ele>
        <time>2018-08-20T14:12:40Z</time>
      </trkpt>
      <trkpt lat="-28.01428" lon="-65.837835">
        <ele>1102.7</ele>
        <time>2018-08-20T14:12:42Z</time>
      </trkpt>
      <trkpt lat="-28.01437" lon="-65.83781833333333">
        <ele>1103.3</ele>
        <time>2018-08-20T14:12:44Z</time>
      </trkpt>
      <trkpt lat="-28.01446" lon="-65.83781">
        <ele>1103.8</ele>
        <time>2018-08-20T14:12:46Z</time>
      </trkpt>
      <trkpt lat="-28.014545" lon="-65.837795">
        <ele>1104.0</ele>
        <time>2018-08-20T14:12:48Z</time>
      </trkpt>
      <trkpt lat="-28.014625" lon="-65.83777166666667">
        <ele>1104.2</ele>
        <time>2018-08-20T14:12:50Z</time>
      </trkpt>
      <trkpt lat="-28.014705" lon="-65.83776">
        <ele>1104.7</ele>
        <time>2018-08-20T14:12:52Z</time>
      </trkpt>
      <trkpt lat="-28.014796666666665" lon="-65.83773333333333">
        <ele>1105.1</ele>
        <time>2018-08-20T14:12:54Z</time>
      </trkpt>
      <trkpt lat="-28.0149" lon="-65.837715">
        <ele>1105.3</ele>
        <time>2018-08-20T14:12:56Z</time>
      </trkpt>
      <trkpt lat="-28.014995" lon="-65.837695">
        <ele>1105.3</ele>
        <time>2018-08-20T14:12:58Z</time>
      </trkpt>
      <trkpt lat="-28.01509" lon="-65.83766666666666">
        <ele>1105.3</ele>
        <time>2018-08-20T14:13:00Z</time>
      </trkpt>
      <trkpt lat="-28.015185" lon="-65.837655">
        <ele>1105.2</ele>
        <time>2018-08-20T14:13:02Z</time>
      </trkpt>
      <trkpt lat="-28.01529" lon="-65.83763">
        <ele>1105.1</ele>
        <time>2018-08-20T14:13:04Z</time>
      </trkpt>
      <trkpt lat="-28.015395" lon="-65.83761">
        <ele>1105.0</ele>
        <time>2018-08-20T14:13:06Z</time>
      </trkpt>
      <trkpt lat="-28.0155" lon="-65.837585">
        <ele>1104.8</ele>
        <time>2018-08-20T14:13:08Z</time>
      </trkpt>
      <trkpt lat="-28.01561" lon="-65.837565">
        <ele>1104.6</ele>
        <time>2018-08-20T14:13:10Z</time>
      </trkpt>
      <trkpt lat="-28.01573" lon="-65.837535">
        <ele>1104.4</ele>
        <time>2018-08-20T14:13:12Z</time>
      </trkpt>
      <trkpt lat="-28.015845" lon="-65.83751166666667">
        <ele>1104.2</ele>
        <time>2018-08-20T14:13:14Z</time>
      </trkpt>
      <trkpt lat="-28.01596" lon="-65.83749">
        <ele>1103.9</ele>
        <time>2018-08-20T14:13:16Z</time>
      </trkpt>
      <trkpt lat="-28.016085" lon="-65.83746">
        <ele>1103.7</ele>
        <time>2018-08-20T14:13:18Z</time>
      </trkpt>
      <trkpt lat="-28.016206666666665" lon="-65.83744">
        <ele>1103.5</ele>
        <time>2018-08-20T14:13:20Z</time>
      </trkpt>
      <trkpt lat="-28.01633" lon="-65.83741">
        <ele>1103.4</ele>
        <time>2018-08-20T14:13:22Z</time>
      </trkpt>
      <trkpt lat="-28.016455" lon="-65.837385">
        <ele>1103.2</ele>
        <time>2018-08-20T14:13:24Z</time>
      </trkpt>
      <trkpt lat="-28.016585" lon="-65.83736">
        <ele>1103.0</ele>
        <time>2018-08-20T14:13:26Z</time>
      </trkpt>
      <trkpt lat="-28.016656666666666" lon="-65.837345">
        <ele>1102.5</ele>
        <time>2018-08-20T14:13:27Z</time>
      </trkpt>
      <trkpt lat="-28.01679" lon="-65.837315">
        <ele>1101.8</ele>
        <time>2018-08-20T14:13:29Z</time>
      </trkpt>
      <trkpt lat="-28.01693" lon="-65.83728833333333">
        <ele>1101.0</ele>
        <time>2018-08-20T14:13:31Z</time>
      </trkpt>
      <trkpt lat="-28.017" lon="-65.837275">
        <ele>1100.8</ele>
        <time>2018-08-20T14:13:32Z</time>
      </trkpt>
      <trkpt lat="-28.01707" lon="-65.837265">
        <ele>1100.6</ele>
        <time>2018-08-20T14:13:33Z</time>
      </trkpt>
      <trkpt lat="-28.017205" lon="-65.837235">
        <ele>1100.1</ele>
        <time>2018-08-20T14:13:35Z</time>
      </trkpt>
      <trkpt lat="-28.01728" lon="-65.837215">
        <ele>1099.9</ele>
        <time>2018-08-20T14:13:36Z</time>
      </trkpt>
      <trkpt lat="-28.017416666666666" lon="-65.83719">
        <ele>1099.8</ele>
        <time>2018-08-20T14:13:38Z</time>
      </trkpt>
      <trkpt lat="-28.017555" lon="-65.83716">
        <ele>1099.8</ele>
        <time>2018-08-20T14:13:40Z</time>
      </trkpt>
      <trkpt lat="-28.017676666666667" lon="-65.837135">
        <ele>1099.7</ele>
        <time>2018-08-20T14:13:42Z</time>
      </trkpt>
      <trkpt lat="-28.017815" lon="-65.83709666666667">
        <ele>1099.6</ele>
        <time>2018-08-20T14:13:44Z</time>
      </trkpt>
      <trkpt lat="-28.01794" lon="-65.83706666666667">
        <ele>1099.6</ele>
        <time>2018-08-20T14:13:46Z</time>
      </trkpt>
      <trkpt lat="-28.018055" lon="-65.837045">
        <ele>1099.4</ele>
        <time>2018-08-20T14:13:48Z</time>
      </trkpt>
      <trkpt lat="-28.018166666666666" lon="-65.83701">
        <ele>1099.2</ele>
        <time>2018-08-20T14:13:50Z</time>
      </trkpt>
      <trkpt lat="-28.01828" lon="-65.83698">
        <ele>1099.3</ele>
        <time>2018-08-20T14:13:52Z</time>
      </trkpt>
      <trkpt lat="-28.0184" lon="-65.836945">
        <ele>1099.1</ele>
        <time>2018-08-20T14:13:54Z</time>
      </trkpt>
      <trkpt lat="-28.018508333333333" lon="-65.8369">
        <ele>1098.9</ele>
        <time>2018-08-20T14:13:56Z</time>
      </trkpt>
      <trkpt lat="-28.018626666666666" lon="-65.83685">
        <ele>1099.0</ele>
        <time>2018-08-20T14:13:58Z</time>
      </trkpt>
      <trkpt lat="-28.018736666666666" lon="-65.83681">
        <ele>1099.0</ele>
        <time>2018-08-20T14:14:00Z</time>
      </trkpt>
      <trkpt lat="-28.018865" lon="-65.836765">
        <ele>1098.9</ele>
        <time>2018-08-20T14:14:02Z</time>
      </trkpt>
      <trkpt lat="-28.01899" lon="-65.836725">
        <ele>1098.9</ele>
        <time>2018-08-20T14:14:04Z</time>
      </trkpt>
      <trkpt lat="-28.019115" lon="-65.83668">
        <ele>1099.3</ele>
        <time>2018-08-20T14:14:06Z</time>
      </trkpt>
      <trkpt lat="-28.019185" lon="-65.83665166666667">
        <ele>1099.5</ele>
        <time>2018-08-20T14:14:07Z</time>
      </trkpt>
      <trkpt lat="-28.019308333333335" lon="-65.83660666666667">
        <ele>1099.5</ele>
        <time>2018-08-20T14:14:09Z</time>
      </trkpt>
      <trkpt lat="-28.019435" lon="-65.83656">
        <ele>1099.4</ele>
        <time>2018-08-20T14:14:11Z</time>
      </trkpt>
      <trkpt lat="-28.01957" lon="-65.836515">
        <ele>1099.3</ele>
        <time>2018-08-20T14:14:13Z</time>
      </trkpt>
      <trkpt lat="-28.0197" lon="-65.836465">
        <ele>1099.2</ele>
        <time>2018-08-20T14:14:15Z</time>
      </trkpt>
      <trkpt lat="-28.019835" lon="-65.836415">
        <ele>1098.9</ele>
        <time>2018-08-20T14:14:17Z</time>
      </trkpt>
      <trkpt lat="-28.01991" lon="-65.83638166666667">
        <ele>1099.0</ele>
        <time>2018-08-20T14:14:18Z</time>
      </trkpt>
      <trkpt lat="-28.020045" lon="-65.836335">
        <ele>1098.9</ele>
        <time>2018-08-20T14:14:20Z</time>
      </trkpt>
      <trkpt lat="-28.020113333333335" lon="-65.83630166666667">
        <ele>1098.7</ele>
        <time>2018-08-20T14:14:21Z</time>
      </trkpt>
      <trkpt lat="-28.020181666666666" lon="-65.83628">
        <ele>1098.8</ele>
        <time>2018-08-20T14:14:22Z</time>
      </trkpt>
      <trkpt lat="-28.02026" lon="-65.83625">
        <ele>1098.8</ele>
        <time>2018-08-20T14:14:23Z</time>
      </trkpt>
      <trkpt lat="-28.020345" lon="-65.83622">
        <ele>1098.6</ele>
        <time>2018-08-20T14:14:24Z</time>
      </trkpt>
      <trkpt lat="-28.020415" lon="-65.83619">
        <ele>1098.1</ele>
        <time>2018-08-20T14:14:25Z</time>
      </trkpt>
      <trkpt lat="-28.020495" lon="-65.83615666666667">
        <ele>1097.5</ele>
        <time>2018-08-20T14:14:26Z</time>
      </trkpt>
      <trkpt lat="-28.020575" lon="-65.83613">
        <ele>1096.8</ele>
        <time>2018-08-20T14:14:27Z</time>
      </trkpt>
      <trkpt lat="-28.02066" lon="-65.83609">
        <ele>1096.2</ele>
        <time>2018-08-20T14:14:28Z</time>
      </trkpt>
      <trkpt lat="-28.02074" lon="-65.83606">
        <ele>1095.6</ele>
        <time>2018-08-20T14:14:29Z</time>
      </trkpt>
      <trkpt lat="-28.02082" lon="-65.836025">
        <ele>1095.1</ele>
        <time>2018-08-20T14:14:30Z</time>
      </trkpt>
      <trkpt lat="-28.020905" lon="-65.835995">
        <ele>1094.9</ele>
        <time>2018-08-20T14:14:31Z</time>
      </trkpt>
      <trkpt lat="-28.021" lon="-65.83595">
        <ele>1094.8</ele>
        <time>2018-08-20T14:14:32Z</time>
      </trkpt>
      <trkpt lat="-28.021086666666665" lon="-65.83592">
        <ele>1094.6</ele>
        <time>2018-08-20T14:14:33Z</time>
      </trkpt>
      <trkpt lat="-28.02118" lon="-65.83588">
        <ele>1094.2</ele>
        <time>2018-08-20T14:14:34Z</time>
      </trkpt>
      <trkpt lat="-28.02127" lon="-65.83584">
        <ele>1094.0</ele>
        <time>2018-08-20T14:14:35Z</time>
      </trkpt>
      <trkpt lat="-28.021356666666666" lon="-65.8358">
        <ele>1093.2</ele>
        <time>2018-08-20T14:14:36Z</time>
      </trkpt>
      <trkpt lat="-28.021445" lon="-65.83575833333333">
        <ele>1093.0</ele>
        <time>2018-08-20T14:14:37Z</time>
      </trkpt>
      <trkpt lat="-28.021535" lon="-65.835725">
        <ele>1092.8</ele>
        <time>2018-08-20T14:14:38Z</time>
      </trkpt>
      <trkpt lat="-28.021615" lon="-65.835685">
        <ele>1092.6</ele>
        <time>2018-08-20T14:14:39Z</time>
      </trkpt>
      <trkpt lat="-28.02169333333333" lon="-65.83565">
        <ele>1092.7</ele>
        <time>2018-08-20T14:14:40Z</time>
      </trkpt>
      <trkpt lat="-28.02177" lon="-65.83561">
        <ele>1092.8</ele>
        <time>2018-08-20T14:14:41Z</time>
      </trkpt>
      <trkpt lat="-28.021843333333333" lon="-65.835575">
        <ele>1093.0</ele>
        <time>2018-08-20T14:14:42Z</time>
      </trkpt>
      <trkpt lat="-28.021925" lon="-65.83553333333333">
        <ele>1093.3</ele>
        <time>2018-08-20T14:14:43Z</time>
      </trkpt>
      <trkpt lat="-28.021995" lon="-65.83549666666667">
        <ele>1093.4</ele>
        <time>2018-08-20T14:14:44Z</time>
      </trkpt>
      <trkpt lat="-28.02207" lon="-65.835465">
        <ele>1093.6</ele>
        <time>2018-08-20T14:14:45Z</time>
      </trkpt>
      <trkpt lat="-28.022145" lon="-65.835425">
        <ele>1093.6</ele>
        <time>2018-08-20T14:14:46Z</time>
      </trkpt>
      <trkpt lat="-28.022215" lon="-65.83539">
        <ele>1093.6</ele>
        <time>2018-08-20T14:14:47Z</time>
      </trkpt>
      <trkpt lat="-28.02228" lon="-65.83535">
        <ele>1093.7</ele>
        <time>2018-08-20T14:14:48Z</time>
      </trkpt>
      <trkpt lat="-28.022343333333332" lon="-65.835315">
        <ele>1093.9</ele>
        <time>2018-08-20T14:14:49Z</time>
      </trkpt>
      <trkpt lat="-28.022475" lon="-65.835255">
        <ele>1094.2</ele>
        <time>2018-08-20T14:14:51Z</time>
      </trkpt>
      <trkpt lat="-28.02254" lon="-65.83522">
        <ele>1094.7</ele>
        <time>2018-08-20T14:14:52Z</time>
      </trkpt>
      <trkpt lat="-28.022635" lon="-65.83516">
        <ele>1094.8</ele>
        <time>2018-08-20T14:14:54Z</time>
      </trkpt>
      <trkpt lat="-28.02275" lon="-65.835105">
        <ele>1094.3</ele>
        <time>2018-08-20T14:14:56Z</time>
      </trkpt>
      <trkpt lat="-28.022865" lon="-65.83504">
        <ele>1094.3</ele>
        <time>2018-08-20T14:14:58Z</time>
      </trkpt>
      <trkpt lat="-28.022955" lon="-65.83499833333333">
        <ele>1094.4</ele>
        <time>2018-08-20T14:15:00Z</time>
      </trkpt>
      <trkpt lat="-28.02305" lon="-65.83495166666667">
        <ele>1093.4</ele>
        <time>2018-08-20T14:15:02Z</time>
      </trkpt>
      <trkpt lat="-28.023155" lon="-65.8349">
        <ele>1093.3</ele>
        <time>2018-08-20T14:15:04Z</time>
      </trkpt>
      <trkpt lat="-28.023265" lon="-65.834845">
        <ele>1093.9</ele>
        <time>2018-08-20T14:15:06Z</time>
      </trkpt>
      <trkpt lat="-28.023375" lon="-65.834785">
        <ele>1093.9</ele>
        <time>2018-08-20T14:15:08Z</time>
      </trkpt>
      <trkpt lat="-28.023481666666665" lon="-65.83471666666667">
        <ele>1094.0</ele>
        <time>2018-08-20T14:15:10Z</time>
      </trkpt>
      <trkpt lat="-28.02361" lon="-65.834665">
        <ele>1094.6</ele>
        <time>2018-08-20T14:15:12Z</time>
      </trkpt>
      <trkpt lat="-28.023735" lon="-65.83459666666667">
        <ele>1094.8</ele>
        <time>2018-08-20T14:15:14Z</time>
      </trkpt>
      <trkpt lat="-28.02387" lon="-65.83453">
        <ele>1095.0</ele>
        <time>2018-08-20T14:15:16Z</time>
      </trkpt>
      <trkpt lat="-28.024" lon="-65.83446333333333">
        <ele>1095.3</ele>
        <time>2018-08-20T14:15:18Z</time>
      </trkpt>
      <trkpt lat="-28.024135" lon="-65.834405">
        <ele>1095.7</ele>
        <time>2018-08-20T14:15:20Z</time>
      </trkpt>
      <trkpt lat="-28.02421" lon="-65.83437">
        <ele>1095.7</ele>
        <time>2018-08-20T14:15:21Z</time>
      </trkpt>
      <trkpt lat="-28.024278333333335" lon="-65.834335">
        <ele>1095.5</ele>
        <time>2018-08-20T14:15:22Z</time>
      </trkpt>
      <trkpt lat="-28.024415" lon="-65.83428">
        <ele>1094.7</ele>
        <time>2018-08-20T14:15:24Z</time>
      </trkpt>
      <trkpt lat="-28.024565" lon="-65.83422">
        <ele>1094.4</ele>
        <time>2018-08-20T14:15:26Z</time>
      </trkpt>
      <trkpt lat="-28.02464" lon="-65.83418">
        <ele>1094.4</ele>
        <time>2018-08-20T14:15:27Z</time>
      </trkpt>
      <trkpt lat="-28.024715" lon="-65.83414">
        <ele>1094.5</ele>
        <time>2018-08-20T14:15:28Z</time>
      </trkpt>
      <trkpt lat="-28.024795" lon="-65.8341">
        <ele>1094.6</ele>
        <time>2018-08-20T14:15:29Z</time>
      </trkpt>
      <trkpt lat="-28.02488" lon="-65.83405833333333">
        <ele>1094.8</ele>
        <time>2018-08-20T14:15:30Z</time>
      </trkpt>
      <trkpt lat="-28.02496" lon="-65.834025">
        <ele>1094.9</ele>
        <time>2018-08-20T14:15:31Z</time>
      </trkpt>
      <trkpt lat="-28.025035" lon="-65.833995">
        <ele>1095.0</ele>
        <time>2018-08-20T14:15:32Z</time>
      </trkpt>
      <trkpt lat="-28.025115" lon="-65.83395">
        <ele>1095.1</ele>
        <time>2018-08-20T14:15:33Z</time>
      </trkpt>
      <trkpt lat="-28.025175" lon="-65.83392">
        <ele>1095.0</ele>
        <time>2018-08-20T14:15:34Z</time>
      </trkpt>
      <trkpt lat="-28.02525" lon="-65.83388333333333">
        <ele>1094.9</ele>
        <time>2018-08-20T14:15:35Z</time>
      </trkpt>
      <trkpt lat="-28.025315" lon="-65.83385">
        <ele>1094.8</ele>
        <time>2018-08-20T14:15:36Z</time>
      </trkpt>
      <trkpt lat="-28.02539" lon="-65.83381">
        <ele>1094.4</ele>
        <time>2018-08-20T14:15:37Z</time>
      </trkpt>
      <trkpt lat="-28.025465" lon="-65.83377">
        <ele>1094.0</ele>
        <time>2018-08-20T14:15:38Z</time>
      </trkpt>
      <trkpt lat="-28.025545" lon="-65.833725">
        <ele>1093.7</ele>
        <time>2018-08-20T14:15:39Z</time>
      </trkpt>
      <trkpt lat="-28.025625" lon="-65.83369">
        <ele>1093.3</ele>
        <time>2018-08-20T14:15:40Z</time>
      </trkpt>
      <trkpt lat="-28.025705" lon="-65.83364666666667">
        <ele>1092.9</ele>
        <time>2018-08-20T14:15:41Z</time>
      </trkpt>
      <trkpt lat="-28.02578" lon="-65.833615">
        <ele>1092.7</ele>
        <time>2018-08-20T14:15:42Z</time>
      </trkpt>
      <trkpt lat="-28.025855" lon="-65.833585">
        <ele>1092.4</ele>
        <time>2018-08-20T14:15:43Z</time>
      </trkpt>
      <trkpt lat="-28.02593" lon="-65.83355">
        <ele>1091.8</ele>
        <time>2018-08-20T14:15:44Z</time>
      </trkpt>
      <trkpt lat="-28.026" lon="-65.83351166666667">
        <ele>1091.3</ele>
        <time>2018-08-20T14:15:45Z</time>
      </trkpt>
      <trkpt lat="-28.02607" lon="-65.83347333333333">
        <ele>1091.0</ele>
        <time>2018-08-20T14:15:46Z</time>
      </trkpt>
      <trkpt lat="-28.02614" lon="-65.833445">
        <ele>1090.6</ele>
        <time>2018-08-20T14:15:47Z</time>
      </trkpt>
      <trkpt lat="-28.02621" lon="-65.833405">
        <ele>1090.3</ele>
        <time>2018-08-20T14:15:48Z</time>
      </trkpt>
      <trkpt lat="-28.026281666666666" lon="-65.83337">
        <ele>1090.2</ele>
        <time>2018-08-20T14:15:49Z</time>
      </trkpt>
      <trkpt lat="-28.02635" lon="-65.833335">
        <ele>1090.4</ele>
        <time>2018-08-20T14:15:50Z</time>
      </trkpt>
      <trkpt lat="-28.026435" lon="-65.83329666666667">
        <ele>1090.9</ele>
        <time>2018-08-20T14:15:51Z</time>
      </trkpt>
      <trkpt lat="-28.026565" lon="-65.83325">
        <ele>1091.4</ele>
        <time>2018-08-20T14:15:53Z</time>
      </trkpt>
      <trkpt lat="-28.02664" lon="-65.83322">
        <ele>1091.3</ele>
        <time>2018-08-20T14:15:54Z</time>
      </trkpt>
      <trkpt lat="-28.02671" lon="-65.83319">
        <ele>1091.2</ele>
        <time>2018-08-20T14:15:55Z</time>
      </trkpt>
      <trkpt lat="-28.026785" lon="-65.833155">
        <ele>1091.1</ele>
        <time>2018-08-20T14:15:56Z</time>
      </trkpt>
      <trkpt lat="-28.02685" lon="-65.83312166666667">
        <ele>1090.7</ele>
        <time>2018-08-20T14:15:57Z</time>
      </trkpt>
      <trkpt lat="-28.02698" lon="-65.83306">
        <ele>1089.8</ele>
        <time>2018-08-20T14:15:59Z</time>
      </trkpt>
      <trkpt lat="-28.02705" lon="-65.833025">
        <ele>1089.7</ele>
        <time>2018-08-20T14:16:00Z</time>
      </trkpt>
      <trkpt lat="-28.02712" lon="-65.832995">
        <ele>1089.5</ele>
        <time>2018-08-20T14:16:01Z</time>
      </trkpt>
      <trkpt lat="-28.027186666666665" lon="-65.83296">
        <ele>1089.7</ele>
        <time>2018-08-20T14:16:02Z</time>
      </trkpt>
      <trkpt lat="-28.02726" lon="-65.832925">
        <ele>1089.6</ele>
        <time>2018-08-20T14:16:03Z</time>
      </trkpt>
      <trkpt lat="-28.02732" lon="-65.832885">
        <ele>1089.2</ele>
        <time>2018-08-20T14:16:04Z</time>
      </trkpt>
      <trkpt lat="-28.027435" lon="-65.832825">
        <ele>1088.8</ele>
        <time>2018-08-20T14:16:06Z</time>
      </trkpt>
      <trkpt lat="-28.02756" lon="-65.83274">
        <ele>1088.6</ele>
        <time>2018-08-20T14:16:08Z</time>
      </trkpt>
      <trkpt lat="-28.027625" lon="-65.832705">
        <ele>1089.0</ele>
        <time>2018-08-20T14:16:09Z</time>
      </trkpt>
      <trkpt lat="-28.027745" lon="-65.83262666666667">
        <ele>1089.7</ele>
        <time>2018-08-20T14:16:11Z</time>
      </trkpt>
      <trkpt lat="-28.027865" lon="-65.83256">
        <ele>1090.1</ele>
        <time>2018-08-20T14:16:13Z</time>
      </trkpt>
      <trkpt lat="-28.027935" lon="-65.832515">
        <ele>1090.5</ele>
        <time>2018-08-20T14:16:14Z</time>
      </trkpt>
      <trkpt lat="-28.028055" lon="-65.83244333333333">
        <ele>1091.1</ele>
        <time>2018-08-20T14:16:16Z</time>
      </trkpt>
      <trkpt lat="-28.02817" lon="-65.832385">
        <ele>1090.2</ele>
        <time>2018-08-20T14:16:18Z</time>
      </trkpt>
      <trkpt lat="-28.02831" lon="-65.83231333333333">
        <ele>1089.5</ele>
        <time>2018-08-20T14:16:20Z</time>
      </trkpt>
      <trkpt lat="-28.028435" lon="-65.832265">
        <ele>1089.3</ele>
        <time>2018-08-20T14:16:22Z</time>
      </trkpt>
      <trkpt lat="-28.028565" lon="-65.83221">
        <ele>1089.1</ele>
        <time>2018-08-20T14:16:24Z</time>
      </trkpt>
      <trkpt lat="-28.02869" lon="-65.83216">
        <ele>1088.8</ele>
        <time>2018-08-20T14:16:26Z</time>
      </trkpt>
      <trkpt lat="-28.028755" lon="-65.832125">
        <ele>1088.7</ele>
        <time>2018-08-20T14:16:27Z</time>
      </trkpt>
      <trkpt lat="-28.028885" lon="-65.832075">
        <ele>1088.5</ele>
        <time>2018-08-20T14:16:29Z</time>
      </trkpt>
      <trkpt lat="-28.029" lon="-65.83203">
        <ele>1087.8</ele>
        <time>2018-08-20T14:16:31Z</time>
      </trkpt>
      <trkpt lat="-28.029116666666667" lon="-65.83198666666667">
        <ele>1087.6</ele>
        <time>2018-08-20T14:16:33Z</time>
      </trkpt>
      <trkpt lat="-28.02925" lon="-65.831945">
        <ele>1087.4</ele>
        <time>2018-08-20T14:16:35Z</time>
      </trkpt>
      <trkpt lat="-28.02938" lon="-65.8319">
        <ele>1087.3</ele>
        <time>2018-08-20T14:16:37Z</time>
      </trkpt>
      <trkpt lat="-28.029515" lon="-65.83185166666667">
        <ele>1087.3</ele>
        <time>2018-08-20T14:16:39Z</time>
      </trkpt>
      <trkpt lat="-28.02964" lon="-65.831815">
        <ele>1087.3</ele>
        <time>2018-08-20T14:16:41Z</time>
      </trkpt>
      <trkpt lat="-28.029761666666666" lon="-65.83177">
        <ele>1087.2</ele>
        <time>2018-08-20T14:16:43Z</time>
      </trkpt>
      <trkpt lat="-28.02989" lon="-65.83172666666667">
        <ele>1086.7</ele>
        <time>2018-08-20T14:16:45Z</time>
      </trkpt>
      <trkpt lat="-28.030015" lon="-65.8317">
        <ele>1086.2</ele>
        <time>2018-08-20T14:16:47Z</time>
      </trkpt>
      <trkpt lat="-28.03014" lon="-65.831665">
        <ele>1085.9</ele>
        <time>2018-08-20T14:16:49Z</time>
      </trkpt>
      <trkpt lat="-28.030265" lon="-65.831635">
        <ele>1085.6</ele>
        <time>2018-08-20T14:16:51Z</time>
      </trkpt>
      <trkpt lat="-28.03039" lon="-65.83160166666667">
        <ele>1085.3</ele>
        <time>2018-08-20T14:16:53Z</time>
      </trkpt>
      <trkpt lat="-28.030515" lon="-65.831575">
        <ele>1085.0</ele>
        <time>2018-08-20T14:16:55Z</time>
      </trkpt>
      <trkpt lat="-28.030645" lon="-65.83153">
        <ele>1084.8</ele>
        <time>2018-08-20T14:16:57Z</time>
      </trkpt>
      <trkpt lat="-28.030775" lon="-65.831475">
        <ele>1085.0</ele>
        <time>2018-08-20T14:16:59Z</time>
      </trkpt>
      <trkpt lat="-28.03089" lon="-65.83141">
        <ele>1085.6</ele>
        <time>2018-08-20T14:17:01Z</time>
      </trkpt>
      <trkpt lat="-28.030965" lon="-65.83136">
        <ele>1086.0</ele>
        <time>2018-08-20T14:17:02Z</time>
      </trkpt>
      <trkpt lat="-28.031025" lon="-65.831305">
        <ele>1086.5</ele>
        <time>2018-08-20T14:17:03Z</time>
      </trkpt>
      <trkpt lat="-28.031085" lon="-65.83126">
        <ele>1086.7</ele>
        <time>2018-08-20T14:17:04Z</time>
      </trkpt>
      <trkpt lat="-28.0312" lon="-65.831175">
        <ele>1086.8</ele>
        <time>2018-08-20T14:17:06Z</time>
      </trkpt>
      <trkpt lat="-28.03126" lon="-65.83112">
        <ele>1086.8</ele>
        <time>2018-08-20T14:17:07Z</time>
      </trkpt>
      <trkpt lat="-28.03136" lon="-65.83101666666667">
        <ele>1086.6</ele>
        <time>2018-08-20T14:17:09Z</time>
      </trkpt>
      <trkpt lat="-28.031465" lon="-65.83092333333333">
        <ele>1086.1</ele>
        <time>2018-08-20T14:17:11Z</time>
      </trkpt>
      <trkpt lat="-28.03158" lon="-65.83083">
        <ele>1085.7</ele>
        <time>2018-08-20T14:17:13Z</time>
      </trkpt>
      <trkpt lat="-28.031691666666667" lon="-65.83074166666667">
        <ele>1085.5</ele>
        <time>2018-08-20T14:17:15Z</time>
      </trkpt>
      <trkpt lat="-28.03182" lon="-65.830675">
        <ele>1085.1</ele>
        <time>2018-08-20T14:17:17Z</time>
      </trkpt>
      <trkpt lat="-28.03195" lon="-65.83061166666667">
        <ele>1084.8</ele>
        <time>2018-08-20T14:17:19Z</time>
      </trkpt>
      <trkpt lat="-28.03207" lon="-65.830565">
        <ele>1084.6</ele>
        <time>2018-08-20T14:17:21Z</time>
      </trkpt>
      <trkpt lat="-28.0322" lon="-65.83052">
        <ele>1084.0</ele>
        <time>2018-08-20T14:17:23Z</time>
      </trkpt>
      <trkpt lat="-28.032335" lon="-65.830465">
        <ele>1083.8</ele>
        <time>2018-08-20T14:17:25Z</time>
      </trkpt>
      <trkpt lat="-28.032465" lon="-65.83042">
        <ele>1083.4</ele>
        <time>2018-08-20T14:17:27Z</time>
      </trkpt>
      <trkpt lat="-28.032595" lon="-65.83037">
        <ele>1083.0</ele>
        <time>2018-08-20T14:17:29Z</time>
      </trkpt>
      <trkpt lat="-28.032725" lon="-65.83032">
        <ele>1082.8</ele>
        <time>2018-08-20T14:17:31Z</time>
      </trkpt>
      <trkpt lat="-28.032855" lon="-65.830265">
        <ele>1082.6</ele>
        <time>2018-08-20T14:17:33Z</time>
      </trkpt>
      <trkpt lat="-28.032985" lon="-65.83022">
        <ele>1082.2</ele>
        <time>2018-08-20T14:17:35Z</time>
      </trkpt>
      <trkpt lat="-28.03312" lon="-65.83016166666667">
        <ele>1082.1</ele>
        <time>2018-08-20T14:17:37Z</time>
      </trkpt>
      <trkpt lat="-28.033245" lon="-65.830115">
        <ele>1081.9</ele>
        <time>2018-08-20T14:17:39Z</time>
      </trkpt>
      <trkpt lat="-28.033385" lon="-65.83006">
        <ele>1081.7</ele>
        <time>2018-08-20T14:17:41Z</time>
      </trkpt>
      <trkpt lat="-28.03351" lon="-65.83001">
        <ele>1081.3</ele>
        <time>2018-08-20T14:17:43Z</time>
      </trkpt>
      <trkpt lat="-28.03358" lon="-65.82998166666667">
        <ele>1081.3</ele>
        <time>2018-08-20T14:17:44Z</time>
      </trkpt>
      <trkpt lat="-28.03371" lon="-65.82993">
        <ele>1081.1</ele>
        <time>2018-08-20T14:17:46Z</time>
      </trkpt>
      <trkpt lat="-28.03384" lon="-65.82989">
        <ele>1080.6</ele>
        <time>2018-08-20T14:17:48Z</time>
      </trkpt>
      <trkpt lat="-28.03397" lon="-65.829835">
        <ele>1080.2</ele>
        <time>2018-08-20T14:17:50Z</time>
      </trkpt>
      <trkpt lat="-28.034105" lon="-65.829785">
        <ele>1079.9</ele>
        <time>2018-08-20T14:17:52Z</time>
      </trkpt>
      <trkpt lat="-28.03424" lon="-65.82973">
        <ele>1079.7</ele>
        <time>2018-08-20T14:17:54Z</time>
      </trkpt>
      <trkpt lat="-28.034365" lon="-65.82967666666667">
        <ele>1079.4</ele>
        <time>2018-08-20T14:17:56Z</time>
      </trkpt>
      <trkpt lat="-28.034495" lon="-65.82962666666667">
        <ele>1079.0</ele>
        <time>2018-08-20T14:17:58Z</time>
      </trkpt>
      <trkpt lat="-28.03463" lon="-65.829575">
        <ele>1078.7</ele>
        <time>2018-08-20T14:18:00Z</time>
      </trkpt>
      <trkpt lat="-28.034765" lon="-65.829525">
        <ele>1078.4</ele>
        <time>2018-08-20T14:18:02Z</time>
      </trkpt>
      <trkpt lat="-28.0349" lon="-65.82948">
        <ele>1078.1</ele>
        <time>2018-08-20T14:18:04Z</time>
      </trkpt>
      <trkpt lat="-28.035026666666667" lon="-65.82942">
        <ele>1077.9</ele>
        <time>2018-08-20T14:18:06Z</time>
      </trkpt>
      <trkpt lat="-28.03517" lon="-65.829375">
        <ele>1077.8</ele>
        <time>2018-08-20T14:18:08Z</time>
      </trkpt>
      <trkpt lat="-28.0353" lon="-65.82931833333333">
        <ele>1077.5</ele>
        <time>2018-08-20T14:18:10Z</time>
      </trkpt>
      <trkpt lat="-28.03537" lon="-65.829295">
        <ele>1077.4</ele>
        <time>2018-08-20T14:18:11Z</time>
      </trkpt>
      <trkpt lat="-28.03544" lon="-65.829265">
        <ele>1077.4</ele>
        <time>2018-08-20T14:18:12Z</time>
      </trkpt>
      <trkpt lat="-28.03551" lon="-65.82924">
        <ele>1077.5</ele>
        <time>2018-08-20T14:18:13Z</time>
      </trkpt>
      <trkpt lat="-28.03558" lon="-65.82921">
        <ele>1077.6</ele>
        <time>2018-08-20T14:18:14Z</time>
      </trkpt>
      <trkpt lat="-28.03565" lon="-65.82917">
        <ele>1077.6</ele>
        <time>2018-08-20T14:18:15Z</time>
      </trkpt>
      <trkpt lat="-28.035716666666666" lon="-65.82913333333333">
        <ele>1077.5</ele>
        <time>2018-08-20T14:18:16Z</time>
      </trkpt>
      <trkpt lat="-28.035786666666667" lon="-65.82909333333333">
        <ele>1077.4</ele>
        <time>2018-08-20T14:18:17Z</time>
      </trkpt>
      <trkpt lat="-28.03586" lon="-65.829055">
        <ele>1077.3</ele>
        <time>2018-08-20T14:18:18Z</time>
      </trkpt>
      <trkpt lat="-28.035935" lon="-65.82899666666667">
        <ele>1077.0</ele>
        <time>2018-08-20T14:18:19Z</time>
      </trkpt>
      <trkpt lat="-28.03601" lon="-65.828945">
        <ele>1076.9</ele>
        <time>2018-08-20T14:18:20Z</time>
      </trkpt>
      <trkpt lat="-28.036085" lon="-65.82887666666667">
        <ele>1076.7</ele>
        <time>2018-08-20T14:18:21Z</time>
      </trkpt>
      <trkpt lat="-28.036155" lon="-65.82881166666667">
        <ele>1076.5</ele>
        <time>2018-08-20T14:18:22Z</time>
      </trkpt>
      <trkpt lat="-28.03623" lon="-65.828735">
        <ele>1076.6</ele>
        <time>2018-08-20T14:18:23Z</time>
      </trkpt>
      <trkpt lat="-28.036305" lon="-65.82866">
        <ele>1077.0</ele>
        <time>2018-08-20T14:18:24Z</time>
      </trkpt>
      <trkpt lat="-28.03637" lon="-65.828575">
        <ele>1077.1</ele>
        <time>2018-08-20T14:18:25Z</time>
      </trkpt>
      <trkpt lat="-28.03644" lon="-65.82849">
        <ele>1077.1</ele>
        <time>2018-08-20T14:18:26Z</time>
      </trkpt>
      <trkpt lat="-28.036505" lon="-65.828395">
        <ele>1077.2</ele>
        <time>2018-08-20T14:18:27Z</time>
      </trkpt>
      <trkpt lat="-28.036565" lon="-65.828295">
        <ele>1076.8</ele>
        <time>2018-08-20T14:18:28Z</time>
      </trkpt>
      <trkpt lat="-28.036616666666667" lon="-65.82819333333333">
        <ele>1076.3</ele>
        <time>2018-08-20T14:18:29Z</time>
      </trkpt>
      <trkpt lat="-28.036685" lon="-65.82809">
        <ele>1075.6</ele>
        <time>2018-08-20T14:18:30Z</time>
      </trkpt>
      <trkpt lat="-28.036755" lon="-65.827985">
        <ele>1075.0</ele>
        <time>2018-08-20T14:18:31Z</time>
      </trkpt>
      <trkpt lat="-28.03682" lon="-65.827875">
        <ele>1074.3</ele>
        <time>2018-08-20T14:18:32Z</time>
      </trkpt>
      <trkpt lat="-28.03688" lon="-65.82777">
        <ele>1073.6</ele>
        <time>2018-08-20T14:18:33Z</time>
      </trkpt>
      <trkpt lat="-28.036945" lon="-65.82766">
        <ele>1072.8</ele>
        <time>2018-08-20T14:18:34Z</time>
      </trkpt>
      <trkpt lat="-28.03701" lon="-65.827555">
        <ele>1072.0</ele>
        <time>2018-08-20T14:18:35Z</time>
      </trkpt>
      <trkpt lat="-28.037073333333332" lon="-65.82743833333333">
        <ele>1071.4</ele>
        <time>2018-08-20T14:18:36Z</time>
      </trkpt>
      <trkpt lat="-28.03714" lon="-65.82733">
        <ele>1071.0</ele>
        <time>2018-08-20T14:18:37Z</time>
      </trkpt>
      <trkpt lat="-28.037205" lon="-65.827225">
        <ele>1071.0</ele>
        <time>2018-08-20T14:18:38Z</time>
      </trkpt>
      <trkpt lat="-28.037261666666666" lon="-65.82712166666667">
        <ele>1070.7</ele>
        <time>2018-08-20T14:18:39Z</time>
      </trkpt>
      <trkpt lat="-28.037325" lon="-65.82702666666667">
        <ele>1070.3</ele>
        <time>2018-08-20T14:18:40Z</time>
      </trkpt>
      <trkpt lat="-28.03739" lon="-65.826925">
        <ele>1069.7</ele>
        <time>2018-08-20T14:18:41Z</time>
      </trkpt>
      <trkpt lat="-28.03746" lon="-65.82680333333333">
        <ele>1069.7</ele>
        <time>2018-08-20T14:18:42Z</time>
      </trkpt>
      <trkpt lat="-28.037525" lon="-65.82669">
        <ele>1069.5</ele>
        <time>2018-08-20T14:18:43Z</time>
      </trkpt>
      <trkpt lat="-28.037595" lon="-65.82658">
        <ele>1069.2</ele>
        <time>2018-08-20T14:18:44Z</time>
      </trkpt>
      <trkpt lat="-28.03765" lon="-65.826485">
        <ele>1068.7</ele>
        <time>2018-08-20T14:18:45Z</time>
      </trkpt>
      <trkpt lat="-28.037715" lon="-65.82638">
        <ele>1068.5</ele>
        <time>2018-08-20T14:18:46Z</time>
      </trkpt>
      <trkpt lat="-28.03778" lon="-65.826285">
        <ele>1067.9</ele>
        <time>2018-08-20T14:18:47Z</time>
      </trkpt>
      <trkpt lat="-28.03784" lon="-65.826185">
        <ele>1067.3</ele>
        <time>2018-08-20T14:18:48Z</time>
      </trkpt>
      <trkpt lat="-28.037895" lon="-65.8261">
        <ele>1067.0</ele>
        <time>2018-08-20T14:18:49Z</time>
      </trkpt>
      <trkpt lat="-28.037955" lon="-65.825995">
        <ele>1066.7</ele>
        <time>2018-08-20T14:18:50Z</time>
      </trkpt>
      <trkpt lat="-28.03802" lon="-65.825895">
        <ele>1066.4</ele>
        <time>2018-08-20T14:18:51Z</time>
      </trkpt>
      <trkpt lat="-28.038085" lon="-65.825805">
        <ele>1066.1</ele>
        <time>2018-08-20T14:18:52Z</time>
      </trkpt>
      <trkpt lat="-28.03815" lon="-65.82570666666666">
        <ele>1065.8</ele>
        <time>2018-08-20T14:18:53Z</time>
      </trkpt>
      <trkpt lat="-28.03821" lon="-65.825615">
        <ele>1065.5</ele>
        <time>2018-08-20T14:18:54Z</time>
      </trkpt>
      <trkpt lat="-28.038275" lon="-65.82552">
        <ele>1065.1</ele>
        <time>2018-08-20T14:18:55Z</time>
      </trkpt>
      <trkpt lat="-28.038335" lon="-65.82542166666667">
        <ele>1064.7</ele>
        <time>2018-08-20T14:18:56Z</time>
      </trkpt>
      <trkpt lat="-28.03839" lon="-65.82534">
        <ele>1064.2</ele>
        <time>2018-08-20T14:18:57Z</time>
      </trkpt>
      <trkpt lat="-28.038445" lon="-65.82524666666667">
        <ele>1063.6</ele>
        <time>2018-08-20T14:18:58Z</time>
      </trkpt>
      <trkpt lat="-28.038495" lon="-65.82517">
        <ele>1063.3</ele>
        <time>2018-08-20T14:18:59Z</time>
      </trkpt>
      <trkpt lat="-28.03855" lon="-65.825085">
        <ele>1063.0</ele>
        <time>2018-08-20T14:19:00Z</time>
      </trkpt>
      <trkpt lat="-28.038591666666665" lon="-65.825005">
        <ele>1062.7</ele>
        <time>2018-08-20T14:19:01Z</time>
      </trkpt>
      <trkpt lat="-28.038645" lon="-65.82492">
        <ele>1062.5</ele>
        <time>2018-08-20T14:19:02Z</time>
      </trkpt>
      <trkpt lat="-28.03869" lon="-65.82483">
        <ele>1062.3</ele>
        <time>2018-08-20T14:19:03Z</time>
      </trkpt>
      <trkpt lat="-28.03873" lon="-65.82474666666667">
        <ele>1061.9</ele>
        <time>2018-08-20T14:19:04Z</time>
      </trkpt>
      <trkpt lat="-28.038765" lon="-65.82466166666667">
        <ele>1061.6</ele>
        <time>2018-08-20T14:19:05Z</time>
      </trkpt>
      <trkpt lat="-28.0388" lon="-65.82456833333333">
        <ele>1061.3</ele>
        <time>2018-08-20T14:19:06Z</time>
      </trkpt>
      <trkpt lat="-28.038815" lon="-65.82447">
        <ele>1061.1</ele>
        <time>2018-08-20T14:19:07Z</time>
      </trkpt>
      <trkpt lat="-28.038825" lon="-65.824375">
        <ele>1061.4</ele>
        <time>2018-08-20T14:19:08Z</time>
      </trkpt>
      <trkpt lat="-28.038825" lon="-65.82427">
        <ele>1061.8</ele>
        <time>2018-08-20T14:19:09Z</time>
      </trkpt>
      <trkpt lat="-28.038825" lon="-65.824175">
        <ele>1062.4</ele>
        <time>2018-08-20T14:19:10Z</time>
      </trkpt>
      <trkpt lat="-28.038825" lon="-65.824085">
        <ele>1062.9</ele>
        <time>2018-08-20T14:19:11Z</time>
      </trkpt>
      <trkpt lat="-28.038815" lon="-65.82399">
        <ele>1063.5</ele>
        <time>2018-08-20T14:19:12Z</time>
      </trkpt>
      <trkpt lat="-28.03879" lon="-65.82384">
        <ele>1065.0</ele>
        <time>2018-08-20T14:19:14Z</time>
      </trkpt>
      <trkpt lat="-28.03875" lon="-65.82371666666667">
        <ele>1066.6</ele>
        <time>2018-08-20T14:19:16Z</time>
      </trkpt>
      <trkpt lat="-28.038715" lon="-65.823625">
        <ele>1067.3</ele>
        <time>2018-08-20T14:19:18Z</time>
      </trkpt>
      <trkpt lat="-28.03867" lon="-65.82353">
        <ele>1067.4</ele>
        <time>2018-08-20T14:19:21Z</time>
      </trkpt>
      <trkpt lat="-28.038625" lon="-65.82344666666667">
        <ele>1067.6</ele>
        <time>2018-08-20T14:19:25Z</time>
      </trkpt>
      <trkpt lat="-28.038585" lon="-65.82337">
        <ele>1067.5</ele>
        <time>2018-08-20T14:19:30Z</time>
      </trkpt>
      <trkpt lat="-28.03855" lon="-65.823295">
        <ele>1067.5</ele>
        <time>2018-08-20T14:19:34Z</time>
      </trkpt>
      <trkpt lat="-28.03851" lon="-65.8232">
        <ele>1067.3</ele>
        <time>2018-08-20T14:19:39Z</time>
      </trkpt>
      <trkpt lat="-28.03847" lon="-65.823115">
        <ele>1067.2</ele>
        <time>2018-08-20T14:19:43Z</time>
      </trkpt>
      <trkpt lat="-28.038435" lon="-65.823035">
        <ele>1067.2</ele>
        <time>2018-08-20T14:19:46Z</time>
      </trkpt>
      <trkpt lat="-28.0384" lon="-65.822965">
        <ele>1067.2</ele>
        <time>2018-08-20T14:19:50Z</time>
      </trkpt>
      <trkpt lat="-28.03836" lon="-65.82289">
        <ele>1066.1</ele>
        <time>2018-08-20T14:19:57Z</time>
      </trkpt>
      <trkpt lat="-28.038335" lon="-65.82281166666667">
        <ele>1065.5</ele>
        <time>2018-08-20T14:20:00Z</time>
      </trkpt>
      <trkpt lat="-28.0383" lon="-65.822725">
        <ele>1065.1</ele>
        <time>2018-08-20T14:20:03Z</time>
      </trkpt>
      <trkpt lat="-28.038265" lon="-65.82264">
        <ele>1064.9</ele>
        <time>2018-08-20T14:20:06Z</time>
      </trkpt>
      <trkpt lat="-28.038245" lon="-65.822545">
        <ele>1064.8</ele>
        <time>2018-08-20T14:20:09Z</time>
      </trkpt>
      <trkpt lat="-28.03822" lon="-65.82245">
        <ele>1064.7</ele>
        <time>2018-08-20T14:20:12Z</time>
      </trkpt>
      <trkpt lat="-28.0382" lon="-65.82234">
        <ele>1064.6</ele>
        <time>2018-08-20T14:20:15Z</time>
      </trkpt>
      <trkpt lat="-28.03817" lon="-65.822235">
        <ele>1064.4</ele>
        <time>2018-08-20T14:20:19Z</time>
      </trkpt>
      <trkpt lat="-28.038145" lon="-65.82214666666667">
        <ele>1064.2</ele>
        <time>2018-08-20T14:20:23Z</time>
      </trkpt>
      <trkpt lat="-28.03813" lon="-65.82206333333333">
        <ele>1064.0</ele>
        <time>2018-08-20T14:20:27Z</time>
      </trkpt>
      <trkpt lat="-28.038115" lon="-65.82199">
        <ele>1063.9</ele>
        <time>2018-08-20T14:20:31Z</time>
      </trkpt>
      <trkpt lat="-28.038095" lon="-65.82188">
        <ele>1064.0</ele>
        <time>2018-08-20T14:20:36Z</time>
      </trkpt>
      <trkpt lat="-28.038085" lon="-65.82179166666667">
        <ele>1064.4</ele>
        <time>2018-08-20T14:20:41Z</time>
      </trkpt>
      <trkpt lat="-28.038075" lon="-65.82171">
        <ele>1064.6</ele>
        <time>2018-08-20T14:20:45Z</time>
      </trkpt>
      <trkpt lat="-28.038065" lon="-65.821635">
        <ele>1064.8</ele>
        <time>2018-08-20T14:20:49Z</time>
      </trkpt>
      <trkpt lat="-28.038065" lon="-65.82155">
        <ele>1065.0</ele>
        <time>2018-08-20T14:20:53Z</time>
      </trkpt>
      <trkpt lat="-28.038065" lon="-65.821465">
        <ele>1065.2</ele>
        <time>2018-08-20T14:20:57Z</time>
      </trkpt>
      <trkpt lat="-28.038056666666666" lon="-65.82137666666667">
        <ele>1065.5</ele>
        <time>2018-08-20T14:21:01Z</time>
      </trkpt>
      <trkpt lat="-28.038065" lon="-65.821285">
        <ele>1066.0</ele>
        <time>2018-08-20T14:21:06Z</time>
      </trkpt>
      <trkpt lat="-28.038066666666666" lon="-65.821185">
        <ele>1066.3</ele>
        <time>2018-08-20T14:21:11Z</time>
      </trkpt>
      <trkpt lat="-28.038085" lon="-65.82109">
        <ele>1066.7</ele>
        <time>2018-08-20T14:21:16Z</time>
      </trkpt>
      <trkpt lat="-28.038095" lon="-65.820995">
        <ele>1066.9</ele>
        <time>2018-08-20T14:21:21Z</time>
      </trkpt>
      <trkpt lat="-28.03811" lon="-65.82091">
        <ele>1067.2</ele>
        <time>2018-08-20T14:21:26Z</time>
      </trkpt>
      <trkpt lat="-28.038125" lon="-65.82081">
        <ele>1067.3</ele>
        <time>2018-08-20T14:21:30Z</time>
      </trkpt>
      <trkpt lat="-28.038135" lon="-65.820715">
        <ele>1067.7</ele>
        <time>2018-08-20T14:21:34Z</time>
      </trkpt>
      <trkpt lat="-28.03816" lon="-65.82062833333333">
        <ele>1068.0</ele>
        <time>2018-08-20T14:21:39Z</time>
      </trkpt>
      <trkpt lat="-28.03817" lon="-65.82054">
        <ele>1068.2</ele>
        <time>2018-08-20T14:21:43Z</time>
      </trkpt>
      <trkpt lat="-28.038195" lon="-65.820445">
        <ele>1068.6</ele>
        <time>2018-08-20T14:21:47Z</time>
      </trkpt>
      <trkpt lat="-28.03821" lon="-65.820355">
        <ele>1069.3</ele>
        <time>2018-08-20T14:21:52Z</time>
      </trkpt>
      <trkpt lat="-28.038235" lon="-65.82027166666667">
        <ele>1069.7</ele>
        <time>2018-08-20T14:21:57Z</time>
      </trkpt>
      <trkpt lat="-28.03827" lon="-65.82019">
        <ele>1069.7</ele>
        <time>2018-08-20T14:22:02Z</time>
      </trkpt>
      <trkpt lat="-28.0383" lon="-65.82010666666666">
        <ele>1069.7</ele>
        <time>2018-08-20T14:22:06Z</time>
      </trkpt>
      <trkpt lat="-28.038325" lon="-65.82003">
        <ele>1069.8</ele>
        <time>2018-08-20T14:22:10Z</time>
      </trkpt>
      <trkpt lat="-28.03836" lon="-65.819935">
        <ele>1070.0</ele>
        <time>2018-08-20T14:22:14Z</time>
      </trkpt>
      <trkpt lat="-28.0384" lon="-65.819855">
        <ele>1070.0</ele>
        <time>2018-08-20T14:22:19Z</time>
      </trkpt>
      <trkpt lat="-28.038445" lon="-65.81977">
        <ele>1070.0</ele>
        <time>2018-08-20T14:22:24Z</time>
      </trkpt>
      <trkpt lat="-28.03848" lon="-65.819685">
        <ele>1070.1</ele>
        <time>2018-08-20T14:22:29Z</time>
      </trkpt>
      <trkpt lat="-28.038515" lon="-65.81959666666667">
        <ele>1070.1</ele>
        <time>2018-08-20T14:22:34Z</time>
      </trkpt>
      <trkpt lat="-28.038565" lon="-65.819515">
        <ele>1070.1</ele>
        <time>2018-08-20T14:22:39Z</time>
      </trkpt>
      <trkpt lat="-28.03861" lon="-65.819445">
        <ele>1070.2</ele>
        <time>2018-08-20T14:22:44Z</time>
      </trkpt>
      <trkpt lat="-28.038665" lon="-65.819365">
        <ele>1070.4</ele>
        <time>2018-08-20T14:22:49Z</time>
      </trkpt>
      <trkpt lat="-28.038705" lon="-65.8193">
        <ele>1070.7</ele>
        <time>2018-08-20T14:22:53Z</time>
      </trkpt>
      <trkpt lat="-28.03875" lon="-65.81922666666667">
        <ele>1071.3</ele>
        <time>2018-08-20T14:22:57Z</time>
      </trkpt>
      <trkpt lat="-28.038795" lon="-65.81916">
        <ele>1071.6</ele>
        <time>2018-08-20T14:23:02Z</time>
      </trkpt>
      <trkpt lat="-28.038845" lon="-65.819095">
        <ele>1071.8</ele>
        <time>2018-08-20T14:23:06Z</time>
      </trkpt>
      <trkpt lat="-28.038895" lon="-65.819035">
        <ele>1072.0</ele>
        <time>2018-08-20T14:23:10Z</time>
      </trkpt>
      <trkpt lat="-28.038945" lon="-65.81897">
        <ele>1072.1</ele>
        <time>2018-08-20T14:23:14Z</time>
      </trkpt>
      <trkpt lat="-28.038995" lon="-65.818915">
        <ele>1072.4</ele>
        <time>2018-08-20T14:23:18Z</time>
      </trkpt>
      <trkpt lat="-28.03905" lon="-65.818855">
        <ele>1072.6</ele>
        <time>2018-08-20T14:23:22Z</time>
      </trkpt>
      <trkpt lat="-28.03911" lon="-65.81879">
        <ele>1073.0</ele>
        <time>2018-08-20T14:23:26Z</time>
      </trkpt>
      <trkpt lat="-28.03918" lon="-65.818745">
        <ele>1073.3</ele>
        <time>2018-08-20T14:23:31Z</time>
      </trkpt>
      <trkpt lat="-28.03925" lon="-65.81867">
        <ele>1073.6</ele>
        <time>2018-08-20T14:23:36Z</time>
      </trkpt>
      <trkpt lat="-28.0393" lon="-65.81861666666667">
        <ele>1073.9</ele>
        <time>2018-08-20T14:23:40Z</time>
      </trkpt>
      <trkpt lat="-28.039365" lon="-65.81856">
        <ele>1074.2</ele>
        <time>2018-08-20T14:23:45Z</time>
      </trkpt>
      <trkpt lat="-28.039421666666666" lon="-65.81851">
        <ele>1074.3</ele>
        <time>2018-08-20T14:23:49Z</time>
      </trkpt>
      <trkpt lat="-28.039485" lon="-65.818455">
        <ele>1074.5</ele>
        <time>2018-08-20T14:23:53Z</time>
      </trkpt>
      <trkpt lat="-28.03955" lon="-65.818415">
        <ele>1074.7</ele>
        <time>2018-08-20T14:23:57Z</time>
      </trkpt>
      <trkpt lat="-28.03963" lon="-65.81837">
        <ele>1074.9</ele>
        <time>2018-08-20T14:24:01Z</time>
      </trkpt>
      <trkpt lat="-28.0397" lon="-65.81833">
        <ele>1075.2</ele>
        <time>2018-08-20T14:24:05Z</time>
      </trkpt>
      <trkpt lat="-28.03978" lon="-65.818285">
        <ele>1075.4</ele>
        <time>2018-08-20T14:24:09Z</time>
      </trkpt>
      <trkpt lat="-28.039855" lon="-65.81824">
        <ele>1075.7</ele>
        <time>2018-08-20T14:24:13Z</time>
      </trkpt>
      <trkpt lat="-28.039925" lon="-65.8182">
        <ele>1076.0</ele>
        <time>2018-08-20T14:24:17Z</time>
      </trkpt>
      <trkpt lat="-28.039993333333335" lon="-65.818155">
        <ele>1076.1</ele>
        <time>2018-08-20T14:24:21Z</time>
      </trkpt>
      <trkpt lat="-28.040071666666666" lon="-65.81811166666667">
        <ele>1076.1</ele>
        <time>2018-08-20T14:24:25Z</time>
      </trkpt>
      <trkpt lat="-28.04014" lon="-65.81808">
        <ele>1076.2</ele>
        <time>2018-08-20T14:24:28Z</time>
      </trkpt>
      <trkpt lat="-28.040215" lon="-65.81806">
        <ele>1076.4</ele>
        <time>2018-08-20T14:24:31Z</time>
      </trkpt>
      <trkpt lat="-28.040305" lon="-65.818025">
        <ele>1076.6</ele>
        <time>2018-08-20T14:24:35Z</time>
      </trkpt>
      <trkpt lat="-28.04039" lon="-65.81797833333333">
        <ele>1076.8</ele>
        <time>2018-08-20T14:24:39Z</time>
      </trkpt>
      <trkpt lat="-28.04047" lon="-65.817955">
        <ele>1077.0</ele>
        <time>2018-08-20T14:24:42Z</time>
      </trkpt>
      <trkpt lat="-28.040555" lon="-65.81793">
        <ele>1077.3</ele>
        <time>2018-08-20T14:24:45Z</time>
      </trkpt>
      <trkpt lat="-28.04063" lon="-65.8179">
        <ele>1077.5</ele>
        <time>2018-08-20T14:24:48Z</time>
      </trkpt>
      <trkpt lat="-28.040705" lon="-65.81788">
        <ele>1077.6</ele>
        <time>2018-08-20T14:24:51Z</time>
      </trkpt>
      <trkpt lat="-28.040785" lon="-65.817845">
        <ele>1077.8</ele>
        <time>2018-08-20T14:24:54Z</time>
      </trkpt>
      <trkpt lat="-28.040866666666666" lon="-65.81781666666667">
        <ele>1078.0</ele>
        <time>2018-08-20T14:24:57Z</time>
      </trkpt>
      <trkpt lat="-28.040965" lon="-65.817795">
        <ele>1078.1</ele>
        <time>2018-08-20T14:25:00Z</time>
      </trkpt>
      <trkpt lat="-28.041045" lon="-65.81776">
        <ele>1078.3</ele>
        <time>2018-08-20T14:25:03Z</time>
      </trkpt>
      <trkpt lat="-28.041126666666667" lon="-65.817735">
        <ele>1078.5</ele>
        <time>2018-08-20T14:25:06Z</time>
      </trkpt>
      <trkpt lat="-28.041225" lon="-65.817705">
        <ele>1078.7</ele>
        <time>2018-08-20T14:25:09Z</time>
      </trkpt>
      <trkpt lat="-28.041315" lon="-65.81767">
        <ele>1078.9</ele>
        <time>2018-08-20T14:25:12Z</time>
      </trkpt>
      <trkpt lat="-28.04141" lon="-65.817645">
        <ele>1079.2</ele>
        <time>2018-08-20T14:25:15Z</time>
      </trkpt>
      <trkpt lat="-28.041505" lon="-65.81761">
        <ele>1079.3</ele>
        <time>2018-08-20T14:25:18Z</time>
      </trkpt>
      <trkpt lat="-28.041605" lon="-65.817575">
        <ele>1079.4</ele>
        <time>2018-08-20T14:25:21Z</time>
      </trkpt>
      <trkpt lat="-28.041695" lon="-65.81754166666667">
        <ele>1079.6</ele>
        <time>2018-08-20T14:25:24Z</time>
      </trkpt>
      <trkpt lat="-28.04179" lon="-65.817515">
        <ele>1079.8</ele>
        <time>2018-08-20T14:25:27Z</time>
      </trkpt>
      <trkpt lat="-28.041875" lon="-65.81748">
        <ele>1080.0</ele>
        <time>2018-08-20T14:25:30Z</time>
      </trkpt>
      <trkpt lat="-28.041945" lon="-65.81746">
        <ele>1080.2</ele>
        <time>2018-08-20T14:25:32Z</time>
      </trkpt>
      <trkpt lat="-28.042035" lon="-65.81743">
        <ele>1080.3</ele>
        <time>2018-08-20T14:25:35Z</time>
      </trkpt>
      <trkpt lat="-28.04213" lon="-65.817395">
        <ele>1080.5</ele>
        <time>2018-08-20T14:25:38Z</time>
      </trkpt>
      <trkpt lat="-28.042215" lon="-65.81736166666667">
        <ele>1080.7</ele>
        <time>2018-08-20T14:25:41Z</time>
      </trkpt>
      <trkpt lat="-28.042315" lon="-65.81733">
        <ele>1080.8</ele>
        <time>2018-08-20T14:25:44Z</time>
      </trkpt>
      <trkpt lat="-28.042415" lon="-65.81729">
        <ele>1080.9</ele>
        <time>2018-08-20T14:25:47Z</time>
      </trkpt>
      <trkpt lat="-28.04251" lon="-65.817265">
        <ele>1081.0</ele>
        <time>2018-08-20T14:25:50Z</time>
      </trkpt>
      <trkpt lat="-28.0426" lon="-65.817235">
        <ele>1081.1</ele>
        <time>2018-08-20T14:25:53Z</time>
      </trkpt>
      <trkpt lat="-28.04268" lon="-65.817195">
        <ele>1081.2</ele>
        <time>2018-08-20T14:25:56Z</time>
      </trkpt>
      <trkpt lat="-28.042785" lon="-65.817165">
        <ele>1081.2</ele>
        <time>2018-08-20T14:25:59Z</time>
      </trkpt>
      <trkpt lat="-28.042855" lon="-65.81713833333333">
        <ele>1081.3</ele>
        <time>2018-08-20T14:26:01Z</time>
      </trkpt>
      <trkpt lat="-28.042946666666666" lon="-65.817115">
        <ele>1081.5</ele>
        <time>2018-08-20T14:26:04Z</time>
      </trkpt>
      <trkpt lat="-28.043055" lon="-65.817085">
        <ele>1081.8</ele>
        <time>2018-08-20T14:26:07Z</time>
      </trkpt>
      <trkpt lat="-28.043125" lon="-65.817055">
        <ele>1081.9</ele>
        <time>2018-08-20T14:26:09Z</time>
      </trkpt>
      <trkpt lat="-28.043195" lon="-65.81703">
        <ele>1082.1</ele>
        <time>2018-08-20T14:26:11Z</time>
      </trkpt>
      <trkpt lat="-28.043286666666667" lon="-65.81699333333333">
        <ele>1082.2</ele>
        <time>2018-08-20T14:26:14Z</time>
      </trkpt>
      <trkpt lat="-28.04339" lon="-65.81695166666667">
        <ele>1082.4</ele>
        <time>2018-08-20T14:26:18Z</time>
      </trkpt>
      <trkpt lat="-28.043455" lon="-65.816925">
        <ele>1082.7</ele>
        <time>2018-08-20T14:26:20Z</time>
      </trkpt>
      <trkpt lat="-28.043545" lon="-65.81689">
        <ele>1082.9</ele>
        <time>2018-08-20T14:26:23Z</time>
      </trkpt>
      <trkpt lat="-28.043631666666666" lon="-65.81686">
        <ele>1083.1</ele>
        <time>2018-08-20T14:26:26Z</time>
      </trkpt>
      <trkpt lat="-28.043701666666667" lon="-65.81683">
        <ele>1083.3</ele>
        <time>2018-08-20T14:26:28Z</time>
      </trkpt>
      <trkpt lat="-28.043786666666666" lon="-65.816805">
        <ele>1083.5</ele>
        <time>2018-08-20T14:26:30Z</time>
      </trkpt>
      <trkpt lat="-28.04389" lon="-65.816755">
        <ele>1084.6</ele>
        <time>2018-08-20T14:26:33Z</time>
      </trkpt>
      <trkpt lat="-28.043985" lon="-65.81672166666667">
        <ele>1084.6</ele>
        <time>2018-08-20T14:26:36Z</time>
      </trkpt>
      <trkpt lat="-28.04408" lon="-65.8167">
        <ele>1084.7</ele>
        <time>2018-08-20T14:26:39Z</time>
      </trkpt>
      <trkpt lat="-28.044155" lon="-65.816675">
        <ele>1084.8</ele>
        <time>2018-08-20T14:26:41Z</time>
      </trkpt>
      <trkpt lat="-28.044225" lon="-65.816645">
        <ele>1084.8</ele>
        <time>2018-08-20T14:26:43Z</time>
      </trkpt>
      <trkpt lat="-28.04432" lon="-65.81660666666667">
        <ele>1085.2</ele>
        <time>2018-08-20T14:26:46Z</time>
      </trkpt>
      <trkpt lat="-28.04439" lon="-65.816585">
        <ele>1085.2</ele>
        <time>2018-08-20T14:26:48Z</time>
      </trkpt>
      <trkpt lat="-28.04446" lon="-65.81655333333333">
        <ele>1085.4</ele>
        <time>2018-08-20T14:26:50Z</time>
      </trkpt>
      <trkpt lat="-28.044545" lon="-65.81653">
        <ele>1086.0</ele>
        <time>2018-08-20T14:26:52Z</time>
      </trkpt>
      <trkpt lat="-28.04463" lon="-65.81650833333333">
        <ele>1086.9</ele>
        <time>2018-08-20T14:26:54Z</time>
      </trkpt>
      <trkpt lat="-28.04471" lon="-65.81649">
        <ele>1087.3</ele>
        <time>2018-08-20T14:26:56Z</time>
      </trkpt>
      <trkpt lat="-28.04479" lon="-65.81645166666667">
        <ele>1087.0</ele>
        <time>2018-08-20T14:26:58Z</time>
      </trkpt>
      <trkpt lat="-28.044875" lon="-65.81641666666667">
        <ele>1086.6</ele>
        <time>2018-08-20T14:27:00Z</time>
      </trkpt>
      <trkpt lat="-28.044955" lon="-65.81639">
        <ele>1085.3</ele>
        <time>2018-08-20T14:27:02Z</time>
      </trkpt>
      <trkpt lat="-28.04503" lon="-65.816365">
        <ele>1084.7</ele>
        <time>2018-08-20T14:27:04Z</time>
      </trkpt>
      <trkpt lat="-28.045125" lon="-65.81632666666667">
        <ele>1084.5</ele>
        <time>2018-08-20T14:27:06Z</time>
      </trkpt>
      <trkpt lat="-28.045215" lon="-65.81629666666667">
        <ele>1084.7</ele>
        <time>2018-08-20T14:27:08Z</time>
      </trkpt>
      <trkpt lat="-28.045305" lon="-65.81627">
        <ele>1085.0</ele>
        <time>2018-08-20T14:27:10Z</time>
      </trkpt>
      <trkpt lat="-28.0454" lon="-65.81623833333333">
        <ele>1085.0</ele>
        <time>2018-08-20T14:27:12Z</time>
      </trkpt>
      <trkpt lat="-28.045496666666665" lon="-65.81621">
        <ele>1084.9</ele>
        <time>2018-08-20T14:27:14Z</time>
      </trkpt>
      <trkpt lat="-28.0456" lon="-65.816175">
        <ele>1084.9</ele>
        <time>2018-08-20T14:27:16Z</time>
      </trkpt>
      <trkpt lat="-28.0457" lon="-65.81614">
        <ele>1084.7</ele>
        <time>2018-08-20T14:27:18Z</time>
      </trkpt>
      <trkpt lat="-28.04581" lon="-65.8161">
        <ele>1084.1</ele>
        <time>2018-08-20T14:27:20Z</time>
      </trkpt>
      <trkpt lat="-28.04591" lon="-65.81605833333333">
        <ele>1083.1</ele>
        <time>2018-08-20T14:27:22Z</time>
      </trkpt>
      <trkpt lat="-28.046015" lon="-65.81601833333333">
        <ele>1082.2</ele>
        <time>2018-08-20T14:27:24Z</time>
      </trkpt>
      <trkpt lat="-28.04612" lon="-65.815985">
        <ele>1081.8</ele>
        <time>2018-08-20T14:27:26Z</time>
      </trkpt>
      <trkpt lat="-28.046225" lon="-65.81595">
        <ele>1082.1</ele>
        <time>2018-08-20T14:27:28Z</time>
      </trkpt>
      <trkpt lat="-28.04634" lon="-65.815915">
        <ele>1082.6</ele>
        <time>2018-08-20T14:27:30Z</time>
      </trkpt>
      <trkpt lat="-28.046465" lon="-65.815875">
        <ele>1083.1</ele>
        <time>2018-08-20T14:27:32Z</time>
      </trkpt>
      <trkpt lat="-28.046585" lon="-65.81583">
        <ele>1083.3</ele>
        <time>2018-08-20T14:27:34Z</time>
      </trkpt>
      <trkpt lat="-28.046705" lon="-65.81579">
        <ele>1083.3</ele>
        <time>2018-08-20T14:27:36Z</time>
      </trkpt>
      <trkpt lat="-28.04682" lon="-65.81576">
        <ele>1083.2</ele>
        <time>2018-08-20T14:27:38Z</time>
      </trkpt>
      <trkpt lat="-28.046945" lon="-65.815715">
        <ele>1083.1</ele>
        <time>2018-08-20T14:27:40Z</time>
      </trkpt>
      <trkpt lat="-28.04707" lon="-65.81567">
        <ele>1083.0</ele>
        <time>2018-08-20T14:27:42Z</time>
      </trkpt>
      <trkpt lat="-28.047191666666667" lon="-65.81561833333333">
        <ele>1082.7</ele>
        <time>2018-08-20T14:27:44Z</time>
      </trkpt>
      <trkpt lat="-28.047311666666666" lon="-65.815585">
        <ele>1082.2</ele>
        <time>2018-08-20T14:27:46Z</time>
      </trkpt>
      <trkpt lat="-28.04745" lon="-65.81554">
        <ele>1082.1</ele>
        <time>2018-08-20T14:27:48Z</time>
      </trkpt>
      <trkpt lat="-28.047585" lon="-65.81549">
        <ele>1081.9</ele>
        <time>2018-08-20T14:27:50Z</time>
      </trkpt>
      <trkpt lat="-28.04772" lon="-65.815445">
        <ele>1081.2</ele>
        <time>2018-08-20T14:27:52Z</time>
      </trkpt>
      <trkpt lat="-28.047795" lon="-65.81542">
        <ele>1080.9</ele>
        <time>2018-08-20T14:27:53Z</time>
      </trkpt>
      <trkpt lat="-28.04786" lon="-65.81538833333333">
        <ele>1080.6</ele>
        <time>2018-08-20T14:27:54Z</time>
      </trkpt>
      <trkpt lat="-28.04793" lon="-65.815365">
        <ele>1080.3</ele>
        <time>2018-08-20T14:27:55Z</time>
      </trkpt>
      <trkpt lat="-28.04806" lon="-65.81532">
        <ele>1080.1</ele>
        <time>2018-08-20T14:27:57Z</time>
      </trkpt>
      <trkpt lat="-28.048195" lon="-65.815275">
        <ele>1079.6</ele>
        <time>2018-08-20T14:27:59Z</time>
      </trkpt>
      <trkpt lat="-28.048333333333332" lon="-65.815225">
        <ele>1079.2</ele>
        <time>2018-08-20T14:28:01Z</time>
      </trkpt>
      <trkpt lat="-28.048401666666667" lon="-65.8152">
        <ele>1079.0</ele>
        <time>2018-08-20T14:28:02Z</time>
      </trkpt>
      <trkpt lat="-28.048478333333332" lon="-65.81518">
        <ele>1078.8</ele>
        <time>2018-08-20T14:28:03Z</time>
      </trkpt>
      <trkpt lat="-28.048555" lon="-65.815155">
        <ele>1078.7</ele>
        <time>2018-08-20T14:28:04Z</time>
      </trkpt>
      <trkpt lat="-28.048625" lon="-65.81512666666667">
        <ele>1078.5</ele>
        <time>2018-08-20T14:28:05Z</time>
      </trkpt>
      <trkpt lat="-28.048695" lon="-65.815105">
        <ele>1078.3</ele>
        <time>2018-08-20T14:28:06Z</time>
      </trkpt>
      <trkpt lat="-28.04877" lon="-65.81507666666667">
        <ele>1078.1</ele>
        <time>2018-08-20T14:28:07Z</time>
      </trkpt>
      <trkpt lat="-28.04884" lon="-65.815055">
        <ele>1077.7</ele>
        <time>2018-08-20T14:28:08Z</time>
      </trkpt>
      <trkpt lat="-28.04891" lon="-65.81502666666667">
        <ele>1077.3</ele>
        <time>2018-08-20T14:28:09Z</time>
      </trkpt>
      <trkpt lat="-28.048985" lon="-65.815005">
        <ele>1077.0</ele>
        <time>2018-08-20T14:28:10Z</time>
      </trkpt>
      <trkpt lat="-28.049055" lon="-65.814975">
        <ele>1076.8</ele>
        <time>2018-08-20T14:28:11Z</time>
      </trkpt>
      <trkpt lat="-28.049126666666666" lon="-65.814955">
        <ele>1076.5</ele>
        <time>2018-08-20T14:28:12Z</time>
      </trkpt>
      <trkpt lat="-28.049198333333333" lon="-65.81493">
        <ele>1076.2</ele>
        <time>2018-08-20T14:28:13Z</time>
      </trkpt>
      <trkpt lat="-28.04928" lon="-65.81489666666667">
        <ele>1075.8</ele>
        <time>2018-08-20T14:28:14Z</time>
      </trkpt>
      <trkpt lat="-28.04935" lon="-65.81487">
        <ele>1075.7</ele>
        <time>2018-08-20T14:28:15Z</time>
      </trkpt>
      <trkpt lat="-28.049428333333335" lon="-65.814845">
        <ele>1075.5</ele>
        <time>2018-08-20T14:28:16Z</time>
      </trkpt>
      <trkpt lat="-28.049505" lon="-65.81481333333333">
        <ele>1075.4</ele>
        <time>2018-08-20T14:28:17Z</time>
      </trkpt>
      <trkpt lat="-28.049575" lon="-65.814795">
        <ele>1075.2</ele>
        <time>2018-08-20T14:28:18Z</time>
      </trkpt>
      <trkpt lat="-28.04965" lon="-65.814775">
        <ele>1075.1</ele>
        <time>2018-08-20T14:28:19Z</time>
      </trkpt>
      <trkpt lat="-28.049725" lon="-65.81475">
        <ele>1074.9</ele>
        <time>2018-08-20T14:28:20Z</time>
      </trkpt>
      <trkpt lat="-28.0498" lon="-65.81471666666667">
        <ele>1074.7</ele>
        <time>2018-08-20T14:28:21Z</time>
      </trkpt>
      <trkpt lat="-28.049875" lon="-65.814695">
        <ele>1074.5</ele>
        <time>2018-08-20T14:28:22Z</time>
      </trkpt>
      <trkpt lat="-28.04995" lon="-65.814665">
        <ele>1074.4</ele>
        <time>2018-08-20T14:28:23Z</time>
      </trkpt>
      <trkpt lat="-28.05003" lon="-65.814645">
        <ele>1074.2</ele>
        <time>2018-08-20T14:28:24Z</time>
      </trkpt>
      <trkpt lat="-28.050105" lon="-65.814615">
        <ele>1074.0</ele>
        <time>2018-08-20T14:28:25Z</time>
      </trkpt>
      <trkpt lat="-28.05018" lon="-65.81458666666667">
        <ele>1073.9</ele>
        <time>2018-08-20T14:28:26Z</time>
      </trkpt>
      <trkpt lat="-28.050255" lon="-65.81456">
        <ele>1073.7</ele>
        <time>2018-08-20T14:28:27Z</time>
      </trkpt>
      <trkpt lat="-28.050335" lon="-65.814535">
        <ele>1073.5</ele>
        <time>2018-08-20T14:28:28Z</time>
      </trkpt>
      <trkpt lat="-28.05047" lon="-65.81449">
        <ele>1073.3</ele>
        <time>2018-08-20T14:28:30Z</time>
      </trkpt>
      <trkpt lat="-28.0506" lon="-65.81444">
        <ele>1072.9</ele>
        <time>2018-08-20T14:28:32Z</time>
      </trkpt>
      <trkpt lat="-28.05073" lon="-65.81439666666667">
        <ele>1072.8</ele>
        <time>2018-08-20T14:28:34Z</time>
      </trkpt>
      <trkpt lat="-28.05085" lon="-65.814355">
        <ele>1072.4</ele>
        <time>2018-08-20T14:28:36Z</time>
      </trkpt>
      <trkpt lat="-28.050975" lon="-65.81431">
        <ele>1072.1</ele>
        <time>2018-08-20T14:28:38Z</time>
      </trkpt>
      <trkpt lat="-28.05105" lon="-65.81428">
        <ele>1072.0</ele>
        <time>2018-08-20T14:28:39Z</time>
      </trkpt>
      <trkpt lat="-28.05118" lon="-65.81424">
        <ele>1071.9</ele>
        <time>2018-08-20T14:28:41Z</time>
      </trkpt>
      <trkpt lat="-28.051305" lon="-65.814195">
        <ele>1071.9</ele>
        <time>2018-08-20T14:28:43Z</time>
      </trkpt>
      <trkpt lat="-28.051425" lon="-65.814155">
        <ele>1071.9</ele>
        <time>2018-08-20T14:28:45Z</time>
      </trkpt>
      <trkpt lat="-28.051555" lon="-65.81411">
        <ele>1071.6</ele>
        <time>2018-08-20T14:28:47Z</time>
      </trkpt>
      <trkpt lat="-28.05168" lon="-65.81407">
        <ele>1071.3</ele>
        <time>2018-08-20T14:28:49Z</time>
      </trkpt>
      <trkpt lat="-28.0518" lon="-65.814025">
        <ele>1071.0</ele>
        <time>2018-08-20T14:28:51Z</time>
      </trkpt>
      <trkpt lat="-28.05187" lon="-65.813995">
        <ele>1071.1</ele>
        <time>2018-08-20T14:28:52Z</time>
      </trkpt>
      <trkpt lat="-28.05199" lon="-65.81395166666667">
        <ele>1071.1</ele>
        <time>2018-08-20T14:28:54Z</time>
      </trkpt>
      <trkpt lat="-28.052105" lon="-65.81391">
        <ele>1070.5</ele>
        <time>2018-08-20T14:28:56Z</time>
      </trkpt>
      <trkpt lat="-28.052235" lon="-65.81386666666667">
        <ele>1070.3</ele>
        <time>2018-08-20T14:28:58Z</time>
      </trkpt>
      <trkpt lat="-28.052355" lon="-65.81382666666667">
        <ele>1069.8</ele>
        <time>2018-08-20T14:29:00Z</time>
      </trkpt>
      <trkpt lat="-28.052463333333332" lon="-65.81379">
        <ele>1069.1</ele>
        <time>2018-08-20T14:29:02Z</time>
      </trkpt>
      <trkpt lat="-28.05258" lon="-65.813745">
        <ele>1068.5</ele>
        <time>2018-08-20T14:29:04Z</time>
      </trkpt>
      <trkpt lat="-28.052695" lon="-65.81371">
        <ele>1068.2</ele>
        <time>2018-08-20T14:29:06Z</time>
      </trkpt>
      <trkpt lat="-28.052805" lon="-65.813675">
        <ele>1068.0</ele>
        <time>2018-08-20T14:29:08Z</time>
      </trkpt>
      <trkpt lat="-28.05292" lon="-65.813635">
        <ele>1067.8</ele>
        <time>2018-08-20T14:29:10Z</time>
      </trkpt>
      <trkpt lat="-28.05302" lon="-65.813595">
        <ele>1067.4</ele>
        <time>2018-08-20T14:29:12Z</time>
      </trkpt>
      <trkpt lat="-28.053125" lon="-65.81355666666667">
        <ele>1067.2</ele>
        <time>2018-08-20T14:29:14Z</time>
      </trkpt>
      <trkpt lat="-28.05323" lon="-65.81352">
        <ele>1067.1</ele>
        <time>2018-08-20T14:29:16Z</time>
      </trkpt>
      <trkpt lat="-28.053345" lon="-65.813485">
        <ele>1067.0</ele>
        <time>2018-08-20T14:29:18Z</time>
      </trkpt>
      <trkpt lat="-28.05346" lon="-65.81345">
        <ele>1067.0</ele>
        <time>2018-08-20T14:29:20Z</time>
      </trkpt>
      <trkpt lat="-28.053566666666665" lon="-65.81341">
        <ele>1066.9</ele>
        <time>2018-08-20T14:29:22Z</time>
      </trkpt>
      <trkpt lat="-28.053685" lon="-65.81337">
        <ele>1067.0</ele>
        <time>2018-08-20T14:29:24Z</time>
      </trkpt>
      <trkpt lat="-28.053791666666665" lon="-65.81333333333333">
        <ele>1067.1</ele>
        <time>2018-08-20T14:29:26Z</time>
      </trkpt>
      <trkpt lat="-28.053905" lon="-65.813295">
        <ele>1067.2</ele>
        <time>2018-08-20T14:29:28Z</time>
      </trkpt>
      <trkpt lat="-28.05401" lon="-65.813265">
        <ele>1067.3</ele>
        <time>2018-08-20T14:29:30Z</time>
      </trkpt>
      <trkpt lat="-28.05411" lon="-65.81323">
        <ele>1066.8</ele>
        <time>2018-08-20T14:29:32Z</time>
      </trkpt>
      <trkpt lat="-28.054225" lon="-65.813185">
        <ele>1066.5</ele>
        <time>2018-08-20T14:29:34Z</time>
      </trkpt>
      <trkpt lat="-28.054335" lon="-65.813145">
        <ele>1066.3</ele>
        <time>2018-08-20T14:29:36Z</time>
      </trkpt>
      <trkpt lat="-28.054433333333332" lon="-65.81311166666667">
        <ele>1065.9</ele>
        <time>2018-08-20T14:29:38Z</time>
      </trkpt>
      <trkpt lat="-28.05455" lon="-65.81306833333333">
        <ele>1065.7</ele>
        <time>2018-08-20T14:29:40Z</time>
      </trkpt>
      <trkpt lat="-28.054655" lon="-65.81304">
        <ele>1065.5</ele>
        <time>2018-08-20T14:29:42Z</time>
      </trkpt>
      <trkpt lat="-28.054765" lon="-65.813">
        <ele>1065.4</ele>
        <time>2018-08-20T14:29:44Z</time>
      </trkpt>
      <trkpt lat="-28.054875" lon="-65.81296">
        <ele>1065.3</ele>
        <time>2018-08-20T14:29:46Z</time>
      </trkpt>
      <trkpt lat="-28.05499" lon="-65.81292">
        <ele>1065.1</ele>
        <time>2018-08-20T14:29:48Z</time>
      </trkpt>
      <trkpt lat="-28.055105" lon="-65.81288">
        <ele>1065.0</ele>
        <time>2018-08-20T14:29:50Z</time>
      </trkpt>
      <trkpt lat="-28.05522" lon="-65.81283833333333">
        <ele>1064.6</ele>
        <time>2018-08-20T14:29:52Z</time>
      </trkpt>
      <trkpt lat="-28.05533" lon="-65.812805">
        <ele>1064.0</ele>
        <time>2018-08-20T14:29:54Z</time>
      </trkpt>
      <trkpt lat="-28.055445" lon="-65.81276">
        <ele>1063.3</ele>
        <time>2018-08-20T14:29:56Z</time>
      </trkpt>
      <trkpt lat="-28.05557" lon="-65.81272">
        <ele>1062.9</ele>
        <time>2018-08-20T14:29:58Z</time>
      </trkpt>
      <trkpt lat="-28.055695" lon="-65.812675">
        <ele>1063.0</ele>
        <time>2018-08-20T14:30:00Z</time>
      </trkpt>
      <trkpt lat="-28.055795" lon="-65.812645">
        <ele>1062.6</ele>
        <time>2018-08-20T14:30:02Z</time>
      </trkpt>
      <trkpt lat="-28.055915" lon="-65.8126">
        <ele>1062.3</ele>
        <time>2018-08-20T14:30:04Z</time>
      </trkpt>
      <trkpt lat="-28.05603" lon="-65.812565">
        <ele>1062.0</ele>
        <time>2018-08-20T14:30:06Z</time>
      </trkpt>
      <trkpt lat="-28.056141666666665" lon="-65.81251833333333">
        <ele>1061.5</ele>
        <time>2018-08-20T14:30:08Z</time>
      </trkpt>
      <trkpt lat="-28.05627" lon="-65.81247666666667">
        <ele>1061.1</ele>
        <time>2018-08-20T14:30:10Z</time>
      </trkpt>
      <trkpt lat="-28.056395" lon="-65.81243833333333">
        <ele>1060.9</ele>
        <time>2018-08-20T14:30:12Z</time>
      </trkpt>
      <trkpt lat="-28.056505" lon="-65.81239666666667">
        <ele>1060.6</ele>
        <time>2018-08-20T14:30:14Z</time>
      </trkpt>
      <trkpt lat="-28.056625" lon="-65.812355">
        <ele>1060.0</ele>
        <time>2018-08-20T14:30:16Z</time>
      </trkpt>
      <trkpt lat="-28.056755" lon="-65.81231">
        <ele>1059.8</ele>
        <time>2018-08-20T14:30:18Z</time>
      </trkpt>
      <trkpt lat="-28.056865" lon="-65.81228">
        <ele>1059.9</ele>
        <time>2018-08-20T14:30:20Z</time>
      </trkpt>
      <trkpt lat="-28.05698" lon="-65.812245">
        <ele>1060.0</ele>
        <time>2018-08-20T14:30:22Z</time>
      </trkpt>
      <trkpt lat="-28.0571" lon="-65.8122">
        <ele>1059.8</ele>
        <time>2018-08-20T14:30:24Z</time>
      </trkpt>
      <trkpt lat="-28.05722" lon="-65.81216">
        <ele>1059.8</ele>
        <time>2018-08-20T14:30:26Z</time>
      </trkpt>
      <trkpt lat="-28.05733" lon="-65.812115">
        <ele>1059.7</ele>
        <time>2018-08-20T14:30:28Z</time>
      </trkpt>
      <trkpt lat="-28.05744" lon="-65.812075">
        <ele>1058.9</ele>
        <time>2018-08-20T14:30:30Z</time>
      </trkpt>
      <trkpt lat="-28.057565" lon="-65.81202833333333">
        <ele>1058.4</ele>
        <time>2018-08-20T14:30:32Z</time>
      </trkpt>
      <trkpt lat="-28.057675" lon="-65.81199">
        <ele>1057.9</ele>
        <time>2018-08-20T14:30:34Z</time>
      </trkpt>
      <trkpt lat="-28.05779" lon="-65.811945">
        <ele>1057.4</ele>
        <time>2018-08-20T14:30:36Z</time>
      </trkpt>
      <trkpt lat="-28.05791" lon="-65.81190333333333">
        <ele>1057.4</ele>
        <time>2018-08-20T14:30:38Z</time>
      </trkpt>
      <trkpt lat="-28.058025" lon="-65.81187">
        <ele>1057.3</ele>
        <time>2018-08-20T14:30:40Z</time>
      </trkpt>
      <trkpt lat="-28.05814" lon="-65.811825">
        <ele>1057.0</ele>
        <time>2018-08-20T14:30:42Z</time>
      </trkpt>
      <trkpt lat="-28.058265" lon="-65.811785">
        <ele>1057.2</ele>
        <time>2018-08-20T14:30:44Z</time>
      </trkpt>
      <trkpt lat="-28.058385" lon="-65.811745">
        <ele>1057.3</ele>
        <time>2018-08-20T14:30:46Z</time>
      </trkpt>
      <trkpt lat="-28.058505" lon="-65.811705">
        <ele>1057.5</ele>
        <time>2018-08-20T14:30:48Z</time>
      </trkpt>
      <trkpt lat="-28.058625" lon="-65.811665">
        <ele>1057.4</ele>
        <time>2018-08-20T14:30:50Z</time>
      </trkpt>
      <trkpt lat="-28.05873" lon="-65.811625">
        <ele>1057.0</ele>
        <time>2018-08-20T14:30:52Z</time>
      </trkpt>
      <trkpt lat="-28.058855" lon="-65.81158">
        <ele>1056.8</ele>
        <time>2018-08-20T14:30:54Z</time>
      </trkpt>
      <trkpt lat="-28.05895" lon="-65.81155">
        <ele>1056.3</ele>
        <time>2018-08-20T14:30:56Z</time>
      </trkpt>
      <trkpt lat="-28.05907" lon="-65.81151">
        <ele>1056.3</ele>
        <time>2018-08-20T14:30:58Z</time>
      </trkpt>
      <trkpt lat="-28.059175" lon="-65.81148">
        <ele>1056.6</ele>
        <time>2018-08-20T14:31:00Z</time>
      </trkpt>
      <trkpt lat="-28.059276666666666" lon="-65.81144166666667">
        <ele>1056.8</ele>
        <time>2018-08-20T14:31:02Z</time>
      </trkpt>
      <trkpt lat="-28.05938" lon="-65.81141166666667">
        <ele>1056.9</ele>
        <time>2018-08-20T14:31:04Z</time>
      </trkpt>
      <trkpt lat="-28.059475" lon="-65.81139">
        <ele>1056.8</ele>
        <time>2018-08-20T14:31:06Z</time>
      </trkpt>
      <trkpt lat="-28.059575" lon="-65.81136166666667">
        <ele>1056.8</ele>
        <time>2018-08-20T14:31:08Z</time>
      </trkpt>
      <trkpt lat="-28.059656666666665" lon="-65.81134">
        <ele>1056.6</ele>
        <time>2018-08-20T14:31:10Z</time>
      </trkpt>
      <trkpt lat="-28.059755" lon="-65.81130666666667">
        <ele>1056.3</ele>
        <time>2018-08-20T14:31:12Z</time>
      </trkpt>
      <trkpt lat="-28.059848333333335" lon="-65.811285">
        <ele>1056.1</ele>
        <time>2018-08-20T14:31:14Z</time>
      </trkpt>
      <trkpt lat="-28.059945" lon="-65.811265">
        <ele>1056.0</ele>
        <time>2018-08-20T14:31:16Z</time>
      </trkpt>
      <trkpt lat="-28.060036666666665" lon="-65.81125">
        <ele>1055.9</ele>
        <time>2018-08-20T14:31:18Z</time>
      </trkpt>
      <trkpt lat="-28.060135" lon="-65.81123">
        <ele>1055.9</ele>
        <time>2018-08-20T14:31:20Z</time>
      </trkpt>
      <trkpt lat="-28.060221666666667" lon="-65.81121666666667">
        <ele>1055.7</ele>
        <time>2018-08-20T14:31:22Z</time>
      </trkpt>
      <trkpt lat="-28.06032" lon="-65.81121">
        <ele>1055.3</ele>
        <time>2018-08-20T14:31:24Z</time>
      </trkpt>
      <trkpt lat="-28.060411666666667" lon="-65.8112">
        <ele>1055.3</ele>
        <time>2018-08-20T14:31:26Z</time>
      </trkpt>
      <trkpt lat="-28.060515" lon="-65.811195">
        <ele>1055.5</ele>
        <time>2018-08-20T14:31:28Z</time>
      </trkpt>
      <trkpt lat="-28.06061" lon="-65.81118666666667">
        <ele>1055.5</ele>
        <time>2018-08-20T14:31:30Z</time>
      </trkpt>
      <trkpt lat="-28.060715" lon="-65.81118333333333">
        <ele>1055.7</ele>
        <time>2018-08-20T14:31:32Z</time>
      </trkpt>
      <trkpt lat="-28.06082" lon="-65.81118166666667">
        <ele>1055.7</ele>
        <time>2018-08-20T14:31:34Z</time>
      </trkpt>
      <trkpt lat="-28.060913333333332" lon="-65.81118166666667">
        <ele>1055.6</ele>
        <time>2018-08-20T14:31:36Z</time>
      </trkpt>
      <trkpt lat="-28.061016666666667" lon="-65.81118666666667">
        <ele>1055.6</ele>
        <time>2018-08-20T14:31:38Z</time>
      </trkpt>
      <trkpt lat="-28.061125" lon="-65.8112">
        <ele>1055.7</ele>
        <time>2018-08-20T14:31:40Z</time>
      </trkpt>
      <trkpt lat="-28.061225" lon="-65.811205">
        <ele>1055.5</ele>
        <time>2018-08-20T14:31:42Z</time>
      </trkpt>
      <trkpt lat="-28.061335" lon="-65.811215">
        <ele>1055.5</ele>
        <time>2018-08-20T14:31:44Z</time>
      </trkpt>
      <trkpt lat="-28.061435" lon="-65.81122333333333">
        <ele>1055.3</ele>
        <time>2018-08-20T14:31:46Z</time>
      </trkpt>
      <trkpt lat="-28.061545" lon="-65.81124">
        <ele>1055.3</ele>
        <time>2018-08-20T14:31:48Z</time>
      </trkpt>
      <trkpt lat="-28.06166" lon="-65.81126">
        <ele>1055.1</ele>
        <time>2018-08-20T14:31:50Z</time>
      </trkpt>
      <trkpt lat="-28.06177" lon="-65.811285">
        <ele>1054.9</ele>
        <time>2018-08-20T14:31:52Z</time>
      </trkpt>
      <trkpt lat="-28.061875" lon="-65.81130166666667">
        <ele>1054.6</ele>
        <time>2018-08-20T14:31:54Z</time>
      </trkpt>
      <trkpt lat="-28.061985" lon="-65.811335">
        <ele>1054.2</ele>
        <time>2018-08-20T14:31:56Z</time>
      </trkpt>
      <trkpt lat="-28.0621" lon="-65.81135833333333">
        <ele>1053.8</ele>
        <time>2018-08-20T14:31:58Z</time>
      </trkpt>
      <trkpt lat="-28.062215" lon="-65.8114">
        <ele>1053.4</ele>
        <time>2018-08-20T14:32:00Z</time>
      </trkpt>
      <trkpt lat="-28.062335" lon="-65.81144">
        <ele>1053.4</ele>
        <time>2018-08-20T14:32:02Z</time>
      </trkpt>
      <trkpt lat="-28.062455" lon="-65.81148">
        <ele>1053.2</ele>
        <time>2018-08-20T14:32:04Z</time>
      </trkpt>
      <trkpt lat="-28.06257" lon="-65.81152">
        <ele>1053.2</ele>
        <time>2018-08-20T14:32:06Z</time>
      </trkpt>
      <trkpt lat="-28.062645" lon="-65.81154">
        <ele>1053.1</ele>
        <time>2018-08-20T14:32:07Z</time>
      </trkpt>
      <trkpt lat="-28.062715" lon="-65.81157">
        <ele>1053.0</ele>
        <time>2018-08-20T14:32:08Z</time>
      </trkpt>
      <trkpt lat="-28.062835" lon="-65.811615">
        <ele>1053.2</ele>
        <time>2018-08-20T14:32:10Z</time>
      </trkpt>
      <trkpt lat="-28.06295" lon="-65.81166">
        <ele>1053.4</ele>
        <time>2018-08-20T14:32:12Z</time>
      </trkpt>
      <trkpt lat="-28.06308" lon="-65.811705">
        <ele>1053.5</ele>
        <time>2018-08-20T14:32:14Z</time>
      </trkpt>
      <trkpt lat="-28.063205" lon="-65.81175">
        <ele>1053.2</ele>
        <time>2018-08-20T14:32:16Z</time>
      </trkpt>
      <trkpt lat="-28.06333" lon="-65.81179">
        <ele>1052.8</ele>
        <time>2018-08-20T14:32:18Z</time>
      </trkpt>
      <trkpt lat="-28.063451666666666" lon="-65.81183">
        <ele>1052.4</ele>
        <time>2018-08-20T14:32:20Z</time>
      </trkpt>
      <trkpt lat="-28.06359" lon="-65.811885">
        <ele>1052.3</ele>
        <time>2018-08-20T14:32:22Z</time>
      </trkpt>
      <trkpt lat="-28.063725" lon="-65.811935">
        <ele>1052.3</ele>
        <time>2018-08-20T14:32:24Z</time>
      </trkpt>
      <trkpt lat="-28.063855" lon="-65.81197666666667">
        <ele>1052.4</ele>
        <time>2018-08-20T14:32:26Z</time>
      </trkpt>
      <trkpt lat="-28.063985" lon="-65.81202666666667">
        <ele>1052.2</ele>
        <time>2018-08-20T14:32:28Z</time>
      </trkpt>
      <trkpt lat="-28.064115" lon="-65.81207333333333">
        <ele>1051.5</ele>
        <time>2018-08-20T14:32:30Z</time>
      </trkpt>
      <trkpt lat="-28.064245" lon="-65.81211833333333">
        <ele>1050.8</ele>
        <time>2018-08-20T14:32:32Z</time>
      </trkpt>
      <trkpt lat="-28.06439" lon="-65.81216833333333">
        <ele>1050.0</ele>
        <time>2018-08-20T14:32:34Z</time>
      </trkpt>
      <trkpt lat="-28.06453" lon="-65.812225">
        <ele>1049.3</ele>
        <time>2018-08-20T14:32:36Z</time>
      </trkpt>
      <trkpt lat="-28.0646" lon="-65.812245">
        <ele>1048.9</ele>
        <time>2018-08-20T14:32:37Z</time>
      </trkpt>
      <trkpt lat="-28.064675" lon="-65.812275">
        <ele>1048.8</ele>
        <time>2018-08-20T14:32:38Z</time>
      </trkpt>
      <trkpt lat="-28.064745" lon="-65.812295">
        <ele>1048.8</ele>
        <time>2018-08-20T14:32:39Z</time>
      </trkpt>
      <trkpt lat="-28.064885" lon="-65.81234">
        <ele>1048.3</ele>
        <time>2018-08-20T14:32:41Z</time>
      </trkpt>
      <trkpt lat="-28.064955" lon="-65.81236666666666">
        <ele>1048.2</ele>
        <time>2018-08-20T14:32:42Z</time>
      </trkpt>
      <trkpt lat="-28.065035" lon="-65.81239333333333">
        <ele>1048.0</ele>
        <time>2018-08-20T14:32:43Z</time>
      </trkpt>
      <trkpt lat="-28.065105" lon="-65.812425">
        <ele>1047.9</ele>
        <time>2018-08-20T14:32:44Z</time>
      </trkpt>
      <trkpt lat="-28.06518" lon="-65.81245">
        <ele>1047.9</ele>
        <time>2018-08-20T14:32:45Z</time>
      </trkpt>
      <trkpt lat="-28.06525" lon="-65.81247">
        <ele>1047.5</ele>
        <time>2018-08-20T14:32:46Z</time>
      </trkpt>
      <trkpt lat="-28.065325" lon="-65.81249">
        <ele>1046.9</ele>
        <time>2018-08-20T14:32:47Z</time>
      </trkpt>
      <trkpt lat="-28.065395" lon="-65.81250833333333">
        <ele>1046.4</ele>
        <time>2018-08-20T14:32:48Z</time>
      </trkpt>
      <trkpt lat="-28.065465" lon="-65.812535">
        <ele>1045.9</ele>
        <time>2018-08-20T14:32:49Z</time>
      </trkpt>
      <trkpt lat="-28.06554" lon="-65.812555">
        <ele>1045.4</ele>
        <time>2018-08-20T14:32:50Z</time>
      </trkpt>
      <trkpt lat="-28.06561" lon="-65.81256833333333">
        <ele>1045.0</ele>
        <time>2018-08-20T14:32:51Z</time>
      </trkpt>
      <trkpt lat="-28.065695" lon="-65.81259">
        <ele>1044.6</ele>
        <time>2018-08-20T14:32:52Z</time>
      </trkpt>
      <trkpt lat="-28.065765" lon="-65.81261">
        <ele>1044.1</ele>
        <time>2018-08-20T14:32:53Z</time>
      </trkpt>
      <trkpt lat="-28.065835" lon="-65.81261666666667">
        <ele>1043.7</ele>
        <time>2018-08-20T14:32:54Z</time>
      </trkpt>
      <trkpt lat="-28.065915" lon="-65.812635">
        <ele>1043.3</ele>
        <time>2018-08-20T14:32:55Z</time>
      </trkpt>
      <trkpt lat="-28.06599" lon="-65.81265">
        <ele>1042.9</ele>
        <time>2018-08-20T14:32:56Z</time>
      </trkpt>
      <trkpt lat="-28.06607" lon="-65.81266166666667">
        <ele>1042.6</ele>
        <time>2018-08-20T14:32:57Z</time>
      </trkpt>
      <trkpt lat="-28.066155" lon="-65.81267666666666">
        <ele>1042.4</ele>
        <time>2018-08-20T14:32:58Z</time>
      </trkpt>
      <trkpt lat="-28.066235" lon="-65.812695">
        <ele>1042.2</ele>
        <time>2018-08-20T14:32:59Z</time>
      </trkpt>
      <trkpt lat="-28.066371666666665" lon="-65.812715">
        <ele>1041.4</ele>
        <time>2018-08-20T14:33:01Z</time>
      </trkpt>
      <trkpt lat="-28.06645" lon="-65.81272">
        <ele>1041.0</ele>
        <time>2018-08-20T14:33:02Z</time>
      </trkpt>
      <trkpt lat="-28.066525" lon="-65.81273">
        <ele>1040.6</ele>
        <time>2018-08-20T14:33:03Z</time>
      </trkpt>
      <trkpt lat="-28.066596666666666" lon="-65.812735">
        <ele>1040.3</ele>
        <time>2018-08-20T14:33:04Z</time>
      </trkpt>
      <trkpt lat="-28.06668" lon="-65.81274666666667">
        <ele>1040.3</ele>
        <time>2018-08-20T14:33:05Z</time>
      </trkpt>
      <trkpt lat="-28.06675" lon="-65.81276">
        <ele>1040.1</ele>
        <time>2018-08-20T14:33:06Z</time>
      </trkpt>
      <trkpt lat="-28.06683" lon="-65.81276">
        <ele>1040.0</ele>
        <time>2018-08-20T14:33:07Z</time>
      </trkpt>
      <trkpt lat="-28.06691" lon="-65.81277">
        <ele>1039.9</ele>
        <time>2018-08-20T14:33:08Z</time>
      </trkpt>
      <trkpt lat="-28.066995" lon="-65.81278">
        <ele>1039.9</ele>
        <time>2018-08-20T14:33:09Z</time>
      </trkpt>
      <trkpt lat="-28.067075" lon="-65.81278">
        <ele>1040.0</ele>
        <time>2018-08-20T14:33:10Z</time>
      </trkpt>
      <trkpt lat="-28.067155" lon="-65.81278">
        <ele>1040.1</ele>
        <time>2018-08-20T14:33:11Z</time>
      </trkpt>
      <trkpt lat="-28.067235" lon="-65.81278166666667">
        <ele>1040.2</ele>
        <time>2018-08-20T14:33:12Z</time>
      </trkpt>
      <trkpt lat="-28.06732" lon="-65.81278166666667">
        <ele>1040.4</ele>
        <time>2018-08-20T14:33:13Z</time>
      </trkpt>
      <trkpt lat="-28.0674" lon="-65.81278">
        <ele>1040.5</ele>
        <time>2018-08-20T14:33:14Z</time>
      </trkpt>
      <trkpt lat="-28.06748" lon="-65.81278166666667">
        <ele>1040.7</ele>
        <time>2018-08-20T14:33:15Z</time>
      </trkpt>
      <trkpt lat="-28.067555" lon="-65.81278">
        <ele>1040.5</ele>
        <time>2018-08-20T14:33:16Z</time>
      </trkpt>
      <trkpt lat="-28.067635" lon="-65.812775">
        <ele>1040.0</ele>
        <time>2018-08-20T14:33:17Z</time>
      </trkpt>
      <trkpt lat="-28.067705" lon="-65.81277">
        <ele>1039.4</ele>
        <time>2018-08-20T14:33:18Z</time>
      </trkpt>
      <trkpt lat="-28.06778" lon="-65.81276">
        <ele>1038.9</ele>
        <time>2018-08-20T14:33:19Z</time>
      </trkpt>
      <trkpt lat="-28.067925" lon="-65.81274666666667">
        <ele>1038.7</ele>
        <time>2018-08-20T14:33:21Z</time>
      </trkpt>
      <trkpt lat="-28.068065" lon="-65.81273">
        <ele>1038.4</ele>
        <time>2018-08-20T14:33:23Z</time>
      </trkpt>
      <trkpt lat="-28.068205" lon="-65.812715">
        <ele>1038.6</ele>
        <time>2018-08-20T14:33:25Z</time>
      </trkpt>
      <trkpt lat="-28.068331666666666" lon="-65.812695">
        <ele>1038.3</ele>
        <time>2018-08-20T14:33:27Z</time>
      </trkpt>
      <trkpt lat="-28.06847" lon="-65.812675">
        <ele>1038.1</ele>
        <time>2018-08-20T14:33:29Z</time>
      </trkpt>
      <trkpt lat="-28.068595" lon="-65.81265">
        <ele>1038.1</ele>
        <time>2018-08-20T14:33:31Z</time>
      </trkpt>
      <trkpt lat="-28.06872" lon="-65.81261333333333">
        <ele>1036.8</ele>
        <time>2018-08-20T14:33:33Z</time>
      </trkpt>
      <trkpt lat="-28.068835" lon="-65.81258">
        <ele>1035.6</ele>
        <time>2018-08-20T14:33:35Z</time>
      </trkpt>
      <trkpt lat="-28.068955" lon="-65.81255">
        <ele>1034.8</ele>
        <time>2018-08-20T14:33:37Z</time>
      </trkpt>
      <trkpt lat="-28.069075" lon="-65.81251166666667">
        <ele>1034.9</ele>
        <time>2018-08-20T14:33:39Z</time>
      </trkpt>
      <trkpt lat="-28.069185" lon="-65.81248">
        <ele>1034.4</ele>
        <time>2018-08-20T14:33:41Z</time>
      </trkpt>
      <trkpt lat="-28.06929" lon="-65.81245">
        <ele>1033.6</ele>
        <time>2018-08-20T14:33:43Z</time>
      </trkpt>
      <trkpt lat="-28.069415" lon="-65.812415">
        <ele>1033.7</ele>
        <time>2018-08-20T14:33:45Z</time>
      </trkpt>
      <trkpt lat="-28.069535" lon="-65.812385">
        <ele>1034.1</ele>
        <time>2018-08-20T14:33:47Z</time>
      </trkpt>
      <trkpt lat="-28.06965" lon="-65.81234333333333">
        <ele>1034.7</ele>
        <time>2018-08-20T14:33:49Z</time>
      </trkpt>
      <trkpt lat="-28.069755" lon="-65.81231">
        <ele>1034.9</ele>
        <time>2018-08-20T14:33:51Z</time>
      </trkpt>
      <trkpt lat="-28.069875" lon="-65.81227">
        <ele>1035.5</ele>
        <time>2018-08-20T14:33:53Z</time>
      </trkpt>
      <trkpt lat="-28.07" lon="-65.812235">
        <ele>1035.9</ele>
        <time>2018-08-20T14:33:55Z</time>
      </trkpt>
      <trkpt lat="-28.070111666666666" lon="-65.8122">
        <ele>1036.1</ele>
        <time>2018-08-20T14:33:57Z</time>
      </trkpt>
      <trkpt lat="-28.070225" lon="-65.81216">
        <ele>1035.9</ele>
        <time>2018-08-20T14:33:59Z</time>
      </trkpt>
      <trkpt lat="-28.070345" lon="-65.81212166666667">
        <ele>1035.5</ele>
        <time>2018-08-20T14:34:01Z</time>
      </trkpt>
      <trkpt lat="-28.07045" lon="-65.812095">
        <ele>1035.3</ele>
        <time>2018-08-20T14:34:03Z</time>
      </trkpt>
      <trkpt lat="-28.07056" lon="-65.812065">
        <ele>1035.0</ele>
        <time>2018-08-20T14:34:05Z</time>
      </trkpt>
      <trkpt lat="-28.07069" lon="-65.812025">
        <ele>1035.0</ele>
        <time>2018-08-20T14:34:07Z</time>
      </trkpt>
      <trkpt lat="-28.070795" lon="-65.812">
        <ele>1035.0</ele>
        <time>2018-08-20T14:34:09Z</time>
      </trkpt>
      <trkpt lat="-28.070906666666666" lon="-65.81197">
        <ele>1035.0</ele>
        <time>2018-08-20T14:34:11Z</time>
      </trkpt>
      <trkpt lat="-28.07102" lon="-65.811935">
        <ele>1035.1</ele>
        <time>2018-08-20T14:34:13Z</time>
      </trkpt>
      <trkpt lat="-28.071135" lon="-65.81189666666667">
        <ele>1035.1</ele>
        <time>2018-08-20T14:34:15Z</time>
      </trkpt>
      <trkpt lat="-28.071245" lon="-65.81187">
        <ele>1035.8</ele>
        <time>2018-08-20T14:34:17Z</time>
      </trkpt>
      <trkpt lat="-28.07136" lon="-65.81184">
        <ele>1036.4</ele>
        <time>2018-08-20T14:34:19Z</time>
      </trkpt>
      <trkpt lat="-28.071465" lon="-65.811805">
        <ele>1037.1</ele>
        <time>2018-08-20T14:34:21Z</time>
      </trkpt>
      <trkpt lat="-28.071575" lon="-65.811775">
        <ele>1037.0</ele>
        <time>2018-08-20T14:34:23Z</time>
      </trkpt>
      <trkpt lat="-28.071675" lon="-65.811745">
        <ele>1036.6</ele>
        <time>2018-08-20T14:34:25Z</time>
      </trkpt>
      <trkpt lat="-28.07178" lon="-65.81171">
        <ele>1036.3</ele>
        <time>2018-08-20T14:34:27Z</time>
      </trkpt>
      <trkpt lat="-28.07189" lon="-65.81167">
        <ele>1035.8</ele>
        <time>2018-08-20T14:34:29Z</time>
      </trkpt>
      <trkpt lat="-28.07199" lon="-65.811645">
        <ele>1035.9</ele>
        <time>2018-08-20T14:34:31Z</time>
      </trkpt>
      <trkpt lat="-28.07208" lon="-65.811605">
        <ele>1035.3</ele>
        <time>2018-08-20T14:34:33Z</time>
      </trkpt>
      <trkpt lat="-28.07217" lon="-65.81158">
        <ele>1034.3</ele>
        <time>2018-08-20T14:34:35Z</time>
      </trkpt>
      <trkpt lat="-28.072255" lon="-65.81155">
        <ele>1034.5</ele>
        <time>2018-08-20T14:34:37Z</time>
      </trkpt>
      <trkpt lat="-28.072345" lon="-65.81152">
        <ele>1034.7</ele>
        <time>2018-08-20T14:34:39Z</time>
      </trkpt>
      <trkpt lat="-28.07244" lon="-65.811485">
        <ele>1034.5</ele>
        <time>2018-08-20T14:34:41Z</time>
      </trkpt>
      <trkpt lat="-28.072535" lon="-65.81145333333333">
        <ele>1035.2</ele>
        <time>2018-08-20T14:34:43Z</time>
      </trkpt>
      <trkpt lat="-28.07263" lon="-65.81143">
        <ele>1035.8</ele>
        <time>2018-08-20T14:34:45Z</time>
      </trkpt>
      <trkpt lat="-28.07272" lon="-65.81140333333333">
        <ele>1036.0</ele>
        <time>2018-08-20T14:34:47Z</time>
      </trkpt>
      <trkpt lat="-28.07281" lon="-65.81138">
        <ele>1036.3</ele>
        <time>2018-08-20T14:34:49Z</time>
      </trkpt>
      <trkpt lat="-28.072895" lon="-65.811355">
        <ele>1036.7</ele>
        <time>2018-08-20T14:34:51Z</time>
      </trkpt>
      <trkpt lat="-28.072985" lon="-65.811325">
        <ele>1036.7</ele>
        <time>2018-08-20T14:34:53Z</time>
      </trkpt>
      <trkpt lat="-28.073078333333335" lon="-65.811295">
        <ele>1036.8</ele>
        <time>2018-08-20T14:34:55Z</time>
      </trkpt>
      <trkpt lat="-28.07317" lon="-65.81126666666667">
        <ele>1037.3</ele>
        <time>2018-08-20T14:34:57Z</time>
      </trkpt>
      <trkpt lat="-28.073255" lon="-65.81124">
        <ele>1037.9</ele>
        <time>2018-08-20T14:34:59Z</time>
      </trkpt>
      <trkpt lat="-28.073345" lon="-65.811215">
        <ele>1036.7</ele>
        <time>2018-08-20T14:35:01Z</time>
      </trkpt>
      <trkpt lat="-28.07344833333333" lon="-65.81118333333333">
        <ele>1036.0</ele>
        <time>2018-08-20T14:35:03Z</time>
      </trkpt>
      <trkpt lat="-28.07355" lon="-65.811165">
        <ele>1036.0</ele>
        <time>2018-08-20T14:35:05Z</time>
      </trkpt>
      <trkpt lat="-28.073635" lon="-65.81113333333333">
        <ele>1035.7</ele>
        <time>2018-08-20T14:35:07Z</time>
      </trkpt>
      <trkpt lat="-28.073725" lon="-65.81111">
        <ele>1035.6</ele>
        <time>2018-08-20T14:35:09Z</time>
      </trkpt>
      <trkpt lat="-28.073815" lon="-65.81108">
        <ele>1036.3</ele>
        <time>2018-08-20T14:35:11Z</time>
      </trkpt>
      <trkpt lat="-28.073895" lon="-65.81104500000001">
        <ele>1036.7</ele>
        <time>2018-08-20T14:35:13Z</time>
      </trkpt>
      <trkpt lat="-28.073975" lon="-65.81103">
        <ele>1036.6</ele>
        <time>2018-08-20T14:35:15Z</time>
      </trkpt>
      <trkpt lat="-28.074075" lon="-65.81100166666667">
        <ele>1036.5</ele>
        <time>2018-08-20T14:35:17Z</time>
      </trkpt>
      <trkpt lat="-28.074165" lon="-65.81098">
        <ele>1036.6</ele>
        <time>2018-08-20T14:35:19Z</time>
      </trkpt>
      <trkpt lat="-28.07425" lon="-65.81095">
        <ele>1036.6</ele>
        <time>2018-08-20T14:35:21Z</time>
      </trkpt>
      <trkpt lat="-28.07435" lon="-65.81091833333333">
        <ele>1036.5</ele>
        <time>2018-08-20T14:35:23Z</time>
      </trkpt>
      <trkpt lat="-28.07443333333333" lon="-65.810895">
        <ele>1036.6</ele>
        <time>2018-08-20T14:35:25Z</time>
      </trkpt>
      <trkpt lat="-28.074535" lon="-65.810865">
        <ele>1036.5</ele>
        <time>2018-08-20T14:35:27Z</time>
      </trkpt>
      <trkpt lat="-28.07463" lon="-65.810845">
        <ele>1036.4</ele>
        <time>2018-08-20T14:35:29Z</time>
      </trkpt>
      <trkpt lat="-28.07471" lon="-65.81081166666667">
        <ele>1036.6</ele>
        <time>2018-08-20T14:35:31Z</time>
      </trkpt>
      <trkpt lat="-28.074795" lon="-65.81079">
        <ele>1037.1</ele>
        <time>2018-08-20T14:35:33Z</time>
      </trkpt>
      <trkpt lat="-28.074875" lon="-65.810765">
        <ele>1037.9</ele>
        <time>2018-08-20T14:35:35Z</time>
      </trkpt>
      <trkpt lat="-28.07496" lon="-65.81073166666667">
        <ele>1037.9</ele>
        <time>2018-08-20T14:35:37Z</time>
      </trkpt>
      <trkpt lat="-28.07506" lon="-65.810705">
        <ele>1037.9</ele>
        <time>2018-08-20T14:35:39Z</time>
      </trkpt>
      <trkpt lat="-28.075165" lon="-65.810675">
        <ele>1038.0</ele>
        <time>2018-08-20T14:35:41Z</time>
      </trkpt>
      <trkpt lat="-28.075265" lon="-65.81064166666667">
        <ele>1037.9</ele>
        <time>2018-08-20T14:35:43Z</time>
      </trkpt>
      <trkpt lat="-28.075355" lon="-65.81062">
        <ele>1036.8</ele>
        <time>2018-08-20T14:35:45Z</time>
      </trkpt>
      <trkpt lat="-28.07545" lon="-65.810595">
        <ele>1035.3</ele>
        <time>2018-08-20T14:35:47Z</time>
      </trkpt>
      <trkpt lat="-28.075545" lon="-65.810565">
        <ele>1034.1</ele>
        <time>2018-08-20T14:35:49Z</time>
      </trkpt>
      <trkpt lat="-28.075641666666666" lon="-65.81053">
        <ele>1034.0</ele>
        <time>2018-08-20T14:35:51Z</time>
      </trkpt>
      <trkpt lat="-28.075745" lon="-65.8105">
        <ele>1034.3</ele>
        <time>2018-08-20T14:35:53Z</time>
      </trkpt>
      <trkpt lat="-28.07585" lon="-65.81046666666667">
        <ele>1034.8</ele>
        <time>2018-08-20T14:35:55Z</time>
      </trkpt>
      <trkpt lat="-28.075955" lon="-65.81044">
        <ele>1035.7</ele>
        <time>2018-08-20T14:35:57Z</time>
      </trkpt>
      <trkpt lat="-28.07608" lon="-65.81039666666666">
        <ele>1035.8</ele>
        <time>2018-08-20T14:35:59Z</time>
      </trkpt>
      <trkpt lat="-28.0762" lon="-65.81036">
        <ele>1035.6</ele>
        <time>2018-08-20T14:36:01Z</time>
      </trkpt>
      <trkpt lat="-28.07632" lon="-65.81032166666667">
        <ele>1035.5</ele>
        <time>2018-08-20T14:36:03Z</time>
      </trkpt>
      <trkpt lat="-28.076445" lon="-65.81028333333333">
        <ele>1035.4</ele>
        <time>2018-08-20T14:36:05Z</time>
      </trkpt>
      <trkpt lat="-28.076558333333335" lon="-65.810255">
        <ele>1035.4</ele>
        <time>2018-08-20T14:36:07Z</time>
      </trkpt>
      <trkpt lat="-28.076671666666666" lon="-65.81023">
        <ele>1035.2</ele>
        <time>2018-08-20T14:36:09Z</time>
      </trkpt>
      <trkpt lat="-28.076781666666665" lon="-65.81019">
        <ele>1035.5</ele>
        <time>2018-08-20T14:36:11Z</time>
      </trkpt>
      <trkpt lat="-28.076885" lon="-65.81015166666667">
        <ele>1036.1</ele>
        <time>2018-08-20T14:36:13Z</time>
      </trkpt>
      <trkpt lat="-28.076981666666665" lon="-65.810125">
        <ele>1036.5</ele>
        <time>2018-08-20T14:36:15Z</time>
      </trkpt>
      <trkpt lat="-28.077085" lon="-65.810095">
        <ele>1036.9</ele>
        <time>2018-08-20T14:36:17Z</time>
      </trkpt>
      <trkpt lat="-28.077185" lon="-65.81005833333333">
        <ele>1037.2</ele>
        <time>2018-08-20T14:36:19Z</time>
      </trkpt>
      <trkpt lat="-28.07729" lon="-65.81003">
        <ele>1037.3</ele>
        <time>2018-08-20T14:36:21Z</time>
      </trkpt>
      <trkpt lat="-28.077395" lon="-65.810005">
        <ele>1037.3</ele>
        <time>2018-08-20T14:36:23Z</time>
      </trkpt>
      <trkpt lat="-28.07751" lon="-65.809965">
        <ele>1036.8</ele>
        <time>2018-08-20T14:36:25Z</time>
      </trkpt>
      <trkpt lat="-28.077595" lon="-65.809935">
        <ele>1035.7</ele>
        <time>2018-08-20T14:36:27Z</time>
      </trkpt>
      <trkpt lat="-28.07772" lon="-65.8099">
        <ele>1034.4</ele>
        <time>2018-08-20T14:36:29Z</time>
      </trkpt>
      <trkpt lat="-28.077845" lon="-65.809855">
        <ele>1033.2</ele>
        <time>2018-08-20T14:36:31Z</time>
      </trkpt>
      <trkpt lat="-28.078" lon="-65.809805">
        <ele>1031.7</ele>
        <time>2018-08-20T14:36:33Z</time>
      </trkpt>
      <trkpt lat="-28.07808" lon="-65.80978">
        <ele>1031.6</ele>
        <time>2018-08-20T14:36:34Z</time>
      </trkpt>
      <trkpt lat="-28.078165" lon="-65.80976">
        <ele>1031.6</ele>
        <time>2018-08-20T14:36:35Z</time>
      </trkpt>
      <trkpt lat="-28.07825" lon="-65.809735">
        <ele>1031.6</ele>
        <time>2018-08-20T14:36:36Z</time>
      </trkpt>
      <trkpt lat="-28.07832" lon="-65.80972">
        <ele>1031.4</ele>
        <time>2018-08-20T14:36:37Z</time>
      </trkpt>
      <trkpt lat="-28.07847" lon="-65.809675">
        <ele>1031.8</ele>
        <time>2018-08-20T14:36:39Z</time>
      </trkpt>
      <trkpt lat="-28.07862" lon="-65.809625">
        <ele>1032.3</ele>
        <time>2018-08-20T14:36:41Z</time>
      </trkpt>
      <trkpt lat="-28.0787" lon="-65.8096">
        <ele>1032.4</ele>
        <time>2018-08-20T14:36:42Z</time>
      </trkpt>
      <trkpt lat="-28.07877" lon="-65.80958">
        <ele>1032.5</ele>
        <time>2018-08-20T14:36:43Z</time>
      </trkpt>
      <trkpt lat="-28.0789" lon="-65.80954">
        <ele>1031.8</ele>
        <time>2018-08-20T14:36:45Z</time>
      </trkpt>
      <trkpt lat="-28.078985" lon="-65.809515">
        <ele>1031.6</ele>
        <time>2018-08-20T14:36:46Z</time>
      </trkpt>
      <trkpt lat="-28.079055" lon="-65.809495">
        <ele>1031.6</ele>
        <time>2018-08-20T14:36:47Z</time>
      </trkpt>
      <trkpt lat="-28.079126666666667" lon="-65.80947">
        <ele>1031.5</ele>
        <time>2018-08-20T14:36:48Z</time>
      </trkpt>
      <trkpt lat="-28.079205" lon="-65.80945">
        <ele>1031.2</ele>
        <time>2018-08-20T14:36:49Z</time>
      </trkpt>
      <trkpt lat="-28.079275" lon="-65.80942166666667">
        <ele>1031.0</ele>
        <time>2018-08-20T14:36:50Z</time>
      </trkpt>
      <trkpt lat="-28.079345" lon="-65.8094">
        <ele>1030.7</ele>
        <time>2018-08-20T14:36:51Z</time>
      </trkpt>
      <trkpt lat="-28.07942" lon="-65.809375">
        <ele>1030.5</ele>
        <time>2018-08-20T14:36:52Z</time>
      </trkpt>
      <trkpt lat="-28.07949" lon="-65.809355">
        <ele>1030.1</ele>
        <time>2018-08-20T14:36:53Z</time>
      </trkpt>
      <trkpt lat="-28.079565" lon="-65.80934">
        <ele>1029.5</ele>
        <time>2018-08-20T14:36:54Z</time>
      </trkpt>
      <trkpt lat="-28.07964" lon="-65.80932">
        <ele>1029.0</ele>
        <time>2018-08-20T14:36:55Z</time>
      </trkpt>
      <trkpt lat="-28.07971" lon="-65.80929">
        <ele>1028.6</ele>
        <time>2018-08-20T14:36:57Z</time>
      </trkpt>
      <trkpt lat="-28.079781666666666" lon="-65.80927">
        <ele>1028.5</ele>
        <time>2018-08-20T14:36:57Z</time>
      </trkpt>
      <trkpt lat="-28.079905" lon="-65.80923">
        <ele>1028.2</ele>
        <time>2018-08-20T14:36:59Z</time>
      </trkpt>
      <trkpt lat="-28.07998" lon="-65.809205">
        <ele>1027.9</ele>
        <time>2018-08-20T14:37:00Z</time>
      </trkpt>
      <trkpt lat="-28.080055" lon="-65.809185">
        <ele>1027.6</ele>
        <time>2018-08-20T14:37:01Z</time>
      </trkpt>
      <trkpt lat="-28.08014" lon="-65.80916">
        <ele>1027.7</ele>
        <time>2018-08-20T14:37:02Z</time>
      </trkpt>
      <trkpt lat="-28.08023" lon="-65.80912833333333">
        <ele>1027.9</ele>
        <time>2018-08-20T14:37:03Z</time>
      </trkpt>
      <trkpt lat="-28.080301666666667" lon="-65.80911">
        <ele>1028.1</ele>
        <time>2018-08-20T14:37:04Z</time>
      </trkpt>
      <trkpt lat="-28.080435" lon="-65.809075">
        <ele>1028.0</ele>
        <time>2018-08-20T14:37:06Z</time>
      </trkpt>
      <trkpt lat="-28.080505" lon="-65.809045">
        <ele>1027.8</ele>
        <time>2018-08-20T14:37:07Z</time>
      </trkpt>
      <trkpt lat="-28.080576666666666" lon="-65.80902166666667">
        <ele>1027.6</ele>
        <time>2018-08-20T14:37:08Z</time>
      </trkpt>
      <trkpt lat="-28.080655" lon="-65.809005">
        <ele>1027.3</ele>
        <time>2018-08-20T14:37:09Z</time>
      </trkpt>
      <trkpt lat="-28.08073" lon="-65.80898">
        <ele>1027.0</ele>
        <time>2018-08-20T14:37:10Z</time>
      </trkpt>
      <trkpt lat="-28.08081" lon="-65.80896">
        <ele>1026.7</ele>
        <time>2018-08-20T14:37:11Z</time>
      </trkpt>
      <trkpt lat="-28.08089" lon="-65.808935">
        <ele>1026.4</ele>
        <time>2018-08-20T14:37:12Z</time>
      </trkpt>
      <trkpt lat="-28.080965" lon="-65.808915">
        <ele>1026.2</ele>
        <time>2018-08-20T14:37:13Z</time>
      </trkpt>
      <trkpt lat="-28.081045" lon="-65.808895">
        <ele>1026.1</ele>
        <time>2018-08-20T14:37:14Z</time>
      </trkpt>
      <trkpt lat="-28.081125" lon="-65.80887">
        <ele>1026.1</ele>
        <time>2018-08-20T14:37:15Z</time>
      </trkpt>
      <trkpt lat="-28.0812" lon="-65.80885">
        <ele>1026.1</ele>
        <time>2018-08-20T14:37:16Z</time>
      </trkpt>
      <trkpt lat="-28.081285" lon="-65.80882">
        <ele>1026.0</ele>
        <time>2018-08-20T14:37:17Z</time>
      </trkpt>
      <trkpt lat="-28.08137" lon="-65.808795">
        <ele>1025.9</ele>
        <time>2018-08-20T14:37:18Z</time>
      </trkpt>
      <trkpt lat="-28.08145" lon="-65.808775">
        <ele>1025.8</ele>
        <time>2018-08-20T14:37:19Z</time>
      </trkpt>
      <trkpt lat="-28.081605" lon="-65.80872666666667">
        <ele>1025.7</ele>
        <time>2018-08-20T14:37:21Z</time>
      </trkpt>
      <trkpt lat="-28.081671666666665" lon="-65.80871">
        <ele>1025.6</ele>
        <time>2018-08-20T14:37:22Z</time>
      </trkpt>
      <trkpt lat="-28.08176" lon="-65.80867666666667">
        <ele>1025.4</ele>
        <time>2018-08-20T14:37:23Z</time>
      </trkpt>
      <trkpt lat="-28.08184" lon="-65.80866">
        <ele>1025.2</ele>
        <time>2018-08-20T14:37:24Z</time>
      </trkpt>
      <trkpt lat="-28.08192" lon="-65.80863333333333">
        <ele>1025.0</ele>
        <time>2018-08-20T14:37:25Z</time>
      </trkpt>
      <trkpt lat="-28.082" lon="-65.808615">
        <ele>1024.9</ele>
        <time>2018-08-20T14:37:26Z</time>
      </trkpt>
      <trkpt lat="-28.08208" lon="-65.808585">
        <ele>1024.7</ele>
        <time>2018-08-20T14:37:27Z</time>
      </trkpt>
      <trkpt lat="-28.08216" lon="-65.808565">
        <ele>1024.6</ele>
        <time>2018-08-20T14:37:28Z</time>
      </trkpt>
      <trkpt lat="-28.0823" lon="-65.80852">
        <ele>1023.7</ele>
        <time>2018-08-20T14:37:30Z</time>
      </trkpt>
      <trkpt lat="-28.08237" lon="-65.80849">
        <ele>1023.3</ele>
        <time>2018-08-20T14:37:31Z</time>
      </trkpt>
      <trkpt lat="-28.08244" lon="-65.80847">
        <ele>1023.1</ele>
        <time>2018-08-20T14:37:32Z</time>
      </trkpt>
      <trkpt lat="-28.082511666666665" lon="-65.808445">
        <ele>1022.6</ele>
        <time>2018-08-20T14:37:33Z</time>
      </trkpt>
      <trkpt lat="-28.08259" lon="-65.808425">
        <ele>1022.3</ele>
        <time>2018-08-20T14:37:34Z</time>
      </trkpt>
      <trkpt lat="-28.082665" lon="-65.8084">
        <ele>1022.1</ele>
        <time>2018-08-20T14:37:35Z</time>
      </trkpt>
      <trkpt lat="-28.082735" lon="-65.80838">
        <ele>1022.0</ele>
        <time>2018-08-20T14:37:36Z</time>
      </trkpt>
      <trkpt lat="-28.082805" lon="-65.80835166666667">
        <ele>1022.0</ele>
        <time>2018-08-20T14:37:37Z</time>
      </trkpt>
      <trkpt lat="-28.082881666666665" lon="-65.808335">
        <ele>1022.0</ele>
        <time>2018-08-20T14:37:38Z</time>
      </trkpt>
      <trkpt lat="-28.08296" lon="-65.80831">
        <ele>1022.0</ele>
        <time>2018-08-20T14:37:39Z</time>
      </trkpt>
      <trkpt lat="-28.08303" lon="-65.808295">
        <ele>1022.1</ele>
        <time>2018-08-20T14:37:40Z</time>
      </trkpt>
      <trkpt lat="-28.083105" lon="-65.80826666666667">
        <ele>1021.8</ele>
        <time>2018-08-20T14:37:41Z</time>
      </trkpt>
      <trkpt lat="-28.08318" lon="-65.80825">
        <ele>1021.7</ele>
        <time>2018-08-20T14:37:42Z</time>
      </trkpt>
      <trkpt lat="-28.083255" lon="-65.80822333333333">
        <ele>1021.6</ele>
        <time>2018-08-20T14:37:43Z</time>
      </trkpt>
      <trkpt lat="-28.083325" lon="-65.80820166666666">
        <ele>1021.4</ele>
        <time>2018-08-20T14:37:44Z</time>
      </trkpt>
      <trkpt lat="-28.083445" lon="-65.80817">
        <ele>1021.1</ele>
        <time>2018-08-20T14:37:46Z</time>
      </trkpt>
      <trkpt lat="-28.083575" lon="-65.80813">
        <ele>1020.8</ele>
        <time>2018-08-20T14:37:48Z</time>
      </trkpt>
      <trkpt lat="-28.083695" lon="-65.80809666666667">
        <ele>1021.0</ele>
        <time>2018-08-20T14:37:50Z</time>
      </trkpt>
      <trkpt lat="-28.083805" lon="-65.80807">
        <ele>1021.0</ele>
        <time>2018-08-20T14:37:52Z</time>
      </trkpt>
      <trkpt lat="-28.08391" lon="-65.80803666666667">
        <ele>1020.3</ele>
        <time>2018-08-20T14:37:54Z</time>
      </trkpt>
      <trkpt lat="-28.084015" lon="-65.808015">
        <ele>1019.6</ele>
        <time>2018-08-20T14:37:56Z</time>
      </trkpt>
      <trkpt lat="-28.08412" lon="-65.80799">
        <ele>1019.1</ele>
        <time>2018-08-20T14:37:58Z</time>
      </trkpt>
      <trkpt lat="-28.084215" lon="-65.807965">
        <ele>1019.0</ele>
        <time>2018-08-20T14:38:00Z</time>
      </trkpt>
      <trkpt lat="-28.084305" lon="-65.807945">
        <ele>1018.6</ele>
        <time>2018-08-20T14:38:02Z</time>
      </trkpt>
      <trkpt lat="-28.084405" lon="-65.80791666666667">
        <ele>1018.2</ele>
        <time>2018-08-20T14:38:04Z</time>
      </trkpt>
      <trkpt lat="-28.08448" lon="-65.80789">
        <ele>1018.6</ele>
        <time>2018-08-20T14:38:06Z</time>
      </trkpt>
      <trkpt lat="-28.08455" lon="-65.807865">
        <ele>1019.4</ele>
        <time>2018-08-20T14:38:08Z</time>
      </trkpt>
      <trkpt lat="-28.08462" lon="-65.807835">
        <ele>1020.2</ele>
        <time>2018-08-20T14:38:10Z</time>
      </trkpt>
      <trkpt lat="-28.084725" lon="-65.807805">
        <ele>1020.6</ele>
        <time>2018-08-20T14:38:12Z</time>
      </trkpt>
      <trkpt lat="-28.08479" lon="-65.80777666666667">
        <ele>1020.8</ele>
        <time>2018-08-20T14:38:14Z</time>
      </trkpt>
      <trkpt lat="-28.08487" lon="-65.80775">
        <ele>1021.2</ele>
        <time>2018-08-20T14:38:16Z</time>
      </trkpt>
      <trkpt lat="-28.084945" lon="-65.807725">
        <ele>1021.6</ele>
        <time>2018-08-20T14:38:18Z</time>
      </trkpt>
      <trkpt lat="-28.085051666666665" lon="-65.807705">
        <ele>1021.7</ele>
        <time>2018-08-20T14:38:21Z</time>
      </trkpt>
      <trkpt lat="-28.085165" lon="-65.807675">
        <ele>1021.9</ele>
        <time>2018-08-20T14:38:24Z</time>
      </trkpt>
      <trkpt lat="-28.08526" lon="-65.80764">
        <ele>1022.3</ele>
        <time>2018-08-20T14:38:27Z</time>
      </trkpt>
      <trkpt lat="-28.085365" lon="-65.80761">
        <ele>1022.7</ele>
        <time>2018-08-20T14:38:30Z</time>
      </trkpt>
      <trkpt lat="-28.085465" lon="-65.80758">
        <ele>1022.9</ele>
        <time>2018-08-20T14:38:33Z</time>
      </trkpt>
      <trkpt lat="-28.085565" lon="-65.807545">
        <ele>1023.1</ele>
        <time>2018-08-20T14:38:36Z</time>
      </trkpt>
      <trkpt lat="-28.085655" lon="-65.80751333333333">
        <ele>1023.3</ele>
        <time>2018-08-20T14:38:39Z</time>
      </trkpt>
      <trkpt lat="-28.085745" lon="-65.807495">
        <ele>1023.4</ele>
        <time>2018-08-20T14:38:42Z</time>
      </trkpt>
      <trkpt lat="-28.085835" lon="-65.80746666666667">
        <ele>1023.5</ele>
        <time>2018-08-20T14:38:45Z</time>
      </trkpt>
      <trkpt lat="-28.08594" lon="-65.80744">
        <ele>1023.4</ele>
        <time>2018-08-20T14:38:48Z</time>
      </trkpt>
      <trkpt lat="-28.086028333333335" lon="-65.807415">
        <ele>1023.4</ele>
        <time>2018-08-20T14:38:51Z</time>
      </trkpt>
      <trkpt lat="-28.086115" lon="-65.80737333333333">
        <ele>1023.4</ele>
        <time>2018-08-20T14:38:54Z</time>
      </trkpt>
      <trkpt lat="-28.086215" lon="-65.807345">
        <ele>1023.4</ele>
        <time>2018-08-20T14:38:57Z</time>
      </trkpt>
      <trkpt lat="-28.086295" lon="-65.80732">
        <ele>1023.5</ele>
        <time>2018-08-20T14:38:59Z</time>
      </trkpt>
      <trkpt lat="-28.086385" lon="-65.80728833333333">
        <ele>1023.5</ele>
        <time>2018-08-20T14:39:02Z</time>
      </trkpt>
      <trkpt lat="-28.086485" lon="-65.80726">
        <ele>1023.6</ele>
        <time>2018-08-20T14:39:05Z</time>
      </trkpt>
      <trkpt lat="-28.086565" lon="-65.80723833333333">
        <ele>1023.6</ele>
        <time>2018-08-20T14:39:07Z</time>
      </trkpt>
      <trkpt lat="-28.08664" lon="-65.807215">
        <ele>1024.0</ele>
        <time>2018-08-20T14:39:09Z</time>
      </trkpt>
      <trkpt lat="-28.08674" lon="-65.80719">
        <ele>1024.0</ele>
        <time>2018-08-20T14:39:12Z</time>
      </trkpt>
      <trkpt lat="-28.086815" lon="-65.80715833333333">
        <ele>1024.1</ele>
        <time>2018-08-20T14:39:14Z</time>
      </trkpt>
      <trkpt lat="-28.086885" lon="-65.80714">
        <ele>1024.5</ele>
        <time>2018-08-20T14:39:16Z</time>
      </trkpt>
      <trkpt lat="-28.08696" lon="-65.80712">
        <ele>1025.0</ele>
        <time>2018-08-20T14:39:18Z</time>
      </trkpt>
      <trkpt lat="-28.087035" lon="-65.807095">
        <ele>1025.1</ele>
        <time>2018-08-20T14:39:20Z</time>
      </trkpt>
      <trkpt lat="-28.08711" lon="-65.807075">
        <ele>1025.3</ele>
        <time>2018-08-20T14:39:22Z</time>
      </trkpt>
      <trkpt lat="-28.087185" lon="-65.80705">
        <ele>1025.7</ele>
        <time>2018-08-20T14:39:24Z</time>
      </trkpt>
      <trkpt lat="-28.087265" lon="-65.80703">
        <ele>1026.0</ele>
        <time>2018-08-20T14:39:26Z</time>
      </trkpt>
      <trkpt lat="-28.08734" lon="-65.80701">
        <ele>1026.7</ele>
        <time>2018-08-20T14:39:28Z</time>
      </trkpt>
      <trkpt lat="-28.087425" lon="-65.80699">
        <ele>1027.1</ele>
        <time>2018-08-20T14:39:30Z</time>
      </trkpt>
      <trkpt lat="-28.08752" lon="-65.806965">
        <ele>1026.7</ele>
        <time>2018-08-20T14:39:32Z</time>
      </trkpt>
      <trkpt lat="-28.0876" lon="-65.806945">
        <ele>1026.2</ele>
        <time>2018-08-20T14:39:34Z</time>
      </trkpt>
      <trkpt lat="-28.08768" lon="-65.806925">
        <ele>1025.4</ele>
        <time>2018-08-20T14:39:36Z</time>
      </trkpt>
      <trkpt lat="-28.087771666666665" lon="-65.80688">
        <ele>1024.5</ele>
        <time>2018-08-20T14:39:39Z</time>
      </trkpt>
      <trkpt lat="-28.087851666666666" lon="-65.80685">
        <ele>1024.9</ele>
        <time>2018-08-20T14:39:41Z</time>
      </trkpt>
      <trkpt lat="-28.087945" lon="-65.806825">
        <ele>1025.4</ele>
        <time>2018-08-20T14:39:43Z</time>
      </trkpt>
      <trkpt lat="-28.08803" lon="-65.806805">
        <ele>1025.7</ele>
        <time>2018-08-20T14:39:45Z</time>
      </trkpt>
      <trkpt lat="-28.08811" lon="-65.806775">
        <ele>1026.2</ele>
        <time>2018-08-20T14:39:47Z</time>
      </trkpt>
      <trkpt lat="-28.088195" lon="-65.80674666666667">
        <ele>1026.7</ele>
        <time>2018-08-20T14:39:49Z</time>
      </trkpt>
      <trkpt lat="-28.088285" lon="-65.806725">
        <ele>1027.1</ele>
        <time>2018-08-20T14:39:51Z</time>
      </trkpt>
      <trkpt lat="-28.088365" lon="-65.8067">
        <ele>1027.5</ele>
        <time>2018-08-20T14:39:53Z</time>
      </trkpt>
      <trkpt lat="-28.08847" lon="-65.80667">
        <ele>1027.7</ele>
        <time>2018-08-20T14:39:56Z</time>
      </trkpt>
      <trkpt lat="-28.08855" lon="-65.806645">
        <ele>1027.9</ele>
        <time>2018-08-20T14:39:58Z</time>
      </trkpt>
      <trkpt lat="-28.088625" lon="-65.806625">
        <ele>1027.9</ele>
        <time>2018-08-20T14:40:00Z</time>
      </trkpt>
      <trkpt lat="-28.088695" lon="-65.806605">
        <ele>1028.0</ele>
        <time>2018-08-20T14:40:02Z</time>
      </trkpt>
      <trkpt lat="-28.08879" lon="-65.806585">
        <ele>1027.9</ele>
        <time>2018-08-20T14:40:05Z</time>
      </trkpt>
      <trkpt lat="-28.088885" lon="-65.80655">
        <ele>1027.8</ele>
        <time>2018-08-20T14:40:08Z</time>
      </trkpt>
      <trkpt lat="-28.08899" lon="-65.8065">
        <ele>1027.7</ele>
        <time>2018-08-20T14:40:11Z</time>
      </trkpt>
      <trkpt lat="-28.08907" lon="-65.806485">
        <ele>1027.5</ele>
        <time>2018-08-20T14:40:14Z</time>
      </trkpt>
      <trkpt lat="-28.089145" lon="-65.80646833333333">
        <ele>1027.3</ele>
        <time>2018-08-20T14:40:16Z</time>
      </trkpt>
      <trkpt lat="-28.089216666666665" lon="-65.806445">
        <ele>1027.1</ele>
        <time>2018-08-20T14:40:18Z</time>
      </trkpt>
      <trkpt lat="-28.089286666666666" lon="-65.80642">
        <ele>1026.9</ele>
        <time>2018-08-20T14:40:20Z</time>
      </trkpt>
      <trkpt lat="-28.08939" lon="-65.806385">
        <ele>1026.8</ele>
        <time>2018-08-20T14:40:23Z</time>
      </trkpt>
      <trkpt lat="-28.089475" lon="-65.80637">
        <ele>1026.8</ele>
        <time>2018-08-20T14:40:26Z</time>
      </trkpt>
      <trkpt lat="-28.08956" lon="-65.806345">
        <ele>1026.7</ele>
        <time>2018-08-20T14:40:29Z</time>
      </trkpt>
      <trkpt lat="-28.089645" lon="-65.80633">
        <ele>1026.6</ele>
        <time>2018-08-20T14:40:32Z</time>
      </trkpt>
      <trkpt lat="-28.089715" lon="-65.80630166666667">
        <ele>1026.5</ele>
        <time>2018-08-20T14:40:35Z</time>
      </trkpt>
      <trkpt lat="-28.089775" lon="-65.80627">
        <ele>1026.4</ele>
        <time>2018-08-20T14:40:37Z</time>
      </trkpt>
      <trkpt lat="-28.089865" lon="-65.80624">
        <ele>1026.4</ele>
        <time>2018-08-20T14:40:39Z</time>
      </trkpt>
      <trkpt lat="-28.08994" lon="-65.806215">
        <ele>1026.4</ele>
        <time>2018-08-20T14:40:41Z</time>
      </trkpt>
      <trkpt lat="-28.090035" lon="-65.806195">
        <ele>1026.3</ele>
        <time>2018-08-20T14:40:44Z</time>
      </trkpt>
      <trkpt lat="-28.09014" lon="-65.80616">
        <ele>1025.8</ele>
        <time>2018-08-20T14:40:47Z</time>
      </trkpt>
      <trkpt lat="-28.09025" lon="-65.80611999999999">
        <ele>1026.3</ele>
        <time>2018-08-20T14:40:50Z</time>
      </trkpt>
      <trkpt lat="-28.09033" lon="-65.806105">
        <ele>1026.9</ele>
        <time>2018-08-20T14:40:52Z</time>
      </trkpt>
      <trkpt lat="-28.090415" lon="-65.80608">
        <ele>1027.1</ele>
        <time>2018-08-20T14:40:54Z</time>
      </trkpt>
      <trkpt lat="-28.090485" lon="-65.806065">
        <ele>1027.2</ele>
        <time>2018-08-20T14:40:56Z</time>
      </trkpt>
      <trkpt lat="-28.090555" lon="-65.806055">
        <ele>1027.2</ele>
        <time>2018-08-20T14:40:58Z</time>
      </trkpt>
      <trkpt lat="-28.090625" lon="-65.80602666666667">
        <ele>1027.3</ele>
        <time>2018-08-20T14:41:00Z</time>
      </trkpt>
      <trkpt lat="-28.09071" lon="-65.806005">
        <ele>1027.5</ele>
        <time>2018-08-20T14:41:03Z</time>
      </trkpt>
      <trkpt lat="-28.090795" lon="-65.80598">
        <ele>1027.6</ele>
        <time>2018-08-20T14:41:06Z</time>
      </trkpt>
      <trkpt lat="-28.09087" lon="-65.80596">
        <ele>1027.8</ele>
        <time>2018-08-20T14:41:09Z</time>
      </trkpt>
      <trkpt lat="-28.090945" lon="-65.80593166666667">
        <ele>1028.0</ele>
        <time>2018-08-20T14:41:12Z</time>
      </trkpt>
      <trkpt lat="-28.09102" lon="-65.805895">
        <ele>1028.1</ele>
        <time>2018-08-20T14:41:16Z</time>
      </trkpt>
      <trkpt lat="-28.09109" lon="-65.805885">
        <ele>1028.2</ele>
        <time>2018-08-20T14:41:19Z</time>
      </trkpt>
      <trkpt lat="-28.091175" lon="-65.805865">
        <ele>1028.4</ele>
        <time>2018-08-20T14:41:23Z</time>
      </trkpt>
      <trkpt lat="-28.091255" lon="-65.80584">
        <ele>1028.6</ele>
        <time>2018-08-20T14:41:27Z</time>
      </trkpt>
      <trkpt lat="-28.09135" lon="-65.805805">
        <ele>1028.9</ele>
        <time>2018-08-20T14:41:32Z</time>
      </trkpt>
      <trkpt lat="-28.091435" lon="-65.80578166666666">
        <ele>1029.1</ele>
        <time>2018-08-20T14:41:36Z</time>
      </trkpt>
      <trkpt lat="-28.091505" lon="-65.805755">
        <ele>1029.4</ele>
        <time>2018-08-20T14:41:40Z</time>
      </trkpt>
      <trkpt lat="-28.09158" lon="-65.805725">
        <ele>1029.7</ele>
        <time>2018-08-20T14:41:43Z</time>
      </trkpt>
      <trkpt lat="-28.091665" lon="-65.805705">
        <ele>1030.1</ele>
        <time>2018-08-20T14:41:48Z</time>
      </trkpt>
      <trkpt lat="-28.09174" lon="-65.805685">
        <ele>1030.5</ele>
        <time>2018-08-20T14:41:52Z</time>
      </trkpt>
      <trkpt lat="-28.091825" lon="-65.80566">
        <ele>1030.8</ele>
        <time>2018-08-20T14:41:56Z</time>
      </trkpt>
      <trkpt lat="-28.091915" lon="-65.80564">
        <ele>1030.9</ele>
        <time>2018-08-20T14:42:00Z</time>
      </trkpt>
      <trkpt lat="-28.091983333333335" lon="-65.80562833333333">
        <ele>1030.9</ele>
        <time>2018-08-20T14:42:03Z</time>
      </trkpt>
      <trkpt lat="-28.09208" lon="-65.80561">
        <ele>1030.8</ele>
        <time>2018-08-20T14:42:07Z</time>
      </trkpt>
      <trkpt lat="-28.092161666666666" lon="-65.80558">
        <ele>1030.8</ele>
        <time>2018-08-20T14:42:11Z</time>
      </trkpt>
      <trkpt lat="-28.09225" lon="-65.805545">
        <ele>1030.9</ele>
        <time>2018-08-20T14:42:15Z</time>
      </trkpt>
      <trkpt lat="-28.09234" lon="-65.805515">
        <ele>1031.1</ele>
        <time>2018-08-20T14:42:19Z</time>
      </trkpt>
      <trkpt lat="-28.09242" lon="-65.80547">
        <ele>1031.2</ele>
        <time>2018-08-20T14:42:23Z</time>
      </trkpt>
      <trkpt lat="-28.0925" lon="-65.805425">
        <ele>1031.5</ele>
        <time>2018-08-20T14:42:27Z</time>
      </trkpt>
      <trkpt lat="-28.09258" lon="-65.80538833333334">
        <ele>1031.7</ele>
        <time>2018-08-20T14:42:30Z</time>
      </trkpt>
      <trkpt lat="-28.092665" lon="-65.80535833333333">
        <ele>1032.0</ele>
        <time>2018-08-20T14:42:33Z</time>
      </trkpt>
      <trkpt lat="-28.09274" lon="-65.80533">
        <ele>1032.2</ele>
        <time>2018-08-20T14:42:36Z</time>
      </trkpt>
      <trkpt lat="-28.09284" lon="-65.805285">
        <ele>1032.5</ele>
        <time>2018-08-20T14:42:39Z</time>
      </trkpt>
      <trkpt lat="-28.092915" lon="-65.805255">
        <ele>1032.7</ele>
        <time>2018-08-20T14:42:42Z</time>
      </trkpt>
      <trkpt lat="-28.093003333333332" lon="-65.805215">
        <ele>1032.8</ele>
        <time>2018-08-20T14:42:45Z</time>
      </trkpt>
      <trkpt lat="-28.093085" lon="-65.80517">
        <ele>1033.1</ele>
        <time>2018-08-20T14:42:48Z</time>
      </trkpt>
      <trkpt lat="-28.09318" lon="-65.805125">
        <ele>1033.4</ele>
        <time>2018-08-20T14:42:51Z</time>
      </trkpt>
      <trkpt lat="-28.09326" lon="-65.80508">
        <ele>1033.7</ele>
        <time>2018-08-20T14:42:54Z</time>
      </trkpt>
      <trkpt lat="-28.093335" lon="-65.80503">
        <ele>1033.9</ele>
        <time>2018-08-20T14:42:57Z</time>
      </trkpt>
      <trkpt lat="-28.093415" lon="-65.804985">
        <ele>1034.8</ele>
        <time>2018-08-20T14:42:59Z</time>
      </trkpt>
      <trkpt lat="-28.0935" lon="-65.804935">
        <ele>1036.1</ele>
        <time>2018-08-20T14:43:01Z</time>
      </trkpt>
      <trkpt lat="-28.093605" lon="-65.80488">
        <ele>1036.9</ele>
        <time>2018-08-20T14:43:04Z</time>
      </trkpt>
      <trkpt lat="-28.09367" lon="-65.80484">
        <ele>1036.7</ele>
        <time>2018-08-20T14:43:06Z</time>
      </trkpt>
      <trkpt lat="-28.093745" lon="-65.804785">
        <ele>1036.7</ele>
        <time>2018-08-20T14:43:08Z</time>
      </trkpt>
      <trkpt lat="-28.093815" lon="-65.80475">
        <ele>1036.7</ele>
        <time>2018-08-20T14:43:10Z</time>
      </trkpt>
      <trkpt lat="-28.093885" lon="-65.8047">
        <ele>1036.7</ele>
        <time>2018-08-20T14:43:12Z</time>
      </trkpt>
      <trkpt lat="-28.09396" lon="-65.80464333333333">
        <ele>1036.4</ele>
        <time>2018-08-20T14:43:14Z</time>
      </trkpt>
      <trkpt lat="-28.094035" lon="-65.80459">
        <ele>1035.9</ele>
        <time>2018-08-20T14:43:16Z</time>
      </trkpt>
      <trkpt lat="-28.094105" lon="-65.804545">
        <ele>1035.4</ele>
        <time>2018-08-20T14:43:18Z</time>
      </trkpt>
      <trkpt lat="-28.09419" lon="-65.804485">
        <ele>1035.2</ele>
        <time>2018-08-20T14:43:20Z</time>
      </trkpt>
      <trkpt lat="-28.094275" lon="-65.80443">
        <ele>1035.4</ele>
        <time>2018-08-20T14:43:22Z</time>
      </trkpt>
      <trkpt lat="-28.09435" lon="-65.80439">
        <ele>1036.4</ele>
        <time>2018-08-20T14:43:24Z</time>
      </trkpt>
      <trkpt lat="-28.094435" lon="-65.804335">
        <ele>1037.8</ele>
        <time>2018-08-20T14:43:26Z</time>
      </trkpt>
      <trkpt lat="-28.09451" lon="-65.80428666666667">
        <ele>1038.2</ele>
        <time>2018-08-20T14:43:28Z</time>
      </trkpt>
      <trkpt lat="-28.09459" lon="-65.80423833333333">
        <ele>1038.7</ele>
        <time>2018-08-20T14:43:30Z</time>
      </trkpt>
      <trkpt lat="-28.094675" lon="-65.80418666666667">
        <ele>1039.7</ele>
        <time>2018-08-20T14:43:32Z</time>
      </trkpt>
      <trkpt lat="-28.094745" lon="-65.80414">
        <ele>1040.1</ele>
        <time>2018-08-20T14:43:34Z</time>
      </trkpt>
      <trkpt lat="-28.09483" lon="-65.80409">
        <ele>1041.0</ele>
        <time>2018-08-20T14:43:36Z</time>
      </trkpt>
      <trkpt lat="-28.09491" lon="-65.804035">
        <ele>1040.8</ele>
        <time>2018-08-20T14:43:38Z</time>
      </trkpt>
      <trkpt lat="-28.095" lon="-65.80397333333333">
        <ele>1039.5</ele>
        <time>2018-08-20T14:43:40Z</time>
      </trkpt>
      <trkpt lat="-28.09509" lon="-65.803915">
        <ele>1038.2</ele>
        <time>2018-08-20T14:43:42Z</time>
      </trkpt>
      <trkpt lat="-28.095195" lon="-65.803855">
        <ele>1036.8</ele>
        <time>2018-08-20T14:43:44Z</time>
      </trkpt>
      <trkpt lat="-28.095273333333335" lon="-65.80379">
        <ele>1035.1</ele>
        <time>2018-08-20T14:43:46Z</time>
      </trkpt>
      <trkpt lat="-28.09537" lon="-65.803735">
        <ele>1033.6</ele>
        <time>2018-08-20T14:43:48Z</time>
      </trkpt>
      <trkpt lat="-28.095455" lon="-65.80367">
        <ele>1032.7</ele>
        <time>2018-08-20T14:43:50Z</time>
      </trkpt>
      <trkpt lat="-28.095525" lon="-65.803615">
        <ele>1031.7</ele>
        <time>2018-08-20T14:43:52Z</time>
      </trkpt>
      <trkpt lat="-28.095605" lon="-65.803555">
        <ele>1031.3</ele>
        <time>2018-08-20T14:43:54Z</time>
      </trkpt>
      <trkpt lat="-28.095685" lon="-65.80349">
        <ele>1031.2</ele>
        <time>2018-08-20T14:43:56Z</time>
      </trkpt>
      <trkpt lat="-28.095785" lon="-65.80342833333333">
        <ele>1031.1</ele>
        <time>2018-08-20T14:43:58Z</time>
      </trkpt>
      <trkpt lat="-28.095885" lon="-65.803375">
        <ele>1031.3</ele>
        <time>2018-08-20T14:44:00Z</time>
      </trkpt>
      <trkpt lat="-28.09599" lon="-65.803315">
        <ele>1031.2</ele>
        <time>2018-08-20T14:44:02Z</time>
      </trkpt>
      <trkpt lat="-28.096085" lon="-65.80326333333333">
        <ele>1031.0</ele>
        <time>2018-08-20T14:44:04Z</time>
      </trkpt>
      <trkpt lat="-28.096165" lon="-65.80321666666667">
        <ele>1031.1</ele>
        <time>2018-08-20T14:44:06Z</time>
      </trkpt>
      <trkpt lat="-28.096265" lon="-65.803165">
        <ele>1031.5</ele>
        <time>2018-08-20T14:44:08Z</time>
      </trkpt>
      <trkpt lat="-28.09635" lon="-65.80311">
        <ele>1031.7</ele>
        <time>2018-08-20T14:44:10Z</time>
      </trkpt>
      <trkpt lat="-28.096425" lon="-65.803065">
        <ele>1031.6</ele>
        <time>2018-08-20T14:44:12Z</time>
      </trkpt>
      <trkpt lat="-28.096515" lon="-65.80301">
        <ele>1031.7</ele>
        <time>2018-08-20T14:44:14Z</time>
      </trkpt>
      <trkpt lat="-28.096595" lon="-65.80296">
        <ele>1031.8</ele>
        <time>2018-08-20T14:44:16Z</time>
      </trkpt>
      <trkpt lat="-28.096683333333335" lon="-65.80289833333333">
        <ele>1031.8</ele>
        <time>2018-08-20T14:44:18Z</time>
      </trkpt>
      <trkpt lat="-28.096765" lon="-65.802845">
        <ele>1031.8</ele>
        <time>2018-08-20T14:44:20Z</time>
      </trkpt>
      <trkpt lat="-28.09685" lon="-65.802795">
        <ele>1031.7</ele>
        <time>2018-08-20T14:44:22Z</time>
      </trkpt>
      <trkpt lat="-28.09694" lon="-65.80274">
        <ele>1031.7</ele>
        <time>2018-08-20T14:44:24Z</time>
      </trkpt>
      <trkpt lat="-28.09703" lon="-65.802685">
        <ele>1031.9</ele>
        <time>2018-08-20T14:44:26Z</time>
      </trkpt>
      <trkpt lat="-28.09712" lon="-65.802625">
        <ele>1032.0</ele>
        <time>2018-08-20T14:44:28Z</time>
      </trkpt>
      <trkpt lat="-28.0972" lon="-65.802575">
        <ele>1032.0</ele>
        <time>2018-08-20T14:44:30Z</time>
      </trkpt>
      <trkpt lat="-28.097276666666666" lon="-65.80251666666666">
        <ele>1031.9</ele>
        <time>2018-08-20T14:44:32Z</time>
      </trkpt>
      <trkpt lat="-28.097365" lon="-65.80247">
        <ele>1031.9</ele>
        <time>2018-08-20T14:44:34Z</time>
      </trkpt>
      <trkpt lat="-28.09745" lon="-65.802405">
        <ele>1031.6</ele>
        <time>2018-08-20T14:44:36Z</time>
      </trkpt>
      <trkpt lat="-28.097535" lon="-65.80235">
        <ele>1031.3</ele>
        <time>2018-08-20T14:44:38Z</time>
      </trkpt>
      <trkpt lat="-28.097615" lon="-65.80229">
        <ele>1031.0</ele>
        <time>2018-08-20T14:44:40Z</time>
      </trkpt>
      <trkpt lat="-28.09772" lon="-65.80222666666667">
        <ele>1030.7</ele>
        <time>2018-08-20T14:44:42Z</time>
      </trkpt>
      <trkpt lat="-28.09782" lon="-65.802165">
        <ele>1030.5</ele>
        <time>2018-08-20T14:44:44Z</time>
      </trkpt>
      <trkpt lat="-28.097925" lon="-65.80209166666667">
        <ele>1030.3</ele>
        <time>2018-08-20T14:44:46Z</time>
      </trkpt>
      <trkpt lat="-28.098019999999998" lon="-65.80203">
        <ele>1029.9</ele>
        <time>2018-08-20T14:44:48Z</time>
      </trkpt>
      <trkpt lat="-28.098125" lon="-65.801955">
        <ele>1029.6</ele>
        <time>2018-08-20T14:44:50Z</time>
      </trkpt>
      <trkpt lat="-28.09822" lon="-65.80189">
        <ele>1029.5</ele>
        <time>2018-08-20T14:44:52Z</time>
      </trkpt>
      <trkpt lat="-28.09832" lon="-65.801815">
        <ele>1029.1</ele>
        <time>2018-08-20T14:44:54Z</time>
      </trkpt>
      <trkpt lat="-28.098435" lon="-65.80173333333333">
        <ele>1029.0</ele>
        <time>2018-08-20T14:44:56Z</time>
      </trkpt>
      <trkpt lat="-28.09856" lon="-65.801655">
        <ele>1028.9</ele>
        <time>2018-08-20T14:44:58Z</time>
      </trkpt>
      <trkpt lat="-28.09862" lon="-65.80160666666667">
        <ele>1028.9</ele>
        <time>2018-08-20T14:44:59Z</time>
      </trkpt>
      <trkpt lat="-28.09875" lon="-65.80153">
        <ele>1028.0</ele>
        <time>2018-08-20T14:45:01Z</time>
      </trkpt>
      <trkpt lat="-28.098825" lon="-65.801485">
        <ele>1027.5</ele>
        <time>2018-08-20T14:45:02Z</time>
      </trkpt>
      <trkpt lat="-28.098895" lon="-65.801445">
        <ele>1027.3</ele>
        <time>2018-08-20T14:45:03Z</time>
      </trkpt>
      <trkpt lat="-28.098965" lon="-65.8014">
        <ele>1027.0</ele>
        <time>2018-08-20T14:45:04Z</time>
      </trkpt>
      <trkpt lat="-28.09904" lon="-65.80135">
        <ele>1026.7</ele>
        <time>2018-08-20T14:45:05Z</time>
      </trkpt>
      <trkpt lat="-28.099115" lon="-65.801305">
        <ele>1026.2</ele>
        <time>2018-08-20T14:45:06Z</time>
      </trkpt>
      <trkpt lat="-28.09919" lon="-65.80124833333333">
        <ele>1025.8</ele>
        <time>2018-08-20T14:45:07Z</time>
      </trkpt>
      <trkpt lat="-28.099265" lon="-65.80120166666667">
        <ele>1025.4</ele>
        <time>2018-08-20T14:45:08Z</time>
      </trkpt>
      <trkpt lat="-28.099345" lon="-65.80115166666667">
        <ele>1025.0</ele>
        <time>2018-08-20T14:45:09Z</time>
      </trkpt>
      <trkpt lat="-28.09943" lon="-65.8011">
        <ele>1024.6</ele>
        <time>2018-08-20T14:45:10Z</time>
      </trkpt>
      <trkpt lat="-28.099525" lon="-65.801045">
        <ele>1024.1</ele>
        <time>2018-08-20T14:45:11Z</time>
      </trkpt>
      <trkpt lat="-28.099615" lon="-65.800985">
        <ele>1023.4</ele>
        <time>2018-08-20T14:45:12Z</time>
      </trkpt>
      <trkpt lat="-28.0997" lon="-65.80092833333333">
        <ele>1022.9</ele>
        <time>2018-08-20T14:45:13Z</time>
      </trkpt>
      <trkpt lat="-28.099781666666665" lon="-65.800875">
        <ele>1022.4</ele>
        <time>2018-08-20T14:45:14Z</time>
      </trkpt>
      <trkpt lat="-28.09988" lon="-65.800815">
        <ele>1021.6</ele>
        <time>2018-08-20T14:45:15Z</time>
      </trkpt>
      <trkpt lat="-28.099965" lon="-65.80076">
        <ele>1020.8</ele>
        <time>2018-08-20T14:45:16Z</time>
      </trkpt>
      <trkpt lat="-28.100065" lon="-65.80068833333333">
        <ele>1020.1</ele>
        <time>2018-08-20T14:45:17Z</time>
      </trkpt>
      <trkpt lat="-28.100155" lon="-65.80063">
        <ele>1019.7</ele>
        <time>2018-08-20T14:45:18Z</time>
      </trkpt>
      <trkpt lat="-28.100255" lon="-65.800565">
        <ele>1019.5</ele>
        <time>2018-08-20T14:45:19Z</time>
      </trkpt>
      <trkpt lat="-28.100355" lon="-65.800505">
        <ele>1019.1</ele>
        <time>2018-08-20T14:45:20Z</time>
      </trkpt>
      <trkpt lat="-28.100455" lon="-65.80043166666667">
        <ele>1018.8</ele>
        <time>2018-08-20T14:45:21Z</time>
      </trkpt>
      <trkpt lat="-28.100555" lon="-65.800375">
        <ele>1018.1</ele>
        <time>2018-08-20T14:45:22Z</time>
      </trkpt>
      <trkpt lat="-28.100655" lon="-65.800305">
        <ele>1017.5</ele>
        <time>2018-08-20T14:45:23Z</time>
      </trkpt>
      <trkpt lat="-28.10076" lon="-65.800245">
        <ele>1016.9</ele>
        <time>2018-08-20T14:45:24Z</time>
      </trkpt>
      <trkpt lat="-28.100855" lon="-65.80018">
        <ele>1016.2</ele>
        <time>2018-08-20T14:45:25Z</time>
      </trkpt>
      <trkpt lat="-28.100951666666667" lon="-65.800115">
        <ele>1015.5</ele>
        <time>2018-08-20T14:45:26Z</time>
      </trkpt>
      <trkpt lat="-28.10106" lon="-65.80003833333333">
        <ele>1014.7</ele>
        <time>2018-08-20T14:45:27Z</time>
      </trkpt>
      <trkpt lat="-28.101165" lon="-65.799975">
        <ele>1013.9</ele>
        <time>2018-08-20T14:45:28Z</time>
      </trkpt>
      <trkpt lat="-28.101261666666666" lon="-65.799915">
        <ele>1013.1</ele>
        <time>2018-08-20T14:45:29Z</time>
      </trkpt>
      <trkpt lat="-28.101365" lon="-65.79984666666667">
        <ele>1012.5</ele>
        <time>2018-08-20T14:45:30Z</time>
      </trkpt>
      <trkpt lat="-28.101465" lon="-65.799785">
        <ele>1011.9</ele>
        <time>2018-08-20T14:45:31Z</time>
      </trkpt>
      <trkpt lat="-28.101556666666667" lon="-65.79971833333333">
        <ele>1011.5</ele>
        <time>2018-08-20T14:45:32Z</time>
      </trkpt>
      <trkpt lat="-28.101655" lon="-65.799665">
        <ele>1010.9</ele>
        <time>2018-08-20T14:45:33Z</time>
      </trkpt>
      <trkpt lat="-28.101746666666667" lon="-65.799605">
        <ele>1010.4</ele>
        <time>2018-08-20T14:45:34Z</time>
      </trkpt>
      <trkpt lat="-28.10184" lon="-65.79954333333333">
        <ele>1009.9</ele>
        <time>2018-08-20T14:45:35Z</time>
      </trkpt>
      <trkpt lat="-28.10193" lon="-65.799485">
        <ele>1009.6</ele>
        <time>2018-08-20T14:45:36Z</time>
      </trkpt>
      <trkpt lat="-28.102013333333332" lon="-65.799435">
        <ele>1009.1</ele>
        <time>2018-08-20T14:45:37Z</time>
      </trkpt>
      <trkpt lat="-28.102105" lon="-65.799375">
        <ele>1008.8</ele>
        <time>2018-08-20T14:45:38Z</time>
      </trkpt>
      <trkpt lat="-28.10219" lon="-65.79931666666667">
        <ele>1008.4</ele>
        <time>2018-08-20T14:45:39Z</time>
      </trkpt>
      <trkpt lat="-28.10228" lon="-65.79926166666667">
        <ele>1007.8</ele>
        <time>2018-08-20T14:45:40Z</time>
      </trkpt>
      <trkpt lat="-28.102365" lon="-65.79921">
        <ele>1007.4</ele>
        <time>2018-08-20T14:45:41Z</time>
      </trkpt>
      <trkpt lat="-28.102455" lon="-65.799155">
        <ele>1007.1</ele>
        <time>2018-08-20T14:45:42Z</time>
      </trkpt>
      <trkpt lat="-28.10254" lon="-65.79909666666667">
        <ele>1006.9</ele>
        <time>2018-08-20T14:45:43Z</time>
      </trkpt>
      <trkpt lat="-28.102615" lon="-65.799045">
        <ele>1006.9</ele>
        <time>2018-08-20T14:45:44Z</time>
      </trkpt>
      <trkpt lat="-28.102695" lon="-65.79899">
        <ele>1006.7</ele>
        <time>2018-08-20T14:45:45Z</time>
      </trkpt>
      <trkpt lat="-28.10277" lon="-65.798945">
        <ele>1006.3</ele>
        <time>2018-08-20T14:45:46Z</time>
      </trkpt>
      <trkpt lat="-28.10285" lon="-65.798885">
        <ele>1006.3</ele>
        <time>2018-08-20T14:45:47Z</time>
      </trkpt>
      <trkpt lat="-28.102921666666667" lon="-65.79884">
        <ele>1006.3</ele>
        <time>2018-08-20T14:45:48Z</time>
      </trkpt>
      <trkpt lat="-28.102996666666666" lon="-65.79879">
        <ele>1006.1</ele>
        <time>2018-08-20T14:45:49Z</time>
      </trkpt>
      <trkpt lat="-28.10307" lon="-65.798745">
        <ele>1006.2</ele>
        <time>2018-08-20T14:45:50Z</time>
      </trkpt>
      <trkpt lat="-28.10314" lon="-65.7987">
        <ele>1006.2</ele>
        <time>2018-08-20T14:45:51Z</time>
      </trkpt>
      <trkpt lat="-28.103198333333335" lon="-65.79866">
        <ele>1006.2</ele>
        <time>2018-08-20T14:45:52Z</time>
      </trkpt>
      <trkpt lat="-28.103265" lon="-65.79862">
        <ele>1006.2</ele>
        <time>2018-08-20T14:45:53Z</time>
      </trkpt>
      <trkpt lat="-28.10333" lon="-65.798575">
        <ele>1006.2</ele>
        <time>2018-08-20T14:45:54Z</time>
      </trkpt>
      <trkpt lat="-28.103395" lon="-65.798535">
        <ele>1006.5</ele>
        <time>2018-08-20T14:45:55Z</time>
      </trkpt>
      <trkpt lat="-28.10352" lon="-65.798455">
        <ele>1006.3</ele>
        <time>2018-08-20T14:45:57Z</time>
      </trkpt>
      <trkpt lat="-28.103585" lon="-65.798415">
        <ele>1006.2</ele>
        <time>2018-08-20T14:45:58Z</time>
      </trkpt>
      <trkpt lat="-28.1037" lon="-65.79835">
        <ele>1005.9</ele>
        <time>2018-08-20T14:46:00Z</time>
      </trkpt>
      <trkpt lat="-28.10381" lon="-65.798275">
        <ele>1006.2</ele>
        <time>2018-08-20T14:46:02Z</time>
      </trkpt>
      <trkpt lat="-28.103905" lon="-65.79821">
        <ele>1006.9</ele>
        <time>2018-08-20T14:46:04Z</time>
      </trkpt>
      <trkpt lat="-28.10399" lon="-65.798155">
        <ele>1007.2</ele>
        <time>2018-08-20T14:46:06Z</time>
      </trkpt>
      <trkpt lat="-28.10407" lon="-65.798105">
        <ele>1007.5</ele>
        <time>2018-08-20T14:46:08Z</time>
      </trkpt>
      <trkpt lat="-28.104155" lon="-65.79805166666667">
        <ele>1008.1</ele>
        <time>2018-08-20T14:46:10Z</time>
      </trkpt>
      <trkpt lat="-28.10423" lon="-65.798005">
        <ele>1008.5</ele>
        <time>2018-08-20T14:46:12Z</time>
      </trkpt>
      <trkpt lat="-28.1043" lon="-65.79796">
        <ele>1008.8</ele>
        <time>2018-08-20T14:46:14Z</time>
      </trkpt>
      <trkpt lat="-28.104395" lon="-65.7979">
        <ele>1008.9</ele>
        <time>2018-08-20T14:46:17Z</time>
      </trkpt>
      <trkpt lat="-28.104475" lon="-65.797845">
        <ele>1009.0</ele>
        <time>2018-08-20T14:46:20Z</time>
      </trkpt>
      <trkpt lat="-28.10455" lon="-65.797805">
        <ele>1009.0</ele>
        <time>2018-08-20T14:46:23Z</time>
      </trkpt>
      <trkpt lat="-28.10462" lon="-65.79776">
        <ele>1009.1</ele>
        <time>2018-08-20T14:46:26Z</time>
      </trkpt>
      <trkpt lat="-28.10468" lon="-65.797715">
        <ele>1009.3</ele>
        <time>2018-08-20T14:46:29Z</time>
      </trkpt>
      <trkpt lat="-28.10475" lon="-65.797675">
        <ele>1009.5</ele>
        <time>2018-08-20T14:46:33Z</time>
      </trkpt>
      <trkpt lat="-28.10482" lon="-65.79765833333333">
        <ele>1009.4</ele>
        <time>2018-08-20T14:46:37Z</time>
      </trkpt>
      <trkpt lat="-28.10482" lon="-65.79765833333333">
        <ele>1009.4</ele>
        <time>2018-08-20T14:46:44Z</time>
      </trkpt>
      <trkpt lat="-28.10482" lon="-65.79761">
        <ele>1009.9</ele>
        <time>2018-08-20T14:51:07Z</time>
      </trkpt>
      <trkpt lat="-28.104815" lon="-65.79761">
        <ele>1010.0</ele>
        <time>2018-08-20T14:51:08Z</time>
      </trkpt>
      <trkpt lat="-28.1048" lon="-65.79761166666667">
        <ele>1010.0</ele>
        <time>2018-08-20T14:51:16Z</time>
      </trkpt>
      <trkpt lat="-28.104805" lon="-65.79761333333333">
        <ele>1009.9</ele>
        <time>2018-08-20T14:51:17Z</time>
      </trkpt>
      <trkpt lat="-28.104815" lon="-65.79765">
        <ele>1009.7</ele>
        <time>2018-08-20T14:51:28Z</time>
      </trkpt>
      <trkpt lat="-28.10481" lon="-65.79765">
        <ele>1009.8</ele>
        <time>2018-08-20T14:51:33Z</time>
      </trkpt>
      <trkpt lat="-28.104785" lon="-65.79765">
        <ele>1010.0</ele>
        <time>2018-08-20T14:51:42Z</time>
      </trkpt>
      <trkpt lat="-28.104785" lon="-65.797645">
        <ele>1010.0</ele>
        <time>2018-08-20T14:51:43Z</time>
      </trkpt>
      <trkpt lat="-28.104785" lon="-65.79762">
        <ele>1010.0</ele>
        <time>2018-08-20T14:51:51Z</time>
      </trkpt>
      <trkpt lat="-28.104785" lon="-65.79762166666667">
        <ele>1010.0</ele>
        <time>2018-08-20T14:51:52Z</time>
      </trkpt>
      <trkpt lat="-28.10481" lon="-65.79765">
        <ele>1009.9</ele>
        <time>2018-08-20T14:52:00Z</time>
      </trkpt>
      <trkpt lat="-28.10481" lon="-65.79765166666667">
        <ele>1009.8</ele>
        <time>2018-08-20T14:52:01Z</time>
      </trkpt>
      <trkpt lat="-28.1048" lon="-65.797635">
        <ele>1010.1</ele>
        <time>2018-08-20T14:52:16Z</time>
      </trkpt>
      <trkpt lat="-28.104805" lon="-65.79762166666667">
        <ele>1010.1</ele>
        <time>2018-08-20T14:52:17Z</time>
      </trkpt>
      <trkpt lat="-28.10489" lon="-65.79756833333333">
        <ele>1010.3</ele>
        <time>2018-08-20T14:52:21Z</time>
      </trkpt>
      <trkpt lat="-28.104976666666666" lon="-65.797525">
        <ele>1010.4</ele>
        <time>2018-08-20T14:52:24Z</time>
      </trkpt>
      <trkpt lat="-28.105065" lon="-65.797475">
        <ele>1010.4</ele>
        <time>2018-08-20T14:52:27Z</time>
      </trkpt>
      <trkpt lat="-28.10513" lon="-65.79744">
        <ele>1010.5</ele>
        <time>2018-08-20T14:52:29Z</time>
      </trkpt>
      <trkpt lat="-28.105195" lon="-65.79741">
        <ele>1010.4</ele>
        <time>2018-08-20T14:52:31Z</time>
      </trkpt>
      <trkpt lat="-28.105265" lon="-65.797375">
        <ele>1010.3</ele>
        <time>2018-08-20T14:52:33Z</time>
      </trkpt>
      <trkpt lat="-28.105355" lon="-65.79732">
        <ele>1010.3</ele>
        <time>2018-08-20T14:52:36Z</time>
      </trkpt>
      <trkpt lat="-28.105425" lon="-65.797275">
        <ele>1010.3</ele>
        <time>2018-08-20T14:52:39Z</time>
      </trkpt>
      <trkpt lat="-28.105495" lon="-65.797225">
        <ele>1010.2</ele>
        <time>2018-08-20T14:52:42Z</time>
      </trkpt>
      <trkpt lat="-28.105575" lon="-65.79716666666667">
        <ele>1010.1</ele>
        <time>2018-08-20T14:52:45Z</time>
      </trkpt>
      <trkpt lat="-28.10565" lon="-65.79711666666667">
        <ele>1010.0</ele>
        <time>2018-08-20T14:52:48Z</time>
      </trkpt>
      <trkpt lat="-28.105735" lon="-65.797065">
        <ele>1010.1</ele>
        <time>2018-08-20T14:52:51Z</time>
      </trkpt>
      <trkpt lat="-28.105815" lon="-65.79702">
        <ele>1010.1</ele>
        <time>2018-08-20T14:52:54Z</time>
      </trkpt>
      <trkpt lat="-28.1059" lon="-65.796965">
        <ele>1010.1</ele>
        <time>2018-08-20T14:52:57Z</time>
      </trkpt>
      <trkpt lat="-28.105995" lon="-65.796905">
        <ele>1010.2</ele>
        <time>2018-08-20T14:53:00Z</time>
      </trkpt>
      <trkpt lat="-28.106071666666665" lon="-65.79685666666667">
        <ele>1010.3</ele>
        <time>2018-08-20T14:53:03Z</time>
      </trkpt>
      <trkpt lat="-28.106165" lon="-65.796805">
        <ele>1010.4</ele>
        <time>2018-08-20T14:53:06Z</time>
      </trkpt>
      <trkpt lat="-28.106245" lon="-65.79675666666667">
        <ele>1010.5</ele>
        <time>2018-08-20T14:53:09Z</time>
      </trkpt>
      <trkpt lat="-28.106306666666665" lon="-65.79672">
        <ele>1010.6</ele>
        <time>2018-08-20T14:53:11Z</time>
      </trkpt>
      <trkpt lat="-28.106405" lon="-65.79667666666667">
        <ele>1010.8</ele>
        <time>2018-08-20T14:53:14Z</time>
      </trkpt>
      <trkpt lat="-28.106488333333335" lon="-65.796625">
        <ele>1011.7</ele>
        <time>2018-08-20T14:53:17Z</time>
      </trkpt>
      <trkpt lat="-28.10656" lon="-65.79658666666667">
        <ele>1012.8</ele>
        <time>2018-08-20T14:53:19Z</time>
      </trkpt>
      <trkpt lat="-28.106636666666667" lon="-65.79655">
        <ele>1012.8</ele>
        <time>2018-08-20T14:53:21Z</time>
      </trkpt>
      <trkpt lat="-28.106721666666665" lon="-65.79652">
        <ele>1012.7</ele>
        <time>2018-08-20T14:53:23Z</time>
      </trkpt>
      <trkpt lat="-28.106826666666667" lon="-65.79649">
        <ele>1012.4</ele>
        <time>2018-08-20T14:53:26Z</time>
      </trkpt>
      <trkpt lat="-28.106913333333335" lon="-65.796465">
        <ele>1012.2</ele>
        <time>2018-08-20T14:53:28Z</time>
      </trkpt>
      <trkpt lat="-28.107005" lon="-65.796435">
        <ele>1012.1</ele>
        <time>2018-08-20T14:53:30Z</time>
      </trkpt>
      <trkpt lat="-28.107093333333335" lon="-65.7964">
        <ele>1011.9</ele>
        <time>2018-08-20T14:53:32Z</time>
      </trkpt>
      <trkpt lat="-28.107195" lon="-65.79637">
        <ele>1011.6</ele>
        <time>2018-08-20T14:53:34Z</time>
      </trkpt>
      <trkpt lat="-28.10729" lon="-65.79635">
        <ele>1011.4</ele>
        <time>2018-08-20T14:53:36Z</time>
      </trkpt>
      <trkpt lat="-28.107395" lon="-65.79631833333333">
        <ele>1011.4</ele>
        <time>2018-08-20T14:53:38Z</time>
      </trkpt>
      <trkpt lat="-28.1075" lon="-65.796295">
        <ele>1011.3</ele>
        <time>2018-08-20T14:53:40Z</time>
      </trkpt>
      <trkpt lat="-28.10761" lon="-65.79627">
        <ele>1011.2</ele>
        <time>2018-08-20T14:53:42Z</time>
      </trkpt>
      <trkpt lat="-28.107706666666665" lon="-65.79625">
        <ele>1011.0</ele>
        <time>2018-08-20T14:53:44Z</time>
      </trkpt>
      <trkpt lat="-28.107825" lon="-65.79622833333333">
        <ele>1010.7</ele>
        <time>2018-08-20T14:53:46Z</time>
      </trkpt>
      <trkpt lat="-28.10794" lon="-65.796215">
        <ele>1010.5</ele>
        <time>2018-08-20T14:53:48Z</time>
      </trkpt>
      <trkpt lat="-28.10806" lon="-65.7962">
        <ele>1010.3</ele>
        <time>2018-08-20T14:53:50Z</time>
      </trkpt>
      <trkpt lat="-28.10818" lon="-65.79618666666667">
        <ele>1010.1</ele>
        <time>2018-08-20T14:53:52Z</time>
      </trkpt>
      <trkpt lat="-28.108295" lon="-65.79617666666667">
        <ele>1010.1</ele>
        <time>2018-08-20T14:53:54Z</time>
      </trkpt>
      <trkpt lat="-28.108415" lon="-65.796175">
        <ele>1010.1</ele>
        <time>2018-08-20T14:53:56Z</time>
      </trkpt>
      <trkpt lat="-28.10849" lon="-65.796175">
        <ele>1009.8</ele>
        <time>2018-08-20T14:53:57Z</time>
      </trkpt>
      <trkpt lat="-28.10864" lon="-65.796175">
        <ele>1009.3</ele>
        <time>2018-08-20T14:53:59Z</time>
      </trkpt>
      <trkpt lat="-28.10871" lon="-65.796175">
        <ele>1009.0</ele>
        <time>2018-08-20T14:54:00Z</time>
      </trkpt>
      <trkpt lat="-28.108855" lon="-65.79618166666667">
        <ele>1008.5</ele>
        <time>2018-08-20T14:54:02Z</time>
      </trkpt>
      <trkpt lat="-28.108995" lon="-65.796195">
        <ele>1008.5</ele>
        <time>2018-08-20T14:54:04Z</time>
      </trkpt>
      <trkpt lat="-28.10907" lon="-65.796205">
        <ele>1008.5</ele>
        <time>2018-08-20T14:54:05Z</time>
      </trkpt>
      <trkpt lat="-28.109155" lon="-65.79621">
        <ele>1008.3</ele>
        <time>2018-08-20T14:54:06Z</time>
      </trkpt>
      <trkpt lat="-28.109235" lon="-65.796215">
        <ele>1008.0</ele>
        <time>2018-08-20T14:54:07Z</time>
      </trkpt>
      <trkpt lat="-28.10932" lon="-65.79621666666667">
        <ele>1008.0</ele>
        <time>2018-08-20T14:54:08Z</time>
      </trkpt>
      <trkpt lat="-28.109395" lon="-65.79622333333333">
        <ele>1008.0</ele>
        <time>2018-08-20T14:54:09Z</time>
      </trkpt>
      <trkpt lat="-28.10947" lon="-65.79622833333333">
        <ele>1007.9</ele>
        <time>2018-08-20T14:54:10Z</time>
      </trkpt>
      <trkpt lat="-28.10955" lon="-65.79624">
        <ele>1007.8</ele>
        <time>2018-08-20T14:54:11Z</time>
      </trkpt>
      <trkpt lat="-28.109645" lon="-65.79624">
        <ele>1007.4</ele>
        <time>2018-08-20T14:54:12Z</time>
      </trkpt>
      <trkpt lat="-28.10974" lon="-65.796255">
        <ele>1007.2</ele>
        <time>2018-08-20T14:54:13Z</time>
      </trkpt>
      <trkpt lat="-28.10983" lon="-65.79626">
        <ele>1007.1</ele>
        <time>2018-08-20T14:54:14Z</time>
      </trkpt>
      <trkpt lat="-28.10993" lon="-65.79627">
        <ele>1006.7</ele>
        <time>2018-08-20T14:54:15Z</time>
      </trkpt>
      <trkpt lat="-28.11002" lon="-65.79627">
        <ele>1006.2</ele>
        <time>2018-08-20T14:54:16Z</time>
      </trkpt>
      <trkpt lat="-28.11012" lon="-65.79629">
        <ele>1005.6</ele>
        <time>2018-08-20T14:54:17Z</time>
      </trkpt>
      <trkpt lat="-28.110215" lon="-65.796295">
        <ele>1004.8</ele>
        <time>2018-08-20T14:54:18Z</time>
      </trkpt>
      <trkpt lat="-28.110305" lon="-65.796305">
        <ele>1004.1</ele>
        <time>2018-08-20T14:54:19Z</time>
      </trkpt>
      <trkpt lat="-28.110405" lon="-65.79630666666667">
        <ele>1003.5</ele>
        <time>2018-08-20T14:54:20Z</time>
      </trkpt>
      <trkpt lat="-28.1105" lon="-65.796315">
        <ele>1003.2</ele>
        <time>2018-08-20T14:54:21Z</time>
      </trkpt>
      <trkpt lat="-28.11061" lon="-65.79632166666667">
        <ele>1003.1</ele>
        <time>2018-08-20T14:54:22Z</time>
      </trkpt>
      <trkpt lat="-28.110725" lon="-65.79634">
        <ele>1002.7</ele>
        <time>2018-08-20T14:54:23Z</time>
      </trkpt>
      <trkpt lat="-28.11084" lon="-65.79635">
        <ele>1002.2</ele>
        <time>2018-08-20T14:54:24Z</time>
      </trkpt>
      <trkpt lat="-28.11095" lon="-65.796355">
        <ele>1001.9</ele>
        <time>2018-08-20T14:54:25Z</time>
      </trkpt>
      <trkpt lat="-28.11104" lon="-65.79636166666667">
        <ele>1002.0</ele>
        <time>2018-08-20T14:54:26Z</time>
      </trkpt>
      <trkpt lat="-28.111135" lon="-65.79636833333333">
        <ele>1002.2</ele>
        <time>2018-08-20T14:54:27Z</time>
      </trkpt>
      <trkpt lat="-28.111223333333335" lon="-65.79637166666667">
        <ele>1002.1</ele>
        <time>2018-08-20T14:54:28Z</time>
      </trkpt>
      <trkpt lat="-28.11132" lon="-65.79638">
        <ele>1001.8</ele>
        <time>2018-08-20T14:54:29Z</time>
      </trkpt>
      <trkpt lat="-28.11141" lon="-65.79638166666666">
        <ele>1001.5</ele>
        <time>2018-08-20T14:54:30Z</time>
      </trkpt>
      <trkpt lat="-28.111505" lon="-65.796395">
        <ele>1001.1</ele>
        <time>2018-08-20T14:54:31Z</time>
      </trkpt>
      <trkpt lat="-28.111595" lon="-65.7964">
        <ele>1000.7</ele>
        <time>2018-08-20T14:54:32Z</time>
      </trkpt>
      <trkpt lat="-28.111683333333332" lon="-65.79640333333333">
        <ele>1000.4</ele>
        <time>2018-08-20T14:54:33Z</time>
      </trkpt>
      <trkpt lat="-28.111775" lon="-65.79641">
        <ele>999.9</ele>
        <time>2018-08-20T14:54:34Z</time>
      </trkpt>
      <trkpt lat="-28.111855" lon="-65.79642">
        <ele>999.4</ele>
        <time>2018-08-20T14:54:35Z</time>
      </trkpt>
      <trkpt lat="-28.11193" lon="-65.796425">
        <ele>999.2</ele>
        <time>2018-08-20T14:54:36Z</time>
      </trkpt>
      <trkpt lat="-28.11207" lon="-65.796435">
        <ele>999.0</ele>
        <time>2018-08-20T14:54:38Z</time>
      </trkpt>
      <trkpt lat="-28.1122" lon="-65.79644">
        <ele>999.0</ele>
        <time>2018-08-20T14:54:40Z</time>
      </trkpt>
      <trkpt lat="-28.11232" lon="-65.79645166666667">
        <ele>999.0</ele>
        <time>2018-08-20T14:54:42Z</time>
      </trkpt>
      <trkpt lat="-28.11243" lon="-65.796465">
        <ele>998.9</ele>
        <time>2018-08-20T14:54:44Z</time>
      </trkpt>
      <trkpt lat="-28.112535" lon="-65.796475">
        <ele>998.9</ele>
        <time>2018-08-20T14:54:46Z</time>
      </trkpt>
      <trkpt lat="-28.11262333333333" lon="-65.796485">
        <ele>998.3</ele>
        <time>2018-08-20T14:54:48Z</time>
      </trkpt>
      <trkpt lat="-28.11271" lon="-65.796485">
        <ele>999.4</ele>
        <time>2018-08-20T14:54:50Z</time>
      </trkpt>
      <trkpt lat="-28.11279" lon="-65.79649">
        <ele>1001.0</ele>
        <time>2018-08-20T14:54:52Z</time>
      </trkpt>
      <trkpt lat="-28.112875" lon="-65.79649166666667">
        <ele>1002.2</ele>
        <time>2018-08-20T14:54:54Z</time>
      </trkpt>
      <trkpt lat="-28.11296" lon="-65.79650166666667">
        <ele>1002.9</ele>
        <time>2018-08-20T14:54:56Z</time>
      </trkpt>
      <trkpt lat="-28.113055" lon="-65.796515">
        <ele>1003.1</ele>
        <time>2018-08-20T14:54:58Z</time>
      </trkpt>
      <trkpt lat="-28.11314" lon="-65.79652">
        <ele>1003.2</ele>
        <time>2018-08-20T14:55:00Z</time>
      </trkpt>
      <trkpt lat="-28.113225" lon="-65.79652">
        <ele>1003.4</ele>
        <time>2018-08-20T14:55:02Z</time>
      </trkpt>
      <trkpt lat="-28.113315" lon="-65.79652333333334">
        <ele>1002.9</ele>
        <time>2018-08-20T14:55:04Z</time>
      </trkpt>
      <trkpt lat="-28.113405" lon="-65.79653166666667">
        <ele>1002.8</ele>
        <time>2018-08-20T14:55:06Z</time>
      </trkpt>
      <trkpt lat="-28.113495" lon="-65.796535">
        <ele>1002.6</ele>
        <time>2018-08-20T14:55:08Z</time>
      </trkpt>
      <trkpt lat="-28.113585" lon="-65.79653833333333">
        <ele>1003.4</ele>
        <time>2018-08-20T14:55:10Z</time>
      </trkpt>
      <trkpt lat="-28.11367" lon="-65.79655">
        <ele>1003.8</ele>
        <time>2018-08-20T14:55:12Z</time>
      </trkpt>
      <trkpt lat="-28.113761666666665" lon="-65.79655">
        <ele>1004.0</ele>
        <time>2018-08-20T14:55:14Z</time>
      </trkpt>
      <trkpt lat="-28.113855" lon="-65.79656">
        <ele>1004.2</ele>
        <time>2018-08-20T14:55:16Z</time>
      </trkpt>
      <trkpt lat="-28.11394" lon="-65.796565">
        <ele>1004.3</ele>
        <time>2018-08-20T14:55:18Z</time>
      </trkpt>
      <trkpt lat="-28.11403" lon="-65.79657">
        <ele>1004.9</ele>
        <time>2018-08-20T14:55:20Z</time>
      </trkpt>
      <trkpt lat="-28.114115" lon="-65.79658">
        <ele>1004.8</ele>
        <time>2018-08-20T14:55:22Z</time>
      </trkpt>
      <trkpt lat="-28.114205" lon="-65.79658333333333">
        <ele>1003.9</ele>
        <time>2018-08-20T14:55:24Z</time>
      </trkpt>
      <trkpt lat="-28.1143" lon="-65.796595">
        <ele>1003.5</ele>
        <time>2018-08-20T14:55:26Z</time>
      </trkpt>
      <trkpt lat="-28.11439" lon="-65.79659666666667">
        <ele>1003.9</ele>
        <time>2018-08-20T14:55:28Z</time>
      </trkpt>
      <trkpt lat="-28.11448" lon="-65.79660666666666">
        <ele>1004.2</ele>
        <time>2018-08-20T14:55:30Z</time>
      </trkpt>
      <trkpt lat="-28.11459" lon="-65.79661833333333">
        <ele>1003.6</ele>
        <time>2018-08-20T14:55:32Z</time>
      </trkpt>
      <trkpt lat="-28.1147" lon="-65.79662666666667">
        <ele>1003.4</ele>
        <time>2018-08-20T14:55:34Z</time>
      </trkpt>
      <trkpt lat="-28.1148" lon="-65.79663166666667">
        <ele>1002.9</ele>
        <time>2018-08-20T14:55:36Z</time>
      </trkpt>
      <trkpt lat="-28.114905" lon="-65.796645">
        <ele>1002.5</ele>
        <time>2018-08-20T14:55:38Z</time>
      </trkpt>
      <trkpt lat="-28.115035" lon="-65.796655">
        <ele>1001.5</ele>
        <time>2018-08-20T14:55:40Z</time>
      </trkpt>
      <trkpt lat="-28.11517" lon="-65.796665">
        <ele>999.9</ele>
        <time>2018-08-20T14:55:42Z</time>
      </trkpt>
      <trkpt lat="-28.1153" lon="-65.79667833333333">
        <ele>999.2</ele>
        <time>2018-08-20T14:55:44Z</time>
      </trkpt>
      <trkpt lat="-28.115445" lon="-65.79669">
        <ele>998.1</ele>
        <time>2018-08-20T14:55:46Z</time>
      </trkpt>
      <trkpt lat="-28.11552" lon="-65.79669">
        <ele>997.6</ele>
        <time>2018-08-20T14:55:47Z</time>
      </trkpt>
      <trkpt lat="-28.11567" lon="-65.796705">
        <ele>996.9</ele>
        <time>2018-08-20T14:55:49Z</time>
      </trkpt>
      <trkpt lat="-28.11575" lon="-65.79671">
        <ele>996.5</ele>
        <time>2018-08-20T14:55:50Z</time>
      </trkpt>
      <trkpt lat="-28.11583" lon="-65.79671">
        <ele>996.1</ele>
        <time>2018-08-20T14:55:51Z</time>
      </trkpt>
      <trkpt lat="-28.115915" lon="-65.796705">
        <ele>995.8</ele>
        <time>2018-08-20T14:55:52Z</time>
      </trkpt>
      <trkpt lat="-28.115991666666666" lon="-65.796705">
        <ele>995.4</ele>
        <time>2018-08-20T14:55:53Z</time>
      </trkpt>
      <trkpt lat="-28.11607" lon="-65.7967">
        <ele>995.6</ele>
        <time>2018-08-20T14:55:54Z</time>
      </trkpt>
      <trkpt lat="-28.116156666666665" lon="-65.79669">
        <ele>995.6</ele>
        <time>2018-08-20T14:55:55Z</time>
      </trkpt>
      <trkpt lat="-28.11624" lon="-65.79667666666667">
        <ele>995.7</ele>
        <time>2018-08-20T14:55:56Z</time>
      </trkpt>
      <trkpt lat="-28.116345" lon="-65.796665">
        <ele>995.5</ele>
        <time>2018-08-20T14:55:57Z</time>
      </trkpt>
      <trkpt lat="-28.11644" lon="-65.79665">
        <ele>995.7</ele>
        <time>2018-08-20T14:55:58Z</time>
      </trkpt>
      <trkpt lat="-28.116535" lon="-65.79662833333333">
        <ele>995.9</ele>
        <time>2018-08-20T14:55:59Z</time>
      </trkpt>
      <trkpt lat="-28.11664" lon="-65.796605">
        <ele>996.1</ele>
        <time>2018-08-20T14:56:00Z</time>
      </trkpt>
      <trkpt lat="-28.11674" lon="-65.79658">
        <ele>996.3</ele>
        <time>2018-08-20T14:56:01Z</time>
      </trkpt>
      <trkpt lat="-28.11684" lon="-65.79655">
        <ele>996.3</ele>
        <time>2018-08-20T14:56:02Z</time>
      </trkpt>
      <trkpt lat="-28.11695" lon="-65.79652">
        <ele>996.3</ele>
        <time>2018-08-20T14:56:03Z</time>
      </trkpt>
      <trkpt lat="-28.117055" lon="-65.79648">
        <ele>996.2</ele>
        <time>2018-08-20T14:56:04Z</time>
      </trkpt>
      <trkpt lat="-28.117165" lon="-65.79644">
        <ele>996.1</ele>
        <time>2018-08-20T14:56:05Z</time>
      </trkpt>
      <trkpt lat="-28.11727" lon="-65.796395">
        <ele>996.0</ele>
        <time>2018-08-20T14:56:06Z</time>
      </trkpt>
      <trkpt lat="-28.117375" lon="-65.79634">
        <ele>995.9</ele>
        <time>2018-08-20T14:56:07Z</time>
      </trkpt>
      <trkpt lat="-28.117465" lon="-65.796285">
        <ele>995.5</ele>
        <time>2018-08-20T14:56:08Z</time>
      </trkpt>
      <trkpt lat="-28.117565" lon="-65.79621666666667">
        <ele>995.0</ele>
        <time>2018-08-20T14:56:09Z</time>
      </trkpt>
      <trkpt lat="-28.11766" lon="-65.796155">
        <ele>994.2</ele>
        <time>2018-08-20T14:56:10Z</time>
      </trkpt>
      <trkpt lat="-28.117745" lon="-65.79609">
        <ele>993.2</ele>
        <time>2018-08-20T14:56:11Z</time>
      </trkpt>
      <trkpt lat="-28.11784" lon="-65.796015">
        <ele>992.1</ele>
        <time>2018-08-20T14:56:12Z</time>
      </trkpt>
      <trkpt lat="-28.117926666666666" lon="-65.79595">
        <ele>991.1</ele>
        <time>2018-08-20T14:56:13Z</time>
      </trkpt>
      <trkpt lat="-28.118015" lon="-65.795885">
        <ele>990.1</ele>
        <time>2018-08-20T14:56:14Z</time>
      </trkpt>
      <trkpt lat="-28.118105" lon="-65.79581166666667">
        <ele>989.0</ele>
        <time>2018-08-20T14:56:15Z</time>
      </trkpt>
      <trkpt lat="-28.118195" lon="-65.79575">
        <ele>987.7</ele>
        <time>2018-08-20T14:56:16Z</time>
      </trkpt>
      <trkpt lat="-28.118285" lon="-65.79568">
        <ele>986.8</ele>
        <time>2018-08-20T14:56:17Z</time>
      </trkpt>
      <trkpt lat="-28.11837" lon="-65.79561">
        <ele>985.8</ele>
        <time>2018-08-20T14:56:18Z</time>
      </trkpt>
      <trkpt lat="-28.11845" lon="-65.79554166666667">
        <ele>984.9</ele>
        <time>2018-08-20T14:56:19Z</time>
      </trkpt>
      <trkpt lat="-28.11853" lon="-65.79548">
        <ele>984.1</ele>
        <time>2018-08-20T14:56:20Z</time>
      </trkpt>
      <trkpt lat="-28.11861" lon="-65.795415">
        <ele>983.3</ele>
        <time>2018-08-20T14:56:21Z</time>
      </trkpt>
      <trkpt lat="-28.118688333333335" lon="-65.79534">
        <ele>982.8</ele>
        <time>2018-08-20T14:56:22Z</time>
      </trkpt>
      <trkpt lat="-28.118765" lon="-65.795275">
        <ele>982.3</ele>
        <time>2018-08-20T14:56:23Z</time>
      </trkpt>
      <trkpt lat="-28.118845" lon="-65.795215">
        <ele>982.0</ele>
        <time>2018-08-20T14:56:24Z</time>
      </trkpt>
      <trkpt lat="-28.11892" lon="-65.79514666666667">
        <ele>981.8</ele>
        <time>2018-08-20T14:56:25Z</time>
      </trkpt>
      <trkpt lat="-28.119005" lon="-65.795095">
        <ele>981.6</ele>
        <time>2018-08-20T14:56:26Z</time>
      </trkpt>
      <trkpt lat="-28.11908" lon="-65.79504">
        <ele>981.5</ele>
        <time>2018-08-20T14:56:27Z</time>
      </trkpt>
      <trkpt lat="-28.119155" lon="-65.79499">
        <ele>981.4</ele>
        <time>2018-08-20T14:56:28Z</time>
      </trkpt>
      <trkpt lat="-28.119225" lon="-65.794945">
        <ele>981.6</ele>
        <time>2018-08-20T14:56:29Z</time>
      </trkpt>
      <trkpt lat="-28.119291666666665" lon="-65.794905">
        <ele>981.8</ele>
        <time>2018-08-20T14:56:30Z</time>
      </trkpt>
      <trkpt lat="-28.11937" lon="-65.79486">
        <ele>982.2</ele>
        <time>2018-08-20T14:56:31Z</time>
      </trkpt>
      <trkpt lat="-28.11944" lon="-65.79482">
        <ele>982.5</ele>
        <time>2018-08-20T14:56:32Z</time>
      </trkpt>
      <trkpt lat="-28.119515" lon="-65.79477833333334">
        <ele>982.9</ele>
        <time>2018-08-20T14:56:33Z</time>
      </trkpt>
      <trkpt lat="-28.11958" lon="-65.79474666666667">
        <ele>983.2</ele>
        <time>2018-08-20T14:56:34Z</time>
      </trkpt>
      <trkpt lat="-28.11969" lon="-65.7947">
        <ele>983.6</ele>
        <time>2018-08-20T14:56:36Z</time>
      </trkpt>
      <trkpt lat="-28.119795" lon="-65.79466166666667">
        <ele>983.7</ele>
        <time>2018-08-20T14:56:38Z</time>
      </trkpt>
      <trkpt lat="-28.11989" lon="-65.794635">
        <ele>983.3</ele>
        <time>2018-08-20T14:56:40Z</time>
      </trkpt>
      <trkpt lat="-28.11999" lon="-65.79461">
        <ele>983.1</ele>
        <time>2018-08-20T14:56:42Z</time>
      </trkpt>
      <trkpt lat="-28.120085" lon="-65.79459">
        <ele>983.7</ele>
        <time>2018-08-20T14:56:44Z</time>
      </trkpt>
      <trkpt lat="-28.120185" lon="-65.79456666666667">
        <ele>984.0</ele>
        <time>2018-08-20T14:56:46Z</time>
      </trkpt>
      <trkpt lat="-28.120288333333335" lon="-65.79455">
        <ele>983.2</ele>
        <time>2018-08-20T14:56:48Z</time>
      </trkpt>
      <trkpt lat="-28.120385" lon="-65.794545">
        <ele>982.8</ele>
        <time>2018-08-20T14:56:50Z</time>
      </trkpt>
      <trkpt lat="-28.120475" lon="-65.79452333333333">
        <ele>983.0</ele>
        <time>2018-08-20T14:56:52Z</time>
      </trkpt>
      <trkpt lat="-28.120565" lon="-65.79452">
        <ele>982.7</ele>
        <time>2018-08-20T14:56:54Z</time>
      </trkpt>
      <trkpt lat="-28.12065" lon="-65.79451666666667">
        <ele>982.2</ele>
        <time>2018-08-20T14:56:56Z</time>
      </trkpt>
      <trkpt lat="-28.120755" lon="-65.794515">
        <ele>982.2</ele>
        <time>2018-08-20T14:56:59Z</time>
      </trkpt>
      <trkpt lat="-28.12086" lon="-65.794515">
        <ele>982.2</ele>
        <time>2018-08-20T14:57:02Z</time>
      </trkpt>
      <trkpt lat="-28.120955" lon="-65.794515">
        <ele>982.2</ele>
        <time>2018-08-20T14:57:05Z</time>
      </trkpt>
      <trkpt lat="-28.121045" lon="-65.794515">
        <ele>982.4</ele>
        <time>2018-08-20T14:57:08Z</time>
      </trkpt>
      <trkpt lat="-28.12115" lon="-65.79452">
        <ele>982.6</ele>
        <time>2018-08-20T14:57:11Z</time>
      </trkpt>
      <trkpt lat="-28.121228333333335" lon="-65.79452333333333">
        <ele>982.7</ele>
        <time>2018-08-20T14:57:13Z</time>
      </trkpt>
      <trkpt lat="-28.121305" lon="-65.79453333333333">
        <ele>984.1</ele>
        <time>2018-08-20T14:57:15Z</time>
      </trkpt>
      <trkpt lat="-28.121375" lon="-65.79454">
        <ele>984.9</ele>
        <time>2018-08-20T14:57:17Z</time>
      </trkpt>
      <trkpt lat="-28.121451666666665" lon="-65.794545">
        <ele>985.2</ele>
        <time>2018-08-20T14:57:19Z</time>
      </trkpt>
      <trkpt lat="-28.12154" lon="-65.79455">
        <ele>985.5</ele>
        <time>2018-08-20T14:57:21Z</time>
      </trkpt>
      <trkpt lat="-28.12162" lon="-65.79455666666667">
        <ele>985.9</ele>
        <time>2018-08-20T14:57:23Z</time>
      </trkpt>
      <trkpt lat="-28.121705" lon="-65.79456666666667">
        <ele>986.1</ele>
        <time>2018-08-20T14:57:25Z</time>
      </trkpt>
      <trkpt lat="-28.12179" lon="-65.79458">
        <ele>986.1</ele>
        <time>2018-08-20T14:57:27Z</time>
      </trkpt>
      <trkpt lat="-28.121865" lon="-65.79458">
        <ele>985.6</ele>
        <time>2018-08-20T14:57:29Z</time>
      </trkpt>
      <trkpt lat="-28.121945" lon="-65.79458">
        <ele>985.4</ele>
        <time>2018-08-20T14:57:31Z</time>
      </trkpt>
      <trkpt lat="-28.12204" lon="-65.794595">
        <ele>984.9</ele>
        <time>2018-08-20T14:57:33Z</time>
      </trkpt>
      <trkpt lat="-28.122135" lon="-65.7946">
        <ele>984.7</ele>
        <time>2018-08-20T14:57:35Z</time>
      </trkpt>
      <trkpt lat="-28.12222" lon="-65.79461">
        <ele>984.5</ele>
        <time>2018-08-20T14:57:37Z</time>
      </trkpt>
      <trkpt lat="-28.1223" lon="-65.79461666666667">
        <ele>984.4</ele>
        <time>2018-08-20T14:57:39Z</time>
      </trkpt>
      <trkpt lat="-28.122395" lon="-65.794625">
        <ele>984.7</ele>
        <time>2018-08-20T14:57:41Z</time>
      </trkpt>
      <trkpt lat="-28.12248" lon="-65.794635">
        <ele>984.3</ele>
        <time>2018-08-20T14:57:43Z</time>
      </trkpt>
      <trkpt lat="-28.12256" lon="-65.794645">
        <ele>984.5</ele>
        <time>2018-08-20T14:57:45Z</time>
      </trkpt>
      <trkpt lat="-28.122636666666665" lon="-65.794645">
        <ele>984.6</ele>
        <time>2018-08-20T14:57:47Z</time>
      </trkpt>
      <trkpt lat="-28.12274" lon="-65.794655">
        <ele>985.7</ele>
        <time>2018-08-20T14:57:50Z</time>
      </trkpt>
      <trkpt lat="-28.122835" lon="-65.794655">
        <ele>986.0</ele>
        <time>2018-08-20T14:57:52Z</time>
      </trkpt>
      <trkpt lat="-28.12293" lon="-65.79466166666667">
        <ele>986.0</ele>
        <time>2018-08-20T14:57:54Z</time>
      </trkpt>
      <trkpt lat="-28.123025" lon="-65.794665">
        <ele>986.3</ele>
        <time>2018-08-20T14:57:56Z</time>
      </trkpt>
      <trkpt lat="-28.12312" lon="-65.794675">
        <ele>986.6</ele>
        <time>2018-08-20T14:57:58Z</time>
      </trkpt>
      <trkpt lat="-28.123225" lon="-65.79468">
        <ele>986.6</ele>
        <time>2018-08-20T14:58:00Z</time>
      </trkpt>
      <trkpt lat="-28.123335" lon="-65.794685">
        <ele>986.3</ele>
        <time>2018-08-20T14:58:02Z</time>
      </trkpt>
      <trkpt lat="-28.12344" lon="-65.79469">
        <ele>986.2</ele>
        <time>2018-08-20T14:58:04Z</time>
      </trkpt>
      <trkpt lat="-28.12355" lon="-65.79469">
        <ele>986.3</ele>
        <time>2018-08-20T14:58:06Z</time>
      </trkpt>
      <trkpt lat="-28.123656666666665" lon="-65.794685">
        <ele>986.0</ele>
        <time>2018-08-20T14:58:08Z</time>
      </trkpt>
      <trkpt lat="-28.123775" lon="-65.79468">
        <ele>985.7</ele>
        <time>2018-08-20T14:58:10Z</time>
      </trkpt>
      <trkpt lat="-28.12388" lon="-65.79466666666667">
        <ele>985.3</ele>
        <time>2018-08-20T14:58:12Z</time>
      </trkpt>
      <trkpt lat="-28.124005" lon="-65.79466166666667">
        <ele>984.5</ele>
        <time>2018-08-20T14:58:14Z</time>
      </trkpt>
      <trkpt lat="-28.124125" lon="-65.794655">
        <ele>983.7</ele>
        <time>2018-08-20T14:58:16Z</time>
      </trkpt>
      <trkpt lat="-28.124225" lon="-65.794645">
        <ele>983.4</ele>
        <time>2018-08-20T14:58:18Z</time>
      </trkpt>
      <trkpt lat="-28.12433" lon="-65.794625">
        <ele>983.5</ele>
        <time>2018-08-20T14:58:20Z</time>
      </trkpt>
      <trkpt lat="-28.124435" lon="-65.7946">
        <ele>983.8</ele>
        <time>2018-08-20T14:58:22Z</time>
      </trkpt>
      <trkpt lat="-28.124545" lon="-65.79458">
        <ele>983.9</ele>
        <time>2018-08-20T14:58:24Z</time>
      </trkpt>
      <trkpt lat="-28.124655" lon="-65.79455">
        <ele>984.0</ele>
        <time>2018-08-20T14:58:26Z</time>
      </trkpt>
      <trkpt lat="-28.12476" lon="-65.79452">
        <ele>984.0</ele>
        <time>2018-08-20T14:58:28Z</time>
      </trkpt>
      <trkpt lat="-28.124865" lon="-65.794495">
        <ele>983.9</ele>
        <time>2018-08-20T14:58:30Z</time>
      </trkpt>
      <trkpt lat="-28.124965" lon="-65.794465">
        <ele>984.0</ele>
        <time>2018-08-20T14:58:32Z</time>
      </trkpt>
      <trkpt lat="-28.125065" lon="-65.79443">
        <ele>984.2</ele>
        <time>2018-08-20T14:58:34Z</time>
      </trkpt>
      <trkpt lat="-28.125155" lon="-65.79439666666667">
        <ele>984.3</ele>
        <time>2018-08-20T14:58:36Z</time>
      </trkpt>
      <trkpt lat="-28.125245" lon="-65.79437">
        <ele>984.2</ele>
        <time>2018-08-20T14:58:38Z</time>
      </trkpt>
      <trkpt lat="-28.125345" lon="-65.794325">
        <ele>984.4</ele>
        <time>2018-08-20T14:58:40Z</time>
      </trkpt>
      <trkpt lat="-28.125438333333335" lon="-65.79429">
        <ele>984.7</ele>
        <time>2018-08-20T14:58:42Z</time>
      </trkpt>
      <trkpt lat="-28.12554" lon="-65.79424666666667">
        <ele>984.9</ele>
        <time>2018-08-20T14:58:44Z</time>
      </trkpt>
      <trkpt lat="-28.125645" lon="-65.794205">
        <ele>985.4</ele>
        <time>2018-08-20T14:58:46Z</time>
      </trkpt>
      <trkpt lat="-28.12575" lon="-65.79416">
        <ele>985.7</ele>
        <time>2018-08-20T14:58:48Z</time>
      </trkpt>
      <trkpt lat="-28.125845" lon="-65.79412">
        <ele>986.0</ele>
        <time>2018-08-20T14:58:50Z</time>
      </trkpt>
      <trkpt lat="-28.125935" lon="-65.79406666666667">
        <ele>986.2</ele>
        <time>2018-08-20T14:58:52Z</time>
      </trkpt>
      <trkpt lat="-28.12604" lon="-65.794015">
        <ele>986.7</ele>
        <time>2018-08-20T14:58:54Z</time>
      </trkpt>
      <trkpt lat="-28.126145" lon="-65.79396">
        <ele>987.2</ele>
        <time>2018-08-20T14:58:56Z</time>
      </trkpt>
      <trkpt lat="-28.12625" lon="-65.793905">
        <ele>987.0</ele>
        <time>2018-08-20T14:58:58Z</time>
      </trkpt>
      <trkpt lat="-28.126355" lon="-65.79385">
        <ele>986.7</ele>
        <time>2018-08-20T14:59:00Z</time>
      </trkpt>
      <trkpt lat="-28.126465" lon="-65.79379333333333">
        <ele>986.6</ele>
        <time>2018-08-20T14:59:02Z</time>
      </trkpt>
      <trkpt lat="-28.126566666666665" lon="-65.79375">
        <ele>986.3</ele>
        <time>2018-08-20T14:59:04Z</time>
      </trkpt>
      <trkpt lat="-28.126675" lon="-65.7937">
        <ele>985.9</ele>
        <time>2018-08-20T14:59:06Z</time>
      </trkpt>
      <trkpt lat="-28.126785" lon="-65.79364">
        <ele>985.7</ele>
        <time>2018-08-20T14:59:08Z</time>
      </trkpt>
      <trkpt lat="-28.126895" lon="-65.793595">
        <ele>985.3</ele>
        <time>2018-08-20T14:59:10Z</time>
      </trkpt>
      <trkpt lat="-28.126991666666665" lon="-65.793535">
        <ele>984.9</ele>
        <time>2018-08-20T14:59:12Z</time>
      </trkpt>
      <trkpt lat="-28.127095" lon="-65.793485">
        <ele>984.5</ele>
        <time>2018-08-20T14:59:14Z</time>
      </trkpt>
      <trkpt lat="-28.1272" lon="-65.793435">
        <ele>984.3</ele>
        <time>2018-08-20T14:59:16Z</time>
      </trkpt>
      <trkpt lat="-28.127315" lon="-65.79338">
        <ele>984.6</ele>
        <time>2018-08-20T14:59:18Z</time>
      </trkpt>
      <trkpt lat="-28.12740833333333" lon="-65.79333">
        <ele>984.5</ele>
        <time>2018-08-20T14:59:20Z</time>
      </trkpt>
      <trkpt lat="-28.127516666666665" lon="-65.79327166666667">
        <ele>983.8</ele>
        <time>2018-08-20T14:59:22Z</time>
      </trkpt>
      <trkpt lat="-28.12763" lon="-65.79322">
        <ele>983.4</ele>
        <time>2018-08-20T14:59:24Z</time>
      </trkpt>
      <trkpt lat="-28.12774" lon="-65.79316">
        <ele>982.8</ele>
        <time>2018-08-20T14:59:26Z</time>
      </trkpt>
      <trkpt lat="-28.12785" lon="-65.79311">
        <ele>982.0</ele>
        <time>2018-08-20T14:59:28Z</time>
      </trkpt>
      <trkpt lat="-28.127955" lon="-65.79305">
        <ele>981.5</ele>
        <time>2018-08-20T14:59:30Z</time>
      </trkpt>
      <trkpt lat="-28.12806" lon="-65.79299666666667">
        <ele>981.3</ele>
        <time>2018-08-20T14:59:32Z</time>
      </trkpt>
      <trkpt lat="-28.128155" lon="-65.79295">
        <ele>981.2</ele>
        <time>2018-08-20T14:59:34Z</time>
      </trkpt>
      <trkpt lat="-28.128255" lon="-65.79290166666667">
        <ele>980.7</ele>
        <time>2018-08-20T14:59:36Z</time>
      </trkpt>
      <trkpt lat="-28.128355" lon="-65.79285">
        <ele>980.4</ele>
        <time>2018-08-20T14:59:38Z</time>
      </trkpt>
      <trkpt lat="-28.12845" lon="-65.792805">
        <ele>980.2</ele>
        <time>2018-08-20T14:59:40Z</time>
      </trkpt>
      <trkpt lat="-28.128555" lon="-65.79275">
        <ele>979.9</ele>
        <time>2018-08-20T14:59:42Z</time>
      </trkpt>
      <trkpt lat="-28.12865" lon="-65.792705">
        <ele>979.3</ele>
        <time>2018-08-20T14:59:44Z</time>
      </trkpt>
      <trkpt lat="-28.12876" lon="-65.79264333333333">
        <ele>979.4</ele>
        <time>2018-08-20T14:59:46Z</time>
      </trkpt>
      <trkpt lat="-28.12887" lon="-65.79259166666667">
        <ele>979.3</ele>
        <time>2018-08-20T14:59:48Z</time>
      </trkpt>
      <trkpt lat="-28.12898" lon="-65.79254">
        <ele>979.2</ele>
        <time>2018-08-20T14:59:50Z</time>
      </trkpt>
      <trkpt lat="-28.129085" lon="-65.79248">
        <ele>979.3</ele>
        <time>2018-08-20T14:59:52Z</time>
      </trkpt>
      <trkpt lat="-28.12917" lon="-65.79244">
        <ele>978.9</ele>
        <time>2018-08-20T14:59:54Z</time>
      </trkpt>
      <trkpt lat="-28.129265" lon="-65.792385">
        <ele>978.6</ele>
        <time>2018-08-20T14:59:56Z</time>
      </trkpt>
      <trkpt lat="-28.12934" lon="-65.792355">
        <ele>978.2</ele>
        <time>2018-08-20T14:59:58Z</time>
      </trkpt>
      <trkpt lat="-28.129425" lon="-65.79232">
        <ele>978.0</ele>
        <time>2018-08-20T15:00:00Z</time>
      </trkpt>
      <trkpt lat="-28.12951" lon="-65.79227666666667">
        <ele>978.0</ele>
        <time>2018-08-20T15:00:02Z</time>
      </trkpt>
      <trkpt lat="-28.129585" lon="-65.792235">
        <ele>977.9</ele>
        <time>2018-08-20T15:00:04Z</time>
      </trkpt>
      <trkpt lat="-28.12968" lon="-65.79219">
        <ele>978.3</ele>
        <time>2018-08-20T15:00:06Z</time>
      </trkpt>
      <trkpt lat="-28.129775" lon="-65.79214333333333">
        <ele>978.5</ele>
        <time>2018-08-20T15:00:08Z</time>
      </trkpt>
      <trkpt lat="-28.12986" lon="-65.792095">
        <ele>978.7</ele>
        <time>2018-08-20T15:00:10Z</time>
      </trkpt>
      <trkpt lat="-28.12996" lon="-65.792045">
        <ele>978.8</ele>
        <time>2018-08-20T15:00:12Z</time>
      </trkpt>
      <trkpt lat="-28.13005" lon="-65.792005">
        <ele>978.6</ele>
        <time>2018-08-20T15:00:14Z</time>
      </trkpt>
      <trkpt lat="-28.130145" lon="-65.791965">
        <ele>979.1</ele>
        <time>2018-08-20T15:00:16Z</time>
      </trkpt>
      <trkpt lat="-28.13024" lon="-65.791925">
        <ele>979.6</ele>
        <time>2018-08-20T15:00:18Z</time>
      </trkpt>
      <trkpt lat="-28.130328333333335" lon="-65.79188">
        <ele>979.9</ele>
        <time>2018-08-20T15:00:20Z</time>
      </trkpt>
      <trkpt lat="-28.130425" lon="-65.79183166666667">
        <ele>980.2</ele>
        <time>2018-08-20T15:00:22Z</time>
      </trkpt>
      <trkpt lat="-28.130508333333335" lon="-65.79179">
        <ele>980.5</ele>
        <time>2018-08-20T15:00:24Z</time>
      </trkpt>
      <trkpt lat="-28.1306" lon="-65.791745">
        <ele>980.6</ele>
        <time>2018-08-20T15:00:26Z</time>
      </trkpt>
      <trkpt lat="-28.13069" lon="-65.79170333333333">
        <ele>980.8</ele>
        <time>2018-08-20T15:00:28Z</time>
      </trkpt>
      <trkpt lat="-28.13079" lon="-65.791655">
        <ele>981.1</ele>
        <time>2018-08-20T15:00:30Z</time>
      </trkpt>
      <trkpt lat="-28.13088" lon="-65.79160833333333">
        <ele>981.5</ele>
        <time>2018-08-20T15:00:32Z</time>
      </trkpt>
      <trkpt lat="-28.130965" lon="-65.79156166666667">
        <ele>982.2</ele>
        <time>2018-08-20T15:00:34Z</time>
      </trkpt>
      <trkpt lat="-28.13105" lon="-65.79152166666667">
        <ele>982.1</ele>
        <time>2018-08-20T15:00:36Z</time>
      </trkpt>
      <trkpt lat="-28.131121666666665" lon="-65.79148333333333">
        <ele>980.9</ele>
        <time>2018-08-20T15:00:38Z</time>
      </trkpt>
      <trkpt lat="-28.13121" lon="-65.79144166666667">
        <ele>980.3</ele>
        <time>2018-08-20T15:00:40Z</time>
      </trkpt>
      <trkpt lat="-28.13129" lon="-65.7914">
        <ele>980.1</ele>
        <time>2018-08-20T15:00:42Z</time>
      </trkpt>
      <trkpt lat="-28.131365" lon="-65.79137">
        <ele>979.8</ele>
        <time>2018-08-20T15:00:44Z</time>
      </trkpt>
      <trkpt lat="-28.13145" lon="-65.791345">
        <ele>979.9</ele>
        <time>2018-08-20T15:00:46Z</time>
      </trkpt>
      <trkpt lat="-28.131528333333332" lon="-65.791305">
        <ele>980.5</ele>
        <time>2018-08-20T15:00:48Z</time>
      </trkpt>
      <trkpt lat="-28.131615" lon="-65.791285">
        <ele>981.2</ele>
        <time>2018-08-20T15:00:50Z</time>
      </trkpt>
      <trkpt lat="-28.13169" lon="-65.791255">
        <ele>981.8</ele>
        <time>2018-08-20T15:00:52Z</time>
      </trkpt>
      <trkpt lat="-28.13177" lon="-65.79123">
        <ele>981.7</ele>
        <time>2018-08-20T15:00:54Z</time>
      </trkpt>
      <trkpt lat="-28.131845" lon="-65.791205">
        <ele>981.5</ele>
        <time>2018-08-20T15:00:56Z</time>
      </trkpt>
      <trkpt lat="-28.131925" lon="-65.791175">
        <ele>981.2</ele>
        <time>2018-08-20T15:00:58Z</time>
      </trkpt>
      <trkpt lat="-28.132015" lon="-65.791155">
        <ele>980.6</ele>
        <time>2018-08-20T15:01:00Z</time>
      </trkpt>
      <trkpt lat="-28.132106666666665" lon="-65.791135">
        <ele>979.6</ele>
        <time>2018-08-20T15:01:02Z</time>
      </trkpt>
      <trkpt lat="-28.132211666666667" lon="-65.79111">
        <ele>979.2</ele>
        <time>2018-08-20T15:01:04Z</time>
      </trkpt>
      <trkpt lat="-28.13232" lon="-65.79109">
        <ele>979.7</ele>
        <time>2018-08-20T15:01:06Z</time>
      </trkpt>
      <trkpt lat="-28.13242" lon="-65.79106">
        <ele>979.3</ele>
        <time>2018-08-20T15:01:08Z</time>
      </trkpt>
      <trkpt lat="-28.13252" lon="-65.79105">
        <ele>978.2</ele>
        <time>2018-08-20T15:01:10Z</time>
      </trkpt>
      <trkpt lat="-28.132615" lon="-65.791035">
        <ele>977.5</ele>
        <time>2018-08-20T15:01:12Z</time>
      </trkpt>
      <trkpt lat="-28.13271" lon="-65.79103">
        <ele>976.7</ele>
        <time>2018-08-20T15:01:14Z</time>
      </trkpt>
      <trkpt lat="-28.13281" lon="-65.791025">
        <ele>975.6</ele>
        <time>2018-08-20T15:01:16Z</time>
      </trkpt>
      <trkpt lat="-28.132915" lon="-65.791015">
        <ele>975.5</ele>
        <time>2018-08-20T15:01:18Z</time>
      </trkpt>
      <trkpt lat="-28.133015" lon="-65.791005">
        <ele>975.4</ele>
        <time>2018-08-20T15:01:20Z</time>
      </trkpt>
      <trkpt lat="-28.13311" lon="-65.791005">
        <ele>976.3</ele>
        <time>2018-08-20T15:01:22Z</time>
      </trkpt>
      <trkpt lat="-28.133196666666667" lon="-65.791005">
        <ele>977.3</ele>
        <time>2018-08-20T15:01:24Z</time>
      </trkpt>
      <trkpt lat="-28.133295" lon="-65.791005">
        <ele>977.7</ele>
        <time>2018-08-20T15:01:26Z</time>
      </trkpt>
      <trkpt lat="-28.133395" lon="-65.791005">
        <ele>978.5</ele>
        <time>2018-08-20T15:01:28Z</time>
      </trkpt>
      <trkpt lat="-28.133495" lon="-65.791005">
        <ele>978.5</ele>
        <time>2018-08-20T15:01:30Z</time>
      </trkpt>
      <trkpt lat="-28.133585" lon="-65.791005">
        <ele>979.0</ele>
        <time>2018-08-20T15:01:33Z</time>
      </trkpt>
      <trkpt lat="-28.133695" lon="-65.791015">
        <ele>979.0</ele>
        <time>2018-08-20T15:01:35Z</time>
      </trkpt>
      <trkpt lat="-28.133785" lon="-65.791025">
        <ele>978.0</ele>
        <time>2018-08-20T15:01:37Z</time>
      </trkpt>
      <trkpt lat="-28.133875" lon="-65.791035">
        <ele>977.2</ele>
        <time>2018-08-20T15:01:39Z</time>
      </trkpt>
      <trkpt lat="-28.133985" lon="-65.79106">
        <ele>977.3</ele>
        <time>2018-08-20T15:01:41Z</time>
      </trkpt>
      <trkpt lat="-28.13409" lon="-65.79106333333333">
        <ele>977.6</ele>
        <time>2018-08-20T15:01:43Z</time>
      </trkpt>
      <trkpt lat="-28.134195" lon="-65.79109">
        <ele>977.7</ele>
        <time>2018-08-20T15:01:45Z</time>
      </trkpt>
      <trkpt lat="-28.13431" lon="-65.79111">
        <ele>977.5</ele>
        <time>2018-08-20T15:01:47Z</time>
      </trkpt>
      <trkpt lat="-28.134425" lon="-65.791135">
        <ele>976.8</ele>
        <time>2018-08-20T15:01:49Z</time>
      </trkpt>
      <trkpt lat="-28.13454" lon="-65.79115666666667">
        <ele>976.0</ele>
        <time>2018-08-20T15:01:51Z</time>
      </trkpt>
      <trkpt lat="-28.134655" lon="-65.79119">
        <ele>975.0</ele>
        <time>2018-08-20T15:01:53Z</time>
      </trkpt>
      <trkpt lat="-28.13478" lon="-65.79121166666667">
        <ele>973.9</ele>
        <time>2018-08-20T15:01:55Z</time>
      </trkpt>
      <trkpt lat="-28.134895" lon="-65.79124">
        <ele>973.5</ele>
        <time>2018-08-20T15:01:57Z</time>
      </trkpt>
      <trkpt lat="-28.135011666666667" lon="-65.79125666666667">
        <ele>974.2</ele>
        <time>2018-08-20T15:01:59Z</time>
      </trkpt>
      <trkpt lat="-28.135131666666666" lon="-65.791285">
        <ele>974.3</ele>
        <time>2018-08-20T15:02:01Z</time>
      </trkpt>
      <trkpt lat="-28.135253333333335" lon="-65.79130166666667">
        <ele>975.0</ele>
        <time>2018-08-20T15:02:03Z</time>
      </trkpt>
      <trkpt lat="-28.13538" lon="-65.79133">
        <ele>975.5</ele>
        <time>2018-08-20T15:02:05Z</time>
      </trkpt>
      <trkpt lat="-28.13551" lon="-65.79136">
        <ele>974.9</ele>
        <time>2018-08-20T15:02:07Z</time>
      </trkpt>
      <trkpt lat="-28.13563" lon="-65.79138">
        <ele>974.8</ele>
        <time>2018-08-20T15:02:09Z</time>
      </trkpt>
      <trkpt lat="-28.13576" lon="-65.79141">
        <ele>974.9</ele>
        <time>2018-08-20T15:02:11Z</time>
      </trkpt>
      <trkpt lat="-28.13589" lon="-65.79143666666667">
        <ele>974.6</ele>
        <time>2018-08-20T15:02:13Z</time>
      </trkpt>
      <trkpt lat="-28.13603" lon="-65.79147">
        <ele>973.8</ele>
        <time>2018-08-20T15:02:15Z</time>
      </trkpt>
      <trkpt lat="-28.136105" lon="-65.79148166666667">
        <ele>973.5</ele>
        <time>2018-08-20T15:02:16Z</time>
      </trkpt>
      <trkpt lat="-28.136185" lon="-65.7915">
        <ele>972.9</ele>
        <time>2018-08-20T15:02:17Z</time>
      </trkpt>
      <trkpt lat="-28.13627" lon="-65.791515">
        <ele>972.5</ele>
        <time>2018-08-20T15:02:18Z</time>
      </trkpt>
      <trkpt lat="-28.13634" lon="-65.79153">
        <ele>971.9</ele>
        <time>2018-08-20T15:02:19Z</time>
      </trkpt>
      <trkpt lat="-28.136435" lon="-65.791555">
        <ele>971.3</ele>
        <time>2018-08-20T15:02:20Z</time>
      </trkpt>
      <trkpt lat="-28.13652" lon="-65.79156666666667">
        <ele>970.5</ele>
        <time>2018-08-20T15:02:21Z</time>
      </trkpt>
      <trkpt lat="-28.136605" lon="-65.79159">
        <ele>969.6</ele>
        <time>2018-08-20T15:02:22Z</time>
      </trkpt>
      <trkpt lat="-28.136685" lon="-65.791605">
        <ele>969.2</ele>
        <time>2018-08-20T15:02:23Z</time>
      </trkpt>
      <trkpt lat="-28.136775" lon="-65.791615">
        <ele>968.9</ele>
        <time>2018-08-20T15:02:24Z</time>
      </trkpt>
      <trkpt lat="-28.136855" lon="-65.79164">
        <ele>968.7</ele>
        <time>2018-08-20T15:02:25Z</time>
      </trkpt>
      <trkpt lat="-28.13693" lon="-65.791655">
        <ele>968.7</ele>
        <time>2018-08-20T15:02:26Z</time>
      </trkpt>
      <trkpt lat="-28.137005" lon="-65.79167">
        <ele>968.6</ele>
        <time>2018-08-20T15:02:27Z</time>
      </trkpt>
      <trkpt lat="-28.13708" lon="-65.79168">
        <ele>968.6</ele>
        <time>2018-08-20T15:02:28Z</time>
      </trkpt>
      <trkpt lat="-28.137155" lon="-65.7917">
        <ele>968.4</ele>
        <time>2018-08-20T15:02:29Z</time>
      </trkpt>
      <trkpt lat="-28.13723" lon="-65.79171166666667">
        <ele>968.1</ele>
        <time>2018-08-20T15:02:30Z</time>
      </trkpt>
      <trkpt lat="-28.137305" lon="-65.79173">
        <ele>967.8</ele>
        <time>2018-08-20T15:02:31Z</time>
      </trkpt>
      <trkpt lat="-28.13738" lon="-65.79174166666667">
        <ele>967.5</ele>
        <time>2018-08-20T15:02:32Z</time>
      </trkpt>
      <trkpt lat="-28.13751" lon="-65.791775">
        <ele>966.7</ele>
        <time>2018-08-20T15:02:34Z</time>
      </trkpt>
      <trkpt lat="-28.13761" lon="-65.79178666666667">
        <ele>966.7</ele>
        <time>2018-08-20T15:02:36Z</time>
      </trkpt>
      <trkpt lat="-28.137695" lon="-65.79181">
        <ele>967.4</ele>
        <time>2018-08-20T15:02:38Z</time>
      </trkpt>
      <trkpt lat="-28.137783333333335" lon="-65.79182333333333">
        <ele>968.1</ele>
        <time>2018-08-20T15:02:40Z</time>
      </trkpt>
      <trkpt lat="-28.13788" lon="-65.79185">
        <ele>968.8</ele>
        <time>2018-08-20T15:02:42Z</time>
      </trkpt>
      <trkpt lat="-28.13798" lon="-65.79187">
        <ele>969.3</ele>
        <time>2018-08-20T15:02:44Z</time>
      </trkpt>
      <trkpt lat="-28.13808" lon="-65.79188666666667">
        <ele>970.1</ele>
        <time>2018-08-20T15:02:46Z</time>
      </trkpt>
      <trkpt lat="-28.138175" lon="-65.791905">
        <ele>970.4</ele>
        <time>2018-08-20T15:02:48Z</time>
      </trkpt>
      <trkpt lat="-28.138295" lon="-65.79193166666667">
        <ele>970.4</ele>
        <time>2018-08-20T15:02:50Z</time>
      </trkpt>
      <trkpt lat="-28.138395" lon="-65.791955">
        <ele>970.1</ele>
        <time>2018-08-20T15:02:52Z</time>
      </trkpt>
      <trkpt lat="-28.1385" lon="-65.79197333333333">
        <ele>969.3</ele>
        <time>2018-08-20T15:02:54Z</time>
      </trkpt>
      <trkpt lat="-28.1386" lon="-65.792">
        <ele>969.1</ele>
        <time>2018-08-20T15:02:56Z</time>
      </trkpt>
      <trkpt lat="-28.13869" lon="-65.79201">
        <ele>969.7</ele>
        <time>2018-08-20T15:02:58Z</time>
      </trkpt>
      <trkpt lat="-28.1388" lon="-65.792035">
        <ele>970.2</ele>
        <time>2018-08-20T15:03:00Z</time>
      </trkpt>
      <trkpt lat="-28.138905" lon="-65.79204833333333">
        <ele>970.5</ele>
        <time>2018-08-20T15:03:02Z</time>
      </trkpt>
      <trkpt lat="-28.139001666666665" lon="-65.792075">
        <ele>970.8</ele>
        <time>2018-08-20T15:03:04Z</time>
      </trkpt>
      <trkpt lat="-28.139105" lon="-65.792095">
        <ele>971.1</ele>
        <time>2018-08-20T15:03:06Z</time>
      </trkpt>
      <trkpt lat="-28.139191666666665" lon="-65.792105">
        <ele>971.4</ele>
        <time>2018-08-20T15:03:08Z</time>
      </trkpt>
      <trkpt lat="-28.13928" lon="-65.792125">
        <ele>971.7</ele>
        <time>2018-08-20T15:03:10Z</time>
      </trkpt>
      <trkpt lat="-28.13937" lon="-65.79214">
        <ele>972.1</ele>
        <time>2018-08-20T15:03:12Z</time>
      </trkpt>
      <trkpt lat="-28.13945" lon="-65.79215166666667">
        <ele>972.7</ele>
        <time>2018-08-20T15:03:14Z</time>
      </trkpt>
      <trkpt lat="-28.139545" lon="-65.792175">
        <ele>972.6</ele>
        <time>2018-08-20T15:03:16Z</time>
      </trkpt>
      <trkpt lat="-28.139635" lon="-65.792185">
        <ele>972.6</ele>
        <time>2018-08-20T15:03:19Z</time>
      </trkpt>
      <trkpt lat="-28.139735" lon="-65.79219666666667">
        <ele>972.7</ele>
        <time>2018-08-20T15:03:22Z</time>
      </trkpt>
      <trkpt lat="-28.139805" lon="-65.79220666666667">
        <ele>972.7</ele>
        <time>2018-08-20T15:03:24Z</time>
      </trkpt>
      <trkpt lat="-28.139895" lon="-65.792225">
        <ele>972.7</ele>
        <time>2018-08-20T15:03:26Z</time>
      </trkpt>
      <trkpt lat="-28.139975" lon="-65.792235">
        <ele>972.5</ele>
        <time>2018-08-20T15:03:28Z</time>
      </trkpt>
      <trkpt lat="-28.140055" lon="-65.79224166666667">
        <ele>970.8</ele>
        <time>2018-08-20T15:03:30Z</time>
      </trkpt>
      <trkpt lat="-28.14015" lon="-65.792255">
        <ele>969.2</ele>
        <time>2018-08-20T15:03:32Z</time>
      </trkpt>
      <trkpt lat="-28.140235" lon="-65.792265">
        <ele>967.9</ele>
        <time>2018-08-20T15:03:34Z</time>
      </trkpt>
      <trkpt lat="-28.140321666666665" lon="-65.79227">
        <ele>966.9</ele>
        <time>2018-08-20T15:03:36Z</time>
      </trkpt>
      <trkpt lat="-28.140415" lon="-65.792275">
        <ele>965.9</ele>
        <time>2018-08-20T15:03:38Z</time>
      </trkpt>
      <trkpt lat="-28.1405" lon="-65.792275">
        <ele>965.8</ele>
        <time>2018-08-20T15:03:40Z</time>
      </trkpt>
      <trkpt lat="-28.140581666666666" lon="-65.792275">
        <ele>966.6</ele>
        <time>2018-08-20T15:03:42Z</time>
      </trkpt>
      <trkpt lat="-28.14067" lon="-65.79227">
        <ele>968.9</ele>
        <time>2018-08-20T15:03:44Z</time>
      </trkpt>
      <trkpt lat="-28.14078" lon="-65.792265">
        <ele>971.5</ele>
        <time>2018-08-20T15:03:46Z</time>
      </trkpt>
      <trkpt lat="-28.140915" lon="-65.79226">
        <ele>973.3</ele>
        <time>2018-08-20T15:03:48Z</time>
      </trkpt>
      <trkpt lat="-28.141035" lon="-65.792255">
        <ele>974.1</ele>
        <time>2018-08-20T15:03:50Z</time>
      </trkpt>
      <trkpt lat="-28.14117" lon="-65.792245">
        <ele>974.3</ele>
        <time>2018-08-20T15:03:52Z</time>
      </trkpt>
      <trkpt lat="-28.14125" lon="-65.79224166666667">
        <ele>974.6</ele>
        <time>2018-08-20T15:03:53Z</time>
      </trkpt>
      <trkpt lat="-28.14133" lon="-65.792235">
        <ele>974.7</ele>
        <time>2018-08-20T15:03:54Z</time>
      </trkpt>
      <trkpt lat="-28.141405" lon="-65.792235">
        <ele>974.8</ele>
        <time>2018-08-20T15:03:55Z</time>
      </trkpt>
      <trkpt lat="-28.14148" lon="-65.79223">
        <ele>974.4</ele>
        <time>2018-08-20T15:03:56Z</time>
      </trkpt>
      <trkpt lat="-28.141565" lon="-65.79223">
        <ele>974.1</ele>
        <time>2018-08-20T15:03:57Z</time>
      </trkpt>
      <trkpt lat="-28.141645" lon="-65.792225">
        <ele>973.6</ele>
        <time>2018-08-20T15:03:58Z</time>
      </trkpt>
      <trkpt lat="-28.141733333333335" lon="-65.792225">
        <ele>973.1</ele>
        <time>2018-08-20T15:03:59Z</time>
      </trkpt>
      <trkpt lat="-28.14182" lon="-65.79221666666666">
        <ele>972.5</ele>
        <time>2018-08-20T15:04:00Z</time>
      </trkpt>
      <trkpt lat="-28.141911666666665" lon="-65.792215">
        <ele>971.9</ele>
        <time>2018-08-20T15:04:01Z</time>
      </trkpt>
      <trkpt lat="-28.142015" lon="-65.792215">
        <ele>971.2</ele>
        <time>2018-08-20T15:04:02Z</time>
      </trkpt>
      <trkpt lat="-28.142115" lon="-65.79220333333333">
        <ele>970.2</ele>
        <time>2018-08-20T15:04:03Z</time>
      </trkpt>
      <trkpt lat="-28.142205" lon="-65.7922">
        <ele>969.0</ele>
        <time>2018-08-20T15:04:04Z</time>
      </trkpt>
      <trkpt lat="-28.1423" lon="-65.792195">
        <ele>967.9</ele>
        <time>2018-08-20T15:04:05Z</time>
      </trkpt>
      <trkpt lat="-28.1424" lon="-65.79219">
        <ele>967.1</ele>
        <time>2018-08-20T15:04:06Z</time>
      </trkpt>
      <trkpt lat="-28.1425" lon="-65.79219">
        <ele>966.5</ele>
        <time>2018-08-20T15:04:07Z</time>
      </trkpt>
      <trkpt lat="-28.142598333333332" lon="-65.792185">
        <ele>966.0</ele>
        <time>2018-08-20T15:04:08Z</time>
      </trkpt>
      <trkpt lat="-28.142705" lon="-65.79218">
        <ele>965.8</ele>
        <time>2018-08-20T15:04:09Z</time>
      </trkpt>
      <trkpt lat="-28.142785" lon="-65.792175">
        <ele>965.4</ele>
        <time>2018-08-20T15:04:10Z</time>
      </trkpt>
      <trkpt lat="-28.14289" lon="-65.79217">
        <ele>964.9</ele>
        <time>2018-08-20T15:04:11Z</time>
      </trkpt>
      <trkpt lat="-28.14299" lon="-65.79217">
        <ele>964.2</ele>
        <time>2018-08-20T15:04:12Z</time>
      </trkpt>
      <trkpt lat="-28.14307" lon="-65.79216">
        <ele>964.0</ele>
        <time>2018-08-20T15:04:13Z</time>
      </trkpt>
      <trkpt lat="-28.143215" lon="-65.79215333333333">
        <ele>963.8</ele>
        <time>2018-08-20T15:04:15Z</time>
      </trkpt>
      <trkpt lat="-28.143285" lon="-65.79215">
        <ele>963.8</ele>
        <time>2018-08-20T15:04:16Z</time>
      </trkpt>
      <trkpt lat="-28.14342" lon="-65.79214">
        <ele>964.1</ele>
        <time>2018-08-20T15:04:18Z</time>
      </trkpt>
      <trkpt lat="-28.143545" lon="-65.79213">
        <ele>964.5</ele>
        <time>2018-08-20T15:04:20Z</time>
      </trkpt>
      <trkpt lat="-28.143665" lon="-65.79212">
        <ele>964.7</ele>
        <time>2018-08-20T15:04:22Z</time>
      </trkpt>
      <trkpt lat="-28.14379" lon="-65.792105">
        <ele>964.9</ele>
        <time>2018-08-20T15:04:24Z</time>
      </trkpt>
      <trkpt lat="-28.1439" lon="-65.79209">
        <ele>965.0</ele>
        <time>2018-08-20T15:04:26Z</time>
      </trkpt>
      <trkpt lat="-28.14401" lon="-65.79206333333333">
        <ele>965.0</ele>
        <time>2018-08-20T15:04:28Z</time>
      </trkpt>
      <trkpt lat="-28.144115" lon="-65.792045">
        <ele>964.7</ele>
        <time>2018-08-20T15:04:30Z</time>
      </trkpt>
      <trkpt lat="-28.144235" lon="-65.79201666666667">
        <ele>965.0</ele>
        <time>2018-08-20T15:04:32Z</time>
      </trkpt>
      <trkpt lat="-28.144355" lon="-65.79199">
        <ele>965.7</ele>
        <time>2018-08-20T15:04:34Z</time>
      </trkpt>
      <trkpt lat="-28.14447" lon="-65.79196666666667">
        <ele>966.2</ele>
        <time>2018-08-20T15:04:36Z</time>
      </trkpt>
      <trkpt lat="-28.144575" lon="-65.79195">
        <ele>966.4</ele>
        <time>2018-08-20T15:04:38Z</time>
      </trkpt>
      <trkpt lat="-28.144676666666665" lon="-65.79191833333333">
        <ele>966.1</ele>
        <time>2018-08-20T15:04:40Z</time>
      </trkpt>
      <trkpt lat="-28.14479" lon="-65.79188833333333">
        <ele>966.2</ele>
        <time>2018-08-20T15:04:42Z</time>
      </trkpt>
      <trkpt lat="-28.1449" lon="-65.79186">
        <ele>966.0</ele>
        <time>2018-08-20T15:04:44Z</time>
      </trkpt>
      <trkpt lat="-28.145015" lon="-65.79182">
        <ele>965.5</ele>
        <time>2018-08-20T15:04:46Z</time>
      </trkpt>
      <trkpt lat="-28.145145" lon="-65.791785">
        <ele>964.4</ele>
        <time>2018-08-20T15:04:48Z</time>
      </trkpt>
      <trkpt lat="-28.145281666666666" lon="-65.79174">
        <ele>962.4</ele>
        <time>2018-08-20T15:04:50Z</time>
      </trkpt>
      <trkpt lat="-28.14542" lon="-65.7917">
        <ele>960.5</ele>
        <time>2018-08-20T15:04:52Z</time>
      </trkpt>
      <trkpt lat="-28.145483333333335" lon="-65.79167">
        <ele>959.6</ele>
        <time>2018-08-20T15:04:53Z</time>
      </trkpt>
      <trkpt lat="-28.14556" lon="-65.791655">
        <ele>958.9</ele>
        <time>2018-08-20T15:04:54Z</time>
      </trkpt>
      <trkpt lat="-28.145626666666665" lon="-65.79162333333333">
        <ele>958.1</ele>
        <time>2018-08-20T15:04:55Z</time>
      </trkpt>
      <trkpt lat="-28.145705" lon="-65.791605">
        <ele>957.3</ele>
        <time>2018-08-20T15:04:56Z</time>
      </trkpt>
      <trkpt lat="-28.14583" lon="-65.79155">
        <ele>958.1</ele>
        <time>2018-08-20T15:04:58Z</time>
      </trkpt>
      <trkpt lat="-28.145915" lon="-65.791515">
        <ele>958.6</ele>
        <time>2018-08-20T15:04:59Z</time>
      </trkpt>
      <trkpt lat="-28.145995" lon="-65.79148333333333">
        <ele>959.1</ele>
        <time>2018-08-20T15:05:00Z</time>
      </trkpt>
      <trkpt lat="-28.146075" lon="-65.79145666666666">
        <ele>959.3</ele>
        <time>2018-08-20T15:05:01Z</time>
      </trkpt>
      <trkpt lat="-28.146155" lon="-65.79143166666667">
        <ele>959.2</ele>
        <time>2018-08-20T15:05:02Z</time>
      </trkpt>
      <trkpt lat="-28.14624" lon="-65.79141">
        <ele>959.3</ele>
        <time>2018-08-20T15:05:03Z</time>
      </trkpt>
      <trkpt lat="-28.14633" lon="-65.79138">
        <ele>959.4</ele>
        <time>2018-08-20T15:05:04Z</time>
      </trkpt>
      <trkpt lat="-28.146415" lon="-65.791345">
        <ele>959.3</ele>
        <time>2018-08-20T15:05:05Z</time>
      </trkpt>
      <trkpt lat="-28.146491666666666" lon="-65.791325">
        <ele>959.1</ele>
        <time>2018-08-20T15:05:06Z</time>
      </trkpt>
      <trkpt lat="-28.146585" lon="-65.791295">
        <ele>958.8</ele>
        <time>2018-08-20T15:05:07Z</time>
      </trkpt>
      <trkpt lat="-28.146675" lon="-65.791275">
        <ele>958.4</ele>
        <time>2018-08-20T15:05:08Z</time>
      </trkpt>
      <trkpt lat="-28.14676" lon="-65.791245">
        <ele>958.3</ele>
        <time>2018-08-20T15:05:09Z</time>
      </trkpt>
      <trkpt lat="-28.146865" lon="-65.791215">
        <ele>957.8</ele>
        <time>2018-08-20T15:05:10Z</time>
      </trkpt>
      <trkpt lat="-28.14696" lon="-65.79119">
        <ele>957.3</ele>
        <time>2018-08-20T15:05:11Z</time>
      </trkpt>
      <trkpt lat="-28.14705" lon="-65.791165">
        <ele>956.8</ele>
        <time>2018-08-20T15:05:12Z</time>
      </trkpt>
      <trkpt lat="-28.14714" lon="-65.79114">
        <ele>956.3</ele>
        <time>2018-08-20T15:05:13Z</time>
      </trkpt>
      <trkpt lat="-28.14723" lon="-65.79112">
        <ele>955.8</ele>
        <time>2018-08-20T15:05:14Z</time>
      </trkpt>
      <trkpt lat="-28.14731" lon="-65.7911">
        <ele>955.3</ele>
        <time>2018-08-20T15:05:15Z</time>
      </trkpt>
      <trkpt lat="-28.14739" lon="-65.79107833333333">
        <ele>954.8</ele>
        <time>2018-08-20T15:05:16Z</time>
      </trkpt>
      <trkpt lat="-28.147475" lon="-65.79106">
        <ele>954.4</ele>
        <time>2018-08-20T15:05:17Z</time>
      </trkpt>
      <trkpt lat="-28.147555" lon="-65.791055">
        <ele>953.9</ele>
        <time>2018-08-20T15:05:18Z</time>
      </trkpt>
      <trkpt lat="-28.14764" lon="-65.791045">
        <ele>953.5</ele>
        <time>2018-08-20T15:05:19Z</time>
      </trkpt>
      <trkpt lat="-28.147711666666666" lon="-65.79103">
        <ele>953.2</ele>
        <time>2018-08-20T15:05:20Z</time>
      </trkpt>
      <trkpt lat="-28.147795" lon="-65.791025">
        <ele>953.2</ele>
        <time>2018-08-20T15:05:21Z</time>
      </trkpt>
      <trkpt lat="-28.147868333333335" lon="-65.791025">
        <ele>953.2</ele>
        <time>2018-08-20T15:05:22Z</time>
      </trkpt>
      <trkpt lat="-28.147945" lon="-65.79102">
        <ele>953.1</ele>
        <time>2018-08-20T15:05:23Z</time>
      </trkpt>
      <trkpt lat="-28.14802" lon="-65.791015">
        <ele>953.0</ele>
        <time>2018-08-20T15:05:24Z</time>
      </trkpt>
      <trkpt lat="-28.14816" lon="-65.79100666666666">
        <ele>952.6</ele>
        <time>2018-08-20T15:05:26Z</time>
      </trkpt>
      <trkpt lat="-28.148295" lon="-65.791015">
        <ele>951.8</ele>
        <time>2018-08-20T15:05:28Z</time>
      </trkpt>
      <trkpt lat="-28.14841" lon="-65.79102">
        <ele>951.7</ele>
        <time>2018-08-20T15:05:30Z</time>
      </trkpt>
      <trkpt lat="-28.14852" lon="-65.791025">
        <ele>951.4</ele>
        <time>2018-08-20T15:05:32Z</time>
      </trkpt>
      <trkpt lat="-28.148626666666665" lon="-65.79103166666667">
        <ele>951.5</ele>
        <time>2018-08-20T15:05:34Z</time>
      </trkpt>
      <trkpt lat="-28.148715" lon="-65.79103333333333">
        <ele>951.9</ele>
        <time>2018-08-20T15:05:36Z</time>
      </trkpt>
      <trkpt lat="-28.148795" lon="-65.791045">
        <ele>952.2</ele>
        <time>2018-08-20T15:05:38Z</time>
      </trkpt>
      <trkpt lat="-28.14887" lon="-65.79105">
        <ele>952.3</ele>
        <time>2018-08-20T15:05:40Z</time>
      </trkpt>
      <trkpt lat="-28.148955" lon="-65.791055">
        <ele>952.2</ele>
        <time>2018-08-20T15:05:42Z</time>
      </trkpt>
      <trkpt lat="-28.149043333333335" lon="-65.79106">
        <ele>952.2</ele>
        <time>2018-08-20T15:05:44Z</time>
      </trkpt>
      <trkpt lat="-28.149135" lon="-65.79106">
        <ele>952.3</ele>
        <time>2018-08-20T15:05:46Z</time>
      </trkpt>
      <trkpt lat="-28.14923" lon="-65.79107166666667">
        <ele>952.4</ele>
        <time>2018-08-20T15:05:48Z</time>
      </trkpt>
      <trkpt lat="-28.14933" lon="-65.79107833333333">
        <ele>952.6</ele>
        <time>2018-08-20T15:05:50Z</time>
      </trkpt>
      <trkpt lat="-28.14943" lon="-65.79109">
        <ele>952.8</ele>
        <time>2018-08-20T15:05:52Z</time>
      </trkpt>
      <trkpt lat="-28.149525" lon="-65.7911">
        <ele>952.8</ele>
        <time>2018-08-20T15:05:54Z</time>
      </trkpt>
      <trkpt lat="-28.149625" lon="-65.791105">
        <ele>952.6</ele>
        <time>2018-08-20T15:05:56Z</time>
      </trkpt>
      <trkpt lat="-28.149716666666666" lon="-65.79111">
        <ele>952.6</ele>
        <time>2018-08-20T15:05:58Z</time>
      </trkpt>
      <trkpt lat="-28.14982" lon="-65.79112">
        <ele>952.7</ele>
        <time>2018-08-20T15:06:00Z</time>
      </trkpt>
      <trkpt lat="-28.149925" lon="-65.79112333333333">
        <ele>953.1</ele>
        <time>2018-08-20T15:06:02Z</time>
      </trkpt>
      <trkpt lat="-28.150035" lon="-65.791135">
        <ele>953.3</ele>
        <time>2018-08-20T15:06:04Z</time>
      </trkpt>
      <trkpt lat="-28.150145" lon="-65.791145">
        <ele>953.5</ele>
        <time>2018-08-20T15:06:06Z</time>
      </trkpt>
      <trkpt lat="-28.15025" lon="-65.791155">
        <ele>953.4</ele>
        <time>2018-08-20T15:06:08Z</time>
      </trkpt>
      <trkpt lat="-28.150361666666665" lon="-65.791155">
        <ele>953.5</ele>
        <time>2018-08-20T15:06:10Z</time>
      </trkpt>
      <trkpt lat="-28.150475" lon="-65.791165">
        <ele>953.2</ele>
        <time>2018-08-20T15:06:12Z</time>
      </trkpt>
      <trkpt lat="-28.150595" lon="-65.791165">
        <ele>953.0</ele>
        <time>2018-08-20T15:06:14Z</time>
      </trkpt>
      <trkpt lat="-28.150701666666667" lon="-65.79117166666667">
        <ele>952.9</ele>
        <time>2018-08-20T15:06:16Z</time>
      </trkpt>
      <trkpt lat="-28.15082" lon="-65.791185">
        <ele>952.6</ele>
        <time>2018-08-20T15:06:18Z</time>
      </trkpt>
      <trkpt lat="-28.150925" lon="-65.791185">
        <ele>952.1</ele>
        <time>2018-08-20T15:06:20Z</time>
      </trkpt>
      <trkpt lat="-28.15104" lon="-65.79119">
        <ele>951.7</ele>
        <time>2018-08-20T15:06:22Z</time>
      </trkpt>
      <trkpt lat="-28.15115" lon="-65.79119">
        <ele>951.3</ele>
        <time>2018-08-20T15:06:24Z</time>
      </trkpt>
      <trkpt lat="-28.151265" lon="-65.791185">
        <ele>951.1</ele>
        <time>2018-08-20T15:06:26Z</time>
      </trkpt>
      <trkpt lat="-28.15138" lon="-65.791185">
        <ele>950.9</ele>
        <time>2018-08-20T15:06:28Z</time>
      </trkpt>
      <trkpt lat="-28.151495" lon="-65.79117333333333">
        <ele>950.7</ele>
        <time>2018-08-20T15:06:30Z</time>
      </trkpt>
      <trkpt lat="-28.151605" lon="-65.791165">
        <ele>950.5</ele>
        <time>2018-08-20T15:06:32Z</time>
      </trkpt>
      <trkpt lat="-28.151715" lon="-65.791165">
        <ele>950.3</ele>
        <time>2018-08-20T15:06:34Z</time>
      </trkpt>
      <trkpt lat="-28.15183" lon="-65.791155">
        <ele>950.2</ele>
        <time>2018-08-20T15:06:36Z</time>
      </trkpt>
      <trkpt lat="-28.15194" lon="-65.791145">
        <ele>950.0</ele>
        <time>2018-08-20T15:06:38Z</time>
      </trkpt>
      <trkpt lat="-28.15205" lon="-65.791135">
        <ele>949.9</ele>
        <time>2018-08-20T15:06:40Z</time>
      </trkpt>
      <trkpt lat="-28.15216" lon="-65.79112">
        <ele>950.1</ele>
        <time>2018-08-20T15:06:42Z</time>
      </trkpt>
      <trkpt lat="-28.15227" lon="-65.79111">
        <ele>949.9</ele>
        <time>2018-08-20T15:06:44Z</time>
      </trkpt>
      <trkpt lat="-28.152375" lon="-65.7911">
        <ele>949.7</ele>
        <time>2018-08-20T15:06:46Z</time>
      </trkpt>
      <trkpt lat="-28.152475" lon="-65.79108166666667">
        <ele>949.6</ele>
        <time>2018-08-20T15:06:48Z</time>
      </trkpt>
      <trkpt lat="-28.152565" lon="-65.79106166666666">
        <ele>949.7</ele>
        <time>2018-08-20T15:06:51Z</time>
      </trkpt>
      <trkpt lat="-28.152645" lon="-65.79106">
        <ele>949.6</ele>
        <time>2018-08-20T15:06:55Z</time>
      </trkpt>
      <trkpt lat="-28.15272" lon="-65.79106">
        <ele>949.6</ele>
        <time>2018-08-20T15:06:57Z</time>
      </trkpt>
      <trkpt lat="-28.152815" lon="-65.79106">
        <ele>949.4</ele>
        <time>2018-08-20T15:07:01Z</time>
      </trkpt>
      <trkpt lat="-28.152898333333333" lon="-65.79105">
        <ele>949.4</ele>
        <time>2018-08-20T15:07:04Z</time>
      </trkpt>
      <trkpt lat="-28.15298" lon="-65.79103666666667">
        <ele>949.5</ele>
        <time>2018-08-20T15:07:06Z</time>
      </trkpt>
      <trkpt lat="-28.15306" lon="-65.791025">
        <ele>949.6</ele>
        <time>2018-08-20T15:07:08Z</time>
      </trkpt>
      <trkpt lat="-28.15315" lon="-65.791015">
        <ele>950.7</ele>
        <time>2018-08-20T15:07:10Z</time>
      </trkpt>
      <trkpt lat="-28.153265" lon="-65.79099666666667">
        <ele>950.9</ele>
        <time>2018-08-20T15:07:12Z</time>
      </trkpt>
      <trkpt lat="-28.15338" lon="-65.79098166666667">
        <ele>950.7</ele>
        <time>2018-08-20T15:07:14Z</time>
      </trkpt>
      <trkpt lat="-28.153485" lon="-65.790975">
        <ele>950.3</ele>
        <time>2018-08-20T15:07:16Z</time>
      </trkpt>
      <trkpt lat="-28.153585" lon="-65.790965">
        <ele>950.0</ele>
        <time>2018-08-20T15:07:18Z</time>
      </trkpt>
      <trkpt lat="-28.15369" lon="-65.79094666666667">
        <ele>950.0</ele>
        <time>2018-08-20T15:07:20Z</time>
      </trkpt>
      <trkpt lat="-28.15381" lon="-65.79094">
        <ele>950.0</ele>
        <time>2018-08-20T15:07:22Z</time>
      </trkpt>
      <trkpt lat="-28.15391" lon="-65.79093">
        <ele>949.9</ele>
        <time>2018-08-20T15:07:24Z</time>
      </trkpt>
      <trkpt lat="-28.154015" lon="-65.79091166666667">
        <ele>949.2</ele>
        <time>2018-08-20T15:07:26Z</time>
      </trkpt>
      <trkpt lat="-28.154121666666665" lon="-65.79090166666667">
        <ele>948.3</ele>
        <time>2018-08-20T15:07:28Z</time>
      </trkpt>
      <trkpt lat="-28.15424" lon="-65.790895">
        <ele>948.0</ele>
        <time>2018-08-20T15:07:30Z</time>
      </trkpt>
      <trkpt lat="-28.15436" lon="-65.79088666666667">
        <ele>948.3</ele>
        <time>2018-08-20T15:07:32Z</time>
      </trkpt>
      <trkpt lat="-28.154475" lon="-65.790885">
        <ele>948.8</ele>
        <time>2018-08-20T15:07:34Z</time>
      </trkpt>
      <trkpt lat="-28.154605" lon="-65.790865">
        <ele>949.1</ele>
        <time>2018-08-20T15:07:36Z</time>
      </trkpt>
      <trkpt lat="-28.154715" lon="-65.79085333333333">
        <ele>949.1</ele>
        <time>2018-08-20T15:07:38Z</time>
      </trkpt>
      <trkpt lat="-28.15483" lon="-65.79083833333334">
        <ele>949.0</ele>
        <time>2018-08-20T15:07:40Z</time>
      </trkpt>
      <trkpt lat="-28.15495" lon="-65.790835">
        <ele>948.8</ele>
        <time>2018-08-20T15:07:42Z</time>
      </trkpt>
      <trkpt lat="-28.155056666666667" lon="-65.790825">
        <ele>948.6</ele>
        <time>2018-08-20T15:07:44Z</time>
      </trkpt>
      <trkpt lat="-28.155175" lon="-65.79081">
        <ele>948.4</ele>
        <time>2018-08-20T15:07:46Z</time>
      </trkpt>
      <trkpt lat="-28.155281666666667" lon="-65.7908">
        <ele>948.2</ele>
        <time>2018-08-20T15:07:48Z</time>
      </trkpt>
      <trkpt lat="-28.1554" lon="-65.79079">
        <ele>948.1</ele>
        <time>2018-08-20T15:07:50Z</time>
      </trkpt>
      <trkpt lat="-28.155511666666666" lon="-65.79076833333333">
        <ele>947.7</ele>
        <time>2018-08-20T15:07:52Z</time>
      </trkpt>
      <trkpt lat="-28.155625" lon="-65.79075666666667">
        <ele>947.5</ele>
        <time>2018-08-20T15:07:54Z</time>
      </trkpt>
      <trkpt lat="-28.155725" lon="-65.790755">
        <ele>947.9</ele>
        <time>2018-08-20T15:07:56Z</time>
      </trkpt>
      <trkpt lat="-28.15583" lon="-65.79075">
        <ele>948.0</ele>
        <time>2018-08-20T15:07:58Z</time>
      </trkpt>
      <trkpt lat="-28.155936666666666" lon="-65.790745">
        <ele>948.1</ele>
        <time>2018-08-20T15:08:00Z</time>
      </trkpt>
      <trkpt lat="-28.15605" lon="-65.79072666666667">
        <ele>948.0</ele>
        <time>2018-08-20T15:08:02Z</time>
      </trkpt>
      <trkpt lat="-28.15615" lon="-65.790715">
        <ele>947.8</ele>
        <time>2018-08-20T15:08:04Z</time>
      </trkpt>
      <trkpt lat="-28.15625" lon="-65.79070666666667">
        <ele>947.5</ele>
        <time>2018-08-20T15:08:06Z</time>
      </trkpt>
      <trkpt lat="-28.156345" lon="-65.790695">
        <ele>947.6</ele>
        <time>2018-08-20T15:08:08Z</time>
      </trkpt>
      <trkpt lat="-28.15643" lon="-65.790685">
        <ele>947.7</ele>
        <time>2018-08-20T15:08:10Z</time>
      </trkpt>
      <trkpt lat="-28.156515" lon="-65.79067">
        <ele>947.5</ele>
        <time>2018-08-20T15:08:12Z</time>
      </trkpt>
      <trkpt lat="-28.1566" lon="-65.79066">
        <ele>947.5</ele>
        <time>2018-08-20T15:08:14Z</time>
      </trkpt>
      <trkpt lat="-28.15668" lon="-65.79066">
        <ele>947.3</ele>
        <time>2018-08-20T15:08:16Z</time>
      </trkpt>
      <trkpt lat="-28.15676" lon="-65.79065">
        <ele>947.3</ele>
        <time>2018-08-20T15:08:18Z</time>
      </trkpt>
      <trkpt lat="-28.15686" lon="-65.79063666666667">
        <ele>947.4</ele>
        <time>2018-08-20T15:08:20Z</time>
      </trkpt>
      <trkpt lat="-28.15695" lon="-65.79063">
        <ele>947.4</ele>
        <time>2018-08-20T15:08:22Z</time>
      </trkpt>
      <trkpt lat="-28.157035" lon="-65.790625">
        <ele>947.6</ele>
        <time>2018-08-20T15:08:24Z</time>
      </trkpt>
      <trkpt lat="-28.157125" lon="-65.79062">
        <ele>948.1</ele>
        <time>2018-08-20T15:08:26Z</time>
      </trkpt>
      <trkpt lat="-28.15721" lon="-65.79061">
        <ele>948.5</ele>
        <time>2018-08-20T15:08:28Z</time>
      </trkpt>
      <trkpt lat="-28.157285" lon="-65.790605">
        <ele>948.4</ele>
        <time>2018-08-20T15:08:30Z</time>
      </trkpt>
      <trkpt lat="-28.157365" lon="-65.79059166666667">
        <ele>948.2</ele>
        <time>2018-08-20T15:08:32Z</time>
      </trkpt>
      <trkpt lat="-28.15744" lon="-65.79058">
        <ele>948.1</ele>
        <time>2018-08-20T15:08:34Z</time>
      </trkpt>
      <trkpt lat="-28.157525" lon="-65.790575">
        <ele>948.6</ele>
        <time>2018-08-20T15:08:36Z</time>
      </trkpt>
      <trkpt lat="-28.157595" lon="-65.790565">
        <ele>948.6</ele>
        <time>2018-08-20T15:08:38Z</time>
      </trkpt>
      <trkpt lat="-28.1577" lon="-65.790555">
        <ele>948.7</ele>
        <time>2018-08-20T15:08:41Z</time>
      </trkpt>
      <trkpt lat="-28.15778" lon="-65.79053833333333">
        <ele>948.8</ele>
        <time>2018-08-20T15:08:44Z</time>
      </trkpt>
      <trkpt lat="-28.15787" lon="-65.79053">
        <ele>948.9</ele>
        <time>2018-08-20T15:08:48Z</time>
      </trkpt>
      <trkpt lat="-28.157955" lon="-65.790525">
        <ele>949.1</ele>
        <time>2018-08-20T15:08:52Z</time>
      </trkpt>
      <trkpt lat="-28.15803" lon="-65.790525">
        <ele>949.3</ele>
        <time>2018-08-20T15:08:56Z</time>
      </trkpt>
      <trkpt lat="-28.158115" lon="-65.790515">
        <ele>949.6</ele>
        <time>2018-08-20T15:09:00Z</time>
      </trkpt>
      <trkpt lat="-28.158195" lon="-65.79050166666667">
        <ele>949.8</ele>
        <time>2018-08-20T15:09:04Z</time>
      </trkpt>
      <trkpt lat="-28.15827" lon="-65.79049666666667">
        <ele>950.1</ele>
        <time>2018-08-20T15:09:08Z</time>
      </trkpt>
      <trkpt lat="-28.15835" lon="-65.79049666666667">
        <ele>950.5</ele>
        <time>2018-08-20T15:09:12Z</time>
      </trkpt>
      <trkpt lat="-28.15844" lon="-65.790485">
        <ele>950.8</ele>
        <time>2018-08-20T15:09:17Z</time>
      </trkpt>
      <trkpt lat="-28.15852" lon="-65.79047166666666">
        <ele>951.0</ele>
        <time>2018-08-20T15:09:21Z</time>
      </trkpt>
      <trkpt lat="-28.158595" lon="-65.79047">
        <ele>951.3</ele>
        <time>2018-08-20T15:09:25Z</time>
      </trkpt>
      <trkpt lat="-28.15868" lon="-65.790455">
        <ele>951.7</ele>
        <time>2018-08-20T15:09:29Z</time>
      </trkpt>
      <trkpt lat="-28.15877" lon="-65.790445">
        <ele>952.2</ele>
        <time>2018-08-20T15:09:33Z</time>
      </trkpt>
      <trkpt lat="-28.158845" lon="-65.79044">
        <ele>952.6</ele>
        <time>2018-08-20T15:09:37Z</time>
      </trkpt>
      <trkpt lat="-28.158925" lon="-65.790435">
        <ele>952.9</ele>
        <time>2018-08-20T15:09:41Z</time>
      </trkpt>
      <trkpt lat="-28.158995" lon="-65.790405">
        <ele>953.3</ele>
        <time>2018-08-20T15:09:45Z</time>
      </trkpt>
      <trkpt lat="-28.15907" lon="-65.79039666666667">
        <ele>953.5</ele>
        <time>2018-08-20T15:09:51Z</time>
      </trkpt>
      <trkpt lat="-28.15917" lon="-65.790395">
        <ele>953.9</ele>
        <time>2018-08-20T15:09:56Z</time>
      </trkpt>
      <trkpt lat="-28.159245" lon="-65.790385">
        <ele>954.2</ele>
        <time>2018-08-20T15:10:00Z</time>
      </trkpt>
      <trkpt lat="-28.159335" lon="-65.790375">
        <ele>954.5</ele>
        <time>2018-08-20T15:10:03Z</time>
      </trkpt>
      <trkpt lat="-28.15941" lon="-65.79036">
        <ele>954.7</ele>
        <time>2018-08-20T15:10:07Z</time>
      </trkpt>
      <trkpt lat="-28.15951" lon="-65.79035">
        <ele>954.8</ele>
        <time>2018-08-20T15:10:11Z</time>
      </trkpt>
      <trkpt lat="-28.1596" lon="-65.79035">
        <ele>954.9</ele>
        <time>2018-08-20T15:10:15Z</time>
      </trkpt>
      <trkpt lat="-28.15967" lon="-65.790345">
        <ele>955.0</ele>
        <time>2018-08-20T15:10:18Z</time>
      </trkpt>
      <trkpt lat="-28.159756666666667" lon="-65.79033">
        <ele>955.2</ele>
        <time>2018-08-20T15:10:22Z</time>
      </trkpt>
      <trkpt lat="-28.15985" lon="-65.79033">
        <ele>955.4</ele>
        <time>2018-08-20T15:10:26Z</time>
      </trkpt>
      <trkpt lat="-28.15993" lon="-65.79031833333333">
        <ele>955.6</ele>
        <time>2018-08-20T15:10:30Z</time>
      </trkpt>
      <trkpt lat="-28.160023333333335" lon="-65.79031">
        <ele>955.8</ele>
        <time>2018-08-20T15:10:34Z</time>
      </trkpt>
      <trkpt lat="-28.160103333333332" lon="-65.790305">
        <ele>956.1</ele>
        <time>2018-08-20T15:10:37Z</time>
      </trkpt>
      <trkpt lat="-28.16018" lon="-65.7903">
        <ele>956.5</ele>
        <time>2018-08-20T15:10:40Z</time>
      </trkpt>
      <trkpt lat="-28.16027" lon="-65.79029">
        <ele>956.8</ele>
        <time>2018-08-20T15:10:44Z</time>
      </trkpt>
      <trkpt lat="-28.160345" lon="-65.790285">
        <ele>957.0</ele>
        <time>2018-08-20T15:10:47Z</time>
      </trkpt>
      <trkpt lat="-28.16043" lon="-65.79027166666667">
        <ele>957.2</ele>
        <time>2018-08-20T15:10:50Z</time>
      </trkpt>
      <trkpt lat="-28.160515" lon="-65.79026666666667">
        <ele>957.5</ele>
        <time>2018-08-20T15:10:54Z</time>
      </trkpt>
      <trkpt lat="-28.1606" lon="-65.79026">
        <ele>957.7</ele>
        <time>2018-08-20T15:10:57Z</time>
      </trkpt>
      <trkpt lat="-28.1607" lon="-65.790245">
        <ele>957.8</ele>
        <time>2018-08-20T15:11:00Z</time>
      </trkpt>
      <trkpt lat="-28.160775" lon="-65.790245">
        <ele>958.7</ele>
        <time>2018-08-20T15:11:02Z</time>
      </trkpt>
      <trkpt lat="-28.16086" lon="-65.79023333333333">
        <ele>959.9</ele>
        <time>2018-08-20T15:11:04Z</time>
      </trkpt>
      <trkpt lat="-28.16094" lon="-65.79022833333333">
        <ele>960.2</ele>
        <time>2018-08-20T15:11:06Z</time>
      </trkpt>
      <trkpt lat="-28.161016666666665" lon="-65.79022166666667">
        <ele>960.5</ele>
        <time>2018-08-20T15:11:08Z</time>
      </trkpt>
      <trkpt lat="-28.161105" lon="-65.79022">
        <ele>960.8</ele>
        <time>2018-08-20T15:11:10Z</time>
      </trkpt>
      <trkpt lat="-28.16118" lon="-65.79022">
        <ele>961.1</ele>
        <time>2018-08-20T15:11:12Z</time>
      </trkpt>
      <trkpt lat="-28.161255" lon="-65.79022">
        <ele>961.0</ele>
        <time>2018-08-20T15:11:14Z</time>
      </trkpt>
      <trkpt lat="-28.16134" lon="-65.79022">
        <ele>960.6</ele>
        <time>2018-08-20T15:11:16Z</time>
      </trkpt>
      <trkpt lat="-28.161431666666665" lon="-65.79022">
        <ele>961.3</ele>
        <time>2018-08-20T15:11:18Z</time>
      </trkpt>
      <trkpt lat="-28.161515" lon="-65.79022">
        <ele>962.3</ele>
        <time>2018-08-20T15:11:20Z</time>
      </trkpt>
      <trkpt lat="-28.161611666666666" lon="-65.79023333333333">
        <ele>961.4</ele>
        <time>2018-08-20T15:11:22Z</time>
      </trkpt>
      <trkpt lat="-28.161715" lon="-65.790255">
        <ele>960.1</ele>
        <time>2018-08-20T15:11:24Z</time>
      </trkpt>
      <trkpt lat="-28.16181" lon="-65.79027166666667">
        <ele>958.8</ele>
        <time>2018-08-20T15:11:26Z</time>
      </trkpt>
      <trkpt lat="-28.161916666666666" lon="-65.790295">
        <ele>959.0</ele>
        <time>2018-08-20T15:11:29Z</time>
      </trkpt>
      <trkpt lat="-28.162015" lon="-65.790315">
        <ele>959.4</ele>
        <time>2018-08-20T15:11:31Z</time>
      </trkpt>
      <trkpt lat="-28.16212" lon="-65.79035">
        <ele>959.8</ele>
        <time>2018-08-20T15:11:33Z</time>
      </trkpt>
      <trkpt lat="-28.162225" lon="-65.790385">
        <ele>959.9</ele>
        <time>2018-08-20T15:11:35Z</time>
      </trkpt>
      <trkpt lat="-28.16234" lon="-65.790425">
        <ele>959.9</ele>
        <time>2018-08-20T15:11:37Z</time>
      </trkpt>
      <trkpt lat="-28.16245" lon="-65.79046166666667">
        <ele>959.5</ele>
        <time>2018-08-20T15:11:39Z</time>
      </trkpt>
      <trkpt lat="-28.16253" lon="-65.79049">
        <ele>958.7</ele>
        <time>2018-08-20T15:11:40Z</time>
      </trkpt>
      <trkpt lat="-28.16259833333333" lon="-65.79052">
        <ele>957.7</ele>
        <time>2018-08-20T15:11:41Z</time>
      </trkpt>
      <trkpt lat="-28.162735" lon="-65.790565">
        <ele>955.7</ele>
        <time>2018-08-20T15:11:43Z</time>
      </trkpt>
      <trkpt lat="-28.162865" lon="-65.79061">
        <ele>953.9</ele>
        <time>2018-08-20T15:11:45Z</time>
      </trkpt>
      <trkpt lat="-28.162935" lon="-65.79063666666667">
        <ele>953.2</ele>
        <time>2018-08-20T15:11:46Z</time>
      </trkpt>
      <trkpt lat="-28.16301" lon="-65.79067">
        <ele>952.6</ele>
        <time>2018-08-20T15:11:47Z</time>
      </trkpt>
      <trkpt lat="-28.16314" lon="-65.790715">
        <ele>952.8</ele>
        <time>2018-08-20T15:11:49Z</time>
      </trkpt>
      <trkpt lat="-28.163211666666665" lon="-65.790745">
        <ele>953.2</ele>
        <time>2018-08-20T15:11:50Z</time>
      </trkpt>
      <trkpt lat="-28.163295" lon="-65.79076666666667">
        <ele>953.6</ele>
        <time>2018-08-20T15:11:51Z</time>
      </trkpt>
      <trkpt lat="-28.163385" lon="-65.7908">
        <ele>953.8</ele>
        <time>2018-08-20T15:11:52Z</time>
      </trkpt>
      <trkpt lat="-28.16347" lon="-65.79082">
        <ele>953.9</ele>
        <time>2018-08-20T15:11:53Z</time>
      </trkpt>
      <trkpt lat="-28.16356" lon="-65.790835">
        <ele>953.8</ele>
        <time>2018-08-20T15:11:54Z</time>
      </trkpt>
      <trkpt lat="-28.163655" lon="-65.79085333333333">
        <ele>953.5</ele>
        <time>2018-08-20T15:11:55Z</time>
      </trkpt>
      <trkpt lat="-28.163755" lon="-65.790865">
        <ele>953.2</ele>
        <time>2018-08-20T15:11:56Z</time>
      </trkpt>
      <trkpt lat="-28.16386" lon="-65.790885">
        <ele>952.8</ele>
        <time>2018-08-20T15:11:57Z</time>
      </trkpt>
      <trkpt lat="-28.163963333333335" lon="-65.790885">
        <ele>952.3</ele>
        <time>2018-08-20T15:11:58Z</time>
      </trkpt>
      <trkpt lat="-28.164075" lon="-65.790895">
        <ele>951.8</ele>
        <time>2018-08-20T15:11:59Z</time>
      </trkpt>
      <trkpt lat="-28.164195" lon="-65.79088666666667">
        <ele>951.3</ele>
        <time>2018-08-20T15:12:00Z</time>
      </trkpt>
      <trkpt lat="-28.164325" lon="-65.790885">
        <ele>950.4</ele>
        <time>2018-08-20T15:12:01Z</time>
      </trkpt>
      <trkpt lat="-28.16443" lon="-65.790875">
        <ele>949.8</ele>
        <time>2018-08-20T15:12:02Z</time>
      </trkpt>
      <trkpt lat="-28.164545" lon="-65.79085333333333">
        <ele>949.4</ele>
        <time>2018-08-20T15:12:03Z</time>
      </trkpt>
      <trkpt lat="-28.16467" lon="-65.790835">
        <ele>948.6</ele>
        <time>2018-08-20T15:12:04Z</time>
      </trkpt>
      <trkpt lat="-28.164785" lon="-65.79081">
        <ele>947.6</ele>
        <time>2018-08-20T15:12:05Z</time>
      </trkpt>
      <trkpt lat="-28.1649" lon="-65.79079">
        <ele>946.6</ele>
        <time>2018-08-20T15:12:06Z</time>
      </trkpt>
      <trkpt lat="-28.165" lon="-65.790755">
        <ele>946.0</ele>
        <time>2018-08-20T15:12:07Z</time>
      </trkpt>
      <trkpt lat="-28.165075" lon="-65.79072166666667">
        <ele>946.1</ele>
        <time>2018-08-20T15:12:08Z</time>
      </trkpt>
      <trkpt lat="-28.165146666666665" lon="-65.790685">
        <ele>946.5</ele>
        <time>2018-08-20T15:12:09Z</time>
      </trkpt>
      <trkpt lat="-28.165225" lon="-65.790655">
        <ele>947.1</ele>
        <time>2018-08-20T15:12:10Z</time>
      </trkpt>
      <trkpt lat="-28.16531" lon="-65.79061">
        <ele>947.8</ele>
        <time>2018-08-20T15:12:11Z</time>
      </trkpt>
      <trkpt lat="-28.16538" lon="-65.790575">
        <ele>948.2</ele>
        <time>2018-08-20T15:12:12Z</time>
      </trkpt>
      <trkpt lat="-28.165441666666666" lon="-65.79053666666667">
        <ele>948.7</ele>
        <time>2018-08-20T15:12:13Z</time>
      </trkpt>
      <trkpt lat="-28.16556" lon="-65.790485">
        <ele>950.1</ele>
        <time>2018-08-20T15:12:15Z</time>
      </trkpt>
      <trkpt lat="-28.165665" lon="-65.790425">
        <ele>951.1</ele>
        <time>2018-08-20T15:12:17Z</time>
      </trkpt>
      <trkpt lat="-28.16576" lon="-65.79036">
        <ele>952.1</ele>
        <time>2018-08-20T15:12:19Z</time>
      </trkpt>
      <trkpt lat="-28.16584" lon="-65.79031333333333">
        <ele>953.1</ele>
        <time>2018-08-20T15:12:21Z</time>
      </trkpt>
      <trkpt lat="-28.165905" lon="-65.790265">
        <ele>953.6</ele>
        <time>2018-08-20T15:12:23Z</time>
      </trkpt>
      <trkpt lat="-28.165966666666666" lon="-65.790215">
        <ele>953.9</ele>
        <time>2018-08-20T15:12:25Z</time>
      </trkpt>
      <trkpt lat="-28.166035" lon="-65.79016">
        <ele>954.1</ele>
        <time>2018-08-20T15:12:27Z</time>
      </trkpt>
      <trkpt lat="-28.166095" lon="-65.790105">
        <ele>954.4</ele>
        <time>2018-08-20T15:12:29Z</time>
      </trkpt>
      <trkpt lat="-28.166155" lon="-65.79004666666667">
        <ele>954.7</ele>
        <time>2018-08-20T15:12:31Z</time>
      </trkpt>
      <trkpt lat="-28.16622" lon="-65.789995">
        <ele>954.6</ele>
        <time>2018-08-20T15:12:33Z</time>
      </trkpt>
      <trkpt lat="-28.16628" lon="-65.789935">
        <ele>954.4</ele>
        <time>2018-08-20T15:12:35Z</time>
      </trkpt>
      <trkpt lat="-28.166335" lon="-65.78987166666667">
        <ele>954.6</ele>
        <time>2018-08-20T15:12:37Z</time>
      </trkpt>
      <trkpt lat="-28.16639" lon="-65.789815">
        <ele>954.5</ele>
        <time>2018-08-20T15:12:39Z</time>
      </trkpt>
      <trkpt lat="-28.16645" lon="-65.789755">
        <ele>954.1</ele>
        <time>2018-08-20T15:12:41Z</time>
      </trkpt>
      <trkpt lat="-28.16651" lon="-65.78969166666667">
        <ele>954.0</ele>
        <time>2018-08-20T15:12:43Z</time>
      </trkpt>
      <trkpt lat="-28.16657" lon="-65.78963666666667">
        <ele>954.0</ele>
        <time>2018-08-20T15:12:45Z</time>
      </trkpt>
      <trkpt lat="-28.16665" lon="-65.78956">
        <ele>954.0</ele>
        <time>2018-08-20T15:12:48Z</time>
      </trkpt>
      <trkpt lat="-28.166705" lon="-65.789505">
        <ele>954.1</ele>
        <time>2018-08-20T15:12:50Z</time>
      </trkpt>
      <trkpt lat="-28.16676" lon="-65.78946">
        <ele>954.1</ele>
        <time>2018-08-20T15:12:52Z</time>
      </trkpt>
      <trkpt lat="-28.16684" lon="-65.789375">
        <ele>954.1</ele>
        <time>2018-08-20T15:12:55Z</time>
      </trkpt>
      <trkpt lat="-28.16691" lon="-65.78931">
        <ele>954.0</ele>
        <time>2018-08-20T15:12:58Z</time>
      </trkpt>
      <trkpt lat="-28.166975" lon="-65.789235">
        <ele>953.9</ele>
        <time>2018-08-20T15:13:01Z</time>
      </trkpt>
      <trkpt lat="-28.16703" lon="-65.789175">
        <ele>953.7</ele>
        <time>2018-08-20T15:13:04Z</time>
      </trkpt>
      <trkpt lat="-28.1671" lon="-65.78912">
        <ele>953.7</ele>
        <time>2018-08-20T15:13:07Z</time>
      </trkpt>
      <trkpt lat="-28.167175" lon="-65.789045">
        <ele>953.7</ele>
        <time>2018-08-20T15:13:10Z</time>
      </trkpt>
      <trkpt lat="-28.16723" lon="-65.78897833333333">
        <ele>953.4</ele>
        <time>2018-08-20T15:13:12Z</time>
      </trkpt>
      <trkpt lat="-28.167295" lon="-65.78891666666667">
        <ele>953.2</ele>
        <time>2018-08-20T15:13:14Z</time>
      </trkpt>
      <trkpt lat="-28.167355" lon="-65.788855">
        <ele>952.9</ele>
        <time>2018-08-20T15:13:16Z</time>
      </trkpt>
      <trkpt lat="-28.16742" lon="-65.78878666666667">
        <ele>952.9</ele>
        <time>2018-08-20T15:13:18Z</time>
      </trkpt>
      <trkpt lat="-28.16748" lon="-65.788725">
        <ele>953.3</ele>
        <time>2018-08-20T15:13:20Z</time>
      </trkpt>
      <trkpt lat="-28.167565" lon="-65.788655">
        <ele>953.7</ele>
        <time>2018-08-20T15:13:22Z</time>
      </trkpt>
      <trkpt lat="-28.167635" lon="-65.788585">
        <ele>953.6</ele>
        <time>2018-08-20T15:13:24Z</time>
      </trkpt>
      <trkpt lat="-28.16772" lon="-65.7885">
        <ele>953.2</ele>
        <time>2018-08-20T15:13:26Z</time>
      </trkpt>
      <trkpt lat="-28.167815" lon="-65.788415">
        <ele>953.1</ele>
        <time>2018-08-20T15:13:28Z</time>
      </trkpt>
      <trkpt lat="-28.16791" lon="-65.78832">
        <ele>952.4</ele>
        <time>2018-08-20T15:13:30Z</time>
      </trkpt>
      <trkpt lat="-28.168015" lon="-65.78821333333333">
        <ele>952.0</ele>
        <time>2018-08-20T15:13:32Z</time>
      </trkpt>
      <trkpt lat="-28.16808" lon="-65.788165">
        <ele>951.5</ele>
        <time>2018-08-20T15:13:33Z</time>
      </trkpt>
      <trkpt lat="-28.168135" lon="-65.78810833333333">
        <ele>951.0</ele>
        <time>2018-08-20T15:13:34Z</time>
      </trkpt>
      <trkpt lat="-28.168195" lon="-65.788065">
        <ele>950.5</ele>
        <time>2018-08-20T15:13:35Z</time>
      </trkpt>
      <trkpt lat="-28.168305" lon="-65.787965">
        <ele>949.1</ele>
        <time>2018-08-20T15:13:37Z</time>
      </trkpt>
      <trkpt lat="-28.16842" lon="-65.787875">
        <ele>947.4</ele>
        <time>2018-08-20T15:13:39Z</time>
      </trkpt>
      <trkpt lat="-28.16854" lon="-65.787785">
        <ele>945.5</ele>
        <time>2018-08-20T15:13:41Z</time>
      </trkpt>
      <trkpt lat="-28.168663333333335" lon="-65.787695">
        <ele>944.0</ele>
        <time>2018-08-20T15:13:43Z</time>
      </trkpt>
      <trkpt lat="-28.168795" lon="-65.7876">
        <ele>942.8</ele>
        <time>2018-08-20T15:13:45Z</time>
      </trkpt>
      <trkpt lat="-28.16886" lon="-65.78756">
        <ele>942.7</ele>
        <time>2018-08-20T15:13:46Z</time>
      </trkpt>
      <trkpt lat="-28.168921666666666" lon="-65.787515">
        <ele>943.0</ele>
        <time>2018-08-20T15:13:47Z</time>
      </trkpt>
      <trkpt lat="-28.16899" lon="-65.78747">
        <ele>943.8</ele>
        <time>2018-08-20T15:13:48Z</time>
      </trkpt>
      <trkpt lat="-28.16906" lon="-65.78742">
        <ele>944.6</ele>
        <time>2018-08-20T15:13:49Z</time>
      </trkpt>
      <trkpt lat="-28.16913" lon="-65.787375">
        <ele>945.2</ele>
        <time>2018-08-20T15:13:50Z</time>
      </trkpt>
      <trkpt lat="-28.169205" lon="-65.787335">
        <ele>945.5</ele>
        <time>2018-08-20T15:13:51Z</time>
      </trkpt>
      <trkpt lat="-28.169275" lon="-65.78729">
        <ele>945.8</ele>
        <time>2018-08-20T15:13:52Z</time>
      </trkpt>
      <trkpt lat="-28.169345" lon="-65.787255">
        <ele>945.5</ele>
        <time>2018-08-20T15:13:53Z</time>
      </trkpt>
      <trkpt lat="-28.169416666666667" lon="-65.78721666666667">
        <ele>944.9</ele>
        <time>2018-08-20T15:13:54Z</time>
      </trkpt>
      <trkpt lat="-28.1695" lon="-65.78718">
        <ele>944.3</ele>
        <time>2018-08-20T15:13:55Z</time>
      </trkpt>
      <trkpt lat="-28.16958" lon="-65.78713833333333">
        <ele>943.6</ele>
        <time>2018-08-20T15:13:56Z</time>
      </trkpt>
      <trkpt lat="-28.16966" lon="-65.787095">
        <ele>942.9</ele>
        <time>2018-08-20T15:13:57Z</time>
      </trkpt>
      <trkpt lat="-28.169745" lon="-65.78705333333333">
        <ele>942.2</ele>
        <time>2018-08-20T15:13:58Z</time>
      </trkpt>
      <trkpt lat="-28.16983" lon="-65.78701">
        <ele>941.6</ele>
        <time>2018-08-20T15:13:59Z</time>
      </trkpt>
      <trkpt lat="-28.169915" lon="-65.78697">
        <ele>941.0</ele>
        <time>2018-08-20T15:14:00Z</time>
      </trkpt>
      <trkpt lat="-28.17" lon="-65.786925">
        <ele>940.5</ele>
        <time>2018-08-20T15:14:01Z</time>
      </trkpt>
      <trkpt lat="-28.170085" lon="-65.78688">
        <ele>939.9</ele>
        <time>2018-08-20T15:14:02Z</time>
      </trkpt>
      <trkpt lat="-28.17017" lon="-65.78682833333333">
        <ele>939.4</ele>
        <time>2018-08-20T15:14:03Z</time>
      </trkpt>
      <trkpt lat="-28.17026" lon="-65.78678166666667">
        <ele>938.8</ele>
        <time>2018-08-20T15:14:04Z</time>
      </trkpt>
      <trkpt lat="-28.17035" lon="-65.78673833333333">
        <ele>938.4</ele>
        <time>2018-08-20T15:14:05Z</time>
      </trkpt>
      <trkpt lat="-28.170435" lon="-65.78669">
        <ele>937.9</ele>
        <time>2018-08-20T15:14:06Z</time>
      </trkpt>
      <trkpt lat="-28.170523333333332" lon="-65.78664166666667">
        <ele>937.5</ele>
        <time>2018-08-20T15:14:07Z</time>
      </trkpt>
      <trkpt lat="-28.170615" lon="-65.78659666666667">
        <ele>937.2</ele>
        <time>2018-08-20T15:14:08Z</time>
      </trkpt>
      <trkpt lat="-28.1707" lon="-65.78655166666667">
        <ele>936.9</ele>
        <time>2018-08-20T15:14:09Z</time>
      </trkpt>
      <trkpt lat="-28.17078" lon="-65.78651">
        <ele>936.6</ele>
        <time>2018-08-20T15:14:10Z</time>
      </trkpt>
      <trkpt lat="-28.170865" lon="-65.786465">
        <ele>936.4</ele>
        <time>2018-08-20T15:14:11Z</time>
      </trkpt>
      <trkpt lat="-28.17095" lon="-65.78642333333333">
        <ele>936.2</ele>
        <time>2018-08-20T15:14:12Z</time>
      </trkpt>
      <trkpt lat="-28.17103" lon="-65.78639">
        <ele>936.1</ele>
        <time>2018-08-20T15:14:13Z</time>
      </trkpt>
      <trkpt lat="-28.171105" lon="-65.78635">
        <ele>936.1</ele>
        <time>2018-08-20T15:14:14Z</time>
      </trkpt>
      <trkpt lat="-28.171175" lon="-65.786315">
        <ele>936.2</ele>
        <time>2018-08-20T15:14:15Z</time>
      </trkpt>
      <trkpt lat="-28.171245" lon="-65.78628">
        <ele>936.3</ele>
        <time>2018-08-20T15:14:16Z</time>
      </trkpt>
      <trkpt lat="-28.171375" lon="-65.786215">
        <ele>936.4</ele>
        <time>2018-08-20T15:14:18Z</time>
      </trkpt>
      <trkpt lat="-28.17144" lon="-65.78618">
        <ele>936.5</ele>
        <time>2018-08-20T15:14:19Z</time>
      </trkpt>
      <trkpt lat="-28.171535" lon="-65.786125">
        <ele>936.9</ele>
        <time>2018-08-20T15:14:21Z</time>
      </trkpt>
      <trkpt lat="-28.17161" lon="-65.78607">
        <ele>937.3</ele>
        <time>2018-08-20T15:14:23Z</time>
      </trkpt>
      <trkpt lat="-28.17169" lon="-65.78604">
        <ele>937.5</ele>
        <time>2018-08-20T15:14:25Z</time>
      </trkpt>
      <trkpt lat="-28.171765" lon="-65.785995">
        <ele>937.8</ele>
        <time>2018-08-20T15:14:27Z</time>
      </trkpt>
      <trkpt lat="-28.17184" lon="-65.78596">
        <ele>937.9</ele>
        <time>2018-08-20T15:14:29Z</time>
      </trkpt>
      <trkpt lat="-28.17191" lon="-65.78592">
        <ele>937.9</ele>
        <time>2018-08-20T15:14:31Z</time>
      </trkpt>
      <trkpt lat="-28.17198" lon="-65.78588333333333">
        <ele>938.0</ele>
        <time>2018-08-20T15:14:33Z</time>
      </trkpt>
      <trkpt lat="-28.172075" lon="-65.78583166666667">
        <ele>938.1</ele>
        <time>2018-08-20T15:14:36Z</time>
      </trkpt>
      <trkpt lat="-28.17216" lon="-65.78579">
        <ele>938.4</ele>
        <time>2018-08-20T15:14:39Z</time>
      </trkpt>
      <trkpt lat="-28.172245" lon="-65.785745">
        <ele>938.6</ele>
        <time>2018-08-20T15:14:42Z</time>
      </trkpt>
      <trkpt lat="-28.17233" lon="-65.78569666666667">
        <ele>938.8</ele>
        <time>2018-08-20T15:14:45Z</time>
      </trkpt>
      <trkpt lat="-28.1724" lon="-65.78566000000001">
        <ele>939.1</ele>
        <time>2018-08-20T15:14:48Z</time>
      </trkpt>
      <trkpt lat="-28.172475" lon="-65.78562">
        <ele>939.3</ele>
        <time>2018-08-20T15:14:51Z</time>
      </trkpt>
      <trkpt lat="-28.17255" lon="-65.785585">
        <ele>939.5</ele>
        <time>2018-08-20T15:14:54Z</time>
      </trkpt>
      <trkpt lat="-28.17263" lon="-65.78552833333333">
        <ele>939.7</ele>
        <time>2018-08-20T15:14:58Z</time>
      </trkpt>
      <trkpt lat="-28.172715" lon="-65.78548">
        <ele>939.9</ele>
        <time>2018-08-20T15:15:02Z</time>
      </trkpt>
      <trkpt lat="-28.172785" lon="-65.785435">
        <ele>940.1</ele>
        <time>2018-08-20T15:15:05Z</time>
      </trkpt>
      <trkpt lat="-28.172855" lon="-65.785385">
        <ele>940.2</ele>
        <time>2018-08-20T15:15:08Z</time>
      </trkpt>
      <trkpt lat="-28.172915" lon="-65.78534166666667">
        <ele>940.4</ele>
        <time>2018-08-20T15:15:11Z</time>
      </trkpt>
      <trkpt lat="-28.172981666666665" lon="-65.78529">
        <ele>940.4</ele>
        <time>2018-08-20T15:15:15Z</time>
      </trkpt>
      <trkpt lat="-28.17305" lon="-65.785245">
        <ele>940.5</ele>
        <time>2018-08-20T15:15:19Z</time>
      </trkpt>
      <trkpt lat="-28.17312" lon="-65.785195">
        <ele>940.6</ele>
        <time>2018-08-20T15:15:25Z</time>
      </trkpt>
      <trkpt lat="-28.173195" lon="-65.78515">
        <ele>940.6</ele>
        <time>2018-08-20T15:15:29Z</time>
      </trkpt>
      <trkpt lat="-28.173253333333335" lon="-65.785105">
        <ele>940.8</ele>
        <time>2018-08-20T15:15:32Z</time>
      </trkpt>
      <trkpt lat="-28.17333" lon="-65.78505">
        <ele>940.9</ele>
        <time>2018-08-20T15:15:35Z</time>
      </trkpt>
      <trkpt lat="-28.173398333333335" lon="-65.78498833333333">
        <ele>940.9</ele>
        <time>2018-08-20T15:15:38Z</time>
      </trkpt>
      <trkpt lat="-28.173478333333332" lon="-65.784925">
        <ele>941.0</ele>
        <time>2018-08-20T15:15:41Z</time>
      </trkpt>
      <trkpt lat="-28.173565" lon="-65.78485833333333">
        <ele>941.0</ele>
        <time>2018-08-20T15:15:44Z</time>
      </trkpt>
      <trkpt lat="-28.173621666666666" lon="-65.78480833333333">
        <ele>941.0</ele>
        <time>2018-08-20T15:15:46Z</time>
      </trkpt>
      <trkpt lat="-28.17369" lon="-65.78476">
        <ele>941.0</ele>
        <time>2018-08-20T15:15:48Z</time>
      </trkpt>
      <trkpt lat="-28.173755" lon="-65.78471">
        <ele>940.9</ele>
        <time>2018-08-20T15:15:50Z</time>
      </trkpt>
      <trkpt lat="-28.173811666666666" lon="-65.78466">
        <ele>940.8</ele>
        <time>2018-08-20T15:15:52Z</time>
      </trkpt>
      <trkpt lat="-28.17388" lon="-65.784605">
        <ele>940.7</ele>
        <time>2018-08-20T15:15:54Z</time>
      </trkpt>
      <trkpt lat="-28.17396" lon="-65.784535">
        <ele>940.7</ele>
        <time>2018-08-20T15:15:56Z</time>
      </trkpt>
      <trkpt lat="-28.174036666666666" lon="-65.784465">
        <ele>940.9</ele>
        <time>2018-08-20T15:15:58Z</time>
      </trkpt>
      <trkpt lat="-28.17413" lon="-65.78439">
        <ele>940.9</ele>
        <time>2018-08-20T15:16:00Z</time>
      </trkpt>
      <trkpt lat="-28.174215" lon="-65.78431666666667">
        <ele>940.7</ele>
        <time>2018-08-20T15:16:02Z</time>
      </trkpt>
      <trkpt lat="-28.1743" lon="-65.78425">
        <ele>940.0</ele>
        <time>2018-08-20T15:16:04Z</time>
      </trkpt>
      <trkpt lat="-28.17439" lon="-65.784165">
        <ele>939.5</ele>
        <time>2018-08-20T15:16:06Z</time>
      </trkpt>
      <trkpt lat="-28.174496666666666" lon="-65.784075">
        <ele>939.6</ele>
        <time>2018-08-20T15:16:08Z</time>
      </trkpt>
      <trkpt lat="-28.174615" lon="-65.78397">
        <ele>939.9</ele>
        <time>2018-08-20T15:16:10Z</time>
      </trkpt>
      <trkpt lat="-28.17472" lon="-65.78387666666667">
        <ele>939.6</ele>
        <time>2018-08-20T15:16:12Z</time>
      </trkpt>
      <trkpt lat="-28.17484" lon="-65.783775">
        <ele>938.8</ele>
        <time>2018-08-20T15:16:14Z</time>
      </trkpt>
      <trkpt lat="-28.174905" lon="-65.783725">
        <ele>938.7</ele>
        <time>2018-08-20T15:16:15Z</time>
      </trkpt>
      <trkpt lat="-28.17497" lon="-65.78367">
        <ele>938.4</ele>
        <time>2018-08-20T15:16:16Z</time>
      </trkpt>
      <trkpt lat="-28.17503" lon="-65.783615">
        <ele>938.0</ele>
        <time>2018-08-20T15:16:17Z</time>
      </trkpt>
      <trkpt lat="-28.1751" lon="-65.78355">
        <ele>937.7</ele>
        <time>2018-08-20T15:16:18Z</time>
      </trkpt>
      <trkpt lat="-28.17517" lon="-65.78349">
        <ele>937.6</ele>
        <time>2018-08-20T15:16:19Z</time>
      </trkpt>
      <trkpt lat="-28.17524" lon="-65.78342666666667">
        <ele>937.5</ele>
        <time>2018-08-20T15:16:20Z</time>
      </trkpt>
      <trkpt lat="-28.175305" lon="-65.78337">
        <ele>937.1</ele>
        <time>2018-08-20T15:16:21Z</time>
      </trkpt>
      <trkpt lat="-28.175375" lon="-65.78332">
        <ele>936.5</ele>
        <time>2018-08-20T15:16:22Z</time>
      </trkpt>
      <trkpt lat="-28.17544" lon="-65.783255">
        <ele>935.8</ele>
        <time>2018-08-20T15:16:23Z</time>
      </trkpt>
      <trkpt lat="-28.175515" lon="-65.78318666666667">
        <ele>935.5</ele>
        <time>2018-08-20T15:16:24Z</time>
      </trkpt>
      <trkpt lat="-28.17559" lon="-65.783135">
        <ele>935.1</ele>
        <time>2018-08-20T15:16:25Z</time>
      </trkpt>
      <trkpt lat="-28.17567" lon="-65.78306166666667">
        <ele>934.9</ele>
        <time>2018-08-20T15:16:26Z</time>
      </trkpt>
      <trkpt lat="-28.17574" lon="-65.783">
        <ele>934.6</ele>
        <time>2018-08-20T15:16:27Z</time>
      </trkpt>
      <trkpt lat="-28.17582" lon="-65.78294">
        <ele>934.1</ele>
        <time>2018-08-20T15:16:28Z</time>
      </trkpt>
      <trkpt lat="-28.175895" lon="-65.782875">
        <ele>933.6</ele>
        <time>2018-08-20T15:16:29Z</time>
      </trkpt>
      <trkpt lat="-28.17597" lon="-65.782805">
        <ele>933.1</ele>
        <time>2018-08-20T15:16:30Z</time>
      </trkpt>
      <trkpt lat="-28.17605" lon="-65.78274166666667">
        <ele>932.6</ele>
        <time>2018-08-20T15:16:31Z</time>
      </trkpt>
      <trkpt lat="-28.176121666666667" lon="-65.782675">
        <ele>932.0</ele>
        <time>2018-08-20T15:16:32Z</time>
      </trkpt>
      <trkpt lat="-28.176205" lon="-65.78261">
        <ele>931.5</ele>
        <time>2018-08-20T15:16:33Z</time>
      </trkpt>
      <trkpt lat="-28.176285" lon="-65.782545">
        <ele>931.0</ele>
        <time>2018-08-20T15:16:34Z</time>
      </trkpt>
      <trkpt lat="-28.17636" lon="-65.78247">
        <ele>930.2</ele>
        <time>2018-08-20T15:16:35Z</time>
      </trkpt>
      <trkpt lat="-28.17644" lon="-65.78241">
        <ele>929.6</ele>
        <time>2018-08-20T15:16:36Z</time>
      </trkpt>
      <trkpt lat="-28.17652" lon="-65.78234">
        <ele>928.8</ele>
        <time>2018-08-20T15:16:37Z</time>
      </trkpt>
      <trkpt lat="-28.176595" lon="-65.78228">
        <ele>928.1</ele>
        <time>2018-08-20T15:16:38Z</time>
      </trkpt>
      <trkpt lat="-28.17667" lon="-65.78221666666667">
        <ele>927.6</ele>
        <time>2018-08-20T15:16:39Z</time>
      </trkpt>
      <trkpt lat="-28.17674" lon="-65.78216">
        <ele>927.2</ele>
        <time>2018-08-20T15:16:40Z</time>
      </trkpt>
      <trkpt lat="-28.17681" lon="-65.7821">
        <ele>926.8</ele>
        <time>2018-08-20T15:16:41Z</time>
      </trkpt>
      <trkpt lat="-28.17688" lon="-65.78203333333333">
        <ele>926.6</ele>
        <time>2018-08-20T15:16:42Z</time>
      </trkpt>
      <trkpt lat="-28.176955" lon="-65.78197">
        <ele>926.4</ele>
        <time>2018-08-20T15:16:43Z</time>
      </trkpt>
      <trkpt lat="-28.177025" lon="-65.781915">
        <ele>926.1</ele>
        <time>2018-08-20T15:16:44Z</time>
      </trkpt>
      <trkpt lat="-28.177095" lon="-65.78185">
        <ele>925.7</ele>
        <time>2018-08-20T15:16:45Z</time>
      </trkpt>
      <trkpt lat="-28.177165" lon="-65.781795">
        <ele>925.3</ele>
        <time>2018-08-20T15:16:46Z</time>
      </trkpt>
      <trkpt lat="-28.177235" lon="-65.781735">
        <ele>924.9</ele>
        <time>2018-08-20T15:16:47Z</time>
      </trkpt>
      <trkpt lat="-28.177296666666667" lon="-65.781675">
        <ele>924.5</ele>
        <time>2018-08-20T15:16:48Z</time>
      </trkpt>
      <trkpt lat="-28.17737" lon="-65.781615">
        <ele>924.2</ele>
        <time>2018-08-20T15:16:49Z</time>
      </trkpt>
      <trkpt lat="-28.17744" lon="-65.78156">
        <ele>923.8</ele>
        <time>2018-08-20T15:16:50Z</time>
      </trkpt>
      <trkpt lat="-28.17751" lon="-65.781495">
        <ele>923.3</ele>
        <time>2018-08-20T15:16:51Z</time>
      </trkpt>
      <trkpt lat="-28.177585" lon="-65.781435">
        <ele>922.9</ele>
        <time>2018-08-20T15:16:52Z</time>
      </trkpt>
      <trkpt lat="-28.177655" lon="-65.78136833333333">
        <ele>922.5</ele>
        <time>2018-08-20T15:16:53Z</time>
      </trkpt>
      <trkpt lat="-28.17773" lon="-65.781305">
        <ele>922.1</ele>
        <time>2018-08-20T15:16:54Z</time>
      </trkpt>
      <trkpt lat="-28.177805" lon="-65.78124">
        <ele>921.7</ele>
        <time>2018-08-20T15:16:55Z</time>
      </trkpt>
      <trkpt lat="-28.177885" lon="-65.781175">
        <ele>921.1</ele>
        <time>2018-08-20T15:16:56Z</time>
      </trkpt>
      <trkpt lat="-28.177965" lon="-65.7811">
        <ele>920.9</ele>
        <time>2018-08-20T15:16:57Z</time>
      </trkpt>
      <trkpt lat="-28.178045" lon="-65.781035">
        <ele>920.6</ele>
        <time>2018-08-20T15:16:58Z</time>
      </trkpt>
      <trkpt lat="-28.178115" lon="-65.780975">
        <ele>920.3</ele>
        <time>2018-08-20T15:16:59Z</time>
      </trkpt>
      <trkpt lat="-28.17819" lon="-65.780905">
        <ele>920.0</ele>
        <time>2018-08-20T15:17:00Z</time>
      </trkpt>
      <trkpt lat="-28.178255" lon="-65.780845">
        <ele>919.5</ele>
        <time>2018-08-20T15:17:01Z</time>
      </trkpt>
      <trkpt lat="-28.17833" lon="-65.78077333333333">
        <ele>919.0</ele>
        <time>2018-08-20T15:17:02Z</time>
      </trkpt>
      <trkpt lat="-28.178403333333332" lon="-65.780705">
        <ele>918.4</ele>
        <time>2018-08-20T15:17:03Z</time>
      </trkpt>
      <trkpt lat="-28.17849" lon="-65.780635">
        <ele>917.8</ele>
        <time>2018-08-20T15:17:04Z</time>
      </trkpt>
      <trkpt lat="-28.178575" lon="-65.78056166666667">
        <ele>917.2</ele>
        <time>2018-08-20T15:17:05Z</time>
      </trkpt>
      <trkpt lat="-28.17866" lon="-65.7805">
        <ele>916.7</ele>
        <time>2018-08-20T15:17:06Z</time>
      </trkpt>
      <trkpt lat="-28.178745" lon="-65.78042666666667">
        <ele>916.1</ele>
        <time>2018-08-20T15:17:07Z</time>
      </trkpt>
      <trkpt lat="-28.17883" lon="-65.78037">
        <ele>915.4</ele>
        <time>2018-08-20T15:17:08Z</time>
      </trkpt>
      <trkpt lat="-28.178915" lon="-65.7803">
        <ele>914.7</ele>
        <time>2018-08-20T15:17:09Z</time>
      </trkpt>
      <trkpt lat="-28.179" lon="-65.78024333333333">
        <ele>914.1</ele>
        <time>2018-08-20T15:17:10Z</time>
      </trkpt>
      <trkpt lat="-28.179075" lon="-65.78019">
        <ele>913.7</ele>
        <time>2018-08-20T15:17:11Z</time>
      </trkpt>
      <trkpt lat="-28.179153333333332" lon="-65.780135">
        <ele>913.3</ele>
        <time>2018-08-20T15:17:12Z</time>
      </trkpt>
      <trkpt lat="-28.17923" lon="-65.780085">
        <ele>913.1</ele>
        <time>2018-08-20T15:17:13Z</time>
      </trkpt>
      <trkpt lat="-28.179305" lon="-65.78003">
        <ele>912.9</ele>
        <time>2018-08-20T15:17:14Z</time>
      </trkpt>
      <trkpt lat="-28.179385" lon="-65.77999">
        <ele>912.9</ele>
        <time>2018-08-20T15:17:15Z</time>
      </trkpt>
      <trkpt lat="-28.179455" lon="-65.779945">
        <ele>912.9</ele>
        <time>2018-08-20T15:17:16Z</time>
      </trkpt>
      <trkpt lat="-28.17953" lon="-65.779905">
        <ele>912.9</ele>
        <time>2018-08-20T15:17:17Z</time>
      </trkpt>
      <trkpt lat="-28.1796" lon="-65.77986">
        <ele>912.9</ele>
        <time>2018-08-20T15:17:18Z</time>
      </trkpt>
      <trkpt lat="-28.179665" lon="-65.77983">
        <ele>912.8</ele>
        <time>2018-08-20T15:17:19Z</time>
      </trkpt>
      <trkpt lat="-28.179795" lon="-65.779765">
        <ele>912.8</ele>
        <time>2018-08-20T15:17:21Z</time>
      </trkpt>
      <trkpt lat="-28.179923333333335" lon="-65.77970166666667">
        <ele>912.4</ele>
        <time>2018-08-20T15:17:23Z</time>
      </trkpt>
      <trkpt lat="-28.180055" lon="-65.77965">
        <ele>912.7</ele>
        <time>2018-08-20T15:17:25Z</time>
      </trkpt>
      <trkpt lat="-28.18017" lon="-65.779595">
        <ele>913.4</ele>
        <time>2018-08-20T15:17:27Z</time>
      </trkpt>
      <trkpt lat="-28.18028" lon="-65.779545">
        <ele>914.0</ele>
        <time>2018-08-20T15:17:29Z</time>
      </trkpt>
      <trkpt lat="-28.180385" lon="-65.779505">
        <ele>914.6</ele>
        <time>2018-08-20T15:17:31Z</time>
      </trkpt>
      <trkpt lat="-28.18048" lon="-65.77947">
        <ele>914.6</ele>
        <time>2018-08-20T15:17:33Z</time>
      </trkpt>
      <trkpt lat="-28.18058" lon="-65.77943">
        <ele>913.8</ele>
        <time>2018-08-20T15:17:35Z</time>
      </trkpt>
      <trkpt lat="-28.18068" lon="-65.77938666666667">
        <ele>913.4</ele>
        <time>2018-08-20T15:17:37Z</time>
      </trkpt>
      <trkpt lat="-28.18078" lon="-65.779345">
        <ele>913.2</ele>
        <time>2018-08-20T15:17:39Z</time>
      </trkpt>
      <trkpt lat="-28.180885" lon="-65.7793">
        <ele>913.7</ele>
        <time>2018-08-20T15:17:41Z</time>
      </trkpt>
      <trkpt lat="-28.181" lon="-65.77924333333333">
        <ele>914.0</ele>
        <time>2018-08-20T15:17:43Z</time>
      </trkpt>
      <trkpt lat="-28.18112" lon="-65.7792">
        <ele>913.3</ele>
        <time>2018-08-20T15:17:45Z</time>
      </trkpt>
      <trkpt lat="-28.181238333333333" lon="-65.779145">
        <ele>913.2</ele>
        <time>2018-08-20T15:17:47Z</time>
      </trkpt>
      <trkpt lat="-28.181355" lon="-65.7791">
        <ele>912.5</ele>
        <time>2018-08-20T15:17:49Z</time>
      </trkpt>
      <trkpt lat="-28.181475" lon="-65.779055">
        <ele>911.3</ele>
        <time>2018-08-20T15:17:51Z</time>
      </trkpt>
      <trkpt lat="-28.181615" lon="-65.779">
        <ele>910.7</ele>
        <time>2018-08-20T15:17:53Z</time>
      </trkpt>
      <trkpt lat="-28.18169" lon="-65.77897">
        <ele>910.6</ele>
        <time>2018-08-20T15:17:54Z</time>
      </trkpt>
      <trkpt lat="-28.181765" lon="-65.778935">
        <ele>910.2</ele>
        <time>2018-08-20T15:17:55Z</time>
      </trkpt>
      <trkpt lat="-28.18184" lon="-65.778915">
        <ele>909.5</ele>
        <time>2018-08-20T15:17:56Z</time>
      </trkpt>
      <trkpt lat="-28.18191" lon="-65.778885">
        <ele>908.9</ele>
        <time>2018-08-20T15:17:57Z</time>
      </trkpt>
      <trkpt lat="-28.181985" lon="-65.77885">
        <ele>908.3</ele>
        <time>2018-08-20T15:17:58Z</time>
      </trkpt>
      <trkpt lat="-28.18206" lon="-65.77881833333333">
        <ele>907.8</ele>
        <time>2018-08-20T15:17:59Z</time>
      </trkpt>
      <trkpt lat="-28.182135" lon="-65.77879">
        <ele>907.3</ele>
        <time>2018-08-20T15:18:00Z</time>
      </trkpt>
      <trkpt lat="-28.182215" lon="-65.778755">
        <ele>906.9</ele>
        <time>2018-08-20T15:18:01Z</time>
      </trkpt>
      <trkpt lat="-28.182295" lon="-65.77872333333333">
        <ele>906.6</ele>
        <time>2018-08-20T15:18:02Z</time>
      </trkpt>
      <trkpt lat="-28.182375" lon="-65.77869">
        <ele>906.5</ele>
        <time>2018-08-20T15:18:03Z</time>
      </trkpt>
      <trkpt lat="-28.18246" lon="-65.77865">
        <ele>906.5</ele>
        <time>2018-08-20T15:18:04Z</time>
      </trkpt>
      <trkpt lat="-28.182545" lon="-65.778615">
        <ele>906.5</ele>
        <time>2018-08-20T15:18:05Z</time>
      </trkpt>
      <trkpt lat="-28.182625" lon="-65.778585">
        <ele>906.4</ele>
        <time>2018-08-20T15:18:06Z</time>
      </trkpt>
      <trkpt lat="-28.18271" lon="-65.778555">
        <ele>906.2</ele>
        <time>2018-08-20T15:18:07Z</time>
      </trkpt>
      <trkpt lat="-28.18279" lon="-65.77852">
        <ele>905.9</ele>
        <time>2018-08-20T15:18:08Z</time>
      </trkpt>
      <trkpt lat="-28.182875" lon="-65.778485">
        <ele>905.6</ele>
        <time>2018-08-20T15:18:09Z</time>
      </trkpt>
      <trkpt lat="-28.182946666666666" lon="-65.77845166666667">
        <ele>905.1</ele>
        <time>2018-08-20T15:18:10Z</time>
      </trkpt>
      <trkpt lat="-28.18303" lon="-65.778425">
        <ele>904.4</ele>
        <time>2018-08-20T15:18:11Z</time>
      </trkpt>
      <trkpt lat="-28.18311" lon="-65.77839">
        <ele>903.7</ele>
        <time>2018-08-20T15:18:12Z</time>
      </trkpt>
      <trkpt lat="-28.18319" lon="-65.77836">
        <ele>903.1</ele>
        <time>2018-08-20T15:18:13Z</time>
      </trkpt>
      <trkpt lat="-28.183275" lon="-65.77832333333333">
        <ele>902.7</ele>
        <time>2018-08-20T15:18:14Z</time>
      </trkpt>
      <trkpt lat="-28.18336" lon="-65.778285">
        <ele>902.2</ele>
        <time>2018-08-20T15:18:15Z</time>
      </trkpt>
      <trkpt lat="-28.183445" lon="-65.778255">
        <ele>901.8</ele>
        <time>2018-08-20T15:18:16Z</time>
      </trkpt>
      <trkpt lat="-28.183525" lon="-65.77822">
        <ele>901.4</ele>
        <time>2018-08-20T15:18:17Z</time>
      </trkpt>
      <trkpt lat="-28.183605" lon="-65.77818833333333">
        <ele>901.1</ele>
        <time>2018-08-20T15:18:18Z</time>
      </trkpt>
      <trkpt lat="-28.18368" lon="-65.77816">
        <ele>900.9</ele>
        <time>2018-08-20T15:18:19Z</time>
      </trkpt>
      <trkpt lat="-28.18376" lon="-65.778125">
        <ele>900.7</ele>
        <time>2018-08-20T15:18:20Z</time>
      </trkpt>
      <trkpt lat="-28.18383" lon="-65.77809">
        <ele>900.6</ele>
        <time>2018-08-20T15:18:21Z</time>
      </trkpt>
      <trkpt lat="-28.18389833333333" lon="-65.77806">
        <ele>900.5</ele>
        <time>2018-08-20T15:18:22Z</time>
      </trkpt>
      <trkpt lat="-28.183975" lon="-65.77803">
        <ele>900.3</ele>
        <time>2018-08-20T15:18:23Z</time>
      </trkpt>
      <trkpt lat="-28.184041666666666" lon="-65.77800166666667">
        <ele>900.2</ele>
        <time>2018-08-20T15:18:24Z</time>
      </trkpt>
      <trkpt lat="-28.184115" lon="-65.777985">
        <ele>900.0</ele>
        <time>2018-08-20T15:18:25Z</time>
      </trkpt>
      <trkpt lat="-28.184233333333335" lon="-65.777935">
        <ele>900.1</ele>
        <time>2018-08-20T15:18:27Z</time>
      </trkpt>
      <trkpt lat="-28.184346666666666" lon="-65.77787833333333">
        <ele>900.8</ele>
        <time>2018-08-20T15:18:29Z</time>
      </trkpt>
      <trkpt lat="-28.184445" lon="-65.77783166666667">
        <ele>901.6</ele>
        <time>2018-08-20T15:18:31Z</time>
      </trkpt>
      <trkpt lat="-28.184525" lon="-65.777805">
        <ele>902.0</ele>
        <time>2018-08-20T15:18:33Z</time>
      </trkpt>
      <trkpt lat="-28.18462" lon="-65.777765">
        <ele>902.9</ele>
        <time>2018-08-20T15:18:35Z</time>
      </trkpt>
      <trkpt lat="-28.184691666666666" lon="-65.77772666666667">
        <ele>902.9</ele>
        <time>2018-08-20T15:18:37Z</time>
      </trkpt>
      <trkpt lat="-28.18477" lon="-65.777695">
        <ele>902.9</ele>
        <time>2018-08-20T15:18:39Z</time>
      </trkpt>
      <trkpt lat="-28.184845" lon="-65.777665">
        <ele>903.0</ele>
        <time>2018-08-20T15:18:41Z</time>
      </trkpt>
      <trkpt lat="-28.184915" lon="-65.77764">
        <ele>902.9</ele>
        <time>2018-08-20T15:18:43Z</time>
      </trkpt>
      <trkpt lat="-28.184985" lon="-65.7776">
        <ele>902.9</ele>
        <time>2018-08-20T15:18:45Z</time>
      </trkpt>
      <trkpt lat="-28.18509" lon="-65.777555">
        <ele>902.9</ele>
        <time>2018-08-20T15:18:48Z</time>
      </trkpt>
      <trkpt lat="-28.185175" lon="-65.7775">
        <ele>903.0</ele>
        <time>2018-08-20T15:18:51Z</time>
      </trkpt>
      <trkpt lat="-28.18527" lon="-65.77746">
        <ele>903.0</ele>
        <time>2018-08-20T15:18:54Z</time>
      </trkpt>
      <trkpt lat="-28.185345" lon="-65.777415">
        <ele>903.1</ele>
        <time>2018-08-20T15:18:57Z</time>
      </trkpt>
      <trkpt lat="-28.185415" lon="-65.777365">
        <ele>903.2</ele>
        <time>2018-08-20T15:19:00Z</time>
      </trkpt>
      <trkpt lat="-28.18548" lon="-65.77732166666667">
        <ele>903.2</ele>
        <time>2018-08-20T15:19:03Z</time>
      </trkpt>
      <trkpt lat="-28.185545" lon="-65.77728">
        <ele>903.3</ele>
        <time>2018-08-20T15:19:06Z</time>
      </trkpt>
      <trkpt lat="-28.185615" lon="-65.777235">
        <ele>903.4</ele>
        <time>2018-08-20T15:19:09Z</time>
      </trkpt>
      <trkpt lat="-28.18569" lon="-65.777185">
        <ele>903.6</ele>
        <time>2018-08-20T15:19:12Z</time>
      </trkpt>
      <trkpt lat="-28.18576" lon="-65.77713">
        <ele>903.8</ele>
        <time>2018-08-20T15:19:15Z</time>
      </trkpt>
      <trkpt lat="-28.18583" lon="-65.777085">
        <ele>904.0</ele>
        <time>2018-08-20T15:19:18Z</time>
      </trkpt>
      <trkpt lat="-28.1859" lon="-65.77703">
        <ele>904.1</ele>
        <time>2018-08-20T15:19:21Z</time>
      </trkpt>
      <trkpt lat="-28.185985" lon="-65.776965">
        <ele>904.2</ele>
        <time>2018-08-20T15:19:24Z</time>
      </trkpt>
      <trkpt lat="-28.186045" lon="-65.776915">
        <ele>904.4</ele>
        <time>2018-08-20T15:19:26Z</time>
      </trkpt>
      <trkpt lat="-28.18612" lon="-65.77684333333333">
        <ele>904.6</ele>
        <time>2018-08-20T15:19:29Z</time>
      </trkpt>
      <trkpt lat="-28.186195" lon="-65.776785">
        <ele>904.8</ele>
        <time>2018-08-20T15:19:32Z</time>
      </trkpt>
      <trkpt lat="-28.186275" lon="-65.77670666666667">
        <ele>905.1</ele>
        <time>2018-08-20T15:19:35Z</time>
      </trkpt>
      <trkpt lat="-28.186335" lon="-65.77665">
        <ele>905.7</ele>
        <time>2018-08-20T15:19:37Z</time>
      </trkpt>
      <trkpt lat="-28.186391666666665" lon="-65.77659">
        <ele>905.8</ele>
        <time>2018-08-20T15:19:39Z</time>
      </trkpt>
      <trkpt lat="-28.18645" lon="-65.77652833333333">
        <ele>906.4</ele>
        <time>2018-08-20T15:19:41Z</time>
      </trkpt>
      <trkpt lat="-28.186505" lon="-65.776475">
        <ele>907.4</ele>
        <time>2018-08-20T15:19:43Z</time>
      </trkpt>
      <trkpt lat="-28.18656" lon="-65.776415">
        <ele>907.9</ele>
        <time>2018-08-20T15:19:45Z</time>
      </trkpt>
      <trkpt lat="-28.186615" lon="-65.776345">
        <ele>908.0</ele>
        <time>2018-08-20T15:19:47Z</time>
      </trkpt>
      <trkpt lat="-28.186685" lon="-65.77628">
        <ele>908.4</ele>
        <time>2018-08-20T15:19:50Z</time>
      </trkpt>
      <trkpt lat="-28.186765" lon="-65.77619">
        <ele>907.9</ele>
        <time>2018-08-20T15:19:53Z</time>
      </trkpt>
      <trkpt lat="-28.186825" lon="-65.77612">
        <ele>908.0</ele>
        <time>2018-08-20T15:19:55Z</time>
      </trkpt>
      <trkpt lat="-28.186885" lon="-65.77605">
        <ele>908.5</ele>
        <time>2018-08-20T15:19:57Z</time>
      </trkpt>
      <trkpt lat="-28.18694" lon="-65.77598">
        <ele>908.6</ele>
        <time>2018-08-20T15:19:59Z</time>
      </trkpt>
      <trkpt lat="-28.186995" lon="-65.77591">
        <ele>908.3</ele>
        <time>2018-08-20T15:20:01Z</time>
      </trkpt>
      <trkpt lat="-28.187065" lon="-65.775835">
        <ele>907.9</ele>
        <time>2018-08-20T15:20:03Z</time>
      </trkpt>
      <trkpt lat="-28.18713" lon="-65.77575666666667">
        <ele>908.0</ele>
        <time>2018-08-20T15:20:05Z</time>
      </trkpt>
      <trkpt lat="-28.187195" lon="-65.77567666666667">
        <ele>908.2</ele>
        <time>2018-08-20T15:20:07Z</time>
      </trkpt>
      <trkpt lat="-28.187265" lon="-65.7756">
        <ele>907.9</ele>
        <time>2018-08-20T15:20:09Z</time>
      </trkpt>
      <trkpt lat="-28.187341666666665" lon="-65.77551">
        <ele>907.5</ele>
        <time>2018-08-20T15:20:11Z</time>
      </trkpt>
      <trkpt lat="-28.18743" lon="-65.77541166666667">
        <ele>907.2</ele>
        <time>2018-08-20T15:20:13Z</time>
      </trkpt>
      <trkpt lat="-28.18752" lon="-65.77531333333333">
        <ele>907.0</ele>
        <time>2018-08-20T15:20:15Z</time>
      </trkpt>
      <trkpt lat="-28.18761" lon="-65.775215">
        <ele>907.0</ele>
        <time>2018-08-20T15:20:17Z</time>
      </trkpt>
      <trkpt lat="-28.187715" lon="-65.775115">
        <ele>906.4</ele>
        <time>2018-08-20T15:20:19Z</time>
      </trkpt>
      <trkpt lat="-28.18777" lon="-65.775065">
        <ele>906.2</ele>
        <time>2018-08-20T15:20:20Z</time>
      </trkpt>
      <trkpt lat="-28.18783" lon="-65.77500666666667">
        <ele>906.0</ele>
        <time>2018-08-20T15:20:21Z</time>
      </trkpt>
      <trkpt lat="-28.18789" lon="-65.77495833333333">
        <ele>905.7</ele>
        <time>2018-08-20T15:20:22Z</time>
      </trkpt>
      <trkpt lat="-28.187955" lon="-65.77491">
        <ele>905.2</ele>
        <time>2018-08-20T15:20:23Z</time>
      </trkpt>
      <trkpt lat="-28.188015" lon="-65.77486666666667">
        <ele>904.6</ele>
        <time>2018-08-20T15:20:24Z</time>
      </trkpt>
      <trkpt lat="-28.18808" lon="-65.774825">
        <ele>904.0</ele>
        <time>2018-08-20T15:20:25Z</time>
      </trkpt>
      <trkpt lat="-28.18815" lon="-65.77477833333333">
        <ele>903.2</ele>
        <time>2018-08-20T15:20:26Z</time>
      </trkpt>
      <trkpt lat="-28.188216666666666" lon="-65.77473666666667">
        <ele>902.5</ele>
        <time>2018-08-20T15:20:27Z</time>
      </trkpt>
      <trkpt lat="-28.188295" lon="-65.77469833333333">
        <ele>901.9</ele>
        <time>2018-08-20T15:20:28Z</time>
      </trkpt>
      <trkpt lat="-28.18837" lon="-65.774665">
        <ele>901.4</ele>
        <time>2018-08-20T15:20:29Z</time>
      </trkpt>
      <trkpt lat="-28.188455" lon="-65.774625">
        <ele>900.9</ele>
        <time>2018-08-20T15:20:30Z</time>
      </trkpt>
      <trkpt lat="-28.18854" lon="-65.77459">
        <ele>900.5</ele>
        <time>2018-08-20T15:20:31Z</time>
      </trkpt>
      <trkpt lat="-28.188625" lon="-65.77455833333333">
        <ele>900.2</ele>
        <time>2018-08-20T15:20:32Z</time>
      </trkpt>
      <trkpt lat="-28.1887" lon="-65.774535">
        <ele>899.7</ele>
        <time>2018-08-20T15:20:33Z</time>
      </trkpt>
      <trkpt lat="-28.188785" lon="-65.774505">
        <ele>899.3</ele>
        <time>2018-08-20T15:20:34Z</time>
      </trkpt>
      <trkpt lat="-28.188865" lon="-65.774475">
        <ele>898.8</ele>
        <time>2018-08-20T15:20:35Z</time>
      </trkpt>
      <trkpt lat="-28.18895" lon="-65.774455">
        <ele>898.4</ele>
        <time>2018-08-20T15:20:36Z</time>
      </trkpt>
      <trkpt lat="-28.18903" lon="-65.77442333333333">
        <ele>898.3</ele>
        <time>2018-08-20T15:20:37Z</time>
      </trkpt>
      <trkpt lat="-28.18911" lon="-65.7744">
        <ele>898.0</ele>
        <time>2018-08-20T15:20:38Z</time>
      </trkpt>
      <trkpt lat="-28.18918" lon="-65.774375">
        <ele>897.6</ele>
        <time>2018-08-20T15:20:39Z</time>
      </trkpt>
      <trkpt lat="-28.189255" lon="-65.774355">
        <ele>897.4</ele>
        <time>2018-08-20T15:20:40Z</time>
      </trkpt>
      <trkpt lat="-28.189325" lon="-65.77433166666667">
        <ele>897.2</ele>
        <time>2018-08-20T15:20:41Z</time>
      </trkpt>
      <trkpt lat="-28.18945" lon="-65.77428833333333">
        <ele>897.0</ele>
        <time>2018-08-20T15:20:43Z</time>
      </trkpt>
      <trkpt lat="-28.18957" lon="-65.77424666666667">
        <ele>897.4</ele>
        <time>2018-08-20T15:20:45Z</time>
      </trkpt>
      <trkpt lat="-28.18968" lon="-65.774215">
        <ele>897.9</ele>
        <time>2018-08-20T15:20:47Z</time>
      </trkpt>
      <trkpt lat="-28.189785" lon="-65.774175">
        <ele>898.1</ele>
        <time>2018-08-20T15:20:49Z</time>
      </trkpt>
      <trkpt lat="-28.189875" lon="-65.77415">
        <ele>898.2</ele>
        <time>2018-08-20T15:20:51Z</time>
      </trkpt>
      <trkpt lat="-28.18996" lon="-65.77411166666667">
        <ele>898.2</ele>
        <time>2018-08-20T15:20:53Z</time>
      </trkpt>
      <trkpt lat="-28.19005" lon="-65.774085">
        <ele>898.3</ele>
        <time>2018-08-20T15:20:55Z</time>
      </trkpt>
      <trkpt lat="-28.190135" lon="-65.774055">
        <ele>898.6</ele>
        <time>2018-08-20T15:20:57Z</time>
      </trkpt>
      <trkpt lat="-28.190215" lon="-65.774025">
        <ele>898.9</ele>
        <time>2018-08-20T15:20:59Z</time>
      </trkpt>
      <trkpt lat="-28.19029" lon="-65.774">
        <ele>899.1</ele>
        <time>2018-08-20T15:21:01Z</time>
      </trkpt>
      <trkpt lat="-28.190375" lon="-65.77397">
        <ele>899.8</ele>
        <time>2018-08-20T15:21:03Z</time>
      </trkpt>
      <trkpt lat="-28.190455" lon="-65.77393666666667">
        <ele>900.2</ele>
        <time>2018-08-20T15:21:05Z</time>
      </trkpt>
      <trkpt lat="-28.19053" lon="-65.77391">
        <ele>900.6</ele>
        <time>2018-08-20T15:21:07Z</time>
      </trkpt>
      <trkpt lat="-28.1906" lon="-65.773885">
        <ele>900.8</ele>
        <time>2018-08-20T15:21:09Z</time>
      </trkpt>
      <trkpt lat="-28.19067" lon="-65.773865">
        <ele>900.9</ele>
        <time>2018-08-20T15:21:11Z</time>
      </trkpt>
      <trkpt lat="-28.190745" lon="-65.77384">
        <ele>900.9</ele>
        <time>2018-08-20T15:21:13Z</time>
      </trkpt>
      <trkpt lat="-28.19082" lon="-65.77380166666667">
        <ele>901.3</ele>
        <time>2018-08-20T15:21:15Z</time>
      </trkpt>
      <trkpt lat="-28.190915" lon="-65.77375333333333">
        <ele>901.4</ele>
        <time>2018-08-20T15:21:18Z</time>
      </trkpt>
      <trkpt lat="-28.191005" lon="-65.77371">
        <ele>901.3</ele>
        <time>2018-08-20T15:21:21Z</time>
      </trkpt>
      <trkpt lat="-28.19107" lon="-65.77366666666667">
        <ele>901.0</ele>
        <time>2018-08-20T15:21:23Z</time>
      </trkpt>
      <trkpt lat="-28.191145" lon="-65.77362166666667">
        <ele>900.7</ele>
        <time>2018-08-20T15:21:25Z</time>
      </trkpt>
      <trkpt lat="-28.191205" lon="-65.77357333333333">
        <ele>900.5</ele>
        <time>2018-08-20T15:21:27Z</time>
      </trkpt>
      <trkpt lat="-28.191275" lon="-65.77352">
        <ele>900.3</ele>
        <time>2018-08-20T15:21:29Z</time>
      </trkpt>
      <trkpt lat="-28.19134" lon="-65.77346">
        <ele>899.8</ele>
        <time>2018-08-20T15:21:31Z</time>
      </trkpt>
      <trkpt lat="-28.191405" lon="-65.77338166666667">
        <ele>900.1</ele>
        <time>2018-08-20T15:21:33Z</time>
      </trkpt>
      <trkpt lat="-28.191465" lon="-65.77332">
        <ele>900.7</ele>
        <time>2018-08-20T15:21:35Z</time>
      </trkpt>
      <trkpt lat="-28.19153" lon="-65.773245">
        <ele>901.2</ele>
        <time>2018-08-20T15:21:37Z</time>
      </trkpt>
      <trkpt lat="-28.191585" lon="-65.773165">
        <ele>901.4</ele>
        <time>2018-08-20T15:21:39Z</time>
      </trkpt>
      <trkpt lat="-28.19164" lon="-65.77307666666667">
        <ele>900.7</ele>
        <time>2018-08-20T15:21:41Z</time>
      </trkpt>
      <trkpt lat="-28.191695" lon="-65.772985">
        <ele>899.5</ele>
        <time>2018-08-20T15:21:43Z</time>
      </trkpt>
      <trkpt lat="-28.191765" lon="-65.77285833333333">
        <ele>898.7</ele>
        <time>2018-08-20T15:21:45Z</time>
      </trkpt>
      <trkpt lat="-28.19184" lon="-65.77274">
        <ele>898.2</ele>
        <time>2018-08-20T15:21:47Z</time>
      </trkpt>
      <trkpt lat="-28.191915" lon="-65.77261">
        <ele>897.7</ele>
        <time>2018-08-20T15:21:49Z</time>
      </trkpt>
      <trkpt lat="-28.19196" lon="-65.772535">
        <ele>897.5</ele>
        <time>2018-08-20T15:21:50Z</time>
      </trkpt>
      <trkpt lat="-28.192035" lon="-65.772405">
        <ele>896.6</ele>
        <time>2018-08-20T15:21:52Z</time>
      </trkpt>
      <trkpt lat="-28.192071666666667" lon="-65.772335">
        <ele>896.0</ele>
        <time>2018-08-20T15:21:53Z</time>
      </trkpt>
      <trkpt lat="-28.19212" lon="-65.772265">
        <ele>895.4</ele>
        <time>2018-08-20T15:21:54Z</time>
      </trkpt>
      <trkpt lat="-28.19215833333333" lon="-65.772195">
        <ele>894.7</ele>
        <time>2018-08-20T15:21:55Z</time>
      </trkpt>
      <trkpt lat="-28.19221" lon="-65.77212">
        <ele>894.3</ele>
        <time>2018-08-20T15:21:56Z</time>
      </trkpt>
      <trkpt lat="-28.19226" lon="-65.77204">
        <ele>894.0</ele>
        <time>2018-08-20T15:21:57Z</time>
      </trkpt>
      <trkpt lat="-28.19231" lon="-65.77196833333333">
        <ele>893.4</ele>
        <time>2018-08-20T15:21:58Z</time>
      </trkpt>
      <trkpt lat="-28.19236" lon="-65.771895">
        <ele>892.9</ele>
        <time>2018-08-20T15:21:59Z</time>
      </trkpt>
      <trkpt lat="-28.192415" lon="-65.771815">
        <ele>892.1</ele>
        <time>2018-08-20T15:22:00Z</time>
      </trkpt>
      <trkpt lat="-28.19248" lon="-65.77173666666667">
        <ele>891.4</ele>
        <time>2018-08-20T15:22:01Z</time>
      </trkpt>
      <trkpt lat="-28.192545" lon="-65.77166">
        <ele>890.7</ele>
        <time>2018-08-20T15:22:02Z</time>
      </trkpt>
      <trkpt lat="-28.192606666666666" lon="-65.771585">
        <ele>889.9</ele>
        <time>2018-08-20T15:22:03Z</time>
      </trkpt>
      <trkpt lat="-28.19268" lon="-65.771505">
        <ele>889.0</ele>
        <time>2018-08-20T15:22:04Z</time>
      </trkpt>
      <trkpt lat="-28.19276" lon="-65.77142">
        <ele>888.3</ele>
        <time>2018-08-20T15:22:05Z</time>
      </trkpt>
      <trkpt lat="-28.192831666666667" lon="-65.77133166666667">
        <ele>887.7</ele>
        <time>2018-08-20T15:22:06Z</time>
      </trkpt>
      <trkpt lat="-28.192915" lon="-65.77125">
        <ele>887.1</ele>
        <time>2018-08-20T15:22:07Z</time>
      </trkpt>
      <trkpt lat="-28.193005" lon="-65.771165">
        <ele>886.8</ele>
        <time>2018-08-20T15:22:08Z</time>
      </trkpt>
      <trkpt lat="-28.19309" lon="-65.77108">
        <ele>886.7</ele>
        <time>2018-08-20T15:22:09Z</time>
      </trkpt>
      <trkpt lat="-28.19317" lon="-65.77101">
        <ele>886.4</ele>
        <time>2018-08-20T15:22:10Z</time>
      </trkpt>
      <trkpt lat="-28.193251666666665" lon="-65.77093">
        <ele>886.3</ele>
        <time>2018-08-20T15:22:11Z</time>
      </trkpt>
      <trkpt lat="-28.193345" lon="-65.770855">
        <ele>886.4</ele>
        <time>2018-08-20T15:22:12Z</time>
      </trkpt>
      <trkpt lat="-28.193425" lon="-65.770785">
        <ele>886.4</ele>
        <time>2018-08-20T15:22:13Z</time>
      </trkpt>
      <trkpt lat="-28.193505" lon="-65.77071166666667">
        <ele>886.6</ele>
        <time>2018-08-20T15:22:14Z</time>
      </trkpt>
      <trkpt lat="-28.193585" lon="-65.77065">
        <ele>886.7</ele>
        <time>2018-08-20T15:22:15Z</time>
      </trkpt>
      <trkpt lat="-28.19366" lon="-65.77059">
        <ele>886.7</ele>
        <time>2018-08-20T15:22:16Z</time>
      </trkpt>
      <trkpt lat="-28.193735" lon="-65.77052166666667">
        <ele>886.5</ele>
        <time>2018-08-20T15:22:17Z</time>
      </trkpt>
      <trkpt lat="-28.1938" lon="-65.77047">
        <ele>886.0</ele>
        <time>2018-08-20T15:22:18Z</time>
      </trkpt>
      <trkpt lat="-28.19387" lon="-65.770405">
        <ele>885.3</ele>
        <time>2018-08-20T15:22:19Z</time>
      </trkpt>
      <trkpt lat="-28.193935" lon="-65.77034666666667">
        <ele>884.6</ele>
        <time>2018-08-20T15:22:20Z</time>
      </trkpt>
      <trkpt lat="-28.194005" lon="-65.77029">
        <ele>884.1</ele>
        <time>2018-08-20T15:22:21Z</time>
      </trkpt>
      <trkpt lat="-28.19408" lon="-65.770225">
        <ele>883.9</ele>
        <time>2018-08-20T15:22:22Z</time>
      </trkpt>
      <trkpt lat="-28.194155" lon="-65.77015666666667">
        <ele>883.7</ele>
        <time>2018-08-20T15:22:23Z</time>
      </trkpt>
      <trkpt lat="-28.19422" lon="-65.77009666666666">
        <ele>883.5</ele>
        <time>2018-08-20T15:22:24Z</time>
      </trkpt>
      <trkpt lat="-28.19428" lon="-65.77004">
        <ele>883.3</ele>
        <time>2018-08-20T15:22:25Z</time>
      </trkpt>
      <trkpt lat="-28.194345" lon="-65.769985">
        <ele>883.0</ele>
        <time>2018-08-20T15:22:26Z</time>
      </trkpt>
      <trkpt lat="-28.19445" lon="-65.76989">
        <ele>881.4</ele>
        <time>2018-08-20T15:22:28Z</time>
      </trkpt>
      <trkpt lat="-28.194555" lon="-65.769805">
        <ele>879.9</ele>
        <time>2018-08-20T15:22:30Z</time>
      </trkpt>
      <trkpt lat="-28.19465" lon="-65.76972666666667">
        <ele>879.0</ele>
        <time>2018-08-20T15:22:32Z</time>
      </trkpt>
      <trkpt lat="-28.194745" lon="-65.769665">
        <ele>878.4</ele>
        <time>2018-08-20T15:22:34Z</time>
      </trkpt>
      <trkpt lat="-28.19483" lon="-65.76961">
        <ele>877.9</ele>
        <time>2018-08-20T15:22:36Z</time>
      </trkpt>
      <trkpt lat="-28.19491" lon="-65.76955">
        <ele>877.7</ele>
        <time>2018-08-20T15:22:38Z</time>
      </trkpt>
      <trkpt lat="-28.194991666666667" lon="-65.76950166666667">
        <ele>878.0</ele>
        <time>2018-08-20T15:22:40Z</time>
      </trkpt>
      <trkpt lat="-28.195076666666665" lon="-65.76945833333333">
        <ele>878.9</ele>
        <time>2018-08-20T15:22:42Z</time>
      </trkpt>
      <trkpt lat="-28.195148333333332" lon="-65.76943">
        <ele>879.3</ele>
        <time>2018-08-20T15:22:44Z</time>
      </trkpt>
      <trkpt lat="-28.195218333333333" lon="-65.76939">
        <ele>879.4</ele>
        <time>2018-08-20T15:22:46Z</time>
      </trkpt>
      <trkpt lat="-28.19529" lon="-65.76936333333333">
        <ele>879.5</ele>
        <time>2018-08-20T15:22:48Z</time>
      </trkpt>
      <trkpt lat="-28.19538" lon="-65.769335">
        <ele>879.6</ele>
        <time>2018-08-20T15:22:51Z</time>
      </trkpt>
      <trkpt lat="-28.195475" lon="-65.76931">
        <ele>879.7</ele>
        <time>2018-08-20T15:22:54Z</time>
      </trkpt>
      <trkpt lat="-28.19556" lon="-65.76929">
        <ele>879.8</ele>
        <time>2018-08-20T15:22:57Z</time>
      </trkpt>
      <trkpt lat="-28.195646666666665" lon="-65.76927">
        <ele>879.9</ele>
        <time>2018-08-20T15:23:00Z</time>
      </trkpt>
      <trkpt lat="-28.195735" lon="-65.76925">
        <ele>880.0</ele>
        <time>2018-08-20T15:23:03Z</time>
      </trkpt>
      <trkpt lat="-28.19581" lon="-65.76924">
        <ele>880.1</ele>
        <time>2018-08-20T15:23:06Z</time>
      </trkpt>
      <trkpt lat="-28.195895" lon="-65.769225">
        <ele>880.2</ele>
        <time>2018-08-20T15:23:09Z</time>
      </trkpt>
      <trkpt lat="-28.195975" lon="-65.769215">
        <ele>880.3</ele>
        <time>2018-08-20T15:23:12Z</time>
      </trkpt>
      <trkpt lat="-28.19605" lon="-65.769215">
        <ele>880.5</ele>
        <time>2018-08-20T15:23:15Z</time>
      </trkpt>
      <trkpt lat="-28.19613" lon="-65.76921">
        <ele>880.6</ele>
        <time>2018-08-20T15:23:18Z</time>
      </trkpt>
      <trkpt lat="-28.19623" lon="-65.769205">
        <ele>880.8</ele>
        <time>2018-08-20T15:23:21Z</time>
      </trkpt>
      <trkpt lat="-28.19631" lon="-65.769205">
        <ele>881.0</ele>
        <time>2018-08-20T15:23:24Z</time>
      </trkpt>
      <trkpt lat="-28.196396666666665" lon="-65.769205">
        <ele>881.2</ele>
        <time>2018-08-20T15:23:27Z</time>
      </trkpt>
      <trkpt lat="-28.196476666666666" lon="-65.76921">
        <ele>881.4</ele>
        <time>2018-08-20T15:23:30Z</time>
      </trkpt>
      <trkpt lat="-28.196565" lon="-65.76921">
        <ele>881.6</ele>
        <time>2018-08-20T15:23:33Z</time>
      </trkpt>
      <trkpt lat="-28.196645" lon="-65.76921">
        <ele>881.8</ele>
        <time>2018-08-20T15:23:36Z</time>
      </trkpt>
      <trkpt lat="-28.196725" lon="-65.769215">
        <ele>882.0</ele>
        <time>2018-08-20T15:23:39Z</time>
      </trkpt>
      <trkpt lat="-28.19682" lon="-65.769225">
        <ele>882.3</ele>
        <time>2018-08-20T15:23:42Z</time>
      </trkpt>
      <trkpt lat="-28.19691" lon="-65.76922833333333">
        <ele>882.5</ele>
        <time>2018-08-20T15:23:45Z</time>
      </trkpt>
      <trkpt lat="-28.196985" lon="-65.769225">
        <ele>882.7</ele>
        <time>2018-08-20T15:23:47Z</time>
      </trkpt>
      <trkpt lat="-28.19708" lon="-65.76922833333333">
        <ele>883.0</ele>
        <time>2018-08-20T15:23:50Z</time>
      </trkpt>
      <trkpt lat="-28.19717" lon="-65.76922833333333">
        <ele>883.4</ele>
        <time>2018-08-20T15:23:53Z</time>
      </trkpt>
      <trkpt lat="-28.19727" lon="-65.769225">
        <ele>883.8</ele>
        <time>2018-08-20T15:23:56Z</time>
      </trkpt>
      <trkpt lat="-28.197365" lon="-65.769225">
        <ele>884.2</ele>
        <time>2018-08-20T15:23:59Z</time>
      </trkpt>
      <trkpt lat="-28.19746" lon="-65.769215">
        <ele>884.5</ele>
        <time>2018-08-20T15:24:02Z</time>
      </trkpt>
      <trkpt lat="-28.19753" lon="-65.76921">
        <ele>884.8</ele>
        <time>2018-08-20T15:24:04Z</time>
      </trkpt>
      <trkpt lat="-28.19763" lon="-65.769195">
        <ele>885.1</ele>
        <time>2018-08-20T15:24:07Z</time>
      </trkpt>
      <trkpt lat="-28.19772" lon="-65.76918">
        <ele>885.3</ele>
        <time>2018-08-20T15:24:10Z</time>
      </trkpt>
      <trkpt lat="-28.19782" lon="-65.76916">
        <ele>885.5</ele>
        <time>2018-08-20T15:24:13Z</time>
      </trkpt>
      <trkpt lat="-28.197895" lon="-65.76913666666667">
        <ele>885.6</ele>
        <time>2018-08-20T15:24:15Z</time>
      </trkpt>
      <trkpt lat="-28.197995" lon="-65.76911166666666">
        <ele>885.8</ele>
        <time>2018-08-20T15:24:18Z</time>
      </trkpt>
      <trkpt lat="-28.198066666666666" lon="-65.76908666666667">
        <ele>886.4</ele>
        <time>2018-08-20T15:24:20Z</time>
      </trkpt>
      <trkpt lat="-28.198136666666667" lon="-65.769065">
        <ele>886.9</ele>
        <time>2018-08-20T15:24:22Z</time>
      </trkpt>
      <trkpt lat="-28.198211666666666" lon="-65.769035">
        <ele>887.2</ele>
        <time>2018-08-20T15:24:24Z</time>
      </trkpt>
      <trkpt lat="-28.198285" lon="-65.769">
        <ele>887.2</ele>
        <time>2018-08-20T15:24:26Z</time>
      </trkpt>
      <trkpt lat="-28.19836" lon="-65.76896">
        <ele>886.9</ele>
        <time>2018-08-20T15:24:28Z</time>
      </trkpt>
      <trkpt lat="-28.198435" lon="-65.76891833333333">
        <ele>886.9</ele>
        <time>2018-08-20T15:24:30Z</time>
      </trkpt>
      <trkpt lat="-28.198505" lon="-65.768875">
        <ele>886.9</ele>
        <time>2018-08-20T15:24:32Z</time>
      </trkpt>
      <trkpt lat="-28.19858" lon="-65.76882666666667">
        <ele>887.0</ele>
        <time>2018-08-20T15:24:34Z</time>
      </trkpt>
      <trkpt lat="-28.198655" lon="-65.768775">
        <ele>886.9</ele>
        <time>2018-08-20T15:24:36Z</time>
      </trkpt>
      <trkpt lat="-28.19873" lon="-65.768715">
        <ele>886.8</ele>
        <time>2018-08-20T15:24:38Z</time>
      </trkpt>
      <trkpt lat="-28.1988" lon="-65.76866">
        <ele>886.6</ele>
        <time>2018-08-20T15:24:40Z</time>
      </trkpt>
      <trkpt lat="-28.198875" lon="-65.768595">
        <ele>886.7</ele>
        <time>2018-08-20T15:24:42Z</time>
      </trkpt>
      <trkpt lat="-28.198955" lon="-65.76851166666667">
        <ele>887.4</ele>
        <time>2018-08-20T15:24:44Z</time>
      </trkpt>
      <trkpt lat="-28.199025" lon="-65.768435">
        <ele>888.0</ele>
        <time>2018-08-20T15:24:46Z</time>
      </trkpt>
      <trkpt lat="-28.19908" lon="-65.76837">
        <ele>888.0</ele>
        <time>2018-08-20T15:24:48Z</time>
      </trkpt>
      <trkpt lat="-28.199145" lon="-65.76829166666667">
        <ele>888.0</ele>
        <time>2018-08-20T15:24:50Z</time>
      </trkpt>
      <trkpt lat="-28.199215" lon="-65.76821">
        <ele>888.2</ele>
        <time>2018-08-20T15:24:52Z</time>
      </trkpt>
      <trkpt lat="-28.199285" lon="-65.768125">
        <ele>888.2</ele>
        <time>2018-08-20T15:24:54Z</time>
      </trkpt>
      <trkpt lat="-28.199365" lon="-65.76804">
        <ele>888.2</ele>
        <time>2018-08-20T15:24:56Z</time>
      </trkpt>
      <trkpt lat="-28.19944" lon="-65.76795">
        <ele>888.1</ele>
        <time>2018-08-20T15:24:58Z</time>
      </trkpt>
      <trkpt lat="-28.19951" lon="-65.76786">
        <ele>887.9</ele>
        <time>2018-08-20T15:25:00Z</time>
      </trkpt>
      <trkpt lat="-28.199585" lon="-65.76776">
        <ele>887.6</ele>
        <time>2018-08-20T15:25:02Z</time>
      </trkpt>
      <trkpt lat="-28.199665" lon="-65.767675">
        <ele>887.4</ele>
        <time>2018-08-20T15:25:04Z</time>
      </trkpt>
      <trkpt lat="-28.199735" lon="-65.76758">
        <ele>887.1</ele>
        <time>2018-08-20T15:25:06Z</time>
      </trkpt>
      <trkpt lat="-28.19981" lon="-65.767505">
        <ele>886.7</ele>
        <time>2018-08-20T15:25:08Z</time>
      </trkpt>
      <trkpt lat="-28.19988" lon="-65.76742">
        <ele>886.5</ele>
        <time>2018-08-20T15:25:10Z</time>
      </trkpt>
      <trkpt lat="-28.19995" lon="-65.76734">
        <ele>886.3</ele>
        <time>2018-08-20T15:25:12Z</time>
      </trkpt>
      <trkpt lat="-28.200025" lon="-65.76727">
        <ele>886.0</ele>
        <time>2018-08-20T15:25:14Z</time>
      </trkpt>
      <trkpt lat="-28.200095" lon="-65.76720166666667">
        <ele>885.6</ele>
        <time>2018-08-20T15:25:16Z</time>
      </trkpt>
      <trkpt lat="-28.200165" lon="-65.767155">
        <ele>884.5</ele>
        <time>2018-08-20T15:25:18Z</time>
      </trkpt>
      <trkpt lat="-28.200235" lon="-65.767105">
        <ele>883.7</ele>
        <time>2018-08-20T15:25:20Z</time>
      </trkpt>
      <trkpt lat="-28.20031" lon="-65.767055">
        <ele>883.0</ele>
        <time>2018-08-20T15:25:22Z</time>
      </trkpt>
      <trkpt lat="-28.200383333333335" lon="-65.767015">
        <ele>882.7</ele>
        <time>2018-08-20T15:25:24Z</time>
      </trkpt>
      <trkpt lat="-28.200465" lon="-65.76697">
        <ele>882.7</ele>
        <time>2018-08-20T15:25:26Z</time>
      </trkpt>
      <trkpt lat="-28.20054" lon="-65.766935">
        <ele>883.3</ele>
        <time>2018-08-20T15:25:28Z</time>
      </trkpt>
      <trkpt lat="-28.200606666666665" lon="-65.766905">
        <ele>883.7</ele>
        <time>2018-08-20T15:25:30Z</time>
      </trkpt>
      <trkpt lat="-28.200685" lon="-65.766885">
        <ele>883.8</ele>
        <time>2018-08-20T15:25:32Z</time>
      </trkpt>
      <trkpt lat="-28.200785" lon="-65.76685666666667">
        <ele>883.9</ele>
        <time>2018-08-20T15:25:35Z</time>
      </trkpt>
      <trkpt lat="-28.200865" lon="-65.76685">
        <ele>884.0</ele>
        <time>2018-08-20T15:25:38Z</time>
      </trkpt>
      <trkpt lat="-28.200965" lon="-65.766845">
        <ele>884.1</ele>
        <time>2018-08-20T15:25:41Z</time>
      </trkpt>
      <trkpt lat="-28.201065" lon="-65.766845">
        <ele>884.2</ele>
        <time>2018-08-20T15:25:44Z</time>
      </trkpt>
      <trkpt lat="-28.201175" lon="-65.76685">
        <ele>884.2</ele>
        <time>2018-08-20T15:25:47Z</time>
      </trkpt>
      <trkpt lat="-28.20126" lon="-65.76686">
        <ele>884.2</ele>
        <time>2018-08-20T15:25:49Z</time>
      </trkpt>
      <trkpt lat="-28.20134" lon="-65.766875">
        <ele>884.0</ele>
        <time>2018-08-20T15:25:51Z</time>
      </trkpt>
      <trkpt lat="-28.20142" lon="-65.766885">
        <ele>884.1</ele>
        <time>2018-08-20T15:25:54Z</time>
      </trkpt>
      <trkpt lat="-28.201505" lon="-65.76689">
        <ele>884.2</ele>
        <time>2018-08-20T15:25:57Z</time>
      </trkpt>
      <trkpt lat="-28.20158" lon="-65.76690333333333">
        <ele>884.3</ele>
        <time>2018-08-20T15:25:59Z</time>
      </trkpt>
      <trkpt lat="-28.201655" lon="-65.766915">
        <ele>884.4</ele>
        <time>2018-08-20T15:26:01Z</time>
      </trkpt>
      <trkpt lat="-28.20176" lon="-65.766945">
        <ele>884.5</ele>
        <time>2018-08-20T15:26:04Z</time>
      </trkpt>
      <trkpt lat="-28.201865" lon="-65.766965">
        <ele>884.6</ele>
        <time>2018-08-20T15:26:07Z</time>
      </trkpt>
      <trkpt lat="-28.20197" lon="-65.76699">
        <ele>884.7</ele>
        <time>2018-08-20T15:26:10Z</time>
      </trkpt>
      <trkpt lat="-28.20204" lon="-65.76699833333333">
        <ele>884.8</ele>
        <time>2018-08-20T15:26:12Z</time>
      </trkpt>
      <trkpt lat="-28.202113333333333" lon="-65.76702">
        <ele>885.5</ele>
        <time>2018-08-20T15:26:14Z</time>
      </trkpt>
      <trkpt lat="-28.20219" lon="-65.76703">
        <ele>885.6</ele>
        <time>2018-08-20T15:26:16Z</time>
      </trkpt>
      <trkpt lat="-28.20229" lon="-65.76703666666667">
        <ele>886.1</ele>
        <time>2018-08-20T15:26:19Z</time>
      </trkpt>
      <trkpt lat="-28.20237" lon="-65.76703666666667">
        <ele>887.1</ele>
        <time>2018-08-20T15:26:21Z</time>
      </trkpt>
      <trkpt lat="-28.20245" lon="-65.76703833333333">
        <ele>888.2</ele>
        <time>2018-08-20T15:26:23Z</time>
      </trkpt>
      <trkpt lat="-28.20255" lon="-65.767035">
        <ele>889.2</ele>
        <time>2018-08-20T15:26:25Z</time>
      </trkpt>
      <trkpt lat="-28.202645" lon="-65.76703">
        <ele>889.3</ele>
        <time>2018-08-20T15:26:27Z</time>
      </trkpt>
      <trkpt lat="-28.202745" lon="-65.767015">
        <ele>888.9</ele>
        <time>2018-08-20T15:26:29Z</time>
      </trkpt>
      <trkpt lat="-28.20287" lon="-65.76698">
        <ele>888.6</ele>
        <time>2018-08-20T15:26:31Z</time>
      </trkpt>
      <trkpt lat="-28.20299" lon="-65.76693">
        <ele>888.2</ele>
        <time>2018-08-20T15:26:33Z</time>
      </trkpt>
      <trkpt lat="-28.20311" lon="-65.76685666666667">
        <ele>888.0</ele>
        <time>2018-08-20T15:26:35Z</time>
      </trkpt>
      <trkpt lat="-28.20323" lon="-65.76677166666667">
        <ele>887.3</ele>
        <time>2018-08-20T15:26:37Z</time>
      </trkpt>
      <trkpt lat="-28.203285" lon="-65.76672">
        <ele>887.6</ele>
        <time>2018-08-20T15:26:38Z</time>
      </trkpt>
      <trkpt lat="-28.20339" lon="-65.766625">
        <ele>887.2</ele>
        <time>2018-08-20T15:26:40Z</time>
      </trkpt>
      <trkpt lat="-28.203481666666665" lon="-65.76651">
        <ele>886.7</ele>
        <time>2018-08-20T15:26:42Z</time>
      </trkpt>
      <trkpt lat="-28.203575" lon="-65.766395">
        <ele>886.1</ele>
        <time>2018-08-20T15:26:44Z</time>
      </trkpt>
      <trkpt lat="-28.20362" lon="-65.76632166666667">
        <ele>885.9</ele>
        <time>2018-08-20T15:26:45Z</time>
      </trkpt>
      <trkpt lat="-28.2037" lon="-65.7662">
        <ele>885.6</ele>
        <time>2018-08-20T15:26:47Z</time>
      </trkpt>
      <trkpt lat="-28.203765" lon="-65.76608">
        <ele>885.3</ele>
        <time>2018-08-20T15:26:49Z</time>
      </trkpt>
      <trkpt lat="-28.20383" lon="-65.76595">
        <ele>884.6</ele>
        <time>2018-08-20T15:26:51Z</time>
      </trkpt>
      <trkpt lat="-28.203875" lon="-65.76587166666667">
        <ele>884.6</ele>
        <time>2018-08-20T15:26:52Z</time>
      </trkpt>
      <trkpt lat="-28.203915" lon="-65.765805">
        <ele>884.6</ele>
        <time>2018-08-20T15:26:53Z</time>
      </trkpt>
      <trkpt lat="-28.20396" lon="-65.765735">
        <ele>884.6</ele>
        <time>2018-08-20T15:26:54Z</time>
      </trkpt>
      <trkpt lat="-28.204005" lon="-65.76567">
        <ele>884.5</ele>
        <time>2018-08-20T15:26:55Z</time>
      </trkpt>
      <trkpt lat="-28.2041" lon="-65.765545">
        <ele>884.3</ele>
        <time>2018-08-20T15:26:57Z</time>
      </trkpt>
      <trkpt lat="-28.204155" lon="-65.76548">
        <ele>884.3</ele>
        <time>2018-08-20T15:26:58Z</time>
      </trkpt>
      <trkpt lat="-28.20421" lon="-65.76542166666667">
        <ele>884.4</ele>
        <time>2018-08-20T15:26:59Z</time>
      </trkpt>
      <trkpt lat="-28.20427" lon="-65.76538333333333">
        <ele>884.4</ele>
        <time>2018-08-20T15:27:01Z</time>
      </trkpt>
      <trkpt lat="-28.20446" lon="-65.765285">
        <ele>883.5</ele>
        <time>2018-08-20T15:27:04Z</time>
      </trkpt>
      <trkpt lat="-28.20459" lon="-65.765235">
        <ele>882.5</ele>
        <time>2018-08-20T15:27:05Z</time>
      </trkpt>
      <trkpt lat="-28.204720000000002" lon="-65.76519666666667">
        <ele>882.1</ele>
        <time>2018-08-20T15:27:07Z</time>
      </trkpt>
      <trkpt lat="-28.204795" lon="-65.76519">
        <ele>882.4</ele>
        <time>2018-08-20T15:27:08Z</time>
      </trkpt>
      <trkpt lat="-28.204935" lon="-65.76517">
        <ele>883.4</ele>
        <time>2018-08-20T15:27:10Z</time>
      </trkpt>
      <trkpt lat="-28.205068333333333" lon="-65.765185">
        <ele>884.1</ele>
        <time>2018-08-20T15:27:12Z</time>
      </trkpt>
      <trkpt lat="-28.20522" lon="-65.76519">
        <ele>885.9</ele>
        <time>2018-08-20T15:27:14Z</time>
      </trkpt>
      <trkpt lat="-28.205305" lon="-65.765185">
        <ele>886.5</ele>
        <time>2018-08-20T15:27:15Z</time>
      </trkpt>
      <trkpt lat="-28.205385" lon="-65.765185">
        <ele>887.1</ele>
        <time>2018-08-20T15:27:16Z</time>
      </trkpt>
      <trkpt lat="-28.205465" lon="-65.76518">
        <ele>887.7</ele>
        <time>2018-08-20T15:27:17Z</time>
      </trkpt>
      <trkpt lat="-28.20554" lon="-65.76517">
        <ele>888.1</ele>
        <time>2018-08-20T15:27:18Z</time>
      </trkpt>
      <trkpt lat="-28.20567" lon="-65.76516166666667">
        <ele>887.9</ele>
        <time>2018-08-20T15:27:20Z</time>
      </trkpt>
      <trkpt lat="-28.2058" lon="-65.76515833333333">
        <ele>887.2</ele>
        <time>2018-08-20T15:27:22Z</time>
      </trkpt>
      <trkpt lat="-28.205911666666665" lon="-65.76517">
        <ele>886.8</ele>
        <time>2018-08-20T15:27:24Z</time>
      </trkpt>
      <trkpt lat="-28.20604" lon="-65.76517">
        <ele>885.5</ele>
        <time>2018-08-20T15:27:26Z</time>
      </trkpt>
      <trkpt lat="-28.20616" lon="-65.76517">
        <ele>884.0</ele>
        <time>2018-08-20T15:27:28Z</time>
      </trkpt>
      <trkpt lat="-28.206275" lon="-65.76518">
        <ele>882.2</ele>
        <time>2018-08-20T15:27:30Z</time>
      </trkpt>
      <trkpt lat="-28.206395" lon="-65.76518">
        <ele>881.3</ele>
        <time>2018-08-20T15:27:32Z</time>
      </trkpt>
      <trkpt lat="-28.206506666666666" lon="-65.765185">
        <ele>880.9</ele>
        <time>2018-08-20T15:27:34Z</time>
      </trkpt>
      <trkpt lat="-28.20662" lon="-65.76519">
        <ele>880.8</ele>
        <time>2018-08-20T15:27:36Z</time>
      </trkpt>
      <trkpt lat="-28.20674" lon="-65.76519">
        <ele>880.9</ele>
        <time>2018-08-20T15:27:38Z</time>
      </trkpt>
      <trkpt lat="-28.206851666666665" lon="-65.76519">
        <ele>880.9</ele>
        <time>2018-08-20T15:27:40Z</time>
      </trkpt>
      <trkpt lat="-28.206965" lon="-65.76519">
        <ele>880.9</ele>
        <time>2018-08-20T15:27:42Z</time>
      </trkpt>
      <trkpt lat="-28.207075" lon="-65.765185">
        <ele>880.8</ele>
        <time>2018-08-20T15:27:44Z</time>
      </trkpt>
      <trkpt lat="-28.20719" lon="-65.765185">
        <ele>880.7</ele>
        <time>2018-08-20T15:27:46Z</time>
      </trkpt>
      <trkpt lat="-28.2073" lon="-65.76518">
        <ele>880.6</ele>
        <time>2018-08-20T15:27:48Z</time>
      </trkpt>
      <trkpt lat="-28.20741" lon="-65.76518">
        <ele>880.5</ele>
        <time>2018-08-20T15:27:50Z</time>
      </trkpt>
      <trkpt lat="-28.20751" lon="-65.76517166666666">
        <ele>880.5</ele>
        <time>2018-08-20T15:27:52Z</time>
      </trkpt>
      <trkpt lat="-28.207605" lon="-65.76517166666666">
        <ele>880.5</ele>
        <time>2018-08-20T15:27:54Z</time>
      </trkpt>
      <trkpt lat="-28.2077" lon="-65.76517">
        <ele>880.5</ele>
        <time>2018-08-20T15:27:56Z</time>
      </trkpt>
      <trkpt lat="-28.20781" lon="-65.76517">
        <ele>881.0</ele>
        <time>2018-08-20T15:27:58Z</time>
      </trkpt>
      <trkpt lat="-28.207915" lon="-65.76515666666667">
        <ele>882.2</ele>
        <time>2018-08-20T15:28:00Z</time>
      </trkpt>
      <trkpt lat="-28.208015" lon="-65.765145">
        <ele>883.6</ele>
        <time>2018-08-20T15:28:02Z</time>
      </trkpt>
      <trkpt lat="-28.208115" lon="-65.765145">
        <ele>884.3</ele>
        <time>2018-08-20T15:28:04Z</time>
      </trkpt>
      <trkpt lat="-28.20821" lon="-65.76514">
        <ele>885.2</ele>
        <time>2018-08-20T15:28:06Z</time>
      </trkpt>
      <trkpt lat="-28.20829833333333" lon="-65.76513">
        <ele>886.9</ele>
        <time>2018-08-20T15:28:08Z</time>
      </trkpt>
      <trkpt lat="-28.208395" lon="-65.765115">
        <ele>887.7</ele>
        <time>2018-08-20T15:28:10Z</time>
      </trkpt>
      <trkpt lat="-28.20848833333333" lon="-65.76511333333333">
        <ele>889.1</ele>
        <time>2018-08-20T15:28:12Z</time>
      </trkpt>
      <trkpt lat="-28.20859" lon="-65.765115">
        <ele>890.4</ele>
        <time>2018-08-20T15:28:14Z</time>
      </trkpt>
      <trkpt lat="-28.208676666666666" lon="-65.76511166666667">
        <ele>891.4</ele>
        <time>2018-08-20T15:28:16Z</time>
      </trkpt>
      <trkpt lat="-28.20877" lon="-65.765105">
        <ele>892.1</ele>
        <time>2018-08-20T15:28:18Z</time>
      </trkpt>
      <trkpt lat="-28.20885" lon="-65.765105">
        <ele>892.3</ele>
        <time>2018-08-20T15:28:20Z</time>
      </trkpt>
      <trkpt lat="-28.20893" lon="-65.765095">
        <ele>892.2</ele>
        <time>2018-08-20T15:28:22Z</time>
      </trkpt>
      <trkpt lat="-28.209005" lon="-65.765085">
        <ele>892.2</ele>
        <time>2018-08-20T15:28:24Z</time>
      </trkpt>
      <trkpt lat="-28.20909" lon="-65.76507">
        <ele>892.2</ele>
        <time>2018-08-20T15:28:26Z</time>
      </trkpt>
      <trkpt lat="-28.209195" lon="-65.76506">
        <ele>892.4</ele>
        <time>2018-08-20T15:28:29Z</time>
      </trkpt>
      <trkpt lat="-28.20927" lon="-65.765045">
        <ele>892.2</ele>
        <time>2018-08-20T15:28:31Z</time>
      </trkpt>
      <trkpt lat="-28.20935" lon="-65.76502666666667">
        <ele>891.9</ele>
        <time>2018-08-20T15:28:33Z</time>
      </trkpt>
      <trkpt lat="-28.209435" lon="-65.76501166666667">
        <ele>890.8</ele>
        <time>2018-08-20T15:28:35Z</time>
      </trkpt>
      <trkpt lat="-28.209515" lon="-65.764995">
        <ele>889.8</ele>
        <time>2018-08-20T15:28:37Z</time>
      </trkpt>
      <trkpt lat="-28.20959" lon="-65.764975">
        <ele>888.5</ele>
        <time>2018-08-20T15:28:39Z</time>
      </trkpt>
      <trkpt lat="-28.209661666666666" lon="-65.764965">
        <ele>886.8</ele>
        <time>2018-08-20T15:28:41Z</time>
      </trkpt>
      <trkpt lat="-28.20974" lon="-65.764945">
        <ele>885.3</ele>
        <time>2018-08-20T15:28:43Z</time>
      </trkpt>
      <trkpt lat="-28.209825" lon="-65.76492">
        <ele>884.3</ele>
        <time>2018-08-20T15:28:45Z</time>
      </trkpt>
      <trkpt lat="-28.209905" lon="-65.7649">
        <ele>883.2</ele>
        <time>2018-08-20T15:28:47Z</time>
      </trkpt>
      <trkpt lat="-28.209985" lon="-65.76487">
        <ele>882.4</ele>
        <time>2018-08-20T15:28:49Z</time>
      </trkpt>
      <trkpt lat="-28.210065" lon="-65.76484166666667">
        <ele>882.5</ele>
        <time>2018-08-20T15:28:51Z</time>
      </trkpt>
      <trkpt lat="-28.21014" lon="-65.764815">
        <ele>882.2</ele>
        <time>2018-08-20T15:28:53Z</time>
      </trkpt>
      <trkpt lat="-28.210215" lon="-65.764785">
        <ele>882.2</ele>
        <time>2018-08-20T15:28:55Z</time>
      </trkpt>
      <trkpt lat="-28.210315" lon="-65.76474">
        <ele>882.3</ele>
        <time>2018-08-20T15:28:58Z</time>
      </trkpt>
      <trkpt lat="-28.210378333333335" lon="-65.764705">
        <ele>882.3</ele>
        <time>2018-08-20T15:29:00Z</time>
      </trkpt>
      <trkpt lat="-28.210448333333332" lon="-65.764675">
        <ele>882.4</ele>
        <time>2018-08-20T15:29:02Z</time>
      </trkpt>
      <trkpt lat="-28.210545" lon="-65.76462333333333">
        <ele>882.4</ele>
        <time>2018-08-20T15:29:05Z</time>
      </trkpt>
      <trkpt lat="-28.210611666666665" lon="-65.764595">
        <ele>882.4</ele>
        <time>2018-08-20T15:29:07Z</time>
      </trkpt>
      <trkpt lat="-28.210681666666666" lon="-65.76455">
        <ele>882.4</ele>
        <time>2018-08-20T15:29:09Z</time>
      </trkpt>
      <trkpt lat="-28.21075" lon="-65.764515">
        <ele>882.2</ele>
        <time>2018-08-20T15:29:11Z</time>
      </trkpt>
      <trkpt lat="-28.210825" lon="-65.76447833333333">
        <ele>882.1</ele>
        <time>2018-08-20T15:29:13Z</time>
      </trkpt>
      <trkpt lat="-28.210895" lon="-65.764435">
        <ele>882.1</ele>
        <time>2018-08-20T15:29:15Z</time>
      </trkpt>
      <trkpt lat="-28.210965" lon="-65.76439333333333">
        <ele>882.2</ele>
        <time>2018-08-20T15:29:17Z</time>
      </trkpt>
      <trkpt lat="-28.211026666666665" lon="-65.76435166666667">
        <ele>883.2</ele>
        <time>2018-08-20T15:29:19Z</time>
      </trkpt>
      <trkpt lat="-28.211095" lon="-65.76430833333333">
        <ele>883.9</ele>
        <time>2018-08-20T15:29:21Z</time>
      </trkpt>
      <trkpt lat="-28.21116" lon="-65.76426666666667">
        <ele>884.3</ele>
        <time>2018-08-20T15:29:23Z</time>
      </trkpt>
      <trkpt lat="-28.211235" lon="-65.76421833333333">
        <ele>884.6</ele>
        <time>2018-08-20T15:29:25Z</time>
      </trkpt>
      <trkpt lat="-28.21132" lon="-65.76416">
        <ele>884.7</ele>
        <time>2018-08-20T15:29:28Z</time>
      </trkpt>
      <trkpt lat="-28.211408333333335" lon="-65.76409">
        <ele>884.7</ele>
        <time>2018-08-20T15:29:31Z</time>
      </trkpt>
      <trkpt lat="-28.211475" lon="-65.76404166666667">
        <ele>885.1</ele>
        <time>2018-08-20T15:29:33Z</time>
      </trkpt>
      <trkpt lat="-28.211545" lon="-65.76399">
        <ele>885.2</ele>
        <time>2018-08-20T15:29:35Z</time>
      </trkpt>
      <trkpt lat="-28.211615" lon="-65.763945">
        <ele>885.0</ele>
        <time>2018-08-20T15:29:37Z</time>
      </trkpt>
      <trkpt lat="-28.21168" lon="-65.763895">
        <ele>884.8</ele>
        <time>2018-08-20T15:29:39Z</time>
      </trkpt>
      <trkpt lat="-28.21175" lon="-65.76385">
        <ele>884.6</ele>
        <time>2018-08-20T15:29:41Z</time>
      </trkpt>
      <trkpt lat="-28.211821666666665" lon="-65.76379">
        <ele>884.9</ele>
        <time>2018-08-20T15:29:43Z</time>
      </trkpt>
      <trkpt lat="-28.21191" lon="-65.763735">
        <ele>885.8</ele>
        <time>2018-08-20T15:29:45Z</time>
      </trkpt>
      <trkpt lat="-28.211985" lon="-65.76367">
        <ele>886.5</ele>
        <time>2018-08-20T15:29:47Z</time>
      </trkpt>
      <trkpt lat="-28.212065" lon="-65.763615">
        <ele>886.9</ele>
        <time>2018-08-20T15:29:49Z</time>
      </trkpt>
      <trkpt lat="-28.212145" lon="-65.76354333333333">
        <ele>886.5</ele>
        <time>2018-08-20T15:29:51Z</time>
      </trkpt>
      <trkpt lat="-28.21223" lon="-65.76347">
        <ele>885.7</ele>
        <time>2018-08-20T15:29:53Z</time>
      </trkpt>
      <trkpt lat="-28.212325" lon="-65.76337">
        <ele>884.9</ele>
        <time>2018-08-20T15:29:55Z</time>
      </trkpt>
      <trkpt lat="-28.212425" lon="-65.76327">
        <ele>884.1</ele>
        <time>2018-08-20T15:29:57Z</time>
      </trkpt>
      <trkpt lat="-28.21253" lon="-65.763165">
        <ele>883.4</ele>
        <time>2018-08-20T15:29:59Z</time>
      </trkpt>
      <trkpt lat="-28.21259" lon="-65.763115">
        <ele>883.0</ele>
        <time>2018-08-20T15:30:00Z</time>
      </trkpt>
      <trkpt lat="-28.21265" lon="-65.76305666666667">
        <ele>882.5</ele>
        <time>2018-08-20T15:30:01Z</time>
      </trkpt>
      <trkpt lat="-28.212715" lon="-65.76300833333333">
        <ele>882.0</ele>
        <time>2018-08-20T15:30:02Z</time>
      </trkpt>
      <trkpt lat="-28.212785" lon="-65.762965">
        <ele>881.5</ele>
        <time>2018-08-20T15:30:03Z</time>
      </trkpt>
      <trkpt lat="-28.212865" lon="-65.76294">
        <ele>880.9</ele>
        <time>2018-08-20T15:30:04Z</time>
      </trkpt>
      <trkpt lat="-28.21294" lon="-65.76291">
        <ele>880.4</ele>
        <time>2018-08-20T15:30:05Z</time>
      </trkpt>
      <trkpt lat="-28.213025" lon="-65.76289">
        <ele>879.8</ele>
        <time>2018-08-20T15:30:06Z</time>
      </trkpt>
      <trkpt lat="-28.213115" lon="-65.76287166666667">
        <ele>879.6</ele>
        <time>2018-08-20T15:30:07Z</time>
      </trkpt>
      <trkpt lat="-28.213195" lon="-65.762865">
        <ele>879.4</ele>
        <time>2018-08-20T15:30:08Z</time>
      </trkpt>
      <trkpt lat="-28.213275" lon="-65.762865">
        <ele>879.2</ele>
        <time>2018-08-20T15:30:09Z</time>
      </trkpt>
      <trkpt lat="-28.213355" lon="-65.762865">
        <ele>878.8</ele>
        <time>2018-08-20T15:30:10Z</time>
      </trkpt>
      <trkpt lat="-28.21344" lon="-65.76289">
        <ele>878.5</ele>
        <time>2018-08-20T15:30:11Z</time>
      </trkpt>
      <trkpt lat="-28.213515" lon="-65.76291666666667">
        <ele>878.2</ele>
        <time>2018-08-20T15:30:12Z</time>
      </trkpt>
      <trkpt lat="-28.2136" lon="-65.76295">
        <ele>877.8</ele>
        <time>2018-08-20T15:30:13Z</time>
      </trkpt>
      <trkpt lat="-28.213671666666666" lon="-65.762975">
        <ele>877.4</ele>
        <time>2018-08-20T15:30:14Z</time>
      </trkpt>
      <trkpt lat="-28.213755" lon="-65.76301333333333">
        <ele>876.7</ele>
        <time>2018-08-20T15:30:15Z</time>
      </trkpt>
      <trkpt lat="-28.21384" lon="-65.76305">
        <ele>875.5</ele>
        <time>2018-08-20T15:30:16Z</time>
      </trkpt>
      <trkpt lat="-28.213925" lon="-65.76309">
        <ele>874.4</ele>
        <time>2018-08-20T15:30:17Z</time>
      </trkpt>
      <trkpt lat="-28.214015" lon="-65.763135">
        <ele>873.3</ele>
        <time>2018-08-20T15:30:18Z</time>
      </trkpt>
      <trkpt lat="-28.214095" lon="-65.763175">
        <ele>872.4</ele>
        <time>2018-08-20T15:30:19Z</time>
      </trkpt>
      <trkpt lat="-28.21418" lon="-65.76322">
        <ele>871.3</ele>
        <time>2018-08-20T15:30:20Z</time>
      </trkpt>
      <trkpt lat="-28.21427" lon="-65.763265">
        <ele>870.2</ele>
        <time>2018-08-20T15:30:21Z</time>
      </trkpt>
      <trkpt lat="-28.21435" lon="-65.763305">
        <ele>869.2</ele>
        <time>2018-08-20T15:30:22Z</time>
      </trkpt>
      <trkpt lat="-28.214431666666666" lon="-65.76334">
        <ele>868.4</ele>
        <time>2018-08-20T15:30:23Z</time>
      </trkpt>
      <trkpt lat="-28.21452" lon="-65.76337">
        <ele>867.6</ele>
        <time>2018-08-20T15:30:24Z</time>
      </trkpt>
      <trkpt lat="-28.214595" lon="-65.7634">
        <ele>867.0</ele>
        <time>2018-08-20T15:30:25Z</time>
      </trkpt>
      <trkpt lat="-28.214685" lon="-65.763435">
        <ele>866.2</ele>
        <time>2018-08-20T15:30:26Z</time>
      </trkpt>
      <trkpt lat="-28.21483" lon="-65.763475">
        <ele>866.1</ele>
        <time>2018-08-20T15:30:28Z</time>
      </trkpt>
      <trkpt lat="-28.214905" lon="-65.76349166666667">
        <ele>866.2</ele>
        <time>2018-08-20T15:30:29Z</time>
      </trkpt>
      <trkpt lat="-28.214985" lon="-65.76351">
        <ele>866.3</ele>
        <time>2018-08-20T15:30:30Z</time>
      </trkpt>
      <trkpt lat="-28.21507" lon="-65.76353">
        <ele>866.4</ele>
        <time>2018-08-20T15:30:31Z</time>
      </trkpt>
      <trkpt lat="-28.215155" lon="-65.76354333333333">
        <ele>866.6</ele>
        <time>2018-08-20T15:30:32Z</time>
      </trkpt>
      <trkpt lat="-28.215235" lon="-65.76355666666667">
        <ele>866.9</ele>
        <time>2018-08-20T15:30:33Z</time>
      </trkpt>
      <trkpt lat="-28.21531" lon="-65.763565">
        <ele>867.1</ele>
        <time>2018-08-20T15:30:34Z</time>
      </trkpt>
      <trkpt lat="-28.21538" lon="-65.76357833333333">
        <ele>867.4</ele>
        <time>2018-08-20T15:30:35Z</time>
      </trkpt>
      <trkpt lat="-28.215451666666667" lon="-65.763585">
        <ele>867.5</ele>
        <time>2018-08-20T15:30:36Z</time>
      </trkpt>
      <trkpt lat="-28.215526666666666" lon="-65.76359166666667">
        <ele>867.6</ele>
        <time>2018-08-20T15:30:37Z</time>
      </trkpt>
      <trkpt lat="-28.215605" lon="-65.763605">
        <ele>867.6</ele>
        <time>2018-08-20T15:30:38Z</time>
      </trkpt>
      <trkpt lat="-28.215675" lon="-65.76361">
        <ele>867.6</ele>
        <time>2018-08-20T15:30:39Z</time>
      </trkpt>
      <trkpt lat="-28.215751666666666" lon="-65.76362">
        <ele>867.5</ele>
        <time>2018-08-20T15:30:40Z</time>
      </trkpt>
      <trkpt lat="-28.21583" lon="-65.763625">
        <ele>867.3</ele>
        <time>2018-08-20T15:30:41Z</time>
      </trkpt>
      <trkpt lat="-28.21597" lon="-65.76363">
        <ele>867.3</ele>
        <time>2018-08-20T15:30:43Z</time>
      </trkpt>
      <trkpt lat="-28.216105" lon="-65.76364">
        <ele>867.3</ele>
        <time>2018-08-20T15:30:45Z</time>
      </trkpt>
      <trkpt lat="-28.21624" lon="-65.76366">
        <ele>867.2</ele>
        <time>2018-08-20T15:30:47Z</time>
      </trkpt>
      <trkpt lat="-28.21638" lon="-65.76367">
        <ele>867.1</ele>
        <time>2018-08-20T15:30:49Z</time>
      </trkpt>
      <trkpt lat="-28.21652" lon="-65.76369">
        <ele>867.2</ele>
        <time>2018-08-20T15:30:51Z</time>
      </trkpt>
      <trkpt lat="-28.21659" lon="-65.763705">
        <ele>867.1</ele>
        <time>2018-08-20T15:30:52Z</time>
      </trkpt>
      <trkpt lat="-28.21672" lon="-65.763735">
        <ele>866.8</ele>
        <time>2018-08-20T15:30:54Z</time>
      </trkpt>
      <trkpt lat="-28.21679" lon="-65.76375">
        <ele>866.8</ele>
        <time>2018-08-20T15:30:55Z</time>
      </trkpt>
      <trkpt lat="-28.216925" lon="-65.7638">
        <ele>866.8</ele>
        <time>2018-08-20T15:30:57Z</time>
      </trkpt>
      <trkpt lat="-28.216995" lon="-65.76383">
        <ele>866.3</ele>
        <time>2018-08-20T15:30:58Z</time>
      </trkpt>
      <trkpt lat="-28.217125" lon="-65.76390166666667">
        <ele>864.8</ele>
        <time>2018-08-20T15:31:00Z</time>
      </trkpt>
      <trkpt lat="-28.21719" lon="-65.763945">
        <ele>864.1</ele>
        <time>2018-08-20T15:31:01Z</time>
      </trkpt>
      <trkpt lat="-28.217305" lon="-65.764035">
        <ele>862.4</ele>
        <time>2018-08-20T15:31:03Z</time>
      </trkpt>
      <trkpt lat="-28.217405" lon="-65.76412">
        <ele>860.2</ele>
        <time>2018-08-20T15:31:05Z</time>
      </trkpt>
      <trkpt lat="-28.217495" lon="-65.76421333333333">
        <ele>857.7</ele>
        <time>2018-08-20T15:31:07Z</time>
      </trkpt>
      <trkpt lat="-28.217576666666666" lon="-65.764315">
        <ele>854.8</ele>
        <time>2018-08-20T15:31:09Z</time>
      </trkpt>
      <trkpt lat="-28.217665" lon="-65.764425">
        <ele>851.7</ele>
        <time>2018-08-20T15:31:11Z</time>
      </trkpt>
      <trkpt lat="-28.217745" lon="-65.764525">
        <ele>848.2</ele>
        <time>2018-08-20T15:31:13Z</time>
      </trkpt>
      <trkpt lat="-28.217825" lon="-65.76462666666667">
        <ele>844.5</ele>
        <time>2018-08-20T15:31:15Z</time>
      </trkpt>
      <trkpt lat="-28.21791" lon="-65.764735">
        <ele>840.9</ele>
        <time>2018-08-20T15:31:17Z</time>
      </trkpt>
      <trkpt lat="-28.217985" lon="-65.764835">
        <ele>837.3</ele>
        <time>2018-08-20T15:31:19Z</time>
      </trkpt>
      <trkpt lat="-28.218065" lon="-65.764935">
        <ele>834.0</ele>
        <time>2018-08-20T15:31:21Z</time>
      </trkpt>
      <trkpt lat="-28.21814" lon="-65.76504">
        <ele>830.9</ele>
        <time>2018-08-20T15:31:23Z</time>
      </trkpt>
      <trkpt lat="-28.218215" lon="-65.76514">
        <ele>828.1</ele>
        <time>2018-08-20T15:31:25Z</time>
      </trkpt>
      <trkpt lat="-28.2183" lon="-65.76523666666667">
        <ele>825.7</ele>
        <time>2018-08-20T15:31:27Z</time>
      </trkpt>
      <trkpt lat="-28.21839" lon="-65.76534">
        <ele>823.6</ele>
        <time>2018-08-20T15:31:29Z</time>
      </trkpt>
      <trkpt lat="-28.21848" lon="-65.76545">
        <ele>821.9</ele>
        <time>2018-08-20T15:31:31Z</time>
      </trkpt>
      <trkpt lat="-28.21858" lon="-65.76556166666667">
        <ele>820.5</ele>
        <time>2018-08-20T15:31:33Z</time>
      </trkpt>
      <trkpt lat="-28.21868" lon="-65.765675">
        <ele>819.4</ele>
        <time>2018-08-20T15:31:35Z</time>
      </trkpt>
      <trkpt lat="-28.21874" lon="-65.765735">
        <ele>818.9</ele>
        <time>2018-08-20T15:31:36Z</time>
      </trkpt>
      <trkpt lat="-28.218855" lon="-65.76576">
        <ele>837.4</ele>
        <time>2018-08-20T15:31:39Z</time>
      </trkpt>
      <trkpt lat="-28.218925" lon="-65.7658">
        <ele>841.9</ele>
        <time>2018-08-20T15:31:40Z</time>
      </trkpt>
      <trkpt lat="-28.219" lon="-65.76583333333333">
        <ele>845.7</ele>
        <time>2018-08-20T15:31:41Z</time>
      </trkpt>
      <trkpt lat="-28.21908" lon="-65.76586666666667">
        <ele>848.7</ele>
        <time>2018-08-20T15:31:42Z</time>
      </trkpt>
      <trkpt lat="-28.21916" lon="-65.765905">
        <ele>851.1</ele>
        <time>2018-08-20T15:31:43Z</time>
      </trkpt>
      <trkpt lat="-28.21925" lon="-65.76592166666667">
        <ele>853.3</ele>
        <time>2018-08-20T15:31:44Z</time>
      </trkpt>
      <trkpt lat="-28.219345" lon="-65.76595">
        <ele>854.8</ele>
        <time>2018-08-20T15:31:45Z</time>
      </trkpt>
      <trkpt lat="-28.21945" lon="-65.76595">
        <ele>855.8</ele>
        <time>2018-08-20T15:31:46Z</time>
      </trkpt>
      <trkpt lat="-28.219555" lon="-65.765945">
        <ele>856.6</ele>
        <time>2018-08-20T15:31:47Z</time>
      </trkpt>
      <trkpt lat="-28.219655" lon="-65.76593">
        <ele>857.0</ele>
        <time>2018-08-20T15:31:48Z</time>
      </trkpt>
      <trkpt lat="-28.21976" lon="-65.765915">
        <ele>856.9</ele>
        <time>2018-08-20T15:31:49Z</time>
      </trkpt>
      <trkpt lat="-28.21987" lon="-65.765895">
        <ele>856.6</ele>
        <time>2018-08-20T15:31:50Z</time>
      </trkpt>
      <trkpt lat="-28.219995" lon="-65.76586">
        <ele>856.1</ele>
        <time>2018-08-20T15:31:51Z</time>
      </trkpt>
      <trkpt lat="-28.22011" lon="-65.765815">
        <ele>855.6</ele>
        <time>2018-08-20T15:31:52Z</time>
      </trkpt>
      <trkpt lat="-28.22022" lon="-65.765735">
        <ele>855.2</ele>
        <time>2018-08-20T15:31:53Z</time>
      </trkpt>
      <trkpt lat="-28.220325" lon="-65.76566">
        <ele>854.6</ele>
        <time>2018-08-20T15:31:54Z</time>
      </trkpt>
      <trkpt lat="-28.220435" lon="-65.76556166666667">
        <ele>854.6</ele>
        <time>2018-08-20T15:31:55Z</time>
      </trkpt>
      <trkpt lat="-28.22053" lon="-65.76546833333333">
        <ele>854.4</ele>
        <time>2018-08-20T15:31:56Z</time>
      </trkpt>
      <trkpt lat="-28.220625" lon="-65.76537">
        <ele>854.5</ele>
        <time>2018-08-20T15:31:57Z</time>
      </trkpt>
      <trkpt lat="-28.220695" lon="-65.76524333333333">
        <ele>854.3</ele>
        <time>2018-08-20T15:31:58Z</time>
      </trkpt>
      <trkpt lat="-28.220765" lon="-65.765125">
        <ele>854.0</ele>
        <time>2018-08-20T15:31:59Z</time>
      </trkpt>
      <trkpt lat="-28.220825" lon="-65.765">
        <ele>853.8</ele>
        <time>2018-08-20T15:32:00Z</time>
      </trkpt>
      <trkpt lat="-28.220876666666665" lon="-65.764875">
        <ele>853.4</ele>
        <time>2018-08-20T15:32:01Z</time>
      </trkpt>
      <trkpt lat="-28.22093" lon="-65.76475">
        <ele>853.0</ele>
        <time>2018-08-20T15:32:02Z</time>
      </trkpt>
      <trkpt lat="-28.22097" lon="-65.764635">
        <ele>852.5</ele>
        <time>2018-08-20T15:32:03Z</time>
      </trkpt>
      <trkpt lat="-28.22101" lon="-65.764515">
        <ele>851.9</ele>
        <time>2018-08-20T15:32:04Z</time>
      </trkpt>
      <trkpt lat="-28.22105" lon="-65.76439333333333">
        <ele>851.6</ele>
        <time>2018-08-20T15:32:05Z</time>
      </trkpt>
      <trkpt lat="-28.221085" lon="-65.76429">
        <ele>851.3</ele>
        <time>2018-08-20T15:32:06Z</time>
      </trkpt>
      <trkpt lat="-28.22112" lon="-65.76417333333333">
        <ele>851.1</ele>
        <time>2018-08-20T15:32:07Z</time>
      </trkpt>
      <trkpt lat="-28.221155" lon="-65.76407">
        <ele>851.0</ele>
        <time>2018-08-20T15:32:08Z</time>
      </trkpt>
      <trkpt lat="-28.221185" lon="-65.76396">
        <ele>851.0</ele>
        <time>2018-08-20T15:32:09Z</time>
      </trkpt>
      <trkpt lat="-28.221213333333335" lon="-65.76386333333333">
        <ele>851.1</ele>
        <time>2018-08-20T15:32:10Z</time>
      </trkpt>
      <trkpt lat="-28.221245" lon="-65.76376833333333">
        <ele>851.1</ele>
        <time>2018-08-20T15:32:11Z</time>
      </trkpt>
      <trkpt lat="-28.221275" lon="-65.76368">
        <ele>851.2</ele>
        <time>2018-08-20T15:32:12Z</time>
      </trkpt>
      <trkpt lat="-28.221305" lon="-65.763595">
        <ele>851.3</ele>
        <time>2018-08-20T15:32:13Z</time>
      </trkpt>
      <trkpt lat="-28.221325" lon="-65.76352">
        <ele>851.3</ele>
        <time>2018-08-20T15:32:14Z</time>
      </trkpt>
      <trkpt lat="-28.22138" lon="-65.76336666666667">
        <ele>851.3</ele>
        <time>2018-08-20T15:32:16Z</time>
      </trkpt>
      <trkpt lat="-28.22142" lon="-65.76322666666667">
        <ele>851.1</ele>
        <time>2018-08-20T15:32:18Z</time>
      </trkpt>
      <trkpt lat="-28.22146" lon="-65.76310333333333">
        <ele>851.1</ele>
        <time>2018-08-20T15:32:20Z</time>
      </trkpt>
      <trkpt lat="-28.221505" lon="-65.76299">
        <ele>851.0</ele>
        <time>2018-08-20T15:32:22Z</time>
      </trkpt>
      <trkpt lat="-28.22154" lon="-65.762875">
        <ele>851.1</ele>
        <time>2018-08-20T15:32:24Z</time>
      </trkpt>
      <trkpt lat="-28.221575" lon="-65.76277">
        <ele>851.0</ele>
        <time>2018-08-20T15:32:26Z</time>
      </trkpt>
      <trkpt lat="-28.22161" lon="-65.76266666666666">
        <ele>850.9</ele>
        <time>2018-08-20T15:32:28Z</time>
      </trkpt>
      <trkpt lat="-28.221645" lon="-65.76257">
        <ele>850.8</ele>
        <time>2018-08-20T15:32:30Z</time>
      </trkpt>
      <trkpt lat="-28.221671666666666" lon="-65.76246833333333">
        <ele>850.7</ele>
        <time>2018-08-20T15:32:32Z</time>
      </trkpt>
      <trkpt lat="-28.221706666666666" lon="-65.762365">
        <ele>850.9</ele>
        <time>2018-08-20T15:32:34Z</time>
      </trkpt>
      <trkpt lat="-28.22174" lon="-65.762265">
        <ele>850.8</ele>
        <time>2018-08-20T15:32:36Z</time>
      </trkpt>
      <trkpt lat="-28.221775" lon="-65.76215666666667">
        <ele>851.0</ele>
        <time>2018-08-20T15:32:38Z</time>
      </trkpt>
      <trkpt lat="-28.221815" lon="-65.76205666666667">
        <ele>852.1</ele>
        <time>2018-08-20T15:32:40Z</time>
      </trkpt>
      <trkpt lat="-28.22185" lon="-65.761965">
        <ele>852.7</ele>
        <time>2018-08-20T15:32:42Z</time>
      </trkpt>
      <trkpt lat="-28.221885" lon="-65.761865">
        <ele>852.9</ele>
        <time>2018-08-20T15:32:44Z</time>
      </trkpt>
      <trkpt lat="-28.221925" lon="-65.761765">
        <ele>853.0</ele>
        <time>2018-08-20T15:32:46Z</time>
      </trkpt>
      <trkpt lat="-28.221965" lon="-65.76167166666667">
        <ele>853.0</ele>
        <time>2018-08-20T15:32:48Z</time>
      </trkpt>
      <trkpt lat="-28.222015" lon="-65.761585">
        <ele>853.2</ele>
        <time>2018-08-20T15:32:50Z</time>
      </trkpt>
      <trkpt lat="-28.222065" lon="-65.761495">
        <ele>853.5</ele>
        <time>2018-08-20T15:32:52Z</time>
      </trkpt>
      <trkpt lat="-28.222115" lon="-65.761425">
        <ele>853.3</ele>
        <time>2018-08-20T15:32:54Z</time>
      </trkpt>
      <trkpt lat="-28.222185" lon="-65.761325">
        <ele>851.2</ele>
        <time>2018-08-20T15:32:57Z</time>
      </trkpt>
      <trkpt lat="-28.22224" lon="-65.76125">
        <ele>850.1</ele>
        <time>2018-08-20T15:32:59Z</time>
      </trkpt>
      <trkpt lat="-28.222305" lon="-65.761185">
        <ele>849.6</ele>
        <time>2018-08-20T15:33:01Z</time>
      </trkpt>
      <trkpt lat="-28.22237" lon="-65.76112">
        <ele>849.1</ele>
        <time>2018-08-20T15:33:03Z</time>
      </trkpt>
      <trkpt lat="-28.222445" lon="-65.761055">
        <ele>848.8</ele>
        <time>2018-08-20T15:33:05Z</time>
      </trkpt>
      <trkpt lat="-28.22252" lon="-65.761005">
        <ele>848.2</ele>
        <time>2018-08-20T15:33:07Z</time>
      </trkpt>
      <trkpt lat="-28.2226" lon="-65.76095">
        <ele>847.5</ele>
        <time>2018-08-20T15:33:09Z</time>
      </trkpt>
      <trkpt lat="-28.222675" lon="-65.76090833333333">
        <ele>846.6</ele>
        <time>2018-08-20T15:33:11Z</time>
      </trkpt>
      <trkpt lat="-28.22276" lon="-65.760875">
        <ele>845.6</ele>
        <time>2018-08-20T15:33:13Z</time>
      </trkpt>
      <trkpt lat="-28.222855" lon="-65.760835">
        <ele>845.0</ele>
        <time>2018-08-20T15:33:15Z</time>
      </trkpt>
      <trkpt lat="-28.22295" lon="-65.7608">
        <ele>844.8</ele>
        <time>2018-08-20T15:33:17Z</time>
      </trkpt>
      <trkpt lat="-28.223036666666665" lon="-65.76077166666667">
        <ele>844.4</ele>
        <time>2018-08-20T15:33:19Z</time>
      </trkpt>
      <trkpt lat="-28.223135" lon="-65.76075">
        <ele>844.0</ele>
        <time>2018-08-20T15:33:21Z</time>
      </trkpt>
      <trkpt lat="-28.223225" lon="-65.760735">
        <ele>843.4</ele>
        <time>2018-08-20T15:33:23Z</time>
      </trkpt>
      <trkpt lat="-28.22332" lon="-65.760715">
        <ele>843.0</ele>
        <time>2018-08-20T15:33:25Z</time>
      </trkpt>
      <trkpt lat="-28.223418333333335" lon="-65.76068333333333">
        <ele>843.3</ele>
        <time>2018-08-20T15:33:27Z</time>
      </trkpt>
      <trkpt lat="-28.22352" lon="-65.760665">
        <ele>843.2</ele>
        <time>2018-08-20T15:33:29Z</time>
      </trkpt>
      <trkpt lat="-28.223615" lon="-65.76063833333333">
        <ele>842.9</ele>
        <time>2018-08-20T15:33:31Z</time>
      </trkpt>
      <trkpt lat="-28.223711666666667" lon="-65.76062">
        <ele>842.7</ele>
        <time>2018-08-20T15:33:33Z</time>
      </trkpt>
      <trkpt lat="-28.223815" lon="-65.76059166666667">
        <ele>842.7</ele>
        <time>2018-08-20T15:33:35Z</time>
      </trkpt>
      <trkpt lat="-28.223935" lon="-65.760565">
        <ele>843.0</ele>
        <time>2018-08-20T15:33:37Z</time>
      </trkpt>
      <trkpt lat="-28.224055" lon="-65.760525">
        <ele>843.8</ele>
        <time>2018-08-20T15:33:39Z</time>
      </trkpt>
      <trkpt lat="-28.224185" lon="-65.76049">
        <ele>844.5</ele>
        <time>2018-08-20T15:33:41Z</time>
      </trkpt>
      <trkpt lat="-28.224315" lon="-65.76046">
        <ele>845.1</ele>
        <time>2018-08-20T15:33:43Z</time>
      </trkpt>
      <trkpt lat="-28.22445" lon="-65.76043">
        <ele>845.6</ele>
        <time>2018-08-20T15:33:45Z</time>
      </trkpt>
      <trkpt lat="-28.22458" lon="-65.760395">
        <ele>845.8</ele>
        <time>2018-08-20T15:33:47Z</time>
      </trkpt>
      <trkpt lat="-28.22472" lon="-65.76036">
        <ele>845.8</ele>
        <time>2018-08-20T15:33:49Z</time>
      </trkpt>
      <trkpt lat="-28.22485" lon="-65.76032">
        <ele>845.5</ele>
        <time>2018-08-20T15:33:51Z</time>
      </trkpt>
      <trkpt lat="-28.22499" lon="-65.7603">
        <ele>844.3</ele>
        <time>2018-08-20T15:33:53Z</time>
      </trkpt>
      <trkpt lat="-28.225065" lon="-65.76027500000001">
        <ele>843.9</ele>
        <time>2018-08-20T15:33:54Z</time>
      </trkpt>
      <trkpt lat="-28.225135" lon="-65.760255">
        <ele>843.5</ele>
        <time>2018-08-20T15:33:55Z</time>
      </trkpt>
      <trkpt lat="-28.22521" lon="-65.76023333333333">
        <ele>843.1</ele>
        <time>2018-08-20T15:33:56Z</time>
      </trkpt>
      <trkpt lat="-28.225285" lon="-65.76022">
        <ele>842.7</ele>
        <time>2018-08-20T15:33:57Z</time>
      </trkpt>
      <trkpt lat="-28.22543" lon="-65.7602">
        <ele>841.9</ele>
        <time>2018-08-20T15:33:59Z</time>
      </trkpt>
      <trkpt lat="-28.225505" lon="-65.76018">
        <ele>841.4</ele>
        <time>2018-08-20T15:34:00Z</time>
      </trkpt>
      <trkpt lat="-28.225575" lon="-65.760175">
        <ele>840.9</ele>
        <time>2018-08-20T15:34:01Z</time>
      </trkpt>
      <trkpt lat="-28.225648333333332" lon="-65.76017">
        <ele>840.4</ele>
        <time>2018-08-20T15:34:02Z</time>
      </trkpt>
      <trkpt lat="-28.22579" lon="-65.76016">
        <ele>839.4</ele>
        <time>2018-08-20T15:34:04Z</time>
      </trkpt>
      <trkpt lat="-28.22587" lon="-65.76016">
        <ele>838.9</ele>
        <time>2018-08-20T15:34:05Z</time>
      </trkpt>
      <trkpt lat="-28.225945" lon="-65.76016">
        <ele>838.4</ele>
        <time>2018-08-20T15:34:06Z</time>
      </trkpt>
      <trkpt lat="-28.226025" lon="-65.76016">
        <ele>838.0</ele>
        <time>2018-08-20T15:34:07Z</time>
      </trkpt>
      <trkpt lat="-28.226105" lon="-65.76016">
        <ele>837.6</ele>
        <time>2018-08-20T15:34:08Z</time>
      </trkpt>
      <trkpt lat="-28.22618" lon="-65.76017">
        <ele>837.4</ele>
        <time>2018-08-20T15:34:09Z</time>
      </trkpt>
      <trkpt lat="-28.22626" lon="-65.76018">
        <ele>837.1</ele>
        <time>2018-08-20T15:34:10Z</time>
      </trkpt>
      <trkpt lat="-28.22634" lon="-65.760185">
        <ele>836.9</ele>
        <time>2018-08-20T15:34:11Z</time>
      </trkpt>
      <trkpt lat="-28.22643" lon="-65.76019">
        <ele>837.0</ele>
        <time>2018-08-20T15:34:12Z</time>
      </trkpt>
      <trkpt lat="-28.22651" lon="-65.760205">
        <ele>837.0</ele>
        <time>2018-08-20T15:34:13Z</time>
      </trkpt>
      <trkpt lat="-28.226586666666666" lon="-65.760215">
        <ele>837.1</ele>
        <time>2018-08-20T15:34:14Z</time>
      </trkpt>
      <trkpt lat="-28.226675" lon="-65.76022">
        <ele>837.3</ele>
        <time>2018-08-20T15:34:15Z</time>
      </trkpt>
      <trkpt lat="-28.22676" lon="-65.76023166666667">
        <ele>837.5</ele>
        <time>2018-08-20T15:34:16Z</time>
      </trkpt>
      <trkpt lat="-28.22684" lon="-65.760245">
        <ele>837.6</ele>
        <time>2018-08-20T15:34:17Z</time>
      </trkpt>
      <trkpt lat="-28.22692" lon="-65.76026">
        <ele>837.8</ele>
        <time>2018-08-20T15:34:18Z</time>
      </trkpt>
      <trkpt lat="-28.227" lon="-65.76027500000001">
        <ele>837.9</ele>
        <time>2018-08-20T15:34:19Z</time>
      </trkpt>
      <trkpt lat="-28.22708" lon="-65.76028166666667">
        <ele>838.2</ele>
        <time>2018-08-20T15:34:20Z</time>
      </trkpt>
      <trkpt lat="-28.227155" lon="-65.7603">
        <ele>838.3</ele>
        <time>2018-08-20T15:34:21Z</time>
      </trkpt>
      <trkpt lat="-28.22729" lon="-65.76032333333333">
        <ele>837.7</ele>
        <time>2018-08-20T15:34:23Z</time>
      </trkpt>
      <trkpt lat="-28.22742" lon="-65.760355">
        <ele>837.0</ele>
        <time>2018-08-20T15:34:25Z</time>
      </trkpt>
      <trkpt lat="-28.227546666666665" lon="-65.760385">
        <ele>836.2</ele>
        <time>2018-08-20T15:34:27Z</time>
      </trkpt>
      <trkpt lat="-28.227685" lon="-65.760405">
        <ele>835.4</ele>
        <time>2018-08-20T15:34:29Z</time>
      </trkpt>
      <trkpt lat="-28.227815" lon="-65.76043">
        <ele>834.6</ele>
        <time>2018-08-20T15:34:31Z</time>
      </trkpt>
      <trkpt lat="-28.22789" lon="-65.76044">
        <ele>834.6</ele>
        <time>2018-08-20T15:34:32Z</time>
      </trkpt>
      <trkpt lat="-28.22802" lon="-65.76045166666667">
        <ele>834.7</ele>
        <time>2018-08-20T15:34:34Z</time>
      </trkpt>
      <trkpt lat="-28.228135" lon="-65.76047">
        <ele>834.6</ele>
        <time>2018-08-20T15:34:36Z</time>
      </trkpt>
      <trkpt lat="-28.22824" lon="-65.76049">
        <ele>834.5</ele>
        <time>2018-08-20T15:34:38Z</time>
      </trkpt>
      <trkpt lat="-28.22835" lon="-65.76049666666667">
        <ele>834.2</ele>
        <time>2018-08-20T15:34:40Z</time>
      </trkpt>
      <trkpt lat="-28.22846" lon="-65.76051">
        <ele>834.1</ele>
        <time>2018-08-20T15:34:42Z</time>
      </trkpt>
      <trkpt lat="-28.228565" lon="-65.760525">
        <ele>834.0</ele>
        <time>2018-08-20T15:34:44Z</time>
      </trkpt>
      <trkpt lat="-28.228685" lon="-65.76052">
        <ele>834.5</ele>
        <time>2018-08-20T15:34:46Z</time>
      </trkpt>
      <trkpt lat="-28.22879" lon="-65.760515">
        <ele>834.8</ele>
        <time>2018-08-20T15:34:48Z</time>
      </trkpt>
      <trkpt lat="-28.228895" lon="-65.7605">
        <ele>835.2</ele>
        <time>2018-08-20T15:34:50Z</time>
      </trkpt>
      <trkpt lat="-28.229" lon="-65.76049">
        <ele>836.2</ele>
        <time>2018-08-20T15:34:52Z</time>
      </trkpt>
      <trkpt lat="-28.229091666666665" lon="-65.76046">
        <ele>837.4</ele>
        <time>2018-08-20T15:34:54Z</time>
      </trkpt>
      <trkpt lat="-28.229185" lon="-65.76044">
        <ele>837.8</ele>
        <time>2018-08-20T15:34:57Z</time>
      </trkpt>
      <trkpt lat="-28.22926" lon="-65.76041166666667">
        <ele>837.4</ele>
        <time>2018-08-20T15:34:59Z</time>
      </trkpt>
      <trkpt lat="-28.229345" lon="-65.760385">
        <ele>837.0</ele>
        <time>2018-08-20T15:35:01Z</time>
      </trkpt>
      <trkpt lat="-28.22943" lon="-65.76035">
        <ele>836.4</ele>
        <time>2018-08-20T15:35:03Z</time>
      </trkpt>
      <trkpt lat="-28.229505" lon="-65.76031333333333">
        <ele>836.4</ele>
        <time>2018-08-20T15:35:05Z</time>
      </trkpt>
      <trkpt lat="-28.2296" lon="-65.760265">
        <ele>836.4</ele>
        <time>2018-08-20T15:35:08Z</time>
      </trkpt>
      <trkpt lat="-28.22968" lon="-65.76022">
        <ele>836.4</ele>
        <time>2018-08-20T15:35:11Z</time>
      </trkpt>
      <trkpt lat="-28.229755" lon="-65.760175">
        <ele>836.4</ele>
        <time>2018-08-20T15:35:14Z</time>
      </trkpt>
      <trkpt lat="-28.22984" lon="-65.76012">
        <ele>836.5</ele>
        <time>2018-08-20T15:35:17Z</time>
      </trkpt>
      <trkpt lat="-28.22992" lon="-65.76007">
        <ele>836.5</ele>
        <time>2018-08-20T15:35:20Z</time>
      </trkpt>
      <trkpt lat="-28.229995" lon="-65.76001">
        <ele>836.7</ele>
        <time>2018-08-20T15:35:23Z</time>
      </trkpt>
      <trkpt lat="-28.23006" lon="-65.759975">
        <ele>836.8</ele>
        <time>2018-08-20T15:35:26Z</time>
      </trkpt>
      <trkpt lat="-28.23014" lon="-65.75992333333333">
        <ele>836.9</ele>
        <time>2018-08-20T15:35:29Z</time>
      </trkpt>
      <trkpt lat="-28.230215" lon="-65.75987">
        <ele>837.2</ele>
        <time>2018-08-20T15:35:32Z</time>
      </trkpt>
      <trkpt lat="-28.23028" lon="-65.759825">
        <ele>837.4</ele>
        <time>2018-08-20T15:35:35Z</time>
      </trkpt>
      <trkpt lat="-28.230355" lon="-65.75977666666667">
        <ele>837.5</ele>
        <time>2018-08-20T15:35:38Z</time>
      </trkpt>
      <trkpt lat="-28.23043" lon="-65.75973">
        <ele>837.6</ele>
        <time>2018-08-20T15:35:41Z</time>
      </trkpt>
      <trkpt lat="-28.23049333333333" lon="-65.75968666666667">
        <ele>837.7</ele>
        <time>2018-08-20T15:35:44Z</time>
      </trkpt>
      <trkpt lat="-28.23058" lon="-65.75963666666667">
        <ele>837.9</ele>
        <time>2018-08-20T15:35:48Z</time>
      </trkpt>
      <trkpt lat="-28.23064" lon="-65.7596">
        <ele>838.0</ele>
        <time>2018-08-20T15:35:51Z</time>
      </trkpt>
      <trkpt lat="-28.23071" lon="-65.75955166666667">
        <ele>838.2</ele>
        <time>2018-08-20T15:35:54Z</time>
      </trkpt>
      <trkpt lat="-28.23078" lon="-65.759505">
        <ele>838.3</ele>
        <time>2018-08-20T15:35:57Z</time>
      </trkpt>
      <trkpt lat="-28.230845" lon="-65.75946166666667">
        <ele>838.5</ele>
        <time>2018-08-20T15:36:00Z</time>
      </trkpt>
      <trkpt lat="-28.230905" lon="-65.75942">
        <ele>838.6</ele>
        <time>2018-08-20T15:36:03Z</time>
      </trkpt>
      <trkpt lat="-28.230975" lon="-65.75937833333333">
        <ele>838.8</ele>
        <time>2018-08-20T15:36:06Z</time>
      </trkpt>
      <trkpt lat="-28.23104" lon="-65.75933666666667">
        <ele>839.0</ele>
        <time>2018-08-20T15:36:09Z</time>
      </trkpt>
      <trkpt lat="-28.231125" lon="-65.759285">
        <ele>839.2</ele>
        <time>2018-08-20T15:36:13Z</time>
      </trkpt>
      <trkpt lat="-28.23119" lon="-65.75924666666667">
        <ele>839.4</ele>
        <time>2018-08-20T15:36:16Z</time>
      </trkpt>
      <trkpt lat="-28.23126" lon="-65.75920333333333">
        <ele>839.6</ele>
        <time>2018-08-20T15:36:19Z</time>
      </trkpt>
      <trkpt lat="-28.23133" lon="-65.75916333333333">
        <ele>839.7</ele>
        <time>2018-08-20T15:36:22Z</time>
      </trkpt>
      <trkpt lat="-28.231395" lon="-65.75911833333333">
        <ele>839.8</ele>
        <time>2018-08-20T15:36:25Z</time>
      </trkpt>
      <trkpt lat="-28.23146" lon="-65.75908">
        <ele>840.0</ele>
        <time>2018-08-20T15:36:28Z</time>
      </trkpt>
      <trkpt lat="-28.23153" lon="-65.759035">
        <ele>840.2</ele>
        <time>2018-08-20T15:36:31Z</time>
      </trkpt>
      <trkpt lat="-28.231605" lon="-65.758995">
        <ele>840.4</ele>
        <time>2018-08-20T15:36:34Z</time>
      </trkpt>
      <trkpt lat="-28.231685" lon="-65.75895166666666">
        <ele>840.5</ele>
        <time>2018-08-20T15:36:37Z</time>
      </trkpt>
      <trkpt lat="-28.231765" lon="-65.75892">
        <ele>840.6</ele>
        <time>2018-08-20T15:36:40Z</time>
      </trkpt>
      <trkpt lat="-28.23185" lon="-65.758885">
        <ele>840.7</ele>
        <time>2018-08-20T15:36:43Z</time>
      </trkpt>
      <trkpt lat="-28.231935" lon="-65.75886">
        <ele>841.0</ele>
        <time>2018-08-20T15:36:46Z</time>
      </trkpt>
      <trkpt lat="-28.232035" lon="-65.75884">
        <ele>841.4</ele>
        <time>2018-08-20T15:36:49Z</time>
      </trkpt>
      <trkpt lat="-28.232125" lon="-65.75883166666667">
        <ele>841.7</ele>
        <time>2018-08-20T15:36:52Z</time>
      </trkpt>
      <trkpt lat="-28.232215" lon="-65.75884">
        <ele>842.1</ele>
        <time>2018-08-20T15:36:55Z</time>
      </trkpt>
      <trkpt lat="-28.232315" lon="-65.758855">
        <ele>842.3</ele>
        <time>2018-08-20T15:36:58Z</time>
      </trkpt>
      <trkpt lat="-28.232415" lon="-65.758885">
        <ele>842.4</ele>
        <time>2018-08-20T15:37:01Z</time>
      </trkpt>
      <trkpt lat="-28.232515" lon="-65.75891">
        <ele>842.6</ele>
        <time>2018-08-20T15:37:04Z</time>
      </trkpt>
      <trkpt lat="-28.232595" lon="-65.75894">
        <ele>842.7</ele>
        <time>2018-08-20T15:37:07Z</time>
      </trkpt>
      <trkpt lat="-28.23268" lon="-65.758995">
        <ele>842.8</ele>
        <time>2018-08-20T15:37:10Z</time>
      </trkpt>
      <trkpt lat="-28.232775" lon="-65.759055">
        <ele>842.8</ele>
        <time>2018-08-20T15:37:13Z</time>
      </trkpt>
      <trkpt lat="-28.23287" lon="-65.75911666666667">
        <ele>842.9</ele>
        <time>2018-08-20T15:37:16Z</time>
      </trkpt>
      <trkpt lat="-28.232935" lon="-65.75916666666667">
        <ele>843.3</ele>
        <time>2018-08-20T15:37:18Z</time>
      </trkpt>
      <trkpt lat="-28.233005" lon="-65.75923">
        <ele>843.2</ele>
        <time>2018-08-20T15:37:20Z</time>
      </trkpt>
      <trkpt lat="-28.233075" lon="-65.759285">
        <ele>843.1</ele>
        <time>2018-08-20T15:37:22Z</time>
      </trkpt>
      <trkpt lat="-28.233145" lon="-65.75933833333333">
        <ele>842.9</ele>
        <time>2018-08-20T15:37:24Z</time>
      </trkpt>
      <trkpt lat="-28.233221666666665" lon="-65.75939166666667">
        <ele>843.2</ele>
        <time>2018-08-20T15:37:27Z</time>
      </trkpt>
      <trkpt lat="-28.233285" lon="-65.75945">
        <ele>843.5</ele>
        <time>2018-08-20T15:37:29Z</time>
      </trkpt>
      <trkpt lat="-28.23335" lon="-65.759505">
        <ele>843.0</ele>
        <time>2018-08-20T15:37:31Z</time>
      </trkpt>
      <trkpt lat="-28.23344" lon="-65.75957">
        <ele>843.1</ele>
        <time>2018-08-20T15:37:34Z</time>
      </trkpt>
      <trkpt lat="-28.233525" lon="-65.759625">
        <ele>843.7</ele>
        <time>2018-08-20T15:37:37Z</time>
      </trkpt>
      <trkpt lat="-28.23359" lon="-65.75967">
        <ele>843.8</ele>
        <time>2018-08-20T15:37:39Z</time>
      </trkpt>
      <trkpt lat="-28.233665" lon="-65.75971">
        <ele>843.9</ele>
        <time>2018-08-20T15:37:41Z</time>
      </trkpt>
      <trkpt lat="-28.233735" lon="-65.759735">
        <ele>844.6</ele>
        <time>2018-08-20T15:37:43Z</time>
      </trkpt>
      <trkpt lat="-28.23382" lon="-65.75976">
        <ele>844.3</ele>
        <time>2018-08-20T15:37:45Z</time>
      </trkpt>
      <trkpt lat="-28.233895" lon="-65.759765">
        <ele>843.9</ele>
        <time>2018-08-20T15:37:47Z</time>
      </trkpt>
      <trkpt lat="-28.234" lon="-65.75977666666667">
        <ele>843.6</ele>
        <time>2018-08-20T15:37:50Z</time>
      </trkpt>
      <trkpt lat="-28.23408" lon="-65.75977666666667">
        <ele>843.5</ele>
        <time>2018-08-20T15:37:52Z</time>
      </trkpt>
      <trkpt lat="-28.23416" lon="-65.759765">
        <ele>843.7</ele>
        <time>2018-08-20T15:37:54Z</time>
      </trkpt>
      <trkpt lat="-28.23425" lon="-65.75976">
        <ele>844.2</ele>
        <time>2018-08-20T15:37:56Z</time>
      </trkpt>
      <trkpt lat="-28.23433" lon="-65.759735">
        <ele>844.3</ele>
        <time>2018-08-20T15:37:58Z</time>
      </trkpt>
      <trkpt lat="-28.23442" lon="-65.75969833333333">
        <ele>844.7</ele>
        <time>2018-08-20T15:38:01Z</time>
      </trkpt>
      <trkpt lat="-28.23452" lon="-65.75964833333333">
        <ele>845.7</ele>
        <time>2018-08-20T15:38:04Z</time>
      </trkpt>
      <trkpt lat="-28.234595" lon="-65.7596">
        <ele>846.8</ele>
        <time>2018-08-20T15:38:06Z</time>
      </trkpt>
      <trkpt lat="-28.234665" lon="-65.75955166666667">
        <ele>847.2</ele>
        <time>2018-08-20T15:38:08Z</time>
      </trkpt>
      <trkpt lat="-28.234735" lon="-65.7595">
        <ele>847.6</ele>
        <time>2018-08-20T15:38:10Z</time>
      </trkpt>
      <trkpt lat="-28.234795" lon="-65.759445">
        <ele>848.2</ele>
        <time>2018-08-20T15:38:12Z</time>
      </trkpt>
      <trkpt lat="-28.234846666666666" lon="-65.759375">
        <ele>848.1</ele>
        <time>2018-08-20T15:38:14Z</time>
      </trkpt>
      <trkpt lat="-28.2349" lon="-65.75931">
        <ele>848.1</ele>
        <time>2018-08-20T15:38:16Z</time>
      </trkpt>
      <trkpt lat="-28.234955" lon="-65.759235">
        <ele>848.2</ele>
        <time>2018-08-20T15:38:18Z</time>
      </trkpt>
      <trkpt lat="-28.235" lon="-65.75916">
        <ele>848.4</ele>
        <time>2018-08-20T15:38:20Z</time>
      </trkpt>
      <trkpt lat="-28.235035" lon="-65.759085">
        <ele>848.9</ele>
        <time>2018-08-20T15:38:22Z</time>
      </trkpt>
      <trkpt lat="-28.23508" lon="-65.75898">
        <ele>850.0</ele>
        <time>2018-08-20T15:38:24Z</time>
      </trkpt>
      <trkpt lat="-28.235115" lon="-65.75888833333333">
        <ele>850.9</ele>
        <time>2018-08-20T15:38:26Z</time>
      </trkpt>
      <trkpt lat="-28.23514" lon="-65.75881">
        <ele>851.2</ele>
        <time>2018-08-20T15:38:28Z</time>
      </trkpt>
      <trkpt lat="-28.23515" lon="-65.75872666666666">
        <ele>852.0</ele>
        <time>2018-08-20T15:38:30Z</time>
      </trkpt>
      <trkpt lat="-28.235165" lon="-65.75863">
        <ele>851.9</ele>
        <time>2018-08-20T15:38:32Z</time>
      </trkpt>
      <trkpt lat="-28.235175" lon="-65.758525">
        <ele>851.3</ele>
        <time>2018-08-20T15:38:34Z</time>
      </trkpt>
      <trkpt lat="-28.23518" lon="-65.758425">
        <ele>851.0</ele>
        <time>2018-08-20T15:38:36Z</time>
      </trkpt>
      <trkpt lat="-28.23518" lon="-65.75830500000001">
        <ele>851.3</ele>
        <time>2018-08-20T15:38:38Z</time>
      </trkpt>
      <trkpt lat="-28.23518" lon="-65.75819166666666">
        <ele>851.4</ele>
        <time>2018-08-20T15:38:40Z</time>
      </trkpt>
      <trkpt lat="-28.235175" lon="-65.75808">
        <ele>851.3</ele>
        <time>2018-08-20T15:38:42Z</time>
      </trkpt>
      <trkpt lat="-28.23517" lon="-65.757965">
        <ele>851.2</ele>
        <time>2018-08-20T15:38:44Z</time>
      </trkpt>
      <trkpt lat="-28.23517" lon="-65.757855">
        <ele>851.2</ele>
        <time>2018-08-20T15:38:46Z</time>
      </trkpt>
      <trkpt lat="-28.235165" lon="-65.75772333333333">
        <ele>851.1</ele>
        <time>2018-08-20T15:38:48Z</time>
      </trkpt>
      <trkpt lat="-28.235165" lon="-65.7576">
        <ele>851.1</ele>
        <time>2018-08-20T15:38:50Z</time>
      </trkpt>
      <trkpt lat="-28.23516" lon="-65.75747">
        <ele>850.9</ele>
        <time>2018-08-20T15:38:52Z</time>
      </trkpt>
      <trkpt lat="-28.23515" lon="-65.757335">
        <ele>850.6</ele>
        <time>2018-08-20T15:38:54Z</time>
      </trkpt>
      <trkpt lat="-28.23515" lon="-65.75718666666667">
        <ele>849.8</ele>
        <time>2018-08-20T15:38:56Z</time>
      </trkpt>
      <trkpt lat="-28.23515" lon="-65.757025">
        <ele>848.2</ele>
        <time>2018-08-20T15:38:58Z</time>
      </trkpt>
      <trkpt lat="-28.23515" lon="-65.756935">
        <ele>847.2</ele>
        <time>2018-08-20T15:38:59Z</time>
      </trkpt>
      <trkpt lat="-28.235165" lon="-65.75685">
        <ele>846.2</ele>
        <time>2018-08-20T15:39:00Z</time>
      </trkpt>
      <trkpt lat="-28.23518" lon="-65.756755">
        <ele>845.3</ele>
        <time>2018-08-20T15:39:01Z</time>
      </trkpt>
      <trkpt lat="-28.2352" lon="-65.75667">
        <ele>844.3</ele>
        <time>2018-08-20T15:39:02Z</time>
      </trkpt>
      <trkpt lat="-28.235225" lon="-65.75658">
        <ele>843.3</ele>
        <time>2018-08-20T15:39:03Z</time>
      </trkpt>
      <trkpt lat="-28.23527" lon="-65.756495">
        <ele>842.5</ele>
        <time>2018-08-20T15:39:04Z</time>
      </trkpt>
      <trkpt lat="-28.235315" lon="-65.75641">
        <ele>841.7</ele>
        <time>2018-08-20T15:39:05Z</time>
      </trkpt>
      <trkpt lat="-28.235365" lon="-65.756335">
        <ele>840.9</ele>
        <time>2018-08-20T15:39:06Z</time>
      </trkpt>
      <trkpt lat="-28.235415" lon="-65.75624666666667">
        <ele>840.3</ele>
        <time>2018-08-20T15:39:07Z</time>
      </trkpt>
      <trkpt lat="-28.235485" lon="-65.756175">
        <ele>839.8</ele>
        <time>2018-08-20T15:39:08Z</time>
      </trkpt>
      <trkpt lat="-28.23556" lon="-65.75611">
        <ele>839.2</ele>
        <time>2018-08-20T15:39:09Z</time>
      </trkpt>
      <trkpt lat="-28.23564" lon="-65.756055">
        <ele>838.6</ele>
        <time>2018-08-20T15:39:10Z</time>
      </trkpt>
      <trkpt lat="-28.235715" lon="-65.75601">
        <ele>838.1</ele>
        <time>2018-08-20T15:39:11Z</time>
      </trkpt>
      <trkpt lat="-28.235798333333335" lon="-65.755965">
        <ele>837.5</ele>
        <time>2018-08-20T15:39:12Z</time>
      </trkpt>
      <trkpt lat="-28.2359" lon="-65.75592">
        <ele>836.7</ele>
        <time>2018-08-20T15:39:13Z</time>
      </trkpt>
      <trkpt lat="-28.236005" lon="-65.7559">
        <ele>835.7</ele>
        <time>2018-08-20T15:39:14Z</time>
      </trkpt>
      <trkpt lat="-28.2361" lon="-65.755885">
        <ele>834.8</ele>
        <time>2018-08-20T15:39:15Z</time>
      </trkpt>
      <trkpt lat="-28.236188333333335" lon="-65.755885">
        <ele>834.1</ele>
        <time>2018-08-20T15:39:16Z</time>
      </trkpt>
      <trkpt lat="-28.23628" lon="-65.755885">
        <ele>833.5</ele>
        <time>2018-08-20T15:39:17Z</time>
      </trkpt>
      <trkpt lat="-28.236365" lon="-65.75589166666667">
        <ele>833.0</ele>
        <time>2018-08-20T15:39:18Z</time>
      </trkpt>
      <trkpt lat="-28.236445" lon="-65.75591">
        <ele>832.6</ele>
        <time>2018-08-20T15:39:19Z</time>
      </trkpt>
      <trkpt lat="-28.236525" lon="-65.75593">
        <ele>832.3</ele>
        <time>2018-08-20T15:39:20Z</time>
      </trkpt>
      <trkpt lat="-28.2366" lon="-65.755965">
        <ele>832.1</ele>
        <time>2018-08-20T15:39:21Z</time>
      </trkpt>
      <trkpt lat="-28.236725" lon="-65.756015">
        <ele>832.0</ele>
        <time>2018-08-20T15:39:23Z</time>
      </trkpt>
      <trkpt lat="-28.236835" lon="-65.75608">
        <ele>831.9</ele>
        <time>2018-08-20T15:39:25Z</time>
      </trkpt>
      <trkpt lat="-28.236955" lon="-65.756155">
        <ele>831.9</ele>
        <time>2018-08-20T15:39:27Z</time>
      </trkpt>
      <trkpt lat="-28.23707" lon="-65.756235">
        <ele>832.7</ele>
        <time>2018-08-20T15:39:29Z</time>
      </trkpt>
      <trkpt lat="-28.23719" lon="-65.756315">
        <ele>833.5</ele>
        <time>2018-08-20T15:39:31Z</time>
      </trkpt>
      <trkpt lat="-28.237305" lon="-65.75638000000001">
        <ele>833.6</ele>
        <time>2018-08-20T15:39:33Z</time>
      </trkpt>
      <trkpt lat="-28.23744" lon="-65.75646">
        <ele>832.8</ele>
        <time>2018-08-20T15:39:35Z</time>
      </trkpt>
      <trkpt lat="-28.237575" lon="-65.75652">
        <ele>831.5</ele>
        <time>2018-08-20T15:39:37Z</time>
      </trkpt>
      <trkpt lat="-28.237675" lon="-65.75658">
        <ele>830.3</ele>
        <time>2018-08-20T15:39:38Z</time>
      </trkpt>
      <trkpt lat="-28.237776666666665" lon="-65.75663">
        <ele>828.9</ele>
        <time>2018-08-20T15:39:39Z</time>
      </trkpt>
      <trkpt lat="-28.237875" lon="-65.75668">
        <ele>827.7</ele>
        <time>2018-08-20T15:39:40Z</time>
      </trkpt>
      <trkpt lat="-28.237968333333335" lon="-65.75672">
        <ele>826.5</ele>
        <time>2018-08-20T15:39:41Z</time>
      </trkpt>
      <trkpt lat="-28.238055" lon="-65.756755">
        <ele>825.5</ele>
        <time>2018-08-20T15:39:42Z</time>
      </trkpt>
      <trkpt lat="-28.238145" lon="-65.756785">
        <ele>824.8</ele>
        <time>2018-08-20T15:39:43Z</time>
      </trkpt>
      <trkpt lat="-28.238228333333332" lon="-65.75681333333333">
        <ele>824.0</ele>
        <time>2018-08-20T15:39:44Z</time>
      </trkpt>
      <trkpt lat="-28.238338333333335" lon="-65.756855">
        <ele>822.9</ele>
        <time>2018-08-20T15:39:45Z</time>
      </trkpt>
      <trkpt lat="-28.23843" lon="-65.75687">
        <ele>822.0</ele>
        <time>2018-08-20T15:39:46Z</time>
      </trkpt>
      <trkpt lat="-28.23852" lon="-65.756885">
        <ele>821.2</ele>
        <time>2018-08-20T15:39:47Z</time>
      </trkpt>
      <trkpt lat="-28.238625" lon="-65.756905">
        <ele>820.5</ele>
        <time>2018-08-20T15:39:48Z</time>
      </trkpt>
      <trkpt lat="-28.238718333333335" lon="-65.756905">
        <ele>819.9</ele>
        <time>2018-08-20T15:39:49Z</time>
      </trkpt>
      <trkpt lat="-28.238831666666666" lon="-65.756885">
        <ele>819.3</ele>
        <time>2018-08-20T15:39:50Z</time>
      </trkpt>
      <trkpt lat="-28.238935" lon="-65.75686">
        <ele>818.9</ele>
        <time>2018-08-20T15:39:51Z</time>
      </trkpt>
      <trkpt lat="-28.23904" lon="-65.75682833333333">
        <ele>818.5</ele>
        <time>2018-08-20T15:39:52Z</time>
      </trkpt>
      <trkpt lat="-28.23913" lon="-65.75678666666667">
        <ele>818.3</ele>
        <time>2018-08-20T15:39:53Z</time>
      </trkpt>
      <trkpt lat="-28.23921" lon="-65.75674166666667">
        <ele>818.3</ele>
        <time>2018-08-20T15:39:54Z</time>
      </trkpt>
      <trkpt lat="-28.2393" lon="-65.75667">
        <ele>818.2</ele>
        <time>2018-08-20T15:39:55Z</time>
      </trkpt>
      <trkpt lat="-28.2394" lon="-65.75658">
        <ele>818.1</ele>
        <time>2018-08-20T15:39:56Z</time>
      </trkpt>
      <trkpt lat="-28.23949" lon="-65.75649">
        <ele>818.0</ele>
        <time>2018-08-20T15:39:57Z</time>
      </trkpt>
      <trkpt lat="-28.23957" lon="-65.75638666666667">
        <ele>817.9</ele>
        <time>2018-08-20T15:39:58Z</time>
      </trkpt>
      <trkpt lat="-28.239635" lon="-65.75629">
        <ele>817.6</ele>
        <time>2018-08-20T15:39:59Z</time>
      </trkpt>
      <trkpt lat="-28.23968" lon="-65.756185">
        <ele>817.3</ele>
        <time>2018-08-20T15:40:00Z</time>
      </trkpt>
      <trkpt lat="-28.23973" lon="-65.75606833333333">
        <ele>816.9</ele>
        <time>2018-08-20T15:40:01Z</time>
      </trkpt>
      <trkpt lat="-28.23977" lon="-65.75596">
        <ele>816.6</ele>
        <time>2018-08-20T15:40:02Z</time>
      </trkpt>
      <trkpt lat="-28.23981" lon="-65.75584666666667">
        <ele>816.2</ele>
        <time>2018-08-20T15:40:03Z</time>
      </trkpt>
      <trkpt lat="-28.23985" lon="-65.755735">
        <ele>816.0</ele>
        <time>2018-08-20T15:40:04Z</time>
      </trkpt>
      <trkpt lat="-28.239885" lon="-65.75563">
        <ele>816.1</ele>
        <time>2018-08-20T15:40:05Z</time>
      </trkpt>
      <trkpt lat="-28.23992" lon="-65.755525">
        <ele>816.2</ele>
        <time>2018-08-20T15:40:06Z</time>
      </trkpt>
      <trkpt lat="-28.23995" lon="-65.755435">
        <ele>816.4</ele>
        <time>2018-08-20T15:40:07Z</time>
      </trkpt>
      <trkpt lat="-28.23999" lon="-65.755305">
        <ele>816.7</ele>
        <time>2018-08-20T15:40:09Z</time>
      </trkpt>
      <trkpt lat="-28.240015" lon="-65.75522166666667">
        <ele>816.8</ele>
        <time>2018-08-20T15:40:11Z</time>
      </trkpt>
      <trkpt lat="-28.239963333333332" lon="-65.7552">
        <ele>816.5</ele>
        <time>2018-08-20T15:40:18Z</time>
      </trkpt>
      <trkpt lat="-28.23996" lon="-65.75529">
        <ele>816.1</ele>
        <time>2018-08-20T15:40:22Z</time>
      </trkpt>
      <trkpt lat="-28.239938333333335" lon="-65.755375">
        <ele>815.8</ele>
        <time>2018-08-20T15:40:25Z</time>
      </trkpt>
      <trkpt lat="-28.239925" lon="-65.75546166666666">
        <ele>815.5</ele>
        <time>2018-08-20T15:40:29Z</time>
      </trkpt>
      <trkpt lat="-28.239955" lon="-65.75557">
        <ele>815.1</ele>
        <time>2018-08-20T15:40:35Z</time>
      </trkpt>
      <trkpt lat="-28.239985" lon="-65.75566">
        <ele>814.6</ele>
        <time>2018-08-20T15:40:39Z</time>
      </trkpt>
      <trkpt lat="-28.24004" lon="-65.75573">
        <ele>813.3</ele>
        <time>2018-08-20T15:40:46Z</time>
      </trkpt>
      <trkpt lat="-28.240076666666667" lon="-65.755745">
        <ele>812.4</ele>
        <time>2018-08-20T15:40:53Z</time>
      </trkpt>
      <trkpt lat="-28.240076666666667" lon="-65.755745">
        <ele>811.9</ele>
        <time>2018-08-20T15:40:57Z</time>
      </trkpt>
      <trkpt lat="-28.24011" lon="-65.75576">
        <ele>806.5</ele>
        <time>2018-08-20T15:45:15Z</time>
      </trkpt>
      <trkpt lat="-28.24011" lon="-65.75576">
        <ele>806.6</ele>
        <time>2018-08-20T15:45:22Z</time>
      </trkpt>
      <trkpt lat="-28.24009" lon="-65.75575666666667">
        <ele>810.5</ele>
        <time>2018-08-20T15:47:18Z</time>
      </trkpt>
      <trkpt lat="-28.24009" lon="-65.75575666666667">
        <ele>810.5</ele>
        <time>2018-08-20T15:47:19Z</time>
      </trkpt>
      <trkpt lat="-28.240081666666665" lon="-65.755725">
        <ele>816.1</ele>
        <time>2018-08-20T15:55:32Z</time>
      </trkpt>
      <trkpt lat="-28.240055" lon="-65.75565">
        <ele>816.4</ele>
        <time>2018-08-20T15:55:36Z</time>
      </trkpt>
      <trkpt lat="-28.240005" lon="-65.75556">
        <ele>816.7</ele>
        <time>2018-08-20T15:55:40Z</time>
      </trkpt>
      <trkpt lat="-28.23998" lon="-65.75547">
        <ele>816.7</ele>
        <time>2018-08-20T15:55:45Z</time>
      </trkpt>
      <trkpt lat="-28.23998" lon="-65.75537">
        <ele>816.5</ele>
        <time>2018-08-20T15:55:48Z</time>
      </trkpt>
      <trkpt lat="-28.240006666666666" lon="-65.75526333333333">
        <ele>816.2</ele>
        <time>2018-08-20T15:55:51Z</time>
      </trkpt>
      <trkpt lat="-28.24004" lon="-65.75515">
        <ele>815.7</ele>
        <time>2018-08-20T15:55:54Z</time>
      </trkpt>
      <trkpt lat="-28.240065" lon="-65.75507">
        <ele>815.2</ele>
        <time>2018-08-20T15:55:56Z</time>
      </trkpt>
      <trkpt lat="-28.24009" lon="-65.75498">
        <ele>814.9</ele>
        <time>2018-08-20T15:55:58Z</time>
      </trkpt>
      <trkpt lat="-28.240118333333335" lon="-65.75489">
        <ele>814.8</ele>
        <time>2018-08-20T15:56:00Z</time>
      </trkpt>
      <trkpt lat="-28.24015" lon="-65.754805">
        <ele>814.7</ele>
        <time>2018-08-20T15:56:02Z</time>
      </trkpt>
      <trkpt lat="-28.240175" lon="-65.75472">
        <ele>814.4</ele>
        <time>2018-08-20T15:56:04Z</time>
      </trkpt>
      <trkpt lat="-28.240196666666666" lon="-65.75462666666667">
        <ele>814.0</ele>
        <time>2018-08-20T15:56:06Z</time>
      </trkpt>
      <trkpt lat="-28.240225" lon="-65.754535">
        <ele>813.6</ele>
        <time>2018-08-20T15:56:08Z</time>
      </trkpt>
      <trkpt lat="-28.240255" lon="-65.754445">
        <ele>813.1</ele>
        <time>2018-08-20T15:56:10Z</time>
      </trkpt>
      <trkpt lat="-28.240285" lon="-65.754345">
        <ele>812.7</ele>
        <time>2018-08-20T15:56:12Z</time>
      </trkpt>
      <trkpt lat="-28.240308333333335" lon="-65.754265">
        <ele>812.4</ele>
        <time>2018-08-20T15:56:14Z</time>
      </trkpt>
      <trkpt lat="-28.24034" lon="-65.75417833333333">
        <ele>812.0</ele>
        <time>2018-08-20T15:56:16Z</time>
      </trkpt>
      <trkpt lat="-28.24037" lon="-65.75409666666667">
        <ele>811.8</ele>
        <time>2018-08-20T15:56:18Z</time>
      </trkpt>
      <trkpt lat="-28.240405" lon="-65.75401333333333">
        <ele>811.7</ele>
        <time>2018-08-20T15:56:20Z</time>
      </trkpt>
      <trkpt lat="-28.240445" lon="-65.753915">
        <ele>811.8</ele>
        <time>2018-08-20T15:56:23Z</time>
      </trkpt>
      <trkpt lat="-28.24049" lon="-65.753815">
        <ele>811.8</ele>
        <time>2018-08-20T15:56:26Z</time>
      </trkpt>
      <trkpt lat="-28.24054" lon="-65.753715">
        <ele>811.9</ele>
        <time>2018-08-20T15:56:29Z</time>
      </trkpt>
      <trkpt lat="-28.2406" lon="-65.75363">
        <ele>811.9</ele>
        <time>2018-08-20T15:56:32Z</time>
      </trkpt>
      <trkpt lat="-28.240645" lon="-65.75355833333333">
        <ele>811.9</ele>
        <time>2018-08-20T15:56:35Z</time>
      </trkpt>
      <trkpt lat="-28.240705" lon="-65.75349">
        <ele>812.1</ele>
        <time>2018-08-20T15:56:38Z</time>
      </trkpt>
      <trkpt lat="-28.240765" lon="-65.75342833333333">
        <ele>812.3</ele>
        <time>2018-08-20T15:56:41Z</time>
      </trkpt>
      <trkpt lat="-28.24083" lon="-65.753365">
        <ele>812.5</ele>
        <time>2018-08-20T15:56:45Z</time>
      </trkpt>
      <trkpt lat="-28.240895" lon="-65.753305">
        <ele>812.8</ele>
        <time>2018-08-20T15:56:49Z</time>
      </trkpt>
      <trkpt lat="-28.24097" lon="-65.753245">
        <ele>813.1</ele>
        <time>2018-08-20T15:56:53Z</time>
      </trkpt>
      <trkpt lat="-28.24104" lon="-65.75319">
        <ele>813.4</ele>
        <time>2018-08-20T15:56:58Z</time>
      </trkpt>
      <trkpt lat="-28.24111" lon="-65.75314">
        <ele>813.7</ele>
        <time>2018-08-20T15:57:04Z</time>
      </trkpt>
      <trkpt lat="-28.24118" lon="-65.753095">
        <ele>814.0</ele>
        <time>2018-08-20T15:57:09Z</time>
      </trkpt>
      <trkpt lat="-28.24126" lon="-65.75305">
        <ele>814.3</ele>
        <time>2018-08-20T15:57:13Z</time>
      </trkpt>
      <trkpt lat="-28.24135" lon="-65.753015">
        <ele>814.6</ele>
        <time>2018-08-20T15:57:17Z</time>
      </trkpt>
      <trkpt lat="-28.241425" lon="-65.75298666666667">
        <ele>815.0</ele>
        <time>2018-08-20T15:57:21Z</time>
      </trkpt>
      <trkpt lat="-28.2415" lon="-65.752965">
        <ele>815.3</ele>
        <time>2018-08-20T15:57:25Z</time>
      </trkpt>
      <trkpt lat="-28.241575" lon="-65.752945">
        <ele>815.5</ele>
        <time>2018-08-20T15:57:29Z</time>
      </trkpt>
      <trkpt lat="-28.24165" lon="-65.75292">
        <ele>815.6</ele>
        <time>2018-08-20T15:57:32Z</time>
      </trkpt>
      <trkpt lat="-28.24173" lon="-65.7529">
        <ele>815.9</ele>
        <time>2018-08-20T15:57:36Z</time>
      </trkpt>
      <trkpt lat="-28.24182" lon="-65.75287">
        <ele>816.1</ele>
        <time>2018-08-20T15:57:40Z</time>
      </trkpt>
      <trkpt lat="-28.241905" lon="-65.752835">
        <ele>816.4</ele>
        <time>2018-08-20T15:57:44Z</time>
      </trkpt>
      <trkpt lat="-28.24199" lon="-65.752815">
        <ele>816.6</ele>
        <time>2018-08-20T15:57:47Z</time>
      </trkpt>
      <trkpt lat="-28.24208" lon="-65.75279">
        <ele>816.9</ele>
        <time>2018-08-20T15:57:50Z</time>
      </trkpt>
      <trkpt lat="-28.24216" lon="-65.75276">
        <ele>817.2</ele>
        <time>2018-08-20T15:57:53Z</time>
      </trkpt>
      <trkpt lat="-28.24225" lon="-65.75274">
        <ele>817.5</ele>
        <time>2018-08-20T15:57:56Z</time>
      </trkpt>
      <trkpt lat="-28.24235" lon="-65.75270833333333">
        <ele>817.8</ele>
        <time>2018-08-20T15:57:59Z</time>
      </trkpt>
      <trkpt lat="-28.242425" lon="-65.752695">
        <ele>819.7</ele>
        <time>2018-08-20T15:58:01Z</time>
      </trkpt>
      <trkpt lat="-28.242511666666665" lon="-65.752685">
        <ele>820.6</ele>
        <time>2018-08-20T15:58:03Z</time>
      </trkpt>
      <trkpt lat="-28.2426" lon="-65.752675">
        <ele>820.5</ele>
        <time>2018-08-20T15:58:05Z</time>
      </trkpt>
      <trkpt lat="-28.242685" lon="-65.752665">
        <ele>820.5</ele>
        <time>2018-08-20T15:58:07Z</time>
      </trkpt>
      <trkpt lat="-28.242765" lon="-65.75266666666667">
        <ele>820.3</ele>
        <time>2018-08-20T15:58:09Z</time>
      </trkpt>
      <trkpt lat="-28.242843333333333" lon="-65.752675">
        <ele>819.7</ele>
        <time>2018-08-20T15:58:11Z</time>
      </trkpt>
      <trkpt lat="-28.24294" lon="-65.752695">
        <ele>819.2</ele>
        <time>2018-08-20T15:58:13Z</time>
      </trkpt>
      <trkpt lat="-28.24303" lon="-65.75272">
        <ele>818.8</ele>
        <time>2018-08-20T15:58:15Z</time>
      </trkpt>
      <trkpt lat="-28.243135" lon="-65.75275">
        <ele>818.5</ele>
        <time>2018-08-20T15:58:17Z</time>
      </trkpt>
      <trkpt lat="-28.24324" lon="-65.752785">
        <ele>818.4</ele>
        <time>2018-08-20T15:58:19Z</time>
      </trkpt>
      <trkpt lat="-28.243355" lon="-65.75283">
        <ele>818.2</ele>
        <time>2018-08-20T15:58:21Z</time>
      </trkpt>
      <trkpt lat="-28.243475" lon="-65.75287">
        <ele>817.7</ele>
        <time>2018-08-20T15:58:23Z</time>
      </trkpt>
      <trkpt lat="-28.24359" lon="-65.75293333333333">
        <ele>817.1</ele>
        <time>2018-08-20T15:58:25Z</time>
      </trkpt>
      <trkpt lat="-28.243655" lon="-65.752975">
        <ele>816.6</ele>
        <time>2018-08-20T15:58:26Z</time>
      </trkpt>
      <trkpt lat="-28.24372" lon="-65.75301">
        <ele>816.0</ele>
        <time>2018-08-20T15:58:27Z</time>
      </trkpt>
      <trkpt lat="-28.243791666666667" lon="-65.75304">
        <ele>815.4</ele>
        <time>2018-08-20T15:58:28Z</time>
      </trkpt>
      <trkpt lat="-28.243875" lon="-65.75307">
        <ele>814.8</ele>
        <time>2018-08-20T15:58:29Z</time>
      </trkpt>
      <trkpt lat="-28.243965" lon="-65.7531">
        <ele>814.2</ele>
        <time>2018-08-20T15:58:30Z</time>
      </trkpt>
      <trkpt lat="-28.244056666666665" lon="-65.753135">
        <ele>813.2</ele>
        <time>2018-08-20T15:58:31Z</time>
      </trkpt>
      <trkpt lat="-28.24416" lon="-65.753155">
        <ele>812.1</ele>
        <time>2018-08-20T15:58:32Z</time>
      </trkpt>
      <trkpt lat="-28.244256666666665" lon="-65.75317">
        <ele>811.2</ele>
        <time>2018-08-20T15:58:33Z</time>
      </trkpt>
      <trkpt lat="-28.244361666666666" lon="-65.75318">
        <ele>810.7</ele>
        <time>2018-08-20T15:58:35Z</time>
      </trkpt>
      <trkpt lat="-28.24447" lon="-65.75318">
        <ele>810.1</ele>
        <time>2018-08-20T15:58:35Z</time>
      </trkpt>
      <trkpt lat="-28.244575" lon="-65.75318">
        <ele>809.2</ele>
        <time>2018-08-20T15:58:36Z</time>
      </trkpt>
      <trkpt lat="-28.24468" lon="-65.75317">
        <ele>808.4</ele>
        <time>2018-08-20T15:58:37Z</time>
      </trkpt>
      <trkpt lat="-28.244776666666667" lon="-65.753155">
        <ele>807.5</ele>
        <time>2018-08-20T15:58:38Z</time>
      </trkpt>
      <trkpt lat="-28.244888333333332" lon="-65.753125">
        <ele>806.5</ele>
        <time>2018-08-20T15:58:39Z</time>
      </trkpt>
      <trkpt lat="-28.245001666666667" lon="-65.7531">
        <ele>805.6</ele>
        <time>2018-08-20T15:58:40Z</time>
      </trkpt>
      <trkpt lat="-28.24513" lon="-65.753065">
        <ele>804.5</ele>
        <time>2018-08-20T15:58:41Z</time>
      </trkpt>
      <trkpt lat="-28.245255" lon="-65.753025">
        <ele>803.8</ele>
        <time>2018-08-20T15:58:42Z</time>
      </trkpt>
      <trkpt lat="-28.245375" lon="-65.75298166666667">
        <ele>803.4</ele>
        <time>2018-08-20T15:58:43Z</time>
      </trkpt>
      <trkpt lat="-28.2455" lon="-65.75293666666667">
        <ele>803.1</ele>
        <time>2018-08-20T15:58:44Z</time>
      </trkpt>
      <trkpt lat="-28.24562" lon="-65.75288833333333">
        <ele>803.1</ele>
        <time>2018-08-20T15:58:45Z</time>
      </trkpt>
      <trkpt lat="-28.24574" lon="-65.75284">
        <ele>803.2</ele>
        <time>2018-08-20T15:58:46Z</time>
      </trkpt>
      <trkpt lat="-28.24586" lon="-65.75279">
        <ele>803.6</ele>
        <time>2018-08-20T15:58:47Z</time>
      </trkpt>
      <trkpt lat="-28.245985" lon="-65.75274333333333">
        <ele>803.8</ele>
        <time>2018-08-20T15:58:48Z</time>
      </trkpt>
      <trkpt lat="-28.246105" lon="-65.752695">
        <ele>804.0</ele>
        <time>2018-08-20T15:58:49Z</time>
      </trkpt>
      <trkpt lat="-28.24621" lon="-65.75264833333334">
        <ele>803.8</ele>
        <time>2018-08-20T15:58:50Z</time>
      </trkpt>
      <trkpt lat="-28.24631" lon="-65.75261">
        <ele>803.2</ele>
        <time>2018-08-20T15:58:51Z</time>
      </trkpt>
      <trkpt lat="-28.246406666666665" lon="-65.75257">
        <ele>802.5</ele>
        <time>2018-08-20T15:58:52Z</time>
      </trkpt>
      <trkpt lat="-28.24651" lon="-65.75252833333333">
        <ele>801.7</ele>
        <time>2018-08-20T15:58:53Z</time>
      </trkpt>
      <trkpt lat="-28.246615" lon="-65.75249">
        <ele>801.1</ele>
        <time>2018-08-20T15:58:54Z</time>
      </trkpt>
      <trkpt lat="-28.24671" lon="-65.75244833333333">
        <ele>800.7</ele>
        <time>2018-08-20T15:58:55Z</time>
      </trkpt>
      <trkpt lat="-28.24681" lon="-65.75242">
        <ele>800.3</ele>
        <time>2018-08-20T15:58:56Z</time>
      </trkpt>
      <trkpt lat="-28.2469" lon="-65.752385">
        <ele>800.0</ele>
        <time>2018-08-20T15:58:57Z</time>
      </trkpt>
      <trkpt lat="-28.246985" lon="-65.752345">
        <ele>800.1</ele>
        <time>2018-08-20T15:58:58Z</time>
      </trkpt>
      <trkpt lat="-28.247065" lon="-65.75232">
        <ele>800.5</ele>
        <time>2018-08-20T15:58:59Z</time>
      </trkpt>
      <trkpt lat="-28.247145" lon="-65.75229">
        <ele>800.9</ele>
        <time>2018-08-20T15:59:00Z</time>
      </trkpt>
      <trkpt lat="-28.24721" lon="-65.752255">
        <ele>801.0</ele>
        <time>2018-08-20T15:59:01Z</time>
      </trkpt>
      <trkpt lat="-28.24733" lon="-65.752205">
        <ele>800.6</ele>
        <time>2018-08-20T15:59:03Z</time>
      </trkpt>
      <trkpt lat="-28.247435" lon="-65.75216">
        <ele>800.3</ele>
        <time>2018-08-20T15:59:05Z</time>
      </trkpt>
      <trkpt lat="-28.247515" lon="-65.75212166666667">
        <ele>800.3</ele>
        <time>2018-08-20T15:59:07Z</time>
      </trkpt>
      <trkpt lat="-28.2476" lon="-65.752095">
        <ele>800.7</ele>
        <time>2018-08-20T15:59:09Z</time>
      </trkpt>
      <trkpt lat="-28.247685" lon="-65.752055">
        <ele>801.1</ele>
        <time>2018-08-20T15:59:11Z</time>
      </trkpt>
      <trkpt lat="-28.24778" lon="-65.75202">
        <ele>802.4</ele>
        <time>2018-08-20T15:59:13Z</time>
      </trkpt>
      <trkpt lat="-28.247865" lon="-65.75199">
        <ele>803.2</ele>
        <time>2018-08-20T15:59:15Z</time>
      </trkpt>
      <trkpt lat="-28.247935" lon="-65.75197">
        <ele>803.8</ele>
        <time>2018-08-20T15:59:17Z</time>
      </trkpt>
      <trkpt lat="-28.248015" lon="-65.751935">
        <ele>804.2</ele>
        <time>2018-08-20T15:59:19Z</time>
      </trkpt>
      <trkpt lat="-28.2481" lon="-65.75189666666667">
        <ele>804.3</ele>
        <time>2018-08-20T15:59:21Z</time>
      </trkpt>
      <trkpt lat="-28.248170000000002" lon="-65.75187">
        <ele>805.1</ele>
        <time>2018-08-20T15:59:23Z</time>
      </trkpt>
      <trkpt lat="-28.24825" lon="-65.75183">
        <ele>806.0</ele>
        <time>2018-08-20T15:59:25Z</time>
      </trkpt>
      <trkpt lat="-28.248336666666667" lon="-65.751765">
        <ele>806.3</ele>
        <time>2018-08-20T15:59:28Z</time>
      </trkpt>
      <trkpt lat="-28.24843" lon="-65.7517">
        <ele>806.5</ele>
        <time>2018-08-20T15:59:31Z</time>
      </trkpt>
      <trkpt lat="-28.24849" lon="-65.75165">
        <ele>806.6</ele>
        <time>2018-08-20T15:59:33Z</time>
      </trkpt>
      <trkpt lat="-28.24854" lon="-65.75158666666667">
        <ele>806.8</ele>
        <time>2018-08-20T15:59:35Z</time>
      </trkpt>
      <trkpt lat="-28.248595" lon="-65.75153">
        <ele>806.9</ele>
        <time>2018-08-20T15:59:37Z</time>
      </trkpt>
      <trkpt lat="-28.248665" lon="-65.751435">
        <ele>806.8</ele>
        <time>2018-08-20T15:59:40Z</time>
      </trkpt>
      <trkpt lat="-28.248725" lon="-65.751335">
        <ele>806.3</ele>
        <time>2018-08-20T15:59:43Z</time>
      </trkpt>
      <trkpt lat="-28.248765" lon="-65.75125">
        <ele>805.7</ele>
        <time>2018-08-20T15:59:45Z</time>
      </trkpt>
      <trkpt lat="-28.2488" lon="-65.75117">
        <ele>804.6</ele>
        <time>2018-08-20T15:59:47Z</time>
      </trkpt>
      <trkpt lat="-28.24883" lon="-65.75107166666666">
        <ele>804.5</ele>
        <time>2018-08-20T15:59:49Z</time>
      </trkpt>
      <trkpt lat="-28.24886" lon="-65.75097666666667">
        <ele>805.0</ele>
        <time>2018-08-20T15:59:51Z</time>
      </trkpt>
      <trkpt lat="-28.24888" lon="-65.750885">
        <ele>805.4</ele>
        <time>2018-08-20T15:59:53Z</time>
      </trkpt>
      <trkpt lat="-28.248885" lon="-65.75078666666667">
        <ele>805.0</ele>
        <time>2018-08-20T15:59:55Z</time>
      </trkpt>
      <trkpt lat="-28.248885" lon="-65.750665">
        <ele>803.2</ele>
        <time>2018-08-20T15:59:58Z</time>
      </trkpt>
      <trkpt lat="-28.248873333333332" lon="-65.75058">
        <ele>802.3</ele>
        <time>2018-08-20T16:00:00Z</time>
      </trkpt>
      <trkpt lat="-28.248865" lon="-65.75046">
        <ele>802.3</ele>
        <time>2018-08-20T16:00:03Z</time>
      </trkpt>
      <trkpt lat="-28.248855" lon="-65.75037833333333">
        <ele>802.2</ele>
        <time>2018-08-20T16:00:05Z</time>
      </trkpt>
      <trkpt lat="-28.248836666666666" lon="-65.750295">
        <ele>802.2</ele>
        <time>2018-08-20T16:00:07Z</time>
      </trkpt>
      <trkpt lat="-28.248815" lon="-65.75018">
        <ele>802.3</ele>
        <time>2018-08-20T16:00:10Z</time>
      </trkpt>
      <trkpt lat="-28.248775" lon="-65.750065">
        <ele>802.3</ele>
        <time>2018-08-20T16:00:13Z</time>
      </trkpt>
      <trkpt lat="-28.248745" lon="-65.749965">
        <ele>802.3</ele>
        <time>2018-08-20T16:00:16Z</time>
      </trkpt>
      <trkpt lat="-28.248705" lon="-65.74986">
        <ele>802.4</ele>
        <time>2018-08-20T16:00:19Z</time>
      </trkpt>
      <trkpt lat="-28.24867" lon="-65.749765">
        <ele>802.5</ele>
        <time>2018-08-20T16:00:22Z</time>
      </trkpt>
      <trkpt lat="-28.24864" lon="-65.749675">
        <ele>802.6</ele>
        <time>2018-08-20T16:00:25Z</time>
      </trkpt>
      <trkpt lat="-28.2486" lon="-65.74957666666667">
        <ele>802.7</ele>
        <time>2018-08-20T16:00:29Z</time>
      </trkpt>
      <trkpt lat="-28.248575" lon="-65.74949166666667">
        <ele>802.8</ele>
        <time>2018-08-20T16:00:32Z</time>
      </trkpt>
      <trkpt lat="-28.24854" lon="-65.74939666666667">
        <ele>802.9</ele>
        <time>2018-08-20T16:00:36Z</time>
      </trkpt>
      <trkpt lat="-28.248515" lon="-65.74931166666667">
        <ele>803.1</ele>
        <time>2018-08-20T16:00:40Z</time>
      </trkpt>
      <trkpt lat="-28.24848" lon="-65.74922166666667">
        <ele>803.3</ele>
        <time>2018-08-20T16:00:45Z</time>
      </trkpt>
      <trkpt lat="-28.248455" lon="-65.74913">
        <ele>803.5</ele>
        <time>2018-08-20T16:00:49Z</time>
      </trkpt>
      <trkpt lat="-28.24842" lon="-65.74903833333333">
        <ele>803.8</ele>
        <time>2018-08-20T16:00:53Z</time>
      </trkpt>
      <trkpt lat="-28.248386666666665" lon="-65.74896">
        <ele>804.0</ele>
        <time>2018-08-20T16:00:57Z</time>
      </trkpt>
      <trkpt lat="-28.24836" lon="-65.748875">
        <ele>804.2</ele>
        <time>2018-08-20T16:01:01Z</time>
      </trkpt>
      <trkpt lat="-28.24833" lon="-65.74877166666667">
        <ele>804.5</ele>
        <time>2018-08-20T16:01:05Z</time>
      </trkpt>
      <trkpt lat="-28.2483" lon="-65.748675">
        <ele>804.7</ele>
        <time>2018-08-20T16:01:09Z</time>
      </trkpt>
      <trkpt lat="-28.24828" lon="-65.748585">
        <ele>805.0</ele>
        <time>2018-08-20T16:01:13Z</time>
      </trkpt>
      <trkpt lat="-28.248265" lon="-65.74848">
        <ele>805.4</ele>
        <time>2018-08-20T16:01:17Z</time>
      </trkpt>
      <trkpt lat="-28.24825" lon="-65.74838">
        <ele>805.8</ele>
        <time>2018-08-20T16:01:21Z</time>
      </trkpt>
      <trkpt lat="-28.248231666666666" lon="-65.748275">
        <ele>806.2</ele>
        <time>2018-08-20T16:01:25Z</time>
      </trkpt>
      <trkpt lat="-28.248223333333332" lon="-65.74817">
        <ele>806.5</ele>
        <time>2018-08-20T16:01:29Z</time>
      </trkpt>
      <trkpt lat="-28.248221666666666" lon="-65.748085">
        <ele>806.7</ele>
        <time>2018-08-20T16:01:32Z</time>
      </trkpt>
      <trkpt lat="-28.248221666666666" lon="-65.747995">
        <ele>806.8</ele>
        <time>2018-08-20T16:01:35Z</time>
      </trkpt>
      <trkpt lat="-28.24823" lon="-65.74791166666667">
        <ele>807.0</ele>
        <time>2018-08-20T16:01:38Z</time>
      </trkpt>
      <trkpt lat="-28.24823" lon="-65.747825">
        <ele>807.2</ele>
        <time>2018-08-20T16:01:41Z</time>
      </trkpt>
      <trkpt lat="-28.248245" lon="-65.74772666666667">
        <ele>807.5</ele>
        <time>2018-08-20T16:01:44Z</time>
      </trkpt>
      <trkpt lat="-28.24826" lon="-65.74764">
        <ele>807.9</ele>
        <time>2018-08-20T16:01:47Z</time>
      </trkpt>
      <trkpt lat="-28.24828" lon="-65.747545">
        <ele>808.4</ele>
        <time>2018-08-20T16:01:50Z</time>
      </trkpt>
      <trkpt lat="-28.24831" lon="-65.74744">
        <ele>808.9</ele>
        <time>2018-08-20T16:01:53Z</time>
      </trkpt>
      <trkpt lat="-28.248355" lon="-65.74733">
        <ele>809.4</ele>
        <time>2018-08-20T16:01:56Z</time>
      </trkpt>
      <trkpt lat="-28.2484" lon="-65.747235">
        <ele>809.9</ele>
        <time>2018-08-20T16:01:59Z</time>
      </trkpt>
      <trkpt lat="-28.24845" lon="-65.74714">
        <ele>810.3</ele>
        <time>2018-08-20T16:02:02Z</time>
      </trkpt>
      <trkpt lat="-28.24849" lon="-65.747065">
        <ele>811.6</ele>
        <time>2018-08-20T16:02:04Z</time>
      </trkpt>
      <trkpt lat="-28.248526666666667" lon="-65.747">
        <ele>813.3</ele>
        <time>2018-08-20T16:02:06Z</time>
      </trkpt>
      <trkpt lat="-28.24858" lon="-65.74693">
        <ele>814.0</ele>
        <time>2018-08-20T16:02:08Z</time>
      </trkpt>
      <trkpt lat="-28.248625" lon="-65.74687">
        <ele>814.6</ele>
        <time>2018-08-20T16:02:10Z</time>
      </trkpt>
      <trkpt lat="-28.248695" lon="-65.74678">
        <ele>813.8</ele>
        <time>2018-08-20T16:02:13Z</time>
      </trkpt>
      <trkpt lat="-28.24875" lon="-65.74672">
        <ele>813.8</ele>
        <time>2018-08-20T16:02:15Z</time>
      </trkpt>
      <trkpt lat="-28.248815" lon="-65.746655">
        <ele>813.8</ele>
        <time>2018-08-20T16:02:17Z</time>
      </trkpt>
      <trkpt lat="-28.24889" lon="-65.746595">
        <ele>814.0</ele>
        <time>2018-08-20T16:02:19Z</time>
      </trkpt>
      <trkpt lat="-28.248955" lon="-65.74655">
        <ele>813.7</ele>
        <time>2018-08-20T16:02:21Z</time>
      </trkpt>
      <trkpt lat="-28.249035" lon="-65.74649333333333">
        <ele>812.8</ele>
        <time>2018-08-20T16:02:23Z</time>
      </trkpt>
      <trkpt lat="-28.24913" lon="-65.74643">
        <ele>812.4</ele>
        <time>2018-08-20T16:02:25Z</time>
      </trkpt>
      <trkpt lat="-28.24925" lon="-65.74636">
        <ele>812.7</ele>
        <time>2018-08-20T16:02:27Z</time>
      </trkpt>
      <trkpt lat="-28.249355" lon="-65.746305">
        <ele>813.2</ele>
        <time>2018-08-20T16:02:29Z</time>
      </trkpt>
      <trkpt lat="-28.24946" lon="-65.74625">
        <ele>813.6</ele>
        <time>2018-08-20T16:02:31Z</time>
      </trkpt>
      <trkpt lat="-28.24957" lon="-65.746195">
        <ele>813.4</ele>
        <time>2018-08-20T16:02:33Z</time>
      </trkpt>
      <trkpt lat="-28.24969" lon="-65.74612833333333">
        <ele>813.2</ele>
        <time>2018-08-20T16:02:35Z</time>
      </trkpt>
      <trkpt lat="-28.2498" lon="-65.74607166666667">
        <ele>812.3</ele>
        <time>2018-08-20T16:02:37Z</time>
      </trkpt>
      <trkpt lat="-28.249925" lon="-65.746015">
        <ele>811.1</ele>
        <time>2018-08-20T16:02:39Z</time>
      </trkpt>
      <trkpt lat="-28.24999" lon="-65.745975">
        <ele>810.7</ele>
        <time>2018-08-20T16:02:40Z</time>
      </trkpt>
      <trkpt lat="-28.250055" lon="-65.74594">
        <ele>810.2</ele>
        <time>2018-08-20T16:02:41Z</time>
      </trkpt>
      <trkpt lat="-28.250123333333335" lon="-65.74590166666667">
        <ele>809.7</ele>
        <time>2018-08-20T16:02:42Z</time>
      </trkpt>
      <trkpt lat="-28.2502" lon="-65.74586166666667">
        <ele>809.2</ele>
        <time>2018-08-20T16:02:43Z</time>
      </trkpt>
      <trkpt lat="-28.25027" lon="-65.745825">
        <ele>808.8</ele>
        <time>2018-08-20T16:02:44Z</time>
      </trkpt>
      <trkpt lat="-28.250346666666665" lon="-65.74578">
        <ele>808.5</ele>
        <time>2018-08-20T16:02:45Z</time>
      </trkpt>
      <trkpt lat="-28.250425" lon="-65.745745">
        <ele>808.3</ele>
        <time>2018-08-20T16:02:46Z</time>
      </trkpt>
      <trkpt lat="-28.250505" lon="-65.745695">
        <ele>808.0</ele>
        <time>2018-08-20T16:02:47Z</time>
      </trkpt>
      <trkpt lat="-28.25058" lon="-65.74566">
        <ele>807.6</ele>
        <time>2018-08-20T16:02:48Z</time>
      </trkpt>
      <trkpt lat="-28.25066" lon="-65.74562">
        <ele>807.3</ele>
        <time>2018-08-20T16:02:49Z</time>
      </trkpt>
      <trkpt lat="-28.25074" lon="-65.745575">
        <ele>806.9</ele>
        <time>2018-08-20T16:02:50Z</time>
      </trkpt>
      <trkpt lat="-28.250825" lon="-65.745525">
        <ele>806.6</ele>
        <time>2018-08-20T16:02:51Z</time>
      </trkpt>
      <trkpt lat="-28.250905" lon="-65.74549">
        <ele>806.2</ele>
        <time>2018-08-20T16:02:52Z</time>
      </trkpt>
      <trkpt lat="-28.250985" lon="-65.745445">
        <ele>805.8</ele>
        <time>2018-08-20T16:02:53Z</time>
      </trkpt>
      <trkpt lat="-28.251065" lon="-65.745405">
        <ele>805.4</ele>
        <time>2018-08-20T16:02:54Z</time>
      </trkpt>
      <trkpt lat="-28.251143333333335" lon="-65.74536">
        <ele>804.9</ele>
        <time>2018-08-20T16:02:55Z</time>
      </trkpt>
      <trkpt lat="-28.25124" lon="-65.74532">
        <ele>804.4</ele>
        <time>2018-08-20T16:02:56Z</time>
      </trkpt>
      <trkpt lat="-28.25133" lon="-65.745275">
        <ele>804.0</ele>
        <time>2018-08-20T16:02:57Z</time>
      </trkpt>
      <trkpt lat="-28.251411666666666" lon="-65.74522833333333">
        <ele>803.6</ele>
        <time>2018-08-20T16:02:58Z</time>
      </trkpt>
      <trkpt lat="-28.2515" lon="-65.745185">
        <ele>803.3</ele>
        <time>2018-08-20T16:02:59Z</time>
      </trkpt>
      <trkpt lat="-28.251575" lon="-65.74514666666667">
        <ele>802.9</ele>
        <time>2018-08-20T16:03:00Z</time>
      </trkpt>
      <trkpt lat="-28.25165" lon="-65.745115">
        <ele>802.5</ele>
        <time>2018-08-20T16:03:01Z</time>
      </trkpt>
      <trkpt lat="-28.25172" lon="-65.745075">
        <ele>802.3</ele>
        <time>2018-08-20T16:03:02Z</time>
      </trkpt>
      <trkpt lat="-28.251791666666666" lon="-65.745035">
        <ele>802.4</ele>
        <time>2018-08-20T16:03:03Z</time>
      </trkpt>
      <trkpt lat="-28.251925" lon="-65.74496166666667">
        <ele>802.1</ele>
        <time>2018-08-20T16:03:05Z</time>
      </trkpt>
      <trkpt lat="-28.252" lon="-65.74492333333333">
        <ele>802.1</ele>
        <time>2018-08-20T16:03:06Z</time>
      </trkpt>
      <trkpt lat="-28.252075" lon="-65.74489">
        <ele>802.4</ele>
        <time>2018-08-20T16:03:07Z</time>
      </trkpt>
      <trkpt lat="-28.25215" lon="-65.74485">
        <ele>802.8</ele>
        <time>2018-08-20T16:03:08Z</time>
      </trkpt>
      <trkpt lat="-28.252225" lon="-65.744815">
        <ele>803.2</ele>
        <time>2018-08-20T16:03:09Z</time>
      </trkpt>
      <trkpt lat="-28.25229" lon="-65.744775">
        <ele>803.6</ele>
        <time>2018-08-20T16:03:10Z</time>
      </trkpt>
      <trkpt lat="-28.25236" lon="-65.74473833333333">
        <ele>803.8</ele>
        <time>2018-08-20T16:03:11Z</time>
      </trkpt>
      <trkpt lat="-28.252485" lon="-65.74468">
        <ele>804.0</ele>
        <time>2018-08-20T16:03:13Z</time>
      </trkpt>
      <trkpt lat="-28.252605" lon="-65.74461666666667">
        <ele>804.3</ele>
        <time>2018-08-20T16:03:15Z</time>
      </trkpt>
      <trkpt lat="-28.25271" lon="-65.74456">
        <ele>805.4</ele>
        <time>2018-08-20T16:03:17Z</time>
      </trkpt>
      <trkpt lat="-28.2528" lon="-65.744505">
        <ele>805.8</ele>
        <time>2018-08-20T16:03:19Z</time>
      </trkpt>
      <trkpt lat="-28.25288" lon="-65.74446">
        <ele>806.3</ele>
        <time>2018-08-20T16:03:21Z</time>
      </trkpt>
      <trkpt lat="-28.252956666666666" lon="-65.74442">
        <ele>806.7</ele>
        <time>2018-08-20T16:03:23Z</time>
      </trkpt>
      <trkpt lat="-28.253035" lon="-65.744375">
        <ele>806.9</ele>
        <time>2018-08-20T16:03:25Z</time>
      </trkpt>
      <trkpt lat="-28.253105" lon="-65.74434166666667">
        <ele>807.0</ele>
        <time>2018-08-20T16:03:27Z</time>
      </trkpt>
      <trkpt lat="-28.2532" lon="-65.74429">
        <ele>807.2</ele>
        <time>2018-08-20T16:03:30Z</time>
      </trkpt>
      <trkpt lat="-28.2533" lon="-65.74424166666667">
        <ele>807.2</ele>
        <time>2018-08-20T16:03:33Z</time>
      </trkpt>
      <trkpt lat="-28.25337" lon="-65.74419666666667">
        <ele>807.3</ele>
        <time>2018-08-20T16:03:35Z</time>
      </trkpt>
      <trkpt lat="-28.253435" lon="-65.74415166666667">
        <ele>807.4</ele>
        <time>2018-08-20T16:03:37Z</time>
      </trkpt>
      <trkpt lat="-28.253491666666665" lon="-65.74410333333333">
        <ele>807.4</ele>
        <time>2018-08-20T16:03:39Z</time>
      </trkpt>
      <trkpt lat="-28.253565" lon="-65.744035">
        <ele>807.5</ele>
        <time>2018-08-20T16:03:42Z</time>
      </trkpt>
      <trkpt lat="-28.25363" lon="-65.74395">
        <ele>808.0</ele>
        <time>2018-08-20T16:03:45Z</time>
      </trkpt>
      <trkpt lat="-28.253695" lon="-65.743875">
        <ele>808.2</ele>
        <time>2018-08-20T16:03:47Z</time>
      </trkpt>
      <trkpt lat="-28.253755" lon="-65.743795">
        <ele>808.4</ele>
        <time>2018-08-20T16:03:49Z</time>
      </trkpt>
      <trkpt lat="-28.253815" lon="-65.74371333333333">
        <ele>808.6</ele>
        <time>2018-08-20T16:03:51Z</time>
      </trkpt>
      <trkpt lat="-28.253873333333335" lon="-65.74363166666667">
        <ele>808.8</ele>
        <time>2018-08-20T16:03:53Z</time>
      </trkpt>
      <trkpt lat="-28.25394" lon="-65.743555">
        <ele>809.0</ele>
        <time>2018-08-20T16:03:55Z</time>
      </trkpt>
      <trkpt lat="-28.254" lon="-65.743475">
        <ele>809.1</ele>
        <time>2018-08-20T16:03:57Z</time>
      </trkpt>
      <trkpt lat="-28.254075" lon="-65.74339666666667">
        <ele>809.2</ele>
        <time>2018-08-20T16:03:59Z</time>
      </trkpt>
      <trkpt lat="-28.254165" lon="-65.74332">
        <ele>808.9</ele>
        <time>2018-08-20T16:04:01Z</time>
      </trkpt>
      <trkpt lat="-28.254265" lon="-65.743245">
        <ele>808.6</ele>
        <time>2018-08-20T16:04:03Z</time>
      </trkpt>
      <trkpt lat="-28.254365" lon="-65.74318">
        <ele>808.2</ele>
        <time>2018-08-20T16:04:05Z</time>
      </trkpt>
      <trkpt lat="-28.25446" lon="-65.74315">
        <ele>808.0</ele>
        <time>2018-08-20T16:04:07Z</time>
      </trkpt>
      <trkpt lat="-28.254555" lon="-65.743125">
        <ele>807.6</ele>
        <time>2018-08-20T16:04:09Z</time>
      </trkpt>
      <trkpt lat="-28.25464" lon="-65.743115">
        <ele>807.6</ele>
        <time>2018-08-20T16:04:11Z</time>
      </trkpt>
      <trkpt lat="-28.254746666666666" lon="-65.743105">
        <ele>807.5</ele>
        <time>2018-08-20T16:04:14Z</time>
      </trkpt>
      <trkpt lat="-28.254825" lon="-65.743105">
        <ele>807.5</ele>
        <time>2018-08-20T16:04:16Z</time>
      </trkpt>
      <trkpt lat="-28.254925" lon="-65.743115">
        <ele>807.5</ele>
        <time>2018-08-20T16:04:19Z</time>
      </trkpt>
      <trkpt lat="-28.255025" lon="-65.743115">
        <ele>807.5</ele>
        <time>2018-08-20T16:04:22Z</time>
      </trkpt>
      <trkpt lat="-28.255115" lon="-65.743115">
        <ele>807.5</ele>
        <time>2018-08-20T16:04:25Z</time>
      </trkpt>
      <trkpt lat="-28.255215" lon="-65.743105">
        <ele>807.5</ele>
        <time>2018-08-20T16:04:28Z</time>
      </trkpt>
      <trkpt lat="-28.2553" lon="-65.743105">
        <ele>807.5</ele>
        <time>2018-08-20T16:04:31Z</time>
      </trkpt>
      <trkpt lat="-28.255385" lon="-65.743095">
        <ele>807.6</ele>
        <time>2018-08-20T16:04:34Z</time>
      </trkpt>
      <trkpt lat="-28.25547" lon="-65.74308">
        <ele>807.6</ele>
        <time>2018-08-20T16:04:37Z</time>
      </trkpt>
      <trkpt lat="-28.25556" lon="-65.743065">
        <ele>807.6</ele>
        <time>2018-08-20T16:04:40Z</time>
      </trkpt>
      <trkpt lat="-28.25565" lon="-65.74303833333333">
        <ele>807.5</ele>
        <time>2018-08-20T16:04:43Z</time>
      </trkpt>
      <trkpt lat="-28.255745" lon="-65.743015">
        <ele>807.6</ele>
        <time>2018-08-20T16:04:46Z</time>
      </trkpt>
      <trkpt lat="-28.255835" lon="-65.742985">
        <ele>807.6</ele>
        <time>2018-08-20T16:04:49Z</time>
      </trkpt>
      <trkpt lat="-28.25591" lon="-65.742955">
        <ele>807.7</ele>
        <time>2018-08-20T16:04:51Z</time>
      </trkpt>
      <trkpt lat="-28.256" lon="-65.74292">
        <ele>807.9</ele>
        <time>2018-08-20T16:04:54Z</time>
      </trkpt>
      <trkpt lat="-28.2561" lon="-65.74285833333333">
        <ele>809.4</ele>
        <time>2018-08-20T16:04:57Z</time>
      </trkpt>
      <trkpt lat="-28.25619" lon="-65.74279">
        <ele>810.2</ele>
        <time>2018-08-20T16:05:00Z</time>
      </trkpt>
      <trkpt lat="-28.256265" lon="-65.74272333333333">
        <ele>810.2</ele>
        <time>2018-08-20T16:05:02Z</time>
      </trkpt>
      <trkpt lat="-28.256335" lon="-65.742665">
        <ele>810.1</ele>
        <time>2018-08-20T16:05:04Z</time>
      </trkpt>
      <trkpt lat="-28.256405" lon="-65.74259">
        <ele>810.0</ele>
        <time>2018-08-20T16:05:06Z</time>
      </trkpt>
      <trkpt lat="-28.256475000000002" lon="-65.742525">
        <ele>809.7</ele>
        <time>2018-08-20T16:05:08Z</time>
      </trkpt>
      <trkpt lat="-28.25655" lon="-65.742445">
        <ele>809.2</ele>
        <time>2018-08-20T16:05:10Z</time>
      </trkpt>
      <trkpt lat="-28.25663" lon="-65.74235666666667">
        <ele>808.9</ele>
        <time>2018-08-20T16:05:12Z</time>
      </trkpt>
      <trkpt lat="-28.256718333333332" lon="-65.74226666666667">
        <ele>808.8</ele>
        <time>2018-08-20T16:05:14Z</time>
      </trkpt>
      <trkpt lat="-28.2568" lon="-65.742195">
        <ele>808.6</ele>
        <time>2018-08-20T16:05:16Z</time>
      </trkpt>
      <trkpt lat="-28.25689" lon="-65.74212">
        <ele>807.9</ele>
        <time>2018-08-20T16:05:18Z</time>
      </trkpt>
      <trkpt lat="-28.256975" lon="-65.742045">
        <ele>807.8</ele>
        <time>2018-08-20T16:05:20Z</time>
      </trkpt>
      <trkpt lat="-28.25706" lon="-65.74198">
        <ele>807.6</ele>
        <time>2018-08-20T16:05:22Z</time>
      </trkpt>
      <trkpt lat="-28.257145" lon="-65.741925">
        <ele>807.6</ele>
        <time>2018-08-20T16:05:24Z</time>
      </trkpt>
      <trkpt lat="-28.257215" lon="-65.74188666666667">
        <ele>807.6</ele>
        <time>2018-08-20T16:05:26Z</time>
      </trkpt>
      <trkpt lat="-28.2573" lon="-65.74185">
        <ele>807.7</ele>
        <time>2018-08-20T16:05:29Z</time>
      </trkpt>
      <trkpt lat="-28.257375" lon="-65.74182333333333">
        <ele>807.8</ele>
        <time>2018-08-20T16:05:32Z</time>
      </trkpt>
      <trkpt lat="-28.257455" lon="-65.74178">
        <ele>807.9</ele>
        <time>2018-08-20T16:05:35Z</time>
      </trkpt>
      <trkpt lat="-28.257525" lon="-65.741755">
        <ele>807.9</ele>
        <time>2018-08-20T16:05:38Z</time>
      </trkpt>
      <trkpt lat="-28.257605" lon="-65.74173">
        <ele>807.8</ele>
        <time>2018-08-20T16:05:42Z</time>
      </trkpt>
      <trkpt lat="-28.257695" lon="-65.7417">
        <ele>807.7</ele>
        <time>2018-08-20T16:05:46Z</time>
      </trkpt>
      <trkpt lat="-28.25779" lon="-65.741685">
        <ele>807.6</ele>
        <time>2018-08-20T16:05:50Z</time>
      </trkpt>
      <trkpt lat="-28.25788" lon="-65.74167">
        <ele>807.7</ele>
        <time>2018-08-20T16:05:54Z</time>
      </trkpt>
      <trkpt lat="-28.25797" lon="-65.74168">
        <ele>807.8</ele>
        <time>2018-08-20T16:05:58Z</time>
      </trkpt>
      <trkpt lat="-28.258055" lon="-65.741685">
        <ele>808.1</ele>
        <time>2018-08-20T16:06:02Z</time>
      </trkpt>
      <trkpt lat="-28.25814" lon="-65.74169666666667">
        <ele>808.3</ele>
        <time>2018-08-20T16:06:06Z</time>
      </trkpt>
      <trkpt lat="-28.258225" lon="-65.74171">
        <ele>808.5</ele>
        <time>2018-08-20T16:06:10Z</time>
      </trkpt>
      <trkpt lat="-28.258305" lon="-65.741725">
        <ele>808.6</ele>
        <time>2018-08-20T16:06:14Z</time>
      </trkpt>
      <trkpt lat="-28.258376666666667" lon="-65.74174333333333">
        <ele>808.8</ele>
        <time>2018-08-20T16:06:18Z</time>
      </trkpt>
      <trkpt lat="-28.25845" lon="-65.741765">
        <ele>809.1</ele>
        <time>2018-08-20T16:06:22Z</time>
      </trkpt>
      <trkpt lat="-28.25853" lon="-65.74178">
        <ele>809.3</ele>
        <time>2018-08-20T16:06:26Z</time>
      </trkpt>
      <trkpt lat="-28.2586" lon="-65.7418">
        <ele>809.6</ele>
        <time>2018-08-20T16:06:30Z</time>
      </trkpt>
      <trkpt lat="-28.258675" lon="-65.74181166666666">
        <ele>810.0</ele>
        <time>2018-08-20T16:06:34Z</time>
      </trkpt>
      <trkpt lat="-28.258755" lon="-65.74185">
        <ele>810.2</ele>
        <time>2018-08-20T16:06:38Z</time>
      </trkpt>
      <trkpt lat="-28.25883" lon="-65.741885">
        <ele>810.5</ele>
        <time>2018-08-20T16:06:42Z</time>
      </trkpt>
      <trkpt lat="-28.2589" lon="-65.74190833333333">
        <ele>811.1</ele>
        <time>2018-08-20T16:06:46Z</time>
      </trkpt>
      <trkpt lat="-28.25897" lon="-65.741945">
        <ele>811.6</ele>
        <time>2018-08-20T16:06:49Z</time>
      </trkpt>
      <trkpt lat="-28.259055" lon="-65.74199">
        <ele>812.5</ele>
        <time>2018-08-20T16:06:53Z</time>
      </trkpt>
      <trkpt lat="-28.25913" lon="-65.74203">
        <ele>813.5</ele>
        <time>2018-08-20T16:06:58Z</time>
      </trkpt>
      <trkpt lat="-28.259205" lon="-65.74205166666667">
        <ele>813.9</ele>
        <time>2018-08-20T16:07:02Z</time>
      </trkpt>
      <trkpt lat="-28.25927" lon="-65.742085">
        <ele>814.2</ele>
        <time>2018-08-20T16:07:06Z</time>
      </trkpt>
      <trkpt lat="-28.259345" lon="-65.74211">
        <ele>814.7</ele>
        <time>2018-08-20T16:07:11Z</time>
      </trkpt>
      <trkpt lat="-28.25942" lon="-65.74214">
        <ele>815.0</ele>
        <time>2018-08-20T16:07:15Z</time>
      </trkpt>
      <trkpt lat="-28.259505" lon="-65.742165">
        <ele>815.4</ele>
        <time>2018-08-20T16:07:20Z</time>
      </trkpt>
      <trkpt lat="-28.25958" lon="-65.74218">
        <ele>815.8</ele>
        <time>2018-08-20T16:07:24Z</time>
      </trkpt>
      <trkpt lat="-28.259655" lon="-65.742185">
        <ele>816.2</ele>
        <time>2018-08-20T16:07:28Z</time>
      </trkpt>
      <trkpt lat="-28.25973" lon="-65.742195">
        <ele>816.5</ele>
        <time>2018-08-20T16:07:32Z</time>
      </trkpt>
      <trkpt lat="-28.259815" lon="-65.74219166666667">
        <ele>816.9</ele>
        <time>2018-08-20T16:07:37Z</time>
      </trkpt>
      <trkpt lat="-28.259895" lon="-65.742175">
        <ele>817.3</ele>
        <time>2018-08-20T16:07:42Z</time>
      </trkpt>
      <trkpt lat="-28.259985" lon="-65.74215166666667">
        <ele>817.6</ele>
        <time>2018-08-20T16:07:47Z</time>
      </trkpt>
      <trkpt lat="-28.26006" lon="-65.74213">
        <ele>817.9</ele>
        <time>2018-08-20T16:07:51Z</time>
      </trkpt>
      <trkpt lat="-28.260145" lon="-65.742095">
        <ele>818.2</ele>
        <time>2018-08-20T16:07:55Z</time>
      </trkpt>
      <trkpt lat="-28.260215" lon="-65.742055">
        <ele>818.4</ele>
        <time>2018-08-20T16:07:58Z</time>
      </trkpt>
      <trkpt lat="-28.260285" lon="-65.74202">
        <ele>818.7</ele>
        <time>2018-08-20T16:08:01Z</time>
      </trkpt>
      <trkpt lat="-28.260346666666667" lon="-65.74198">
        <ele>819.1</ele>
        <time>2018-08-20T16:08:04Z</time>
      </trkpt>
      <trkpt lat="-28.26042" lon="-65.74192166666667">
        <ele>819.5</ele>
        <time>2018-08-20T16:08:07Z</time>
      </trkpt>
      <trkpt lat="-28.260485" lon="-65.74187">
        <ele>820.0</ele>
        <time>2018-08-20T16:08:10Z</time>
      </trkpt>
      <trkpt lat="-28.260535" lon="-65.74181">
        <ele>820.4</ele>
        <time>2018-08-20T16:08:13Z</time>
      </trkpt>
      <trkpt lat="-28.260588333333335" lon="-65.741735">
        <ele>820.8</ele>
        <time>2018-08-20T16:08:16Z</time>
      </trkpt>
      <trkpt lat="-28.260645" lon="-65.741645">
        <ele>821.1</ele>
        <time>2018-08-20T16:08:19Z</time>
      </trkpt>
      <trkpt lat="-28.260685" lon="-65.741575">
        <ele>821.3</ele>
        <time>2018-08-20T16:08:21Z</time>
      </trkpt>
      <trkpt lat="-28.260735" lon="-65.741465">
        <ele>821.6</ele>
        <time>2018-08-20T16:08:24Z</time>
      </trkpt>
      <trkpt lat="-28.260766666666665" lon="-65.74138">
        <ele>822.9</ele>
        <time>2018-08-20T16:08:26Z</time>
      </trkpt>
      <trkpt lat="-28.260795" lon="-65.741295">
        <ele>823.0</ele>
        <time>2018-08-20T16:08:28Z</time>
      </trkpt>
      <trkpt lat="-28.26083" lon="-65.741185">
        <ele>823.2</ele>
        <time>2018-08-20T16:08:31Z</time>
      </trkpt>
      <trkpt lat="-28.260855" lon="-65.7411">
        <ele>824.4</ele>
        <time>2018-08-20T16:08:33Z</time>
      </trkpt>
      <trkpt lat="-28.260875" lon="-65.741015">
        <ele>824.9</ele>
        <time>2018-08-20T16:08:35Z</time>
      </trkpt>
      <trkpt lat="-28.26089" lon="-65.74092">
        <ele>825.2</ele>
        <time>2018-08-20T16:08:37Z</time>
      </trkpt>
      <trkpt lat="-28.260905" lon="-65.740825">
        <ele>825.2</ele>
        <time>2018-08-20T16:08:39Z</time>
      </trkpt>
      <trkpt lat="-28.260925" lon="-65.740725">
        <ele>825.1</ele>
        <time>2018-08-20T16:08:41Z</time>
      </trkpt>
      <trkpt lat="-28.26095" lon="-65.74062">
        <ele>824.8</ele>
        <time>2018-08-20T16:08:43Z</time>
      </trkpt>
      <trkpt lat="-28.26099" lon="-65.740505">
        <ele>824.5</ele>
        <time>2018-08-20T16:08:45Z</time>
      </trkpt>
      <trkpt lat="-28.261045" lon="-65.740385">
        <ele>824.1</ele>
        <time>2018-08-20T16:08:47Z</time>
      </trkpt>
      <trkpt lat="-28.261115" lon="-65.740255">
        <ele>823.7</ele>
        <time>2018-08-20T16:08:49Z</time>
      </trkpt>
      <trkpt lat="-28.26119" lon="-65.74013166666667">
        <ele>823.1</ele>
        <time>2018-08-20T16:08:51Z</time>
      </trkpt>
      <trkpt lat="-28.261275" lon="-65.740025">
        <ele>822.3</ele>
        <time>2018-08-20T16:08:53Z</time>
      </trkpt>
      <trkpt lat="-28.261336666666665" lon="-65.739975">
        <ele>821.9</ele>
        <time>2018-08-20T16:08:54Z</time>
      </trkpt>
      <trkpt lat="-28.2614" lon="-65.739925">
        <ele>822.0</ele>
        <time>2018-08-20T16:08:55Z</time>
      </trkpt>
      <trkpt lat="-28.261465" lon="-65.73989">
        <ele>822.0</ele>
        <time>2018-08-20T16:08:56Z</time>
      </trkpt>
      <trkpt lat="-28.261535" lon="-65.73984">
        <ele>822.1</ele>
        <time>2018-08-20T16:08:57Z</time>
      </trkpt>
      <trkpt lat="-28.261655" lon="-65.739785">
        <ele>822.3</ele>
        <time>2018-08-20T16:08:59Z</time>
      </trkpt>
      <trkpt lat="-28.261775" lon="-65.73973166666667">
        <ele>822.1</ele>
        <time>2018-08-20T16:09:01Z</time>
      </trkpt>
      <trkpt lat="-28.26189" lon="-65.7397">
        <ele>821.4</ele>
        <time>2018-08-20T16:09:03Z</time>
      </trkpt>
      <trkpt lat="-28.261995" lon="-65.739665">
        <ele>820.2</ele>
        <time>2018-08-20T16:09:05Z</time>
      </trkpt>
      <trkpt lat="-28.26209" lon="-65.739635">
        <ele>818.7</ele>
        <time>2018-08-20T16:09:07Z</time>
      </trkpt>
      <trkpt lat="-28.262175" lon="-65.73961">
        <ele>818.7</ele>
        <time>2018-08-20T16:09:09Z</time>
      </trkpt>
      <trkpt lat="-28.262245" lon="-65.73958">
        <ele>819.2</ele>
        <time>2018-08-20T16:09:11Z</time>
      </trkpt>
      <trkpt lat="-28.262316666666667" lon="-65.73954666666667">
        <ele>819.8</ele>
        <time>2018-08-20T16:09:13Z</time>
      </trkpt>
      <trkpt lat="-28.26239" lon="-65.73952">
        <ele>819.9</ele>
        <time>2018-08-20T16:09:15Z</time>
      </trkpt>
      <trkpt lat="-28.262485" lon="-65.739485">
        <ele>819.9</ele>
        <time>2018-08-20T16:09:18Z</time>
      </trkpt>
      <trkpt lat="-28.262565" lon="-65.73945">
        <ele>820.0</ele>
        <time>2018-08-20T16:09:21Z</time>
      </trkpt>
      <trkpt lat="-28.262645" lon="-65.739435">
        <ele>820.0</ele>
        <time>2018-08-20T16:09:24Z</time>
      </trkpt>
      <trkpt lat="-28.26273" lon="-65.7394">
        <ele>820.2</ele>
        <time>2018-08-20T16:09:28Z</time>
      </trkpt>
      <trkpt lat="-28.262815" lon="-65.739365">
        <ele>820.5</ele>
        <time>2018-08-20T16:09:32Z</time>
      </trkpt>
      <trkpt lat="-28.262885" lon="-65.739335">
        <ele>820.8</ele>
        <time>2018-08-20T16:09:36Z</time>
      </trkpt>
      <trkpt lat="-28.262955" lon="-65.739305">
        <ele>821.1</ele>
        <time>2018-08-20T16:09:40Z</time>
      </trkpt>
      <trkpt lat="-28.263025" lon="-65.73927666666667">
        <ele>821.4</ele>
        <time>2018-08-20T16:09:44Z</time>
      </trkpt>
      <trkpt lat="-28.2631" lon="-65.73925">
        <ele>821.6</ele>
        <time>2018-08-20T16:09:48Z</time>
      </trkpt>
      <trkpt lat="-28.263175" lon="-65.73922">
        <ele>821.9</ele>
        <time>2018-08-20T16:09:52Z</time>
      </trkpt>
      <trkpt lat="-28.263245" lon="-65.739195">
        <ele>822.2</ele>
        <time>2018-08-20T16:09:56Z</time>
      </trkpt>
      <trkpt lat="-28.263315" lon="-65.739175">
        <ele>822.6</ele>
        <time>2018-08-20T16:10:00Z</time>
      </trkpt>
      <trkpt lat="-28.263385" lon="-65.739165">
        <ele>822.8</ele>
        <time>2018-08-20T16:10:04Z</time>
      </trkpt>
      <trkpt lat="-28.263455" lon="-65.73914">
        <ele>823.3</ele>
        <time>2018-08-20T16:10:09Z</time>
      </trkpt>
      <trkpt lat="-28.26353" lon="-65.73912">
        <ele>823.8</ele>
        <time>2018-08-20T16:10:14Z</time>
      </trkpt>
      <trkpt lat="-28.263605" lon="-65.73909166666667">
        <ele>824.1</ele>
        <time>2018-08-20T16:10:19Z</time>
      </trkpt>
      <trkpt lat="-28.26368" lon="-65.73908">
        <ele>824.3</ele>
        <time>2018-08-20T16:10:24Z</time>
      </trkpt>
      <trkpt lat="-28.263765" lon="-65.739045">
        <ele>824.8</ele>
        <time>2018-08-20T16:10:28Z</time>
      </trkpt>
      <trkpt lat="-28.263836666666666" lon="-65.73902666666666">
        <ele>825.4</ele>
        <time>2018-08-20T16:10:33Z</time>
      </trkpt>
      <trkpt lat="-28.26392" lon="-65.739">
        <ele>825.8</ele>
        <time>2018-08-20T16:10:39Z</time>
      </trkpt>
      <trkpt lat="-28.264" lon="-65.73896666666667">
        <ele>826.0</ele>
        <time>2018-08-20T16:10:45Z</time>
      </trkpt>
      <trkpt lat="-28.264085" lon="-65.73894">
        <ele>826.0</ele>
        <time>2018-08-20T16:10:50Z</time>
      </trkpt>
      <trkpt lat="-28.264165" lon="-65.73893">
        <ele>826.0</ele>
        <time>2018-08-20T16:10:55Z</time>
      </trkpt>
      <trkpt lat="-28.26425" lon="-65.7389">
        <ele>826.4</ele>
        <time>2018-08-20T16:11:00Z</time>
      </trkpt>
      <trkpt lat="-28.264335" lon="-65.73887833333333">
        <ele>826.7</ele>
        <time>2018-08-20T16:11:04Z</time>
      </trkpt>
      <trkpt lat="-28.26442" lon="-65.738855">
        <ele>827.3</ele>
        <time>2018-08-20T16:11:08Z</time>
      </trkpt>
      <trkpt lat="-28.2645" lon="-65.73885">
        <ele>827.7</ele>
        <time>2018-08-20T16:11:12Z</time>
      </trkpt>
      <trkpt lat="-28.26458" lon="-65.738845">
        <ele>827.9</ele>
        <time>2018-08-20T16:11:16Z</time>
      </trkpt>
      <trkpt lat="-28.264665" lon="-65.73885">
        <ele>828.0</ele>
        <time>2018-08-20T16:11:20Z</time>
      </trkpt>
      <trkpt lat="-28.264735" lon="-65.738865">
        <ele>828.2</ele>
        <time>2018-08-20T16:11:23Z</time>
      </trkpt>
      <trkpt lat="-28.26481" lon="-65.73887833333333">
        <ele>828.6</ele>
        <time>2018-08-20T16:11:26Z</time>
      </trkpt>
      <trkpt lat="-28.264885" lon="-65.7389">
        <ele>829.2</ele>
        <time>2018-08-20T16:11:30Z</time>
      </trkpt>
      <trkpt lat="-28.264965" lon="-65.73891833333333">
        <ele>830.0</ele>
        <time>2018-08-20T16:11:34Z</time>
      </trkpt>
      <trkpt lat="-28.265045" lon="-65.73896">
        <ele>830.8</ele>
        <time>2018-08-20T16:11:38Z</time>
      </trkpt>
      <trkpt lat="-28.26512333333333" lon="-65.73900166666667">
        <ele>831.5</ele>
        <time>2018-08-20T16:11:42Z</time>
      </trkpt>
      <trkpt lat="-28.2652" lon="-65.739045">
        <ele>832.4</ele>
        <time>2018-08-20T16:11:46Z</time>
      </trkpt>
      <trkpt lat="-28.265265" lon="-65.73909333333333">
        <ele>833.2</ele>
        <time>2018-08-20T16:11:50Z</time>
      </trkpt>
      <trkpt lat="-28.26533" lon="-65.739155">
        <ele>833.9</ele>
        <time>2018-08-20T16:11:54Z</time>
      </trkpt>
      <trkpt lat="-28.265393333333332" lon="-65.739215">
        <ele>834.5</ele>
        <time>2018-08-20T16:11:58Z</time>
      </trkpt>
      <trkpt lat="-28.26546" lon="-65.73927">
        <ele>835.2</ele>
        <time>2018-08-20T16:12:02Z</time>
      </trkpt>
      <trkpt lat="-28.26552" lon="-65.739335">
        <ele>835.8</ele>
        <time>2018-08-20T16:12:06Z</time>
      </trkpt>
      <trkpt lat="-28.26558" lon="-65.73939">
        <ele>836.3</ele>
        <time>2018-08-20T16:12:10Z</time>
      </trkpt>
      <trkpt lat="-28.265645" lon="-65.739455">
        <ele>836.7</ele>
        <time>2018-08-20T16:12:14Z</time>
      </trkpt>
      <trkpt lat="-28.2657" lon="-65.73950666666667">
        <ele>837.0</ele>
        <time>2018-08-20T16:12:18Z</time>
      </trkpt>
      <trkpt lat="-28.26577" lon="-65.73956">
        <ele>837.2</ele>
        <time>2018-08-20T16:12:23Z</time>
      </trkpt>
      <trkpt lat="-28.26584" lon="-65.73961">
        <ele>837.3</ele>
        <time>2018-08-20T16:12:27Z</time>
      </trkpt>
      <trkpt lat="-28.2659" lon="-65.73964333333333">
        <ele>837.3</ele>
        <time>2018-08-20T16:12:31Z</time>
      </trkpt>
      <trkpt lat="-28.265975" lon="-65.73968">
        <ele>837.6</ele>
        <time>2018-08-20T16:12:36Z</time>
      </trkpt>
      <trkpt lat="-28.266055" lon="-65.73972166666667">
        <ele>837.9</ele>
        <time>2018-08-20T16:12:40Z</time>
      </trkpt>
      <trkpt lat="-28.26614" lon="-65.73976">
        <ele>838.0</ele>
        <time>2018-08-20T16:12:44Z</time>
      </trkpt>
      <trkpt lat="-28.26622" lon="-65.739775">
        <ele>838.2</ele>
        <time>2018-08-20T16:12:48Z</time>
      </trkpt>
      <trkpt lat="-28.266296666666666" lon="-65.739785">
        <ele>838.3</ele>
        <time>2018-08-20T16:12:52Z</time>
      </trkpt>
      <trkpt lat="-28.266375" lon="-65.73978666666666">
        <ele>838.3</ele>
        <time>2018-08-20T16:12:56Z</time>
      </trkpt>
      <trkpt lat="-28.266453333333335" lon="-65.73977666666667">
        <ele>838.4</ele>
        <time>2018-08-20T16:13:00Z</time>
      </trkpt>
      <trkpt lat="-28.266545" lon="-65.739765">
        <ele>838.4</ele>
        <time>2018-08-20T16:13:04Z</time>
      </trkpt>
      <trkpt lat="-28.266636666666667" lon="-65.739755">
        <ele>838.3</ele>
        <time>2018-08-20T16:13:08Z</time>
      </trkpt>
      <trkpt lat="-28.26672" lon="-65.73973">
        <ele>838.2</ele>
        <time>2018-08-20T16:13:11Z</time>
      </trkpt>
      <trkpt lat="-28.266805" lon="-65.7397">
        <ele>838.1</ele>
        <time>2018-08-20T16:13:14Z</time>
      </trkpt>
      <trkpt lat="-28.266901666666666" lon="-65.73966">
        <ele>838.0</ele>
        <time>2018-08-20T16:13:17Z</time>
      </trkpt>
      <trkpt lat="-28.267" lon="-65.739605">
        <ele>838.3</ele>
        <time>2018-08-20T16:13:20Z</time>
      </trkpt>
      <trkpt lat="-28.26709" lon="-65.739535">
        <ele>840.2</ele>
        <time>2018-08-20T16:13:23Z</time>
      </trkpt>
      <trkpt lat="-28.26715" lon="-65.739475">
        <ele>841.9</ele>
        <time>2018-08-20T16:13:25Z</time>
      </trkpt>
      <trkpt lat="-28.267206666666667" lon="-65.73941">
        <ele>843.3</ele>
        <time>2018-08-20T16:13:27Z</time>
      </trkpt>
      <trkpt lat="-28.26727" lon="-65.739345">
        <ele>844.8</ele>
        <time>2018-08-20T16:13:29Z</time>
      </trkpt>
      <trkpt lat="-28.267315" lon="-65.73927">
        <ele>845.7</ele>
        <time>2018-08-20T16:13:31Z</time>
      </trkpt>
      <trkpt lat="-28.267361666666666" lon="-65.73918833333333">
        <ele>846.1</ele>
        <time>2018-08-20T16:13:33Z</time>
      </trkpt>
      <trkpt lat="-28.267405" lon="-65.73911">
        <ele>846.1</ele>
        <time>2018-08-20T16:13:35Z</time>
      </trkpt>
      <trkpt lat="-28.267445" lon="-65.739025">
        <ele>845.9</ele>
        <time>2018-08-20T16:13:37Z</time>
      </trkpt>
      <trkpt lat="-28.26748" lon="-65.73893">
        <ele>845.8</ele>
        <time>2018-08-20T16:13:39Z</time>
      </trkpt>
      <trkpt lat="-28.267506666666666" lon="-65.738825">
        <ele>845.6</ele>
        <time>2018-08-20T16:13:41Z</time>
      </trkpt>
      <trkpt lat="-28.26753" lon="-65.73871666666666">
        <ele>845.0</ele>
        <time>2018-08-20T16:13:43Z</time>
      </trkpt>
      <trkpt lat="-28.26754" lon="-65.738605">
        <ele>843.8</ele>
        <time>2018-08-20T16:13:45Z</time>
      </trkpt>
      <trkpt lat="-28.267545" lon="-65.73847166666667">
        <ele>842.8</ele>
        <time>2018-08-20T16:13:47Z</time>
      </trkpt>
      <trkpt lat="-28.26754" lon="-65.73835">
        <ele>842.1</ele>
        <time>2018-08-20T16:13:49Z</time>
      </trkpt>
      <trkpt lat="-28.267518333333335" lon="-65.738225">
        <ele>841.6</ele>
        <time>2018-08-20T16:13:51Z</time>
      </trkpt>
      <trkpt lat="-28.267495" lon="-65.73809">
        <ele>841.1</ele>
        <time>2018-08-20T16:13:53Z</time>
      </trkpt>
      <trkpt lat="-28.26745" lon="-65.737965">
        <ele>840.5</ele>
        <time>2018-08-20T16:13:55Z</time>
      </trkpt>
      <trkpt lat="-28.267395" lon="-65.737835">
        <ele>840.2</ele>
        <time>2018-08-20T16:13:57Z</time>
      </trkpt>
      <trkpt lat="-28.267326666666666" lon="-65.737705">
        <ele>839.3</ele>
        <time>2018-08-20T16:13:59Z</time>
      </trkpt>
      <trkpt lat="-28.26726" lon="-65.73757666666667">
        <ele>838.0</ele>
        <time>2018-08-20T16:14:01Z</time>
      </trkpt>
      <trkpt lat="-28.267195" lon="-65.73745166666667">
        <ele>836.5</ele>
        <time>2018-08-20T16:14:03Z</time>
      </trkpt>
      <trkpt lat="-28.26713" lon="-65.737335">
        <ele>835.2</ele>
        <time>2018-08-20T16:14:05Z</time>
      </trkpt>
      <trkpt lat="-28.267065" lon="-65.737215">
        <ele>833.6</ele>
        <time>2018-08-20T16:14:07Z</time>
      </trkpt>
      <trkpt lat="-28.267025" lon="-65.73714">
        <ele>833.0</ele>
        <time>2018-08-20T16:14:08Z</time>
      </trkpt>
      <trkpt lat="-28.266945" lon="-65.73701">
        <ele>831.6</ele>
        <time>2018-08-20T16:14:10Z</time>
      </trkpt>
      <trkpt lat="-28.2669" lon="-65.736935">
        <ele>830.9</ele>
        <time>2018-08-20T16:14:11Z</time>
      </trkpt>
      <trkpt lat="-28.26686" lon="-65.73685">
        <ele>830.3</ele>
        <time>2018-08-20T16:14:12Z</time>
      </trkpt>
      <trkpt lat="-28.266815" lon="-65.73676">
        <ele>829.8</ele>
        <time>2018-08-20T16:14:13Z</time>
      </trkpt>
      <trkpt lat="-28.26677" lon="-65.73667">
        <ele>829.6</ele>
        <time>2018-08-20T16:14:14Z</time>
      </trkpt>
      <trkpt lat="-28.266735" lon="-65.73658">
        <ele>829.4</ele>
        <time>2018-08-20T16:14:15Z</time>
      </trkpt>
      <trkpt lat="-28.2667" lon="-65.73649">
        <ele>829.3</ele>
        <time>2018-08-20T16:14:16Z</time>
      </trkpt>
      <trkpt lat="-28.26667" lon="-65.7364">
        <ele>829.2</ele>
        <time>2018-08-20T16:14:17Z</time>
      </trkpt>
      <trkpt lat="-28.266645" lon="-65.736315">
        <ele>829.1</ele>
        <time>2018-08-20T16:14:18Z</time>
      </trkpt>
      <trkpt lat="-28.26663" lon="-65.73622166666667">
        <ele>828.8</ele>
        <time>2018-08-20T16:14:19Z</time>
      </trkpt>
      <trkpt lat="-28.26661" lon="-65.73612">
        <ele>828.1</ele>
        <time>2018-08-20T16:14:20Z</time>
      </trkpt>
      <trkpt lat="-28.266615" lon="-65.73600666666667">
        <ele>827.6</ele>
        <time>2018-08-20T16:14:21Z</time>
      </trkpt>
      <trkpt lat="-28.26662" lon="-65.7359">
        <ele>827.2</ele>
        <time>2018-08-20T16:14:22Z</time>
      </trkpt>
      <trkpt lat="-28.26663" lon="-65.73578833333333">
        <ele>826.8</ele>
        <time>2018-08-20T16:14:23Z</time>
      </trkpt>
      <trkpt lat="-28.26665" lon="-65.735685">
        <ele>826.2</ele>
        <time>2018-08-20T16:14:24Z</time>
      </trkpt>
      <trkpt lat="-28.26667" lon="-65.73559">
        <ele>825.5</ele>
        <time>2018-08-20T16:14:25Z</time>
      </trkpt>
      <trkpt lat="-28.266713333333332" lon="-65.73547666666667">
        <ele>824.8</ele>
        <time>2018-08-20T16:14:26Z</time>
      </trkpt>
      <trkpt lat="-28.266765" lon="-65.73537166666667">
        <ele>824.2</ele>
        <time>2018-08-20T16:14:27Z</time>
      </trkpt>
      <trkpt lat="-28.266825" lon="-65.73528">
        <ele>823.5</ele>
        <time>2018-08-20T16:14:28Z</time>
      </trkpt>
      <trkpt lat="-28.266885" lon="-65.73518">
        <ele>822.8</ele>
        <time>2018-08-20T16:14:29Z</time>
      </trkpt>
      <trkpt lat="-28.266945" lon="-65.735085">
        <ele>822.2</ele>
        <time>2018-08-20T16:14:30Z</time>
      </trkpt>
      <trkpt lat="-28.267015" lon="-65.734985">
        <ele>821.5</ele>
        <time>2018-08-20T16:14:31Z</time>
      </trkpt>
      <trkpt lat="-28.267085" lon="-65.73489000000001">
        <ele>820.8</ele>
        <time>2018-08-20T16:14:32Z</time>
      </trkpt>
      <trkpt lat="-28.267155" lon="-65.734795">
        <ele>820.4</ele>
        <time>2018-08-20T16:14:33Z</time>
      </trkpt>
      <trkpt lat="-28.267225" lon="-65.7347">
        <ele>820.2</ele>
        <time>2018-08-20T16:14:34Z</time>
      </trkpt>
      <trkpt lat="-28.267305" lon="-65.7346">
        <ele>819.8</ele>
        <time>2018-08-20T16:14:35Z</time>
      </trkpt>
      <trkpt lat="-28.26738" lon="-65.73451">
        <ele>819.6</ele>
        <time>2018-08-20T16:14:36Z</time>
      </trkpt>
      <trkpt lat="-28.26745" lon="-65.73441">
        <ele>819.3</ele>
        <time>2018-08-20T16:14:37Z</time>
      </trkpt>
      <trkpt lat="-28.267516666666666" lon="-65.734325">
        <ele>818.9</ele>
        <time>2018-08-20T16:14:38Z</time>
      </trkpt>
      <trkpt lat="-28.267585" lon="-65.73424">
        <ele>818.3</ele>
        <time>2018-08-20T16:14:39Z</time>
      </trkpt>
      <trkpt lat="-28.26765" lon="-65.734155">
        <ele>817.8</ele>
        <time>2018-08-20T16:14:40Z</time>
      </trkpt>
      <trkpt lat="-28.26772" lon="-65.734075">
        <ele>817.3</ele>
        <time>2018-08-20T16:14:41Z</time>
      </trkpt>
      <trkpt lat="-28.26779" lon="-65.733985">
        <ele>816.8</ele>
        <time>2018-08-20T16:14:42Z</time>
      </trkpt>
      <trkpt lat="-28.267865" lon="-65.73389">
        <ele>816.5</ele>
        <time>2018-08-20T16:14:43Z</time>
      </trkpt>
      <trkpt lat="-28.26793" lon="-65.7338">
        <ele>816.4</ele>
        <time>2018-08-20T16:14:44Z</time>
      </trkpt>
      <trkpt lat="-28.268" lon="-65.733705">
        <ele>815.9</ele>
        <time>2018-08-20T16:14:45Z</time>
      </trkpt>
      <trkpt lat="-28.268075" lon="-65.733615">
        <ele>815.1</ele>
        <time>2018-08-20T16:14:46Z</time>
      </trkpt>
      <trkpt lat="-28.268145" lon="-65.733525">
        <ele>814.2</ele>
        <time>2018-08-20T16:14:47Z</time>
      </trkpt>
      <trkpt lat="-28.26821" lon="-65.733445">
        <ele>813.5</ele>
        <time>2018-08-20T16:14:48Z</time>
      </trkpt>
      <trkpt lat="-28.268275" lon="-65.733355">
        <ele>813.1</ele>
        <time>2018-08-20T16:14:49Z</time>
      </trkpt>
      <trkpt lat="-28.268346666666666" lon="-65.73326666666667">
        <ele>812.2</ele>
        <time>2018-08-20T16:14:50Z</time>
      </trkpt>
      <trkpt lat="-28.268418333333333" lon="-65.73318666666667">
        <ele>811.6</ele>
        <time>2018-08-20T16:14:51Z</time>
      </trkpt>
      <trkpt lat="-28.2685" lon="-65.733115">
        <ele>811.1</ele>
        <time>2018-08-20T16:14:52Z</time>
      </trkpt>
      <trkpt lat="-28.26859" lon="-65.73304">
        <ele>810.0</ele>
        <time>2018-08-20T16:14:53Z</time>
      </trkpt>
      <trkpt lat="-28.26869" lon="-65.73295666666667">
        <ele>808.9</ele>
        <time>2018-08-20T16:14:54Z</time>
      </trkpt>
      <trkpt lat="-28.268795" lon="-65.73287666666667">
        <ele>809.0</ele>
        <time>2018-08-20T16:14:55Z</time>
      </trkpt>
      <trkpt lat="-28.2689" lon="-65.73282">
        <ele>808.6</ele>
        <time>2018-08-20T16:14:56Z</time>
      </trkpt>
      <trkpt lat="-28.269015" lon="-65.73276">
        <ele>808.0</ele>
        <time>2018-08-20T16:14:57Z</time>
      </trkpt>
      <trkpt lat="-28.26913" lon="-65.73271">
        <ele>807.2</ele>
        <time>2018-08-20T16:14:58Z</time>
      </trkpt>
      <trkpt lat="-28.26925" lon="-65.732665">
        <ele>806.2</ele>
        <time>2018-08-20T16:14:59Z</time>
      </trkpt>
      <trkpt lat="-28.269366666666667" lon="-65.73264">
        <ele>804.7</ele>
        <time>2018-08-20T16:15:00Z</time>
      </trkpt>
      <trkpt lat="-28.269495" lon="-65.73260666666667">
        <ele>803.2</ele>
        <time>2018-08-20T16:15:01Z</time>
      </trkpt>
      <trkpt lat="-28.269625" lon="-65.73259">
        <ele>801.7</ele>
        <time>2018-08-20T16:15:02Z</time>
      </trkpt>
      <trkpt lat="-28.269755" lon="-65.732565">
        <ele>800.1</ele>
        <time>2018-08-20T16:15:03Z</time>
      </trkpt>
      <trkpt lat="-28.269885" lon="-65.732545">
        <ele>798.6</ele>
        <time>2018-08-20T16:15:04Z</time>
      </trkpt>
      <trkpt lat="-28.27002" lon="-65.73252166666667">
        <ele>797.1</ele>
        <time>2018-08-20T16:15:05Z</time>
      </trkpt>
      <trkpt lat="-28.27016" lon="-65.732505">
        <ele>795.6</ele>
        <time>2018-08-20T16:15:06Z</time>
      </trkpt>
      <trkpt lat="-28.2703" lon="-65.73249">
        <ele>794.0</ele>
        <time>2018-08-20T16:15:07Z</time>
      </trkpt>
      <trkpt lat="-28.270445" lon="-65.73247">
        <ele>792.7</ele>
        <time>2018-08-20T16:15:08Z</time>
      </trkpt>
      <trkpt lat="-28.270581666666665" lon="-65.732455">
        <ele>791.6</ele>
        <time>2018-08-20T16:15:09Z</time>
      </trkpt>
      <trkpt lat="-28.270725" lon="-65.73243">
        <ele>790.7</ele>
        <time>2018-08-20T16:15:10Z</time>
      </trkpt>
      <trkpt lat="-28.270853333333335" lon="-65.73241166666666">
        <ele>789.9</ele>
        <time>2018-08-20T16:15:11Z</time>
      </trkpt>
      <trkpt lat="-28.27099" lon="-65.732405">
        <ele>789.0</ele>
        <time>2018-08-20T16:15:12Z</time>
      </trkpt>
      <trkpt lat="-28.27112" lon="-65.73238166666667">
        <ele>787.8</ele>
        <time>2018-08-20T16:15:13Z</time>
      </trkpt>
      <trkpt lat="-28.27125" lon="-65.732365">
        <ele>786.6</ele>
        <time>2018-08-20T16:15:14Z</time>
      </trkpt>
      <trkpt lat="-28.271385" lon="-65.73234166666667">
        <ele>785.4</ele>
        <time>2018-08-20T16:15:15Z</time>
      </trkpt>
      <trkpt lat="-28.27152" lon="-65.732325">
        <ele>784.2</ele>
        <time>2018-08-20T16:15:16Z</time>
      </trkpt>
      <trkpt lat="-28.271655" lon="-65.73229666666667">
        <ele>782.9</ele>
        <time>2018-08-20T16:15:17Z</time>
      </trkpt>
      <trkpt lat="-28.271791666666665" lon="-65.73228">
        <ele>781.5</ele>
        <time>2018-08-20T16:15:18Z</time>
      </trkpt>
      <trkpt lat="-28.27194" lon="-65.73226">
        <ele>780.2</ele>
        <time>2018-08-20T16:15:19Z</time>
      </trkpt>
      <trkpt lat="-28.27208" lon="-65.73224833333333">
        <ele>779.0</ele>
        <time>2018-08-20T16:15:20Z</time>
      </trkpt>
      <trkpt lat="-28.272225" lon="-65.732235">
        <ele>777.9</ele>
        <time>2018-08-20T16:15:21Z</time>
      </trkpt>
      <trkpt lat="-28.27237" lon="-65.732235">
        <ele>776.7</ele>
        <time>2018-08-20T16:15:22Z</time>
      </trkpt>
      <trkpt lat="-28.27252" lon="-65.73223">
        <ele>775.5</ele>
        <time>2018-08-20T16:15:23Z</time>
      </trkpt>
      <trkpt lat="-28.272675" lon="-65.73223">
        <ele>774.7</ele>
        <time>2018-08-20T16:15:24Z</time>
      </trkpt>
      <trkpt lat="-28.27283" lon="-65.732235">
        <ele>773.7</ele>
        <time>2018-08-20T16:15:25Z</time>
      </trkpt>
      <trkpt lat="-28.27298" lon="-65.732235">
        <ele>772.6</ele>
        <time>2018-08-20T16:15:26Z</time>
      </trkpt>
      <trkpt lat="-28.27313" lon="-65.732245">
        <ele>771.6</ele>
        <time>2018-08-20T16:15:27Z</time>
      </trkpt>
      <trkpt lat="-28.27328" lon="-65.73226">
        <ele>770.9</ele>
        <time>2018-08-20T16:15:28Z</time>
      </trkpt>
      <trkpt lat="-28.273435" lon="-65.73228">
        <ele>770.1</ele>
        <time>2018-08-20T16:15:29Z</time>
      </trkpt>
      <trkpt lat="-28.27357" lon="-65.73229">
        <ele>769.2</ele>
        <time>2018-08-20T16:15:30Z</time>
      </trkpt>
      <trkpt lat="-28.273705" lon="-65.73231">
        <ele>768.1</ele>
        <time>2018-08-20T16:15:31Z</time>
      </trkpt>
      <trkpt lat="-28.27384" lon="-65.732325">
        <ele>766.9</ele>
        <time>2018-08-20T16:15:32Z</time>
      </trkpt>
      <trkpt lat="-28.273975" lon="-65.73233166666667">
        <ele>765.7</ele>
        <time>2018-08-20T16:15:33Z</time>
      </trkpt>
      <trkpt lat="-28.2741" lon="-65.732345">
        <ele>764.6</ele>
        <time>2018-08-20T16:15:34Z</time>
      </trkpt>
      <trkpt lat="-28.27423" lon="-65.73235666666666">
        <ele>763.6</ele>
        <time>2018-08-20T16:15:35Z</time>
      </trkpt>
      <trkpt lat="-28.27435" lon="-65.732355">
        <ele>762.6</ele>
        <time>2018-08-20T16:15:36Z</time>
      </trkpt>
      <trkpt lat="-28.274475" lon="-65.732325">
        <ele>761.7</ele>
        <time>2018-08-20T16:15:37Z</time>
      </trkpt>
      <trkpt lat="-28.27459" lon="-65.73229">
        <ele>760.8</ele>
        <time>2018-08-20T16:15:38Z</time>
      </trkpt>
      <trkpt lat="-28.274705" lon="-65.732245">
        <ele>760.1</ele>
        <time>2018-08-20T16:15:39Z</time>
      </trkpt>
      <trkpt lat="-28.27482" lon="-65.73218833333334">
        <ele>759.4</ele>
        <time>2018-08-20T16:15:40Z</time>
      </trkpt>
      <trkpt lat="-28.27493" lon="-65.73214">
        <ele>758.5</ele>
        <time>2018-08-20T16:15:41Z</time>
      </trkpt>
      <trkpt lat="-28.27504" lon="-65.732075">
        <ele>757.6</ele>
        <time>2018-08-20T16:15:42Z</time>
      </trkpt>
      <trkpt lat="-28.27515" lon="-65.73202">
        <ele>756.8</ele>
        <time>2018-08-20T16:15:43Z</time>
      </trkpt>
      <trkpt lat="-28.27526" lon="-65.73197166666667">
        <ele>756.1</ele>
        <time>2018-08-20T16:15:44Z</time>
      </trkpt>
      <trkpt lat="-28.275361666666665" lon="-65.731925">
        <ele>755.0</ele>
        <time>2018-08-20T16:15:45Z</time>
      </trkpt>
      <trkpt lat="-28.275465" lon="-65.73188">
        <ele>754.1</ele>
        <time>2018-08-20T16:15:46Z</time>
      </trkpt>
      <trkpt lat="-28.275576666666666" lon="-65.73183">
        <ele>753.1</ele>
        <time>2018-08-20T16:15:47Z</time>
      </trkpt>
      <trkpt lat="-28.27569" lon="-65.731785">
        <ele>752.1</ele>
        <time>2018-08-20T16:15:48Z</time>
      </trkpt>
      <trkpt lat="-28.275805" lon="-65.731735">
        <ele>751.8</ele>
        <time>2018-08-20T16:15:49Z</time>
      </trkpt>
      <trkpt lat="-28.27592" lon="-65.73169">
        <ele>751.5</ele>
        <time>2018-08-20T16:15:50Z</time>
      </trkpt>
      <trkpt lat="-28.276025" lon="-65.73164">
        <ele>750.9</ele>
        <time>2018-08-20T16:15:51Z</time>
      </trkpt>
      <trkpt lat="-28.276135" lon="-65.731595">
        <ele>750.3</ele>
        <time>2018-08-20T16:15:52Z</time>
      </trkpt>
      <trkpt lat="-28.27624" lon="-65.73154">
        <ele>749.6</ele>
        <time>2018-08-20T16:15:53Z</time>
      </trkpt>
      <trkpt lat="-28.276345" lon="-65.7315">
        <ele>748.7</ele>
        <time>2018-08-20T16:15:54Z</time>
      </trkpt>
      <trkpt lat="-28.27646" lon="-65.731465">
        <ele>747.7</ele>
        <time>2018-08-20T16:15:55Z</time>
      </trkpt>
      <trkpt lat="-28.27657" lon="-65.731425">
        <ele>746.8</ele>
        <time>2018-08-20T16:15:56Z</time>
      </trkpt>
      <trkpt lat="-28.27669" lon="-65.73141">
        <ele>745.8</ele>
        <time>2018-08-20T16:15:57Z</time>
      </trkpt>
      <trkpt lat="-28.276805" lon="-65.73139">
        <ele>744.8</ele>
        <time>2018-08-20T16:15:58Z</time>
      </trkpt>
      <trkpt lat="-28.276916666666665" lon="-65.73138">
        <ele>744.1</ele>
        <time>2018-08-20T16:15:59Z</time>
      </trkpt>
      <trkpt lat="-28.277035" lon="-65.73137">
        <ele>743.3</ele>
        <time>2018-08-20T16:16:00Z</time>
      </trkpt>
      <trkpt lat="-28.277155" lon="-65.73137">
        <ele>742.6</ele>
        <time>2018-08-20T16:16:01Z</time>
      </trkpt>
      <trkpt lat="-28.277265" lon="-65.73137">
        <ele>741.8</ele>
        <time>2018-08-20T16:16:02Z</time>
      </trkpt>
      <trkpt lat="-28.277385" lon="-65.73136166666667">
        <ele>741.2</ele>
        <time>2018-08-20T16:16:03Z</time>
      </trkpt>
      <trkpt lat="-28.27751" lon="-65.73137">
        <ele>740.8</ele>
        <time>2018-08-20T16:16:04Z</time>
      </trkpt>
      <trkpt lat="-28.277645" lon="-65.73137">
        <ele>740.7</ele>
        <time>2018-08-20T16:16:05Z</time>
      </trkpt>
      <trkpt lat="-28.27776" lon="-65.73136166666667">
        <ele>740.5</ele>
        <time>2018-08-20T16:16:06Z</time>
      </trkpt>
      <trkpt lat="-28.27787" lon="-65.73134666666667">
        <ele>740.0</ele>
        <time>2018-08-20T16:16:07Z</time>
      </trkpt>
      <trkpt lat="-28.277985" lon="-65.731305">
        <ele>739.4</ele>
        <time>2018-08-20T16:16:08Z</time>
      </trkpt>
      <trkpt lat="-28.2781" lon="-65.73125166666667">
        <ele>738.8</ele>
        <time>2018-08-20T16:16:09Z</time>
      </trkpt>
      <trkpt lat="-28.27822" lon="-65.7312">
        <ele>738.4</ele>
        <time>2018-08-20T16:16:10Z</time>
      </trkpt>
      <trkpt lat="-28.278335" lon="-65.73113333333333">
        <ele>738.2</ele>
        <time>2018-08-20T16:16:11Z</time>
      </trkpt>
      <trkpt lat="-28.278455" lon="-65.73106">
        <ele>737.9</ele>
        <time>2018-08-20T16:16:12Z</time>
      </trkpt>
      <trkpt lat="-28.27857" lon="-65.73099166666667">
        <ele>737.5</ele>
        <time>2018-08-20T16:16:13Z</time>
      </trkpt>
      <trkpt lat="-28.27868" lon="-65.73092">
        <ele>737.0</ele>
        <time>2018-08-20T16:16:14Z</time>
      </trkpt>
      <trkpt lat="-28.278785" lon="-65.73085">
        <ele>735.9</ele>
        <time>2018-08-20T16:16:15Z</time>
      </trkpt>
      <trkpt lat="-28.278885" lon="-65.73079">
        <ele>734.7</ele>
        <time>2018-08-20T16:16:16Z</time>
      </trkpt>
      <trkpt lat="-28.278985" lon="-65.730725">
        <ele>733.3</ele>
        <time>2018-08-20T16:16:17Z</time>
      </trkpt>
      <trkpt lat="-28.279095" lon="-65.73067">
        <ele>732.1</ele>
        <time>2018-08-20T16:16:18Z</time>
      </trkpt>
      <trkpt lat="-28.27921" lon="-65.730625">
        <ele>731.1</ele>
        <time>2018-08-20T16:16:19Z</time>
      </trkpt>
      <trkpt lat="-28.27932" lon="-65.730585">
        <ele>730.2</ele>
        <time>2018-08-20T16:16:20Z</time>
      </trkpt>
      <trkpt lat="-28.27944" lon="-65.73055333333333">
        <ele>729.4</ele>
        <time>2018-08-20T16:16:21Z</time>
      </trkpt>
      <trkpt lat="-28.279555" lon="-65.730535">
        <ele>728.8</ele>
        <time>2018-08-20T16:16:22Z</time>
      </trkpt>
      <trkpt lat="-28.279671666666665" lon="-65.730525">
        <ele>728.2</ele>
        <time>2018-08-20T16:16:23Z</time>
      </trkpt>
      <trkpt lat="-28.279795" lon="-65.730515">
        <ele>727.5</ele>
        <time>2018-08-20T16:16:24Z</time>
      </trkpt>
      <trkpt lat="-28.279905" lon="-65.73050833333333">
        <ele>726.9</ele>
        <time>2018-08-20T16:16:25Z</time>
      </trkpt>
      <trkpt lat="-28.28002" lon="-65.73050666666667">
        <ele>726.2</ele>
        <time>2018-08-20T16:16:26Z</time>
      </trkpt>
      <trkpt lat="-28.28013" lon="-65.73050666666667">
        <ele>725.6</ele>
        <time>2018-08-20T16:16:27Z</time>
      </trkpt>
      <trkpt lat="-28.280235" lon="-65.730515">
        <ele>725.1</ele>
        <time>2018-08-20T16:16:28Z</time>
      </trkpt>
      <trkpt lat="-28.280335" lon="-65.730515">
        <ele>724.6</ele>
        <time>2018-08-20T16:16:29Z</time>
      </trkpt>
      <trkpt lat="-28.280426666666667" lon="-65.730525">
        <ele>724.4</ele>
        <time>2018-08-20T16:16:30Z</time>
      </trkpt>
      <trkpt lat="-28.28053" lon="-65.730535">
        <ele>724.3</ele>
        <time>2018-08-20T16:16:31Z</time>
      </trkpt>
      <trkpt lat="-28.280615" lon="-65.73053666666667">
        <ele>724.3</ele>
        <time>2018-08-20T16:16:32Z</time>
      </trkpt>
      <trkpt lat="-28.2807" lon="-65.730545">
        <ele>724.4</ele>
        <time>2018-08-20T16:16:33Z</time>
      </trkpt>
      <trkpt lat="-28.280785" lon="-65.73055166666667">
        <ele>724.7</ele>
        <time>2018-08-20T16:16:34Z</time>
      </trkpt>
      <trkpt lat="-28.280855" lon="-65.73055666666667">
        <ele>724.9</ele>
        <time>2018-08-20T16:16:35Z</time>
      </trkpt>
      <trkpt lat="-28.28099" lon="-65.73057">
        <ele>724.7</ele>
        <time>2018-08-20T16:16:37Z</time>
      </trkpt>
      <trkpt lat="-28.281095" lon="-65.730575">
        <ele>725.0</ele>
        <time>2018-08-20T16:16:39Z</time>
      </trkpt>
      <trkpt lat="-28.281185" lon="-65.73058">
        <ele>725.0</ele>
        <time>2018-08-20T16:16:41Z</time>
      </trkpt>
      <trkpt lat="-28.28126" lon="-65.73058">
        <ele>725.5</ele>
        <time>2018-08-20T16:16:43Z</time>
      </trkpt>
      <trkpt lat="-28.28135" lon="-65.730575">
        <ele>725.1</ele>
        <time>2018-08-20T16:16:45Z</time>
      </trkpt>
      <trkpt lat="-28.28143" lon="-65.730565">
        <ele>724.2</ele>
        <time>2018-08-20T16:16:47Z</time>
      </trkpt>
      <trkpt lat="-28.281515" lon="-65.73054666666667">
        <ele>723.3</ele>
        <time>2018-08-20T16:16:49Z</time>
      </trkpt>
      <trkpt lat="-28.28159" lon="-65.730535">
        <ele>723.3</ele>
        <time>2018-08-20T16:16:51Z</time>
      </trkpt>
      <trkpt lat="-28.281665" lon="-65.73050833333333">
        <ele>723.3</ele>
        <time>2018-08-20T16:16:53Z</time>
      </trkpt>
      <trkpt lat="-28.281755" lon="-65.7305">
        <ele>723.6</ele>
        <time>2018-08-20T16:16:56Z</time>
      </trkpt>
      <trkpt lat="-28.281865" lon="-65.730485">
        <ele>724.1</ele>
        <time>2018-08-20T16:16:59Z</time>
      </trkpt>
      <trkpt lat="-28.28194" lon="-65.73047">
        <ele>724.8</ele>
        <time>2018-08-20T16:17:01Z</time>
      </trkpt>
      <trkpt lat="-28.282045" lon="-65.73044">
        <ele>724.8</ele>
        <time>2018-08-20T16:17:04Z</time>
      </trkpt>
      <trkpt lat="-28.28212" lon="-65.73041166666667">
        <ele>725.2</ele>
        <time>2018-08-20T16:17:06Z</time>
      </trkpt>
      <trkpt lat="-28.2822" lon="-65.730385">
        <ele>726.5</ele>
        <time>2018-08-20T16:17:08Z</time>
      </trkpt>
      <trkpt lat="-28.28227" lon="-65.73036">
        <ele>726.5</ele>
        <time>2018-08-20T16:17:10Z</time>
      </trkpt>
      <trkpt lat="-28.28236" lon="-65.73032666666667">
        <ele>726.5</ele>
        <time>2018-08-20T16:17:13Z</time>
      </trkpt>
      <trkpt lat="-28.282435" lon="-65.7303">
        <ele>726.7</ele>
        <time>2018-08-20T16:17:15Z</time>
      </trkpt>
      <trkpt lat="-28.282535" lon="-65.730265">
        <ele>726.8</ele>
        <time>2018-08-20T16:17:18Z</time>
      </trkpt>
      <trkpt lat="-28.282625" lon="-65.73021833333334">
        <ele>726.9</ele>
        <time>2018-08-20T16:17:21Z</time>
      </trkpt>
      <trkpt lat="-28.2827" lon="-65.730185">
        <ele>727.1</ele>
        <time>2018-08-20T16:17:23Z</time>
      </trkpt>
      <trkpt lat="-28.282783333333334" lon="-65.73013">
        <ele>727.4</ele>
        <time>2018-08-20T16:17:27Z</time>
      </trkpt>
      <trkpt lat="-28.282875" lon="-65.73006333333333">
        <ele>727.8</ele>
        <time>2018-08-20T16:17:29Z</time>
      </trkpt>
      <trkpt lat="-28.28295" lon="-65.73001833333333">
        <ele>728.1</ele>
        <time>2018-08-20T16:17:32Z</time>
      </trkpt>
      <trkpt lat="-28.283035" lon="-65.72996166666667">
        <ele>728.1</ele>
        <time>2018-08-20T16:17:35Z</time>
      </trkpt>
      <trkpt lat="-28.28311" lon="-65.72991">
        <ele>728.2</ele>
        <time>2018-08-20T16:17:38Z</time>
      </trkpt>
      <trkpt lat="-28.28318" lon="-65.72986">
        <ele>728.4</ele>
        <time>2018-08-20T16:17:41Z</time>
      </trkpt>
      <trkpt lat="-28.28325" lon="-65.72979333333333">
        <ele>728.6</ele>
        <time>2018-08-20T16:17:44Z</time>
      </trkpt>
      <trkpt lat="-28.28332" lon="-65.72973">
        <ele>729.0</ele>
        <time>2018-08-20T16:17:47Z</time>
      </trkpt>
      <trkpt lat="-28.283386666666665" lon="-65.72967">
        <ele>729.5</ele>
        <time>2018-08-20T16:17:50Z</time>
      </trkpt>
      <trkpt lat="-28.283456666666666" lon="-65.729595">
        <ele>730.1</ele>
        <time>2018-08-20T16:17:53Z</time>
      </trkpt>
      <trkpt lat="-28.28353" lon="-65.729515">
        <ele>730.6</ele>
        <time>2018-08-20T16:17:56Z</time>
      </trkpt>
      <trkpt lat="-28.283595" lon="-65.729455">
        <ele>730.7</ele>
        <time>2018-08-20T16:17:58Z</time>
      </trkpt>
      <trkpt lat="-28.283645" lon="-65.72939166666667">
        <ele>730.9</ele>
        <time>2018-08-20T16:18:01Z</time>
      </trkpt>
      <trkpt lat="-28.283715" lon="-65.729315">
        <ele>731.1</ele>
        <time>2018-08-20T16:18:04Z</time>
      </trkpt>
      <trkpt lat="-28.283766666666665" lon="-65.72925">
        <ele>731.3</ele>
        <time>2018-08-20T16:18:06Z</time>
      </trkpt>
      <trkpt lat="-28.283825" lon="-65.72919">
        <ele>731.4</ele>
        <time>2018-08-20T16:18:08Z</time>
      </trkpt>
      <trkpt lat="-28.28388" lon="-65.72913">
        <ele>732.1</ele>
        <time>2018-08-20T16:18:10Z</time>
      </trkpt>
      <trkpt lat="-28.28393" lon="-65.729065">
        <ele>732.8</ele>
        <time>2018-08-20T16:18:12Z</time>
      </trkpt>
      <trkpt lat="-28.283985" lon="-65.729005">
        <ele>733.2</ele>
        <time>2018-08-20T16:18:14Z</time>
      </trkpt>
      <trkpt lat="-28.284035" lon="-65.72895">
        <ele>733.1</ele>
        <time>2018-08-20T16:18:16Z</time>
      </trkpt>
      <trkpt lat="-28.28409" lon="-65.728885">
        <ele>733.7</ele>
        <time>2018-08-20T16:18:18Z</time>
      </trkpt>
      <trkpt lat="-28.28415" lon="-65.72882">
        <ele>734.7</ele>
        <time>2018-08-20T16:18:20Z</time>
      </trkpt>
      <trkpt lat="-28.284205" lon="-65.728745">
        <ele>735.0</ele>
        <time>2018-08-20T16:18:22Z</time>
      </trkpt>
      <trkpt lat="-28.284255" lon="-65.72869">
        <ele>734.8</ele>
        <time>2018-08-20T16:18:24Z</time>
      </trkpt>
      <trkpt lat="-28.284305" lon="-65.728625">
        <ele>734.9</ele>
        <time>2018-08-20T16:18:26Z</time>
      </trkpt>
      <trkpt lat="-28.284365" lon="-65.728555">
        <ele>735.6</ele>
        <time>2018-08-20T16:18:28Z</time>
      </trkpt>
      <trkpt lat="-28.284425" lon="-65.72848833333333">
        <ele>736.0</ele>
        <time>2018-08-20T16:18:30Z</time>
      </trkpt>
      <trkpt lat="-28.284475" lon="-65.728435">
        <ele>736.3</ele>
        <time>2018-08-20T16:18:32Z</time>
      </trkpt>
      <trkpt lat="-28.28453" lon="-65.72836">
        <ele>736.2</ele>
        <time>2018-08-20T16:18:34Z</time>
      </trkpt>
      <trkpt lat="-28.284585" lon="-65.728295">
        <ele>735.9</ele>
        <time>2018-08-20T16:18:36Z</time>
      </trkpt>
      <trkpt lat="-28.284631666666666" lon="-65.72823">
        <ele>735.3</ele>
        <time>2018-08-20T16:18:38Z</time>
      </trkpt>
      <trkpt lat="-28.284685" lon="-65.728165">
        <ele>734.7</ele>
        <time>2018-08-20T16:18:40Z</time>
      </trkpt>
      <trkpt lat="-28.284735" lon="-65.72809333333333">
        <ele>734.1</ele>
        <time>2018-08-20T16:18:42Z</time>
      </trkpt>
      <trkpt lat="-28.284785" lon="-65.72802">
        <ele>733.5</ele>
        <time>2018-08-20T16:18:44Z</time>
      </trkpt>
      <trkpt lat="-28.284845" lon="-65.727955">
        <ele>733.1</ele>
        <time>2018-08-20T16:18:46Z</time>
      </trkpt>
      <trkpt lat="-28.2849" lon="-65.72789">
        <ele>732.9</ele>
        <time>2018-08-20T16:18:48Z</time>
      </trkpt>
      <trkpt lat="-28.28496" lon="-65.727815">
        <ele>732.4</ele>
        <time>2018-08-20T16:18:50Z</time>
      </trkpt>
      <trkpt lat="-28.28504" lon="-65.72772333333333">
        <ele>733.0</ele>
        <time>2018-08-20T16:18:53Z</time>
      </trkpt>
      <trkpt lat="-28.285105" lon="-65.727655">
        <ele>733.1</ele>
        <time>2018-08-20T16:18:55Z</time>
      </trkpt>
      <trkpt lat="-28.285175" lon="-65.72757">
        <ele>732.6</ele>
        <time>2018-08-20T16:18:57Z</time>
      </trkpt>
      <trkpt lat="-28.285245" lon="-65.72748">
        <ele>732.1</ele>
        <time>2018-08-20T16:18:59Z</time>
      </trkpt>
      <trkpt lat="-28.285315" lon="-65.7274">
        <ele>731.8</ele>
        <time>2018-08-20T16:19:01Z</time>
      </trkpt>
      <trkpt lat="-28.28538" lon="-65.72732">
        <ele>731.6</ele>
        <time>2018-08-20T16:19:03Z</time>
      </trkpt>
      <trkpt lat="-28.285445" lon="-65.727225">
        <ele>731.1</ele>
        <time>2018-08-20T16:19:05Z</time>
      </trkpt>
      <trkpt lat="-28.285515" lon="-65.72714">
        <ele>730.7</ele>
        <time>2018-08-20T16:19:07Z</time>
      </trkpt>
      <trkpt lat="-28.28557" lon="-65.72708">
        <ele>731.2</ele>
        <time>2018-08-20T16:19:09Z</time>
      </trkpt>
      <trkpt lat="-28.285625" lon="-65.72701">
        <ele>731.7</ele>
        <time>2018-08-20T16:19:11Z</time>
      </trkpt>
      <trkpt lat="-28.285685" lon="-65.726925">
        <ele>731.9</ele>
        <time>2018-08-20T16:19:13Z</time>
      </trkpt>
      <trkpt lat="-28.285745" lon="-65.72685">
        <ele>731.8</ele>
        <time>2018-08-20T16:19:15Z</time>
      </trkpt>
      <trkpt lat="-28.285805" lon="-65.72677">
        <ele>731.7</ele>
        <time>2018-08-20T16:19:17Z</time>
      </trkpt>
      <trkpt lat="-28.285865" lon="-65.726685">
        <ele>731.3</ele>
        <time>2018-08-20T16:19:19Z</time>
      </trkpt>
      <trkpt lat="-28.285935" lon="-65.726585">
        <ele>731.0</ele>
        <time>2018-08-20T16:19:21Z</time>
      </trkpt>
      <trkpt lat="-28.286005" lon="-65.726495">
        <ele>730.5</ele>
        <time>2018-08-20T16:19:23Z</time>
      </trkpt>
      <trkpt lat="-28.286075" lon="-65.7264">
        <ele>729.9</ele>
        <time>2018-08-20T16:19:25Z</time>
      </trkpt>
      <trkpt lat="-28.28614" lon="-65.726315">
        <ele>729.5</ele>
        <time>2018-08-20T16:19:27Z</time>
      </trkpt>
      <trkpt lat="-28.286205" lon="-65.72622">
        <ele>729.1</ele>
        <time>2018-08-20T16:19:29Z</time>
      </trkpt>
      <trkpt lat="-28.28628" lon="-65.72611333333333">
        <ele>728.6</ele>
        <time>2018-08-20T16:19:31Z</time>
      </trkpt>
      <trkpt lat="-28.286355" lon="-65.72601">
        <ele>727.5</ele>
        <time>2018-08-20T16:19:33Z</time>
      </trkpt>
      <trkpt lat="-28.286445" lon="-65.72589166666667">
        <ele>726.3</ele>
        <time>2018-08-20T16:19:35Z</time>
      </trkpt>
      <trkpt lat="-28.28649" lon="-65.725835">
        <ele>725.7</ele>
        <time>2018-08-20T16:19:36Z</time>
      </trkpt>
      <trkpt lat="-28.28654" lon="-65.72577">
        <ele>725.2</ele>
        <time>2018-08-20T16:19:37Z</time>
      </trkpt>
      <trkpt lat="-28.286595" lon="-65.7257">
        <ele>724.7</ele>
        <time>2018-08-20T16:19:38Z</time>
      </trkpt>
      <trkpt lat="-28.28668" lon="-65.725575">
        <ele>723.8</ele>
        <time>2018-08-20T16:19:40Z</time>
      </trkpt>
      <trkpt lat="-28.28674" lon="-65.7255">
        <ele>723.5</ele>
        <time>2018-08-20T16:19:41Z</time>
      </trkpt>
      <trkpt lat="-28.28679" lon="-65.72543">
        <ele>723.2</ele>
        <time>2018-08-20T16:19:42Z</time>
      </trkpt>
      <trkpt lat="-28.286836666666666" lon="-65.72535666666667">
        <ele>722.7</ele>
        <time>2018-08-20T16:19:43Z</time>
      </trkpt>
      <trkpt lat="-28.286895" lon="-65.725285">
        <ele>722.1</ele>
        <time>2018-08-20T16:19:44Z</time>
      </trkpt>
      <trkpt lat="-28.286946666666665" lon="-65.72521">
        <ele>721.6</ele>
        <time>2018-08-20T16:19:45Z</time>
      </trkpt>
      <trkpt lat="-28.287005" lon="-65.72513166666667">
        <ele>721.3</ele>
        <time>2018-08-20T16:19:46Z</time>
      </trkpt>
      <trkpt lat="-28.28706" lon="-65.72506">
        <ele>720.8</ele>
        <time>2018-08-20T16:19:47Z</time>
      </trkpt>
      <trkpt lat="-28.28712" lon="-65.724985">
        <ele>720.4</ele>
        <time>2018-08-20T16:19:48Z</time>
      </trkpt>
      <trkpt lat="-28.287171666666666" lon="-65.72491666666667">
        <ele>720.3</ele>
        <time>2018-08-20T16:19:49Z</time>
      </trkpt>
      <trkpt lat="-28.28724" lon="-65.72484">
        <ele>720.0</ele>
        <time>2018-08-20T16:19:50Z</time>
      </trkpt>
      <trkpt lat="-28.2873" lon="-65.72477166666667">
        <ele>719.8</ele>
        <time>2018-08-20T16:19:51Z</time>
      </trkpt>
      <trkpt lat="-28.28736" lon="-65.7247">
        <ele>719.7</ele>
        <time>2018-08-20T16:19:52Z</time>
      </trkpt>
      <trkpt lat="-28.28742" lon="-65.72462666666667">
        <ele>719.6</ele>
        <time>2018-08-20T16:19:53Z</time>
      </trkpt>
      <trkpt lat="-28.287475" lon="-65.72456">
        <ele>719.1</ele>
        <time>2018-08-20T16:19:54Z</time>
      </trkpt>
      <trkpt lat="-28.28753" lon="-65.724495">
        <ele>718.4</ele>
        <time>2018-08-20T16:19:55Z</time>
      </trkpt>
      <trkpt lat="-28.287585" lon="-65.72443">
        <ele>717.6</ele>
        <time>2018-08-20T16:19:56Z</time>
      </trkpt>
      <trkpt lat="-28.287685" lon="-65.724335">
        <ele>716.5</ele>
        <time>2018-08-20T16:19:58Z</time>
      </trkpt>
      <trkpt lat="-28.2878" lon="-65.724225">
        <ele>716.3</ele>
        <time>2018-08-20T16:20:00Z</time>
      </trkpt>
      <trkpt lat="-28.287855" lon="-65.724165">
        <ele>716.4</ele>
        <time>2018-08-20T16:20:01Z</time>
      </trkpt>
      <trkpt lat="-28.28793" lon="-65.72410333333333">
        <ele>716.4</ele>
        <time>2018-08-20T16:20:02Z</time>
      </trkpt>
      <trkpt lat="-28.287995" lon="-65.724045">
        <ele>716.4</ele>
        <time>2018-08-20T16:20:03Z</time>
      </trkpt>
      <trkpt lat="-28.288065" lon="-65.72399">
        <ele>716.0</ele>
        <time>2018-08-20T16:20:04Z</time>
      </trkpt>
      <trkpt lat="-28.28813" lon="-65.72394">
        <ele>715.5</ele>
        <time>2018-08-20T16:20:05Z</time>
      </trkpt>
      <trkpt lat="-28.288195" lon="-65.72388333333333">
        <ele>715.2</ele>
        <time>2018-08-20T16:20:06Z</time>
      </trkpt>
      <trkpt lat="-28.28826" lon="-65.72383333333333">
        <ele>714.9</ele>
        <time>2018-08-20T16:20:07Z</time>
      </trkpt>
      <trkpt lat="-28.288325" lon="-65.723785">
        <ele>714.6</ele>
        <time>2018-08-20T16:20:08Z</time>
      </trkpt>
      <trkpt lat="-28.28839" lon="-65.723735">
        <ele>714.2</ele>
        <time>2018-08-20T16:20:09Z</time>
      </trkpt>
      <trkpt lat="-28.28846" lon="-65.72369">
        <ele>713.7</ele>
        <time>2018-08-20T16:20:10Z</time>
      </trkpt>
      <trkpt lat="-28.28853" lon="-65.72364">
        <ele>713.1</ele>
        <time>2018-08-20T16:20:11Z</time>
      </trkpt>
      <trkpt lat="-28.2886" lon="-65.723595">
        <ele>712.3</ele>
        <time>2018-08-20T16:20:12Z</time>
      </trkpt>
      <trkpt lat="-28.28867" lon="-65.72355166666667">
        <ele>711.3</ele>
        <time>2018-08-20T16:20:13Z</time>
      </trkpt>
      <trkpt lat="-28.288735" lon="-65.72351166666667">
        <ele>710.8</ele>
        <time>2018-08-20T16:20:14Z</time>
      </trkpt>
      <trkpt lat="-28.288805" lon="-65.72347">
        <ele>710.7</ele>
        <time>2018-08-20T16:20:15Z</time>
      </trkpt>
      <trkpt lat="-28.288875" lon="-65.72343166666667">
        <ele>710.3</ele>
        <time>2018-08-20T16:20:16Z</time>
      </trkpt>
      <trkpt lat="-28.28895" lon="-65.723395">
        <ele>710.2</ele>
        <time>2018-08-20T16:20:17Z</time>
      </trkpt>
      <trkpt lat="-28.28903" lon="-65.72336">
        <ele>710.2</ele>
        <time>2018-08-20T16:20:18Z</time>
      </trkpt>
      <trkpt lat="-28.289105" lon="-65.72332">
        <ele>709.8</ele>
        <time>2018-08-20T16:20:19Z</time>
      </trkpt>
      <trkpt lat="-28.28918" lon="-65.72329">
        <ele>709.4</ele>
        <time>2018-08-20T16:20:20Z</time>
      </trkpt>
      <trkpt lat="-28.289255" lon="-65.72325333333333">
        <ele>708.9</ele>
        <time>2018-08-20T16:20:21Z</time>
      </trkpt>
      <trkpt lat="-28.289325" lon="-65.723225">
        <ele>708.4</ele>
        <time>2018-08-20T16:20:22Z</time>
      </trkpt>
      <trkpt lat="-28.289395" lon="-65.723195">
        <ele>708.2</ele>
        <time>2018-08-20T16:20:23Z</time>
      </trkpt>
      <trkpt lat="-28.28953" lon="-65.723135">
        <ele>707.4</ele>
        <time>2018-08-20T16:20:25Z</time>
      </trkpt>
      <trkpt lat="-28.28965" lon="-65.72309">
        <ele>706.6</ele>
        <time>2018-08-20T16:20:27Z</time>
      </trkpt>
      <trkpt lat="-28.289755" lon="-65.72305">
        <ele>705.6</ele>
        <time>2018-08-20T16:20:29Z</time>
      </trkpt>
      <trkpt lat="-28.28984" lon="-65.72307">
        <ele>704.9</ele>
        <time>2018-08-20T16:20:32Z</time>
      </trkpt>
      <trkpt lat="-28.28984" lon="-65.723155">
        <ele>704.5</ele>
        <time>2018-08-20T16:20:35Z</time>
      </trkpt>
      <trkpt lat="-28.289785" lon="-65.72323">
        <ele>702.8</ele>
        <time>2018-08-20T16:20:37Z</time>
      </trkpt>
      <trkpt lat="-28.28971" lon="-65.723305">
        <ele>701.4</ele>
        <time>2018-08-20T16:20:39Z</time>
      </trkpt>
      <trkpt lat="-28.28963" lon="-65.72338">
        <ele>699.5</ele>
        <time>2018-08-20T16:20:41Z</time>
      </trkpt>
      <trkpt lat="-28.28955" lon="-65.723445">
        <ele>697.6</ele>
        <time>2018-08-20T16:20:43Z</time>
      </trkpt>
      <trkpt lat="-28.28946" lon="-65.723515">
        <ele>695.8</ele>
        <time>2018-08-20T16:20:45Z</time>
      </trkpt>
      <trkpt lat="-28.28936" lon="-65.723605">
        <ele>694.5</ele>
        <time>2018-08-20T16:20:47Z</time>
      </trkpt>
      <trkpt lat="-28.289265" lon="-65.72369">
        <ele>693.3</ele>
        <time>2018-08-20T16:20:49Z</time>
      </trkpt>
      <trkpt lat="-28.289175" lon="-65.723775">
        <ele>692.9</ele>
        <time>2018-08-20T16:20:51Z</time>
      </trkpt>
      <trkpt lat="-28.28912" lon="-65.72383833333333">
        <ele>693.0</ele>
        <time>2018-08-20T16:20:52Z</time>
      </trkpt>
      <trkpt lat="-28.289065" lon="-65.7239">
        <ele>693.2</ele>
        <time>2018-08-20T16:20:53Z</time>
      </trkpt>
      <trkpt lat="-28.288975" lon="-65.724">
        <ele>693.5</ele>
        <time>2018-08-20T16:20:55Z</time>
      </trkpt>
      <trkpt lat="-28.288895" lon="-65.72409333333333">
        <ele>692.2</ele>
        <time>2018-08-20T16:20:57Z</time>
      </trkpt>
      <trkpt lat="-28.288825" lon="-65.724165">
        <ele>689.6</ele>
        <time>2018-08-20T16:20:59Z</time>
      </trkpt>
      <trkpt lat="-28.28875" lon="-65.72425">
        <ele>689.4</ele>
        <time>2018-08-20T16:21:01Z</time>
      </trkpt>
      <trkpt lat="-28.288685" lon="-65.72431833333333">
        <ele>689.3</ele>
        <time>2018-08-20T16:21:03Z</time>
      </trkpt>
      <trkpt lat="-28.288625" lon="-65.72439">
        <ele>689.3</ele>
        <time>2018-08-20T16:21:05Z</time>
      </trkpt>
      <trkpt lat="-28.28857" lon="-65.72445">
        <ele>689.4</ele>
        <time>2018-08-20T16:21:07Z</time>
      </trkpt>
      <trkpt lat="-28.288501666666665" lon="-65.72452">
        <ele>689.5</ele>
        <time>2018-08-20T16:21:10Z</time>
      </trkpt>
      <trkpt lat="-28.288445" lon="-65.72459">
        <ele>689.6</ele>
        <time>2018-08-20T16:21:13Z</time>
      </trkpt>
      <trkpt lat="-28.288385" lon="-65.72466">
        <ele>689.8</ele>
        <time>2018-08-20T16:21:16Z</time>
      </trkpt>
      <trkpt lat="-28.28832" lon="-65.72472">
        <ele>690.0</ele>
        <time>2018-08-20T16:21:19Z</time>
      </trkpt>
      <trkpt lat="-28.288245" lon="-65.724805">
        <ele>690.3</ele>
        <time>2018-08-20T16:21:22Z</time>
      </trkpt>
      <trkpt lat="-28.288195" lon="-65.72486666666667">
        <ele>690.5</ele>
        <time>2018-08-20T16:21:24Z</time>
      </trkpt>
      <trkpt lat="-28.288135" lon="-65.724945">
        <ele>690.8</ele>
        <time>2018-08-20T16:21:27Z</time>
      </trkpt>
      <trkpt lat="-28.288081666666667" lon="-65.72501">
        <ele>690.9</ele>
        <time>2018-08-20T16:21:29Z</time>
      </trkpt>
      <trkpt lat="-28.288035" lon="-65.725085">
        <ele>691.0</ele>
        <time>2018-08-20T16:21:32Z</time>
      </trkpt>
      <trkpt lat="-28.287985" lon="-65.72517666666667">
        <ele>691.3</ele>
        <time>2018-08-20T16:21:35Z</time>
      </trkpt>
      <trkpt lat="-28.28795" lon="-65.72526">
        <ele>691.5</ele>
        <time>2018-08-20T16:21:38Z</time>
      </trkpt>
      <trkpt lat="-28.287925" lon="-65.72535">
        <ele>691.9</ele>
        <time>2018-08-20T16:21:41Z</time>
      </trkpt>
      <trkpt lat="-28.28794" lon="-65.72544166666667">
        <ele>692.6</ele>
        <time>2018-08-20T16:21:45Z</time>
      </trkpt>
      <trkpt lat="-28.287965" lon="-65.725475">
        <ele>693.2</ele>
        <time>2018-08-20T16:21:52Z</time>
      </trkpt>
      <trkpt lat="-28.287965" lon="-65.725475">
        <ele>693.3</ele>
        <time>2018-08-20T16:21:54Z</time>
      </trkpt>
      <trkpt lat="-28.287915" lon="-65.7255">
        <ele>694.2</ele>
        <time>2018-08-20T16:26:01Z</time>
      </trkpt>
      <trkpt lat="-28.287915" lon="-65.7255">
        <ele>694.1</ele>
        <time>2018-08-20T16:26:02Z</time>
      </trkpt>
      <trkpt lat="-28.287905" lon="-65.72548833333333">
        <ele>694.6</ele>
        <time>2018-08-20T16:26:16Z</time>
      </trkpt>
      <trkpt lat="-28.287905" lon="-65.72548833333333">
        <ele>694.6</ele>
        <time>2018-08-20T16:26:17Z</time>
      </trkpt>
      <trkpt lat="-28.287915" lon="-65.725515">
        <ele>693.5</ele>
        <time>2018-08-20T16:30:18Z</time>
      </trkpt>
      <trkpt lat="-28.287915" lon="-65.725515">
        <ele>693.5</ele>
        <time>2018-08-20T16:30:19Z</time>
      </trkpt>
      <trkpt lat="-28.287915" lon="-65.72553333333333">
        <ele>695.0</ele>
        <time>2018-08-20T16:30:53Z</time>
      </trkpt>
      <trkpt lat="-28.287915" lon="-65.72553333333333">
        <ele>695.3</ele>
        <time>2018-08-20T16:30:54Z</time>
      </trkpt>
      <trkpt lat="-28.28791" lon="-65.72553166666667">
        <ele>696.4</ele>
        <time>2018-08-20T16:33:07Z</time>
      </trkpt>
      <trkpt lat="-28.28791" lon="-65.72553166666667">
        <ele>696.4</ele>
        <time>2018-08-20T16:33:08Z</time>
      </trkpt>
      <trkpt lat="-28.287885" lon="-65.72556">
        <ele>694.3</ele>
        <time>2018-08-20T16:33:24Z</time>
      </trkpt>
      <trkpt lat="-28.287885" lon="-65.72556">
        <ele>694.0</ele>
        <time>2018-08-20T16:33:29Z</time>
      </trkpt>
      <trkpt lat="-28.28789" lon="-65.725555">
        <ele>693.9</ele>
        <time>2018-08-20T16:33:59Z</time>
      </trkpt>
      <trkpt lat="-28.28789" lon="-65.725555">
        <ele>693.9</ele>
        <time>2018-08-20T16:34:00Z</time>
      </trkpt>
      <trkpt lat="-28.28791" lon="-65.725545">
        <ele>694.1</ele>
        <time>2018-08-20T16:35:22Z</time>
      </trkpt>
      <trkpt lat="-28.28791" lon="-65.725545">
        <ele>694.1</ele>
        <time>2018-08-20T16:35:23Z</time>
      </trkpt>
      <trkpt lat="-28.287885" lon="-65.725555">
        <ele>690.4</ele>
        <time>2018-08-20T16:35:56Z</time>
      </trkpt>
      <trkpt lat="-28.287885" lon="-65.725555">
        <ele>690.4</ele>
        <time>2018-08-20T16:35:57Z</time>
      </trkpt>
      <trkpt lat="-28.28792" lon="-65.72553333333333">
        <ele>691.5</ele>
        <time>2018-08-20T16:36:35Z</time>
      </trkpt>
      <trkpt lat="-28.28792" lon="-65.72553333333333">
        <ele>691.8</ele>
        <time>2018-08-20T16:36:38Z</time>
      </trkpt>
      <trkpt lat="-28.2879" lon="-65.725555">
        <ele>693.0</ele>
        <time>2018-08-20T16:38:25Z</time>
      </trkpt>
      <trkpt lat="-28.2879" lon="-65.725555">
        <ele>693.0</ele>
        <time>2018-08-20T16:38:29Z</time>
      </trkpt>
      <trkpt lat="-28.28792" lon="-65.725545">
        <ele>690.4</ele>
        <time>2018-08-20T16:40:32Z</time>
      </trkpt>
      <trkpt lat="-28.28792" lon="-65.725545">
        <ele>690.5</ele>
        <time>2018-08-20T16:40:33Z</time>
      </trkpt>
      <trkpt lat="-28.28794" lon="-65.725555">
        <ele>694.8</ele>
        <time>2018-08-20T16:42:23Z</time>
      </trkpt>
      <trkpt lat="-28.28794" lon="-65.725555">
        <ele>694.8</ele>
        <time>2018-08-20T16:42:24Z</time>
      </trkpt>
      <trkpt lat="-28.28793" lon="-65.725545">
        <ele>693.9</ele>
        <time>2018-08-20T16:43:44Z</time>
      </trkpt>
      <trkpt lat="-28.28793" lon="-65.725545">
        <ele>693.9</ele>
        <time>2018-08-20T16:43:45Z</time>
      </trkpt>
      <trkpt lat="-28.28792" lon="-65.725555">
        <ele>699.8</ele>
        <time>2018-08-20T16:53:15Z</time>
      </trkpt>
      <trkpt lat="-28.28792" lon="-65.725555">
        <ele>699.8</ele>
        <time>2018-08-20T16:53:16Z</time>
      </trkpt>
      <trkpt lat="-28.287925" lon="-65.725545">
        <ele>693.2</ele>
        <time>2018-08-20T17:03:55Z</time>
      </trkpt>
      <trkpt lat="-28.287915" lon="-65.725545">
        <ele>693.2</ele>
        <time>2018-08-20T17:04:03Z</time>
      </trkpt>
      <trkpt lat="-28.287915" lon="-65.725545">
        <ele>693.2</ele>
        <time>2018-08-20T17:04:04Z</time>
      </trkpt>
      <trkpt lat="-28.28792" lon="-65.72553333333333">
        <ele>696.6</ele>
        <time>2018-08-20T17:05:24Z</time>
      </trkpt>
      <trkpt lat="-28.28792" lon="-65.72553333333333">
        <ele>696.6</ele>
        <time>2018-08-20T17:05:25Z</time>
      </trkpt>
      <trkpt lat="-28.28792" lon="-65.725545">
        <ele>694.7</ele>
        <time>2018-08-20T17:06:23Z</time>
      </trkpt>
      <trkpt lat="-28.28792" lon="-65.725545">
        <ele>694.6</ele>
        <time>2018-08-20T17:06:24Z</time>
      </trkpt>
      <trkpt lat="-28.287925" lon="-65.725515">
        <ele>689.6</ele>
        <time>2018-08-20T17:06:45Z</time>
      </trkpt>
      <trkpt lat="-28.287965" lon="-65.72547">
        <ele>690.0</ele>
        <time>2018-08-20T17:06:52Z</time>
      </trkpt>
      <trkpt lat="-28.288" lon="-65.72544">
        <ele>690.4</ele>
        <time>2018-08-20T17:06:59Z</time>
      </trkpt>
      <trkpt lat="-28.288" lon="-65.72544">
        <ele>690.4</ele>
        <time>2018-08-20T17:07:02Z</time>
      </trkpt>
      <trkpt lat="-28.287995" lon="-65.72544666666667">
        <ele>691.3</ele>
        <time>2018-08-20T17:07:59Z</time>
      </trkpt>
      <trkpt lat="-28.287995" lon="-65.72544666666667">
        <ele>691.3</ele>
        <time>2018-08-20T17:08:00Z</time>
      </trkpt>
      <trkpt lat="-28.288005" lon="-65.72543666666667">
        <ele>695.3</ele>
        <time>2018-08-20T17:10:07Z</time>
      </trkpt>
      <trkpt lat="-28.288005" lon="-65.72543666666667">
        <ele>695.3</ele>
        <time>2018-08-20T17:10:09Z</time>
      </trkpt>
      <trkpt lat="-28.288025" lon="-65.72546">
        <ele>696.4</ele>
        <time>2018-08-20T17:10:22Z</time>
      </trkpt>
      <trkpt lat="-28.288025" lon="-65.72546">
        <ele>696.4</ele>
        <time>2018-08-20T17:10:23Z</time>
      </trkpt>
      <trkpt lat="-28.28803" lon="-65.72545">
        <ele>695.3</ele>
        <time>2018-08-20T17:11:49Z</time>
      </trkpt>
      <trkpt lat="-28.28803" lon="-65.72545">
        <ele>695.3</ele>
        <time>2018-08-20T17:11:50Z</time>
      </trkpt>
      <trkpt lat="-28.28803" lon="-65.72543">
        <ele>694.9</ele>
        <time>2018-08-20T17:12:36Z</time>
      </trkpt>
      <trkpt lat="-28.28802" lon="-65.725425">
        <ele>694.9</ele>
        <time>2018-08-20T17:12:37Z</time>
      </trkpt>
      <trkpt lat="-28.287965" lon="-65.725415">
        <ele>695.4</ele>
        <time>2018-08-20T17:12:44Z</time>
      </trkpt>
      <trkpt lat="-28.287965" lon="-65.725415">
        <ele>695.5</ele>
        <time>2018-08-20T17:12:46Z</time>
      </trkpt>
      <trkpt lat="-28.287955" lon="-65.72542">
        <ele>695.4</ele>
        <time>2018-08-20T17:12:55Z</time>
      </trkpt>
      <trkpt lat="-28.287955" lon="-65.72542">
        <ele>695.4</ele>
        <time>2018-08-20T17:12:56Z</time>
      </trkpt>
      <trkpt lat="-28.287955" lon="-65.72543">
        <ele>693.1</ele>
        <time>2018-08-20T17:13:09Z</time>
      </trkpt>
      <trkpt lat="-28.287955" lon="-65.72543">
        <ele>693.1</ele>
        <time>2018-08-20T17:13:10Z</time>
      </trkpt>
      <trkpt lat="-28.287943333333335" lon="-65.72544166666667">
        <ele>693.3</ele>
        <time>2018-08-20T17:13:40Z</time>
      </trkpt>
      <trkpt lat="-28.287943333333335" lon="-65.72544166666667">
        <ele>693.3</ele>
        <time>2018-08-20T17:13:41Z</time>
      </trkpt>
      <trkpt lat="-28.287925" lon="-65.72544">
        <ele>692.0</ele>
        <time>2018-08-20T17:14:02Z</time>
      </trkpt>
      <trkpt lat="-28.287925" lon="-65.72544">
        <ele>692.0</ele>
        <time>2018-08-20T17:14:03Z</time>
      </trkpt>
      <trkpt lat="-28.287915" lon="-65.72544833333333">
        <ele>692.3</ele>
        <time>2018-08-20T17:17:52Z</time>
      </trkpt>
      <trkpt lat="-28.287915" lon="-65.72544833333333">
        <ele>692.3</ele>
        <time>2018-08-20T17:17:53Z</time>
      </trkpt>
      <trkpt lat="-28.287905" lon="-65.725425">
        <ele>693.1</ele>
        <time>2018-08-20T17:19:13Z</time>
      </trkpt>
      <trkpt lat="-28.28791" lon="-65.72542">
        <ele>693.0</ele>
        <time>2018-08-20T17:19:14Z</time>
      </trkpt>
      <trkpt lat="-28.287941666666665" lon="-65.72534">
        <ele>693.2</ele>
        <time>2018-08-20T17:19:24Z</time>
      </trkpt>
      <trkpt lat="-28.287975" lon="-65.725235">
        <ele>693.3</ele>
        <time>2018-08-20T17:19:27Z</time>
      </trkpt>
      <trkpt lat="-28.28801" lon="-65.72515">
        <ele>693.6</ele>
        <time>2018-08-20T17:19:29Z</time>
      </trkpt>
      <trkpt lat="-28.28806" lon="-65.725065">
        <ele>693.3</ele>
        <time>2018-08-20T17:19:31Z</time>
      </trkpt>
      <trkpt lat="-28.288115" lon="-65.724985">
        <ele>692.7</ele>
        <time>2018-08-20T17:19:33Z</time>
      </trkpt>
      <trkpt lat="-28.288165" lon="-65.724905">
        <ele>692.5</ele>
        <time>2018-08-20T17:19:35Z</time>
      </trkpt>
      <trkpt lat="-28.28822" lon="-65.72482333333333">
        <ele>692.6</ele>
        <time>2018-08-20T17:19:37Z</time>
      </trkpt>
      <trkpt lat="-28.28828" lon="-65.72476">
        <ele>692.9</ele>
        <time>2018-08-20T17:19:39Z</time>
      </trkpt>
      <trkpt lat="-28.28834" lon="-65.72469166666667">
        <ele>693.5</ele>
        <time>2018-08-20T17:19:41Z</time>
      </trkpt>
      <trkpt lat="-28.2884" lon="-65.724635">
        <ele>694.1</ele>
        <time>2018-08-20T17:19:43Z</time>
      </trkpt>
      <trkpt lat="-28.28846" lon="-65.724575">
        <ele>695.0</ele>
        <time>2018-08-20T17:19:45Z</time>
      </trkpt>
      <trkpt lat="-28.28853" lon="-65.724515">
        <ele>695.6</ele>
        <time>2018-08-20T17:19:47Z</time>
      </trkpt>
      <trkpt lat="-28.28859" lon="-65.724445">
        <ele>696.4</ele>
        <time>2018-08-20T17:19:50Z</time>
      </trkpt>
      <trkpt lat="-28.28864" lon="-65.72437166666667">
        <ele>696.5</ele>
        <time>2018-08-20T17:19:51Z</time>
      </trkpt>
      <trkpt lat="-28.2887" lon="-65.724305">
        <ele>696.2</ele>
        <time>2018-08-20T17:19:53Z</time>
      </trkpt>
      <trkpt lat="-28.28878" lon="-65.724225">
        <ele>695.7</ele>
        <time>2018-08-20T17:19:55Z</time>
      </trkpt>
      <trkpt lat="-28.28884" lon="-65.72415">
        <ele>695.6</ele>
        <time>2018-08-20T17:19:57Z</time>
      </trkpt>
      <trkpt lat="-28.28891" lon="-65.72408">
        <ele>695.3</ele>
        <time>2018-08-20T17:19:59Z</time>
      </trkpt>
      <trkpt lat="-28.288975" lon="-65.724005">
        <ele>695.1</ele>
        <time>2018-08-20T17:20:01Z</time>
      </trkpt>
      <trkpt lat="-28.289045" lon="-65.72392666666667">
        <ele>694.9</ele>
        <time>2018-08-20T17:20:03Z</time>
      </trkpt>
      <trkpt lat="-28.289105" lon="-65.723855">
        <ele>694.9</ele>
        <time>2018-08-20T17:20:05Z</time>
      </trkpt>
      <trkpt lat="-28.289175" lon="-65.72379">
        <ele>695.1</ele>
        <time>2018-08-20T17:20:07Z</time>
      </trkpt>
      <trkpt lat="-28.289245" lon="-65.72373">
        <ele>695.2</ele>
        <time>2018-08-20T17:20:10Z</time>
      </trkpt>
      <trkpt lat="-28.28931" lon="-65.723675">
        <ele>695.3</ele>
        <time>2018-08-20T17:20:13Z</time>
      </trkpt>
      <trkpt lat="-28.289376666666666" lon="-65.723605">
        <ele>695.4</ele>
        <time>2018-08-20T17:20:16Z</time>
      </trkpt>
      <trkpt lat="-28.28944" lon="-65.723545">
        <ele>695.8</ele>
        <time>2018-08-20T17:20:19Z</time>
      </trkpt>
      <trkpt lat="-28.289505" lon="-65.72349">
        <ele>696.2</ele>
        <time>2018-08-20T17:20:22Z</time>
      </trkpt>
      <trkpt lat="-28.289575" lon="-65.723435">
        <ele>696.5</ele>
        <time>2018-08-20T17:20:25Z</time>
      </trkpt>
      <trkpt lat="-28.28965" lon="-65.723395">
        <ele>696.8</ele>
        <time>2018-08-20T17:20:28Z</time>
      </trkpt>
      <trkpt lat="-28.28972" lon="-65.72334166666667">
        <ele>697.3</ele>
        <time>2018-08-20T17:20:32Z</time>
      </trkpt>
      <trkpt lat="-28.2898" lon="-65.72329">
        <ele>697.7</ele>
        <time>2018-08-20T17:20:36Z</time>
      </trkpt>
      <trkpt lat="-28.28986" lon="-65.723235">
        <ele>698.1</ele>
        <time>2018-08-20T17:20:40Z</time>
      </trkpt>
      <trkpt lat="-28.289935" lon="-65.72318">
        <ele>698.4</ele>
        <time>2018-08-20T17:20:44Z</time>
      </trkpt>
      <trkpt lat="-28.290005" lon="-65.723115">
        <ele>698.3</ele>
        <time>2018-08-20T17:20:47Z</time>
      </trkpt>
      <trkpt lat="-28.290075" lon="-65.72306">
        <ele>698.0</ele>
        <time>2018-08-20T17:20:50Z</time>
      </trkpt>
      <trkpt lat="-28.290165000000002" lon="-65.72301">
        <ele>697.7</ele>
        <time>2018-08-20T17:20:53Z</time>
      </trkpt>
      <trkpt lat="-28.290255" lon="-65.72294333333333">
        <ele>697.6</ele>
        <time>2018-08-20T17:20:56Z</time>
      </trkpt>
      <trkpt lat="-28.290355" lon="-65.72289">
        <ele>697.5</ele>
        <time>2018-08-20T17:20:59Z</time>
      </trkpt>
      <trkpt lat="-28.290425" lon="-65.72285166666667">
        <ele>697.6</ele>
        <time>2018-08-20T17:21:01Z</time>
      </trkpt>
      <trkpt lat="-28.290495" lon="-65.722825">
        <ele>697.8</ele>
        <time>2018-08-20T17:21:03Z</time>
      </trkpt>
      <trkpt lat="-28.290575" lon="-65.72279166666667">
        <ele>698.0</ele>
        <time>2018-08-20T17:21:05Z</time>
      </trkpt>
      <trkpt lat="-28.290656666666667" lon="-65.72277">
        <ele>698.1</ele>
        <time>2018-08-20T17:21:07Z</time>
      </trkpt>
      <trkpt lat="-28.29075" lon="-65.722745">
        <ele>698.3</ele>
        <time>2018-08-20T17:21:09Z</time>
      </trkpt>
      <trkpt lat="-28.290835" lon="-65.72270666666667">
        <ele>699.0</ele>
        <time>2018-08-20T17:21:11Z</time>
      </trkpt>
      <trkpt lat="-28.29092" lon="-65.72269">
        <ele>699.7</ele>
        <time>2018-08-20T17:21:13Z</time>
      </trkpt>
      <trkpt lat="-28.291" lon="-65.722665">
        <ele>699.8</ele>
        <time>2018-08-20T17:21:15Z</time>
      </trkpt>
      <trkpt lat="-28.291085" lon="-65.722645">
        <ele>699.2</ele>
        <time>2018-08-20T17:21:17Z</time>
      </trkpt>
      <trkpt lat="-28.291165" lon="-65.72262">
        <ele>697.9</ele>
        <time>2018-08-20T17:21:19Z</time>
      </trkpt>
      <trkpt lat="-28.29124" lon="-65.72259">
        <ele>695.9</ele>
        <time>2018-08-20T17:21:21Z</time>
      </trkpt>
      <trkpt lat="-28.29132" lon="-65.72256">
        <ele>693.4</ele>
        <time>2018-08-20T17:21:23Z</time>
      </trkpt>
      <trkpt lat="-28.29141" lon="-65.722545">
        <ele>691.1</ele>
        <time>2018-08-20T17:21:25Z</time>
      </trkpt>
      <trkpt lat="-28.2915" lon="-65.722515">
        <ele>688.7</ele>
        <time>2018-08-20T17:21:27Z</time>
      </trkpt>
      <trkpt lat="-28.291605" lon="-65.72248833333333">
        <ele>686.6</ele>
        <time>2018-08-20T17:21:29Z</time>
      </trkpt>
      <trkpt lat="-28.291715" lon="-65.72247">
        <ele>684.6</ele>
        <time>2018-08-20T17:21:31Z</time>
      </trkpt>
      <trkpt lat="-28.291838333333335" lon="-65.72244666666667">
        <ele>683.1</ele>
        <time>2018-08-20T17:21:33Z</time>
      </trkpt>
      <trkpt lat="-28.291985" lon="-65.72244">
        <ele>682.3</ele>
        <time>2018-08-20T17:21:35Z</time>
      </trkpt>
      <trkpt lat="-28.29207" lon="-65.72243">
        <ele>682.3</ele>
        <time>2018-08-20T17:21:36Z</time>
      </trkpt>
      <trkpt lat="-28.29215" lon="-65.72242">
        <ele>682.3</ele>
        <time>2018-08-20T17:21:37Z</time>
      </trkpt>
      <trkpt lat="-28.292225" lon="-65.72241">
        <ele>682.6</ele>
        <time>2018-08-20T17:21:38Z</time>
      </trkpt>
      <trkpt lat="-28.292305" lon="-65.72241">
        <ele>683.0</ele>
        <time>2018-08-20T17:21:39Z</time>
      </trkpt>
      <trkpt lat="-28.292385" lon="-65.72240333333333">
        <ele>683.4</ele>
        <time>2018-08-20T17:21:40Z</time>
      </trkpt>
      <trkpt lat="-28.292475" lon="-65.72240166666667">
        <ele>683.8</ele>
        <time>2018-08-20T17:21:41Z</time>
      </trkpt>
      <trkpt lat="-28.292558333333332" lon="-65.722395">
        <ele>684.2</ele>
        <time>2018-08-20T17:21:42Z</time>
      </trkpt>
      <trkpt lat="-28.29265" lon="-65.722395">
        <ele>684.6</ele>
        <time>2018-08-20T17:21:43Z</time>
      </trkpt>
      <trkpt lat="-28.29274" lon="-65.722395">
        <ele>685.0</ele>
        <time>2018-08-20T17:21:44Z</time>
      </trkpt>
      <trkpt lat="-28.29283" lon="-65.722395">
        <ele>685.4</ele>
        <time>2018-08-20T17:21:45Z</time>
      </trkpt>
      <trkpt lat="-28.29292" lon="-65.722395">
        <ele>685.8</ele>
        <time>2018-08-20T17:21:46Z</time>
      </trkpt>
      <trkpt lat="-28.293005" lon="-65.722395">
        <ele>686.2</ele>
        <time>2018-08-20T17:21:47Z</time>
      </trkpt>
      <trkpt lat="-28.29309" lon="-65.722395">
        <ele>686.5</ele>
        <time>2018-08-20T17:21:48Z</time>
      </trkpt>
      <trkpt lat="-28.29318" lon="-65.72239833333333">
        <ele>686.7</ele>
        <time>2018-08-20T17:21:49Z</time>
      </trkpt>
      <trkpt lat="-28.29326" lon="-65.72240166666667">
        <ele>686.7</ele>
        <time>2018-08-20T17:21:50Z</time>
      </trkpt>
      <trkpt lat="-28.29334" lon="-65.72241">
        <ele>686.9</ele>
        <time>2018-08-20T17:21:51Z</time>
      </trkpt>
      <trkpt lat="-28.293415" lon="-65.72241">
        <ele>686.7</ele>
        <time>2018-08-20T17:21:52Z</time>
      </trkpt>
      <trkpt lat="-28.293495" lon="-65.72241">
        <ele>686.2</ele>
        <time>2018-08-20T17:21:53Z</time>
      </trkpt>
      <trkpt lat="-28.293575" lon="-65.72241">
        <ele>685.8</ele>
        <time>2018-08-20T17:21:54Z</time>
      </trkpt>
      <trkpt lat="-28.29371" lon="-65.72241">
        <ele>685.0</ele>
        <time>2018-08-20T17:21:56Z</time>
      </trkpt>
      <trkpt lat="-28.29384" lon="-65.72242">
        <ele>683.9</ele>
        <time>2018-08-20T17:21:58Z</time>
      </trkpt>
      <trkpt lat="-28.293955" lon="-65.72242">
        <ele>683.0</ele>
        <time>2018-08-20T17:22:00Z</time>
      </trkpt>
      <trkpt lat="-28.294066666666666" lon="-65.72243">
        <ele>682.1</ele>
        <time>2018-08-20T17:22:02Z</time>
      </trkpt>
      <trkpt lat="-28.29418" lon="-65.72243">
        <ele>681.3</ele>
        <time>2018-08-20T17:22:04Z</time>
      </trkpt>
      <trkpt lat="-28.294275" lon="-65.72244">
        <ele>681.9</ele>
        <time>2018-08-20T17:22:06Z</time>
      </trkpt>
      <trkpt lat="-28.29437" lon="-65.72244">
        <ele>682.4</ele>
        <time>2018-08-20T17:22:08Z</time>
      </trkpt>
      <trkpt lat="-28.29447" lon="-65.72244">
        <ele>683.1</ele>
        <time>2018-08-20T17:22:10Z</time>
      </trkpt>
      <trkpt lat="-28.29455" lon="-65.72244666666667">
        <ele>684.8</ele>
        <time>2018-08-20T17:22:12Z</time>
      </trkpt>
      <trkpt lat="-28.294635" lon="-65.72244833333333">
        <ele>686.0</ele>
        <time>2018-08-20T17:22:14Z</time>
      </trkpt>
      <trkpt lat="-28.294715" lon="-65.72245">
        <ele>686.0</ele>
        <time>2018-08-20T17:22:17Z</time>
      </trkpt>
      <trkpt lat="-28.2948" lon="-65.72246">
        <ele>686.1</ele>
        <time>2018-08-20T17:22:18Z</time>
      </trkpt>
      <trkpt lat="-28.294885" lon="-65.72246">
        <ele>686.1</ele>
        <time>2018-08-20T17:22:21Z</time>
      </trkpt>
      <trkpt lat="-28.294965" lon="-65.722465">
        <ele>686.2</ele>
        <time>2018-08-20T17:22:24Z</time>
      </trkpt>
      <trkpt lat="-28.29504" lon="-65.72247">
        <ele>686.3</ele>
        <time>2018-08-20T17:22:27Z</time>
      </trkpt>
      <trkpt lat="-28.29513" lon="-65.72247">
        <ele>686.3</ele>
        <time>2018-08-20T17:22:30Z</time>
      </trkpt>
      <trkpt lat="-28.295205" lon="-65.72247">
        <ele>686.3</ele>
        <time>2018-08-20T17:22:33Z</time>
      </trkpt>
      <trkpt lat="-28.295285" lon="-65.72247">
        <ele>686.3</ele>
        <time>2018-08-20T17:22:36Z</time>
      </trkpt>
      <trkpt lat="-28.29537" lon="-65.722475">
        <ele>686.2</ele>
        <time>2018-08-20T17:22:39Z</time>
      </trkpt>
      <trkpt lat="-28.29545" lon="-65.72248">
        <ele>686.3</ele>
        <time>2018-08-20T17:22:42Z</time>
      </trkpt>
      <trkpt lat="-28.295535" lon="-65.72248166666667">
        <ele>686.4</ele>
        <time>2018-08-20T17:22:45Z</time>
      </trkpt>
      <trkpt lat="-28.29562" lon="-65.72249166666667">
        <ele>686.7</ele>
        <time>2018-08-20T17:22:48Z</time>
      </trkpt>
      <trkpt lat="-28.295695" lon="-65.722495">
        <ele>687.1</ele>
        <time>2018-08-20T17:22:51Z</time>
      </trkpt>
      <trkpt lat="-28.29577" lon="-65.722505">
        <ele>687.6</ele>
        <time>2018-08-20T17:22:54Z</time>
      </trkpt>
      <trkpt lat="-28.295856666666666" lon="-65.72249333333333">
        <ele>688.0</ele>
        <time>2018-08-20T17:22:57Z</time>
      </trkpt>
      <trkpt lat="-28.295945" lon="-65.722485">
        <ele>688.4</ele>
        <time>2018-08-20T17:23:00Z</time>
      </trkpt>
      <trkpt lat="-28.296025" lon="-65.72248166666667">
        <ele>688.8</ele>
        <time>2018-08-20T17:23:03Z</time>
      </trkpt>
      <trkpt lat="-28.296105" lon="-65.72248">
        <ele>689.2</ele>
        <time>2018-08-20T17:23:06Z</time>
      </trkpt>
      <trkpt lat="-28.296185" lon="-65.72247">
        <ele>689.8</ele>
        <time>2018-08-20T17:23:10Z</time>
      </trkpt>
      <trkpt lat="-28.29626" lon="-65.722465">
        <ele>690.3</ele>
        <time>2018-08-20T17:23:13Z</time>
      </trkpt>
      <trkpt lat="-28.296355" lon="-65.72244666666667">
        <ele>690.8</ele>
        <time>2018-08-20T17:23:16Z</time>
      </trkpt>
      <trkpt lat="-28.296435" lon="-65.72244">
        <ele>691.1</ele>
        <time>2018-08-20T17:23:18Z</time>
      </trkpt>
      <trkpt lat="-28.29653" lon="-65.72242">
        <ele>691.5</ele>
        <time>2018-08-20T17:23:21Z</time>
      </trkpt>
      <trkpt lat="-28.296606666666666" lon="-65.72241">
        <ele>691.9</ele>
        <time>2018-08-20T17:23:24Z</time>
      </trkpt>
      <trkpt lat="-28.29671" lon="-65.722385">
        <ele>692.3</ele>
        <time>2018-08-20T17:23:27Z</time>
      </trkpt>
      <trkpt lat="-28.29678" lon="-65.722365">
        <ele>692.5</ele>
        <time>2018-08-20T17:23:29Z</time>
      </trkpt>
      <trkpt lat="-28.29686" lon="-65.72234166666667">
        <ele>692.7</ele>
        <time>2018-08-20T17:23:31Z</time>
      </trkpt>
      <trkpt lat="-28.296935" lon="-65.72233">
        <ele>693.0</ele>
        <time>2018-08-20T17:23:33Z</time>
      </trkpt>
      <trkpt lat="-28.297005" lon="-65.72230666666667">
        <ele>693.2</ele>
        <time>2018-08-20T17:23:35Z</time>
      </trkpt>
      <trkpt lat="-28.29711" lon="-65.72228">
        <ele>693.5</ele>
        <time>2018-08-20T17:23:38Z</time>
      </trkpt>
      <trkpt lat="-28.297176666666665" lon="-65.722255">
        <ele>693.7</ele>
        <time>2018-08-20T17:23:40Z</time>
      </trkpt>
      <trkpt lat="-28.29725" lon="-65.72224">
        <ele>693.9</ele>
        <time>2018-08-20T17:23:42Z</time>
      </trkpt>
      <trkpt lat="-28.297325" lon="-65.722215">
        <ele>694.1</ele>
        <time>2018-08-20T17:23:44Z</time>
      </trkpt>
      <trkpt lat="-28.2974" lon="-65.722185">
        <ele>695.6</ele>
        <time>2018-08-20T17:23:46Z</time>
      </trkpt>
      <trkpt lat="-28.29748" lon="-65.72216">
        <ele>696.2</ele>
        <time>2018-08-20T17:23:48Z</time>
      </trkpt>
      <trkpt lat="-28.29757" lon="-65.72213">
        <ele>697.1</ele>
        <time>2018-08-20T17:23:50Z</time>
      </trkpt>
      <trkpt lat="-28.297671666666666" lon="-65.722085">
        <ele>697.8</ele>
        <time>2018-08-20T17:23:52Z</time>
      </trkpt>
      <trkpt lat="-28.297765" lon="-65.72203">
        <ele>697.8</ele>
        <time>2018-08-20T17:23:54Z</time>
      </trkpt>
      <trkpt lat="-28.297861666666666" lon="-65.72198">
        <ele>698.1</ele>
        <time>2018-08-20T17:23:56Z</time>
      </trkpt>
      <trkpt lat="-28.29798" lon="-65.72191166666667">
        <ele>698.3</ele>
        <time>2018-08-20T17:23:58Z</time>
      </trkpt>
      <trkpt lat="-28.298095" lon="-65.72185">
        <ele>697.4</ele>
        <time>2018-08-20T17:24:00Z</time>
      </trkpt>
      <trkpt lat="-28.298215" lon="-65.72179">
        <ele>696.8</ele>
        <time>2018-08-20T17:24:02Z</time>
      </trkpt>
      <trkpt lat="-28.298335" lon="-65.72172">
        <ele>696.4</ele>
        <time>2018-08-20T17:24:04Z</time>
      </trkpt>
      <trkpt lat="-28.298445" lon="-65.72163833333333">
        <ele>696.7</ele>
        <time>2018-08-20T17:24:06Z</time>
      </trkpt>
      <trkpt lat="-28.29856" lon="-65.721565">
        <ele>696.4</ele>
        <time>2018-08-20T17:24:08Z</time>
      </trkpt>
      <trkpt lat="-28.29867" lon="-65.72148">
        <ele>695.3</ele>
        <time>2018-08-20T17:24:10Z</time>
      </trkpt>
      <trkpt lat="-28.298775" lon="-65.721395">
        <ele>694.2</ele>
        <time>2018-08-20T17:24:12Z</time>
      </trkpt>
      <trkpt lat="-28.29888" lon="-65.721295">
        <ele>693.3</ele>
        <time>2018-08-20T17:24:14Z</time>
      </trkpt>
      <trkpt lat="-28.298985" lon="-65.72121">
        <ele>692.3</ele>
        <time>2018-08-20T17:24:16Z</time>
      </trkpt>
      <trkpt lat="-28.299085" lon="-65.721125">
        <ele>692.4</ele>
        <time>2018-08-20T17:24:18Z</time>
      </trkpt>
      <trkpt lat="-28.29917" lon="-65.72104666666667">
        <ele>692.5</ele>
        <time>2018-08-20T17:24:20Z</time>
      </trkpt>
      <trkpt lat="-28.299245" lon="-65.720995">
        <ele>692.3</ele>
        <time>2018-08-20T17:24:22Z</time>
      </trkpt>
      <trkpt lat="-28.299315" lon="-65.72092833333333">
        <ele>692.3</ele>
        <time>2018-08-20T17:24:24Z</time>
      </trkpt>
      <trkpt lat="-28.299381666666665" lon="-65.720875">
        <ele>691.7</ele>
        <time>2018-08-20T17:24:26Z</time>
      </trkpt>
      <trkpt lat="-28.29946" lon="-65.720815">
        <ele>691.4</ele>
        <time>2018-08-20T17:24:28Z</time>
      </trkpt>
      <trkpt lat="-28.29954" lon="-65.72075">
        <ele>691.5</ele>
        <time>2018-08-20T17:24:30Z</time>
      </trkpt>
      <trkpt lat="-28.299615" lon="-65.720695">
        <ele>691.8</ele>
        <time>2018-08-20T17:24:32Z</time>
      </trkpt>
      <trkpt lat="-28.299685" lon="-65.720635">
        <ele>693.0</ele>
        <time>2018-08-20T17:24:34Z</time>
      </trkpt>
      <trkpt lat="-28.299745" lon="-65.72058">
        <ele>694.6</ele>
        <time>2018-08-20T17:24:36Z</time>
      </trkpt>
      <trkpt lat="-28.29982" lon="-65.720525">
        <ele>695.0</ele>
        <time>2018-08-20T17:24:38Z</time>
      </trkpt>
      <trkpt lat="-28.299906666666665" lon="-65.72047">
        <ele>695.8</ele>
        <time>2018-08-20T17:24:41Z</time>
      </trkpt>
      <trkpt lat="-28.299985" lon="-65.72041">
        <ele>696.7</ele>
        <time>2018-08-20T17:24:44Z</time>
      </trkpt>
      <trkpt lat="-28.300065" lon="-65.72033666666667">
        <ele>697.8</ele>
        <time>2018-08-20T17:24:47Z</time>
      </trkpt>
      <trkpt lat="-28.30013" lon="-65.720285">
        <ele>698.7</ele>
        <time>2018-08-20T17:24:50Z</time>
      </trkpt>
      <trkpt lat="-28.300195" lon="-65.720225">
        <ele>699.5</ele>
        <time>2018-08-20T17:24:53Z</time>
      </trkpt>
      <trkpt lat="-28.300265" lon="-65.72016666666667">
        <ele>700.2</ele>
        <time>2018-08-20T17:24:56Z</time>
      </trkpt>
      <trkpt lat="-28.30033" lon="-65.72011833333333">
        <ele>700.8</ele>
        <time>2018-08-20T17:25:00Z</time>
      </trkpt>
      <trkpt lat="-28.300395" lon="-65.72006">
        <ele>701.3</ele>
        <time>2018-08-20T17:25:03Z</time>
      </trkpt>
      <trkpt lat="-28.30046" lon="-65.720015">
        <ele>701.7</ele>
        <time>2018-08-20T17:25:06Z</time>
      </trkpt>
      <trkpt lat="-28.30052" lon="-65.719965">
        <ele>702.2</ele>
        <time>2018-08-20T17:25:09Z</time>
      </trkpt>
      <trkpt lat="-28.30059" lon="-65.719905">
        <ele>702.8</ele>
        <time>2018-08-20T17:25:13Z</time>
      </trkpt>
      <trkpt lat="-28.30065" lon="-65.71984666666667">
        <ele>703.5</ele>
        <time>2018-08-20T17:25:16Z</time>
      </trkpt>
      <trkpt lat="-28.300715" lon="-65.719785">
        <ele>704.4</ele>
        <time>2018-08-20T17:25:20Z</time>
      </trkpt>
      <trkpt lat="-28.30078" lon="-65.71972">
        <ele>705.0</ele>
        <time>2018-08-20T17:25:23Z</time>
      </trkpt>
      <trkpt lat="-28.300835" lon="-65.71966833333333">
        <ele>705.5</ele>
        <time>2018-08-20T17:25:26Z</time>
      </trkpt>
      <trkpt lat="-28.300905" lon="-65.71961666666667">
        <ele>706.1</ele>
        <time>2018-08-20T17:25:30Z</time>
      </trkpt>
      <trkpt lat="-28.30097" lon="-65.719565">
        <ele>706.7</ele>
        <time>2018-08-20T17:25:34Z</time>
      </trkpt>
      <trkpt lat="-28.30103" lon="-65.71951">
        <ele>707.6</ele>
        <time>2018-08-20T17:25:38Z</time>
      </trkpt>
      <trkpt lat="-28.301085" lon="-65.719455">
        <ele>708.3</ele>
        <time>2018-08-20T17:25:41Z</time>
      </trkpt>
      <trkpt lat="-28.30115" lon="-65.71939833333333">
        <ele>709.1</ele>
        <time>2018-08-20T17:25:45Z</time>
      </trkpt>
      <trkpt lat="-28.30121" lon="-65.71934666666667">
        <ele>709.4</ele>
        <time>2018-08-20T17:25:48Z</time>
      </trkpt>
      <trkpt lat="-28.301285" lon="-65.71929">
        <ele>709.7</ele>
        <time>2018-08-20T17:25:52Z</time>
      </trkpt>
      <trkpt lat="-28.30136" lon="-65.71922333333333">
        <ele>709.8</ele>
        <time>2018-08-20T17:25:56Z</time>
      </trkpt>
      <trkpt lat="-28.30142" lon="-65.719175">
        <ele>709.9</ele>
        <time>2018-08-20T17:25:59Z</time>
      </trkpt>
      <trkpt lat="-28.30149" lon="-65.7191">
        <ele>709.9</ele>
        <time>2018-08-20T17:26:03Z</time>
      </trkpt>
      <trkpt lat="-28.301565" lon="-65.71903666666667">
        <ele>709.8</ele>
        <time>2018-08-20T17:26:07Z</time>
      </trkpt>
      <trkpt lat="-28.30163" lon="-65.71899">
        <ele>709.7</ele>
        <time>2018-08-20T17:26:10Z</time>
      </trkpt>
      <trkpt lat="-28.3017" lon="-65.71894">
        <ele>709.4</ele>
        <time>2018-08-20T17:26:13Z</time>
      </trkpt>
      <trkpt lat="-28.301765" lon="-65.718895">
        <ele>709.1</ele>
        <time>2018-08-20T17:26:16Z</time>
      </trkpt>
      <trkpt lat="-28.301835" lon="-65.71885">
        <ele>708.7</ele>
        <time>2018-08-20T17:26:19Z</time>
      </trkpt>
      <trkpt lat="-28.30192" lon="-65.718805">
        <ele>708.4</ele>
        <time>2018-08-20T17:26:22Z</time>
      </trkpt>
      <trkpt lat="-28.30201" lon="-65.718765">
        <ele>708.3</ele>
        <time>2018-08-20T17:26:25Z</time>
      </trkpt>
      <trkpt lat="-28.3021" lon="-65.718725">
        <ele>708.3</ele>
        <time>2018-08-20T17:26:28Z</time>
      </trkpt>
      <trkpt lat="-28.302165" lon="-65.718695">
        <ele>708.4</ele>
        <time>2018-08-20T17:26:30Z</time>
      </trkpt>
      <trkpt lat="-28.302235" lon="-65.71866">
        <ele>709.2</ele>
        <time>2018-08-20T17:26:32Z</time>
      </trkpt>
      <trkpt lat="-28.302305" lon="-65.71862">
        <ele>709.3</ele>
        <time>2018-08-20T17:26:34Z</time>
      </trkpt>
      <trkpt lat="-28.30237" lon="-65.718585">
        <ele>710.6</ele>
        <time>2018-08-20T17:26:36Z</time>
      </trkpt>
      <trkpt lat="-28.30244" lon="-65.71854833333333">
        <ele>712.0</ele>
        <time>2018-08-20T17:26:38Z</time>
      </trkpt>
      <trkpt lat="-28.302505" lon="-65.71851">
        <ele>712.6</ele>
        <time>2018-08-20T17:26:40Z</time>
      </trkpt>
      <trkpt lat="-28.30258" lon="-65.71848">
        <ele>712.3</ele>
        <time>2018-08-20T17:26:42Z</time>
      </trkpt>
      <trkpt lat="-28.302655" lon="-65.718445">
        <ele>711.1</ele>
        <time>2018-08-20T17:26:44Z</time>
      </trkpt>
      <trkpt lat="-28.30275" lon="-65.71841333333333">
        <ele>710.4</ele>
        <time>2018-08-20T17:26:46Z</time>
      </trkpt>
      <trkpt lat="-28.302855" lon="-65.718395">
        <ele>711.5</ele>
        <time>2018-08-20T17:26:48Z</time>
      </trkpt>
      <trkpt lat="-28.30294" lon="-65.71836">
        <ele>712.3</ele>
        <time>2018-08-20T17:26:50Z</time>
      </trkpt>
      <trkpt lat="-28.30303" lon="-65.71833">
        <ele>712.0</ele>
        <time>2018-08-20T17:26:52Z</time>
      </trkpt>
      <trkpt lat="-28.30312" lon="-65.7183">
        <ele>710.4</ele>
        <time>2018-08-20T17:26:54Z</time>
      </trkpt>
      <trkpt lat="-28.303225" lon="-65.718265">
        <ele>708.0</ele>
        <time>2018-08-20T17:26:56Z</time>
      </trkpt>
      <trkpt lat="-28.303345" lon="-65.71823">
        <ele>705.7</ele>
        <time>2018-08-20T17:26:58Z</time>
      </trkpt>
      <trkpt lat="-28.303463333333333" lon="-65.71819666666667">
        <ele>704.0</ele>
        <time>2018-08-20T17:27:00Z</time>
      </trkpt>
      <trkpt lat="-28.303605" lon="-65.71817">
        <ele>702.4</ele>
        <time>2018-08-20T17:27:02Z</time>
      </trkpt>
      <trkpt lat="-28.303745" lon="-65.718145">
        <ele>701.2</ele>
        <time>2018-08-20T17:27:04Z</time>
      </trkpt>
      <trkpt lat="-28.30382" lon="-65.71813">
        <ele>700.9</ele>
        <time>2018-08-20T17:27:05Z</time>
      </trkpt>
      <trkpt lat="-28.303891666666665" lon="-65.718115">
        <ele>700.3</ele>
        <time>2018-08-20T17:27:06Z</time>
      </trkpt>
      <trkpt lat="-28.30398" lon="-65.71809666666667">
        <ele>699.6</ele>
        <time>2018-08-20T17:27:07Z</time>
      </trkpt>
      <trkpt lat="-28.304065" lon="-65.718085">
        <ele>698.8</ele>
        <time>2018-08-20T17:27:08Z</time>
      </trkpt>
      <trkpt lat="-28.30415" lon="-65.71807">
        <ele>698.2</ele>
        <time>2018-08-20T17:27:09Z</time>
      </trkpt>
      <trkpt lat="-28.304235" lon="-65.71805">
        <ele>697.5</ele>
        <time>2018-08-20T17:27:10Z</time>
      </trkpt>
      <trkpt lat="-28.304325" lon="-65.71803166666666">
        <ele>697.0</ele>
        <time>2018-08-20T17:27:11Z</time>
      </trkpt>
      <trkpt lat="-28.30441" lon="-65.718015">
        <ele>696.5</ele>
        <time>2018-08-20T17:27:12Z</time>
      </trkpt>
      <trkpt lat="-28.304505" lon="-65.718">
        <ele>696.0</ele>
        <time>2018-08-20T17:27:13Z</time>
      </trkpt>
      <trkpt lat="-28.3046" lon="-65.717975">
        <ele>695.7</ele>
        <time>2018-08-20T17:27:14Z</time>
      </trkpt>
      <trkpt lat="-28.304695" lon="-65.717965">
        <ele>695.4</ele>
        <time>2018-08-20T17:27:15Z</time>
      </trkpt>
      <trkpt lat="-28.30479" lon="-65.717945">
        <ele>695.1</ele>
        <time>2018-08-20T17:27:16Z</time>
      </trkpt>
      <trkpt lat="-28.30489" lon="-65.71792333333333">
        <ele>694.8</ele>
        <time>2018-08-20T17:27:17Z</time>
      </trkpt>
      <trkpt lat="-28.30498" lon="-65.71791">
        <ele>694.3</ele>
        <time>2018-08-20T17:27:18Z</time>
      </trkpt>
      <trkpt lat="-28.305085" lon="-65.71789">
        <ele>693.8</ele>
        <time>2018-08-20T17:27:19Z</time>
      </trkpt>
      <trkpt lat="-28.305185" lon="-65.71787166666667">
        <ele>693.5</ele>
        <time>2018-08-20T17:27:20Z</time>
      </trkpt>
      <trkpt lat="-28.305281666666666" lon="-65.717855">
        <ele>693.5</ele>
        <time>2018-08-20T17:27:21Z</time>
      </trkpt>
      <trkpt lat="-28.30539" lon="-65.71783333333333">
        <ele>693.4</ele>
        <time>2018-08-20T17:27:22Z</time>
      </trkpt>
      <trkpt lat="-28.30549" lon="-65.71782">
        <ele>693.1</ele>
        <time>2018-08-20T17:27:23Z</time>
      </trkpt>
      <trkpt lat="-28.3056" lon="-65.71779666666667">
        <ele>692.6</ele>
        <time>2018-08-20T17:27:24Z</time>
      </trkpt>
      <trkpt lat="-28.305705" lon="-65.71778">
        <ele>692.1</ele>
        <time>2018-08-20T17:27:25Z</time>
      </trkpt>
      <trkpt lat="-28.30581" lon="-65.71776">
        <ele>691.5</ele>
        <time>2018-08-20T17:27:26Z</time>
      </trkpt>
      <trkpt lat="-28.30592" lon="-65.71774">
        <ele>691.0</ele>
        <time>2018-08-20T17:27:27Z</time>
      </trkpt>
      <trkpt lat="-28.306024999999998" lon="-65.71772">
        <ele>690.5</ele>
        <time>2018-08-20T17:27:28Z</time>
      </trkpt>
      <trkpt lat="-28.30614" lon="-65.717695">
        <ele>689.8</ele>
        <time>2018-08-20T17:27:29Z</time>
      </trkpt>
      <trkpt lat="-28.30625" lon="-65.71768">
        <ele>689.2</ele>
        <time>2018-08-20T17:27:30Z</time>
      </trkpt>
      <trkpt lat="-28.30636" lon="-65.717655">
        <ele>688.2</ele>
        <time>2018-08-20T17:27:31Z</time>
      </trkpt>
      <trkpt lat="-28.306465" lon="-65.717635">
        <ele>687.4</ele>
        <time>2018-08-20T17:27:32Z</time>
      </trkpt>
      <trkpt lat="-28.30657" lon="-65.71762">
        <ele>686.7</ele>
        <time>2018-08-20T17:27:33Z</time>
      </trkpt>
      <trkpt lat="-28.30668" lon="-65.7176">
        <ele>686.2</ele>
        <time>2018-08-20T17:27:34Z</time>
      </trkpt>
      <trkpt lat="-28.306785" lon="-65.71757">
        <ele>685.6</ele>
        <time>2018-08-20T17:27:35Z</time>
      </trkpt>
      <trkpt lat="-28.306895" lon="-65.717555">
        <ele>685.2</ele>
        <time>2018-08-20T17:27:36Z</time>
      </trkpt>
      <trkpt lat="-28.306991666666665" lon="-65.717535">
        <ele>685.1</ele>
        <time>2018-08-20T17:27:37Z</time>
      </trkpt>
      <trkpt lat="-28.3071" lon="-65.717515">
        <ele>685.0</ele>
        <time>2018-08-20T17:27:38Z</time>
      </trkpt>
      <trkpt lat="-28.30719" lon="-65.717505">
        <ele>684.8</ele>
        <time>2018-08-20T17:27:39Z</time>
      </trkpt>
      <trkpt lat="-28.30728" lon="-65.717485">
        <ele>684.6</ele>
        <time>2018-08-20T17:27:40Z</time>
      </trkpt>
      <trkpt lat="-28.307365" lon="-65.71747">
        <ele>684.5</ele>
        <time>2018-08-20T17:27:41Z</time>
      </trkpt>
      <trkpt lat="-28.30745" lon="-65.71746">
        <ele>684.6</ele>
        <time>2018-08-20T17:27:42Z</time>
      </trkpt>
      <trkpt lat="-28.30754" lon="-65.71745">
        <ele>684.4</ele>
        <time>2018-08-20T17:27:43Z</time>
      </trkpt>
      <trkpt lat="-28.30762" lon="-65.71742833333333">
        <ele>684.1</ele>
        <time>2018-08-20T17:27:44Z</time>
      </trkpt>
      <trkpt lat="-28.3077" lon="-65.71741333333334">
        <ele>683.6</ele>
        <time>2018-08-20T17:27:45Z</time>
      </trkpt>
      <trkpt lat="-28.30778" lon="-65.71741">
        <ele>683.3</ele>
        <time>2018-08-20T17:27:46Z</time>
      </trkpt>
      <trkpt lat="-28.307865" lon="-65.7174">
        <ele>683.2</ele>
        <time>2018-08-20T17:27:47Z</time>
      </trkpt>
      <trkpt lat="-28.307955" lon="-65.71738333333333">
        <ele>683.7</ele>
        <time>2018-08-20T17:27:48Z</time>
      </trkpt>
      <trkpt lat="-28.30804" lon="-65.71738">
        <ele>684.8</ele>
        <time>2018-08-20T17:27:49Z</time>
      </trkpt>
      <trkpt lat="-28.30812" lon="-65.717375">
        <ele>686.0</ele>
        <time>2018-08-20T17:27:50Z</time>
      </trkpt>
      <trkpt lat="-28.308255" lon="-65.717365">
        <ele>688.7</ele>
        <time>2018-08-20T17:27:52Z</time>
      </trkpt>
      <trkpt lat="-28.30839" lon="-65.717355">
        <ele>691.1</ele>
        <time>2018-08-20T17:27:55Z</time>
      </trkpt>
      <trkpt lat="-28.30852" lon="-65.71733833333333">
        <ele>692.8</ele>
        <time>2018-08-20T17:27:56Z</time>
      </trkpt>
      <trkpt lat="-28.308625" lon="-65.71733">
        <ele>694.8</ele>
        <time>2018-08-20T17:27:58Z</time>
      </trkpt>
      <trkpt lat="-28.30874" lon="-65.717325">
        <ele>696.8</ele>
        <time>2018-08-20T17:28:00Z</time>
      </trkpt>
      <trkpt lat="-28.308835" lon="-65.71732">
        <ele>698.5</ele>
        <time>2018-08-20T17:28:02Z</time>
      </trkpt>
      <trkpt lat="-28.30892" lon="-65.71731">
        <ele>700.0</ele>
        <time>2018-08-20T17:28:04Z</time>
      </trkpt>
      <trkpt lat="-28.308998333333335" lon="-65.71729833333333">
        <ele>701.8</ele>
        <time>2018-08-20T17:28:06Z</time>
      </trkpt>
      <trkpt lat="-28.309085" lon="-65.71729166666667">
        <ele>703.0</ele>
        <time>2018-08-20T17:28:08Z</time>
      </trkpt>
      <trkpt lat="-28.30916" lon="-65.71729">
        <ele>704.1</ele>
        <time>2018-08-20T17:28:10Z</time>
      </trkpt>
      <trkpt lat="-28.30924" lon="-65.717285">
        <ele>705.0</ele>
        <time>2018-08-20T17:28:12Z</time>
      </trkpt>
      <trkpt lat="-28.30932" lon="-65.71727">
        <ele>705.7</ele>
        <time>2018-08-20T17:28:14Z</time>
      </trkpt>
      <trkpt lat="-28.309395" lon="-65.71727">
        <ele>705.7</ele>
        <time>2018-08-20T17:28:16Z</time>
      </trkpt>
      <trkpt lat="-28.30947" lon="-65.71727">
        <ele>705.7</ele>
        <time>2018-08-20T17:28:18Z</time>
      </trkpt>
      <trkpt lat="-28.309575" lon="-65.71726166666667">
        <ele>705.6</ele>
        <time>2018-08-20T17:28:21Z</time>
      </trkpt>
      <trkpt lat="-28.309655" lon="-65.71725666666667">
        <ele>705.6</ele>
        <time>2018-08-20T17:28:24Z</time>
      </trkpt>
      <trkpt lat="-28.309745" lon="-65.71724666666667">
        <ele>705.8</ele>
        <time>2018-08-20T17:28:27Z</time>
      </trkpt>
      <trkpt lat="-28.30982" lon="-65.717245">
        <ele>705.9</ele>
        <time>2018-08-20T17:28:30Z</time>
      </trkpt>
      <trkpt lat="-28.309906666666667" lon="-65.717245">
        <ele>706.1</ele>
        <time>2018-08-20T17:28:33Z</time>
      </trkpt>
      <trkpt lat="-28.309993333333335" lon="-65.717245">
        <ele>706.2</ele>
        <time>2018-08-20T17:28:36Z</time>
      </trkpt>
      <trkpt lat="-28.310085" lon="-65.717245">
        <ele>706.1</ele>
        <time>2018-08-20T17:28:39Z</time>
      </trkpt>
      <trkpt lat="-28.310165" lon="-65.717235">
        <ele>706.1</ele>
        <time>2018-08-20T17:28:42Z</time>
      </trkpt>
      <trkpt lat="-28.31025" lon="-65.71723">
        <ele>706.2</ele>
        <time>2018-08-20T17:28:45Z</time>
      </trkpt>
      <trkpt lat="-28.31034" lon="-65.717225">
        <ele>706.2</ele>
        <time>2018-08-20T17:28:48Z</time>
      </trkpt>
      <trkpt lat="-28.310435" lon="-65.717225">
        <ele>706.2</ele>
        <time>2018-08-20T17:28:51Z</time>
      </trkpt>
      <trkpt lat="-28.31053" lon="-65.71721333333333">
        <ele>706.1</ele>
        <time>2018-08-20T17:28:54Z</time>
      </trkpt>
      <trkpt lat="-28.310631666666666" lon="-65.71721166666667">
        <ele>706.0</ele>
        <time>2018-08-20T17:28:57Z</time>
      </trkpt>
      <trkpt lat="-28.310735" lon="-65.717205">
        <ele>705.7</ele>
        <time>2018-08-20T17:29:00Z</time>
      </trkpt>
      <trkpt lat="-28.310835" lon="-65.71719666666667">
        <ele>705.6</ele>
        <time>2018-08-20T17:29:03Z</time>
      </trkpt>
      <trkpt lat="-28.310928333333333" lon="-65.717185">
        <ele>705.6</ele>
        <time>2018-08-20T17:29:06Z</time>
      </trkpt>
      <trkpt lat="-28.311025" lon="-65.71718">
        <ele>705.6</ele>
        <time>2018-08-20T17:29:09Z</time>
      </trkpt>
      <trkpt lat="-28.311115" lon="-65.717175">
        <ele>705.6</ele>
        <time>2018-08-20T17:29:12Z</time>
      </trkpt>
      <trkpt lat="-28.31122" lon="-65.71716">
        <ele>705.4</ele>
        <time>2018-08-20T17:29:15Z</time>
      </trkpt>
      <trkpt lat="-28.311295" lon="-65.71715">
        <ele>705.3</ele>
        <time>2018-08-20T17:29:17Z</time>
      </trkpt>
      <trkpt lat="-28.3114" lon="-65.71714">
        <ele>705.3</ele>
        <time>2018-08-20T17:29:20Z</time>
      </trkpt>
      <trkpt lat="-28.311475" lon="-65.71713">
        <ele>705.0</ele>
        <time>2018-08-20T17:29:22Z</time>
      </trkpt>
      <trkpt lat="-28.311571666666666" lon="-65.717105">
        <ele>705.8</ele>
        <time>2018-08-20T17:29:25Z</time>
      </trkpt>
      <trkpt lat="-28.31166" lon="-65.717095">
        <ele>706.3</ele>
        <time>2018-08-20T17:29:27Z</time>
      </trkpt>
      <trkpt lat="-28.31174" lon="-65.717075">
        <ele>706.5</ele>
        <time>2018-08-20T17:29:29Z</time>
      </trkpt>
      <trkpt lat="-28.311825" lon="-65.717065">
        <ele>705.7</ele>
        <time>2018-08-20T17:29:31Z</time>
      </trkpt>
      <trkpt lat="-28.311905" lon="-65.717055">
        <ele>705.6</ele>
        <time>2018-08-20T17:29:33Z</time>
      </trkpt>
      <trkpt lat="-28.311985" lon="-65.71703333333333">
        <ele>705.1</ele>
        <time>2018-08-20T17:29:35Z</time>
      </trkpt>
      <trkpt lat="-28.312075" lon="-65.71702">
        <ele>704.1</ele>
        <time>2018-08-20T17:29:37Z</time>
      </trkpt>
      <trkpt lat="-28.312165" lon="-65.71701">
        <ele>703.1</ele>
        <time>2018-08-20T17:29:39Z</time>
      </trkpt>
      <trkpt lat="-28.312265" lon="-65.71698833333333">
        <ele>702.1</ele>
        <time>2018-08-20T17:29:41Z</time>
      </trkpt>
      <trkpt lat="-28.312359999999998" lon="-65.71698">
        <ele>701.8</ele>
        <time>2018-08-20T17:29:43Z</time>
      </trkpt>
      <trkpt lat="-28.312455" lon="-65.71697">
        <ele>701.7</ele>
        <time>2018-08-20T17:29:45Z</time>
      </trkpt>
      <trkpt lat="-28.31255" lon="-65.716955">
        <ele>701.3</ele>
        <time>2018-08-20T17:29:47Z</time>
      </trkpt>
      <trkpt lat="-28.312655" lon="-65.716935">
        <ele>700.9</ele>
        <time>2018-08-20T17:29:49Z</time>
      </trkpt>
      <trkpt lat="-28.31277" lon="-65.71692">
        <ele>701.0</ele>
        <time>2018-08-20T17:29:51Z</time>
      </trkpt>
      <trkpt lat="-28.312895" lon="-65.716895">
        <ele>701.3</ele>
        <time>2018-08-20T17:29:53Z</time>
      </trkpt>
      <trkpt lat="-28.313015" lon="-65.71688">
        <ele>701.6</ele>
        <time>2018-08-20T17:29:55Z</time>
      </trkpt>
      <trkpt lat="-28.313155" lon="-65.71685">
        <ele>701.2</ele>
        <time>2018-08-20T17:29:57Z</time>
      </trkpt>
      <trkpt lat="-28.31323" lon="-65.71684">
        <ele>700.8</ele>
        <time>2018-08-20T17:29:58Z</time>
      </trkpt>
      <trkpt lat="-28.313363333333335" lon="-65.71682">
        <ele>700.9</ele>
        <time>2018-08-20T17:30:00Z</time>
      </trkpt>
      <trkpt lat="-28.313515" lon="-65.716795">
        <ele>701.5</ele>
        <time>2018-08-20T17:30:02Z</time>
      </trkpt>
      <trkpt lat="-28.3136" lon="-65.71679">
        <ele>701.3</ele>
        <time>2018-08-20T17:30:03Z</time>
      </trkpt>
      <trkpt lat="-28.31368" lon="-65.716775">
        <ele>701.4</ele>
        <time>2018-08-20T17:30:04Z</time>
      </trkpt>
      <trkpt lat="-28.313765" lon="-65.71675833333333">
        <ele>701.1</ele>
        <time>2018-08-20T17:30:05Z</time>
      </trkpt>
      <trkpt lat="-28.313855" lon="-65.716745">
        <ele>700.6</ele>
        <time>2018-08-20T17:30:06Z</time>
      </trkpt>
      <trkpt lat="-28.313945" lon="-65.716735">
        <ele>699.7</ele>
        <time>2018-08-20T17:30:07Z</time>
      </trkpt>
      <trkpt lat="-28.314035" lon="-65.71671">
        <ele>698.8</ele>
        <time>2018-08-20T17:30:08Z</time>
      </trkpt>
      <trkpt lat="-28.31414" lon="-65.7167">
        <ele>698.0</ele>
        <time>2018-08-20T17:30:09Z</time>
      </trkpt>
      <trkpt lat="-28.31424" lon="-65.71668">
        <ele>697.5</ele>
        <time>2018-08-20T17:30:10Z</time>
      </trkpt>
      <trkpt lat="-28.314335" lon="-65.716665">
        <ele>697.3</ele>
        <time>2018-08-20T17:30:11Z</time>
      </trkpt>
      <trkpt lat="-28.314435" lon="-65.71665">
        <ele>696.9</ele>
        <time>2018-08-20T17:30:12Z</time>
      </trkpt>
      <trkpt lat="-28.314535" lon="-65.716635">
        <ele>696.4</ele>
        <time>2018-08-20T17:30:13Z</time>
      </trkpt>
      <trkpt lat="-28.31464" lon="-65.716615">
        <ele>695.9</ele>
        <time>2018-08-20T17:30:14Z</time>
      </trkpt>
      <trkpt lat="-28.31475" lon="-65.716595">
        <ele>695.3</ele>
        <time>2018-08-20T17:30:15Z</time>
      </trkpt>
      <trkpt lat="-28.31484" lon="-65.71657">
        <ele>694.5</ele>
        <time>2018-08-20T17:30:16Z</time>
      </trkpt>
      <trkpt lat="-28.314941666666666" lon="-65.71655">
        <ele>694.2</ele>
        <time>2018-08-20T17:30:17Z</time>
      </trkpt>
      <trkpt lat="-28.31505" lon="-65.71652">
        <ele>693.9</ele>
        <time>2018-08-20T17:30:18Z</time>
      </trkpt>
      <trkpt lat="-28.31517" lon="-65.716485">
        <ele>693.2</ele>
        <time>2018-08-20T17:30:19Z</time>
      </trkpt>
      <trkpt lat="-28.31527" lon="-65.716455">
        <ele>692.1</ele>
        <time>2018-08-20T17:30:20Z</time>
      </trkpt>
      <trkpt lat="-28.31538" lon="-65.71642">
        <ele>690.3</ele>
        <time>2018-08-20T17:30:21Z</time>
      </trkpt>
      <trkpt lat="-28.315475" lon="-65.71638">
        <ele>688.8</ele>
        <time>2018-08-20T17:30:22Z</time>
      </trkpt>
      <trkpt lat="-28.315575" lon="-65.71634">
        <ele>687.6</ele>
        <time>2018-08-20T17:30:23Z</time>
      </trkpt>
      <trkpt lat="-28.315685" lon="-65.716295">
        <ele>686.4</ele>
        <time>2018-08-20T17:30:24Z</time>
      </trkpt>
      <trkpt lat="-28.315775" lon="-65.71625">
        <ele>686.0</ele>
        <time>2018-08-20T17:30:25Z</time>
      </trkpt>
      <trkpt lat="-28.31587" lon="-65.7162">
        <ele>685.0</ele>
        <time>2018-08-20T17:30:26Z</time>
      </trkpt>
      <trkpt lat="-28.315965" lon="-65.716155">
        <ele>684.0</ele>
        <time>2018-08-20T17:30:27Z</time>
      </trkpt>
      <trkpt lat="-28.31606" lon="-65.716105">
        <ele>682.8</ele>
        <time>2018-08-20T17:30:28Z</time>
      </trkpt>
      <trkpt lat="-28.316155" lon="-65.716045">
        <ele>681.4</ele>
        <time>2018-08-20T17:30:29Z</time>
      </trkpt>
      <trkpt lat="-28.316255" lon="-65.715995">
        <ele>680.8</ele>
        <time>2018-08-20T17:30:30Z</time>
      </trkpt>
      <trkpt lat="-28.31636" lon="-65.715935">
        <ele>680.5</ele>
        <time>2018-08-20T17:30:31Z</time>
      </trkpt>
      <trkpt lat="-28.31646" lon="-65.715885">
        <ele>680.4</ele>
        <time>2018-08-20T17:30:32Z</time>
      </trkpt>
      <trkpt lat="-28.31655" lon="-65.715835">
        <ele>680.2</ele>
        <time>2018-08-20T17:30:33Z</time>
      </trkpt>
      <trkpt lat="-28.316651666666665" lon="-65.71578">
        <ele>680.1</ele>
        <time>2018-08-20T17:30:34Z</time>
      </trkpt>
      <trkpt lat="-28.316745" lon="-65.71574">
        <ele>680.4</ele>
        <time>2018-08-20T17:30:35Z</time>
      </trkpt>
      <trkpt lat="-28.316836666666667" lon="-65.715695">
        <ele>680.0</ele>
        <time>2018-08-20T17:30:36Z</time>
      </trkpt>
      <trkpt lat="-28.316935" lon="-65.715655">
        <ele>679.6</ele>
        <time>2018-08-20T17:30:37Z</time>
      </trkpt>
      <trkpt lat="-28.31704" lon="-65.7156">
        <ele>678.8</ele>
        <time>2018-08-20T17:30:38Z</time>
      </trkpt>
      <trkpt lat="-28.317135" lon="-65.71555166666667">
        <ele>678.3</ele>
        <time>2018-08-20T17:30:39Z</time>
      </trkpt>
      <trkpt lat="-28.317235" lon="-65.71550333333333">
        <ele>677.3</ele>
        <time>2018-08-20T17:30:40Z</time>
      </trkpt>
      <trkpt lat="-28.317325" lon="-65.71545833333333">
        <ele>676.6</ele>
        <time>2018-08-20T17:30:41Z</time>
      </trkpt>
      <trkpt lat="-28.317425" lon="-65.71541">
        <ele>675.5</ele>
        <time>2018-08-20T17:30:42Z</time>
      </trkpt>
      <trkpt lat="-28.317515" lon="-65.71536">
        <ele>675.2</ele>
        <time>2018-08-20T17:30:43Z</time>
      </trkpt>
      <trkpt lat="-28.317605" lon="-65.715315">
        <ele>675.1</ele>
        <time>2018-08-20T17:30:44Z</time>
      </trkpt>
      <trkpt lat="-28.317705" lon="-65.715265">
        <ele>675.2</ele>
        <time>2018-08-20T17:30:45Z</time>
      </trkpt>
      <trkpt lat="-28.317795" lon="-65.715215">
        <ele>674.6</ele>
        <time>2018-08-20T17:30:46Z</time>
      </trkpt>
      <trkpt lat="-28.317885" lon="-65.71517">
        <ele>673.6</ele>
        <time>2018-08-20T17:30:47Z</time>
      </trkpt>
      <trkpt lat="-28.317975" lon="-65.71512">
        <ele>673.0</ele>
        <time>2018-08-20T17:30:48Z</time>
      </trkpt>
      <trkpt lat="-28.31807" lon="-65.715075">
        <ele>672.1</ele>
        <time>2018-08-20T17:30:49Z</time>
      </trkpt>
      <trkpt lat="-28.318165" lon="-65.71501833333333">
        <ele>671.5</ele>
        <time>2018-08-20T17:30:50Z</time>
      </trkpt>
      <trkpt lat="-28.31826" lon="-65.71497166666667">
        <ele>671.0</ele>
        <time>2018-08-20T17:30:51Z</time>
      </trkpt>
      <trkpt lat="-28.318355" lon="-65.71492333333333">
        <ele>670.4</ele>
        <time>2018-08-20T17:30:52Z</time>
      </trkpt>
      <trkpt lat="-28.318441666666665" lon="-65.71487666666667">
        <ele>670.4</ele>
        <time>2018-08-20T17:30:53Z</time>
      </trkpt>
      <trkpt lat="-28.31854" lon="-65.71482666666667">
        <ele>670.4</ele>
        <time>2018-08-20T17:30:54Z</time>
      </trkpt>
      <trkpt lat="-28.31864" lon="-65.714775">
        <ele>670.3</ele>
        <time>2018-08-20T17:30:55Z</time>
      </trkpt>
      <trkpt lat="-28.31873" lon="-65.714725">
        <ele>670.2</ele>
        <time>2018-08-20T17:30:56Z</time>
      </trkpt>
      <trkpt lat="-28.318805" lon="-65.71468">
        <ele>670.5</ele>
        <time>2018-08-20T17:30:57Z</time>
      </trkpt>
      <trkpt lat="-28.3189" lon="-65.714625">
        <ele>670.4</ele>
        <time>2018-08-20T17:30:58Z</time>
      </trkpt>
      <trkpt lat="-28.31899" lon="-65.71458">
        <ele>670.2</ele>
        <time>2018-08-20T17:30:59Z</time>
      </trkpt>
      <trkpt lat="-28.31908" lon="-65.71453">
        <ele>669.7</ele>
        <time>2018-08-20T17:31:00Z</time>
      </trkpt>
      <trkpt lat="-28.319165" lon="-65.71448333333333">
        <ele>668.9</ele>
        <time>2018-08-20T17:31:01Z</time>
      </trkpt>
      <trkpt lat="-28.319255" lon="-65.714445">
        <ele>667.8</ele>
        <time>2018-08-20T17:31:02Z</time>
      </trkpt>
      <trkpt lat="-28.319335" lon="-65.7144">
        <ele>667.2</ele>
        <time>2018-08-20T17:31:03Z</time>
      </trkpt>
      <trkpt lat="-28.319415" lon="-65.71436">
        <ele>666.1</ele>
        <time>2018-08-20T17:31:04Z</time>
      </trkpt>
      <trkpt lat="-28.319495" lon="-65.714305">
        <ele>665.0</ele>
        <time>2018-08-20T17:31:05Z</time>
      </trkpt>
      <trkpt lat="-28.319575" lon="-65.71425833333333">
        <ele>663.8</ele>
        <time>2018-08-20T17:31:06Z</time>
      </trkpt>
      <trkpt lat="-28.31965" lon="-65.71422">
        <ele>663.0</ele>
        <time>2018-08-20T17:31:07Z</time>
      </trkpt>
      <trkpt lat="-28.31974" lon="-65.714175">
        <ele>662.2</ele>
        <time>2018-08-20T17:31:08Z</time>
      </trkpt>
      <trkpt lat="-28.31983" lon="-65.71413">
        <ele>661.6</ele>
        <time>2018-08-20T17:31:09Z</time>
      </trkpt>
      <trkpt lat="-28.31991" lon="-65.71409">
        <ele>661.3</ele>
        <time>2018-08-20T17:31:10Z</time>
      </trkpt>
      <trkpt lat="-28.32" lon="-65.714045">
        <ele>661.2</ele>
        <time>2018-08-20T17:31:11Z</time>
      </trkpt>
      <trkpt lat="-28.320085" lon="-65.714005">
        <ele>660.5</ele>
        <time>2018-08-20T17:31:12Z</time>
      </trkpt>
      <trkpt lat="-28.32017" lon="-65.71397">
        <ele>660.2</ele>
        <time>2018-08-20T17:31:13Z</time>
      </trkpt>
      <trkpt lat="-28.320255" lon="-65.71392">
        <ele>660.1</ele>
        <time>2018-08-20T17:31:14Z</time>
      </trkpt>
      <trkpt lat="-28.32034" lon="-65.71388">
        <ele>659.7</ele>
        <time>2018-08-20T17:31:15Z</time>
      </trkpt>
      <trkpt lat="-28.32041" lon="-65.71384">
        <ele>659.4</ele>
        <time>2018-08-20T17:31:16Z</time>
      </trkpt>
      <trkpt lat="-28.32048" lon="-65.7138">
        <ele>659.5</ele>
        <time>2018-08-20T17:31:17Z</time>
      </trkpt>
      <trkpt lat="-28.32056" lon="-65.713755">
        <ele>660.1</ele>
        <time>2018-08-20T17:31:18Z</time>
      </trkpt>
      <trkpt lat="-28.320645" lon="-65.71371166666667">
        <ele>660.2</ele>
        <time>2018-08-20T17:31:19Z</time>
      </trkpt>
      <trkpt lat="-28.320725" lon="-65.713665">
        <ele>660.0</ele>
        <time>2018-08-20T17:31:20Z</time>
      </trkpt>
      <trkpt lat="-28.32081" lon="-65.71362">
        <ele>659.2</ele>
        <time>2018-08-20T17:31:21Z</time>
      </trkpt>
      <trkpt lat="-28.32089" lon="-65.713575">
        <ele>658.6</ele>
        <time>2018-08-20T17:31:22Z</time>
      </trkpt>
      <trkpt lat="-28.32098" lon="-65.71353">
        <ele>657.5</ele>
        <time>2018-08-20T17:31:23Z</time>
      </trkpt>
      <trkpt lat="-28.321065" lon="-65.713485">
        <ele>656.7</ele>
        <time>2018-08-20T17:31:25Z</time>
      </trkpt>
      <trkpt lat="-28.321145" lon="-65.71344">
        <ele>655.8</ele>
        <time>2018-08-20T17:31:25Z</time>
      </trkpt>
      <trkpt lat="-28.321225" lon="-65.713395">
        <ele>655.5</ele>
        <time>2018-08-20T17:31:26Z</time>
      </trkpt>
      <trkpt lat="-28.321305" lon="-65.71335166666667">
        <ele>654.8</ele>
        <time>2018-08-20T17:31:27Z</time>
      </trkpt>
      <trkpt lat="-28.321395" lon="-65.71331166666667">
        <ele>654.3</ele>
        <time>2018-08-20T17:31:28Z</time>
      </trkpt>
      <trkpt lat="-28.32148" lon="-65.71326833333333">
        <ele>653.7</ele>
        <time>2018-08-20T17:31:29Z</time>
      </trkpt>
      <trkpt lat="-28.32156" lon="-65.71322833333333">
        <ele>653.2</ele>
        <time>2018-08-20T17:31:30Z</time>
      </trkpt>
      <trkpt lat="-28.32164" lon="-65.71319">
        <ele>652.5</ele>
        <time>2018-08-20T17:31:31Z</time>
      </trkpt>
      <trkpt lat="-28.32172" lon="-65.71315">
        <ele>652.2</ele>
        <time>2018-08-20T17:31:32Z</time>
      </trkpt>
      <trkpt lat="-28.3218" lon="-65.713105">
        <ele>652.1</ele>
        <time>2018-08-20T17:31:33Z</time>
      </trkpt>
      <trkpt lat="-28.32188" lon="-65.713065">
        <ele>651.9</ele>
        <time>2018-08-20T17:31:34Z</time>
      </trkpt>
      <trkpt lat="-28.321951666666667" lon="-65.71302">
        <ele>651.8</ele>
        <time>2018-08-20T17:31:35Z</time>
      </trkpt>
      <trkpt lat="-28.322035" lon="-65.712985">
        <ele>651.5</ele>
        <time>2018-08-20T17:31:36Z</time>
      </trkpt>
      <trkpt lat="-28.322115" lon="-65.712945">
        <ele>651.1</ele>
        <time>2018-08-20T17:31:37Z</time>
      </trkpt>
      <trkpt lat="-28.32219" lon="-65.71290666666667">
        <ele>650.7</ele>
        <time>2018-08-20T17:31:38Z</time>
      </trkpt>
      <trkpt lat="-28.322275" lon="-65.71287">
        <ele>650.6</ele>
        <time>2018-08-20T17:31:39Z</time>
      </trkpt>
      <trkpt lat="-28.322355" lon="-65.71284">
        <ele>650.9</ele>
        <time>2018-08-20T17:31:40Z</time>
      </trkpt>
      <trkpt lat="-28.322425" lon="-65.71280666666667">
        <ele>651.5</ele>
        <time>2018-08-20T17:31:41Z</time>
      </trkpt>
      <trkpt lat="-28.322495" lon="-65.71277666666667">
        <ele>652.5</ele>
        <time>2018-08-20T17:31:42Z</time>
      </trkpt>
      <trkpt lat="-28.322605" lon="-65.71271333333334">
        <ele>653.1</ele>
        <time>2018-08-20T17:31:44Z</time>
      </trkpt>
      <trkpt lat="-28.32272" lon="-65.712655">
        <ele>652.1</ele>
        <time>2018-08-20T17:31:46Z</time>
      </trkpt>
      <trkpt lat="-28.32282" lon="-65.71259">
        <ele>650.7</ele>
        <time>2018-08-20T17:31:48Z</time>
      </trkpt>
      <trkpt lat="-28.32293" lon="-65.712535">
        <ele>649.8</ele>
        <time>2018-08-20T17:31:50Z</time>
      </trkpt>
      <trkpt lat="-28.323035" lon="-65.712475">
        <ele>649.3</ele>
        <time>2018-08-20T17:31:52Z</time>
      </trkpt>
      <trkpt lat="-28.323125" lon="-65.71241">
        <ele>648.3</ele>
        <time>2018-08-20T17:31:54Z</time>
      </trkpt>
      <trkpt lat="-28.32323" lon="-65.712345">
        <ele>647.6</ele>
        <time>2018-08-20T17:31:56Z</time>
      </trkpt>
      <trkpt lat="-28.323315" lon="-65.712305">
        <ele>647.3</ele>
        <time>2018-08-20T17:31:58Z</time>
      </trkpt>
      <trkpt lat="-28.32341" lon="-65.71225">
        <ele>646.9</ele>
        <time>2018-08-20T17:32:00Z</time>
      </trkpt>
      <trkpt lat="-28.323505" lon="-65.71219333333333">
        <ele>646.7</ele>
        <time>2018-08-20T17:32:02Z</time>
      </trkpt>
      <trkpt lat="-28.323605" lon="-65.71214">
        <ele>647.9</ele>
        <time>2018-08-20T17:32:04Z</time>
      </trkpt>
      <trkpt lat="-28.323705" lon="-65.712095">
        <ele>649.1</ele>
        <time>2018-08-20T17:32:06Z</time>
      </trkpt>
      <trkpt lat="-28.323805" lon="-65.712045">
        <ele>650.5</ele>
        <time>2018-08-20T17:32:08Z</time>
      </trkpt>
      <trkpt lat="-28.32391" lon="-65.712">
        <ele>651.7</ele>
        <time>2018-08-20T17:32:10Z</time>
      </trkpt>
      <trkpt lat="-28.323995" lon="-65.71195">
        <ele>653.1</ele>
        <time>2018-08-20T17:32:12Z</time>
      </trkpt>
      <trkpt lat="-28.324085" lon="-65.71191666666667">
        <ele>655.5</ele>
        <time>2018-08-20T17:32:14Z</time>
      </trkpt>
      <trkpt lat="-28.324175" lon="-65.71188333333333">
        <ele>658.4</ele>
        <time>2018-08-20T17:32:16Z</time>
      </trkpt>
      <trkpt lat="-28.324265" lon="-65.71185">
        <ele>659.4</ele>
        <time>2018-08-20T17:32:18Z</time>
      </trkpt>
      <trkpt lat="-28.32434" lon="-65.71181">
        <ele>658.9</ele>
        <time>2018-08-20T17:32:20Z</time>
      </trkpt>
      <trkpt lat="-28.324415" lon="-65.711775">
        <ele>658.4</ele>
        <time>2018-08-20T17:32:22Z</time>
      </trkpt>
      <trkpt lat="-28.32449" lon="-65.711725">
        <ele>658.3</ele>
        <time>2018-08-20T17:32:24Z</time>
      </trkpt>
      <trkpt lat="-28.324565" lon="-65.71168">
        <ele>658.2</ele>
        <time>2018-08-20T17:32:27Z</time>
      </trkpt>
      <trkpt lat="-28.324635" lon="-65.71164">
        <ele>658.1</ele>
        <time>2018-08-20T17:32:29Z</time>
      </trkpt>
      <trkpt lat="-28.324715" lon="-65.711595">
        <ele>658.2</ele>
        <time>2018-08-20T17:32:31Z</time>
      </trkpt>
      <trkpt lat="-28.324801666666666" lon="-65.71155">
        <ele>658.5</ele>
        <time>2018-08-20T17:32:33Z</time>
      </trkpt>
      <trkpt lat="-28.32487" lon="-65.7115">
        <ele>658.4</ele>
        <time>2018-08-20T17:32:35Z</time>
      </trkpt>
      <trkpt lat="-28.324945" lon="-65.71146">
        <ele>657.2</ele>
        <time>2018-08-20T17:32:37Z</time>
      </trkpt>
      <trkpt lat="-28.32502" lon="-65.711415">
        <ele>656.4</ele>
        <time>2018-08-20T17:32:39Z</time>
      </trkpt>
      <trkpt lat="-28.32509" lon="-65.711385">
        <ele>656.8</ele>
        <time>2018-08-20T17:32:41Z</time>
      </trkpt>
      <trkpt lat="-28.32516" lon="-65.711345">
        <ele>656.6</ele>
        <time>2018-08-20T17:32:43Z</time>
      </trkpt>
      <trkpt lat="-28.32523" lon="-65.71130166666667">
        <ele>656.0</ele>
        <time>2018-08-20T17:32:45Z</time>
      </trkpt>
      <trkpt lat="-28.325305" lon="-65.71125">
        <ele>655.9</ele>
        <time>2018-08-20T17:32:48Z</time>
      </trkpt>
      <trkpt lat="-28.325385" lon="-65.71119666666667">
        <ele>655.8</ele>
        <time>2018-08-20T17:32:51Z</time>
      </trkpt>
      <trkpt lat="-28.32546" lon="-65.71115">
        <ele>655.7</ele>
        <time>2018-08-20T17:32:54Z</time>
      </trkpt>
      <trkpt lat="-28.325528333333335" lon="-65.711095">
        <ele>655.5</ele>
        <time>2018-08-20T17:32:57Z</time>
      </trkpt>
      <trkpt lat="-28.325605" lon="-65.71105">
        <ele>655.3</ele>
        <time>2018-08-20T17:33:00Z</time>
      </trkpt>
      <trkpt lat="-28.32568" lon="-65.711005">
        <ele>655.1</ele>
        <time>2018-08-20T17:33:04Z</time>
      </trkpt>
      <trkpt lat="-28.32576" lon="-65.71096">
        <ele>655.0</ele>
        <time>2018-08-20T17:33:06Z</time>
      </trkpt>
      <trkpt lat="-28.325835" lon="-65.71092">
        <ele>655.0</ele>
        <time>2018-08-20T17:33:09Z</time>
      </trkpt>
      <trkpt lat="-28.32591" lon="-65.710885">
        <ele>655.1</ele>
        <time>2018-08-20T17:33:12Z</time>
      </trkpt>
      <trkpt lat="-28.325995" lon="-65.710835">
        <ele>655.1</ele>
        <time>2018-08-20T17:33:16Z</time>
      </trkpt>
      <trkpt lat="-28.32606" lon="-65.7108">
        <ele>655.1</ele>
        <time>2018-08-20T17:33:19Z</time>
      </trkpt>
      <trkpt lat="-28.326133333333335" lon="-65.71075833333333">
        <ele>655.2</ele>
        <time>2018-08-20T17:33:22Z</time>
      </trkpt>
      <trkpt lat="-28.326215" lon="-65.71071333333333">
        <ele>655.3</ele>
        <time>2018-08-20T17:33:25Z</time>
      </trkpt>
      <trkpt lat="-28.32629" lon="-65.71067333333333">
        <ele>655.4</ele>
        <time>2018-08-20T17:33:28Z</time>
      </trkpt>
      <trkpt lat="-28.32638" lon="-65.710645">
        <ele>655.7</ele>
        <time>2018-08-20T17:33:31Z</time>
      </trkpt>
      <trkpt lat="-28.326461666666667" lon="-65.71061">
        <ele>656.2</ele>
        <time>2018-08-20T17:33:34Z</time>
      </trkpt>
      <trkpt lat="-28.326546666666665" lon="-65.710575">
        <ele>656.8</ele>
        <time>2018-08-20T17:33:37Z</time>
      </trkpt>
      <trkpt lat="-28.326615" lon="-65.71054166666667">
        <ele>657.5</ele>
        <time>2018-08-20T17:33:40Z</time>
      </trkpt>
      <trkpt lat="-28.3267" lon="-65.71049666666667">
        <ele>658.0</ele>
        <time>2018-08-20T17:33:43Z</time>
      </trkpt>
      <trkpt lat="-28.326785" lon="-65.71044833333333">
        <ele>658.6</ele>
        <time>2018-08-20T17:33:46Z</time>
      </trkpt>
      <trkpt lat="-28.326865" lon="-65.71042">
        <ele>659.2</ele>
        <time>2018-08-20T17:33:50Z</time>
      </trkpt>
      <trkpt lat="-28.326935" lon="-65.710385">
        <ele>659.7</ele>
        <time>2018-08-20T17:33:54Z</time>
      </trkpt>
      <trkpt lat="-28.326995" lon="-65.71034">
        <ele>660.0</ele>
        <time>2018-08-20T17:33:56Z</time>
      </trkpt>
      <trkpt lat="-28.327066666666667" lon="-65.7103">
        <ele>660.4</ele>
        <time>2018-08-20T17:33:59Z</time>
      </trkpt>
      <trkpt lat="-28.32714" lon="-65.71025">
        <ele>660.7</ele>
        <time>2018-08-20T17:34:03Z</time>
      </trkpt>
      <trkpt lat="-28.32721" lon="-65.710195">
        <ele>660.6</ele>
        <time>2018-08-20T17:34:08Z</time>
      </trkpt>
      <trkpt lat="-28.327285" lon="-65.71015">
        <ele>660.4</ele>
        <time>2018-08-20T17:34:14Z</time>
      </trkpt>
      <trkpt lat="-28.327355" lon="-65.71012">
        <ele>660.2</ele>
        <time>2018-08-20T17:34:17Z</time>
      </trkpt>
      <trkpt lat="-28.32746" lon="-65.710075">
        <ele>659.3</ele>
        <time>2018-08-20T17:34:19Z</time>
      </trkpt>
      <trkpt lat="-28.32753" lon="-65.71004833333333">
        <ele>659.3</ele>
        <time>2018-08-20T17:34:21Z</time>
      </trkpt>
      <trkpt lat="-28.3276" lon="-65.710025">
        <ele>659.3</ele>
        <time>2018-08-20T17:34:23Z</time>
      </trkpt>
      <trkpt lat="-28.327675" lon="-65.70999833333333">
        <ele>659.3</ele>
        <time>2018-08-20T17:34:25Z</time>
      </trkpt>
      <trkpt lat="-28.32775" lon="-65.70998">
        <ele>659.3</ele>
        <time>2018-08-20T17:34:28Z</time>
      </trkpt>
      <trkpt lat="-28.327825" lon="-65.70995166666667">
        <ele>659.0</ele>
        <time>2018-08-20T17:34:30Z</time>
      </trkpt>
      <trkpt lat="-28.3279" lon="-65.709935">
        <ele>658.8</ele>
        <time>2018-08-20T17:34:31Z</time>
      </trkpt>
      <trkpt lat="-28.327975" lon="-65.70991333333333">
        <ele>658.7</ele>
        <time>2018-08-20T17:34:33Z</time>
      </trkpt>
      <trkpt lat="-28.328058333333335" lon="-65.7099">
        <ele>658.9</ele>
        <time>2018-08-20T17:34:35Z</time>
      </trkpt>
      <trkpt lat="-28.328135" lon="-65.709885">
        <ele>659.3</ele>
        <time>2018-08-20T17:34:37Z</time>
      </trkpt>
      <trkpt lat="-28.32822" lon="-65.70986">
        <ele>658.9</ele>
        <time>2018-08-20T17:34:39Z</time>
      </trkpt>
      <trkpt lat="-28.328305" lon="-65.70984">
        <ele>658.4</ele>
        <time>2018-08-20T17:34:41Z</time>
      </trkpt>
      <trkpt lat="-28.328395" lon="-65.70983">
        <ele>658.0</ele>
        <time>2018-08-20T17:34:44Z</time>
      </trkpt>
      <trkpt lat="-28.32848" lon="-65.709815">
        <ele>657.8</ele>
        <time>2018-08-20T17:34:46Z</time>
      </trkpt>
      <trkpt lat="-28.32857" lon="-65.709805">
        <ele>657.7</ele>
        <time>2018-08-20T17:34:47Z</time>
      </trkpt>
      <trkpt lat="-28.328655" lon="-65.709795">
        <ele>658.1</ele>
        <time>2018-08-20T17:34:49Z</time>
      </trkpt>
      <trkpt lat="-28.32874" lon="-65.709785">
        <ele>658.1</ele>
        <time>2018-08-20T17:34:52Z</time>
      </trkpt>
      <trkpt lat="-28.328825" lon="-65.70977333333333">
        <ele>657.5</ele>
        <time>2018-08-20T17:34:53Z</time>
      </trkpt>
      <trkpt lat="-28.328905" lon="-65.70977">
        <ele>657.1</ele>
        <time>2018-08-20T17:34:55Z</time>
      </trkpt>
      <trkpt lat="-28.329" lon="-65.70975833333334">
        <ele>657.2</ele>
        <time>2018-08-20T17:34:58Z</time>
      </trkpt>
      <trkpt lat="-28.329076666666666" lon="-65.709755">
        <ele>657.1</ele>
        <time>2018-08-20T17:35:01Z</time>
      </trkpt>
      <trkpt lat="-28.329175" lon="-65.709755">
        <ele>656.8</ele>
        <time>2018-08-20T17:35:04Z</time>
      </trkpt>
      <trkpt lat="-28.329275" lon="-65.70975">
        <ele>655.9</ele>
        <time>2018-08-20T17:35:08Z</time>
      </trkpt>
      <trkpt lat="-28.329355" lon="-65.70975">
        <ele>654.9</ele>
        <time>2018-08-20T17:35:09Z</time>
      </trkpt>
      <trkpt lat="-28.32943" lon="-65.70975">
        <ele>654.2</ele>
        <time>2018-08-20T17:35:11Z</time>
      </trkpt>
      <trkpt lat="-28.329503333333335" lon="-65.709755">
        <ele>653.9</ele>
        <time>2018-08-20T17:35:13Z</time>
      </trkpt>
      <trkpt lat="-28.329585" lon="-65.709755">
        <ele>653.9</ele>
        <time>2018-08-20T17:35:15Z</time>
      </trkpt>
      <trkpt lat="-28.32968333333333" lon="-65.709755">
        <ele>653.9</ele>
        <time>2018-08-20T17:35:18Z</time>
      </trkpt>
      <trkpt lat="-28.32976" lon="-65.70976166666667">
        <ele>652.3</ele>
        <time>2018-08-20T17:35:20Z</time>
      </trkpt>
      <trkpt lat="-28.32987" lon="-65.70977">
        <ele>652.6</ele>
        <time>2018-08-20T17:35:24Z</time>
      </trkpt>
      <trkpt lat="-28.32996" lon="-65.709775">
        <ele>652.8</ele>
        <time>2018-08-20T17:35:25Z</time>
      </trkpt>
      <trkpt lat="-28.330045" lon="-65.709785">
        <ele>652.8</ele>
        <time>2018-08-20T17:35:27Z</time>
      </trkpt>
      <trkpt lat="-28.330125" lon="-65.709795">
        <ele>652.7</ele>
        <time>2018-08-20T17:35:29Z</time>
      </trkpt>
      <trkpt lat="-28.330205" lon="-65.709805">
        <ele>652.7</ele>
        <time>2018-08-20T17:35:31Z</time>
      </trkpt>
      <trkpt lat="-28.330285" lon="-65.709805">
        <ele>652.9</ele>
        <time>2018-08-20T17:35:33Z</time>
      </trkpt>
      <trkpt lat="-28.330365" lon="-65.709815">
        <ele>652.7</ele>
        <time>2018-08-20T17:35:35Z</time>
      </trkpt>
      <trkpt lat="-28.330453333333335" lon="-65.70981833333333">
        <ele>652.9</ele>
        <time>2018-08-20T17:35:38Z</time>
      </trkpt>
      <trkpt lat="-28.33054" lon="-65.70983">
        <ele>652.8</ele>
        <time>2018-08-20T17:35:39Z</time>
      </trkpt>
      <trkpt lat="-28.33062" lon="-65.70984">
        <ele>653.4</ele>
        <time>2018-08-20T17:35:41Z</time>
      </trkpt>
      <trkpt lat="-28.33071" lon="-65.70985">
        <ele>652.8</ele>
        <time>2018-08-20T17:35:43Z</time>
      </trkpt>
      <trkpt lat="-28.33079" lon="-65.70986">
        <ele>651.7</ele>
        <time>2018-08-20T17:35:45Z</time>
      </trkpt>
      <trkpt lat="-28.330875" lon="-65.70986666666667">
        <ele>650.5</ele>
        <time>2018-08-20T17:35:47Z</time>
      </trkpt>
      <trkpt lat="-28.330955" lon="-65.70988">
        <ele>650.6</ele>
        <time>2018-08-20T17:35:49Z</time>
      </trkpt>
      <trkpt lat="-28.331035" lon="-65.709885">
        <ele>651.4</ele>
        <time>2018-08-20T17:35:52Z</time>
      </trkpt>
      <trkpt lat="-28.331115" lon="-65.70989">
        <ele>652.8</ele>
        <time>2018-08-20T17:35:54Z</time>
      </trkpt>
      <trkpt lat="-28.33119" lon="-65.709895">
        <ele>653.8</ele>
        <time>2018-08-20T17:35:55Z</time>
      </trkpt>
      <trkpt lat="-28.33128" lon="-65.7099">
        <ele>654.3</ele>
        <time>2018-08-20T17:35:57Z</time>
      </trkpt>
      <trkpt lat="-28.331365" lon="-65.70990166666667">
        <ele>654.5</ele>
        <time>2018-08-20T17:35:59Z</time>
      </trkpt>
      <trkpt lat="-28.331436666666665" lon="-65.70990833333333">
        <ele>654.6</ele>
        <time>2018-08-20T17:36:01Z</time>
      </trkpt>
      <trkpt lat="-28.33152" lon="-65.70991333333333">
        <ele>655.1</ele>
        <time>2018-08-20T17:36:03Z</time>
      </trkpt>
      <trkpt lat="-28.331605" lon="-65.709925">
        <ele>655.1</ele>
        <time>2018-08-20T17:36:05Z</time>
      </trkpt>
      <trkpt lat="-28.331695" lon="-65.709935">
        <ele>654.9</ele>
        <time>2018-08-20T17:36:07Z</time>
      </trkpt>
      <trkpt lat="-28.33178" lon="-65.70994">
        <ele>655.7</ele>
        <time>2018-08-20T17:36:09Z</time>
      </trkpt>
      <trkpt lat="-28.331853333333335" lon="-65.70995">
        <ele>656.5</ele>
        <time>2018-08-20T17:36:11Z</time>
      </trkpt>
      <trkpt lat="-28.33193" lon="-65.70995333333333">
        <ele>656.7</ele>
        <time>2018-08-20T17:36:13Z</time>
      </trkpt>
      <trkpt lat="-28.33201" lon="-65.709965">
        <ele>657.0</ele>
        <time>2018-08-20T17:36:15Z</time>
      </trkpt>
      <trkpt lat="-28.332095" lon="-65.70997">
        <ele>657.1</ele>
        <time>2018-08-20T17:36:17Z</time>
      </trkpt>
      <trkpt lat="-28.33218" lon="-65.709975">
        <ele>657.0</ele>
        <time>2018-08-20T17:36:19Z</time>
      </trkpt>
      <trkpt lat="-28.332265" lon="-65.70998">
        <ele>657.1</ele>
        <time>2018-08-20T17:36:21Z</time>
      </trkpt>
      <trkpt lat="-28.332345" lon="-65.70998">
        <ele>657.7</ele>
        <time>2018-08-20T17:36:23Z</time>
      </trkpt>
      <trkpt lat="-28.33242" lon="-65.70998">
        <ele>658.4</ele>
        <time>2018-08-20T17:36:25Z</time>
      </trkpt>
      <trkpt lat="-28.332525" lon="-65.70998333333333">
        <ele>658.4</ele>
        <time>2018-08-20T17:36:28Z</time>
      </trkpt>
      <trkpt lat="-28.332635" lon="-65.70998333333333">
        <ele>658.6</ele>
        <time>2018-08-20T17:36:31Z</time>
      </trkpt>
      <trkpt lat="-28.332715" lon="-65.70998666666667">
        <ele>658.6</ele>
        <time>2018-08-20T17:36:33Z</time>
      </trkpt>
      <trkpt lat="-28.33282" lon="-65.70998333333333">
        <ele>658.9</ele>
        <time>2018-08-20T17:36:36Z</time>
      </trkpt>
      <trkpt lat="-28.332906666666666" lon="-65.71001">
        <ele>659.1</ele>
        <time>2018-08-20T17:36:39Z</time>
      </trkpt>
      <trkpt lat="-28.33296" lon="-65.710025">
        <ele>659.1</ele>
        <time>2018-08-20T17:36:47Z</time>
      </trkpt>
      <trkpt lat="-28.33296" lon="-65.710025">
        <ele>659.2</ele>
        <time>2018-08-20T17:36:50Z</time>
      </trkpt>
      <trkpt lat="-28.333025" lon="-65.71003">
        <ele>659.2</ele>
        <time>2018-08-20T17:36:58Z</time>
      </trkpt>
      <trkpt lat="-28.333045" lon="-65.71003">
        <ele>659.2</ele>
        <time>2018-08-20T17:37:03Z</time>
      </trkpt>
      <trkpt lat="-28.33308" lon="-65.71003">
        <ele>659.2</ele>
        <time>2018-08-20T17:37:10Z</time>
      </trkpt>
      <trkpt lat="-28.333085" lon="-65.71003">
        <ele>659.2</ele>
        <time>2018-08-20T17:37:11Z</time>
      </trkpt>
      <trkpt lat="-28.333085" lon="-65.71004">
        <ele>659.3</ele>
        <time>2018-08-20T17:37:26Z</time>
      </trkpt>
      <trkpt lat="-28.33309" lon="-65.71004333333333">
        <ele>659.3</ele>
        <time>2018-08-20T17:37:26Z</time>
      </trkpt>
      <trkpt lat="-28.33309" lon="-65.710075">
        <ele>659.9</ele>
        <time>2018-08-20T17:37:57Z</time>
      </trkpt>
      <trkpt lat="-28.333085" lon="-65.710075">
        <ele>659.9</ele>
        <time>2018-08-20T17:37:58Z</time>
      </trkpt>
      <trkpt lat="-28.333085" lon="-65.710025">
        <ele>661.7</ele>
        <time>2018-08-20T17:38:09Z</time>
      </trkpt>
      <trkpt lat="-28.333085" lon="-65.710025">
        <ele>661.9</ele>
        <time>2018-08-20T17:38:10Z</time>
      </trkpt>
      <trkpt lat="-28.33309" lon="-65.709995">
        <ele>662.0</ele>
        <time>2018-08-20T17:38:18Z</time>
      </trkpt>
      <trkpt lat="-28.33319" lon="-65.70998">
        <ele>660.4</ele>
        <time>2018-08-20T17:38:21Z</time>
      </trkpt>
      <trkpt lat="-28.333275" lon="-65.709965">
        <ele>658.1</ele>
        <time>2018-08-20T17:38:23Z</time>
      </trkpt>
      <trkpt lat="-28.33337" lon="-65.70994666666667">
        <ele>656.7</ele>
        <time>2018-08-20T17:38:26Z</time>
      </trkpt>
      <trkpt lat="-28.333475" lon="-65.70994">
        <ele>655.4</ele>
        <time>2018-08-20T17:38:27Z</time>
      </trkpt>
      <trkpt lat="-28.333605" lon="-65.709925">
        <ele>654.3</ele>
        <time>2018-08-20T17:38:30Z</time>
      </trkpt>
      <trkpt lat="-28.333725" lon="-65.709915">
        <ele>653.6</ele>
        <time>2018-08-20T17:38:31Z</time>
      </trkpt>
      <trkpt lat="-28.33384" lon="-65.70990166666667">
        <ele>653.1</ele>
        <time>2018-08-20T17:38:33Z</time>
      </trkpt>
      <trkpt lat="-28.333955" lon="-65.70989">
        <ele>653.4</ele>
        <time>2018-08-20T17:38:35Z</time>
      </trkpt>
      <trkpt lat="-28.334075" lon="-65.70986666666667">
        <ele>653.6</ele>
        <time>2018-08-20T17:38:38Z</time>
      </trkpt>
      <trkpt lat="-28.3342" lon="-65.70985166666667">
        <ele>654.0</ele>
        <time>2018-08-20T17:38:39Z</time>
      </trkpt>
      <trkpt lat="-28.33434" lon="-65.70984">
        <ele>655.0</ele>
        <time>2018-08-20T17:38:41Z</time>
      </trkpt>
      <trkpt lat="-28.33447" lon="-65.709815">
        <ele>656.5</ele>
        <time>2018-08-20T17:38:43Z</time>
      </trkpt>
      <trkpt lat="-28.334605" lon="-65.7098">
        <ele>657.9</ele>
        <time>2018-08-20T17:38:45Z</time>
      </trkpt>
      <trkpt lat="-28.33474" lon="-65.709785">
        <ele>658.9</ele>
        <time>2018-08-20T17:38:48Z</time>
      </trkpt>
      <trkpt lat="-28.334875" lon="-65.70975833333334">
        <ele>659.2</ele>
        <time>2018-08-20T17:38:50Z</time>
      </trkpt>
      <trkpt lat="-28.33501" lon="-65.709745">
        <ele>659.4</ele>
        <time>2018-08-20T17:38:52Z</time>
      </trkpt>
      <trkpt lat="-28.335136666666667" lon="-65.70972">
        <ele>659.5</ele>
        <time>2018-08-20T17:38:54Z</time>
      </trkpt>
      <trkpt lat="-28.33527" lon="-65.7097">
        <ele>659.1</ele>
        <time>2018-08-20T17:38:55Z</time>
      </trkpt>
      <trkpt lat="-28.33541" lon="-65.709675">
        <ele>658.6</ele>
        <time>2018-08-20T17:38:57Z</time>
      </trkpt>
      <trkpt lat="-28.33548" lon="-65.70967">
        <ele>658.2</ele>
        <time>2018-08-20T17:38:59Z</time>
      </trkpt>
      <trkpt lat="-28.335555" lon="-65.70966">
        <ele>657.9</ele>
        <time>2018-08-20T17:38:59Z</time>
      </trkpt>
      <trkpt lat="-28.33563" lon="-65.70964166666667">
        <ele>657.5</ele>
        <time>2018-08-20T17:39:00Z</time>
      </trkpt>
      <trkpt lat="-28.3357" lon="-65.709635">
        <ele>657.3</ele>
        <time>2018-08-20T17:39:01Z</time>
      </trkpt>
      <trkpt lat="-28.335845" lon="-65.709615">
        <ele>657.7</ele>
        <time>2018-08-20T17:39:03Z</time>
      </trkpt>
      <trkpt lat="-28.336" lon="-65.70959">
        <ele>657.5</ele>
        <time>2018-08-20T17:39:05Z</time>
      </trkpt>
      <trkpt lat="-28.33608" lon="-65.70959">
        <ele>657.8</ele>
        <time>2018-08-20T17:39:06Z</time>
      </trkpt>
      <trkpt lat="-28.336161666666666" lon="-65.709585">
        <ele>658.2</ele>
        <time>2018-08-20T17:39:07Z</time>
      </trkpt>
      <trkpt lat="-28.33625" lon="-65.70958">
        <ele>659.0</ele>
        <time>2018-08-20T17:39:08Z</time>
      </trkpt>
      <trkpt lat="-28.336325" lon="-65.709575">
        <ele>659.9</ele>
        <time>2018-08-20T17:39:10Z</time>
      </trkpt>
      <trkpt lat="-28.336396666666666" lon="-65.70956">
        <ele>660.6</ele>
        <time>2018-08-20T17:39:10Z</time>
      </trkpt>
      <trkpt lat="-28.336535" lon="-65.70954833333333">
        <ele>661.6</ele>
        <time>2018-08-20T17:39:12Z</time>
      </trkpt>
      <trkpt lat="-28.33667" lon="-65.70953">
        <ele>661.4</ele>
        <time>2018-08-20T17:39:14Z</time>
      </trkpt>
      <trkpt lat="-28.33674" lon="-65.709525">
        <ele>661.0</ele>
        <time>2018-08-20T17:39:15Z</time>
      </trkpt>
      <trkpt lat="-28.33689" lon="-65.70950500000001">
        <ele>660.6</ele>
        <time>2018-08-20T17:39:17Z</time>
      </trkpt>
      <trkpt lat="-28.336956666666666" lon="-65.709495">
        <ele>660.4</ele>
        <time>2018-08-20T17:39:18Z</time>
      </trkpt>
      <trkpt lat="-28.337035" lon="-65.70949">
        <ele>660.3</ele>
        <time>2018-08-20T17:39:19Z</time>
      </trkpt>
      <trkpt lat="-28.337105" lon="-65.709475">
        <ele>660.2</ele>
        <time>2018-08-20T17:39:20Z</time>
      </trkpt>
      <trkpt lat="-28.33718" lon="-65.70946333333333">
        <ele>660.1</ele>
        <time>2018-08-20T17:39:21Z</time>
      </trkpt>
      <trkpt lat="-28.33725" lon="-65.70945166666667">
        <ele>660.0</ele>
        <time>2018-08-20T17:39:22Z</time>
      </trkpt>
      <trkpt lat="-28.337325" lon="-65.70945">
        <ele>660.0</ele>
        <time>2018-08-20T17:39:23Z</time>
      </trkpt>
      <trkpt lat="-28.337395" lon="-65.70944">
        <ele>660.2</ele>
        <time>2018-08-20T17:39:24Z</time>
      </trkpt>
      <trkpt lat="-28.33747" lon="-65.70942166666667">
        <ele>660.5</ele>
        <time>2018-08-20T17:39:25Z</time>
      </trkpt>
      <trkpt lat="-28.337536666666665" lon="-65.70941">
        <ele>660.6</ele>
        <time>2018-08-20T17:39:26Z</time>
      </trkpt>
      <trkpt lat="-28.337615" lon="-65.709405">
        <ele>660.6</ele>
        <time>2018-08-20T17:39:27Z</time>
      </trkpt>
      <trkpt lat="-28.33769" lon="-65.70939">
        <ele>660.5</ele>
        <time>2018-08-20T17:39:28Z</time>
      </trkpt>
      <trkpt lat="-28.33783" lon="-65.709365">
        <ele>660.4</ele>
        <time>2018-08-20T17:39:30Z</time>
      </trkpt>
      <trkpt lat="-28.337906666666665" lon="-65.70936">
        <ele>659.7</ele>
        <time>2018-08-20T17:39:32Z</time>
      </trkpt>
      <trkpt lat="-28.337985" lon="-65.70935">
        <ele>659.1</ele>
        <time>2018-08-20T17:39:32Z</time>
      </trkpt>
      <trkpt lat="-28.338055" lon="-65.70933166666667">
        <ele>658.5</ele>
        <time>2018-08-20T17:39:34Z</time>
      </trkpt>
      <trkpt lat="-28.338131666666666" lon="-65.709325">
        <ele>658.0</ele>
        <time>2018-08-20T17:39:34Z</time>
      </trkpt>
      <trkpt lat="-28.33821" lon="-65.709315">
        <ele>657.6</ele>
        <time>2018-08-20T17:39:35Z</time>
      </trkpt>
      <trkpt lat="-28.338281666666667" lon="-65.709305">
        <ele>657.3</ele>
        <time>2018-08-20T17:39:37Z</time>
      </trkpt>
      <trkpt lat="-28.338435" lon="-65.70928">
        <ele>656.8</ele>
        <time>2018-08-20T17:39:38Z</time>
      </trkpt>
      <trkpt lat="-28.33851" lon="-65.70927">
        <ele>656.6</ele>
        <time>2018-08-20T17:39:39Z</time>
      </trkpt>
      <trkpt lat="-28.33859" lon="-65.70926">
        <ele>656.6</ele>
        <time>2018-08-20T17:39:40Z</time>
      </trkpt>
      <trkpt lat="-28.33867" lon="-65.70925">
        <ele>656.6</ele>
        <time>2018-08-20T17:39:41Z</time>
      </trkpt>
      <trkpt lat="-28.338745" lon="-65.709235">
        <ele>656.6</ele>
        <time>2018-08-20T17:39:43Z</time>
      </trkpt>
      <trkpt lat="-28.338825" lon="-65.709225">
        <ele>656.8</ele>
        <time>2018-08-20T17:39:43Z</time>
      </trkpt>
      <trkpt lat="-28.338891666666665" lon="-65.709215">
        <ele>656.7</ele>
        <time>2018-08-20T17:39:44Z</time>
      </trkpt>
      <trkpt lat="-28.33897" lon="-65.70919333333333">
        <ele>656.7</ele>
        <time>2018-08-20T17:39:45Z</time>
      </trkpt>
      <trkpt lat="-28.33905" lon="-65.709185">
        <ele>656.6</ele>
        <time>2018-08-20T17:39:46Z</time>
      </trkpt>
      <trkpt lat="-28.339126666666665" lon="-65.709165">
        <ele>656.6</ele>
        <time>2018-08-20T17:39:47Z</time>
      </trkpt>
      <trkpt lat="-28.339215" lon="-65.70915166666667">
        <ele>656.5</ele>
        <time>2018-08-20T17:39:49Z</time>
      </trkpt>
      <trkpt lat="-28.339295" lon="-65.70914">
        <ele>655.9</ele>
        <time>2018-08-20T17:39:49Z</time>
      </trkpt>
      <trkpt lat="-28.339385" lon="-65.709135">
        <ele>654.9</ele>
        <time>2018-08-20T17:39:51Z</time>
      </trkpt>
      <trkpt lat="-28.339456666666667" lon="-65.709125">
        <ele>654.0</ele>
        <time>2018-08-20T17:39:51Z</time>
      </trkpt>
      <trkpt lat="-28.33954" lon="-65.70910833333333">
        <ele>652.9</ele>
        <time>2018-08-20T17:39:53Z</time>
      </trkpt>
      <trkpt lat="-28.339675" lon="-65.70909">
        <ele>652.6</ele>
        <time>2018-08-20T17:39:55Z</time>
      </trkpt>
      <trkpt lat="-28.339825" lon="-65.709075">
        <ele>652.4</ele>
        <time>2018-08-20T17:39:56Z</time>
      </trkpt>
      <trkpt lat="-28.339905" lon="-65.70906166666667">
        <ele>652.1</ele>
        <time>2018-08-20T17:39:57Z</time>
      </trkpt>
      <trkpt lat="-28.33998" lon="-65.709055">
        <ele>651.8</ele>
        <time>2018-08-20T17:39:58Z</time>
      </trkpt>
      <trkpt lat="-28.340055" lon="-65.709045">
        <ele>651.5</ele>
        <time>2018-08-20T17:40:00Z</time>
      </trkpt>
      <trkpt lat="-28.34013" lon="-65.70904">
        <ele>651.4</ele>
        <time>2018-08-20T17:40:00Z</time>
      </trkpt>
      <trkpt lat="-28.340275" lon="-65.70901">
        <ele>650.5</ele>
        <time>2018-08-20T17:40:02Z</time>
      </trkpt>
      <trkpt lat="-28.34036" lon="-65.70899833333333">
        <ele>650.3</ele>
        <time>2018-08-20T17:40:03Z</time>
      </trkpt>
      <trkpt lat="-28.340448333333335" lon="-65.708995">
        <ele>649.9</ele>
        <time>2018-08-20T17:40:05Z</time>
      </trkpt>
      <trkpt lat="-28.34054" lon="-65.708995">
        <ele>649.5</ele>
        <time>2018-08-20T17:40:05Z</time>
      </trkpt>
      <trkpt lat="-28.34063" lon="-65.70899">
        <ele>648.9</ele>
        <time>2018-08-20T17:40:06Z</time>
      </trkpt>
      <trkpt lat="-28.340715" lon="-65.70899">
        <ele>648.5</ele>
        <time>2018-08-20T17:40:07Z</time>
      </trkpt>
      <trkpt lat="-28.340795" lon="-65.708985">
        <ele>648.2</ele>
        <time>2018-08-20T17:40:08Z</time>
      </trkpt>
      <trkpt lat="-28.340885" lon="-65.708985">
        <ele>648.3</ele>
        <time>2018-08-20T17:40:09Z</time>
      </trkpt>
      <trkpt lat="-28.340975" lon="-65.708985">
        <ele>648.1</ele>
        <time>2018-08-20T17:40:11Z</time>
      </trkpt>
      <trkpt lat="-28.34107" lon="-65.708985">
        <ele>648.2</ele>
        <time>2018-08-20T17:40:11Z</time>
      </trkpt>
      <trkpt lat="-28.341155" lon="-65.708985">
        <ele>648.7</ele>
        <time>2018-08-20T17:40:12Z</time>
      </trkpt>
      <trkpt lat="-28.341236666666667" lon="-65.708985">
        <ele>649.1</ele>
        <time>2018-08-20T17:40:13Z</time>
      </trkpt>
      <trkpt lat="-28.34133" lon="-65.70899">
        <ele>649.4</ele>
        <time>2018-08-20T17:40:14Z</time>
      </trkpt>
      <trkpt lat="-28.34142" lon="-65.70899">
        <ele>649.5</ele>
        <time>2018-08-20T17:40:15Z</time>
      </trkpt>
      <trkpt lat="-28.34151" lon="-65.708995">
        <ele>649.5</ele>
        <time>2018-08-20T17:40:16Z</time>
      </trkpt>
      <trkpt lat="-28.341595" lon="-65.708995">
        <ele>649.4</ele>
        <time>2018-08-20T17:40:17Z</time>
      </trkpt>
      <trkpt lat="-28.341685" lon="-65.70900166666667">
        <ele>649.1</ele>
        <time>2018-08-20T17:40:18Z</time>
      </trkpt>
      <trkpt lat="-28.34177" lon="-65.70901333333333">
        <ele>649.0</ele>
        <time>2018-08-20T17:40:19Z</time>
      </trkpt>
      <trkpt lat="-28.341865" lon="-65.709025">
        <ele>649.1</ele>
        <time>2018-08-20T17:40:21Z</time>
      </trkpt>
      <trkpt lat="-28.341955" lon="-65.709035">
        <ele>649.0</ele>
        <time>2018-08-20T17:40:22Z</time>
      </trkpt>
      <trkpt lat="-28.342038333333335" lon="-65.709045">
        <ele>648.8</ele>
        <time>2018-08-20T17:40:22Z</time>
      </trkpt>
      <trkpt lat="-28.342135" lon="-65.709055">
        <ele>648.7</ele>
        <time>2018-08-20T17:40:23Z</time>
      </trkpt>
      <trkpt lat="-28.342221666666667" lon="-65.70907">
        <ele>648.5</ele>
        <time>2018-08-20T17:40:24Z</time>
      </trkpt>
      <trkpt lat="-28.342315" lon="-65.70908">
        <ele>648.4</ele>
        <time>2018-08-20T17:40:25Z</time>
      </trkpt>
      <trkpt lat="-28.3424" lon="-65.70909333333333">
        <ele>648.1</ele>
        <time>2018-08-20T17:40:26Z</time>
      </trkpt>
      <trkpt lat="-28.342486666666666" lon="-65.70910666666667">
        <ele>647.9</ele>
        <time>2018-08-20T17:40:27Z</time>
      </trkpt>
      <trkpt lat="-28.34258" lon="-65.709125">
        <ele>647.5</ele>
        <time>2018-08-20T17:40:28Z</time>
      </trkpt>
      <trkpt lat="-28.34267" lon="-65.70914">
        <ele>647.1</ele>
        <time>2018-08-20T17:40:29Z</time>
      </trkpt>
      <trkpt lat="-28.342755" lon="-65.70915166666667">
        <ele>646.6</ele>
        <time>2018-08-20T17:40:31Z</time>
      </trkpt>
      <trkpt lat="-28.34286" lon="-65.70916666666666">
        <ele>646.7</ele>
        <time>2018-08-20T17:40:31Z</time>
      </trkpt>
      <trkpt lat="-28.342945" lon="-65.709185">
        <ele>646.8</ele>
        <time>2018-08-20T17:40:32Z</time>
      </trkpt>
      <trkpt lat="-28.343035" lon="-65.709195">
        <ele>646.9</ele>
        <time>2018-08-20T17:40:33Z</time>
      </trkpt>
      <trkpt lat="-28.343135" lon="-65.709215">
        <ele>647.2</ele>
        <time>2018-08-20T17:40:34Z</time>
      </trkpt>
      <trkpt lat="-28.34323" lon="-65.70922666666667">
        <ele>647.4</ele>
        <time>2018-08-20T17:40:35Z</time>
      </trkpt>
      <trkpt lat="-28.343325" lon="-65.70924166666667">
        <ele>648.0</ele>
        <time>2018-08-20T17:40:36Z</time>
      </trkpt>
      <trkpt lat="-28.34342" lon="-65.709265">
        <ele>647.8</ele>
        <time>2018-08-20T17:40:38Z</time>
      </trkpt>
      <trkpt lat="-28.343515" lon="-65.70928">
        <ele>647.6</ele>
        <time>2018-08-20T17:40:38Z</time>
      </trkpt>
      <trkpt lat="-28.343605" lon="-65.709295">
        <ele>647.9</ele>
        <time>2018-08-20T17:40:39Z</time>
      </trkpt>
      <trkpt lat="-28.3437" lon="-65.709305">
        <ele>647.4</ele>
        <time>2018-08-20T17:40:40Z</time>
      </trkpt>
      <trkpt lat="-28.343785" lon="-65.70931666666667">
        <ele>647.4</ele>
        <time>2018-08-20T17:40:41Z</time>
      </trkpt>
      <trkpt lat="-28.343885" lon="-65.70933166666667">
        <ele>647.3</ele>
        <time>2018-08-20T17:40:42Z</time>
      </trkpt>
      <trkpt lat="-28.343965" lon="-65.70935">
        <ele>647.2</ele>
        <time>2018-08-20T17:40:44Z</time>
      </trkpt>
      <trkpt lat="-28.344065" lon="-65.709365">
        <ele>647.0</ele>
        <time>2018-08-20T17:40:44Z</time>
      </trkpt>
      <trkpt lat="-28.344155" lon="-65.709375">
        <ele>646.7</ele>
        <time>2018-08-20T17:40:45Z</time>
      </trkpt>
      <trkpt lat="-28.34425" lon="-65.70939">
        <ele>646.0</ele>
        <time>2018-08-20T17:40:47Z</time>
      </trkpt>
      <trkpt lat="-28.344345" lon="-65.7094">
        <ele>645.4</ele>
        <time>2018-08-20T17:40:47Z</time>
      </trkpt>
      <trkpt lat="-28.34443" lon="-65.70941">
        <ele>644.8</ele>
        <time>2018-08-20T17:40:49Z</time>
      </trkpt>
      <trkpt lat="-28.344525" lon="-65.70943">
        <ele>644.2</ele>
        <time>2018-08-20T17:40:49Z</time>
      </trkpt>
      <trkpt lat="-28.34462" lon="-65.709435">
        <ele>643.7</ele>
        <time>2018-08-20T17:40:51Z</time>
      </trkpt>
      <trkpt lat="-28.344715" lon="-65.70944">
        <ele>642.7</ele>
        <time>2018-08-20T17:40:51Z</time>
      </trkpt>
      <trkpt lat="-28.344801666666665" lon="-65.709445">
        <ele>641.9</ele>
        <time>2018-08-20T17:40:52Z</time>
      </trkpt>
      <trkpt lat="-28.34489" lon="-65.70945">
        <ele>640.9</ele>
        <time>2018-08-20T17:40:53Z</time>
      </trkpt>
      <trkpt lat="-28.344985" lon="-65.70945">
        <ele>639.9</ele>
        <time>2018-08-20T17:40:55Z</time>
      </trkpt>
      <trkpt lat="-28.345065" lon="-65.70945">
        <ele>639.4</ele>
        <time>2018-08-20T17:40:55Z</time>
      </trkpt>
      <trkpt lat="-28.345215" lon="-65.70945">
        <ele>639.8</ele>
        <time>2018-08-20T17:40:57Z</time>
      </trkpt>
      <trkpt lat="-28.345295" lon="-65.70945">
        <ele>639.6</ele>
        <time>2018-08-20T17:40:58Z</time>
      </trkpt>
      <trkpt lat="-28.34538" lon="-65.70944">
        <ele>639.0</ele>
        <time>2018-08-20T17:40:59Z</time>
      </trkpt>
      <trkpt lat="-28.345465" lon="-65.70943">
        <ele>638.9</ele>
        <time>2018-08-20T17:41:01Z</time>
      </trkpt>
      <trkpt lat="-28.345545" lon="-65.70941833333333">
        <ele>638.6</ele>
        <time>2018-08-20T17:41:01Z</time>
      </trkpt>
      <trkpt lat="-28.34562" lon="-65.70941">
        <ele>638.4</ele>
        <time>2018-08-20T17:41:02Z</time>
      </trkpt>
      <trkpt lat="-28.345695" lon="-65.70941">
        <ele>638.1</ele>
        <time>2018-08-20T17:41:03Z</time>
      </trkpt>
      <trkpt lat="-28.345775" lon="-65.709405">
        <ele>637.7</ele>
        <time>2018-08-20T17:41:04Z</time>
      </trkpt>
      <trkpt lat="-28.34586" lon="-65.70939166666666">
        <ele>637.9</ele>
        <time>2018-08-20T17:41:05Z</time>
      </trkpt>
      <trkpt lat="-28.345936666666667" lon="-65.70939">
        <ele>638.8</ele>
        <time>2018-08-20T17:41:06Z</time>
      </trkpt>
      <trkpt lat="-28.34602" lon="-65.70939">
        <ele>639.3</ele>
        <time>2018-08-20T17:41:07Z</time>
      </trkpt>
      <trkpt lat="-28.346105" lon="-65.70937833333333">
        <ele>640.3</ele>
        <time>2018-08-20T17:41:08Z</time>
      </trkpt>
      <trkpt lat="-28.346246666666666" lon="-65.70937">
        <ele>641.8</ele>
        <time>2018-08-20T17:41:11Z</time>
      </trkpt>
      <trkpt lat="-28.346330000000002" lon="-65.709365">
        <ele>642.1</ele>
        <time>2018-08-20T17:41:11Z</time>
      </trkpt>
      <trkpt lat="-28.346465" lon="-65.70936">
        <ele>643.2</ele>
        <time>2018-08-20T17:41:14Z</time>
      </trkpt>
      <trkpt lat="-28.34661" lon="-65.70935">
        <ele>643.1</ele>
        <time>2018-08-20T17:41:15Z</time>
      </trkpt>
      <trkpt lat="-28.34674" lon="-65.70933333333333">
        <ele>642.7</ele>
        <time>2018-08-20T17:41:17Z</time>
      </trkpt>
      <trkpt lat="-28.346865" lon="-65.70932833333333">
        <ele>643.1</ele>
        <time>2018-08-20T17:41:19Z</time>
      </trkpt>
      <trkpt lat="-28.346996666666666" lon="-65.709325">
        <ele>642.5</ele>
        <time>2018-08-20T17:41:21Z</time>
      </trkpt>
      <trkpt lat="-28.34712" lon="-65.709325">
        <ele>642.6</ele>
        <time>2018-08-20T17:41:23Z</time>
      </trkpt>
      <trkpt lat="-28.34723" lon="-65.709315">
        <ele>643.2</ele>
        <time>2018-08-20T17:41:25Z</time>
      </trkpt>
      <trkpt lat="-28.347315" lon="-65.709305">
        <ele>641.8</ele>
        <time>2018-08-20T17:41:28Z</time>
      </trkpt>
      <trkpt lat="-28.347395" lon="-65.70928666666667">
        <ele>641.9</ele>
        <time>2018-08-20T17:41:29Z</time>
      </trkpt>
      <trkpt lat="-28.347465" lon="-65.70927">
        <ele>640.6</ele>
        <time>2018-08-20T17:41:31Z</time>
      </trkpt>
      <trkpt lat="-28.347565" lon="-65.70924">
        <ele>637.9</ele>
        <time>2018-08-20T17:41:34Z</time>
      </trkpt>
      <trkpt lat="-28.347665" lon="-65.709225">
        <ele>636.3</ele>
        <time>2018-08-20T17:41:35Z</time>
      </trkpt>
      <trkpt lat="-28.347766666666665" lon="-65.70922">
        <ele>634.9</ele>
        <time>2018-08-20T17:41:37Z</time>
      </trkpt>
      <trkpt lat="-28.34787" lon="-65.70921">
        <ele>634.4</ele>
        <time>2018-08-20T17:41:39Z</time>
      </trkpt>
      <trkpt lat="-28.34799" lon="-65.70919666666667">
        <ele>634.0</ele>
        <time>2018-08-20T17:41:41Z</time>
      </trkpt>
      <trkpt lat="-28.348085" lon="-65.70919166666667">
        <ele>632.6</ele>
        <time>2018-08-20T17:41:43Z</time>
      </trkpt>
      <trkpt lat="-28.348171666666666" lon="-65.709185">
        <ele>630.6</ele>
        <time>2018-08-20T17:41:45Z</time>
      </trkpt>
      <trkpt lat="-28.348275" lon="-65.709185">
        <ele>629.2</ele>
        <time>2018-08-20T17:41:47Z</time>
      </trkpt>
      <trkpt lat="-28.34838" lon="-65.70918">
        <ele>628.0</ele>
        <time>2018-08-20T17:41:49Z</time>
      </trkpt>
      <trkpt lat="-28.34849" lon="-65.70916666666666">
        <ele>626.8</ele>
        <time>2018-08-20T17:41:52Z</time>
      </trkpt>
      <trkpt lat="-28.348588333333332" lon="-65.709165">
        <ele>625.8</ele>
        <time>2018-08-20T17:41:53Z</time>
      </trkpt>
      <trkpt lat="-28.348695" lon="-65.709165">
        <ele>624.7</ele>
        <time>2018-08-20T17:41:56Z</time>
      </trkpt>
      <trkpt lat="-28.348788333333335" lon="-65.70915333333333">
        <ele>623.8</ele>
        <time>2018-08-20T17:41:57Z</time>
      </trkpt>
      <trkpt lat="-28.348885" lon="-65.709145">
        <ele>623.8</ele>
        <time>2018-08-20T17:41:59Z</time>
      </trkpt>
      <trkpt lat="-28.34899" lon="-65.70914">
        <ele>624.0</ele>
        <time>2018-08-20T17:42:01Z</time>
      </trkpt>
      <trkpt lat="-28.34909" lon="-65.709135">
        <ele>624.4</ele>
        <time>2018-08-20T17:42:03Z</time>
      </trkpt>
      <trkpt lat="-28.34919" lon="-65.709125">
        <ele>624.8</ele>
        <time>2018-08-20T17:42:06Z</time>
      </trkpt>
      <trkpt lat="-28.349295" lon="-65.70912">
        <ele>625.2</ele>
        <time>2018-08-20T17:42:07Z</time>
      </trkpt>
      <trkpt lat="-28.34939" lon="-65.70910666666667">
        <ele>625.8</ele>
        <time>2018-08-20T17:42:09Z</time>
      </trkpt>
      <trkpt lat="-28.34949" lon="-65.7091">
        <ele>626.3</ele>
        <time>2018-08-20T17:42:12Z</time>
      </trkpt>
      <trkpt lat="-28.349595" lon="-65.70909">
        <ele>626.3</ele>
        <time>2018-08-20T17:42:13Z</time>
      </trkpt>
      <trkpt lat="-28.3497" lon="-65.70908">
        <ele>625.7</ele>
        <time>2018-08-20T17:42:16Z</time>
      </trkpt>
      <trkpt lat="-28.3498" lon="-65.70908">
        <ele>625.3</ele>
        <time>2018-08-20T17:42:17Z</time>
      </trkpt>
      <trkpt lat="-28.3499" lon="-65.70908">
        <ele>625.0</ele>
        <time>2018-08-20T17:42:19Z</time>
      </trkpt>
      <trkpt lat="-28.349996666666666" lon="-65.709075">
        <ele>624.8</ele>
        <time>2018-08-20T17:42:21Z</time>
      </trkpt>
      <trkpt lat="-28.3501" lon="-65.70906166666667">
        <ele>624.6</ele>
        <time>2018-08-20T17:42:23Z</time>
      </trkpt>
      <trkpt lat="-28.35021" lon="-65.709055">
        <ele>624.3</ele>
        <time>2018-08-20T17:42:26Z</time>
      </trkpt>
      <trkpt lat="-28.35032" lon="-65.709055">
        <ele>624.3</ele>
        <time>2018-08-20T17:42:28Z</time>
      </trkpt>
      <trkpt lat="-28.35044" lon="-65.709045">
        <ele>624.9</ele>
        <time>2018-08-20T17:42:29Z</time>
      </trkpt>
      <trkpt lat="-28.350555" lon="-65.709045">
        <ele>626.0</ele>
        <time>2018-08-20T17:42:32Z</time>
      </trkpt>
      <trkpt lat="-28.350645" lon="-65.709035">
        <ele>626.9</ele>
        <time>2018-08-20T17:42:34Z</time>
      </trkpt>
      <trkpt lat="-28.350735" lon="-65.709015">
        <ele>627.3</ele>
        <time>2018-08-20T17:42:35Z</time>
      </trkpt>
      <trkpt lat="-28.350855" lon="-65.70900666666667">
        <ele>627.0</ele>
        <time>2018-08-20T17:42:37Z</time>
      </trkpt>
      <trkpt lat="-28.35096" lon="-65.708995">
        <ele>626.3</ele>
        <time>2018-08-20T17:42:40Z</time>
      </trkpt>
      <trkpt lat="-28.351065" lon="-65.708985">
        <ele>626.4</ele>
        <time>2018-08-20T17:42:41Z</time>
      </trkpt>
      <trkpt lat="-28.35118" lon="-65.70897">
        <ele>626.6</ele>
        <time>2018-08-20T17:42:44Z</time>
      </trkpt>
      <trkpt lat="-28.351295" lon="-65.708965">
        <ele>624.8</ele>
        <time>2018-08-20T17:42:45Z</time>
      </trkpt>
      <trkpt lat="-28.351415" lon="-65.70896">
        <ele>623.4</ele>
        <time>2018-08-20T17:42:47Z</time>
      </trkpt>
      <trkpt lat="-28.35153" lon="-65.70895">
        <ele>622.6</ele>
        <time>2018-08-20T17:42:49Z</time>
      </trkpt>
      <trkpt lat="-28.351655" lon="-65.70893166666667">
        <ele>622.4</ele>
        <time>2018-08-20T17:42:51Z</time>
      </trkpt>
      <trkpt lat="-28.351775" lon="-65.70892">
        <ele>622.7</ele>
        <time>2018-08-20T17:42:53Z</time>
      </trkpt>
      <trkpt lat="-28.351885" lon="-65.708915">
        <ele>623.8</ele>
        <time>2018-08-20T17:42:55Z</time>
      </trkpt>
      <trkpt lat="-28.352035" lon="-65.70891">
        <ele>625.6</ele>
        <time>2018-08-20T17:42:57Z</time>
      </trkpt>
      <trkpt lat="-28.35212" lon="-65.708905">
        <ele>625.9</ele>
        <time>2018-08-20T17:42:59Z</time>
      </trkpt>
      <trkpt lat="-28.35226" lon="-65.708905">
        <ele>626.3</ele>
        <time>2018-08-20T17:43:01Z</time>
      </trkpt>
      <trkpt lat="-28.352335" lon="-65.7089">
        <ele>625.9</ele>
        <time>2018-08-20T17:43:01Z</time>
      </trkpt>
      <trkpt lat="-28.352465" lon="-65.7089">
        <ele>625.0</ele>
        <time>2018-08-20T17:43:03Z</time>
      </trkpt>
      <trkpt lat="-28.352605" lon="-65.708895">
        <ele>623.6</ele>
        <time>2018-08-20T17:43:05Z</time>
      </trkpt>
      <trkpt lat="-28.35268" lon="-65.708885">
        <ele>622.9</ele>
        <time>2018-08-20T17:43:07Z</time>
      </trkpt>
      <trkpt lat="-28.352755" lon="-65.70888166666667">
        <ele>622.3</ele>
        <time>2018-08-20T17:43:07Z</time>
      </trkpt>
      <trkpt lat="-28.35283" lon="-65.708875">
        <ele>621.8</ele>
        <time>2018-08-20T17:43:09Z</time>
      </trkpt>
      <trkpt lat="-28.352905" lon="-65.70886666666667">
        <ele>620.9</ele>
        <time>2018-08-20T17:43:09Z</time>
      </trkpt>
      <trkpt lat="-28.352985" lon="-65.708865">
        <ele>620.5</ele>
        <time>2018-08-20T17:43:11Z</time>
      </trkpt>
      <trkpt lat="-28.353056666666667" lon="-65.708855">
        <ele>620.2</ele>
        <time>2018-08-20T17:43:11Z</time>
      </trkpt>
      <trkpt lat="-28.353205" lon="-65.708845">
        <ele>619.6</ele>
        <time>2018-08-20T17:43:13Z</time>
      </trkpt>
      <trkpt lat="-28.353285" lon="-65.70883666666667">
        <ele>619.1</ele>
        <time>2018-08-20T17:43:15Z</time>
      </trkpt>
      <trkpt lat="-28.353368333333332" lon="-65.70883666666667">
        <ele>618.6</ele>
        <time>2018-08-20T17:43:16Z</time>
      </trkpt>
      <trkpt lat="-28.353455" lon="-65.70883333333333">
        <ele>618.2</ele>
        <time>2018-08-20T17:43:17Z</time>
      </trkpt>
      <trkpt lat="-28.353535" lon="-65.70883">
        <ele>617.8</ele>
        <time>2018-08-20T17:43:17Z</time>
      </trkpt>
      <trkpt lat="-28.353615" lon="-65.70883">
        <ele>617.4</ele>
        <time>2018-08-20T17:43:18Z</time>
      </trkpt>
      <trkpt lat="-28.353695" lon="-65.70883">
        <ele>617.2</ele>
        <time>2018-08-20T17:43:19Z</time>
      </trkpt>
      <trkpt lat="-28.353775" lon="-65.70882166666667">
        <ele>617.0</ele>
        <time>2018-08-20T17:43:21Z</time>
      </trkpt>
      <trkpt lat="-28.353855" lon="-65.70882">
        <ele>616.9</ele>
        <time>2018-08-20T17:43:21Z</time>
      </trkpt>
      <trkpt lat="-28.35393" lon="-65.70882">
        <ele>616.7</ele>
        <time>2018-08-20T17:43:23Z</time>
      </trkpt>
      <trkpt lat="-28.354005" lon="-65.70882">
        <ele>616.5</ele>
        <time>2018-08-20T17:43:24Z</time>
      </trkpt>
      <trkpt lat="-28.35409" lon="-65.708815">
        <ele>616.4</ele>
        <time>2018-08-20T17:43:25Z</time>
      </trkpt>
      <trkpt lat="-28.35416" lon="-65.70881">
        <ele>616.6</ele>
        <time>2018-08-20T17:43:26Z</time>
      </trkpt>
      <trkpt lat="-28.354245" lon="-65.7088">
        <ele>616.5</ele>
        <time>2018-08-20T17:43:27Z</time>
      </trkpt>
      <trkpt lat="-28.35431833333333" lon="-65.7088">
        <ele>616.7</ele>
        <time>2018-08-20T17:43:28Z</time>
      </trkpt>
      <trkpt lat="-28.354395" lon="-65.7088">
        <ele>617.2</ele>
        <time>2018-08-20T17:43:28Z</time>
      </trkpt>
      <trkpt lat="-28.35454" lon="-65.70878166666667">
        <ele>618.2</ele>
        <time>2018-08-20T17:43:31Z</time>
      </trkpt>
      <trkpt lat="-28.35467" lon="-65.70877">
        <ele>619.1</ele>
        <time>2018-08-20T17:43:33Z</time>
      </trkpt>
      <trkpt lat="-28.3548" lon="-65.708765">
        <ele>620.5</ele>
        <time>2018-08-20T17:43:35Z</time>
      </trkpt>
      <trkpt lat="-28.35493" lon="-65.708755">
        <ele>620.5</ele>
        <time>2018-08-20T17:43:37Z</time>
      </trkpt>
      <trkpt lat="-28.355065" lon="-65.70874166666667">
        <ele>619.7</ele>
        <time>2018-08-20T17:43:39Z</time>
      </trkpt>
      <trkpt lat="-28.35518" lon="-65.70873">
        <ele>620.8</ele>
        <time>2018-08-20T17:43:41Z</time>
      </trkpt>
      <trkpt lat="-28.3553" lon="-65.708715">
        <ele>621.5</ele>
        <time>2018-08-20T17:43:43Z</time>
      </trkpt>
      <trkpt lat="-28.355405" lon="-65.708705">
        <ele>621.7</ele>
        <time>2018-08-20T17:43:45Z</time>
      </trkpt>
      <trkpt lat="-28.355515" lon="-65.70870166666667">
        <ele>621.2</ele>
        <time>2018-08-20T17:43:47Z</time>
      </trkpt>
      <trkpt lat="-28.35561" lon="-65.708695">
        <ele>621.3</ele>
        <time>2018-08-20T17:43:48Z</time>
      </trkpt>
      <trkpt lat="-28.355695" lon="-65.708685">
        <ele>621.3</ele>
        <time>2018-08-20T17:43:50Z</time>
      </trkpt>
      <trkpt lat="-28.355775" lon="-65.70868">
        <ele>621.5</ele>
        <time>2018-08-20T17:43:53Z</time>
      </trkpt>
      <trkpt lat="-28.35586" lon="-65.708675">
        <ele>620.4</ele>
        <time>2018-08-20T17:43:55Z</time>
      </trkpt>
      <trkpt lat="-28.35594" lon="-65.708675">
        <ele>619.3</ele>
        <time>2018-08-20T17:43:57Z</time>
      </trkpt>
      <trkpt lat="-28.356026666666665" lon="-65.708675">
        <ele>618.9</ele>
        <time>2018-08-20T17:43:59Z</time>
      </trkpt>
      <trkpt lat="-28.356105" lon="-65.70867">
        <ele>618.8</ele>
        <time>2018-08-20T17:44:01Z</time>
      </trkpt>
      <trkpt lat="-28.3562" lon="-65.70866">
        <ele>618.6</ele>
        <time>2018-08-20T17:44:04Z</time>
      </trkpt>
      <trkpt lat="-28.35628" lon="-65.70865833333333">
        <ele>618.6</ele>
        <time>2018-08-20T17:44:06Z</time>
      </trkpt>
      <trkpt lat="-28.356365" lon="-65.70865333333333">
        <ele>618.7</ele>
        <time>2018-08-20T17:44:09Z</time>
      </trkpt>
      <trkpt lat="-28.356455" lon="-65.70865">
        <ele>619.0</ele>
        <time>2018-08-20T17:44:12Z</time>
      </trkpt>
      <trkpt lat="-28.356565" lon="-65.70864">
        <ele>619.1</ele>
        <time>2018-08-20T17:44:15Z</time>
      </trkpt>
      <trkpt lat="-28.356665" lon="-65.70864">
        <ele>619.2</ele>
        <time>2018-08-20T17:44:17Z</time>
      </trkpt>
      <trkpt lat="-28.356745" lon="-65.70864166666667">
        <ele>619.4</ele>
        <time>2018-08-20T17:44:20Z</time>
      </trkpt>
      <trkpt lat="-28.35683" lon="-65.70864">
        <ele>619.6</ele>
        <time>2018-08-20T17:44:23Z</time>
      </trkpt>
      <trkpt lat="-28.356905" lon="-65.70863">
        <ele>619.8</ele>
        <time>2018-08-20T17:44:26Z</time>
      </trkpt>
      <trkpt lat="-28.356995" lon="-65.70861833333333">
        <ele>620.0</ele>
        <time>2018-08-20T17:44:29Z</time>
      </trkpt>
      <trkpt lat="-28.35708" lon="-65.70860833333333">
        <ele>620.3</ele>
        <time>2018-08-20T17:44:32Z</time>
      </trkpt>
      <trkpt lat="-28.357175" lon="-65.708595">
        <ele>621.0</ele>
        <time>2018-08-20T17:44:36Z</time>
      </trkpt>
      <trkpt lat="-28.357265" lon="-65.708585">
        <ele>621.3</ele>
        <time>2018-08-20T17:44:39Z</time>
      </trkpt>
      <trkpt lat="-28.35737" lon="-65.708585">
        <ele>621.6</ele>
        <time>2018-08-20T17:44:42Z</time>
      </trkpt>
      <trkpt lat="-28.35747" lon="-65.708595">
        <ele>622.0</ele>
        <time>2018-08-20T17:44:45Z</time>
      </trkpt>
      <trkpt lat="-28.357565" lon="-65.70859">
        <ele>622.5</ele>
        <time>2018-08-20T17:44:48Z</time>
      </trkpt>
      <trkpt lat="-28.35766" lon="-65.70857166666667">
        <ele>622.9</ele>
        <time>2018-08-20T17:44:51Z</time>
      </trkpt>
      <trkpt lat="-28.357755" lon="-65.70856333333333">
        <ele>623.1</ele>
        <time>2018-08-20T17:44:54Z</time>
      </trkpt>
      <trkpt lat="-28.357855" lon="-65.70856">
        <ele>623.2</ele>
        <time>2018-08-20T17:44:57Z</time>
      </trkpt>
      <trkpt lat="-28.35793" lon="-65.70856">
        <ele>623.3</ele>
        <time>2018-08-20T17:44:59Z</time>
      </trkpt>
      <trkpt lat="-28.357998333333335" lon="-65.70855666666667">
        <ele>624.2</ele>
        <time>2018-08-20T17:45:01Z</time>
      </trkpt>
      <trkpt lat="-28.358075" lon="-65.708555">
        <ele>624.3</ele>
        <time>2018-08-20T17:45:03Z</time>
      </trkpt>
      <trkpt lat="-28.35817" lon="-65.708545">
        <ele>624.6</ele>
        <time>2018-08-20T17:45:06Z</time>
      </trkpt>
      <trkpt lat="-28.35825" lon="-65.708545">
        <ele>626.5</ele>
        <time>2018-08-20T17:45:08Z</time>
      </trkpt>
      <trkpt lat="-28.358325" lon="-65.708535">
        <ele>628.2</ele>
        <time>2018-08-20T17:45:10Z</time>
      </trkpt>
      <trkpt lat="-28.3584" lon="-65.70851666666667">
        <ele>628.3</ele>
        <time>2018-08-20T17:45:12Z</time>
      </trkpt>
      <trkpt lat="-28.35848" lon="-65.70851">
        <ele>628.3</ele>
        <time>2018-08-20T17:45:14Z</time>
      </trkpt>
      <trkpt lat="-28.35855" lon="-65.708505">
        <ele>629.3</ele>
        <time>2018-08-20T17:45:16Z</time>
      </trkpt>
      <trkpt lat="-28.35865" lon="-65.70849">
        <ele>630.2</ele>
        <time>2018-08-20T17:45:18Z</time>
      </trkpt>
      <trkpt lat="-28.358755" lon="-65.70847333333333">
        <ele>629.2</ele>
        <time>2018-08-20T17:45:20Z</time>
      </trkpt>
      <trkpt lat="-28.35885" lon="-65.708465">
        <ele>629.1</ele>
        <time>2018-08-20T17:45:22Z</time>
      </trkpt>
      <trkpt lat="-28.358955" lon="-65.70846">
        <ele>628.7</ele>
        <time>2018-08-20T17:45:24Z</time>
      </trkpt>
      <trkpt lat="-28.359065" lon="-65.708455">
        <ele>628.0</ele>
        <time>2018-08-20T17:45:26Z</time>
      </trkpt>
      <trkpt lat="-28.35919" lon="-65.708455">
        <ele>627.3</ele>
        <time>2018-08-20T17:45:28Z</time>
      </trkpt>
      <trkpt lat="-28.359305" lon="-65.708455">
        <ele>627.1</ele>
        <time>2018-08-20T17:45:30Z</time>
      </trkpt>
      <trkpt lat="-28.359405" lon="-65.708455">
        <ele>626.7</ele>
        <time>2018-08-20T17:45:32Z</time>
      </trkpt>
      <trkpt lat="-28.35953" lon="-65.708445">
        <ele>626.5</ele>
        <time>2018-08-20T17:45:34Z</time>
      </trkpt>
      <trkpt lat="-28.359655" lon="-65.708435">
        <ele>626.1</ele>
        <time>2018-08-20T17:45:36Z</time>
      </trkpt>
      <trkpt lat="-28.359795" lon="-65.70843">
        <ele>625.7</ele>
        <time>2018-08-20T17:45:38Z</time>
      </trkpt>
      <trkpt lat="-28.359918333333333" lon="-65.708425">
        <ele>625.9</ele>
        <time>2018-08-20T17:45:40Z</time>
      </trkpt>
      <trkpt lat="-28.36005" lon="-65.70842">
        <ele>626.0</ele>
        <time>2018-08-20T17:45:42Z</time>
      </trkpt>
      <trkpt lat="-28.36018" lon="-65.708415">
        <ele>625.7</ele>
        <time>2018-08-20T17:45:44Z</time>
      </trkpt>
      <trkpt lat="-28.360295" lon="-65.708405">
        <ele>624.5</ele>
        <time>2018-08-20T17:45:46Z</time>
      </trkpt>
      <trkpt lat="-28.360425" lon="-65.70839333333333">
        <ele>624.6</ele>
        <time>2018-08-20T17:45:48Z</time>
      </trkpt>
      <trkpt lat="-28.36056" lon="-65.70838833333333">
        <ele>625.2</ele>
        <time>2018-08-20T17:45:50Z</time>
      </trkpt>
      <trkpt lat="-28.360675" lon="-65.70838">
        <ele>627.3</ele>
        <time>2018-08-20T17:45:52Z</time>
      </trkpt>
      <trkpt lat="-28.36081" lon="-65.708375">
        <ele>628.9</ele>
        <time>2018-08-20T17:45:54Z</time>
      </trkpt>
      <trkpt lat="-28.36094" lon="-65.70836">
        <ele>629.6</ele>
        <time>2018-08-20T17:45:56Z</time>
      </trkpt>
      <trkpt lat="-28.36107" lon="-65.70834666666667">
        <ele>628.9</ele>
        <time>2018-08-20T17:45:58Z</time>
      </trkpt>
      <trkpt lat="-28.3612" lon="-65.70834">
        <ele>627.8</ele>
        <time>2018-08-20T17:46:00Z</time>
      </trkpt>
      <trkpt lat="-28.361345" lon="-65.70834">
        <ele>626.6</ele>
        <time>2018-08-20T17:46:02Z</time>
      </trkpt>
      <trkpt lat="-28.36142" lon="-65.70834">
        <ele>626.4</ele>
        <time>2018-08-20T17:46:03Z</time>
      </trkpt>
      <trkpt lat="-28.36158" lon="-65.70834">
        <ele>626.3</ele>
        <time>2018-08-20T17:46:05Z</time>
      </trkpt>
      <trkpt lat="-28.361655" lon="-65.70834">
        <ele>626.4</ele>
        <time>2018-08-20T17:46:06Z</time>
      </trkpt>
      <trkpt lat="-28.361795" lon="-65.70834">
        <ele>627.5</ele>
        <time>2018-08-20T17:46:08Z</time>
      </trkpt>
      <trkpt lat="-28.361915" lon="-65.70833">
        <ele>628.1</ele>
        <time>2018-08-20T17:46:10Z</time>
      </trkpt>
      <trkpt lat="-28.36199" lon="-65.70832">
        <ele>627.6</ele>
        <time>2018-08-20T17:46:11Z</time>
      </trkpt>
      <trkpt lat="-28.36207" lon="-65.708315">
        <ele>627.0</ele>
        <time>2018-08-20T17:46:12Z</time>
      </trkpt>
      <trkpt lat="-28.362145" lon="-65.70831">
        <ele>626.5</ele>
        <time>2018-08-20T17:46:13Z</time>
      </trkpt>
      <trkpt lat="-28.36222" lon="-65.70831">
        <ele>626.5</ele>
        <time>2018-08-20T17:46:14Z</time>
      </trkpt>
      <trkpt lat="-28.362295" lon="-65.70829833333333">
        <ele>626.4</ele>
        <time>2018-08-20T17:46:15Z</time>
      </trkpt>
      <trkpt lat="-28.362385" lon="-65.708295">
        <ele>625.6</ele>
        <time>2018-08-20T17:46:16Z</time>
      </trkpt>
      <trkpt lat="-28.362465" lon="-65.70828">
        <ele>625.0</ele>
        <time>2018-08-20T17:46:16Z</time>
      </trkpt>
      <trkpt lat="-28.36255" lon="-65.708265">
        <ele>624.4</ele>
        <time>2018-08-20T17:46:18Z</time>
      </trkpt>
      <trkpt lat="-28.362675" lon="-65.708265">
        <ele>623.5</ele>
        <time>2018-08-20T17:46:20Z</time>
      </trkpt>
      <trkpt lat="-28.36279" lon="-65.708255">
        <ele>621.9</ele>
        <time>2018-08-20T17:46:22Z</time>
      </trkpt>
      <trkpt lat="-28.362923333333335" lon="-65.70824166666667">
        <ele>621.5</ele>
        <time>2018-08-20T17:46:24Z</time>
      </trkpt>
      <trkpt lat="-28.36306" lon="-65.708235">
        <ele>622.7</ele>
        <time>2018-08-20T17:46:26Z</time>
      </trkpt>
      <trkpt lat="-28.363205" lon="-65.708225">
        <ele>623.5</ele>
        <time>2018-08-20T17:46:28Z</time>
      </trkpt>
      <trkpt lat="-28.363325" lon="-65.70820666666667">
        <ele>623.7</ele>
        <time>2018-08-20T17:46:30Z</time>
      </trkpt>
      <trkpt lat="-28.363465" lon="-65.7082">
        <ele>623.5</ele>
        <time>2018-08-20T17:46:32Z</time>
      </trkpt>
      <trkpt lat="-28.363596666666666" lon="-65.70819">
        <ele>623.3</ele>
        <time>2018-08-20T17:46:34Z</time>
      </trkpt>
      <trkpt lat="-28.363671666666665" lon="-65.70818">
        <ele>623.3</ele>
        <time>2018-08-20T17:46:34Z</time>
      </trkpt>
      <trkpt lat="-28.36375" lon="-65.70818">
        <ele>622.4</ele>
        <time>2018-08-20T17:46:36Z</time>
      </trkpt>
      <trkpt lat="-28.36388" lon="-65.70817166666667">
        <ele>621.2</ele>
        <time>2018-08-20T17:46:38Z</time>
      </trkpt>
      <trkpt lat="-28.36401" lon="-65.70816666666667">
        <ele>621.1</ele>
        <time>2018-08-20T17:46:40Z</time>
      </trkpt>
      <trkpt lat="-28.364085" lon="-65.70816666666667">
        <ele>621.1</ele>
        <time>2018-08-20T17:46:40Z</time>
      </trkpt>
      <trkpt lat="-28.36423" lon="-65.70817">
        <ele>621.4</ele>
        <time>2018-08-20T17:46:43Z</time>
      </trkpt>
      <trkpt lat="-28.36431" lon="-65.70818">
        <ele>621.4</ele>
        <time>2018-08-20T17:46:43Z</time>
      </trkpt>
      <trkpt lat="-28.364385" lon="-65.70819">
        <ele>621.3</ele>
        <time>2018-08-20T17:46:45Z</time>
      </trkpt>
      <trkpt lat="-28.36446" lon="-65.7082">
        <ele>621.4</ele>
        <time>2018-08-20T17:46:45Z</time>
      </trkpt>
      <trkpt lat="-28.364535" lon="-65.70820666666667">
        <ele>621.2</ele>
        <time>2018-08-20T17:46:47Z</time>
      </trkpt>
      <trkpt lat="-28.364675" lon="-65.708235">
        <ele>621.1</ele>
        <time>2018-08-20T17:46:49Z</time>
      </trkpt>
      <trkpt lat="-28.364745" lon="-65.70824166666667">
        <ele>621.2</ele>
        <time>2018-08-20T17:46:49Z</time>
      </trkpt>
      <trkpt lat="-28.364883333333335" lon="-65.708275">
        <ele>620.5</ele>
        <time>2018-08-20T17:46:52Z</time>
      </trkpt>
      <trkpt lat="-28.36502" lon="-65.708295">
        <ele>620.1</ele>
        <time>2018-08-20T17:46:54Z</time>
      </trkpt>
      <trkpt lat="-28.365135" lon="-65.70833">
        <ele>621.0</ele>
        <time>2018-08-20T17:46:55Z</time>
      </trkpt>
      <trkpt lat="-28.365255" lon="-65.708365">
        <ele>621.5</ele>
        <time>2018-08-20T17:46:58Z</time>
      </trkpt>
      <trkpt lat="-28.36539" lon="-65.708405">
        <ele>621.0</ele>
        <time>2018-08-20T17:47:00Z</time>
      </trkpt>
      <trkpt lat="-28.365525" lon="-65.708455">
        <ele>620.0</ele>
        <time>2018-08-20T17:47:02Z</time>
      </trkpt>
      <trkpt lat="-28.36566" lon="-65.708505">
        <ele>619.7</ele>
        <time>2018-08-20T17:47:04Z</time>
      </trkpt>
      <trkpt lat="-28.36572333333333" lon="-65.70852666666667">
        <ele>619.3</ele>
        <time>2018-08-20T17:47:05Z</time>
      </trkpt>
      <trkpt lat="-28.3658" lon="-65.70855666666667">
        <ele>619.0</ele>
        <time>2018-08-20T17:47:06Z</time>
      </trkpt>
      <trkpt lat="-28.365866666666665" lon="-65.708595">
        <ele>619.1</ele>
        <time>2018-08-20T17:47:07Z</time>
      </trkpt>
      <trkpt lat="-28.366" lon="-65.70865">
        <ele>619.4</ele>
        <time>2018-08-20T17:47:09Z</time>
      </trkpt>
      <trkpt lat="-28.36613" lon="-65.708715">
        <ele>619.7</ele>
        <time>2018-08-20T17:47:11Z</time>
      </trkpt>
      <trkpt lat="-28.3662" lon="-65.708755">
        <ele>619.8</ele>
        <time>2018-08-20T17:47:12Z</time>
      </trkpt>
      <trkpt lat="-28.366326666666666" lon="-65.70883">
        <ele>619.9</ele>
        <time>2018-08-20T17:47:14Z</time>
      </trkpt>
      <trkpt lat="-28.36645" lon="-65.7089">
        <ele>619.8</ele>
        <time>2018-08-20T17:47:16Z</time>
      </trkpt>
      <trkpt lat="-28.366515" lon="-65.70894">
        <ele>619.5</ele>
        <time>2018-08-20T17:47:17Z</time>
      </trkpt>
      <trkpt lat="-28.366585" lon="-65.708985">
        <ele>619.0</ele>
        <time>2018-08-20T17:47:18Z</time>
      </trkpt>
      <trkpt lat="-28.36665" lon="-65.709025">
        <ele>618.9</ele>
        <time>2018-08-20T17:47:19Z</time>
      </trkpt>
      <trkpt lat="-28.366715" lon="-65.70908">
        <ele>619.0</ele>
        <time>2018-08-20T17:47:20Z</time>
      </trkpt>
      <trkpt lat="-28.366835000000002" lon="-65.709165">
        <ele>618.4</ele>
        <time>2018-08-20T17:47:22Z</time>
      </trkpt>
      <trkpt lat="-28.366955" lon="-65.70926">
        <ele>617.7</ele>
        <time>2018-08-20T17:47:24Z</time>
      </trkpt>
      <trkpt lat="-28.367015" lon="-65.709305">
        <ele>617.4</ele>
        <time>2018-08-20T17:47:25Z</time>
      </trkpt>
      <trkpt lat="-28.367076666666666" lon="-65.709355">
        <ele>617.2</ele>
        <time>2018-08-20T17:47:26Z</time>
      </trkpt>
      <trkpt lat="-28.367145" lon="-65.7094">
        <ele>617.1</ele>
        <time>2018-08-20T17:47:27Z</time>
      </trkpt>
      <trkpt lat="-28.36721" lon="-65.70945">
        <ele>617.1</ele>
        <time>2018-08-20T17:47:28Z</time>
      </trkpt>
      <trkpt lat="-28.367266666666666" lon="-65.709495">
        <ele>617.1</ele>
        <time>2018-08-20T17:47:29Z</time>
      </trkpt>
      <trkpt lat="-28.367335" lon="-65.70954">
        <ele>617.0</ele>
        <time>2018-08-20T17:47:30Z</time>
      </trkpt>
      <trkpt lat="-28.367455" lon="-65.709635">
        <ele>616.9</ele>
        <time>2018-08-20T17:47:32Z</time>
      </trkpt>
      <trkpt lat="-28.36752" lon="-65.70967666666667">
        <ele>616.7</ele>
        <time>2018-08-20T17:47:33Z</time>
      </trkpt>
      <trkpt lat="-28.367635" lon="-65.70975833333334">
        <ele>616.6</ele>
        <time>2018-08-20T17:47:35Z</time>
      </trkpt>
      <trkpt lat="-28.367755" lon="-65.70985">
        <ele>616.9</ele>
        <time>2018-08-20T17:47:37Z</time>
      </trkpt>
      <trkpt lat="-28.36787" lon="-65.70994">
        <ele>616.5</ele>
        <time>2018-08-20T17:47:39Z</time>
      </trkpt>
      <trkpt lat="-28.36798" lon="-65.71002">
        <ele>615.7</ele>
        <time>2018-08-20T17:47:41Z</time>
      </trkpt>
      <trkpt lat="-28.368095" lon="-65.710105">
        <ele>615.4</ele>
        <time>2018-08-20T17:47:43Z</time>
      </trkpt>
      <trkpt lat="-28.36816" lon="-65.71015">
        <ele>615.1</ele>
        <time>2018-08-20T17:47:44Z</time>
      </trkpt>
      <trkpt lat="-28.368275" lon="-65.710235">
        <ele>616.0</ele>
        <time>2018-08-20T17:47:45Z</time>
      </trkpt>
      <trkpt lat="-28.36838" lon="-65.71031">
        <ele>617.0</ele>
        <time>2018-08-20T17:47:48Z</time>
      </trkpt>
      <trkpt lat="-28.368485" lon="-65.71039">
        <ele>618.2</ele>
        <time>2018-08-20T17:47:50Z</time>
      </trkpt>
      <trkpt lat="-28.368605" lon="-65.71047">
        <ele>619.1</ele>
        <time>2018-08-20T17:47:52Z</time>
      </trkpt>
      <trkpt lat="-28.368665" lon="-65.710515">
        <ele>619.3</ele>
        <time>2018-08-20T17:47:53Z</time>
      </trkpt>
      <trkpt lat="-28.368725" lon="-65.71056">
        <ele>618.9</ele>
        <time>2018-08-20T17:47:54Z</time>
      </trkpt>
      <trkpt lat="-28.36878" lon="-65.71061">
        <ele>618.4</ele>
        <time>2018-08-20T17:47:55Z</time>
      </trkpt>
      <trkpt lat="-28.36889" lon="-65.710685">
        <ele>618.3</ele>
        <time>2018-08-20T17:47:57Z</time>
      </trkpt>
      <trkpt lat="-28.36899" lon="-65.71074166666666">
        <ele>617.6</ele>
        <time>2018-08-20T17:47:59Z</time>
      </trkpt>
      <trkpt lat="-28.369105" lon="-65.710825">
        <ele>616.6</ele>
        <time>2018-08-20T17:48:01Z</time>
      </trkpt>
      <trkpt lat="-28.36922" lon="-65.71090166666667">
        <ele>616.7</ele>
        <time>2018-08-20T17:48:03Z</time>
      </trkpt>
      <trkpt lat="-28.36933" lon="-65.71098166666667">
        <ele>617.0</ele>
        <time>2018-08-20T17:48:05Z</time>
      </trkpt>
      <trkpt lat="-28.36946" lon="-65.71107333333333">
        <ele>616.9</ele>
        <time>2018-08-20T17:48:07Z</time>
      </trkpt>
      <trkpt lat="-28.36952" lon="-65.71112">
        <ele>616.9</ele>
        <time>2018-08-20T17:48:08Z</time>
      </trkpt>
      <trkpt lat="-28.369635" lon="-65.71120666666667">
        <ele>616.4</ele>
        <time>2018-08-20T17:48:10Z</time>
      </trkpt>
      <trkpt lat="-28.36974" lon="-65.71128666666667">
        <ele>615.7</ele>
        <time>2018-08-20T17:48:12Z</time>
      </trkpt>
      <trkpt lat="-28.36984" lon="-65.71137">
        <ele>615.0</ele>
        <time>2018-08-20T17:48:14Z</time>
      </trkpt>
      <trkpt lat="-28.369945" lon="-65.711455">
        <ele>614.2</ele>
        <time>2018-08-20T17:48:16Z</time>
      </trkpt>
      <trkpt lat="-28.370005" lon="-65.7115">
        <ele>613.9</ele>
        <time>2018-08-20T17:48:17Z</time>
      </trkpt>
      <trkpt lat="-28.370125" lon="-65.711585">
        <ele>613.5</ele>
        <time>2018-08-20T17:48:19Z</time>
      </trkpt>
      <trkpt lat="-28.370245" lon="-65.71167">
        <ele>613.2</ele>
        <time>2018-08-20T17:48:21Z</time>
      </trkpt>
      <trkpt lat="-28.370365" lon="-65.711755">
        <ele>613.1</ele>
        <time>2018-08-20T17:48:23Z</time>
      </trkpt>
      <trkpt lat="-28.370475" lon="-65.71183666666667">
        <ele>613.2</ele>
        <time>2018-08-20T17:48:25Z</time>
      </trkpt>
      <trkpt lat="-28.37059" lon="-65.71192166666667">
        <ele>613.4</ele>
        <time>2018-08-20T17:48:27Z</time>
      </trkpt>
      <trkpt lat="-28.370705" lon="-65.71201">
        <ele>614.2</ele>
        <time>2018-08-20T17:48:29Z</time>
      </trkpt>
      <trkpt lat="-28.37081" lon="-65.71209">
        <ele>614.7</ele>
        <time>2018-08-20T17:48:31Z</time>
      </trkpt>
      <trkpt lat="-28.370925" lon="-65.712165">
        <ele>614.7</ele>
        <time>2018-08-20T17:48:33Z</time>
      </trkpt>
      <trkpt lat="-28.371035" lon="-65.712235">
        <ele>614.5</ele>
        <time>2018-08-20T17:48:34Z</time>
      </trkpt>
      <trkpt lat="-28.37115" lon="-65.712305">
        <ele>614.3</ele>
        <time>2018-08-20T17:48:36Z</time>
      </trkpt>
      <trkpt lat="-28.37127" lon="-65.71237166666667">
        <ele>614.2</ele>
        <time>2018-08-20T17:48:38Z</time>
      </trkpt>
      <trkpt lat="-28.371395" lon="-65.712445">
        <ele>614.2</ele>
        <time>2018-08-20T17:48:40Z</time>
      </trkpt>
      <trkpt lat="-28.37152" lon="-65.7125">
        <ele>614.2</ele>
        <time>2018-08-20T17:48:43Z</time>
      </trkpt>
      <trkpt lat="-28.371645" lon="-65.71255333333333">
        <ele>614.1</ele>
        <time>2018-08-20T17:48:45Z</time>
      </trkpt>
      <trkpt lat="-28.37177" lon="-65.71261">
        <ele>613.9</ele>
        <time>2018-08-20T17:48:47Z</time>
      </trkpt>
      <trkpt lat="-28.37189" lon="-65.712655">
        <ele>613.7</ele>
        <time>2018-08-20T17:48:49Z</time>
      </trkpt>
      <trkpt lat="-28.37202" lon="-65.7127">
        <ele>613.6</ele>
        <time>2018-08-20T17:48:51Z</time>
      </trkpt>
      <trkpt lat="-28.372155" lon="-65.71274">
        <ele>613.9</ele>
        <time>2018-08-20T17:48:53Z</time>
      </trkpt>
      <trkpt lat="-28.372285" lon="-65.71277333333333">
        <ele>613.6</ele>
        <time>2018-08-20T17:48:55Z</time>
      </trkpt>
      <trkpt lat="-28.372419999999998" lon="-65.712815">
        <ele>613.1</ele>
        <time>2018-08-20T17:48:57Z</time>
      </trkpt>
      <trkpt lat="-28.372555" lon="-65.712845">
        <ele>612.4</ele>
        <time>2018-08-20T17:48:59Z</time>
      </trkpt>
      <trkpt lat="-28.3727" lon="-65.71287">
        <ele>611.8</ele>
        <time>2018-08-20T17:49:01Z</time>
      </trkpt>
      <trkpt lat="-28.372771666666665" lon="-65.71289">
        <ele>611.5</ele>
        <time>2018-08-20T17:49:02Z</time>
      </trkpt>
      <trkpt lat="-28.372855" lon="-65.712895">
        <ele>611.1</ele>
        <time>2018-08-20T17:49:03Z</time>
      </trkpt>
      <trkpt lat="-28.372935" lon="-65.7129">
        <ele>610.8</ele>
        <time>2018-08-20T17:49:04Z</time>
      </trkpt>
      <trkpt lat="-28.37302" lon="-65.71291">
        <ele>610.6</ele>
        <time>2018-08-20T17:49:05Z</time>
      </trkpt>
      <trkpt lat="-28.3731" lon="-65.712925">
        <ele>610.5</ele>
        <time>2018-08-20T17:49:06Z</time>
      </trkpt>
      <trkpt lat="-28.373188333333335" lon="-65.71293">
        <ele>610.6</ele>
        <time>2018-08-20T17:49:07Z</time>
      </trkpt>
      <trkpt lat="-28.37328" lon="-65.712935">
        <ele>610.7</ele>
        <time>2018-08-20T17:49:08Z</time>
      </trkpt>
      <trkpt lat="-28.373366666666666" lon="-65.712935">
        <ele>610.8</ele>
        <time>2018-08-20T17:49:09Z</time>
      </trkpt>
      <trkpt lat="-28.37346" lon="-65.712935">
        <ele>610.7</ele>
        <time>2018-08-20T17:49:10Z</time>
      </trkpt>
      <trkpt lat="-28.373555" lon="-65.71293">
        <ele>610.6</ele>
        <time>2018-08-20T17:49:11Z</time>
      </trkpt>
      <trkpt lat="-28.37365" lon="-65.71292">
        <ele>610.4</ele>
        <time>2018-08-20T17:49:12Z</time>
      </trkpt>
      <trkpt lat="-28.373745" lon="-65.71291">
        <ele>610.4</ele>
        <time>2018-08-20T17:49:13Z</time>
      </trkpt>
      <trkpt lat="-28.37384" lon="-65.71290666666667">
        <ele>610.6</ele>
        <time>2018-08-20T17:49:14Z</time>
      </trkpt>
      <trkpt lat="-28.373945" lon="-65.7129">
        <ele>611.4</ele>
        <time>2018-08-20T17:49:15Z</time>
      </trkpt>
      <trkpt lat="-28.37403" lon="-65.712895">
        <ele>611.8</ele>
        <time>2018-08-20T17:49:16Z</time>
      </trkpt>
      <trkpt lat="-28.374135" lon="-65.71288166666666">
        <ele>612.4</ele>
        <time>2018-08-20T17:49:17Z</time>
      </trkpt>
      <trkpt lat="-28.37424" lon="-65.71287166666667">
        <ele>613.2</ele>
        <time>2018-08-20T17:49:18Z</time>
      </trkpt>
      <trkpt lat="-28.37435" lon="-65.71286666666667">
        <ele>613.2</ele>
        <time>2018-08-20T17:49:19Z</time>
      </trkpt>
      <trkpt lat="-28.37443" lon="-65.712855">
        <ele>612.4</ele>
        <time>2018-08-20T17:49:20Z</time>
      </trkpt>
      <trkpt lat="-28.374515" lon="-65.712855">
        <ele>611.5</ele>
        <time>2018-08-20T17:49:21Z</time>
      </trkpt>
      <trkpt lat="-28.374615" lon="-65.712845">
        <ele>610.9</ele>
        <time>2018-08-20T17:49:22Z</time>
      </trkpt>
      <trkpt lat="-28.374698333333335" lon="-65.71284">
        <ele>610.0</ele>
        <time>2018-08-20T17:49:23Z</time>
      </trkpt>
      <trkpt lat="-28.37479" lon="-65.712825">
        <ele>609.2</ele>
        <time>2018-08-20T17:49:24Z</time>
      </trkpt>
      <trkpt lat="-28.374881666666667" lon="-65.71281833333333">
        <ele>608.5</ele>
        <time>2018-08-20T17:49:25Z</time>
      </trkpt>
      <trkpt lat="-28.37498" lon="-65.712815">
        <ele>607.6</ele>
        <time>2018-08-20T17:49:26Z</time>
      </trkpt>
      <trkpt lat="-28.37507" lon="-65.712805">
        <ele>606.9</ele>
        <time>2018-08-20T17:49:27Z</time>
      </trkpt>
      <trkpt lat="-28.375155" lon="-65.712795">
        <ele>606.5</ele>
        <time>2018-08-20T17:49:28Z</time>
      </trkpt>
      <trkpt lat="-28.37525" lon="-65.71277666666667">
        <ele>605.9</ele>
        <time>2018-08-20T17:49:29Z</time>
      </trkpt>
      <trkpt lat="-28.375336666666666" lon="-65.71277">
        <ele>605.7</ele>
        <time>2018-08-20T17:49:30Z</time>
      </trkpt>
      <trkpt lat="-28.375445" lon="-65.712755">
        <ele>605.5</ele>
        <time>2018-08-20T17:49:31Z</time>
      </trkpt>
      <trkpt lat="-28.37555" lon="-65.71275">
        <ele>605.7</ele>
        <time>2018-08-20T17:49:32Z</time>
      </trkpt>
      <trkpt lat="-28.37565" lon="-65.71274">
        <ele>605.8</ele>
        <time>2018-08-20T17:49:33Z</time>
      </trkpt>
      <trkpt lat="-28.37575" lon="-65.71272833333333">
        <ele>605.8</ele>
        <time>2018-08-20T17:49:34Z</time>
      </trkpt>
      <trkpt lat="-28.37584" lon="-65.71272166666667">
        <ele>605.7</ele>
        <time>2018-08-20T17:49:35Z</time>
      </trkpt>
      <trkpt lat="-28.375925" lon="-65.71271333333334">
        <ele>605.9</ele>
        <time>2018-08-20T17:49:36Z</time>
      </trkpt>
      <trkpt lat="-28.37601" lon="-65.71271">
        <ele>605.8</ele>
        <time>2018-08-20T17:49:37Z</time>
      </trkpt>
      <trkpt lat="-28.376095" lon="-65.712705">
        <ele>605.5</ele>
        <time>2018-08-20T17:49:38Z</time>
      </trkpt>
      <trkpt lat="-28.37617" lon="-65.7127">
        <ele>605.3</ele>
        <time>2018-08-20T17:49:39Z</time>
      </trkpt>
      <trkpt lat="-28.376245" lon="-65.712685">
        <ele>605.2</ele>
        <time>2018-08-20T17:49:40Z</time>
      </trkpt>
      <trkpt lat="-28.37633" lon="-65.71268">
        <ele>604.7</ele>
        <time>2018-08-20T17:49:41Z</time>
      </trkpt>
      <trkpt lat="-28.3764" lon="-65.712675">
        <ele>604.4</ele>
        <time>2018-08-20T17:49:42Z</time>
      </trkpt>
      <trkpt lat="-28.37655" lon="-65.712655">
        <ele>604.9</ele>
        <time>2018-08-20T17:49:44Z</time>
      </trkpt>
      <trkpt lat="-28.376625" lon="-65.71264333333333">
        <ele>605.3</ele>
        <time>2018-08-20T17:49:45Z</time>
      </trkpt>
      <trkpt lat="-28.376701666666666" lon="-65.71263166666667">
        <ele>605.6</ele>
        <time>2018-08-20T17:49:46Z</time>
      </trkpt>
      <trkpt lat="-28.37678" lon="-65.71263">
        <ele>605.6</ele>
        <time>2018-08-20T17:49:47Z</time>
      </trkpt>
      <trkpt lat="-28.37685" lon="-65.712625">
        <ele>605.5</ele>
        <time>2018-08-20T17:49:48Z</time>
      </trkpt>
      <trkpt lat="-28.376995" lon="-65.712615">
        <ele>605.2</ele>
        <time>2018-08-20T17:49:50Z</time>
      </trkpt>
      <trkpt lat="-28.377125" lon="-65.71259333333333">
        <ele>604.8</ele>
        <time>2018-08-20T17:49:52Z</time>
      </trkpt>
      <trkpt lat="-28.377265" lon="-65.71258166666667">
        <ele>605.7</ele>
        <time>2018-08-20T17:49:54Z</time>
      </trkpt>
      <trkpt lat="-28.3774" lon="-65.71257">
        <ele>606.3</ele>
        <time>2018-08-20T17:49:56Z</time>
      </trkpt>
      <trkpt lat="-28.377475" lon="-65.71256">
        <ele>607.0</ele>
        <time>2018-08-20T17:49:57Z</time>
      </trkpt>
      <trkpt lat="-28.37761" lon="-65.712545">
        <ele>607.7</ele>
        <time>2018-08-20T17:49:59Z</time>
      </trkpt>
      <trkpt lat="-28.37775" lon="-65.71253">
        <ele>607.0</ele>
        <time>2018-08-20T17:50:01Z</time>
      </trkpt>
      <trkpt lat="-28.377885" lon="-65.71251166666667">
        <ele>606.3</ele>
        <time>2018-08-20T17:50:03Z</time>
      </trkpt>
      <trkpt lat="-28.377956666666666" lon="-65.71250333333333">
        <ele>606.1</ele>
        <time>2018-08-20T17:50:04Z</time>
      </trkpt>
      <trkpt lat="-28.3781" lon="-65.712485">
        <ele>606.5</ele>
        <time>2018-08-20T17:50:06Z</time>
      </trkpt>
      <trkpt lat="-28.378175" lon="-65.712485">
        <ele>606.5</ele>
        <time>2018-08-20T17:50:07Z</time>
      </trkpt>
      <trkpt lat="-28.378315" lon="-65.71246666666667">
        <ele>607.0</ele>
        <time>2018-08-20T17:50:09Z</time>
      </trkpt>
      <trkpt lat="-28.378455" lon="-65.71245">
        <ele>607.1</ele>
        <time>2018-08-20T17:50:11Z</time>
      </trkpt>
      <trkpt lat="-28.378526666666666" lon="-65.712445">
        <ele>606.9</ele>
        <time>2018-08-20T17:50:12Z</time>
      </trkpt>
      <trkpt lat="-28.37861" lon="-65.71243">
        <ele>606.4</ele>
        <time>2018-08-20T17:50:13Z</time>
      </trkpt>
      <trkpt lat="-28.378681666666665" lon="-65.71243">
        <ele>605.8</ele>
        <time>2018-08-20T17:50:14Z</time>
      </trkpt>
      <trkpt lat="-28.37876" lon="-65.71241833333333">
        <ele>605.1</ele>
        <time>2018-08-20T17:50:15Z</time>
      </trkpt>
      <trkpt lat="-28.37884" lon="-65.71241333333333">
        <ele>604.3</ele>
        <time>2018-08-20T17:50:16Z</time>
      </trkpt>
      <trkpt lat="-28.378915" lon="-65.71240666666667">
        <ele>603.3</ele>
        <time>2018-08-20T17:50:17Z</time>
      </trkpt>
      <trkpt lat="-28.379013333333333" lon="-65.712405">
        <ele>603.9</ele>
        <time>2018-08-20T17:50:19Z</time>
      </trkpt>
      <trkpt lat="-28.379155" lon="-65.71239">
        <ele>603.8</ele>
        <time>2018-08-20T17:50:21Z</time>
      </trkpt>
      <trkpt lat="-28.379295" lon="-65.71236833333333">
        <ele>603.5</ele>
        <time>2018-08-20T17:50:23Z</time>
      </trkpt>
      <trkpt lat="-28.379425" lon="-65.712365">
        <ele>604.6</ele>
        <time>2018-08-20T17:50:25Z</time>
      </trkpt>
      <trkpt lat="-28.379545" lon="-65.71236">
        <ele>605.9</ele>
        <time>2018-08-20T17:50:27Z</time>
      </trkpt>
      <trkpt lat="-28.37969" lon="-65.712335">
        <ele>606.7</ele>
        <time>2018-08-20T17:50:29Z</time>
      </trkpt>
      <trkpt lat="-28.379765" lon="-65.712325">
        <ele>606.6</ele>
        <time>2018-08-20T17:50:30Z</time>
      </trkpt>
      <trkpt lat="-28.3799" lon="-65.712315">
        <ele>605.8</ele>
        <time>2018-08-20T17:50:32Z</time>
      </trkpt>
      <trkpt lat="-28.380035" lon="-65.712305">
        <ele>604.9</ele>
        <time>2018-08-20T17:50:34Z</time>
      </trkpt>
      <trkpt lat="-28.380175" lon="-65.71228666666667">
        <ele>604.1</ele>
        <time>2018-08-20T17:50:36Z</time>
      </trkpt>
      <trkpt lat="-28.380315" lon="-65.71228">
        <ele>603.4</ele>
        <time>2018-08-20T17:50:38Z</time>
      </trkpt>
      <trkpt lat="-28.38045" lon="-65.71227">
        <ele>603.0</ele>
        <time>2018-08-20T17:50:40Z</time>
      </trkpt>
      <trkpt lat="-28.38058" lon="-65.71225">
        <ele>602.7</ele>
        <time>2018-08-20T17:50:42Z</time>
      </trkpt>
      <trkpt lat="-28.38071" lon="-65.712235">
        <ele>602.2</ele>
        <time>2018-08-20T17:50:44Z</time>
      </trkpt>
      <trkpt lat="-28.38084" lon="-65.712225">
        <ele>601.7</ele>
        <time>2018-08-20T17:50:46Z</time>
      </trkpt>
      <trkpt lat="-28.38097" lon="-65.712215">
        <ele>601.0</ele>
        <time>2018-08-20T17:50:48Z</time>
      </trkpt>
      <trkpt lat="-28.3811" lon="-65.712195">
        <ele>600.5</ele>
        <time>2018-08-20T17:50:50Z</time>
      </trkpt>
      <trkpt lat="-28.381221666666665" lon="-65.71218166666667">
        <ele>600.1</ele>
        <time>2018-08-20T17:50:52Z</time>
      </trkpt>
      <trkpt lat="-28.38136" lon="-65.712175">
        <ele>599.8</ele>
        <time>2018-08-20T17:50:54Z</time>
      </trkpt>
      <trkpt lat="-28.381495" lon="-65.71216">
        <ele>599.7</ele>
        <time>2018-08-20T17:50:56Z</time>
      </trkpt>
      <trkpt lat="-28.381626666666666" lon="-65.712145">
        <ele>599.5</ele>
        <time>2018-08-20T17:50:58Z</time>
      </trkpt>
      <trkpt lat="-28.38177" lon="-65.712135">
        <ele>599.4</ele>
        <time>2018-08-20T17:51:00Z</time>
      </trkpt>
      <trkpt lat="-28.381898333333332" lon="-65.71212">
        <ele>599.3</ele>
        <time>2018-08-20T17:51:02Z</time>
      </trkpt>
      <trkpt lat="-28.382035" lon="-65.71210833333333">
        <ele>599.2</ele>
        <time>2018-08-20T17:51:04Z</time>
      </trkpt>
      <trkpt lat="-28.382156666666667" lon="-65.71210333333333">
        <ele>599.2</ele>
        <time>2018-08-20T17:51:06Z</time>
      </trkpt>
      <trkpt lat="-28.382295" lon="-65.712095">
        <ele>599.1</ele>
        <time>2018-08-20T17:51:08Z</time>
      </trkpt>
      <trkpt lat="-28.382431666666665" lon="-65.71209">
        <ele>599.0</ele>
        <time>2018-08-20T17:51:10Z</time>
      </trkpt>
      <trkpt lat="-28.38257" lon="-65.71209">
        <ele>598.9</ele>
        <time>2018-08-20T17:51:12Z</time>
      </trkpt>
      <trkpt lat="-28.38272" lon="-65.71209">
        <ele>598.8</ele>
        <time>2018-08-20T17:51:14Z</time>
      </trkpt>
      <trkpt lat="-28.382795" lon="-65.71209">
        <ele>598.7</ele>
        <time>2018-08-20T17:51:15Z</time>
      </trkpt>
      <trkpt lat="-28.38287" lon="-65.712095">
        <ele>598.7</ele>
        <time>2018-08-20T17:51:16Z</time>
      </trkpt>
      <trkpt lat="-28.382945" lon="-65.712095">
        <ele>598.7</ele>
        <time>2018-08-20T17:51:17Z</time>
      </trkpt>
      <trkpt lat="-28.383025" lon="-65.7121">
        <ele>598.9</ele>
        <time>2018-08-20T17:51:18Z</time>
      </trkpt>
      <trkpt lat="-28.3831" lon="-65.71210166666667">
        <ele>599.0</ele>
        <time>2018-08-20T17:51:19Z</time>
      </trkpt>
      <trkpt lat="-28.38317" lon="-65.71210833333333">
        <ele>598.8</ele>
        <time>2018-08-20T17:51:20Z</time>
      </trkpt>
      <trkpt lat="-28.38331" lon="-65.71212">
        <ele>598.4</ele>
        <time>2018-08-20T17:51:22Z</time>
      </trkpt>
      <trkpt lat="-28.38338" lon="-65.71213">
        <ele>598.1</ele>
        <time>2018-08-20T17:51:23Z</time>
      </trkpt>
      <trkpt lat="-28.38346" lon="-65.71214">
        <ele>597.8</ele>
        <time>2018-08-20T17:51:24Z</time>
      </trkpt>
      <trkpt lat="-28.383545" lon="-65.712145">
        <ele>597.8</ele>
        <time>2018-08-20T17:51:25Z</time>
      </trkpt>
      <trkpt lat="-28.38362" lon="-65.71215166666667">
        <ele>597.7</ele>
        <time>2018-08-20T17:51:26Z</time>
      </trkpt>
      <trkpt lat="-28.383695" lon="-65.712165">
        <ele>597.5</ele>
        <time>2018-08-20T17:51:27Z</time>
      </trkpt>
      <trkpt lat="-28.383775" lon="-65.712175">
        <ele>597.1</ele>
        <time>2018-08-20T17:51:28Z</time>
      </trkpt>
      <trkpt lat="-28.38385" lon="-65.712185">
        <ele>596.5</ele>
        <time>2018-08-20T17:51:29Z</time>
      </trkpt>
      <trkpt lat="-28.38393" lon="-65.712205">
        <ele>595.9</ele>
        <time>2018-08-20T17:51:30Z</time>
      </trkpt>
      <trkpt lat="-28.384005" lon="-65.712215">
        <ele>595.9</ele>
        <time>2018-08-20T17:51:31Z</time>
      </trkpt>
      <trkpt lat="-28.38408" lon="-65.712225">
        <ele>596.0</ele>
        <time>2018-08-20T17:51:32Z</time>
      </trkpt>
      <trkpt lat="-28.384155" lon="-65.71224166666667">
        <ele>595.7</ele>
        <time>2018-08-20T17:51:33Z</time>
      </trkpt>
      <trkpt lat="-28.38423" lon="-65.71226">
        <ele>595.2</ele>
        <time>2018-08-20T17:51:34Z</time>
      </trkpt>
      <trkpt lat="-28.3843" lon="-65.71228">
        <ele>594.6</ele>
        <time>2018-08-20T17:51:35Z</time>
      </trkpt>
      <trkpt lat="-28.384375" lon="-65.7123">
        <ele>594.1</ele>
        <time>2018-08-20T17:51:36Z</time>
      </trkpt>
      <trkpt lat="-28.384505" lon="-65.71232666666667">
        <ele>593.5</ele>
        <time>2018-08-20T17:51:38Z</time>
      </trkpt>
      <trkpt lat="-28.384655" lon="-65.712365">
        <ele>593.6</ele>
        <time>2018-08-20T17:51:40Z</time>
      </trkpt>
      <trkpt lat="-28.384795" lon="-65.712395">
        <ele>594.1</ele>
        <time>2018-08-20T17:51:42Z</time>
      </trkpt>
      <trkpt lat="-28.38487" lon="-65.71240666666667">
        <ele>594.5</ele>
        <time>2018-08-20T17:51:43Z</time>
      </trkpt>
      <trkpt lat="-28.384945" lon="-65.71243">
        <ele>594.8</ele>
        <time>2018-08-20T17:51:44Z</time>
      </trkpt>
      <trkpt lat="-28.38502" lon="-65.71245">
        <ele>595.2</ele>
        <time>2018-08-20T17:51:45Z</time>
      </trkpt>
      <trkpt lat="-28.385095" lon="-65.71246333333333">
        <ele>595.7</ele>
        <time>2018-08-20T17:51:46Z</time>
      </trkpt>
      <trkpt lat="-28.385233333333332" lon="-65.7125">
        <ele>596.0</ele>
        <time>2018-08-20T17:51:48Z</time>
      </trkpt>
      <trkpt lat="-28.38531" lon="-65.71251333333333">
        <ele>596.0</ele>
        <time>2018-08-20T17:51:49Z</time>
      </trkpt>
      <trkpt lat="-28.385445" lon="-65.71254833333333">
        <ele>596.1</ele>
        <time>2018-08-20T17:51:51Z</time>
      </trkpt>
      <trkpt lat="-28.385575" lon="-65.71258">
        <ele>595.9</ele>
        <time>2018-08-20T17:51:53Z</time>
      </trkpt>
      <trkpt lat="-28.38571" lon="-65.712615">
        <ele>595.3</ele>
        <time>2018-08-20T17:51:55Z</time>
      </trkpt>
      <trkpt lat="-28.38583" lon="-65.71263666666667">
        <ele>594.8</ele>
        <time>2018-08-20T17:51:57Z</time>
      </trkpt>
      <trkpt lat="-28.385955" lon="-65.71267">
        <ele>594.7</ele>
        <time>2018-08-20T17:51:59Z</time>
      </trkpt>
      <trkpt lat="-28.386085" lon="-65.7127">
        <ele>594.6</ele>
        <time>2018-08-20T17:52:01Z</time>
      </trkpt>
      <trkpt lat="-28.386215" lon="-65.71273">
        <ele>594.7</ele>
        <time>2018-08-20T17:52:03Z</time>
      </trkpt>
      <trkpt lat="-28.386338333333335" lon="-65.71276">
        <ele>595.1</ele>
        <time>2018-08-20T17:52:05Z</time>
      </trkpt>
      <trkpt lat="-28.386465" lon="-65.712795">
        <ele>595.9</ele>
        <time>2018-08-20T17:52:07Z</time>
      </trkpt>
      <trkpt lat="-28.386589999999998" lon="-65.71282166666667">
        <ele>596.0</ele>
        <time>2018-08-20T17:52:09Z</time>
      </trkpt>
      <trkpt lat="-28.386715" lon="-65.712855">
        <ele>595.9</ele>
        <time>2018-08-20T17:52:11Z</time>
      </trkpt>
      <trkpt lat="-28.38684" lon="-65.71288">
        <ele>595.4</ele>
        <time>2018-08-20T17:52:13Z</time>
      </trkpt>
      <trkpt lat="-28.38696" lon="-65.712905">
        <ele>595.8</ele>
        <time>2018-08-20T17:52:15Z</time>
      </trkpt>
      <trkpt lat="-28.387035" lon="-65.71293">
        <ele>595.5</ele>
        <time>2018-08-20T17:52:16Z</time>
      </trkpt>
      <trkpt lat="-28.387165" lon="-65.712965">
        <ele>595.1</ele>
        <time>2018-08-20T17:52:18Z</time>
      </trkpt>
      <trkpt lat="-28.387235" lon="-65.71298">
        <ele>595.0</ele>
        <time>2018-08-20T17:52:19Z</time>
      </trkpt>
      <trkpt lat="-28.387313333333335" lon="-65.712995">
        <ele>594.7</ele>
        <time>2018-08-20T17:52:20Z</time>
      </trkpt>
      <trkpt lat="-28.38739" lon="-65.71302">
        <ele>594.6</ele>
        <time>2018-08-20T17:52:21Z</time>
      </trkpt>
      <trkpt lat="-28.38752" lon="-65.71304833333333">
        <ele>594.5</ele>
        <time>2018-08-20T17:52:23Z</time>
      </trkpt>
      <trkpt lat="-28.38765" lon="-65.713085">
        <ele>594.5</ele>
        <time>2018-08-20T17:52:25Z</time>
      </trkpt>
      <trkpt lat="-28.38777" lon="-65.713115">
        <ele>594.7</ele>
        <time>2018-08-20T17:52:27Z</time>
      </trkpt>
      <trkpt lat="-28.387895" lon="-65.713145">
        <ele>594.7</ele>
        <time>2018-08-20T17:52:29Z</time>
      </trkpt>
      <trkpt lat="-28.387995" lon="-65.71317166666667">
        <ele>594.0</ele>
        <time>2018-08-20T17:52:31Z</time>
      </trkpt>
      <trkpt lat="-28.388105" lon="-65.713205">
        <ele>593.8</ele>
        <time>2018-08-20T17:52:33Z</time>
      </trkpt>
      <trkpt lat="-28.38822" lon="-65.713235">
        <ele>593.8</ele>
        <time>2018-08-20T17:52:35Z</time>
      </trkpt>
      <trkpt lat="-28.38835" lon="-65.713265">
        <ele>593.5</ele>
        <time>2018-08-20T17:52:37Z</time>
      </trkpt>
      <trkpt lat="-28.38848" lon="-65.713295">
        <ele>592.5</ele>
        <time>2018-08-20T17:52:39Z</time>
      </trkpt>
      <trkpt lat="-28.3886" lon="-65.71332">
        <ele>591.8</ele>
        <time>2018-08-20T17:52:41Z</time>
      </trkpt>
      <trkpt lat="-28.38874" lon="-65.713355">
        <ele>591.2</ele>
        <time>2018-08-20T17:52:43Z</time>
      </trkpt>
      <trkpt lat="-28.388875" lon="-65.71339">
        <ele>590.6</ele>
        <time>2018-08-20T17:52:45Z</time>
      </trkpt>
      <trkpt lat="-28.389015" lon="-65.713425">
        <ele>590.4</ele>
        <time>2018-08-20T17:52:47Z</time>
      </trkpt>
      <trkpt lat="-28.38915" lon="-65.71346">
        <ele>589.7</ele>
        <time>2018-08-20T17:52:49Z</time>
      </trkpt>
      <trkpt lat="-28.38928" lon="-65.71348666666667">
        <ele>589.8</ele>
        <time>2018-08-20T17:52:51Z</time>
      </trkpt>
      <trkpt lat="-28.38942" lon="-65.71352">
        <ele>590.2</ele>
        <time>2018-08-20T17:52:53Z</time>
      </trkpt>
      <trkpt lat="-28.389551666666666" lon="-65.713555">
        <ele>590.6</ele>
        <time>2018-08-20T17:52:55Z</time>
      </trkpt>
      <trkpt lat="-28.389621666666667" lon="-65.713575">
        <ele>590.6</ele>
        <time>2018-08-20T17:52:56Z</time>
      </trkpt>
      <trkpt lat="-28.389695" lon="-65.713595">
        <ele>590.4</ele>
        <time>2018-08-20T17:52:57Z</time>
      </trkpt>
      <trkpt lat="-28.389835" lon="-65.713615">
        <ele>590.6</ele>
        <time>2018-08-20T17:52:59Z</time>
      </trkpt>
      <trkpt lat="-28.38996" lon="-65.71364">
        <ele>591.9</ele>
        <time>2018-08-20T17:53:01Z</time>
      </trkpt>
      <trkpt lat="-28.3901" lon="-65.71367">
        <ele>592.1</ele>
        <time>2018-08-20T17:53:03Z</time>
      </trkpt>
      <trkpt lat="-28.39018" lon="-65.71369">
        <ele>591.7</ele>
        <time>2018-08-20T17:53:04Z</time>
      </trkpt>
      <trkpt lat="-28.39033" lon="-65.713725">
        <ele>591.0</ele>
        <time>2018-08-20T17:53:06Z</time>
      </trkpt>
      <trkpt lat="-28.390405" lon="-65.713745">
        <ele>590.4</ele>
        <time>2018-08-20T17:53:07Z</time>
      </trkpt>
      <trkpt lat="-28.390536666666666" lon="-65.71378">
        <ele>589.9</ele>
        <time>2018-08-20T17:53:09Z</time>
      </trkpt>
      <trkpt lat="-28.390665" lon="-65.71380833333333">
        <ele>590.3</ele>
        <time>2018-08-20T17:53:11Z</time>
      </trkpt>
      <trkpt lat="-28.390785" lon="-65.71384">
        <ele>590.9</ele>
        <time>2018-08-20T17:53:13Z</time>
      </trkpt>
      <trkpt lat="-28.39086" lon="-65.713855">
        <ele>590.6</ele>
        <time>2018-08-20T17:53:14Z</time>
      </trkpt>
      <trkpt lat="-28.391" lon="-65.71389">
        <ele>590.7</ele>
        <time>2018-08-20T17:53:16Z</time>
      </trkpt>
      <trkpt lat="-28.39107" lon="-65.71391">
        <ele>590.4</ele>
        <time>2018-08-20T17:53:17Z</time>
      </trkpt>
      <trkpt lat="-28.3912" lon="-65.71394166666667">
        <ele>590.3</ele>
        <time>2018-08-20T17:53:19Z</time>
      </trkpt>
      <trkpt lat="-28.39133" lon="-65.71398">
        <ele>590.7</ele>
        <time>2018-08-20T17:53:21Z</time>
      </trkpt>
      <trkpt lat="-28.391465" lon="-65.714005">
        <ele>591.5</ele>
        <time>2018-08-20T17:53:23Z</time>
      </trkpt>
      <trkpt lat="-28.391605" lon="-65.71405">
        <ele>591.0</ele>
        <time>2018-08-20T17:53:25Z</time>
      </trkpt>
      <trkpt lat="-28.391676666666665" lon="-65.714065">
        <ele>590.6</ele>
        <time>2018-08-20T17:53:26Z</time>
      </trkpt>
      <trkpt lat="-28.391755" lon="-65.71408166666667">
        <ele>590.3</ele>
        <time>2018-08-20T17:53:27Z</time>
      </trkpt>
      <trkpt lat="-28.39189" lon="-65.714115">
        <ele>590.7</ele>
        <time>2018-08-20T17:53:29Z</time>
      </trkpt>
      <trkpt lat="-28.392013333333335" lon="-65.71415">
        <ele>591.3</ele>
        <time>2018-08-20T17:53:31Z</time>
      </trkpt>
      <trkpt lat="-28.39209" lon="-65.714165">
        <ele>591.3</ele>
        <time>2018-08-20T17:53:32Z</time>
      </trkpt>
      <trkpt lat="-28.39216" lon="-65.71419">
        <ele>590.9</ele>
        <time>2018-08-20T17:53:33Z</time>
      </trkpt>
      <trkpt lat="-28.39229" lon="-65.71422">
        <ele>590.7</ele>
        <time>2018-08-20T17:53:34Z</time>
      </trkpt>
      <trkpt lat="-28.392415" lon="-65.71425">
        <ele>590.2</ele>
        <time>2018-08-20T17:53:37Z</time>
      </trkpt>
      <trkpt lat="-28.39249" lon="-65.71427">
        <ele>589.9</ele>
        <time>2018-08-20T17:53:38Z</time>
      </trkpt>
      <trkpt lat="-28.39261" lon="-65.71429833333333">
        <ele>589.2</ele>
        <time>2018-08-20T17:53:40Z</time>
      </trkpt>
      <trkpt lat="-28.39272" lon="-65.71433">
        <ele>588.6</ele>
        <time>2018-08-20T17:53:42Z</time>
      </trkpt>
      <trkpt lat="-28.392825" lon="-65.71434333333333">
        <ele>588.1</ele>
        <time>2018-08-20T17:53:44Z</time>
      </trkpt>
      <trkpt lat="-28.392915" lon="-65.71437">
        <ele>588.1</ele>
        <time>2018-08-20T17:53:46Z</time>
      </trkpt>
      <trkpt lat="-28.393031666666666" lon="-65.71441">
        <ele>586.9</ele>
        <time>2018-08-20T17:53:48Z</time>
      </trkpt>
      <trkpt lat="-28.393155" lon="-65.71443333333333">
        <ele>586.1</ele>
        <time>2018-08-20T17:53:50Z</time>
      </trkpt>
      <trkpt lat="-28.393275" lon="-65.714465">
        <ele>585.3</ele>
        <time>2018-08-20T17:53:52Z</time>
      </trkpt>
      <trkpt lat="-28.39339" lon="-65.7145">
        <ele>584.8</ele>
        <time>2018-08-20T17:53:54Z</time>
      </trkpt>
      <trkpt lat="-28.3935" lon="-65.71452333333333">
        <ele>584.5</ele>
        <time>2018-08-20T17:53:56Z</time>
      </trkpt>
      <trkpt lat="-28.393585" lon="-65.71454">
        <ele>585.2</ele>
        <time>2018-08-20T17:53:58Z</time>
      </trkpt>
      <trkpt lat="-28.393681666666666" lon="-65.71456">
        <ele>586.6</ele>
        <time>2018-08-20T17:54:00Z</time>
      </trkpt>
      <trkpt lat="-28.393785" lon="-65.714585">
        <ele>587.7</ele>
        <time>2018-08-20T17:54:02Z</time>
      </trkpt>
      <trkpt lat="-28.393885" lon="-65.71460166666667">
        <ele>588.0</ele>
        <time>2018-08-20T17:54:04Z</time>
      </trkpt>
      <trkpt lat="-28.393975" lon="-65.714625">
        <ele>589.1</ele>
        <time>2018-08-20T17:54:06Z</time>
      </trkpt>
      <trkpt lat="-28.394095" lon="-65.71465333333333">
        <ele>590.3</ele>
        <time>2018-08-20T17:54:08Z</time>
      </trkpt>
      <trkpt lat="-28.394195" lon="-65.71468">
        <ele>590.3</ele>
        <time>2018-08-20T17:54:10Z</time>
      </trkpt>
      <trkpt lat="-28.394305" lon="-65.71471">
        <ele>589.2</ele>
        <time>2018-08-20T17:54:12Z</time>
      </trkpt>
      <trkpt lat="-28.394405" lon="-65.71473">
        <ele>587.9</ele>
        <time>2018-08-20T17:54:14Z</time>
      </trkpt>
      <trkpt lat="-28.39451" lon="-65.714755">
        <ele>587.2</ele>
        <time>2018-08-20T17:54:16Z</time>
      </trkpt>
      <trkpt lat="-28.394615" lon="-65.714785">
        <ele>586.6</ele>
        <time>2018-08-20T17:54:18Z</time>
      </trkpt>
      <trkpt lat="-28.39473" lon="-65.714815">
        <ele>585.8</ele>
        <time>2018-08-20T17:54:20Z</time>
      </trkpt>
      <trkpt lat="-28.394835" lon="-65.71483833333333">
        <ele>585.3</ele>
        <time>2018-08-20T17:54:22Z</time>
      </trkpt>
      <trkpt lat="-28.39495" lon="-65.71487">
        <ele>584.6</ele>
        <time>2018-08-20T17:54:24Z</time>
      </trkpt>
      <trkpt lat="-28.395075" lon="-65.7149">
        <ele>584.2</ele>
        <time>2018-08-20T17:54:26Z</time>
      </trkpt>
      <trkpt lat="-28.39519" lon="-65.71492666666667">
        <ele>584.3</ele>
        <time>2018-08-20T17:54:28Z</time>
      </trkpt>
      <trkpt lat="-28.395305" lon="-65.714965">
        <ele>584.2</ele>
        <time>2018-08-20T17:54:30Z</time>
      </trkpt>
      <trkpt lat="-28.395415" lon="-65.71499">
        <ele>584.1</ele>
        <time>2018-08-20T17:54:32Z</time>
      </trkpt>
      <trkpt lat="-28.39554" lon="-65.71501833333333">
        <ele>583.0</ele>
        <time>2018-08-20T17:54:34Z</time>
      </trkpt>
      <trkpt lat="-28.395665" lon="-65.71505166666667">
        <ele>581.9</ele>
        <time>2018-08-20T17:54:36Z</time>
      </trkpt>
      <trkpt lat="-28.395775" lon="-65.715075">
        <ele>581.4</ele>
        <time>2018-08-20T17:54:38Z</time>
      </trkpt>
      <trkpt lat="-28.395895" lon="-65.715105">
        <ele>581.0</ele>
        <time>2018-08-20T17:54:40Z</time>
      </trkpt>
      <trkpt lat="-28.39602" lon="-65.71513666666667">
        <ele>580.1</ele>
        <time>2018-08-20T17:54:42Z</time>
      </trkpt>
      <trkpt lat="-28.396143333333335" lon="-65.715175">
        <ele>579.2</ele>
        <time>2018-08-20T17:54:44Z</time>
      </trkpt>
      <trkpt lat="-28.396255" lon="-65.71519">
        <ele>579.3</ele>
        <time>2018-08-20T17:54:46Z</time>
      </trkpt>
      <trkpt lat="-28.39636" lon="-65.71521">
        <ele>580.2</ele>
        <time>2018-08-20T17:54:48Z</time>
      </trkpt>
      <trkpt lat="-28.396505" lon="-65.71523666666667">
        <ele>580.3</ele>
        <time>2018-08-20T17:54:50Z</time>
      </trkpt>
      <trkpt lat="-28.396575" lon="-65.71526">
        <ele>580.3</ele>
        <time>2018-08-20T17:54:51Z</time>
      </trkpt>
      <trkpt lat="-28.396645" lon="-65.71527666666667">
        <ele>580.9</ele>
        <time>2018-08-20T17:54:52Z</time>
      </trkpt>
      <trkpt lat="-28.39678" lon="-65.71532">
        <ele>581.4</ele>
        <time>2018-08-20T17:54:54Z</time>
      </trkpt>
      <trkpt lat="-28.39685" lon="-65.71534">
        <ele>580.9</ele>
        <time>2018-08-20T17:54:55Z</time>
      </trkpt>
      <trkpt lat="-28.39699" lon="-65.71537333333333">
        <ele>579.2</ele>
        <time>2018-08-20T17:54:57Z</time>
      </trkpt>
      <trkpt lat="-28.39712" lon="-65.71540666666667">
        <ele>578.1</ele>
        <time>2018-08-20T17:54:59Z</time>
      </trkpt>
      <trkpt lat="-28.39725" lon="-65.71544">
        <ele>577.9</ele>
        <time>2018-08-20T17:55:01Z</time>
      </trkpt>
      <trkpt lat="-28.39737" lon="-65.71547">
        <ele>578.3</ele>
        <time>2018-08-20T17:55:03Z</time>
      </trkpt>
      <trkpt lat="-28.3975" lon="-65.7155">
        <ele>578.6</ele>
        <time>2018-08-20T17:55:05Z</time>
      </trkpt>
      <trkpt lat="-28.397635" lon="-65.715535">
        <ele>577.9</ele>
        <time>2018-08-20T17:55:07Z</time>
      </trkpt>
      <trkpt lat="-28.39774" lon="-65.71555333333333">
        <ele>577.1</ele>
        <time>2018-08-20T17:55:09Z</time>
      </trkpt>
      <trkpt lat="-28.397855" lon="-65.715585">
        <ele>577.9</ele>
        <time>2018-08-20T17:55:11Z</time>
      </trkpt>
      <trkpt lat="-28.397966666666665" lon="-65.71561">
        <ele>579.5</ele>
        <time>2018-08-20T17:55:13Z</time>
      </trkpt>
      <trkpt lat="-28.39809" lon="-65.71563166666667">
        <ele>580.3</ele>
        <time>2018-08-20T17:55:15Z</time>
      </trkpt>
      <trkpt lat="-28.398165" lon="-65.715655">
        <ele>580.7</ele>
        <time>2018-08-20T17:55:16Z</time>
      </trkpt>
      <trkpt lat="-28.398295" lon="-65.715695">
        <ele>581.1</ele>
        <time>2018-08-20T17:55:18Z</time>
      </trkpt>
      <trkpt lat="-28.398435" lon="-65.715725">
        <ele>580.5</ele>
        <time>2018-08-20T17:55:20Z</time>
      </trkpt>
      <trkpt lat="-28.39857" lon="-65.71577">
        <ele>578.9</ele>
        <time>2018-08-20T17:55:22Z</time>
      </trkpt>
      <trkpt lat="-28.3987" lon="-65.71581">
        <ele>576.8</ele>
        <time>2018-08-20T17:55:24Z</time>
      </trkpt>
      <trkpt lat="-28.398825" lon="-65.715835">
        <ele>575.4</ele>
        <time>2018-08-20T17:55:26Z</time>
      </trkpt>
      <trkpt lat="-28.398951666666665" lon="-65.715875">
        <ele>573.9</ele>
        <time>2018-08-20T17:55:28Z</time>
      </trkpt>
      <trkpt lat="-28.39907" lon="-65.715895">
        <ele>574.2</ele>
        <time>2018-08-20T17:55:30Z</time>
      </trkpt>
      <trkpt lat="-28.3992" lon="-65.71592">
        <ele>574.4</ele>
        <time>2018-08-20T17:55:32Z</time>
      </trkpt>
      <trkpt lat="-28.39934" lon="-65.71595">
        <ele>576.0</ele>
        <time>2018-08-20T17:55:34Z</time>
      </trkpt>
      <trkpt lat="-28.399455" lon="-65.715975">
        <ele>577.8</ele>
        <time>2018-08-20T17:55:36Z</time>
      </trkpt>
      <trkpt lat="-28.399585" lon="-65.71599833333333">
        <ele>579.1</ele>
        <time>2018-08-20T17:55:38Z</time>
      </trkpt>
      <trkpt lat="-28.39972" lon="-65.716035">
        <ele>580.7</ele>
        <time>2018-08-20T17:55:40Z</time>
      </trkpt>
      <trkpt lat="-28.39985" lon="-65.71606">
        <ele>582.0</ele>
        <time>2018-08-20T17:55:42Z</time>
      </trkpt>
      <trkpt lat="-28.39998" lon="-65.71608666666667">
        <ele>582.3</ele>
        <time>2018-08-20T17:55:44Z</time>
      </trkpt>
      <trkpt lat="-28.400116666666666" lon="-65.71612666666667">
        <ele>582.3</ele>
        <time>2018-08-20T17:55:46Z</time>
      </trkpt>
      <trkpt lat="-28.40019" lon="-65.716145">
        <ele>581.8</ele>
        <time>2018-08-20T17:55:47Z</time>
      </trkpt>
      <trkpt lat="-28.400315" lon="-65.716175">
        <ele>582.5</ele>
        <time>2018-08-20T17:55:48Z</time>
      </trkpt>
      <trkpt lat="-28.400445" lon="-65.71621">
        <ele>582.9</ele>
        <time>2018-08-20T17:55:51Z</time>
      </trkpt>
      <trkpt lat="-28.400585" lon="-65.71625">
        <ele>582.5</ele>
        <time>2018-08-20T17:55:53Z</time>
      </trkpt>
      <trkpt lat="-28.400655" lon="-65.716265">
        <ele>582.0</ele>
        <time>2018-08-20T17:55:54Z</time>
      </trkpt>
      <trkpt lat="-28.40073" lon="-65.716285">
        <ele>581.8</ele>
        <time>2018-08-20T17:55:55Z</time>
      </trkpt>
      <trkpt lat="-28.40086" lon="-65.716325">
        <ele>581.4</ele>
        <time>2018-08-20T17:55:57Z</time>
      </trkpt>
      <trkpt lat="-28.40093" lon="-65.71634">
        <ele>581.3</ele>
        <time>2018-08-20T17:55:58Z</time>
      </trkpt>
      <trkpt lat="-28.401005" lon="-65.71635166666667">
        <ele>581.7</ele>
        <time>2018-08-20T17:55:59Z</time>
      </trkpt>
      <trkpt lat="-28.401075" lon="-65.71637">
        <ele>582.5</ele>
        <time>2018-08-20T17:56:00Z</time>
      </trkpt>
      <trkpt lat="-28.4012" lon="-65.71639666666667">
        <ele>583.2</ele>
        <time>2018-08-20T17:56:02Z</time>
      </trkpt>
      <trkpt lat="-28.40127" lon="-65.71642">
        <ele>583.8</ele>
        <time>2018-08-20T17:56:03Z</time>
      </trkpt>
      <trkpt lat="-28.401405" lon="-65.716455">
        <ele>583.9</ele>
        <time>2018-08-20T17:56:05Z</time>
      </trkpt>
      <trkpt lat="-28.40154" lon="-65.716485">
        <ele>583.5</ele>
        <time>2018-08-20T17:56:07Z</time>
      </trkpt>
      <trkpt lat="-28.401655" lon="-65.71652">
        <ele>582.8</ele>
        <time>2018-08-20T17:56:09Z</time>
      </trkpt>
      <trkpt lat="-28.4018" lon="-65.716555">
        <ele>582.9</ele>
        <time>2018-08-20T17:56:11Z</time>
      </trkpt>
      <trkpt lat="-28.40187" lon="-65.71657">
        <ele>582.9</ele>
        <time>2018-08-20T17:56:12Z</time>
      </trkpt>
      <trkpt lat="-28.402" lon="-65.716605">
        <ele>582.4</ele>
        <time>2018-08-20T17:56:14Z</time>
      </trkpt>
      <trkpt lat="-28.402075" lon="-65.71661666666667">
        <ele>582.6</ele>
        <time>2018-08-20T17:56:15Z</time>
      </trkpt>
      <trkpt lat="-28.40221" lon="-65.71665">
        <ele>582.0</ele>
        <time>2018-08-20T17:56:17Z</time>
      </trkpt>
      <trkpt lat="-28.40234" lon="-65.71668">
        <ele>580.6</ele>
        <time>2018-08-20T17:56:19Z</time>
      </trkpt>
      <trkpt lat="-28.402465" lon="-65.71671">
        <ele>580.6</ele>
        <time>2018-08-20T17:56:21Z</time>
      </trkpt>
      <trkpt lat="-28.40261" lon="-65.716745">
        <ele>579.9</ele>
        <time>2018-08-20T17:56:23Z</time>
      </trkpt>
      <trkpt lat="-28.402745" lon="-65.71678">
        <ele>578.8</ele>
        <time>2018-08-20T17:56:25Z</time>
      </trkpt>
      <trkpt lat="-28.402865" lon="-65.71680333333333">
        <ele>578.6</ele>
        <time>2018-08-20T17:56:27Z</time>
      </trkpt>
      <trkpt lat="-28.402985" lon="-65.71683">
        <ele>579.1</ele>
        <time>2018-08-20T17:56:29Z</time>
      </trkpt>
      <trkpt lat="-28.403115" lon="-65.716865">
        <ele>578.0</ele>
        <time>2018-08-20T17:56:31Z</time>
      </trkpt>
      <trkpt lat="-28.403245" lon="-65.71688833333333">
        <ele>577.5</ele>
        <time>2018-08-20T17:56:33Z</time>
      </trkpt>
      <trkpt lat="-28.40339" lon="-65.716925">
        <ele>578.4</ele>
        <time>2018-08-20T17:56:35Z</time>
      </trkpt>
      <trkpt lat="-28.403525" lon="-65.71697">
        <ele>579.9</ele>
        <time>2018-08-20T17:56:37Z</time>
      </trkpt>
      <trkpt lat="-28.40366" lon="-65.717005">
        <ele>580.2</ele>
        <time>2018-08-20T17:56:39Z</time>
      </trkpt>
      <trkpt lat="-28.40378" lon="-65.71703">
        <ele>579.8</ele>
        <time>2018-08-20T17:56:41Z</time>
      </trkpt>
      <trkpt lat="-28.40391" lon="-65.717065">
        <ele>580.0</ele>
        <time>2018-08-20T17:56:43Z</time>
      </trkpt>
      <trkpt lat="-28.404035" lon="-65.7171">
        <ele>580.6</ele>
        <time>2018-08-20T17:56:45Z</time>
      </trkpt>
      <trkpt lat="-28.404155" lon="-65.71713">
        <ele>579.8</ele>
        <time>2018-08-20T17:56:47Z</time>
      </trkpt>
      <trkpt lat="-28.40428" lon="-65.71715">
        <ele>578.6</ele>
        <time>2018-08-20T17:56:49Z</time>
      </trkpt>
      <trkpt lat="-28.404420000000002" lon="-65.71718">
        <ele>577.9</ele>
        <time>2018-08-20T17:56:51Z</time>
      </trkpt>
      <trkpt lat="-28.40455" lon="-65.71721166666667">
        <ele>577.6</ele>
        <time>2018-08-20T17:56:53Z</time>
      </trkpt>
      <trkpt lat="-28.40469" lon="-65.71725">
        <ele>577.7</ele>
        <time>2018-08-20T17:56:55Z</time>
      </trkpt>
      <trkpt lat="-28.40476" lon="-65.71727">
        <ele>577.6</ele>
        <time>2018-08-20T17:56:56Z</time>
      </trkpt>
      <trkpt lat="-28.404835" lon="-65.71729">
        <ele>577.7</ele>
        <time>2018-08-20T17:56:57Z</time>
      </trkpt>
      <trkpt lat="-28.404905" lon="-65.71731">
        <ele>578.0</ele>
        <time>2018-08-20T17:56:58Z</time>
      </trkpt>
      <trkpt lat="-28.405035" lon="-65.71734333333333">
        <ele>579.9</ele>
        <time>2018-08-20T17:57:00Z</time>
      </trkpt>
      <trkpt lat="-28.405165" lon="-65.71738">
        <ele>582.4</ele>
        <time>2018-08-20T17:57:02Z</time>
      </trkpt>
      <trkpt lat="-28.405305" lon="-65.71741666666667">
        <ele>584.3</ele>
        <time>2018-08-20T17:57:04Z</time>
      </trkpt>
      <trkpt lat="-28.405375" lon="-65.71744">
        <ele>584.9</ele>
        <time>2018-08-20T17:57:05Z</time>
      </trkpt>
      <trkpt lat="-28.40545" lon="-65.71746">
        <ele>585.6</ele>
        <time>2018-08-20T17:57:06Z</time>
      </trkpt>
      <trkpt lat="-28.405525" lon="-65.71747333333333">
        <ele>586.2</ele>
        <time>2018-08-20T17:57:07Z</time>
      </trkpt>
      <trkpt lat="-28.405595" lon="-65.717495">
        <ele>586.7</ele>
        <time>2018-08-20T17:57:08Z</time>
      </trkpt>
      <trkpt lat="-28.405685" lon="-65.717515">
        <ele>587.6</ele>
        <time>2018-08-20T17:57:09Z</time>
      </trkpt>
      <trkpt lat="-28.40578" lon="-65.71755">
        <ele>588.6</ele>
        <time>2018-08-20T17:57:10Z</time>
      </trkpt>
      <trkpt lat="-28.405855" lon="-65.71756833333333">
        <ele>589.6</ele>
        <time>2018-08-20T17:57:11Z</time>
      </trkpt>
      <trkpt lat="-28.40593" lon="-65.717595">
        <ele>590.7</ele>
        <time>2018-08-20T17:57:12Z</time>
      </trkpt>
      <trkpt lat="-28.40601" lon="-65.71761">
        <ele>591.3</ele>
        <time>2018-08-20T17:57:13Z</time>
      </trkpt>
      <trkpt lat="-28.40608" lon="-65.717635">
        <ele>591.6</ele>
        <time>2018-08-20T17:57:14Z</time>
      </trkpt>
      <trkpt lat="-28.406155" lon="-65.71765">
        <ele>592.1</ele>
        <time>2018-08-20T17:57:15Z</time>
      </trkpt>
      <trkpt lat="-28.406226666666665" lon="-65.717665">
        <ele>592.6</ele>
        <time>2018-08-20T17:57:16Z</time>
      </trkpt>
      <trkpt lat="-28.406305" lon="-65.717685">
        <ele>593.1</ele>
        <time>2018-08-20T17:57:17Z</time>
      </trkpt>
      <trkpt lat="-28.406373333333335" lon="-65.717695">
        <ele>593.8</ele>
        <time>2018-08-20T17:57:18Z</time>
      </trkpt>
      <trkpt lat="-28.40645" lon="-65.71772">
        <ele>594.4</ele>
        <time>2018-08-20T17:57:19Z</time>
      </trkpt>
      <trkpt lat="-28.40652" lon="-65.71773166666667">
        <ele>594.8</ele>
        <time>2018-08-20T17:57:20Z</time>
      </trkpt>
      <trkpt lat="-28.406595" lon="-65.71775">
        <ele>594.8</ele>
        <time>2018-08-20T17:57:21Z</time>
      </trkpt>
      <trkpt lat="-28.406725" lon="-65.717785">
        <ele>595.2</ele>
        <time>2018-08-20T17:57:23Z</time>
      </trkpt>
      <trkpt lat="-28.40686" lon="-65.717825">
        <ele>595.8</ele>
        <time>2018-08-20T17:57:25Z</time>
      </trkpt>
      <trkpt lat="-28.407" lon="-65.717855">
        <ele>595.6</ele>
        <time>2018-08-20T17:57:27Z</time>
      </trkpt>
      <trkpt lat="-28.407135" lon="-65.71789">
        <ele>595.4</ele>
        <time>2018-08-20T17:57:29Z</time>
      </trkpt>
      <trkpt lat="-28.40727" lon="-65.71792">
        <ele>595.8</ele>
        <time>2018-08-20T17:57:31Z</time>
      </trkpt>
      <trkpt lat="-28.4074" lon="-65.717955">
        <ele>596.1</ele>
        <time>2018-08-20T17:57:33Z</time>
      </trkpt>
      <trkpt lat="-28.40753" lon="-65.717985">
        <ele>596.1</ele>
        <time>2018-08-20T17:57:35Z</time>
      </trkpt>
      <trkpt lat="-28.40766" lon="-65.718015">
        <ele>595.7</ele>
        <time>2018-08-20T17:57:37Z</time>
      </trkpt>
      <trkpt lat="-28.40778" lon="-65.718045">
        <ele>594.9</ele>
        <time>2018-08-20T17:57:39Z</time>
      </trkpt>
      <trkpt lat="-28.40791" lon="-65.718075">
        <ele>594.6</ele>
        <time>2018-08-20T17:57:41Z</time>
      </trkpt>
      <trkpt lat="-28.40804" lon="-65.71810333333333">
        <ele>595.0</ele>
        <time>2018-08-20T17:57:43Z</time>
      </trkpt>
      <trkpt lat="-28.40811" lon="-65.718125">
        <ele>595.4</ele>
        <time>2018-08-20T17:57:44Z</time>
      </trkpt>
      <trkpt lat="-28.40825" lon="-65.71816">
        <ele>595.7</ele>
        <time>2018-08-20T17:57:46Z</time>
      </trkpt>
      <trkpt lat="-28.408375" lon="-65.71819">
        <ele>595.6</ele>
        <time>2018-08-20T17:57:48Z</time>
      </trkpt>
      <trkpt lat="-28.40851" lon="-65.718225">
        <ele>595.3</ele>
        <time>2018-08-20T17:57:50Z</time>
      </trkpt>
      <trkpt lat="-28.40863" lon="-65.718255">
        <ele>594.9</ele>
        <time>2018-08-20T17:57:52Z</time>
      </trkpt>
      <trkpt lat="-28.408756666666665" lon="-65.718285">
        <ele>594.7</ele>
        <time>2018-08-20T17:57:54Z</time>
      </trkpt>
      <trkpt lat="-28.40888" lon="-65.718315">
        <ele>593.7</ele>
        <time>2018-08-20T17:57:56Z</time>
      </trkpt>
      <trkpt lat="-28.40899" lon="-65.71834">
        <ele>593.1</ele>
        <time>2018-08-20T17:57:58Z</time>
      </trkpt>
      <trkpt lat="-28.409096666666667" lon="-65.71836166666667">
        <ele>589.4</ele>
        <time>2018-08-20T17:57:59Z</time>
      </trkpt>
      <trkpt lat="-28.409235" lon="-65.718395">
        <ele>584.9</ele>
        <time>2018-08-20T17:58:02Z</time>
      </trkpt>
      <trkpt lat="-28.40931" lon="-65.71841333333333">
        <ele>583.6</ele>
        <time>2018-08-20T17:58:03Z</time>
      </trkpt>
      <trkpt lat="-28.409385" lon="-65.71844">
        <ele>582.8</ele>
        <time>2018-08-20T17:58:04Z</time>
      </trkpt>
      <trkpt lat="-28.409455" lon="-65.718455">
        <ele>582.2</ele>
        <time>2018-08-20T17:58:05Z</time>
      </trkpt>
      <trkpt lat="-28.409585" lon="-65.7185">
        <ele>580.8</ele>
        <time>2018-08-20T17:58:07Z</time>
      </trkpt>
      <trkpt lat="-28.4097" lon="-65.71854">
        <ele>575.3</ele>
        <time>2018-08-20T17:58:09Z</time>
      </trkpt>
      <trkpt lat="-28.40983" lon="-65.718585">
        <ele>569.4</ele>
        <time>2018-08-20T17:58:11Z</time>
      </trkpt>
      <trkpt lat="-28.409955" lon="-65.71862333333334">
        <ele>564.5</ele>
        <time>2018-08-20T17:58:13Z</time>
      </trkpt>
      <trkpt lat="-28.41008" lon="-65.71867166666667">
        <ele>560.8</ele>
        <time>2018-08-20T17:58:15Z</time>
      </trkpt>
      <trkpt lat="-28.410195" lon="-65.718725">
        <ele>557.9</ele>
        <time>2018-08-20T17:58:17Z</time>
      </trkpt>
      <trkpt lat="-28.410308333333333" lon="-65.71876666666667">
        <ele>555.5</ele>
        <time>2018-08-20T17:58:19Z</time>
      </trkpt>
      <trkpt lat="-28.410425" lon="-65.71881666666667">
        <ele>553.7</ele>
        <time>2018-08-20T17:58:21Z</time>
      </trkpt>
      <trkpt lat="-28.410545" lon="-65.718875">
        <ele>552.0</ele>
        <time>2018-08-20T17:58:23Z</time>
      </trkpt>
      <trkpt lat="-28.410675" lon="-65.71893">
        <ele>551.7</ele>
        <time>2018-08-20T17:58:25Z</time>
      </trkpt>
      <trkpt lat="-28.410795" lon="-65.71899">
        <ele>550.9</ele>
        <time>2018-08-20T17:58:27Z</time>
      </trkpt>
      <trkpt lat="-28.41091" lon="-65.719055">
        <ele>549.9</ele>
        <time>2018-08-20T17:58:29Z</time>
      </trkpt>
      <trkpt lat="-28.41104" lon="-65.719115">
        <ele>548.2</ele>
        <time>2018-08-20T17:58:31Z</time>
      </trkpt>
      <trkpt lat="-28.411165" lon="-65.719175">
        <ele>546.2</ele>
        <time>2018-08-20T17:58:33Z</time>
      </trkpt>
      <trkpt lat="-28.41129" lon="-65.71922666666667">
        <ele>544.6</ele>
        <time>2018-08-20T17:58:35Z</time>
      </trkpt>
      <trkpt lat="-28.41142" lon="-65.71929">
        <ele>543.4</ele>
        <time>2018-08-20T17:58:37Z</time>
      </trkpt>
      <trkpt lat="-28.41155" lon="-65.719345">
        <ele>542.9</ele>
        <time>2018-08-20T17:58:39Z</time>
      </trkpt>
      <trkpt lat="-28.41167" lon="-65.71940166666667">
        <ele>542.7</ele>
        <time>2018-08-20T17:58:41Z</time>
      </trkpt>
      <trkpt lat="-28.411791666666666" lon="-65.719465">
        <ele>543.1</ele>
        <time>2018-08-20T17:58:43Z</time>
      </trkpt>
      <trkpt lat="-28.411915" lon="-65.71952">
        <ele>543.8</ele>
        <time>2018-08-20T17:58:45Z</time>
      </trkpt>
      <trkpt lat="-28.412035" lon="-65.71957">
        <ele>543.6</ele>
        <time>2018-08-20T17:58:47Z</time>
      </trkpt>
      <trkpt lat="-28.412145" lon="-65.71962166666667">
        <ele>543.1</ele>
        <time>2018-08-20T17:58:49Z</time>
      </trkpt>
      <trkpt lat="-28.412255" lon="-65.71968">
        <ele>542.9</ele>
        <time>2018-08-20T17:58:51Z</time>
      </trkpt>
      <trkpt lat="-28.412361666666666" lon="-65.719735">
        <ele>543.0</ele>
        <time>2018-08-20T17:58:53Z</time>
      </trkpt>
      <trkpt lat="-28.41248" lon="-65.719785">
        <ele>543.8</ele>
        <time>2018-08-20T17:58:55Z</time>
      </trkpt>
      <trkpt lat="-28.4126" lon="-65.719835">
        <ele>545.0</ele>
        <time>2018-08-20T17:58:57Z</time>
      </trkpt>
      <trkpt lat="-28.412715" lon="-65.71989">
        <ele>545.8</ele>
        <time>2018-08-20T17:58:59Z</time>
      </trkpt>
      <trkpt lat="-28.41283" lon="-65.71994333333333">
        <ele>545.3</ele>
        <time>2018-08-20T17:59:01Z</time>
      </trkpt>
      <trkpt lat="-28.41295" lon="-65.72">
        <ele>544.3</ele>
        <time>2018-08-20T17:59:03Z</time>
      </trkpt>
      <trkpt lat="-28.41307" lon="-65.72006">
        <ele>543.0</ele>
        <time>2018-08-20T17:59:05Z</time>
      </trkpt>
      <trkpt lat="-28.413185" lon="-65.720115">
        <ele>542.1</ele>
        <time>2018-08-20T17:59:07Z</time>
      </trkpt>
      <trkpt lat="-28.4133" lon="-65.72016666666667">
        <ele>541.5</ele>
        <time>2018-08-20T17:59:09Z</time>
      </trkpt>
      <trkpt lat="-28.41341" lon="-65.720225">
        <ele>541.2</ele>
        <time>2018-08-20T17:59:11Z</time>
      </trkpt>
      <trkpt lat="-28.41352" lon="-65.72028">
        <ele>541.1</ele>
        <time>2018-08-20T17:59:13Z</time>
      </trkpt>
      <trkpt lat="-28.413625" lon="-65.72033">
        <ele>541.3</ele>
        <time>2018-08-20T17:59:15Z</time>
      </trkpt>
      <trkpt lat="-28.413728333333335" lon="-65.72036833333334">
        <ele>541.6</ele>
        <time>2018-08-20T17:59:17Z</time>
      </trkpt>
      <trkpt lat="-28.41384" lon="-65.720425">
        <ele>542.0</ele>
        <time>2018-08-20T17:59:19Z</time>
      </trkpt>
      <trkpt lat="-28.41395" lon="-65.72047333333333">
        <ele>542.4</ele>
        <time>2018-08-20T17:59:21Z</time>
      </trkpt>
      <trkpt lat="-28.414056666666667" lon="-65.720525">
        <ele>542.6</ele>
        <time>2018-08-20T17:59:23Z</time>
      </trkpt>
      <trkpt lat="-28.414175" lon="-65.72058">
        <ele>542.3</ele>
        <time>2018-08-20T17:59:25Z</time>
      </trkpt>
      <trkpt lat="-28.414295" lon="-65.72064">
        <ele>541.8</ele>
        <time>2018-08-20T17:59:27Z</time>
      </trkpt>
      <trkpt lat="-28.414414999999998" lon="-65.720695">
        <ele>541.4</ele>
        <time>2018-08-20T17:59:29Z</time>
      </trkpt>
      <trkpt lat="-28.414535" lon="-65.72074333333333">
        <ele>541.5</ele>
        <time>2018-08-20T17:59:31Z</time>
      </trkpt>
      <trkpt lat="-28.414655" lon="-65.7208">
        <ele>541.6</ele>
        <time>2018-08-20T17:59:33Z</time>
      </trkpt>
      <trkpt lat="-28.414775" lon="-65.720855">
        <ele>541.9</ele>
        <time>2018-08-20T17:59:35Z</time>
      </trkpt>
      <trkpt lat="-28.4149" lon="-65.72091">
        <ele>542.1</ele>
        <time>2018-08-20T17:59:37Z</time>
      </trkpt>
      <trkpt lat="-28.415025" lon="-65.72097">
        <ele>542.3</ele>
        <time>2018-08-20T17:59:39Z</time>
      </trkpt>
      <trkpt lat="-28.41515" lon="-65.72103">
        <ele>542.2</ele>
        <time>2018-08-20T17:59:41Z</time>
      </trkpt>
      <trkpt lat="-28.41528" lon="-65.72109">
        <ele>543.7</ele>
        <time>2018-08-20T17:59:43Z</time>
      </trkpt>
      <trkpt lat="-28.415395" lon="-65.721145">
        <ele>544.3</ele>
        <time>2018-08-20T17:59:45Z</time>
      </trkpt>
      <trkpt lat="-28.415515" lon="-65.72119833333333">
        <ele>543.9</ele>
        <time>2018-08-20T17:59:47Z</time>
      </trkpt>
      <trkpt lat="-28.41564" lon="-65.721265">
        <ele>544.3</ele>
        <time>2018-08-20T17:59:49Z</time>
      </trkpt>
      <trkpt lat="-28.41576" lon="-65.721315">
        <ele>546.0</ele>
        <time>2018-08-20T17:59:51Z</time>
      </trkpt>
      <trkpt lat="-28.415875" lon="-65.72136666666667">
        <ele>546.9</ele>
        <time>2018-08-20T17:59:53Z</time>
      </trkpt>
      <trkpt lat="-28.416005" lon="-65.721425">
        <ele>547.1</ele>
        <time>2018-08-20T17:59:55Z</time>
      </trkpt>
      <trkpt lat="-28.416125" lon="-65.721485">
        <ele>547.4</ele>
        <time>2018-08-20T17:59:57Z</time>
      </trkpt>
      <trkpt lat="-28.416245" lon="-65.721535">
        <ele>546.6</ele>
        <time>2018-08-20T17:59:59Z</time>
      </trkpt>
      <trkpt lat="-28.41637" lon="-65.72158666666667">
        <ele>546.5</ele>
        <time>2018-08-20T18:00:01Z</time>
      </trkpt>
      <trkpt lat="-28.41649" lon="-65.721635">
        <ele>547.2</ele>
        <time>2018-08-20T18:00:03Z</time>
      </trkpt>
      <trkpt lat="-28.41661" lon="-65.72168333333333">
        <ele>547.5</ele>
        <time>2018-08-20T18:00:05Z</time>
      </trkpt>
      <trkpt lat="-28.41674" lon="-65.721735">
        <ele>548.9</ele>
        <time>2018-08-20T18:00:07Z</time>
      </trkpt>
      <trkpt lat="-28.416861666666666" lon="-65.721785">
        <ele>550.2</ele>
        <time>2018-08-20T18:00:09Z</time>
      </trkpt>
      <trkpt lat="-28.416995" lon="-65.72183">
        <ele>550.8</ele>
        <time>2018-08-20T18:00:11Z</time>
      </trkpt>
      <trkpt lat="-28.41713" lon="-65.721875">
        <ele>549.2</ele>
        <time>2018-08-20T18:00:13Z</time>
      </trkpt>
      <trkpt lat="-28.4172" lon="-65.721895">
        <ele>548.9</ele>
        <time>2018-08-20T18:00:14Z</time>
      </trkpt>
      <trkpt lat="-28.41728" lon="-65.72191333333333">
        <ele>548.7</ele>
        <time>2018-08-20T18:00:15Z</time>
      </trkpt>
      <trkpt lat="-28.417355" lon="-65.72194">
        <ele>548.7</ele>
        <time>2018-08-20T18:00:16Z</time>
      </trkpt>
      <trkpt lat="-28.41743" lon="-65.72195166666667">
        <ele>548.7</ele>
        <time>2018-08-20T18:00:17Z</time>
      </trkpt>
      <trkpt lat="-28.417555" lon="-65.72199">
        <ele>549.7</ele>
        <time>2018-08-20T18:00:19Z</time>
      </trkpt>
      <trkpt lat="-28.41769" lon="-65.72203166666667">
        <ele>550.8</ele>
        <time>2018-08-20T18:00:21Z</time>
      </trkpt>
      <trkpt lat="-28.41782" lon="-65.722075">
        <ele>552.4</ele>
        <time>2018-08-20T18:00:23Z</time>
      </trkpt>
      <trkpt lat="-28.41789" lon="-65.7221">
        <ele>553.8</ele>
        <time>2018-08-20T18:00:24Z</time>
      </trkpt>
      <trkpt lat="-28.41801" lon="-65.72213666666667">
        <ele>556.5</ele>
        <time>2018-08-20T18:00:26Z</time>
      </trkpt>
      <trkpt lat="-28.41814" lon="-65.72218333333333">
        <ele>559.2</ele>
        <time>2018-08-20T18:00:28Z</time>
      </trkpt>
      <trkpt lat="-28.418265" lon="-65.72222166666667">
        <ele>561.8</ele>
        <time>2018-08-20T18:00:30Z</time>
      </trkpt>
      <trkpt lat="-28.418375" lon="-65.722255">
        <ele>563.5</ele>
        <time>2018-08-20T18:00:32Z</time>
      </trkpt>
      <trkpt lat="-28.418495" lon="-65.722295">
        <ele>564.7</ele>
        <time>2018-08-20T18:00:34Z</time>
      </trkpt>
      <trkpt lat="-28.418616666666665" lon="-65.722335">
        <ele>565.6</ele>
        <time>2018-08-20T18:00:36Z</time>
      </trkpt>
      <trkpt lat="-28.41874" lon="-65.722365">
        <ele>566.1</ele>
        <time>2018-08-20T18:00:38Z</time>
      </trkpt>
      <trkpt lat="-28.418865" lon="-65.72240333333333">
        <ele>566.3</ele>
        <time>2018-08-20T18:00:40Z</time>
      </trkpt>
      <trkpt lat="-28.418995" lon="-65.72244333333333">
        <ele>566.4</ele>
        <time>2018-08-20T18:00:42Z</time>
      </trkpt>
      <trkpt lat="-28.41911" lon="-65.72248">
        <ele>567.1</ele>
        <time>2018-08-20T18:00:44Z</time>
      </trkpt>
      <trkpt lat="-28.419221666666665" lon="-65.72252">
        <ele>568.3</ele>
        <time>2018-08-20T18:00:46Z</time>
      </trkpt>
      <trkpt lat="-28.41934" lon="-65.722555">
        <ele>569.7</ele>
        <time>2018-08-20T18:00:48Z</time>
      </trkpt>
      <trkpt lat="-28.419455" lon="-65.72259">
        <ele>570.7</ele>
        <time>2018-08-20T18:00:50Z</time>
      </trkpt>
      <trkpt lat="-28.419575" lon="-65.72262">
        <ele>572.0</ele>
        <time>2018-08-20T18:00:52Z</time>
      </trkpt>
      <trkpt lat="-28.419695" lon="-65.722665">
        <ele>573.4</ele>
        <time>2018-08-20T18:00:54Z</time>
      </trkpt>
      <trkpt lat="-28.41981" lon="-65.722695">
        <ele>576.5</ele>
        <time>2018-08-20T18:00:56Z</time>
      </trkpt>
      <trkpt lat="-28.419925" lon="-65.72272">
        <ele>580.2</ele>
        <time>2018-08-20T18:00:58Z</time>
      </trkpt>
      <trkpt lat="-28.420045000000002" lon="-65.72275666666667">
        <ele>583.4</ele>
        <time>2018-08-20T18:01:00Z</time>
      </trkpt>
      <trkpt lat="-28.420156666666667" lon="-65.72280333333333">
        <ele>585.8</ele>
        <time>2018-08-20T18:01:02Z</time>
      </trkpt>
      <trkpt lat="-28.420275" lon="-65.72289">
        <ele>587.6</ele>
        <time>2018-08-20T18:01:04Z</time>
      </trkpt>
      <trkpt lat="-28.42036" lon="-65.722955">
        <ele>586.8</ele>
        <time>2018-08-20T18:01:06Z</time>
      </trkpt>
      <trkpt lat="-28.42045" lon="-65.722965">
        <ele>586.4</ele>
        <time>2018-08-20T18:01:08Z</time>
      </trkpt>
      <trkpt lat="-28.420565" lon="-65.72294">
        <ele>586.8</ele>
        <time>2018-08-20T18:01:10Z</time>
      </trkpt>
      <trkpt lat="-28.42069" lon="-65.72294">
        <ele>587.7</ele>
        <time>2018-08-20T18:01:12Z</time>
      </trkpt>
      <trkpt lat="-28.42082" lon="-65.72297">
        <ele>588.4</ele>
        <time>2018-08-20T18:01:13Z</time>
      </trkpt>
      <trkpt lat="-28.420935" lon="-65.723">
        <ele>587.8</ele>
        <time>2018-08-20T18:01:15Z</time>
      </trkpt>
      <trkpt lat="-28.421" lon="-65.72301666666667">
        <ele>587.3</ele>
        <time>2018-08-20T18:01:16Z</time>
      </trkpt>
      <trkpt lat="-28.42113" lon="-65.723055">
        <ele>587.2</ele>
        <time>2018-08-20T18:01:18Z</time>
      </trkpt>
      <trkpt lat="-28.421245" lon="-65.723085">
        <ele>587.5</ele>
        <time>2018-08-20T18:01:20Z</time>
      </trkpt>
      <trkpt lat="-28.42137" lon="-65.723115">
        <ele>588.5</ele>
        <time>2018-08-20T18:01:22Z</time>
      </trkpt>
      <trkpt lat="-28.421495" lon="-65.723155">
        <ele>589.4</ele>
        <time>2018-08-20T18:01:24Z</time>
      </trkpt>
      <trkpt lat="-28.421615" lon="-65.723195">
        <ele>589.5</ele>
        <time>2018-08-20T18:01:27Z</time>
      </trkpt>
      <trkpt lat="-28.42173" lon="-65.723235">
        <ele>589.4</ele>
        <time>2018-08-20T18:01:28Z</time>
      </trkpt>
      <trkpt lat="-28.42185" lon="-65.723265">
        <ele>589.5</ele>
        <time>2018-08-20T18:01:31Z</time>
      </trkpt>
      <trkpt lat="-28.42197" lon="-65.72329333333333">
        <ele>589.6</ele>
        <time>2018-08-20T18:01:33Z</time>
      </trkpt>
      <trkpt lat="-28.42209" lon="-65.72333166666667">
        <ele>589.4</ele>
        <time>2018-08-20T18:01:35Z</time>
      </trkpt>
      <trkpt lat="-28.42221" lon="-65.72337">
        <ele>589.3</ele>
        <time>2018-08-20T18:01:37Z</time>
      </trkpt>
      <trkpt lat="-28.42233" lon="-65.723405">
        <ele>588.9</ele>
        <time>2018-08-20T18:01:39Z</time>
      </trkpt>
      <trkpt lat="-28.42246" lon="-65.72343166666667">
        <ele>588.1</ele>
        <time>2018-08-20T18:01:41Z</time>
      </trkpt>
      <trkpt lat="-28.422581666666666" lon="-65.723465">
        <ele>586.8</ele>
        <time>2018-08-20T18:01:43Z</time>
      </trkpt>
      <trkpt lat="-28.42271" lon="-65.72349">
        <ele>585.5</ele>
        <time>2018-08-20T18:01:45Z</time>
      </trkpt>
      <trkpt lat="-28.42284" lon="-65.72351">
        <ele>583.4</ele>
        <time>2018-08-20T18:01:47Z</time>
      </trkpt>
      <trkpt lat="-28.422961666666666" lon="-65.72353">
        <ele>581.2</ele>
        <time>2018-08-20T18:01:49Z</time>
      </trkpt>
      <trkpt lat="-28.4231" lon="-65.72354666666666">
        <ele>580.1</ele>
        <time>2018-08-20T18:01:51Z</time>
      </trkpt>
      <trkpt lat="-28.423205" lon="-65.72355666666667">
        <ele>580.2</ele>
        <time>2018-08-20T18:01:52Z</time>
      </trkpt>
      <trkpt lat="-28.423325" lon="-65.72356333333333">
        <ele>581.6</ele>
        <time>2018-08-20T18:01:55Z</time>
      </trkpt>
      <trkpt lat="-28.423455" lon="-65.723575">
        <ele>582.7</ele>
        <time>2018-08-20T18:01:57Z</time>
      </trkpt>
      <trkpt lat="-28.423585" lon="-65.72359">
        <ele>583.5</ele>
        <time>2018-08-20T18:01:59Z</time>
      </trkpt>
      <trkpt lat="-28.42371" lon="-65.723605">
        <ele>584.1</ele>
        <time>2018-08-20T18:02:01Z</time>
      </trkpt>
      <trkpt lat="-28.423835" lon="-65.72362">
        <ele>584.7</ele>
        <time>2018-08-20T18:02:02Z</time>
      </trkpt>
      <trkpt lat="-28.423965" lon="-65.72363">
        <ele>585.4</ele>
        <time>2018-08-20T18:02:05Z</time>
      </trkpt>
      <trkpt lat="-28.42409" lon="-65.72364">
        <ele>585.8</ele>
        <time>2018-08-20T18:02:07Z</time>
      </trkpt>
      <trkpt lat="-28.42421" lon="-65.72365166666667">
        <ele>586.0</ele>
        <time>2018-08-20T18:02:09Z</time>
      </trkpt>
      <trkpt lat="-28.424325" lon="-65.72367">
        <ele>585.7</ele>
        <time>2018-08-20T18:02:11Z</time>
      </trkpt>
      <trkpt lat="-28.42444" lon="-65.723685">
        <ele>585.8</ele>
        <time>2018-08-20T18:02:13Z</time>
      </trkpt>
      <trkpt lat="-28.42455" lon="-65.723695">
        <ele>585.5</ele>
        <time>2018-08-20T18:02:15Z</time>
      </trkpt>
      <trkpt lat="-28.42466" lon="-65.72370666666667">
        <ele>585.2</ele>
        <time>2018-08-20T18:02:17Z</time>
      </trkpt>
      <trkpt lat="-28.424775" lon="-65.723725">
        <ele>585.0</ele>
        <time>2018-08-20T18:02:19Z</time>
      </trkpt>
      <trkpt lat="-28.424885" lon="-65.723735">
        <ele>585.0</ele>
        <time>2018-08-20T18:02:21Z</time>
      </trkpt>
      <trkpt lat="-28.424995" lon="-65.723745">
        <ele>585.4</ele>
        <time>2018-08-20T18:02:22Z</time>
      </trkpt>
      <trkpt lat="-28.425105" lon="-65.72376">
        <ele>585.1</ele>
        <time>2018-08-20T18:02:25Z</time>
      </trkpt>
      <trkpt lat="-28.42521" lon="-65.723775">
        <ele>583.6</ele>
        <time>2018-08-20T18:02:27Z</time>
      </trkpt>
      <trkpt lat="-28.42531333333333" lon="-65.72378166666667">
        <ele>581.5</ele>
        <time>2018-08-20T18:02:29Z</time>
      </trkpt>
      <trkpt lat="-28.425435" lon="-65.72378666666667">
        <ele>579.0</ele>
        <time>2018-08-20T18:02:31Z</time>
      </trkpt>
      <trkpt lat="-28.42556" lon="-65.72378666666667">
        <ele>576.4</ele>
        <time>2018-08-20T18:02:33Z</time>
      </trkpt>
      <trkpt lat="-28.425675" lon="-65.72378833333333">
        <ele>573.7</ele>
        <time>2018-08-20T18:02:35Z</time>
      </trkpt>
      <trkpt lat="-28.425795" lon="-65.7238">
        <ele>571.1</ele>
        <time>2018-08-20T18:02:37Z</time>
      </trkpt>
      <trkpt lat="-28.425915" lon="-65.72381">
        <ele>568.3</ele>
        <time>2018-08-20T18:02:39Z</time>
      </trkpt>
      <trkpt lat="-28.42601" lon="-65.723815">
        <ele>567.4</ele>
        <time>2018-08-20T18:02:41Z</time>
      </trkpt>
      <trkpt lat="-28.426118333333335" lon="-65.72383">
        <ele>567.7</ele>
        <time>2018-08-20T18:02:42Z</time>
      </trkpt>
      <trkpt lat="-28.426185" lon="-65.723865">
        <ele>568.0</ele>
        <time>2018-08-20T18:02:45Z</time>
      </trkpt>
      <trkpt lat="-28.426308333333335" lon="-65.723875">
        <ele>568.1</ele>
        <time>2018-08-20T18:02:47Z</time>
      </trkpt>
      <trkpt lat="-28.426385" lon="-65.723905">
        <ele>570.2</ele>
        <time>2018-08-20T18:02:49Z</time>
      </trkpt>
      <trkpt lat="-28.426485" lon="-65.723925">
        <ele>572.0</ele>
        <time>2018-08-20T18:02:51Z</time>
      </trkpt>
      <trkpt lat="-28.42659" lon="-65.72394">
        <ele>573.2</ele>
        <time>2018-08-20T18:02:52Z</time>
      </trkpt>
      <trkpt lat="-28.426705" lon="-65.72396">
        <ele>575.7</ele>
        <time>2018-08-20T18:02:55Z</time>
      </trkpt>
      <trkpt lat="-28.42681" lon="-65.72396166666667">
        <ele>577.9</ele>
        <time>2018-08-20T18:02:57Z</time>
      </trkpt>
      <trkpt lat="-28.426925" lon="-65.72397">
        <ele>580.8</ele>
        <time>2018-08-20T18:02:59Z</time>
      </trkpt>
      <trkpt lat="-28.427045" lon="-65.723985">
        <ele>583.8</ele>
        <time>2018-08-20T18:03:01Z</time>
      </trkpt>
      <trkpt lat="-28.42716" lon="-65.724">
        <ele>586.0</ele>
        <time>2018-08-20T18:03:02Z</time>
      </trkpt>
      <trkpt lat="-28.427275" lon="-65.72401">
        <ele>586.8</ele>
        <time>2018-08-20T18:03:05Z</time>
      </trkpt>
      <trkpt lat="-28.427385" lon="-65.724025">
        <ele>585.3</ele>
        <time>2018-08-20T18:03:07Z</time>
      </trkpt>
      <trkpt lat="-28.427505" lon="-65.724035">
        <ele>584.6</ele>
        <time>2018-08-20T18:03:09Z</time>
      </trkpt>
      <trkpt lat="-28.42762" lon="-65.724045">
        <ele>583.7</ele>
        <time>2018-08-20T18:03:11Z</time>
      </trkpt>
      <trkpt lat="-28.42774" lon="-65.72406166666667">
        <ele>580.7</ele>
        <time>2018-08-20T18:03:12Z</time>
      </trkpt>
      <trkpt lat="-28.42788" lon="-65.72408">
        <ele>576.6</ele>
        <time>2018-08-20T18:03:15Z</time>
      </trkpt>
      <trkpt lat="-28.427955" lon="-65.72409333333333">
        <ele>573.7</ele>
        <time>2018-08-20T18:03:16Z</time>
      </trkpt>
      <trkpt lat="-28.42803" lon="-65.72410333333333">
        <ele>570.4</ele>
        <time>2018-08-20T18:03:17Z</time>
      </trkpt>
      <trkpt lat="-28.428105" lon="-65.72412">
        <ele>567.3</ele>
        <time>2018-08-20T18:03:18Z</time>
      </trkpt>
      <trkpt lat="-28.428185" lon="-65.72413">
        <ele>564.2</ele>
        <time>2018-08-20T18:03:19Z</time>
      </trkpt>
      <trkpt lat="-28.428265" lon="-65.72414">
        <ele>561.3</ele>
        <time>2018-08-20T18:03:20Z</time>
      </trkpt>
      <trkpt lat="-28.428345" lon="-65.72415">
        <ele>558.9</ele>
        <time>2018-08-20T18:03:21Z</time>
      </trkpt>
      <trkpt lat="-28.428415" lon="-65.724165">
        <ele>556.6</ele>
        <time>2018-08-20T18:03:22Z</time>
      </trkpt>
      <trkpt lat="-28.4285" lon="-65.72418">
        <ele>554.6</ele>
        <time>2018-08-20T18:03:23Z</time>
      </trkpt>
      <trkpt lat="-28.42859" lon="-65.724185">
        <ele>552.6</ele>
        <time>2018-08-20T18:03:23Z</time>
      </trkpt>
      <trkpt lat="-28.428675" lon="-65.724195">
        <ele>550.9</ele>
        <time>2018-08-20T18:03:25Z</time>
      </trkpt>
      <trkpt lat="-28.42876" lon="-65.724215">
        <ele>549.7</ele>
        <time>2018-08-20T18:03:26Z</time>
      </trkpt>
      <trkpt lat="-28.428845" lon="-65.724225">
        <ele>548.8</ele>
        <time>2018-08-20T18:03:27Z</time>
      </trkpt>
      <trkpt lat="-28.42894" lon="-65.72423666666667">
        <ele>547.9</ele>
        <time>2018-08-20T18:03:28Z</time>
      </trkpt>
      <trkpt lat="-28.429026666666665" lon="-65.72425">
        <ele>547.2</ele>
        <time>2018-08-20T18:03:29Z</time>
      </trkpt>
      <trkpt lat="-28.429125" lon="-65.724265">
        <ele>546.6</ele>
        <time>2018-08-20T18:03:30Z</time>
      </trkpt>
      <trkpt lat="-28.429225" lon="-65.72427166666667">
        <ele>545.9</ele>
        <time>2018-08-20T18:03:31Z</time>
      </trkpt>
      <trkpt lat="-28.42932" lon="-65.72429">
        <ele>545.4</ele>
        <time>2018-08-20T18:03:32Z</time>
      </trkpt>
      <trkpt lat="-28.429415" lon="-65.7243">
        <ele>544.7</ele>
        <time>2018-08-20T18:03:33Z</time>
      </trkpt>
      <trkpt lat="-28.42952" lon="-65.724305">
        <ele>544.0</ele>
        <time>2018-08-20T18:03:34Z</time>
      </trkpt>
      <trkpt lat="-28.42962" lon="-65.72432">
        <ele>543.3</ele>
        <time>2018-08-20T18:03:35Z</time>
      </trkpt>
      <trkpt lat="-28.429713333333332" lon="-65.724335">
        <ele>542.6</ele>
        <time>2018-08-20T18:03:36Z</time>
      </trkpt>
      <trkpt lat="-28.429815" lon="-65.724355">
        <ele>541.9</ele>
        <time>2018-08-20T18:03:37Z</time>
      </trkpt>
      <trkpt lat="-28.4299" lon="-65.72436833333333">
        <ele>541.4</ele>
        <time>2018-08-20T18:03:38Z</time>
      </trkpt>
      <trkpt lat="-28.42999" lon="-65.72439">
        <ele>541.6</ele>
        <time>2018-08-20T18:03:39Z</time>
      </trkpt>
      <trkpt lat="-28.430075" lon="-65.72441">
        <ele>542.0</ele>
        <time>2018-08-20T18:03:40Z</time>
      </trkpt>
      <trkpt lat="-28.43016" lon="-65.72444">
        <ele>542.1</ele>
        <time>2018-08-20T18:03:41Z</time>
      </trkpt>
      <trkpt lat="-28.430245" lon="-65.72445833333333">
        <ele>542.6</ele>
        <time>2018-08-20T18:03:42Z</time>
      </trkpt>
      <trkpt lat="-28.43033" lon="-65.72449">
        <ele>543.4</ele>
        <time>2018-08-20T18:03:43Z</time>
      </trkpt>
      <trkpt lat="-28.430405" lon="-65.724515">
        <ele>544.1</ele>
        <time>2018-08-20T18:03:44Z</time>
      </trkpt>
      <trkpt lat="-28.43048" lon="-65.72453666666667">
        <ele>544.7</ele>
        <time>2018-08-20T18:03:45Z</time>
      </trkpt>
      <trkpt lat="-28.43055" lon="-65.72457">
        <ele>545.1</ele>
        <time>2018-08-20T18:03:46Z</time>
      </trkpt>
      <trkpt lat="-28.430616666666666" lon="-65.724605">
        <ele>545.1</ele>
        <time>2018-08-20T18:03:47Z</time>
      </trkpt>
      <trkpt lat="-28.430695" lon="-65.724635">
        <ele>544.9</ele>
        <time>2018-08-20T18:03:48Z</time>
      </trkpt>
      <trkpt lat="-28.430768333333333" lon="-65.724675">
        <ele>544.6</ele>
        <time>2018-08-20T18:03:49Z</time>
      </trkpt>
      <trkpt lat="-28.43085" lon="-65.72471">
        <ele>544.6</ele>
        <time>2018-08-20T18:03:50Z</time>
      </trkpt>
      <trkpt lat="-28.430915" lon="-65.72475">
        <ele>544.3</ele>
        <time>2018-08-20T18:03:51Z</time>
      </trkpt>
      <trkpt lat="-28.430985" lon="-65.724785">
        <ele>544.1</ele>
        <time>2018-08-20T18:03:52Z</time>
      </trkpt>
      <trkpt lat="-28.43105" lon="-65.724815">
        <ele>544.4</ele>
        <time>2018-08-20T18:03:53Z</time>
      </trkpt>
      <trkpt lat="-28.431175" lon="-65.72489">
        <ele>546.0</ele>
        <time>2018-08-20T18:03:55Z</time>
      </trkpt>
      <trkpt lat="-28.4313" lon="-65.724965">
        <ele>546.7</ele>
        <time>2018-08-20T18:03:57Z</time>
      </trkpt>
      <trkpt lat="-28.43142" lon="-65.725055">
        <ele>545.9</ele>
        <time>2018-08-20T18:03:59Z</time>
      </trkpt>
      <trkpt lat="-28.431526666666667" lon="-65.72513000000001">
        <ele>544.0</ele>
        <time>2018-08-20T18:04:01Z</time>
      </trkpt>
      <trkpt lat="-28.431625" lon="-65.725205">
        <ele>541.8</ele>
        <time>2018-08-20T18:04:03Z</time>
      </trkpt>
      <trkpt lat="-28.4317" lon="-65.72526">
        <ele>540.3</ele>
        <time>2018-08-20T18:04:05Z</time>
      </trkpt>
      <trkpt lat="-28.43179" lon="-65.72534">
        <ele>539.5</ele>
        <time>2018-08-20T18:04:07Z</time>
      </trkpt>
      <trkpt lat="-28.43188" lon="-65.725425">
        <ele>538.9</ele>
        <time>2018-08-20T18:04:09Z</time>
      </trkpt>
      <trkpt lat="-28.431955" lon="-65.72549">
        <ele>537.7</ele>
        <time>2018-08-20T18:04:11Z</time>
      </trkpt>
      <trkpt lat="-28.432025" lon="-65.725565">
        <ele>536.2</ele>
        <time>2018-08-20T18:04:13Z</time>
      </trkpt>
      <trkpt lat="-28.432105" lon="-65.725655">
        <ele>534.6</ele>
        <time>2018-08-20T18:04:15Z</time>
      </trkpt>
      <trkpt lat="-28.432185" lon="-65.72574">
        <ele>533.3</ele>
        <time>2018-08-20T18:04:17Z</time>
      </trkpt>
      <trkpt lat="-28.432265" lon="-65.72582">
        <ele>532.1</ele>
        <time>2018-08-20T18:04:19Z</time>
      </trkpt>
      <trkpt lat="-28.43235" lon="-65.72589833333333">
        <ele>531.3</ele>
        <time>2018-08-20T18:04:21Z</time>
      </trkpt>
      <trkpt lat="-28.432425" lon="-65.72598">
        <ele>531.3</ele>
        <time>2018-08-20T18:04:23Z</time>
      </trkpt>
      <trkpt lat="-28.43251" lon="-65.72607833333333">
        <ele>531.4</ele>
        <time>2018-08-20T18:04:25Z</time>
      </trkpt>
      <trkpt lat="-28.432586666666666" lon="-65.726185">
        <ele>531.6</ele>
        <time>2018-08-20T18:04:27Z</time>
      </trkpt>
      <trkpt lat="-28.432675" lon="-65.726275">
        <ele>531.3</ele>
        <time>2018-08-20T18:04:29Z</time>
      </trkpt>
      <trkpt lat="-28.43276" lon="-65.72637">
        <ele>530.7</ele>
        <time>2018-08-20T18:04:31Z</time>
      </trkpt>
      <trkpt lat="-28.432835" lon="-65.726445">
        <ele>531.0</ele>
        <time>2018-08-20T18:04:33Z</time>
      </trkpt>
      <trkpt lat="-28.43292" lon="-65.726545">
        <ele>531.3</ele>
        <time>2018-08-20T18:04:35Z</time>
      </trkpt>
      <trkpt lat="-28.433001666666666" lon="-65.72663">
        <ele>531.5</ele>
        <time>2018-08-20T18:04:37Z</time>
      </trkpt>
      <trkpt lat="-28.43309" lon="-65.72672">
        <ele>531.2</ele>
        <time>2018-08-20T18:04:39Z</time>
      </trkpt>
      <trkpt lat="-28.433185" lon="-65.72681">
        <ele>530.1</ele>
        <time>2018-08-20T18:04:41Z</time>
      </trkpt>
      <trkpt lat="-28.43327" lon="-65.726905">
        <ele>530.2</ele>
        <time>2018-08-20T18:04:43Z</time>
      </trkpt>
      <trkpt lat="-28.433341666666667" lon="-65.726995">
        <ele>531.3</ele>
        <time>2018-08-20T18:04:45Z</time>
      </trkpt>
      <trkpt lat="-28.433425" lon="-65.727085">
        <ele>532.6</ele>
        <time>2018-08-20T18:04:47Z</time>
      </trkpt>
      <trkpt lat="-28.43353" lon="-65.72718166666667">
        <ele>533.1</ele>
        <time>2018-08-20T18:04:49Z</time>
      </trkpt>
      <trkpt lat="-28.43358" lon="-65.727245">
        <ele>533.2</ele>
        <time>2018-08-20T18:04:50Z</time>
      </trkpt>
      <trkpt lat="-28.43368" lon="-65.727355">
        <ele>533.5</ele>
        <time>2018-08-20T18:04:52Z</time>
      </trkpt>
      <trkpt lat="-28.43377" lon="-65.727455">
        <ele>533.4</ele>
        <time>2018-08-20T18:04:54Z</time>
      </trkpt>
      <trkpt lat="-28.433875" lon="-65.72757">
        <ele>532.1</ele>
        <time>2018-08-20T18:04:56Z</time>
      </trkpt>
      <trkpt lat="-28.43398" lon="-65.72768166666667">
        <ele>530.7</ele>
        <time>2018-08-20T18:04:58Z</time>
      </trkpt>
      <trkpt lat="-28.43403" lon="-65.72774">
        <ele>530.2</ele>
        <time>2018-08-20T18:04:59Z</time>
      </trkpt>
      <trkpt lat="-28.434085" lon="-65.727795">
        <ele>530.0</ele>
        <time>2018-08-20T18:05:00Z</time>
      </trkpt>
      <trkpt lat="-28.43414" lon="-65.727855">
        <ele>529.9</ele>
        <time>2018-08-20T18:05:01Z</time>
      </trkpt>
      <trkpt lat="-28.434195" lon="-65.72792">
        <ele>529.8</ele>
        <time>2018-08-20T18:05:02Z</time>
      </trkpt>
      <trkpt lat="-28.43425" lon="-65.72798">
        <ele>529.7</ele>
        <time>2018-08-20T18:05:03Z</time>
      </trkpt>
      <trkpt lat="-28.434355" lon="-65.72808">
        <ele>529.9</ele>
        <time>2018-08-20T18:05:05Z</time>
      </trkpt>
      <trkpt lat="-28.434445" lon="-65.72819">
        <ele>530.5</ele>
        <time>2018-08-20T18:05:07Z</time>
      </trkpt>
      <trkpt lat="-28.43455" lon="-65.728305">
        <ele>531.2</ele>
        <time>2018-08-20T18:05:09Z</time>
      </trkpt>
      <trkpt lat="-28.43465" lon="-65.728415">
        <ele>531.2</ele>
        <time>2018-08-20T18:05:11Z</time>
      </trkpt>
      <trkpt lat="-28.434758333333335" lon="-65.72852">
        <ele>530.9</ele>
        <time>2018-08-20T18:05:13Z</time>
      </trkpt>
      <trkpt lat="-28.43487" lon="-65.72861">
        <ele>529.4</ele>
        <time>2018-08-20T18:05:15Z</time>
      </trkpt>
      <trkpt lat="-28.43498" lon="-65.72870166666667">
        <ele>527.4</ele>
        <time>2018-08-20T18:05:17Z</time>
      </trkpt>
      <trkpt lat="-28.435085" lon="-65.7288">
        <ele>525.4</ele>
        <time>2018-08-20T18:05:19Z</time>
      </trkpt>
      <trkpt lat="-28.435185" lon="-65.72888">
        <ele>523.9</ele>
        <time>2018-08-20T18:05:21Z</time>
      </trkpt>
      <trkpt lat="-28.43529" lon="-65.72896">
        <ele>523.2</ele>
        <time>2018-08-20T18:05:23Z</time>
      </trkpt>
      <trkpt lat="-28.43539" lon="-65.72903333333333">
        <ele>523.7</ele>
        <time>2018-08-20T18:05:25Z</time>
      </trkpt>
      <trkpt lat="-28.435485" lon="-65.72911333333333">
        <ele>524.8</ele>
        <time>2018-08-20T18:05:27Z</time>
      </trkpt>
      <trkpt lat="-28.435585" lon="-65.7292">
        <ele>524.9</ele>
        <time>2018-08-20T18:05:29Z</time>
      </trkpt>
      <trkpt lat="-28.435685" lon="-65.729275">
        <ele>524.8</ele>
        <time>2018-08-20T18:05:31Z</time>
      </trkpt>
      <trkpt lat="-28.435785" lon="-65.72933833333333">
        <ele>525.1</ele>
        <time>2018-08-20T18:05:33Z</time>
      </trkpt>
      <trkpt lat="-28.43588" lon="-65.729415">
        <ele>524.6</ele>
        <time>2018-08-20T18:05:35Z</time>
      </trkpt>
      <trkpt lat="-28.435985" lon="-65.72947166666667">
        <ele>524.8</ele>
        <time>2018-08-20T18:05:37Z</time>
      </trkpt>
      <trkpt lat="-28.43607" lon="-65.72952333333333">
        <ele>524.3</ele>
        <time>2018-08-20T18:05:39Z</time>
      </trkpt>
      <trkpt lat="-28.436145" lon="-65.72958">
        <ele>524.2</ele>
        <time>2018-08-20T18:05:41Z</time>
      </trkpt>
      <trkpt lat="-28.43624" lon="-65.72965166666667">
        <ele>523.2</ele>
        <time>2018-08-20T18:05:43Z</time>
      </trkpt>
      <trkpt lat="-28.436325" lon="-65.729725">
        <ele>523.5</ele>
        <time>2018-08-20T18:05:45Z</time>
      </trkpt>
      <trkpt lat="-28.4364" lon="-65.729785">
        <ele>523.5</ele>
        <time>2018-08-20T18:05:47Z</time>
      </trkpt>
      <trkpt lat="-28.436475" lon="-65.72983833333333">
        <ele>523.4</ele>
        <time>2018-08-20T18:05:49Z</time>
      </trkpt>
      <trkpt lat="-28.436555" lon="-65.72991">
        <ele>523.6</ele>
        <time>2018-08-20T18:05:52Z</time>
      </trkpt>
      <trkpt lat="-28.43663" lon="-65.72996333333333">
        <ele>523.9</ele>
        <time>2018-08-20T18:05:55Z</time>
      </trkpt>
      <trkpt lat="-28.43671" lon="-65.73003">
        <ele>524.1</ele>
        <time>2018-08-20T18:05:58Z</time>
      </trkpt>
      <trkpt lat="-28.436785" lon="-65.730085">
        <ele>524.3</ele>
        <time>2018-08-20T18:06:01Z</time>
      </trkpt>
      <trkpt lat="-28.436865" lon="-65.73013666666667">
        <ele>524.6</ele>
        <time>2018-08-20T18:06:04Z</time>
      </trkpt>
      <trkpt lat="-28.43695" lon="-65.73021">
        <ele>524.7</ele>
        <time>2018-08-20T18:06:07Z</time>
      </trkpt>
      <trkpt lat="-28.437035" lon="-65.730275">
        <ele>524.7</ele>
        <time>2018-08-20T18:06:10Z</time>
      </trkpt>
      <trkpt lat="-28.437095" lon="-65.73032">
        <ele>524.8</ele>
        <time>2018-08-20T18:06:13Z</time>
      </trkpt>
      <trkpt lat="-28.437165" lon="-65.73037166666667">
        <ele>525.0</ele>
        <time>2018-08-20T18:06:16Z</time>
      </trkpt>
      <trkpt lat="-28.437235" lon="-65.730425">
        <ele>525.2</ele>
        <time>2018-08-20T18:06:19Z</time>
      </trkpt>
      <trkpt lat="-28.43732" lon="-65.730485">
        <ele>525.3</ele>
        <time>2018-08-20T18:06:22Z</time>
      </trkpt>
      <trkpt lat="-28.437395" lon="-65.730545">
        <ele>525.4</ele>
        <time>2018-08-20T18:06:25Z</time>
      </trkpt>
      <trkpt lat="-28.43747" lon="-65.73062">
        <ele>525.6</ele>
        <time>2018-08-20T18:06:28Z</time>
      </trkpt>
      <trkpt lat="-28.437545" lon="-65.73068333333333">
        <ele>525.8</ele>
        <time>2018-08-20T18:06:32Z</time>
      </trkpt>
      <trkpt lat="-28.437655" lon="-65.73075">
        <ele>526.1</ele>
        <time>2018-08-20T18:06:37Z</time>
      </trkpt>
      <trkpt lat="-28.437735" lon="-65.7308">
        <ele>527.1</ele>
        <time>2018-08-20T18:06:41Z</time>
      </trkpt>
      <trkpt lat="-28.437815" lon="-65.730855">
        <ele>528.0</ele>
        <time>2018-08-20T18:06:45Z</time>
      </trkpt>
      <trkpt lat="-28.437875" lon="-65.730905">
        <ele>528.6</ele>
        <time>2018-08-20T18:06:47Z</time>
      </trkpt>
      <trkpt lat="-28.437945" lon="-65.730975">
        <ele>529.0</ele>
        <time>2018-08-20T18:06:51Z</time>
      </trkpt>
      <trkpt lat="-28.43802" lon="-65.731035">
        <ele>529.2</ele>
        <time>2018-08-20T18:06:54Z</time>
      </trkpt>
      <trkpt lat="-28.43809" lon="-65.73108">
        <ele>529.6</ele>
        <time>2018-08-20T18:06:57Z</time>
      </trkpt>
      <trkpt lat="-28.43816" lon="-65.73112">
        <ele>530.0</ele>
        <time>2018-08-20T18:07:00Z</time>
      </trkpt>
      <trkpt lat="-28.43822" lon="-65.73117333333333">
        <ele>530.4</ele>
        <time>2018-08-20T18:07:03Z</time>
      </trkpt>
      <trkpt lat="-28.438305" lon="-65.731245">
        <ele>530.4</ele>
        <time>2018-08-20T18:07:06Z</time>
      </trkpt>
      <trkpt lat="-28.43836" lon="-65.731295">
        <ele>529.9</ele>
        <time>2018-08-20T18:07:08Z</time>
      </trkpt>
      <trkpt lat="-28.43843" lon="-65.73135833333333">
        <ele>529.7</ele>
        <time>2018-08-20T18:07:10Z</time>
      </trkpt>
      <trkpt lat="-28.438495" lon="-65.731415">
        <ele>529.5</ele>
        <time>2018-08-20T18:07:12Z</time>
      </trkpt>
      <trkpt lat="-28.43856" lon="-65.731455">
        <ele>528.7</ele>
        <time>2018-08-20T18:07:14Z</time>
      </trkpt>
      <trkpt lat="-28.438611666666667" lon="-65.73151">
        <ele>528.5</ele>
        <time>2018-08-20T18:07:16Z</time>
      </trkpt>
      <trkpt lat="-28.438685" lon="-65.73156">
        <ele>528.3</ele>
        <time>2018-08-20T18:07:18Z</time>
      </trkpt>
      <trkpt lat="-28.438745" lon="-65.73161">
        <ele>527.5</ele>
        <time>2018-08-20T18:07:20Z</time>
      </trkpt>
      <trkpt lat="-28.438835" lon="-65.73168">
        <ele>527.3</ele>
        <time>2018-08-20T18:07:23Z</time>
      </trkpt>
      <trkpt lat="-28.43891" lon="-65.73173">
        <ele>526.8</ele>
        <time>2018-08-20T18:07:26Z</time>
      </trkpt>
      <trkpt lat="-28.438985" lon="-65.731755">
        <ele>528.8</ele>
        <time>2018-08-20T18:07:32Z</time>
      </trkpt>
      <trkpt lat="-28.439065" lon="-65.73181">
        <ele>531.1</ele>
        <time>2018-08-20T18:07:36Z</time>
      </trkpt>
      <trkpt lat="-28.439145" lon="-65.731865">
        <ele>532.8</ele>
        <time>2018-08-20T18:07:39Z</time>
      </trkpt>
      <trkpt lat="-28.439215" lon="-65.731915">
        <ele>534.6</ele>
        <time>2018-08-20T18:07:42Z</time>
      </trkpt>
      <trkpt lat="-28.43929" lon="-65.73198666666667">
        <ele>538.0</ele>
        <time>2018-08-20T18:07:49Z</time>
      </trkpt>
      <trkpt lat="-28.439365" lon="-65.732045">
        <ele>539.2</ele>
        <time>2018-08-20T18:07:52Z</time>
      </trkpt>
      <trkpt lat="-28.43944" lon="-65.7321">
        <ele>540.3</ele>
        <time>2018-08-20T18:07:55Z</time>
      </trkpt>
      <trkpt lat="-28.43951" lon="-65.73214">
        <ele>540.9</ele>
        <time>2018-08-20T18:07:57Z</time>
      </trkpt>
      <trkpt lat="-28.439595" lon="-65.732185">
        <ele>541.6</ele>
        <time>2018-08-20T18:07:59Z</time>
      </trkpt>
      <trkpt lat="-28.43968" lon="-65.732225">
        <ele>542.7</ele>
        <time>2018-08-20T18:08:02Z</time>
      </trkpt>
      <trkpt lat="-28.439745" lon="-65.73229">
        <ele>544.1</ele>
        <time>2018-08-20T18:08:06Z</time>
      </trkpt>
      <trkpt lat="-28.4398" lon="-65.73234166666667">
        <ele>545.1</ele>
        <time>2018-08-20T18:08:10Z</time>
      </trkpt>
      <trkpt lat="-28.43985" lon="-65.732405">
        <ele>545.8</ele>
        <time>2018-08-20T18:08:12Z</time>
      </trkpt>
      <trkpt lat="-28.43987" lon="-65.73244">
        <ele>548.2</ele>
        <time>2018-08-20T18:08:19Z</time>
      </trkpt>
      <trkpt lat="-28.43987" lon="-65.73244">
        <ele>548.5</ele>
        <time>2018-08-20T18:08:20Z</time>
      </trkpt>
      <trkpt lat="-28.43994" lon="-65.732495">
        <ele>550.1</ele>
        <time>2018-08-20T18:08:26Z</time>
      </trkpt>
      <trkpt lat="-28.440005" lon="-65.732545">
        <ele>551.5</ele>
        <time>2018-08-20T18:08:31Z</time>
      </trkpt>
      <trkpt lat="-28.44001" lon="-65.732545">
        <ele>552.0</ele>
        <time>2018-08-20T18:08:38Z</time>
      </trkpt>
      <trkpt lat="-28.44001" lon="-65.732535">
        <ele>556.0</ele>
        <time>2018-08-20T18:10:38Z</time>
      </trkpt>
      <trkpt lat="-28.44001" lon="-65.732525">
        <ele>556.1</ele>
        <time>2018-08-20T18:10:40Z</time>
      </trkpt>
      <trkpt lat="-28.440016666666665" lon="-65.73252666666667">
        <ele>556.6</ele>
        <time>2018-08-20T18:11:12Z</time>
      </trkpt>
      <trkpt lat="-28.440016666666665" lon="-65.732535">
        <ele>556.6</ele>
        <time>2018-08-20T18:11:13Z</time>
      </trkpt>
      <trkpt lat="-28.44001" lon="-65.732535">
        <ele>557.4</ele>
        <time>2018-08-20T18:11:32Z</time>
      </trkpt>
      <trkpt lat="-28.440005" lon="-65.732535">
        <ele>557.4</ele>
        <time>2018-08-20T18:11:33Z</time>
      </trkpt>
      <trkpt lat="-28.44" lon="-65.732515">
        <ele>557.6</ele>
        <time>2018-08-20T18:11:46Z</time>
      </trkpt>
      <trkpt lat="-28.44" lon="-65.732515">
        <ele>557.6</ele>
        <time>2018-08-20T18:11:47Z</time>
      </trkpt>
      <trkpt lat="-28.440035" lon="-65.732525">
        <ele>557.8</ele>
        <time>2018-08-20T18:11:59Z</time>
      </trkpt>
      <trkpt lat="-28.440035" lon="-65.732525">
        <ele>557.8</ele>
        <time>2018-08-20T18:12:00Z</time>
      </trkpt>
      <trkpt lat="-28.44004" lon="-65.73254">
        <ele>558.7</ele>
        <time>2018-08-20T18:12:19Z</time>
      </trkpt>
      <trkpt lat="-28.44004" lon="-65.732545">
        <ele>558.8</ele>
        <time>2018-08-20T18:12:20Z</time>
      </trkpt>
      <trkpt lat="-28.440105" lon="-65.7326">
        <ele>563.7</ele>
        <time>2018-08-20T18:12:43Z</time>
      </trkpt>
      <trkpt lat="-28.440175" lon="-65.732665">
        <ele>564.2</ele>
        <time>2018-08-20T18:12:48Z</time>
      </trkpt>
      <trkpt lat="-28.44024" lon="-65.732715">
        <ele>563.6</ele>
        <time>2018-08-20T18:12:52Z</time>
      </trkpt>
      <trkpt lat="-28.44031" lon="-65.732765">
        <ele>563.0</ele>
        <time>2018-08-20T18:12:56Z</time>
      </trkpt>
      <trkpt lat="-28.44037" lon="-65.73282">
        <ele>562.6</ele>
        <time>2018-08-20T18:12:59Z</time>
      </trkpt>
      <trkpt lat="-28.44044" lon="-65.732865">
        <ele>562.3</ele>
        <time>2018-08-20T18:13:02Z</time>
      </trkpt>
      <trkpt lat="-28.4405" lon="-65.73292000000001">
        <ele>562.1</ele>
        <time>2018-08-20T18:13:05Z</time>
      </trkpt>
      <trkpt lat="-28.44058" lon="-65.73297166666667">
        <ele>561.9</ele>
        <time>2018-08-20T18:13:08Z</time>
      </trkpt>
      <trkpt lat="-28.440656666666666" lon="-65.73304">
        <ele>561.7</ele>
        <time>2018-08-20T18:13:11Z</time>
      </trkpt>
      <trkpt lat="-28.440745" lon="-65.73309166666667">
        <ele>561.4</ele>
        <time>2018-08-20T18:13:14Z</time>
      </trkpt>
      <trkpt lat="-28.44083" lon="-65.73316">
        <ele>561.2</ele>
        <time>2018-08-20T18:13:17Z</time>
      </trkpt>
      <trkpt lat="-28.440891666666666" lon="-65.7332">
        <ele>560.9</ele>
        <time>2018-08-20T18:13:20Z</time>
      </trkpt>
      <trkpt lat="-28.44097" lon="-65.733265">
        <ele>560.8</ele>
        <time>2018-08-20T18:13:24Z</time>
      </trkpt>
      <trkpt lat="-28.44101" lon="-65.73334">
        <ele>560.7</ele>
        <time>2018-08-20T18:13:27Z</time>
      </trkpt>
      <trkpt lat="-28.441065" lon="-65.73340666666667">
        <ele>560.7</ele>
        <time>2018-08-20T18:13:29Z</time>
      </trkpt>
      <trkpt lat="-28.44115" lon="-65.733475">
        <ele>560.7</ele>
        <time>2018-08-20T18:13:32Z</time>
      </trkpt>
      <trkpt lat="-28.441255" lon="-65.7335">
        <ele>560.6</ele>
        <time>2018-08-20T18:13:35Z</time>
      </trkpt>
      <trkpt lat="-28.44134" lon="-65.733525">
        <ele>560.7</ele>
        <time>2018-08-20T18:13:38Z</time>
      </trkpt>
      <trkpt lat="-28.441411666666667" lon="-65.73355166666667">
        <ele>560.9</ele>
        <time>2018-08-20T18:13:41Z</time>
      </trkpt>
      <trkpt lat="-28.441495" lon="-65.733585">
        <ele>561.0</ele>
        <time>2018-08-20T18:13:43Z</time>
      </trkpt>
      <trkpt lat="-28.441585" lon="-65.733625">
        <ele>561.1</ele>
        <time>2018-08-20T18:13:46Z</time>
      </trkpt>
      <trkpt lat="-28.441675" lon="-65.73366">
        <ele>561.2</ele>
        <time>2018-08-20T18:13:49Z</time>
      </trkpt>
      <trkpt lat="-28.441769999999998" lon="-65.73368833333333">
        <ele>561.3</ele>
        <time>2018-08-20T18:13:52Z</time>
      </trkpt>
      <trkpt lat="-28.44184" lon="-65.733715">
        <ele>561.3</ele>
        <time>2018-08-20T18:13:54Z</time>
      </trkpt>
      <trkpt lat="-28.44191" lon="-65.73373333333333">
        <ele>561.3</ele>
        <time>2018-08-20T18:13:56Z</time>
      </trkpt>
      <trkpt lat="-28.44202" lon="-65.733765">
        <ele>561.4</ele>
        <time>2018-08-20T18:13:59Z</time>
      </trkpt>
      <trkpt lat="-28.44209" lon="-65.73379">
        <ele>561.4</ele>
        <time>2018-08-20T18:14:01Z</time>
      </trkpt>
      <trkpt lat="-28.442165" lon="-65.73381">
        <ele>561.4</ele>
        <time>2018-08-20T18:14:03Z</time>
      </trkpt>
      <trkpt lat="-28.442265" lon="-65.73384">
        <ele>561.5</ele>
        <time>2018-08-20T18:14:06Z</time>
      </trkpt>
      <trkpt lat="-28.44236" lon="-65.733855">
        <ele>561.6</ele>
        <time>2018-08-20T18:14:09Z</time>
      </trkpt>
      <trkpt lat="-28.442436666666666" lon="-65.733875">
        <ele>561.5</ele>
        <time>2018-08-20T18:14:11Z</time>
      </trkpt>
      <trkpt lat="-28.442545" lon="-65.733895">
        <ele>561.5</ele>
        <time>2018-08-20T18:14:14Z</time>
      </trkpt>
      <trkpt lat="-28.44265" lon="-65.733925">
        <ele>561.6</ele>
        <time>2018-08-20T18:14:17Z</time>
      </trkpt>
      <trkpt lat="-28.44275" lon="-65.73394833333333">
        <ele>561.7</ele>
        <time>2018-08-20T18:14:20Z</time>
      </trkpt>
      <trkpt lat="-28.442845" lon="-65.733975">
        <ele>561.8</ele>
        <time>2018-08-20T18:14:23Z</time>
      </trkpt>
      <trkpt lat="-28.442945" lon="-65.73399666666667">
        <ele>561.9</ele>
        <time>2018-08-20T18:14:26Z</time>
      </trkpt>
      <trkpt lat="-28.44303" lon="-65.734025">
        <ele>561.9</ele>
        <time>2018-08-20T18:14:28Z</time>
      </trkpt>
      <trkpt lat="-28.44314" lon="-65.73407">
        <ele>561.6</ele>
        <time>2018-08-20T18:14:30Z</time>
      </trkpt>
      <trkpt lat="-28.443206666666665" lon="-65.7341">
        <ele>561.2</ele>
        <time>2018-08-20T18:14:32Z</time>
      </trkpt>
      <trkpt lat="-28.44329" lon="-65.73412">
        <ele>560.5</ele>
        <time>2018-08-20T18:14:35Z</time>
      </trkpt>
      <trkpt lat="-28.443365" lon="-65.734145">
        <ele>559.8</ele>
        <time>2018-08-20T18:14:38Z</time>
      </trkpt>
      <trkpt lat="-28.44345" lon="-65.734155">
        <ele>559.0</ele>
        <time>2018-08-20T18:14:41Z</time>
      </trkpt>
      <trkpt lat="-28.44352" lon="-65.73417666666667">
        <ele>558.2</ele>
        <time>2018-08-20T18:14:44Z</time>
      </trkpt>
      <trkpt lat="-28.44361" lon="-65.734205">
        <ele>557.4</ele>
        <time>2018-08-20T18:14:48Z</time>
      </trkpt>
      <trkpt lat="-28.4437" lon="-65.73423">
        <ele>556.6</ele>
        <time>2018-08-20T18:14:52Z</time>
      </trkpt>
      <trkpt lat="-28.443768333333335" lon="-65.73425">
        <ele>556.0</ele>
        <time>2018-08-20T18:14:55Z</time>
      </trkpt>
      <trkpt lat="-28.443845" lon="-65.73428">
        <ele>555.6</ele>
        <time>2018-08-20T18:14:58Z</time>
      </trkpt>
      <trkpt lat="-28.443915" lon="-65.734305">
        <ele>555.3</ele>
        <time>2018-08-20T18:15:02Z</time>
      </trkpt>
      <trkpt lat="-28.443991666666665" lon="-65.734345">
        <ele>555.3</ele>
        <time>2018-08-20T18:15:06Z</time>
      </trkpt>
      <trkpt lat="-28.44407" lon="-65.73437">
        <ele>555.4</ele>
        <time>2018-08-20T18:15:10Z</time>
      </trkpt>
      <trkpt lat="-28.444155" lon="-65.73439666666667">
        <ele>555.4</ele>
        <time>2018-08-20T18:15:14Z</time>
      </trkpt>
      <trkpt lat="-28.44424" lon="-65.734425">
        <ele>555.3</ele>
        <time>2018-08-20T18:15:18Z</time>
      </trkpt>
      <trkpt lat="-28.444325" lon="-65.73446">
        <ele>555.0</ele>
        <time>2018-08-20T18:15:22Z</time>
      </trkpt>
      <trkpt lat="-28.444405" lon="-65.73448833333333">
        <ele>554.7</ele>
        <time>2018-08-20T18:15:26Z</time>
      </trkpt>
      <trkpt lat="-28.44448" lon="-65.734525">
        <ele>554.5</ele>
        <time>2018-08-20T18:15:30Z</time>
      </trkpt>
      <trkpt lat="-28.444555" lon="-65.734565">
        <ele>554.3</ele>
        <time>2018-08-20T18:15:34Z</time>
      </trkpt>
      <trkpt lat="-28.444625" lon="-65.7346">
        <ele>554.2</ele>
        <time>2018-08-20T18:15:38Z</time>
      </trkpt>
      <trkpt lat="-28.44471" lon="-65.734635">
        <ele>554.0</ele>
        <time>2018-08-20T18:15:42Z</time>
      </trkpt>
      <trkpt lat="-28.444795" lon="-65.734685">
        <ele>553.8</ele>
        <time>2018-08-20T18:15:46Z</time>
      </trkpt>
      <trkpt lat="-28.444866666666666" lon="-65.73473">
        <ele>553.5</ele>
        <time>2018-08-20T18:15:50Z</time>
      </trkpt>
      <trkpt lat="-28.44495" lon="-65.734775">
        <ele>553.3</ele>
        <time>2018-08-20T18:15:54Z</time>
      </trkpt>
      <trkpt lat="-28.44501" lon="-65.73482">
        <ele>553.3</ele>
        <time>2018-08-20T18:15:57Z</time>
      </trkpt>
      <trkpt lat="-28.44509" lon="-65.73486">
        <ele>553.4</ele>
        <time>2018-08-20T18:16:00Z</time>
      </trkpt>
      <trkpt lat="-28.445165" lon="-65.73491">
        <ele>553.5</ele>
        <time>2018-08-20T18:16:03Z</time>
      </trkpt>
      <trkpt lat="-28.44524" lon="-65.734965">
        <ele>553.8</ele>
        <time>2018-08-20T18:16:06Z</time>
      </trkpt>
      <trkpt lat="-28.44531" lon="-65.73501">
        <ele>554.1</ele>
        <time>2018-08-20T18:16:09Z</time>
      </trkpt>
      <trkpt lat="-28.445375" lon="-65.73506">
        <ele>554.4</ele>
        <time>2018-08-20T18:16:12Z</time>
      </trkpt>
      <trkpt lat="-28.445455" lon="-65.735115">
        <ele>554.5</ele>
        <time>2018-08-20T18:16:15Z</time>
      </trkpt>
      <trkpt lat="-28.44554" lon="-65.73518">
        <ele>554.5</ele>
        <time>2018-08-20T18:16:18Z</time>
      </trkpt>
      <trkpt lat="-28.445605" lon="-65.735225">
        <ele>554.6</ele>
        <time>2018-08-20T18:16:20Z</time>
      </trkpt>
      <trkpt lat="-28.44567" lon="-65.735285">
        <ele>554.8</ele>
        <time>2018-08-20T18:16:23Z</time>
      </trkpt>
      <trkpt lat="-28.445745" lon="-65.735355">
        <ele>555.0</ele>
        <time>2018-08-20T18:16:26Z</time>
      </trkpt>
      <trkpt lat="-28.445805" lon="-65.735395">
        <ele>555.4</ele>
        <time>2018-08-20T18:16:28Z</time>
      </trkpt>
      <trkpt lat="-28.445865" lon="-65.73545">
        <ele>555.9</ele>
        <time>2018-08-20T18:16:30Z</time>
      </trkpt>
      <trkpt lat="-28.445926666666665" lon="-65.7355">
        <ele>556.2</ele>
        <time>2018-08-20T18:16:32Z</time>
      </trkpt>
      <trkpt lat="-28.446006666666666" lon="-65.73556166666667">
        <ele>556.2</ele>
        <time>2018-08-20T18:16:34Z</time>
      </trkpt>
      <trkpt lat="-28.446085" lon="-65.73563">
        <ele>555.7</ele>
        <time>2018-08-20T18:16:36Z</time>
      </trkpt>
      <trkpt lat="-28.44616" lon="-65.73568666666667">
        <ele>555.1</ele>
        <time>2018-08-20T18:16:38Z</time>
      </trkpt>
      <trkpt lat="-28.44623" lon="-65.735745">
        <ele>554.5</ele>
        <time>2018-08-20T18:16:40Z</time>
      </trkpt>
      <trkpt lat="-28.4463" lon="-65.735805">
        <ele>554.2</ele>
        <time>2018-08-20T18:16:42Z</time>
      </trkpt>
      <trkpt lat="-28.446375" lon="-65.735865">
        <ele>554.2</ele>
        <time>2018-08-20T18:16:44Z</time>
      </trkpt>
      <trkpt lat="-28.44645" lon="-65.73591666666667">
        <ele>554.5</ele>
        <time>2018-08-20T18:16:46Z</time>
      </trkpt>
      <trkpt lat="-28.446525" lon="-65.735985">
        <ele>554.4</ele>
        <time>2018-08-20T18:16:48Z</time>
      </trkpt>
      <trkpt lat="-28.44662" lon="-65.73605333333333">
        <ele>554.0</ele>
        <time>2018-08-20T18:16:50Z</time>
      </trkpt>
      <trkpt lat="-28.446715" lon="-65.736125">
        <ele>553.4</ele>
        <time>2018-08-20T18:16:52Z</time>
      </trkpt>
      <trkpt lat="-28.44681" lon="-65.73621">
        <ele>552.8</ele>
        <time>2018-08-20T18:16:54Z</time>
      </trkpt>
      <trkpt lat="-28.446905" lon="-65.73628333333333">
        <ele>552.3</ele>
        <time>2018-08-20T18:16:56Z</time>
      </trkpt>
      <trkpt lat="-28.44701" lon="-65.73636666666667">
        <ele>551.9</ele>
        <time>2018-08-20T18:16:58Z</time>
      </trkpt>
      <trkpt lat="-28.447125" lon="-65.73645833333333">
        <ele>552.0</ele>
        <time>2018-08-20T18:17:00Z</time>
      </trkpt>
      <trkpt lat="-28.44725" lon="-65.73655">
        <ele>551.8</ele>
        <time>2018-08-20T18:17:02Z</time>
      </trkpt>
      <trkpt lat="-28.447315" lon="-65.736605">
        <ele>551.6</ele>
        <time>2018-08-20T18:17:03Z</time>
      </trkpt>
      <trkpt lat="-28.44738" lon="-65.736655">
        <ele>551.5</ele>
        <time>2018-08-20T18:17:04Z</time>
      </trkpt>
      <trkpt lat="-28.44745" lon="-65.7367">
        <ele>551.3</ele>
        <time>2018-08-20T18:17:05Z</time>
      </trkpt>
      <trkpt lat="-28.447525" lon="-65.73674666666666">
        <ele>551.2</ele>
        <time>2018-08-20T18:17:06Z</time>
      </trkpt>
      <trkpt lat="-28.447596666666666" lon="-65.7368">
        <ele>551.0</ele>
        <time>2018-08-20T18:17:07Z</time>
      </trkpt>
      <trkpt lat="-28.447675" lon="-65.73685">
        <ele>550.8</ele>
        <time>2018-08-20T18:17:08Z</time>
      </trkpt>
      <trkpt lat="-28.44775" lon="-65.73689666666667">
        <ele>550.5</ele>
        <time>2018-08-20T18:17:09Z</time>
      </trkpt>
      <trkpt lat="-28.447821666666666" lon="-65.736945">
        <ele>550.1</ele>
        <time>2018-08-20T18:17:10Z</time>
      </trkpt>
      <trkpt lat="-28.447896666666665" lon="-65.73699">
        <ele>549.7</ele>
        <time>2018-08-20T18:17:11Z</time>
      </trkpt>
      <trkpt lat="-28.447968333333332" lon="-65.73703">
        <ele>549.4</ele>
        <time>2018-08-20T18:17:12Z</time>
      </trkpt>
      <trkpt lat="-28.448045" lon="-65.737075">
        <ele>549.1</ele>
        <time>2018-08-20T18:17:13Z</time>
      </trkpt>
      <trkpt lat="-28.44812" lon="-65.73711333333333">
        <ele>548.8</ele>
        <time>2018-08-20T18:17:14Z</time>
      </trkpt>
      <trkpt lat="-28.44819" lon="-65.73716">
        <ele>548.5</ele>
        <time>2018-08-20T18:17:15Z</time>
      </trkpt>
      <trkpt lat="-28.448265" lon="-65.737205">
        <ele>548.1</ele>
        <time>2018-08-20T18:17:16Z</time>
      </trkpt>
      <trkpt lat="-28.448335" lon="-65.73725">
        <ele>547.7</ele>
        <time>2018-08-20T18:17:17Z</time>
      </trkpt>
      <trkpt lat="-28.4484" lon="-65.73729">
        <ele>547.2</ele>
        <time>2018-08-20T18:17:18Z</time>
      </trkpt>
      <trkpt lat="-28.44846" lon="-65.73733">
        <ele>546.7</ele>
        <time>2018-08-20T18:17:19Z</time>
      </trkpt>
      <trkpt lat="-28.44853" lon="-65.737365">
        <ele>546.2</ele>
        <time>2018-08-20T18:17:20Z</time>
      </trkpt>
      <trkpt lat="-28.4486" lon="-65.73741">
        <ele>545.7</ele>
        <time>2018-08-20T18:17:21Z</time>
      </trkpt>
      <trkpt lat="-28.44867" lon="-65.73745">
        <ele>545.2</ele>
        <time>2018-08-20T18:17:22Z</time>
      </trkpt>
      <trkpt lat="-28.448745" lon="-65.737495">
        <ele>544.7</ele>
        <time>2018-08-20T18:17:23Z</time>
      </trkpt>
      <trkpt lat="-28.44882" lon="-65.73755">
        <ele>544.4</ele>
        <time>2018-08-20T18:17:24Z</time>
      </trkpt>
      <trkpt lat="-28.4489" lon="-65.7376">
        <ele>544.3</ele>
        <time>2018-08-20T18:17:25Z</time>
      </trkpt>
      <trkpt lat="-28.448975" lon="-65.737645">
        <ele>544.3</ele>
        <time>2018-08-20T18:17:26Z</time>
      </trkpt>
      <trkpt lat="-28.449055" lon="-65.7377">
        <ele>544.5</ele>
        <time>2018-08-20T18:17:27Z</time>
      </trkpt>
      <trkpt lat="-28.449135" lon="-65.73775">
        <ele>544.5</ele>
        <time>2018-08-20T18:17:28Z</time>
      </trkpt>
      <trkpt lat="-28.44922" lon="-65.737815">
        <ele>544.2</ele>
        <time>2018-08-20T18:17:29Z</time>
      </trkpt>
      <trkpt lat="-28.449305" lon="-65.73787">
        <ele>543.9</ele>
        <time>2018-08-20T18:17:30Z</time>
      </trkpt>
      <trkpt lat="-28.449385" lon="-65.73793">
        <ele>543.6</ele>
        <time>2018-08-20T18:17:31Z</time>
      </trkpt>
      <trkpt lat="-28.449475" lon="-65.73798666666667">
        <ele>543.2</ele>
        <time>2018-08-20T18:17:32Z</time>
      </trkpt>
      <trkpt lat="-28.449565" lon="-65.73806">
        <ele>542.5</ele>
        <time>2018-08-20T18:17:33Z</time>
      </trkpt>
      <trkpt lat="-28.449665" lon="-65.738125">
        <ele>541.6</ele>
        <time>2018-08-20T18:17:34Z</time>
      </trkpt>
      <trkpt lat="-28.44975" lon="-65.73819166666667">
        <ele>540.8</ele>
        <time>2018-08-20T18:17:35Z</time>
      </trkpt>
      <trkpt lat="-28.449845" lon="-65.738265">
        <ele>540.1</ele>
        <time>2018-08-20T18:17:36Z</time>
      </trkpt>
      <trkpt lat="-28.449935" lon="-65.73833666666667">
        <ele>539.0</ele>
        <time>2018-08-20T18:17:37Z</time>
      </trkpt>
      <trkpt lat="-28.450035" lon="-65.73841666666667">
        <ele>538.5</ele>
        <time>2018-08-20T18:17:38Z</time>
      </trkpt>
      <trkpt lat="-28.450126666666666" lon="-65.7385">
        <ele>537.3</ele>
        <time>2018-08-20T18:17:39Z</time>
      </trkpt>
      <trkpt lat="-28.45022" lon="-65.73856333333333">
        <ele>536.2</ele>
        <time>2018-08-20T18:17:40Z</time>
      </trkpt>
      <trkpt lat="-28.450305" lon="-65.73864">
        <ele>534.8</ele>
        <time>2018-08-20T18:17:41Z</time>
      </trkpt>
      <trkpt lat="-28.450395" lon="-65.738725">
        <ele>533.6</ele>
        <time>2018-08-20T18:17:42Z</time>
      </trkpt>
      <trkpt lat="-28.450485" lon="-65.7388">
        <ele>532.7</ele>
        <time>2018-08-20T18:17:43Z</time>
      </trkpt>
      <trkpt lat="-28.45057" lon="-65.73886833333333">
        <ele>532.3</ele>
        <time>2018-08-20T18:17:44Z</time>
      </trkpt>
      <trkpt lat="-28.450658333333333" lon="-65.73895">
        <ele>531.8</ele>
        <time>2018-08-20T18:17:45Z</time>
      </trkpt>
      <trkpt lat="-28.450755" lon="-65.73902666666666">
        <ele>531.3</ele>
        <time>2018-08-20T18:17:46Z</time>
      </trkpt>
      <trkpt lat="-28.450845" lon="-65.73911">
        <ele>530.5</ele>
        <time>2018-08-20T18:17:47Z</time>
      </trkpt>
      <trkpt lat="-28.45093" lon="-65.73919166666667">
        <ele>529.9</ele>
        <time>2018-08-20T18:17:48Z</time>
      </trkpt>
      <trkpt lat="-28.45102" lon="-65.73927">
        <ele>529.5</ele>
        <time>2018-08-20T18:17:49Z</time>
      </trkpt>
      <trkpt lat="-28.45111" lon="-65.739345">
        <ele>529.1</ele>
        <time>2018-08-20T18:17:50Z</time>
      </trkpt>
      <trkpt lat="-28.45119" lon="-65.73941166666667">
        <ele>528.7</ele>
        <time>2018-08-20T18:17:51Z</time>
      </trkpt>
      <trkpt lat="-28.451275" lon="-65.739495">
        <ele>528.4</ele>
        <time>2018-08-20T18:17:52Z</time>
      </trkpt>
      <trkpt lat="-28.451365" lon="-65.73957">
        <ele>527.7</ele>
        <time>2018-08-20T18:17:53Z</time>
      </trkpt>
      <trkpt lat="-28.451445" lon="-65.739635">
        <ele>527.2</ele>
        <time>2018-08-20T18:17:54Z</time>
      </trkpt>
      <trkpt lat="-28.45152" lon="-65.73970166666666">
        <ele>527.5</ele>
        <time>2018-08-20T18:17:55Z</time>
      </trkpt>
      <trkpt lat="-28.451595" lon="-65.739765">
        <ele>528.1</ele>
        <time>2018-08-20T18:17:56Z</time>
      </trkpt>
      <trkpt lat="-28.451675" lon="-65.73984">
        <ele>528.4</ele>
        <time>2018-08-20T18:17:57Z</time>
      </trkpt>
      <trkpt lat="-28.451755" lon="-65.7399">
        <ele>528.6</ele>
        <time>2018-08-20T18:17:58Z</time>
      </trkpt>
      <trkpt lat="-28.45183" lon="-65.73997">
        <ele>528.6</ele>
        <time>2018-08-20T18:17:59Z</time>
      </trkpt>
      <trkpt lat="-28.4519" lon="-65.740025">
        <ele>528.6</ele>
        <time>2018-08-20T18:18:00Z</time>
      </trkpt>
      <trkpt lat="-28.451975" lon="-65.74008166666667">
        <ele>528.6</ele>
        <time>2018-08-20T18:18:01Z</time>
      </trkpt>
      <trkpt lat="-28.452055" lon="-65.74015">
        <ele>528.6</ele>
        <time>2018-08-20T18:18:02Z</time>
      </trkpt>
      <trkpt lat="-28.45213" lon="-65.74021">
        <ele>528.8</ele>
        <time>2018-08-20T18:18:03Z</time>
      </trkpt>
      <trkpt lat="-28.452195" lon="-65.740275">
        <ele>528.5</ele>
        <time>2018-08-20T18:18:04Z</time>
      </trkpt>
      <trkpt lat="-28.45226" lon="-65.74034">
        <ele>527.9</ele>
        <time>2018-08-20T18:18:05Z</time>
      </trkpt>
      <trkpt lat="-28.45232" lon="-65.740395">
        <ele>527.5</ele>
        <time>2018-08-20T18:18:06Z</time>
      </trkpt>
      <trkpt lat="-28.452385" lon="-65.74046">
        <ele>527.0</ele>
        <time>2018-08-20T18:18:07Z</time>
      </trkpt>
      <trkpt lat="-28.452443333333335" lon="-65.74052">
        <ele>526.5</ele>
        <time>2018-08-20T18:18:08Z</time>
      </trkpt>
      <trkpt lat="-28.452555" lon="-65.74062333333333">
        <ele>526.3</ele>
        <time>2018-08-20T18:18:10Z</time>
      </trkpt>
      <trkpt lat="-28.452655" lon="-65.740735">
        <ele>525.6</ele>
        <time>2018-08-20T18:18:12Z</time>
      </trkpt>
      <trkpt lat="-28.45271" lon="-65.74079">
        <ele>525.1</ele>
        <time>2018-08-20T18:18:13Z</time>
      </trkpt>
      <trkpt lat="-28.452765" lon="-65.74084666666667">
        <ele>524.1</ele>
        <time>2018-08-20T18:18:14Z</time>
      </trkpt>
      <trkpt lat="-28.452855" lon="-65.74093">
        <ele>523.1</ele>
        <time>2018-08-20T18:18:16Z</time>
      </trkpt>
      <trkpt lat="-28.452945" lon="-65.74101">
        <ele>521.6</ele>
        <time>2018-08-20T18:18:18Z</time>
      </trkpt>
      <trkpt lat="-28.453013333333335" lon="-65.741065">
        <ele>521.0</ele>
        <time>2018-08-20T18:18:20Z</time>
      </trkpt>
      <trkpt lat="-28.453105" lon="-65.741135">
        <ele>520.8</ele>
        <time>2018-08-20T18:18:22Z</time>
      </trkpt>
      <trkpt lat="-28.45319" lon="-65.74119666666667">
        <ele>520.2</ele>
        <time>2018-08-20T18:18:24Z</time>
      </trkpt>
      <trkpt lat="-28.45327" lon="-65.74126">
        <ele>519.4</ele>
        <time>2018-08-20T18:18:26Z</time>
      </trkpt>
      <trkpt lat="-28.45335" lon="-65.74132">
        <ele>519.2</ele>
        <time>2018-08-20T18:18:28Z</time>
      </trkpt>
      <trkpt lat="-28.453435" lon="-65.74138">
        <ele>518.7</ele>
        <time>2018-08-20T18:18:30Z</time>
      </trkpt>
      <trkpt lat="-28.453515" lon="-65.741445">
        <ele>517.2</ele>
        <time>2018-08-20T18:18:32Z</time>
      </trkpt>
      <trkpt lat="-28.45359" lon="-65.741505">
        <ele>516.7</ele>
        <time>2018-08-20T18:18:34Z</time>
      </trkpt>
      <trkpt lat="-28.45366" lon="-65.74156">
        <ele>517.1</ele>
        <time>2018-08-20T18:18:36Z</time>
      </trkpt>
      <trkpt lat="-28.453733333333332" lon="-65.74163">
        <ele>517.4</ele>
        <time>2018-08-20T18:18:38Z</time>
      </trkpt>
      <trkpt lat="-28.45382" lon="-65.74169666666667">
        <ele>517.4</ele>
        <time>2018-08-20T18:18:40Z</time>
      </trkpt>
      <trkpt lat="-28.45392" lon="-65.74178333333333">
        <ele>516.8</ele>
        <time>2018-08-20T18:18:42Z</time>
      </trkpt>
      <trkpt lat="-28.45401" lon="-65.74187333333333">
        <ele>515.4</ele>
        <time>2018-08-20T18:18:44Z</time>
      </trkpt>
      <trkpt lat="-28.454095" lon="-65.74196">
        <ele>513.9</ele>
        <time>2018-08-20T18:18:46Z</time>
      </trkpt>
      <trkpt lat="-28.45417" lon="-65.742035">
        <ele>513.0</ele>
        <time>2018-08-20T18:18:48Z</time>
      </trkpt>
      <trkpt lat="-28.45422" lon="-65.742095">
        <ele>513.1</ele>
        <time>2018-08-20T18:18:50Z</time>
      </trkpt>
      <trkpt lat="-28.45428" lon="-65.742165">
        <ele>513.5</ele>
        <time>2018-08-20T18:18:52Z</time>
      </trkpt>
      <trkpt lat="-28.454335" lon="-65.74225">
        <ele>523.0</ele>
        <time>2018-08-20T18:18:55Z</time>
      </trkpt>
      <trkpt lat="-28.45439" lon="-65.74232">
        <ele>529.2</ele>
        <time>2018-08-20T18:18:57Z</time>
      </trkpt>
      <trkpt lat="-28.454435" lon="-65.742385">
        <ele>534.6</ele>
        <time>2018-08-20T18:18:59Z</time>
      </trkpt>
      <trkpt lat="-28.454485" lon="-65.742455">
        <ele>538.8</ele>
        <time>2018-08-20T18:19:01Z</time>
      </trkpt>
      <trkpt lat="-28.454525" lon="-65.742525">
        <ele>541.1</ele>
        <time>2018-08-20T18:19:03Z</time>
      </trkpt>
      <trkpt lat="-28.45458" lon="-65.74259666666667">
        <ele>546.0</ele>
        <time>2018-08-20T18:19:06Z</time>
      </trkpt>
      <trkpt lat="-28.454635" lon="-65.742695">
        <ele>549.4</ele>
        <time>2018-08-20T18:19:08Z</time>
      </trkpt>
      <trkpt lat="-28.454716666666666" lon="-65.742795">
        <ele>551.3</ele>
        <time>2018-08-20T18:19:10Z</time>
      </trkpt>
      <trkpt lat="-28.454785" lon="-65.74287">
        <ele>551.2</ele>
        <time>2018-08-20T18:19:12Z</time>
      </trkpt>
      <trkpt lat="-28.454855" lon="-65.74295333333333">
        <ele>551.0</ele>
        <time>2018-08-20T18:19:15Z</time>
      </trkpt>
      <trkpt lat="-28.454915" lon="-65.74303666666667">
        <ele>550.8</ele>
        <time>2018-08-20T18:19:17Z</time>
      </trkpt>
      <trkpt lat="-28.454983333333335" lon="-65.74313166666667">
        <ele>549.5</ele>
        <time>2018-08-20T18:19:19Z</time>
      </trkpt>
      <trkpt lat="-28.45504" lon="-65.74321">
        <ele>548.2</ele>
        <time>2018-08-20T18:19:21Z</time>
      </trkpt>
      <trkpt lat="-28.455085" lon="-65.74329">
        <ele>546.7</ele>
        <time>2018-08-20T18:19:23Z</time>
      </trkpt>
      <trkpt lat="-28.45515" lon="-65.74339">
        <ele>545.6</ele>
        <time>2018-08-20T18:19:25Z</time>
      </trkpt>
      <trkpt lat="-28.4552" lon="-65.7435">
        <ele>543.2</ele>
        <time>2018-08-20T18:19:27Z</time>
      </trkpt>
      <trkpt lat="-28.455241666666666" lon="-65.743615">
        <ele>541.4</ele>
        <time>2018-08-20T18:19:29Z</time>
      </trkpt>
      <trkpt lat="-28.455285" lon="-65.743725">
        <ele>540.9</ele>
        <time>2018-08-20T18:19:31Z</time>
      </trkpt>
      <trkpt lat="-28.45532" lon="-65.74384">
        <ele>542.1</ele>
        <time>2018-08-20T18:19:33Z</time>
      </trkpt>
      <trkpt lat="-28.45535" lon="-65.74395">
        <ele>543.4</ele>
        <time>2018-08-20T18:19:35Z</time>
      </trkpt>
      <trkpt lat="-28.455375" lon="-65.744055">
        <ele>544.0</ele>
        <time>2018-08-20T18:19:37Z</time>
      </trkpt>
      <trkpt lat="-28.455398333333335" lon="-65.744145">
        <ele>543.4</ele>
        <time>2018-08-20T18:19:39Z</time>
      </trkpt>
      <trkpt lat="-28.45543" lon="-65.744235">
        <ele>542.7</ele>
        <time>2018-08-20T18:19:41Z</time>
      </trkpt>
      <trkpt lat="-28.455455" lon="-65.744325">
        <ele>542.1</ele>
        <time>2018-08-20T18:19:43Z</time>
      </trkpt>
      <trkpt lat="-28.455478333333332" lon="-65.744415">
        <ele>541.9</ele>
        <time>2018-08-20T18:19:45Z</time>
      </trkpt>
      <trkpt lat="-28.45551" lon="-65.744515">
        <ele>541.9</ele>
        <time>2018-08-20T18:19:47Z</time>
      </trkpt>
      <trkpt lat="-28.45554" lon="-65.74461">
        <ele>542.7</ele>
        <time>2018-08-20T18:19:49Z</time>
      </trkpt>
      <trkpt lat="-28.45557" lon="-65.74471">
        <ele>543.6</ele>
        <time>2018-08-20T18:19:51Z</time>
      </trkpt>
      <trkpt lat="-28.455595" lon="-65.74481">
        <ele>544.9</ele>
        <time>2018-08-20T18:19:53Z</time>
      </trkpt>
      <trkpt lat="-28.45562" lon="-65.744905">
        <ele>545.7</ele>
        <time>2018-08-20T18:19:55Z</time>
      </trkpt>
      <trkpt lat="-28.455655" lon="-65.74499">
        <ele>546.2</ele>
        <time>2018-08-20T18:19:57Z</time>
      </trkpt>
      <trkpt lat="-28.45569" lon="-65.745085">
        <ele>545.9</ele>
        <time>2018-08-20T18:19:59Z</time>
      </trkpt>
      <trkpt lat="-28.45572" lon="-65.74518666666667">
        <ele>545.6</ele>
        <time>2018-08-20T18:20:01Z</time>
      </trkpt>
      <trkpt lat="-28.455755" lon="-65.74531333333333">
        <ele>545.8</ele>
        <time>2018-08-20T18:20:03Z</time>
      </trkpt>
      <trkpt lat="-28.45577" lon="-65.745405">
        <ele>545.3</ele>
        <time>2018-08-20T18:20:05Z</time>
      </trkpt>
      <trkpt lat="-28.455805" lon="-65.7455">
        <ele>544.0</ele>
        <time>2018-08-20T18:20:07Z</time>
      </trkpt>
      <trkpt lat="-28.45584" lon="-65.74559666666667">
        <ele>543.3</ele>
        <time>2018-08-20T18:20:09Z</time>
      </trkpt>
      <trkpt lat="-28.45587" lon="-65.74569666666666">
        <ele>543.7</ele>
        <time>2018-08-20T18:20:11Z</time>
      </trkpt>
      <trkpt lat="-28.45594" lon="-65.745855">
        <ele>544.4</ele>
        <time>2018-08-20T18:20:13Z</time>
      </trkpt>
      <trkpt lat="-28.45599" lon="-65.74596">
        <ele>546.3</ele>
        <time>2018-08-20T18:20:15Z</time>
      </trkpt>
      <trkpt lat="-28.456035" lon="-65.74606">
        <ele>547.3</ele>
        <time>2018-08-20T18:20:17Z</time>
      </trkpt>
      <trkpt lat="-28.45608" lon="-65.746155">
        <ele>547.7</ele>
        <time>2018-08-20T18:20:19Z</time>
      </trkpt>
      <trkpt lat="-28.45614" lon="-65.74626">
        <ele>548.5</ele>
        <time>2018-08-20T18:20:21Z</time>
      </trkpt>
      <trkpt lat="-28.45617" lon="-65.74637">
        <ele>547.9</ele>
        <time>2018-08-20T18:20:24Z</time>
      </trkpt>
      <trkpt lat="-28.456226666666666" lon="-65.746465">
        <ele>547.8</ele>
        <time>2018-08-20T18:20:27Z</time>
      </trkpt>
      <trkpt lat="-28.456295" lon="-65.74657">
        <ele>547.8</ele>
        <time>2018-08-20T18:20:30Z</time>
      </trkpt>
      <trkpt lat="-28.45635" lon="-65.746635">
        <ele>547.9</ele>
        <time>2018-08-20T18:20:32Z</time>
      </trkpt>
      <trkpt lat="-28.456425" lon="-65.746725">
        <ele>549.1</ele>
        <time>2018-08-20T18:20:34Z</time>
      </trkpt>
      <trkpt lat="-28.45649" lon="-65.746795">
        <ele>549.3</ele>
        <time>2018-08-20T18:20:35Z</time>
      </trkpt>
      <trkpt lat="-28.45656" lon="-65.74688666666667">
        <ele>549.7</ele>
        <time>2018-08-20T18:20:37Z</time>
      </trkpt>
      <trkpt lat="-28.456605" lon="-65.746955">
        <ele>550.3</ele>
        <time>2018-08-20T18:20:39Z</time>
      </trkpt>
      <trkpt lat="-28.45667" lon="-65.74702833333333">
        <ele>552.1</ele>
        <time>2018-08-20T18:20:41Z</time>
      </trkpt>
      <trkpt lat="-28.45673" lon="-65.747105">
        <ele>553.2</ele>
        <time>2018-08-20T18:20:43Z</time>
      </trkpt>
      <trkpt lat="-28.45679" lon="-65.747175">
        <ele>553.4</ele>
        <time>2018-08-20T18:20:45Z</time>
      </trkpt>
      <trkpt lat="-28.45685" lon="-65.747235">
        <ele>553.5</ele>
        <time>2018-08-20T18:20:47Z</time>
      </trkpt>
      <trkpt lat="-28.456925" lon="-65.74733">
        <ele>553.1</ele>
        <time>2018-08-20T18:20:49Z</time>
      </trkpt>
      <trkpt lat="-28.456995" lon="-65.74742166666667">
        <ele>552.1</ele>
        <time>2018-08-20T18:20:51Z</time>
      </trkpt>
      <trkpt lat="-28.457065" lon="-65.747495">
        <ele>551.0</ele>
        <time>2018-08-20T18:20:53Z</time>
      </trkpt>
      <trkpt lat="-28.457143333333335" lon="-65.74758166666666">
        <ele>551.0</ele>
        <time>2018-08-20T18:20:55Z</time>
      </trkpt>
      <trkpt lat="-28.45722" lon="-65.74768">
        <ele>551.0</ele>
        <time>2018-08-20T18:20:57Z</time>
      </trkpt>
      <trkpt lat="-28.45728" lon="-65.74773833333333">
        <ele>550.8</ele>
        <time>2018-08-20T18:20:59Z</time>
      </trkpt>
      <trkpt lat="-28.457355" lon="-65.747815">
        <ele>549.6</ele>
        <time>2018-08-20T18:21:01Z</time>
      </trkpt>
      <trkpt lat="-28.45743" lon="-65.747905">
        <ele>546.7</ele>
        <time>2018-08-20T18:21:03Z</time>
      </trkpt>
      <trkpt lat="-28.457505" lon="-65.747975">
        <ele>544.9</ele>
        <time>2018-08-20T18:21:05Z</time>
      </trkpt>
      <trkpt lat="-28.45758" lon="-65.74805333333333">
        <ele>542.9</ele>
        <time>2018-08-20T18:21:07Z</time>
      </trkpt>
      <trkpt lat="-28.45765" lon="-65.748135">
        <ele>542.2</ele>
        <time>2018-08-20T18:21:09Z</time>
      </trkpt>
      <trkpt lat="-28.45773" lon="-65.74822">
        <ele>541.6</ele>
        <time>2018-08-20T18:21:11Z</time>
      </trkpt>
      <trkpt lat="-28.457815" lon="-65.748315">
        <ele>540.6</ele>
        <time>2018-08-20T18:21:13Z</time>
      </trkpt>
      <trkpt lat="-28.457885" lon="-65.7484">
        <ele>540.9</ele>
        <time>2018-08-20T18:21:15Z</time>
      </trkpt>
      <trkpt lat="-28.45796" lon="-65.74848">
        <ele>541.9</ele>
        <time>2018-08-20T18:21:17Z</time>
      </trkpt>
      <trkpt lat="-28.458025" lon="-65.74855166666667">
        <ele>541.9</ele>
        <time>2018-08-20T18:21:19Z</time>
      </trkpt>
      <trkpt lat="-28.4581" lon="-65.74863333333333">
        <ele>540.6</ele>
        <time>2018-08-20T18:21:21Z</time>
      </trkpt>
      <trkpt lat="-28.45818" lon="-65.74871833333333">
        <ele>539.5</ele>
        <time>2018-08-20T18:21:23Z</time>
      </trkpt>
      <trkpt lat="-28.45824" lon="-65.74879">
        <ele>538.7</ele>
        <time>2018-08-20T18:21:25Z</time>
      </trkpt>
      <trkpt lat="-28.45831" lon="-65.748865">
        <ele>538.7</ele>
        <time>2018-08-20T18:21:27Z</time>
      </trkpt>
      <trkpt lat="-28.45838" lon="-65.74894333333333">
        <ele>539.2</ele>
        <time>2018-08-20T18:21:29Z</time>
      </trkpt>
      <trkpt lat="-28.458445" lon="-65.749015">
        <ele>539.4</ele>
        <time>2018-08-20T18:21:31Z</time>
      </trkpt>
      <trkpt lat="-28.45852" lon="-65.7491">
        <ele>540.9</ele>
        <time>2018-08-20T18:21:33Z</time>
      </trkpt>
      <trkpt lat="-28.458585" lon="-65.749185">
        <ele>542.5</ele>
        <time>2018-08-20T18:21:35Z</time>
      </trkpt>
      <trkpt lat="-28.45867" lon="-65.74928">
        <ele>542.4</ele>
        <time>2018-08-20T18:21:37Z</time>
      </trkpt>
      <trkpt lat="-28.458755" lon="-65.74937">
        <ele>542.1</ele>
        <time>2018-08-20T18:21:39Z</time>
      </trkpt>
      <trkpt lat="-28.45881" lon="-65.74943">
        <ele>542.3</ele>
        <time>2018-08-20T18:21:41Z</time>
      </trkpt>
      <trkpt lat="-28.45888" lon="-65.749515">
        <ele>542.2</ele>
        <time>2018-08-20T18:21:43Z</time>
      </trkpt>
      <trkpt lat="-28.45895" lon="-65.749595">
        <ele>541.6</ele>
        <time>2018-08-20T18:21:45Z</time>
      </trkpt>
      <trkpt lat="-28.45903" lon="-65.74969">
        <ele>540.0</ele>
        <time>2018-08-20T18:21:47Z</time>
      </trkpt>
      <trkpt lat="-28.459105" lon="-65.749775">
        <ele>539.3</ele>
        <time>2018-08-20T18:21:49Z</time>
      </trkpt>
      <trkpt lat="-28.45918" lon="-65.74988">
        <ele>538.4</ele>
        <time>2018-08-20T18:21:51Z</time>
      </trkpt>
      <trkpt lat="-28.45927" lon="-65.75">
        <ele>536.7</ele>
        <time>2018-08-20T18:21:53Z</time>
      </trkpt>
      <trkpt lat="-28.45932" lon="-65.75007333333333">
        <ele>536.3</ele>
        <time>2018-08-20T18:21:55Z</time>
      </trkpt>
      <trkpt lat="-28.45937" lon="-65.75019">
        <ele>535.9</ele>
        <time>2018-08-20T18:21:57Z</time>
      </trkpt>
      <trkpt lat="-28.459435" lon="-65.75033">
        <ele>536.4</ele>
        <time>2018-08-20T18:21:59Z</time>
      </trkpt>
      <trkpt lat="-28.459445" lon="-65.75046">
        <ele>538.0</ele>
        <time>2018-08-20T18:22:01Z</time>
      </trkpt>
      <trkpt lat="-28.459445" lon="-65.75055833333333">
        <ele>539.4</ele>
        <time>2018-08-20T18:22:03Z</time>
      </trkpt>
      <trkpt lat="-28.45944" lon="-65.750675">
        <ele>540.7</ele>
        <time>2018-08-20T18:22:05Z</time>
      </trkpt>
      <trkpt lat="-28.459435" lon="-65.75078">
        <ele>541.9</ele>
        <time>2018-08-20T18:22:07Z</time>
      </trkpt>
      <trkpt lat="-28.459435" lon="-65.7509">
        <ele>542.7</ele>
        <time>2018-08-20T18:22:09Z</time>
      </trkpt>
      <trkpt lat="-28.45943" lon="-65.75101166666667">
        <ele>543.7</ele>
        <time>2018-08-20T18:22:11Z</time>
      </trkpt>
      <trkpt lat="-28.45943" lon="-65.75112">
        <ele>544.8</ele>
        <time>2018-08-20T18:22:13Z</time>
      </trkpt>
      <trkpt lat="-28.45943" lon="-65.75123">
        <ele>545.8</ele>
        <time>2018-08-20T18:22:15Z</time>
      </trkpt>
      <trkpt lat="-28.45943" lon="-65.751335">
        <ele>546.2</ele>
        <time>2018-08-20T18:22:17Z</time>
      </trkpt>
      <trkpt lat="-28.45943" lon="-65.751445">
        <ele>546.4</ele>
        <time>2018-08-20T18:22:19Z</time>
      </trkpt>
      <trkpt lat="-28.45944" lon="-65.75158">
        <ele>546.8</ele>
        <time>2018-08-20T18:22:21Z</time>
      </trkpt>
      <trkpt lat="-28.459445" lon="-65.751735">
        <ele>549.1</ele>
        <time>2018-08-20T18:22:23Z</time>
      </trkpt>
      <trkpt lat="-28.45946" lon="-65.75184">
        <ele>550.7</ele>
        <time>2018-08-20T18:22:25Z</time>
      </trkpt>
      <trkpt lat="-28.45948" lon="-65.751935">
        <ele>551.3</ele>
        <time>2018-08-20T18:22:28Z</time>
      </trkpt>
      <trkpt lat="-28.459485" lon="-65.75203">
        <ele>550.9</ele>
        <time>2018-08-20T18:22:30Z</time>
      </trkpt>
      <trkpt lat="-28.459485" lon="-65.75213">
        <ele>549.4</ele>
        <time>2018-08-20T18:22:32Z</time>
      </trkpt>
      <trkpt lat="-28.45948" lon="-65.752255">
        <ele>549.1</ele>
        <time>2018-08-20T18:22:34Z</time>
      </trkpt>
      <trkpt lat="-28.45947" lon="-65.752355">
        <ele>550.2</ele>
        <time>2018-08-20T18:22:36Z</time>
      </trkpt>
      <trkpt lat="-28.459465" lon="-65.75246">
        <ele>551.7</ele>
        <time>2018-08-20T18:22:38Z</time>
      </trkpt>
      <trkpt lat="-28.45946" lon="-65.752555">
        <ele>551.8</ele>
        <time>2018-08-20T18:22:40Z</time>
      </trkpt>
      <trkpt lat="-28.459465" lon="-65.752675">
        <ele>552.3</ele>
        <time>2018-08-20T18:22:42Z</time>
      </trkpt>
      <trkpt lat="-28.459465" lon="-65.752785">
        <ele>552.4</ele>
        <time>2018-08-20T18:22:44Z</time>
      </trkpt>
      <trkpt lat="-28.45947" lon="-65.75287">
        <ele>551.9</ele>
        <time>2018-08-20T18:22:46Z</time>
      </trkpt>
      <trkpt lat="-28.45948" lon="-65.75297666666667">
        <ele>551.7</ele>
        <time>2018-08-20T18:22:48Z</time>
      </trkpt>
      <trkpt lat="-28.459475" lon="-65.75311">
        <ele>550.6</ele>
        <time>2018-08-20T18:22:50Z</time>
      </trkpt>
      <trkpt lat="-28.459475" lon="-65.75320666666667">
        <ele>550.1</ele>
        <time>2018-08-20T18:22:52Z</time>
      </trkpt>
      <trkpt lat="-28.45947" lon="-65.753325">
        <ele>549.9</ele>
        <time>2018-08-20T18:22:55Z</time>
      </trkpt>
      <trkpt lat="-28.459465" lon="-65.753445">
        <ele>550.1</ele>
        <time>2018-08-20T18:22:57Z</time>
      </trkpt>
      <trkpt lat="-28.459465" lon="-65.75355">
        <ele>549.3</ele>
        <time>2018-08-20T18:22:59Z</time>
      </trkpt>
      <trkpt lat="-28.459475" lon="-65.75369">
        <ele>549.2</ele>
        <time>2018-08-20T18:23:01Z</time>
      </trkpt>
      <trkpt lat="-28.459485" lon="-65.753775">
        <ele>549.4</ele>
        <time>2018-08-20T18:23:02Z</time>
      </trkpt>
      <trkpt lat="-28.459486666666667" lon="-65.753915">
        <ele>550.1</ele>
        <time>2018-08-20T18:23:04Z</time>
      </trkpt>
      <trkpt lat="-28.459495" lon="-65.754025">
        <ele>550.8</ele>
        <time>2018-08-20T18:23:06Z</time>
      </trkpt>
      <trkpt lat="-28.4595" lon="-65.75416">
        <ele>551.5</ele>
        <time>2018-08-20T18:23:08Z</time>
      </trkpt>
      <trkpt lat="-28.459505" lon="-65.75427833333333">
        <ele>552.8</ele>
        <time>2018-08-20T18:23:10Z</time>
      </trkpt>
      <trkpt lat="-28.459515" lon="-65.75441000000001">
        <ele>553.6</ele>
        <time>2018-08-20T18:23:12Z</time>
      </trkpt>
      <trkpt lat="-28.459525" lon="-65.754535">
        <ele>554.6</ele>
        <time>2018-08-20T18:23:14Z</time>
      </trkpt>
      <trkpt lat="-28.459525" lon="-65.754615">
        <ele>554.7</ele>
        <time>2018-08-20T18:23:15Z</time>
      </trkpt>
      <trkpt lat="-28.459525" lon="-65.75474">
        <ele>554.6</ele>
        <time>2018-08-20T18:23:17Z</time>
      </trkpt>
      <trkpt lat="-28.459535" lon="-65.75483">
        <ele>554.6</ele>
        <time>2018-08-20T18:23:19Z</time>
      </trkpt>
      <trkpt lat="-28.45956" lon="-65.754915">
        <ele>552.8</ele>
        <time>2018-08-20T18:23:21Z</time>
      </trkpt>
      <trkpt lat="-28.459595" lon="-65.75503">
        <ele>547.9</ele>
        <time>2018-08-20T18:23:23Z</time>
      </trkpt>
      <trkpt lat="-28.459635" lon="-65.75515">
        <ele>541.7</ele>
        <time>2018-08-20T18:23:25Z</time>
      </trkpt>
      <trkpt lat="-28.45967" lon="-65.75528">
        <ele>536.3</ele>
        <time>2018-08-20T18:23:27Z</time>
      </trkpt>
      <trkpt lat="-28.45971" lon="-65.75539166666667">
        <ele>532.1</ele>
        <time>2018-08-20T18:23:29Z</time>
      </trkpt>
      <trkpt lat="-28.45975" lon="-65.75552">
        <ele>529.2</ele>
        <time>2018-08-20T18:23:31Z</time>
      </trkpt>
      <trkpt lat="-28.459785" lon="-65.75563">
        <ele>527.2</ele>
        <time>2018-08-20T18:23:33Z</time>
      </trkpt>
      <trkpt lat="-28.45981" lon="-65.75573">
        <ele>525.6</ele>
        <time>2018-08-20T18:23:35Z</time>
      </trkpt>
      <trkpt lat="-28.459845" lon="-65.75583833333333">
        <ele>524.5</ele>
        <time>2018-08-20T18:23:37Z</time>
      </trkpt>
      <trkpt lat="-28.45988" lon="-65.75593666666667">
        <ele>524.7</ele>
        <time>2018-08-20T18:23:39Z</time>
      </trkpt>
      <trkpt lat="-28.459915" lon="-65.75604">
        <ele>524.6</ele>
        <time>2018-08-20T18:23:41Z</time>
      </trkpt>
      <trkpt lat="-28.45995" lon="-65.756145">
        <ele>523.7</ele>
        <time>2018-08-20T18:23:43Z</time>
      </trkpt>
      <trkpt lat="-28.459985" lon="-65.75626">
        <ele>522.9</ele>
        <time>2018-08-20T18:23:45Z</time>
      </trkpt>
      <trkpt lat="-28.46002" lon="-65.75636">
        <ele>521.9</ele>
        <time>2018-08-20T18:23:47Z</time>
      </trkpt>
      <trkpt lat="-28.46004" lon="-65.756465">
        <ele>521.5</ele>
        <time>2018-08-20T18:23:49Z</time>
      </trkpt>
      <trkpt lat="-28.460055" lon="-65.75655666666667">
        <ele>521.8</ele>
        <time>2018-08-20T18:23:51Z</time>
      </trkpt>
      <trkpt lat="-28.46007" lon="-65.756645">
        <ele>522.6</ele>
        <time>2018-08-20T18:23:53Z</time>
      </trkpt>
      <trkpt lat="-28.460085" lon="-65.756765">
        <ele>522.5</ele>
        <time>2018-08-20T18:23:55Z</time>
      </trkpt>
      <trkpt lat="-28.460105" lon="-65.75686">
        <ele>522.0</ele>
        <time>2018-08-20T18:23:57Z</time>
      </trkpt>
      <trkpt lat="-28.460125" lon="-65.756955">
        <ele>521.5</ele>
        <time>2018-08-20T18:23:59Z</time>
      </trkpt>
      <trkpt lat="-28.46014" lon="-65.75705">
        <ele>521.6</ele>
        <time>2018-08-20T18:24:01Z</time>
      </trkpt>
      <trkpt lat="-28.460141666666665" lon="-65.75714">
        <ele>521.7</ele>
        <time>2018-08-20T18:24:03Z</time>
      </trkpt>
      <trkpt lat="-28.46016" lon="-65.757235">
        <ele>521.8</ele>
        <time>2018-08-20T18:24:08Z</time>
      </trkpt>
      <trkpt lat="-28.460165" lon="-65.75729">
        <ele>521.7</ele>
        <time>2018-08-20T18:24:15Z</time>
      </trkpt>
      <trkpt lat="-28.46016" lon="-65.75729">
        <ele>521.8</ele>
        <time>2018-08-20T18:24:18Z</time>
      </trkpt>
      <trkpt lat="-28.460185" lon="-65.75729166666666">
        <ele>521.8</ele>
        <time>2018-08-20T18:24:29Z</time>
      </trkpt>
      <trkpt lat="-28.46019" lon="-65.757305">
        <ele>521.8</ele>
        <time>2018-08-20T18:24:30Z</time>
      </trkpt>
      <trkpt lat="-28.46019" lon="-65.7574">
        <ele>520.7</ele>
        <time>2018-08-20T18:24:38Z</time>
      </trkpt>
      <trkpt lat="-28.460195" lon="-65.75749">
        <ele>520.4</ele>
        <time>2018-08-20T18:24:41Z</time>
      </trkpt>
      <trkpt lat="-28.460205" lon="-65.75758166666667">
        <ele>520.2</ele>
        <time>2018-08-20T18:24:43Z</time>
      </trkpt>
      <trkpt lat="-28.46021" lon="-65.75766666666667">
        <ele>520.0</ele>
        <time>2018-08-20T18:24:45Z</time>
      </trkpt>
      <trkpt lat="-28.460225" lon="-65.75776">
        <ele>518.7</ele>
        <time>2018-08-20T18:24:47Z</time>
      </trkpt>
      <trkpt lat="-28.460245" lon="-65.75785833333333">
        <ele>518.5</ele>
        <time>2018-08-20T18:24:49Z</time>
      </trkpt>
      <trkpt lat="-28.460255" lon="-65.757985">
        <ele>517.3</ele>
        <time>2018-08-20T18:24:52Z</time>
      </trkpt>
      <trkpt lat="-28.460265" lon="-65.75808">
        <ele>517.5</ele>
        <time>2018-08-20T18:24:54Z</time>
      </trkpt>
      <trkpt lat="-28.460265" lon="-65.75817">
        <ele>517.7</ele>
        <time>2018-08-20T18:24:56Z</time>
      </trkpt>
      <trkpt lat="-28.46027" lon="-65.75826">
        <ele>518.2</ele>
        <time>2018-08-20T18:24:58Z</time>
      </trkpt>
      <trkpt lat="-28.46027" lon="-65.75835333333333">
        <ele>519.3</ele>
        <time>2018-08-20T18:25:00Z</time>
      </trkpt>
      <trkpt lat="-28.460275" lon="-65.758465">
        <ele>519.3</ele>
        <time>2018-08-20T18:25:02Z</time>
      </trkpt>
      <trkpt lat="-28.460281666666667" lon="-65.75856833333333">
        <ele>519.2</ele>
        <time>2018-08-20T18:25:04Z</time>
      </trkpt>
      <trkpt lat="-28.460295" lon="-65.75866333333333">
        <ele>519.5</ele>
        <time>2018-08-20T18:25:06Z</time>
      </trkpt>
      <trkpt lat="-28.4603" lon="-65.758775">
        <ele>519.4</ele>
        <time>2018-08-20T18:25:08Z</time>
      </trkpt>
      <trkpt lat="-28.4603" lon="-65.758865">
        <ele>519.1</ele>
        <time>2018-08-20T18:25:10Z</time>
      </trkpt>
      <trkpt lat="-28.460315" lon="-65.75897666666667">
        <ele>518.1</ele>
        <time>2018-08-20T18:25:12Z</time>
      </trkpt>
      <trkpt lat="-28.46032" lon="-65.75909">
        <ele>518.1</ele>
        <time>2018-08-20T18:25:14Z</time>
      </trkpt>
      <trkpt lat="-28.46033" lon="-65.7592">
        <ele>518.0</ele>
        <time>2018-08-20T18:25:16Z</time>
      </trkpt>
      <trkpt lat="-28.460345" lon="-65.75932833333333">
        <ele>517.7</ele>
        <time>2018-08-20T18:25:18Z</time>
      </trkpt>
      <trkpt lat="-28.46035" lon="-65.75944">
        <ele>517.8</ele>
        <time>2018-08-20T18:25:20Z</time>
      </trkpt>
      <trkpt lat="-28.460355" lon="-65.75955166666667">
        <ele>518.1</ele>
        <time>2018-08-20T18:25:22Z</time>
      </trkpt>
      <trkpt lat="-28.460358333333332" lon="-65.75965166666667">
        <ele>518.6</ele>
        <time>2018-08-20T18:25:24Z</time>
      </trkpt>
      <trkpt lat="-28.460365" lon="-65.759755">
        <ele>518.9</ele>
        <time>2018-08-20T18:25:26Z</time>
      </trkpt>
      <trkpt lat="-28.460375" lon="-65.75985">
        <ele>519.1</ele>
        <time>2018-08-20T18:25:28Z</time>
      </trkpt>
      <trkpt lat="-28.46038" lon="-65.759955">
        <ele>519.1</ele>
        <time>2018-08-20T18:25:30Z</time>
      </trkpt>
      <trkpt lat="-28.46039" lon="-65.76005">
        <ele>519.4</ele>
        <time>2018-08-20T18:25:32Z</time>
      </trkpt>
      <trkpt lat="-28.460395" lon="-65.760145">
        <ele>519.5</ele>
        <time>2018-08-20T18:25:34Z</time>
      </trkpt>
      <trkpt lat="-28.4604" lon="-65.760245">
        <ele>519.7</ele>
        <time>2018-08-20T18:25:36Z</time>
      </trkpt>
      <trkpt lat="-28.460415" lon="-65.76036333333333">
        <ele>519.7</ele>
        <time>2018-08-20T18:25:39Z</time>
      </trkpt>
      <trkpt lat="-28.46042" lon="-65.76045833333333">
        <ele>520.4</ele>
        <time>2018-08-20T18:25:41Z</time>
      </trkpt>
      <trkpt lat="-28.460425" lon="-65.760555">
        <ele>520.5</ele>
        <time>2018-08-20T18:25:43Z</time>
      </trkpt>
      <trkpt lat="-28.46043" lon="-65.76067">
        <ele>520.3</ele>
        <time>2018-08-20T18:25:45Z</time>
      </trkpt>
      <trkpt lat="-28.460435" lon="-65.76076666666667">
        <ele>520.2</ele>
        <time>2018-08-20T18:25:47Z</time>
      </trkpt>
      <trkpt lat="-28.460445" lon="-65.760865">
        <ele>520.4</ele>
        <time>2018-08-20T18:25:49Z</time>
      </trkpt>
      <trkpt lat="-28.46045" lon="-65.760975">
        <ele>520.6</ele>
        <time>2018-08-20T18:25:51Z</time>
      </trkpt>
      <trkpt lat="-28.460455" lon="-65.76106">
        <ele>521.3</ele>
        <time>2018-08-20T18:25:53Z</time>
      </trkpt>
      <trkpt lat="-28.460465" lon="-65.76116">
        <ele>521.6</ele>
        <time>2018-08-20T18:25:55Z</time>
      </trkpt>
      <trkpt lat="-28.46047" lon="-65.76125">
        <ele>522.4</ele>
        <time>2018-08-20T18:25:57Z</time>
      </trkpt>
      <trkpt lat="-28.460471666666667" lon="-65.76135166666667">
        <ele>522.6</ele>
        <time>2018-08-20T18:25:59Z</time>
      </trkpt>
      <trkpt lat="-28.46049" lon="-65.76144333333333">
        <ele>522.4</ele>
        <time>2018-08-20T18:26:01Z</time>
      </trkpt>
      <trkpt lat="-28.460495" lon="-65.76155">
        <ele>522.3</ele>
        <time>2018-08-20T18:26:03Z</time>
      </trkpt>
      <trkpt lat="-28.460505" lon="-65.761655">
        <ele>522.2</ele>
        <time>2018-08-20T18:26:05Z</time>
      </trkpt>
      <trkpt lat="-28.46051" lon="-65.761765">
        <ele>521.6</ele>
        <time>2018-08-20T18:26:07Z</time>
      </trkpt>
      <trkpt lat="-28.46052" lon="-65.76187">
        <ele>520.9</ele>
        <time>2018-08-20T18:26:09Z</time>
      </trkpt>
      <trkpt lat="-28.46053" lon="-65.761965">
        <ele>520.7</ele>
        <time>2018-08-20T18:26:11Z</time>
      </trkpt>
      <trkpt lat="-28.46053" lon="-65.762065">
        <ele>520.8</ele>
        <time>2018-08-20T18:26:13Z</time>
      </trkpt>
      <trkpt lat="-28.460535" lon="-65.76218">
        <ele>521.5</ele>
        <time>2018-08-20T18:26:15Z</time>
      </trkpt>
      <trkpt lat="-28.46054" lon="-65.76228166666667">
        <ele>522.2</ele>
        <time>2018-08-20T18:26:17Z</time>
      </trkpt>
      <trkpt lat="-28.460545" lon="-65.762395">
        <ele>522.9</ele>
        <time>2018-08-20T18:26:19Z</time>
      </trkpt>
      <trkpt lat="-28.460545" lon="-65.76249833333333">
        <ele>523.4</ele>
        <time>2018-08-20T18:26:21Z</time>
      </trkpt>
      <trkpt lat="-28.460555" lon="-65.7626">
        <ele>523.7</ele>
        <time>2018-08-20T18:26:23Z</time>
      </trkpt>
      <trkpt lat="-28.460565" lon="-65.762705">
        <ele>523.4</ele>
        <time>2018-08-20T18:26:25Z</time>
      </trkpt>
      <trkpt lat="-28.46059" lon="-65.762825">
        <ele>522.8</ele>
        <time>2018-08-20T18:26:27Z</time>
      </trkpt>
      <trkpt lat="-28.46062" lon="-65.76292">
        <ele>523.1</ele>
        <time>2018-08-20T18:26:29Z</time>
      </trkpt>
      <trkpt lat="-28.46065" lon="-65.763025">
        <ele>523.6</ele>
        <time>2018-08-20T18:26:31Z</time>
      </trkpt>
      <trkpt lat="-28.46065" lon="-65.763135">
        <ele>523.8</ele>
        <time>2018-08-20T18:26:33Z</time>
      </trkpt>
      <trkpt lat="-28.460645" lon="-65.763255">
        <ele>523.8</ele>
        <time>2018-08-20T18:26:35Z</time>
      </trkpt>
      <trkpt lat="-28.46064" lon="-65.76336">
        <ele>524.6</ele>
        <time>2018-08-20T18:26:37Z</time>
      </trkpt>
      <trkpt lat="-28.460635" lon="-65.763445">
        <ele>524.5</ele>
        <time>2018-08-20T18:26:39Z</time>
      </trkpt>
      <trkpt lat="-28.460625" lon="-65.763555">
        <ele>523.6</ele>
        <time>2018-08-20T18:26:41Z</time>
      </trkpt>
      <trkpt lat="-28.46062" lon="-65.76367">
        <ele>522.4</ele>
        <time>2018-08-20T18:26:43Z</time>
      </trkpt>
      <trkpt lat="-28.460615" lon="-65.763785">
        <ele>521.1</ele>
        <time>2018-08-20T18:26:45Z</time>
      </trkpt>
      <trkpt lat="-28.460605" lon="-65.763885">
        <ele>520.3</ele>
        <time>2018-08-20T18:26:47Z</time>
      </trkpt>
      <trkpt lat="-28.460591666666666" lon="-65.763975">
        <ele>520.7</ele>
        <time>2018-08-20T18:26:49Z</time>
      </trkpt>
      <trkpt lat="-28.46059" lon="-65.76406">
        <ele>521.7</ele>
        <time>2018-08-20T18:26:51Z</time>
      </trkpt>
      <trkpt lat="-28.460585000000002" lon="-65.764195">
        <ele>523.8</ele>
        <time>2018-08-20T18:26:54Z</time>
      </trkpt>
      <trkpt lat="-28.46057" lon="-65.764325">
        <ele>523.9</ele>
        <time>2018-08-20T18:26:56Z</time>
      </trkpt>
      <trkpt lat="-28.460545" lon="-65.76443">
        <ele>523.4</ele>
        <time>2018-08-20T18:26:58Z</time>
      </trkpt>
      <trkpt lat="-28.460535" lon="-65.76455">
        <ele>522.5</ele>
        <time>2018-08-20T18:27:00Z</time>
      </trkpt>
      <trkpt lat="-28.460523333333335" lon="-65.764655">
        <ele>522.1</ele>
        <time>2018-08-20T18:27:02Z</time>
      </trkpt>
      <trkpt lat="-28.46052" lon="-65.76474166666667">
        <ele>522.1</ele>
        <time>2018-08-20T18:27:04Z</time>
      </trkpt>
      <trkpt lat="-28.46051" lon="-65.764845">
        <ele>522.7</ele>
        <time>2018-08-20T18:27:06Z</time>
      </trkpt>
      <trkpt lat="-28.4605" lon="-65.764955">
        <ele>522.9</ele>
        <time>2018-08-20T18:27:08Z</time>
      </trkpt>
      <trkpt lat="-28.46049" lon="-65.765055">
        <ele>522.6</ele>
        <time>2018-08-20T18:27:10Z</time>
      </trkpt>
      <trkpt lat="-28.46048" lon="-65.76514666666667">
        <ele>522.6</ele>
        <time>2018-08-20T18:27:12Z</time>
      </trkpt>
      <trkpt lat="-28.46047" lon="-65.765235">
        <ele>522.9</ele>
        <time>2018-08-20T18:27:14Z</time>
      </trkpt>
      <trkpt lat="-28.460465" lon="-65.76533">
        <ele>523.1</ele>
        <time>2018-08-20T18:27:17Z</time>
      </trkpt>
      <trkpt lat="-28.460455" lon="-65.765435">
        <ele>523.2</ele>
        <time>2018-08-20T18:27:20Z</time>
      </trkpt>
      <trkpt lat="-28.46045" lon="-65.76551666666667">
        <ele>523.6</ele>
        <time>2018-08-20T18:27:23Z</time>
      </trkpt>
      <trkpt lat="-28.460445" lon="-65.76562">
        <ele>523.9</ele>
        <time>2018-08-20T18:27:27Z</time>
      </trkpt>
      <trkpt lat="-28.46042" lon="-65.765705">
        <ele>524.5</ele>
        <time>2018-08-20T18:27:32Z</time>
      </trkpt>
      <trkpt lat="-28.460415" lon="-65.76578333333333">
        <ele>524.7</ele>
        <time>2018-08-20T18:27:36Z</time>
      </trkpt>
      <trkpt lat="-28.46041" lon="-65.76589">
        <ele>524.7</ele>
        <time>2018-08-20T18:27:39Z</time>
      </trkpt>
      <trkpt lat="-28.4604" lon="-65.76598">
        <ele>524.7</ele>
        <time>2018-08-20T18:27:41Z</time>
      </trkpt>
      <trkpt lat="-28.46039" lon="-65.76609">
        <ele>524.8</ele>
        <time>2018-08-20T18:27:44Z</time>
      </trkpt>
      <trkpt lat="-28.46038" lon="-65.76618166666667">
        <ele>524.8</ele>
        <time>2018-08-20T18:27:46Z</time>
      </trkpt>
      <trkpt lat="-28.46038" lon="-65.76627">
        <ele>525.0</ele>
        <time>2018-08-20T18:27:48Z</time>
      </trkpt>
      <trkpt lat="-28.460366666666665" lon="-65.76637166666667">
        <ele>525.1</ele>
        <time>2018-08-20T18:27:50Z</time>
      </trkpt>
      <trkpt lat="-28.460356666666666" lon="-65.766495">
        <ele>525.1</ele>
        <time>2018-08-20T18:27:52Z</time>
      </trkpt>
      <trkpt lat="-28.46035" lon="-65.766605">
        <ele>525.1</ele>
        <time>2018-08-20T18:27:54Z</time>
      </trkpt>
      <trkpt lat="-28.460355" lon="-65.7667">
        <ele>524.8</ele>
        <time>2018-08-20T18:27:56Z</time>
      </trkpt>
      <trkpt lat="-28.46034" lon="-65.76681166666667">
        <ele>523.9</ele>
        <time>2018-08-20T18:27:58Z</time>
      </trkpt>
      <trkpt lat="-28.46033" lon="-65.766925">
        <ele>523.2</ele>
        <time>2018-08-20T18:28:00Z</time>
      </trkpt>
      <trkpt lat="-28.46032" lon="-65.76704333333333">
        <ele>522.9</ele>
        <time>2018-08-20T18:28:02Z</time>
      </trkpt>
      <trkpt lat="-28.46031" lon="-65.76715">
        <ele>522.9</ele>
        <time>2018-08-20T18:28:04Z</time>
      </trkpt>
      <trkpt lat="-28.4603" lon="-65.767255">
        <ele>522.8</ele>
        <time>2018-08-20T18:28:06Z</time>
      </trkpt>
      <trkpt lat="-28.460286666666665" lon="-65.767365">
        <ele>522.2</ele>
        <time>2018-08-20T18:28:08Z</time>
      </trkpt>
      <trkpt lat="-28.46028" lon="-65.76748">
        <ele>521.9</ele>
        <time>2018-08-20T18:28:10Z</time>
      </trkpt>
      <trkpt lat="-28.46027" lon="-65.76759">
        <ele>522.2</ele>
        <time>2018-08-20T18:28:12Z</time>
      </trkpt>
      <trkpt lat="-28.46026" lon="-65.767705">
        <ele>523.1</ele>
        <time>2018-08-20T18:28:14Z</time>
      </trkpt>
      <trkpt lat="-28.460245" lon="-65.767815">
        <ele>523.9</ele>
        <time>2018-08-20T18:28:16Z</time>
      </trkpt>
      <trkpt lat="-28.46024" lon="-65.767915">
        <ele>525.3</ele>
        <time>2018-08-20T18:28:18Z</time>
      </trkpt>
      <trkpt lat="-28.460225" lon="-65.76802">
        <ele>525.5</ele>
        <time>2018-08-20T18:28:20Z</time>
      </trkpt>
      <trkpt lat="-28.46021" lon="-65.76812666666666">
        <ele>525.4</ele>
        <time>2018-08-20T18:28:22Z</time>
      </trkpt>
      <trkpt lat="-28.46021" lon="-65.768225">
        <ele>524.8</ele>
        <time>2018-08-20T18:28:24Z</time>
      </trkpt>
      <trkpt lat="-28.460205" lon="-65.768325">
        <ele>524.2</ele>
        <time>2018-08-20T18:28:26Z</time>
      </trkpt>
      <trkpt lat="-28.460195" lon="-65.76845">
        <ele>524.3</ele>
        <time>2018-08-20T18:28:28Z</time>
      </trkpt>
      <trkpt lat="-28.46019" lon="-65.76855">
        <ele>524.8</ele>
        <time>2018-08-20T18:28:30Z</time>
      </trkpt>
      <trkpt lat="-28.460185" lon="-65.76864833333333">
        <ele>524.8</ele>
        <time>2018-08-20T18:28:32Z</time>
      </trkpt>
      <trkpt lat="-28.460176666666666" lon="-65.768755">
        <ele>525.4</ele>
        <time>2018-08-20T18:28:34Z</time>
      </trkpt>
      <trkpt lat="-28.460175" lon="-65.76885">
        <ele>525.7</ele>
        <time>2018-08-20T18:28:36Z</time>
      </trkpt>
      <trkpt lat="-28.460176666666666" lon="-65.76894">
        <ele>525.3</ele>
        <time>2018-08-20T18:28:38Z</time>
      </trkpt>
      <trkpt lat="-28.460185" lon="-65.769035">
        <ele>524.3</ele>
        <time>2018-08-20T18:28:40Z</time>
      </trkpt>
      <trkpt lat="-28.46019" lon="-65.76913">
        <ele>523.5</ele>
        <time>2018-08-20T18:28:42Z</time>
      </trkpt>
      <trkpt lat="-28.46019" lon="-65.769215">
        <ele>523.6</ele>
        <time>2018-08-20T18:28:45Z</time>
      </trkpt>
      <trkpt lat="-28.460195" lon="-65.76932333333333">
        <ele>524.1</ele>
        <time>2018-08-20T18:28:49Z</time>
      </trkpt>
      <trkpt lat="-28.46021" lon="-65.76944">
        <ele>524.0</ele>
        <time>2018-08-20T18:28:52Z</time>
      </trkpt>
      <trkpt lat="-28.460225" lon="-65.769535">
        <ele>523.5</ele>
        <time>2018-08-20T18:28:57Z</time>
      </trkpt>
      <trkpt lat="-28.46022" lon="-65.76962">
        <ele>523.2</ele>
        <time>2018-08-20T18:29:01Z</time>
      </trkpt>
      <trkpt lat="-28.460205" lon="-65.76972">
        <ele>522.9</ele>
        <time>2018-08-20T18:29:05Z</time>
      </trkpt>
      <trkpt lat="-28.4602" lon="-65.769785">
        <ele>522.6</ele>
        <time>2018-08-20T18:29:12Z</time>
      </trkpt>
      <trkpt lat="-28.460195" lon="-65.769785">
        <ele>522.6</ele>
        <time>2018-08-20T18:29:15Z</time>
      </trkpt>
      <trkpt lat="-28.460225" lon="-65.76976666666667">
        <ele>522.5</ele>
        <time>2018-08-20T18:29:26Z</time>
      </trkpt>
      <trkpt lat="-28.460235" lon="-65.76976666666667">
        <ele>522.4</ele>
        <time>2018-08-20T18:29:27Z</time>
      </trkpt>
      <trkpt lat="-28.46024" lon="-65.769785">
        <ele>522.0</ele>
        <time>2018-08-20T18:29:36Z</time>
      </trkpt>
      <trkpt lat="-28.46022" lon="-65.76986166666667">
        <ele>521.9</ele>
        <time>2018-08-20T18:29:39Z</time>
      </trkpt>
      <trkpt lat="-28.460205" lon="-65.76995166666667">
        <ele>522.0</ele>
        <time>2018-08-20T18:29:42Z</time>
      </trkpt>
      <trkpt lat="-28.4602" lon="-65.770065">
        <ele>522.1</ele>
        <time>2018-08-20T18:29:45Z</time>
      </trkpt>
      <trkpt lat="-28.460205" lon="-65.77016333333333">
        <ele>522.2</ele>
        <time>2018-08-20T18:29:48Z</time>
      </trkpt>
      <trkpt lat="-28.460205" lon="-65.770295">
        <ele>522.2</ele>
        <time>2018-08-20T18:29:51Z</time>
      </trkpt>
      <trkpt lat="-28.460205" lon="-65.77038666666667">
        <ele>522.2</ele>
        <time>2018-08-20T18:29:53Z</time>
      </trkpt>
      <trkpt lat="-28.46021" lon="-65.77049166666667">
        <ele>522.3</ele>
        <time>2018-08-20T18:29:56Z</time>
      </trkpt>
      <trkpt lat="-28.460213333333332" lon="-65.770585">
        <ele>522.2</ele>
        <time>2018-08-20T18:29:58Z</time>
      </trkpt>
      <trkpt lat="-28.46022" lon="-65.770695">
        <ele>522.3</ele>
        <time>2018-08-20T18:30:01Z</time>
      </trkpt>
      <trkpt lat="-28.46022" lon="-65.770795">
        <ele>522.4</ele>
        <time>2018-08-20T18:30:04Z</time>
      </trkpt>
      <trkpt lat="-28.460211666666666" lon="-65.770885">
        <ele>522.5</ele>
        <time>2018-08-20T18:30:08Z</time>
      </trkpt>
      <trkpt lat="-28.46021" lon="-65.77091">
        <ele>522.5</ele>
        <time>2018-08-20T18:30:15Z</time>
      </trkpt>
      <trkpt lat="-28.460213333333332" lon="-65.77091">
        <ele>522.5</ele>
        <time>2018-08-20T18:30:17Z</time>
      </trkpt>
    </trkseg>
  </trk>
</gpx>
